<?xml version='1.0' encoding='UTF-8'?><gpx version="1.1" creator="JPX - https://github.com/jenetics/jpx" xmlns="http://www.topografix.com/GPX/1/1"><trk><trkseg><trkpt lat="44.1849517" lon="12.1150283"><ele>28.999999999999996</ele><time>2026-04-25T05:52:48.02Z</time></trkpt><trkpt lat="44.1849367" lon="12.1151317"><ele>29.0</ele><time>2026-04-25T05:52:52.021Z</time></trkpt><trkpt lat="44.1849083" lon="12.1152283"><ele>29.0</ele><time>2026-04-25T05:52:55.021Z</time></trkpt><trkpt lat="44.18488" lon="12.1153083"><ele>29.0</ele><time>2026-04-25T05:52:58.021Z</time></trkpt><trkpt lat="44.1847933" lon="12.1153517"><ele>28.999999999999996</ele><time>2026-04-25T05:53:01.021Z</time></trkpt><trkpt lat="44.184715" lon="12.11532"><ele>29.0</ele><time>2026-04-25T05:53:03.021Z</time></trkpt><trkpt lat="44.18466" lon="12.1153633"><ele>29.000000000000004</ele><time>2026-04-25T05:53:06.021Z</time></trkpt><trkpt lat="44.1846333" lon="12.11546"><ele>29.0</ele><time>2026-04-25T05:53:09.02Z</time></trkpt><trkpt lat="44.1845967" lon="12.1155767"><ele>29.000000000000004</ele><time>2026-04-25T05:53:12.021Z</time></trkpt><trkpt lat="44.1845633" lon="12.1156533"><ele>29.000000000000004</ele><time>2026-04-25T05:53:14.021Z</time></trkpt><trkpt lat="44.1845333" lon="12.1157483"><ele>29.0</ele><time>2026-04-25T05:53:16.021Z</time></trkpt><trkpt lat="44.1844933" lon="12.11583"><ele>29.000000000000004</ele><time>2026-04-25T05:53:18.021Z</time></trkpt><trkpt lat="44.184465" lon="12.1159217"><ele>29.000000000000004</ele><time>2026-04-25T05:53:21.021Z</time></trkpt><trkpt lat="44.1844367" lon="12.1160133"><ele>29.166666666666664</ele><time>2026-04-25T05:53:24.021Z</time></trkpt><trkpt lat="44.1843933" lon="12.1161017"><ele>29.333333333333332</ele><time>2026-04-25T05:53:27.021Z</time></trkpt><trkpt lat="44.18435" lon="12.1162067"><ele>29.5</ele><time>2026-04-25T05:53:30.021Z</time></trkpt><trkpt lat="44.184295" lon="12.1163083"><ele>29.666666666666664</ele><time>2026-04-25T05:53:33.021Z</time></trkpt><trkpt lat="44.1842883" lon="12.116415"><ele>29.833333333333332</ele><time>2026-04-25T05:53:36.021Z</time></trkpt><trkpt lat="44.1843533" lon="12.116465"><ele>30.0</ele><time>2026-04-25T05:53:39.02Z</time></trkpt><trkpt lat="44.1844033" lon="12.11652"><ele>30.0</ele><time>2026-04-25T05:53:41.021Z</time></trkpt><trkpt lat="44.1844283" lon="12.1166317"><ele>30.0</ele><time>2026-04-25T05:53:44.02Z</time></trkpt><trkpt lat="44.1844433" lon="12.116745"><ele>30.0</ele><time>2026-04-25T05:53:47.02Z</time></trkpt><trkpt lat="44.1844383" lon="12.1168417"><ele>30.0</ele><time>2026-04-25T05:53:49.02Z</time></trkpt><trkpt lat="44.1844067" lon="12.1169767"><ele>30.0</ele><time>2026-04-25T05:53:52.021Z</time></trkpt><trkpt lat="44.184375" lon="12.1170633"><ele>30.0</ele><time>2026-04-25T05:53:54.021Z</time></trkpt><trkpt lat="44.184325" lon="12.117145"><ele>30.0</ele><time>2026-04-25T05:53:56.02Z</time></trkpt><trkpt lat="44.1842867" lon="12.117225"><ele>30.0</ele><time>2026-04-25T05:53:58.021Z</time></trkpt><trkpt lat="44.184245" lon="12.1173217"><ele>30.0</ele><time>2026-04-25T05:54:00.021Z</time></trkpt><trkpt lat="44.1842133" lon="12.1174267"><ele>30.0</ele><time>2026-04-25T05:54:02.021Z</time></trkpt><trkpt lat="44.18422" lon="12.1175333"><ele>30.0</ele><time>2026-04-25T05:54:04.021Z</time></trkpt><trkpt lat="44.1842617" lon="12.1176267"><ele>30.0</ele><time>2026-04-25T05:54:06.021Z</time></trkpt><trkpt lat="44.1843233" lon="12.1176967"><ele>29.5</ele><time>2026-04-25T05:54:08.022Z</time></trkpt><trkpt lat="44.184395" lon="12.1177367"><ele>29.0</ele><time>2026-04-25T05:54:10.022Z</time></trkpt><trkpt lat="44.1844567" lon="12.1177917"><ele>28.5</ele><time>2026-04-25T05:54:12.022Z</time></trkpt><trkpt lat="44.18447" lon="12.1179083"><ele>28.0</ele><time>2026-04-25T05:54:15.021Z</time></trkpt><trkpt lat="44.1844183" lon="12.11802"><ele>27.5</ele><time>2026-04-25T05:54:17.022Z</time></trkpt><trkpt lat="44.1843717" lon="12.118115"><ele>27.0</ele><time>2026-04-25T05:54:19.021Z</time></trkpt><trkpt lat="44.1843283" lon="12.1182083"><ele>27.0</ele><time>2026-04-25T05:54:21.021Z</time></trkpt><trkpt lat="44.1843133" lon="12.118295"><ele>27.0</ele><time>2026-04-25T05:54:23.022Z</time></trkpt><trkpt lat="44.1843767" lon="12.118405"><ele>27.0</ele><time>2026-04-25T05:54:26.022Z</time></trkpt><trkpt lat="44.18445" lon="12.1184783"><ele>27.0</ele><time>2026-04-25T05:54:28.021Z</time></trkpt><trkpt lat="44.18452" lon="12.1185517"><ele>27.0</ele><time>2026-04-25T05:54:30.022Z</time></trkpt><trkpt lat="44.1845883" lon="12.1186217"><ele>27.0</ele><time>2026-04-25T05:54:32.022Z</time></trkpt><trkpt lat="44.184645" lon="12.1186733"><ele>27.0</ele><time>2026-04-25T05:54:34.022Z</time></trkpt><trkpt lat="44.1847133" lon="12.1187367"><ele>27.0</ele><time>2026-04-25T05:54:36.022Z</time></trkpt><trkpt lat="44.1847733" lon="12.1188117"><ele>27.0</ele><time>2026-04-25T05:54:38.022Z</time></trkpt><trkpt lat="44.18484" lon="12.1188817"><ele>27.0</ele><time>2026-04-25T05:54:40.022Z</time></trkpt><trkpt lat="44.1848717" lon="12.11897"><ele>27.0</ele><time>2026-04-25T05:54:42.022Z</time></trkpt><trkpt lat="44.1848817" lon="12.11909"><ele>27.0</ele><time>2026-04-25T05:54:47.022Z</time></trkpt><trkpt lat="44.1848083" lon="12.1192017"><ele>27.200000000000003</ele><time>2026-04-25T05:54:49.021Z</time></trkpt><trkpt lat="44.1847383" lon="12.1193183"><ele>27.400000000000002</ele><time>2026-04-25T05:54:51.022Z</time></trkpt><trkpt lat="44.1846917" lon="12.1194267"><ele>27.599999999999998</ele><time>2026-04-25T05:54:53.022Z</time></trkpt><trkpt lat="44.184645" lon="12.1195467"><ele>27.799999999999997</ele><time>2026-04-25T05:54:55.022Z</time></trkpt><trkpt lat="44.1846" lon="12.1196667"><ele>28.0</ele><time>2026-04-25T05:54:57.022Z</time></trkpt><trkpt lat="44.1845567" lon="12.11977"><ele>28.000000000000004</ele><time>2026-04-25T05:54:59.021Z</time></trkpt><trkpt lat="44.1845233" lon="12.1198733"><ele>28.0</ele><time>2026-04-25T05:55:01.021Z</time></trkpt><trkpt lat="44.1844783" lon="12.11997"><ele>28.0</ele><time>2026-04-25T05:55:04.022Z</time></trkpt><trkpt lat="44.1844483" lon="12.120065"><ele>28.0</ele><time>2026-04-25T05:55:07.021Z</time></trkpt><trkpt lat="44.1844133" lon="12.120155"><ele>28.000000000000004</ele><time>2026-04-25T05:55:10.022Z</time></trkpt><trkpt lat="44.1843683" lon="12.12025"><ele>28.0</ele><time>2026-04-25T05:55:13.022Z</time></trkpt><trkpt lat="44.1843383" lon="12.1203517"><ele>28.000000000000004</ele><time>2026-04-25T05:55:16.022Z</time></trkpt><trkpt lat="44.1843783" lon="12.1204367"><ele>28.0</ele><time>2026-04-25T05:55:19.021Z</time></trkpt><trkpt lat="44.1844183" lon="12.1205283"><ele>28.0</ele><time>2026-04-25T05:55:22.022Z</time></trkpt><trkpt lat="44.1844367" lon="12.1206217"><ele>28.0</ele><time>2026-04-25T05:55:24.022Z</time></trkpt><trkpt lat="44.184435" lon="12.1207283"><ele>28.000000000000004</ele><time>2026-04-25T05:55:26.021Z</time></trkpt><trkpt lat="44.18441" lon="12.1208317"><ele>28.0</ele><time>2026-04-25T05:55:28.021Z</time></trkpt><trkpt lat="44.1843783" lon="12.12094"><ele>28.333333333333336</ele><time>2026-04-25T05:55:30.021Z</time></trkpt><trkpt lat="44.1843483" lon="12.1210517"><ele>28.666666666666668</ele><time>2026-04-25T05:55:32.022Z</time></trkpt><trkpt lat="44.1843133" lon="12.12116"><ele>29.0</ele><time>2026-04-25T05:55:34.022Z</time></trkpt><trkpt lat="44.1842717" lon="12.121265"><ele>29.333333333333336</ele><time>2026-04-25T05:55:36.022Z</time></trkpt><trkpt lat="44.1842383" lon="12.1213733"><ele>29.666666666666668</ele><time>2026-04-25T05:55:38.021Z</time></trkpt><trkpt lat="44.184185" lon="12.1214783"><ele>30.0</ele><time>2026-04-25T05:55:40.021Z</time></trkpt><trkpt lat="44.1841283" lon="12.1215683"><ele>30.166666666666668</ele><time>2026-04-25T05:55:42.022Z</time></trkpt><trkpt lat="44.1840883" lon="12.1216533"><ele>30.333333333333336</ele><time>2026-04-25T05:55:44.021Z</time></trkpt><trkpt lat="44.1841033" lon="12.121785"><ele>30.5</ele><time>2026-04-25T05:55:47.022Z</time></trkpt><trkpt lat="44.1841483" lon="12.1218467"><ele>30.666666666666668</ele><time>2026-04-25T05:55:49.022Z</time></trkpt><trkpt lat="44.1842067" lon="12.121895"><ele>30.833333333333336</ele><time>2026-04-25T05:55:51.022Z</time></trkpt><trkpt lat="44.184275" lon="12.12195"><ele>31.0</ele><time>2026-04-25T05:55:53.022Z</time></trkpt><trkpt lat="44.18435" lon="12.12201"><ele>31.0</ele><time>2026-04-25T05:55:55.022Z</time></trkpt><trkpt lat="44.1844217" lon="12.1220767"><ele>31.0</ele><time>2026-04-25T05:55:57.021Z</time></trkpt><trkpt lat="44.18451" lon="12.122145"><ele>31.0</ele><time>2026-04-25T05:55:59.021Z</time></trkpt><trkpt lat="44.184605" lon="12.1222183"><ele>31.0</ele><time>2026-04-25T05:56:01.022Z</time></trkpt><trkpt lat="44.1847" lon="12.1222933"><ele>31.0</ele><time>2026-04-25T05:56:03.022Z</time></trkpt><trkpt lat="44.1847967" lon="12.1223683"><ele>31.0</ele><time>2026-04-25T05:56:05.022Z</time></trkpt><trkpt lat="44.1848983" lon="12.122435"><ele>31.0</ele><time>2026-04-25T05:56:07.021Z</time></trkpt><trkpt lat="44.184995" lon="12.1225"><ele>31.0</ele><time>2026-04-25T05:56:09.022Z</time></trkpt><trkpt lat="44.1850917" lon="12.1225717"><ele>31.0</ele><time>2026-04-25T05:56:11.022Z</time></trkpt><trkpt lat="44.1851783" lon="12.12265"><ele>31.0</ele><time>2026-04-25T05:56:13.022Z</time></trkpt><trkpt lat="44.1852767" lon="12.1227333"><ele>31.0</ele><time>2026-04-25T05:56:15.022Z</time></trkpt><trkpt lat="44.185365" lon="12.1228217"><ele>31.0</ele><time>2026-04-25T05:56:17.022Z</time></trkpt><trkpt lat="44.1854417" lon="12.1229283"><ele>31.0</ele><time>2026-04-25T05:56:19.022Z</time></trkpt><trkpt lat="44.1855033" lon="12.1230383"><ele>31.0</ele><time>2026-04-25T05:56:21.021Z</time></trkpt><trkpt lat="44.1855283" lon="12.123175"><ele>31.0</ele><time>2026-04-25T05:56:23.022Z</time></trkpt><trkpt lat="44.1855267" lon="12.1233117"><ele>31.4</ele><time>2026-04-25T05:56:25.022Z</time></trkpt><trkpt lat="44.1855" lon="12.1234433"><ele>31.8</ele><time>2026-04-25T05:56:27.022Z</time></trkpt><trkpt lat="44.185465" lon="12.123565"><ele>32.199999999999996</ele><time>2026-04-25T05:56:29.021Z</time></trkpt><trkpt lat="44.1854167" lon="12.1236817"><ele>32.6</ele><time>2026-04-25T05:56:31.022Z</time></trkpt><trkpt lat="44.1853667" lon="12.1237867"><ele>33.0</ele><time>2026-04-25T05:56:33.021Z</time></trkpt><trkpt lat="44.18532" lon="12.1238983"><ele>33.0</ele><time>2026-04-25T05:56:35.022Z</time></trkpt><trkpt lat="44.1852867" lon="12.124005"><ele>33.0</ele><time>2026-04-25T05:56:37.021Z</time></trkpt><trkpt lat="44.185255" lon="12.1240983"><ele>33.0</ele><time>2026-04-25T05:56:39.022Z</time></trkpt><trkpt lat="44.1852217" lon="12.12419"><ele>33.0</ele><time>2026-04-25T05:56:41.022Z</time></trkpt><trkpt lat="44.18518" lon="12.124265"><ele>33.0</ele><time>2026-04-25T05:56:43.022Z</time></trkpt><trkpt lat="44.185135" lon="12.124355"><ele>33.0</ele><time>2026-04-25T05:56:46.022Z</time></trkpt><trkpt lat="44.1851783" lon="12.1244617"><ele>33.0</ele><time>2026-04-25T05:56:49.022Z</time></trkpt><trkpt lat="44.18519" lon="12.1245583"><ele>33.0</ele><time>2026-04-25T05:56:51.022Z</time></trkpt><trkpt lat="44.185175" lon="12.1246517"><ele>33.0</ele><time>2026-04-25T05:56:53.022Z</time></trkpt><trkpt lat="44.1851683" lon="12.1247533"><ele>33.0</ele><time>2026-04-25T05:56:55.022Z</time></trkpt><trkpt lat="44.18517" lon="12.1248583"><ele>33.0</ele><time>2026-04-25T05:56:57.022Z</time></trkpt><trkpt lat="44.185165" lon="12.1249667"><ele>33.0</ele><time>2026-04-25T05:56:59.022Z</time></trkpt><trkpt lat="44.1851783" lon="12.1250733"><ele>33.0</ele><time>2026-04-25T05:57:01.022Z</time></trkpt><trkpt lat="44.18519" lon="12.12518"><ele>33.0</ele><time>2026-04-25T05:57:03.022Z</time></trkpt><trkpt lat="44.1852167" lon="12.1253017"><ele>33.0</ele><time>2026-04-25T05:57:05.021Z</time></trkpt><trkpt lat="44.1852517" lon="12.1254233"><ele>33.0</ele><time>2026-04-25T05:57:07.022Z</time></trkpt><trkpt lat="44.18528" lon="12.1255483"><ele>33.0</ele><time>2026-04-25T05:57:09.022Z</time></trkpt><trkpt lat="44.1853167" lon="12.1256633"><ele>33.0</ele><time>2026-04-25T05:57:11.022Z</time></trkpt><trkpt lat="44.1853467" lon="12.1257817"><ele>32.8</ele><time>2026-04-25T05:57:13.022Z</time></trkpt><trkpt lat="44.1853833" lon="12.1259"><ele>32.599999999999994</ele><time>2026-04-25T05:57:15.021Z</time></trkpt><trkpt lat="44.1854167" lon="12.126025"><ele>32.400000000000006</ele><time>2026-04-25T05:57:17.022Z</time></trkpt><trkpt lat="44.1854633" lon="12.126145"><ele>32.2</ele><time>2026-04-25T05:57:19.021Z</time></trkpt><trkpt lat="44.18549" lon="12.126255"><ele>32.0</ele><time>2026-04-25T05:57:21.022Z</time></trkpt><trkpt lat="44.1855283" lon="12.1263683"><ele>31.999999999999996</ele><time>2026-04-25T05:57:23.021Z</time></trkpt><trkpt lat="44.185565" lon="12.1264733"><ele>32.0</ele><time>2026-04-25T05:57:25.022Z</time></trkpt><trkpt lat="44.1855983" lon="12.1265833"><ele>32.0</ele><time>2026-04-25T05:57:27.021Z</time></trkpt><trkpt lat="44.1856283" lon="12.1266867"><ele>32.0</ele><time>2026-04-25T05:57:29.022Z</time></trkpt><trkpt lat="44.1856633" lon="12.12679"><ele>31.999999999999996</ele><time>2026-04-25T05:57:31.022Z</time></trkpt><trkpt lat="44.18569" lon="12.1268883"><ele>32.0</ele><time>2026-04-25T05:57:33.022Z</time></trkpt><trkpt lat="44.18568" lon="12.12698"><ele>31.999999999999996</ele><time>2026-04-25T05:57:35.022Z</time></trkpt><trkpt lat="44.185655" lon="12.1270633"><ele>32.0</ele><time>2026-04-25T05:57:37.022Z</time></trkpt><trkpt lat="44.1856267" lon="12.1271483"><ele>32.0</ele><time>2026-04-25T05:57:39.021Z</time></trkpt><trkpt lat="44.1855983" lon="12.127245"><ele>32.0</ele><time>2026-04-25T05:57:41.021Z</time></trkpt><trkpt lat="44.1855617" lon="12.1273383"><ele>31.999999999999996</ele><time>2026-04-25T05:57:43.022Z</time></trkpt><trkpt lat="44.18552" lon="12.1274383"><ele>32.0</ele><time>2026-04-25T05:57:45.022Z</time></trkpt><trkpt lat="44.1854767" lon="12.1275467"><ele>32.0</ele><time>2026-04-25T05:57:47.021Z</time></trkpt><trkpt lat="44.1854333" lon="12.1276583"><ele>32.0</ele><time>2026-04-25T05:57:49.022Z</time></trkpt><trkpt lat="44.1853883" lon="12.1277733"><ele>32.0</ele><time>2026-04-25T05:57:51.021Z</time></trkpt><trkpt lat="44.185345" lon="12.1278917"><ele>32.0</ele><time>2026-04-25T05:57:53.022Z</time></trkpt><trkpt lat="44.185305" lon="12.128005"><ele>32.0</ele><time>2026-04-25T05:57:55.021Z</time></trkpt><trkpt lat="44.1852667" lon="12.1281233"><ele>31.833333333333332</ele><time>2026-04-25T05:57:57.021Z</time></trkpt><trkpt lat="44.1852317" lon="12.1282317"><ele>31.666666666666664</ele><time>2026-04-25T05:57:59.021Z</time></trkpt><trkpt lat="44.1852033" lon="12.1283417"><ele>31.5</ele><time>2026-04-25T05:58:01.022Z</time></trkpt><trkpt lat="44.18517" lon="12.12845"><ele>31.333333333333336</ele><time>2026-04-25T05:58:03.021Z</time></trkpt><trkpt lat="44.1851267" lon="12.12856"><ele>31.166666666666668</ele><time>2026-04-25T05:58:05.022Z</time></trkpt><trkpt lat="44.1850933" lon="12.1286633"><ele>31.0</ele><time>2026-04-25T05:58:07.021Z</time></trkpt><trkpt lat="44.1850583" lon="12.1287617"><ele>31.0</ele><time>2026-04-25T05:58:09.021Z</time></trkpt><trkpt lat="44.18504" lon="12.1288567"><ele>31.000000000000004</ele><time>2026-04-25T05:58:11.022Z</time></trkpt><trkpt lat="44.18502" lon="12.1289633"><ele>31.0</ele><time>2026-04-25T05:58:13.022Z</time></trkpt><trkpt lat="44.185005" lon="12.12907"><ele>31.0</ele><time>2026-04-25T05:58:15.022Z</time></trkpt><trkpt lat="44.1849783" lon="12.1291667"><ele>31.000000000000004</ele><time>2026-04-25T05:58:17.021Z</time></trkpt><trkpt lat="44.1849217" lon="12.1292233"><ele>31.0</ele><time>2026-04-25T05:58:19.022Z</time></trkpt><trkpt lat="44.184865" lon="12.1292867"><ele>31.0</ele><time>2026-04-25T05:58:21.022Z</time></trkpt><trkpt lat="44.1848367" lon="12.1293683"><ele>31.0</ele><time>2026-04-25T05:58:23.021Z</time></trkpt><trkpt lat="44.1848383" lon="12.1294667"><ele>31.000000000000004</ele><time>2026-04-25T05:58:25.021Z</time></trkpt><trkpt lat="44.18484" lon="12.1295683"><ele>31.0</ele><time>2026-04-25T05:58:27.022Z</time></trkpt><trkpt lat="44.184825" lon="12.1296667"><ele>31.0</ele><time>2026-04-25T05:58:29.022Z</time></trkpt><trkpt lat="44.1847933" lon="12.1297533"><ele>31.000000000000004</ele><time>2026-04-25T05:58:31.022Z</time></trkpt><trkpt lat="44.184765" lon="12.1298367"><ele>31.0</ele><time>2026-04-25T05:58:33.022Z</time></trkpt><trkpt lat="44.1847317" lon="12.129915"><ele>31.0</ele><time>2026-04-25T05:58:35.021Z</time></trkpt><trkpt lat="44.18468" lon="12.129975"><ele>31.000000000000004</ele><time>2026-04-25T05:58:38.022Z</time></trkpt><trkpt lat="44.18461" lon="12.130005"><ele>31.0</ele><time>2026-04-25T05:58:41.022Z</time></trkpt><trkpt lat="44.1845483" lon="12.1300767"><ele>31.0</ele><time>2026-04-25T05:58:45.021Z</time></trkpt><trkpt lat="44.1844667" lon="12.1300367"><ele>31.0</ele><time>2026-04-25T06:03:14.043Z</time></trkpt><trkpt lat="44.184565" lon="12.1300233"><ele>31.000000000000004</ele><time>2026-04-25T06:05:00.023Z</time></trkpt><trkpt lat="44.1846133" lon="12.1299633"><ele>31.0</ele><time>2026-04-25T06:05:05.022Z</time></trkpt><trkpt lat="44.1846683" lon="12.1300233"><ele>31.0</ele><time>2026-04-25T06:05:12.024Z</time></trkpt><trkpt lat="44.1846583" lon="12.1301383"><ele>31.0</ele><time>2026-04-25T06:05:17.024Z</time></trkpt><trkpt lat="44.184625" lon="12.1302783"><ele>31.0</ele><time>2026-04-25T06:05:20.024Z</time></trkpt><trkpt lat="44.1845883" lon="12.1303783"><ele>31.0</ele><time>2026-04-25T06:05:22.024Z</time></trkpt><trkpt lat="44.18455" lon="12.13049"><ele>31.0</ele><time>2026-04-25T06:05:24.023Z</time></trkpt><trkpt lat="44.1845033" lon="12.1306117"><ele>31.000000000000004</ele><time>2026-04-25T06:05:27.618Z</time></trkpt><trkpt lat="44.1845033" lon="12.1307133"><ele>31.0</ele><time>2026-04-25T06:05:28.524Z</time></trkpt><trkpt lat="44.1844867" lon="12.1308333"><ele>31.0</ele><time>2026-04-25T06:05:29.524Z</time></trkpt><trkpt lat="44.1844533" lon="12.1309517"><ele>31.0</ele><time>2026-04-25T06:05:31.024Z</time></trkpt><trkpt lat="44.184415" lon="12.131075"><ele>31.000000000000004</ele><time>2026-04-25T06:05:33.024Z</time></trkpt><trkpt lat="44.1843683" lon="12.1311917"><ele>31.0</ele><time>2026-04-25T06:05:35.023Z</time></trkpt><trkpt lat="44.1843283" lon="12.1313083"><ele>31.0</ele><time>2026-04-25T06:05:37.023Z</time></trkpt><trkpt lat="44.18428" lon="12.13143"><ele>31.0</ele><time>2026-04-25T06:05:39.024Z</time></trkpt><trkpt lat="44.1842417" lon="12.131555"><ele>31.0</ele><time>2026-04-25T06:05:41.024Z</time></trkpt><trkpt lat="44.1841933" lon="12.1316783"><ele>31.0</ele><time>2026-04-25T06:05:43.023Z</time></trkpt><trkpt lat="44.1841567" lon="12.1318117"><ele>31.0</ele><time>2026-04-25T06:05:45.024Z</time></trkpt><trkpt lat="44.1841033" lon="12.1320217"><ele>31.0</ele><time>2026-04-25T06:05:48.024Z</time></trkpt><trkpt lat="44.184055" lon="12.1321583"><ele>31.0</ele><time>2026-04-25T06:05:50.024Z</time></trkpt><trkpt lat="44.1840017" lon="12.132295"><ele>31.0</ele><time>2026-04-25T06:05:52.023Z</time></trkpt><trkpt lat="44.1839717" lon="12.1323767"><ele>31.0</ele><time>2026-04-25T06:05:53.024Z</time></trkpt><trkpt lat="44.1839333" lon="12.1325167"><ele>31.0</ele><time>2026-04-25T06:05:55.024Z</time></trkpt><trkpt lat="44.1838917" lon="12.132665"><ele>31.0</ele><time>2026-04-25T06:05:57.023Z</time></trkpt><trkpt lat="44.1838683" lon="12.1327467"><ele>31.0</ele><time>2026-04-25T06:05:58.023Z</time></trkpt><trkpt lat="44.1838483" lon="12.132835"><ele>31.0</ele><time>2026-04-25T06:05:59.024Z</time></trkpt><trkpt lat="44.1838133" lon="12.1329917"><ele>31.0</ele><time>2026-04-25T06:06:01.024Z</time></trkpt><trkpt lat="44.18377" lon="12.13315"><ele>31.0</ele><time>2026-04-25T06:06:03.023Z</time></trkpt><trkpt lat="44.1837117" lon="12.1332883"><ele>30.8</ele><time>2026-04-25T06:06:05.024Z</time></trkpt><trkpt lat="44.1836483" lon="12.1334183"><ele>30.6</ele><time>2026-04-25T06:06:07.024Z</time></trkpt><trkpt lat="44.1835483" lon="12.1334567"><ele>30.4</ele><time>2026-04-25T06:06:09.024Z</time></trkpt><trkpt lat="44.18343" lon="12.1334467"><ele>30.2</ele><time>2026-04-25T06:06:11.024Z</time></trkpt><trkpt lat="44.1833167" lon="12.13344"><ele>30.0</ele><time>2026-04-25T06:06:13.024Z</time></trkpt><trkpt lat="44.1832533" lon="12.1334133"><ele>30.2</ele><time>2026-04-25T06:06:14.024Z</time></trkpt><trkpt lat="44.1831567" lon="12.133395"><ele>30.4</ele><time>2026-04-25T06:06:16.024Z</time></trkpt><trkpt lat="44.183055" lon="12.1333983"><ele>30.6</ele><time>2026-04-25T06:06:18.024Z</time></trkpt><trkpt lat="44.1829467" lon="12.1334033"><ele>30.8</ele><time>2026-04-25T06:06:20.024Z</time></trkpt><trkpt lat="44.182835" lon="12.1333883"><ele>31.0</ele><time>2026-04-25T06:06:22.023Z</time></trkpt><trkpt lat="44.182725" lon="12.133395"><ele>31.0</ele><time>2026-04-25T06:06:24.023Z</time></trkpt><trkpt lat="44.1826183" lon="12.1334"><ele>31.0</ele><time>2026-04-25T06:06:26.024Z</time></trkpt><trkpt lat="44.18251" lon="12.1334117"><ele>31.0</ele><time>2026-04-25T06:06:28.024Z</time></trkpt><trkpt lat="44.182415" lon="12.1334317"><ele>31.0</ele><time>2026-04-25T06:06:30.024Z</time></trkpt><trkpt lat="44.1823283" lon="12.1335067"><ele>31.0</ele><time>2026-04-25T06:06:32.024Z</time></trkpt><trkpt lat="44.182285" lon="12.1336283"><ele>30.6</ele><time>2026-04-25T06:06:34.024Z</time></trkpt><trkpt lat="44.1822517" lon="12.133755"><ele>30.200000000000003</ele><time>2026-04-25T06:06:36.024Z</time></trkpt><trkpt lat="44.182215" lon="12.133885"><ele>29.799999999999997</ele><time>2026-04-25T06:06:38.024Z</time></trkpt><trkpt lat="44.1821833" lon="12.1340283"><ele>29.4</ele><time>2026-04-25T06:06:40.024Z</time></trkpt><trkpt lat="44.1821433" lon="12.134165"><ele>29.0</ele><time>2026-04-25T06:06:42.024Z</time></trkpt><trkpt lat="44.182105" lon="12.134305"><ele>29.0</ele><time>2026-04-25T06:06:44.023Z</time></trkpt><trkpt lat="44.1820683" lon="12.13444"><ele>29.0</ele><time>2026-04-25T06:06:46.023Z</time></trkpt><trkpt lat="44.1820233" lon="12.13456"><ele>29.0</ele><time>2026-04-25T06:06:48.023Z</time></trkpt><trkpt lat="44.1819833" lon="12.1346967"><ele>29.0</ele><time>2026-04-25T06:06:50.024Z</time></trkpt><trkpt lat="44.181945" lon="12.13483"><ele>29.0</ele><time>2026-04-25T06:06:52.024Z</time></trkpt><trkpt lat="44.1818967" lon="12.1349583"><ele>28.999999999999996</ele><time>2026-04-25T06:06:54.024Z</time></trkpt><trkpt lat="44.181845" lon="12.135075"><ele>29.0</ele><time>2026-04-25T06:06:56.023Z</time></trkpt><trkpt lat="44.1817983" lon="12.1351783"><ele>29.0</ele><time>2026-04-25T06:06:58.023Z</time></trkpt><trkpt lat="44.1817483" lon="12.135265"><ele>29.0</ele><time>2026-04-25T06:07:00.024Z</time></trkpt><trkpt lat="44.1816683" lon="12.1352933"><ele>28.999999999999996</ele><time>2026-04-25T06:07:02.023Z</time></trkpt><trkpt lat="44.18159" lon="12.13527"><ele>29.0</ele><time>2026-04-25T06:07:04.024Z</time></trkpt><trkpt lat="44.1814933" lon="12.13523"><ele>28.799999999999997</ele><time>2026-04-25T06:07:06.023Z</time></trkpt><trkpt lat="44.1814033" lon="12.1351733"><ele>28.599999999999998</ele><time>2026-04-25T06:07:08.024Z</time></trkpt><trkpt lat="44.18131" lon="12.1351167"><ele>28.4</ele><time>2026-04-25T06:07:10.023Z</time></trkpt><trkpt lat="44.181215" lon="12.13506"><ele>28.2</ele><time>2026-04-25T06:07:12.024Z</time></trkpt><trkpt lat="44.181125" lon="12.135"><ele>28.0</ele><time>2026-04-25T06:07:14.024Z</time></trkpt><trkpt lat="44.18103" lon="12.134945"><ele>28.2</ele><time>2026-04-25T06:07:16.024Z</time></trkpt><trkpt lat="44.1809333" lon="12.1348833"><ele>28.4</ele><time>2026-04-25T06:07:18.024Z</time></trkpt><trkpt lat="44.18084" lon="12.1348133"><ele>28.599999999999998</ele><time>2026-04-25T06:07:20.023Z</time></trkpt><trkpt lat="44.18074" lon="12.1347367"><ele>28.799999999999997</ele><time>2026-04-25T06:07:22.023Z</time></trkpt><trkpt lat="44.1806367" lon="12.1346667"><ele>29.0</ele><time>2026-04-25T06:07:24.024Z</time></trkpt><trkpt lat="44.180535" lon="12.1345917"><ele>29.0</ele><time>2026-04-25T06:07:26.024Z</time></trkpt><trkpt lat="44.18044" lon="12.1345133"><ele>29.0</ele><time>2026-04-25T06:07:28.024Z</time></trkpt><trkpt lat="44.1803417" lon="12.1344283"><ele>29.0</ele><time>2026-04-25T06:07:30.024Z</time></trkpt><trkpt lat="44.180245" lon="12.1343367"><ele>29.0</ele><time>2026-04-25T06:07:32.023Z</time></trkpt><trkpt lat="44.1801567" lon="12.134235"><ele>29.0</ele><time>2026-04-25T06:07:34.024Z</time></trkpt><trkpt lat="44.180065" lon="12.1341383"><ele>29.0</ele><time>2026-04-25T06:07:36.023Z</time></trkpt><trkpt lat="44.1799717" lon="12.1340517"><ele>29.0</ele><time>2026-04-25T06:07:38.024Z</time></trkpt><trkpt lat="44.179875" lon="12.1339683"><ele>29.0</ele><time>2026-04-25T06:07:40.023Z</time></trkpt><trkpt lat="44.1797817" lon="12.1338867"><ele>28.799999999999997</ele><time>2026-04-25T06:07:42.024Z</time></trkpt><trkpt lat="44.17969" lon="12.13381"><ele>28.599999999999998</ele><time>2026-04-25T06:07:44.024Z</time></trkpt><trkpt lat="44.1796017" lon="12.1337333"><ele>28.4</ele><time>2026-04-25T06:07:46.023Z</time></trkpt><trkpt lat="44.1795167" lon="12.13365"><ele>28.2</ele><time>2026-04-25T06:07:48.023Z</time></trkpt><trkpt lat="44.179425" lon="12.133575"><ele>28.0</ele><time>2026-04-25T06:07:50.024Z</time></trkpt><trkpt lat="44.17933" lon="12.1335033"><ele>28.0</ele><time>2026-04-25T06:07:52.023Z</time></trkpt><trkpt lat="44.179235" lon="12.13343"><ele>27.999999999999996</ele><time>2026-04-25T06:07:54.024Z</time></trkpt><trkpt lat="44.1791333" lon="12.133365"><ele>27.999999999999996</ele><time>2026-04-25T06:07:56.023Z</time></trkpt><trkpt lat="44.17903" lon="12.1332983"><ele>28.0</ele><time>2026-04-25T06:07:58.024Z</time></trkpt><trkpt lat="44.1789317" lon="12.1332267"><ele>28.0</ele><time>2026-04-25T06:08:00.024Z</time></trkpt><trkpt lat="44.1788317" lon="12.1331617"><ele>28.2</ele><time>2026-04-25T06:08:02.024Z</time></trkpt><trkpt lat="44.178735" lon="12.1330983"><ele>28.4</ele><time>2026-04-25T06:08:04.023Z</time></trkpt><trkpt lat="44.1786417" lon="12.1330333"><ele>28.599999999999998</ele><time>2026-04-25T06:08:06.024Z</time></trkpt><trkpt lat="44.1785467" lon="12.1329683"><ele>28.799999999999997</ele><time>2026-04-25T06:08:08.023Z</time></trkpt><trkpt lat="44.1784533" lon="12.1329033"><ele>29.0</ele><time>2026-04-25T06:08:10.024Z</time></trkpt><trkpt lat="44.1783617" lon="12.1328383"><ele>29.0</ele><time>2026-04-25T06:08:12.024Z</time></trkpt><trkpt lat="44.1782667" lon="12.1327717"><ele>29.0</ele><time>2026-04-25T06:08:14.024Z</time></trkpt><trkpt lat="44.1781717" lon="12.1327033"><ele>29.0</ele><time>2026-04-25T06:08:16.023Z</time></trkpt><trkpt lat="44.178075" lon="12.1326367"><ele>29.0</ele><time>2026-04-25T06:08:18.024Z</time></trkpt><trkpt lat="44.1779783" lon="12.13257"><ele>29.0</ele><time>2026-04-25T06:08:20.024Z</time></trkpt><trkpt lat="44.1778833" lon="12.1324967"><ele>29.0</ele><time>2026-04-25T06:08:22.024Z</time></trkpt><trkpt lat="44.177785" lon="12.13243"><ele>29.0</ele><time>2026-04-25T06:08:24.024Z</time></trkpt><trkpt lat="44.177685" lon="12.132365"><ele>29.0</ele><time>2026-04-25T06:08:26.024Z</time></trkpt><trkpt lat="44.1775817" lon="12.132295"><ele>29.0</ele><time>2026-04-25T06:08:28.024Z</time></trkpt><trkpt lat="44.1774817" lon="12.132225"><ele>29.0</ele><time>2026-04-25T06:08:30.024Z</time></trkpt><trkpt lat="44.17738" lon="12.132155"><ele>29.0</ele><time>2026-04-25T06:08:32.024Z</time></trkpt><trkpt lat="44.1772767" lon="12.1320833"><ele>29.0</ele><time>2026-04-25T06:08:34.024Z</time></trkpt><trkpt lat="44.1771767" lon="12.1320133"><ele>29.0</ele><time>2026-04-25T06:08:36.024Z</time></trkpt><trkpt lat="44.1770767" lon="12.131945"><ele>29.0</ele><time>2026-04-25T06:08:38.023Z</time></trkpt><trkpt lat="44.176975" lon="12.1318767"><ele>29.0</ele><time>2026-04-25T06:08:40.024Z</time></trkpt><trkpt lat="44.1768783" lon="12.13181"><ele>29.0</ele><time>2026-04-25T06:08:42.024Z</time></trkpt><trkpt lat="44.1767783" lon="12.131735"><ele>29.0</ele><time>2026-04-25T06:08:44.023Z</time></trkpt><trkpt lat="44.1766833" lon="12.131665"><ele>29.0</ele><time>2026-04-25T06:08:46.023Z</time></trkpt><trkpt lat="44.1765833" lon="12.1315933"><ele>29.0</ele><time>2026-04-25T06:08:48.023Z</time></trkpt><trkpt lat="44.17648" lon="12.1315283"><ele>29.5</ele><time>2026-04-25T06:08:50.024Z</time></trkpt><trkpt lat="44.1763733" lon="12.1314567"><ele>30.0</ele><time>2026-04-25T06:08:52.023Z</time></trkpt><trkpt lat="44.17627" lon="12.131385"><ele>30.5</ele><time>2026-04-25T06:08:54.023Z</time></trkpt><trkpt lat="44.176165" lon="12.131315"><ele>31.0</ele><time>2026-04-25T06:08:56.023Z</time></trkpt><trkpt lat="44.1760633" lon="12.1312383"><ele>31.0</ele><time>2026-04-25T06:08:58.023Z</time></trkpt><trkpt lat="44.1759583" lon="12.13116"><ele>31.0</ele><time>2026-04-25T06:09:00.024Z</time></trkpt><trkpt lat="44.1758533" lon="12.131085"><ele>31.0</ele><time>2026-04-25T06:09:02.024Z</time></trkpt><trkpt lat="44.17575" lon="12.1310117"><ele>31.0</ele><time>2026-04-25T06:09:04.024Z</time></trkpt><trkpt lat="44.1756483" lon="12.1309467"><ele>31.25</ele><time>2026-04-25T06:09:06.024Z</time></trkpt><trkpt lat="44.17555" lon="12.1308833"><ele>31.5</ele><time>2026-04-25T06:09:08.023Z</time></trkpt><trkpt lat="44.1754433" lon="12.1308233"><ele>31.75</ele><time>2026-04-25T06:09:10.023Z</time></trkpt><trkpt lat="44.175335" lon="12.1307617"><ele>32.0</ele><time>2026-04-25T06:09:12.024Z</time></trkpt><trkpt lat="44.1752333" lon="12.1306917"><ele>31.25</ele><time>2026-04-25T06:09:14.024Z</time></trkpt><trkpt lat="44.175135" lon="12.1306283"><ele>30.5</ele><time>2026-04-25T06:09:16.023Z</time></trkpt><trkpt lat="44.1750233" lon="12.1305517"><ele>29.75</ele><time>2026-04-25T06:09:18.023Z</time></trkpt><trkpt lat="44.1749233" lon="12.1304767"><ele>29.0</ele><time>2026-04-25T06:09:20.024Z</time></trkpt><trkpt lat="44.1748217" lon="12.1304017"><ele>29.0</ele><time>2026-04-25T06:09:22.024Z</time></trkpt><trkpt lat="44.1747167" lon="12.1303283"><ele>29.0</ele><time>2026-04-25T06:09:24.023Z</time></trkpt><trkpt lat="44.1746167" lon="12.1302567"><ele>29.0</ele><time>2026-04-25T06:09:26.024Z</time></trkpt><trkpt lat="44.1745167" lon="12.1301833"><ele>29.0</ele><time>2026-04-25T06:09:28.024Z</time></trkpt><trkpt lat="44.1744167" lon="12.13011"><ele>29.0</ele><time>2026-04-25T06:09:30.023Z</time></trkpt><trkpt lat="44.174315" lon="12.1300367"><ele>29.0</ele><time>2026-04-25T06:09:32.024Z</time></trkpt><trkpt lat="44.1742133" lon="12.1299633"><ele>29.0</ele><time>2026-04-25T06:09:34.024Z</time></trkpt><trkpt lat="44.1741133" lon="12.1298967"><ele>29.0</ele><time>2026-04-25T06:09:36.024Z</time></trkpt><trkpt lat="44.1740133" lon="12.12983"><ele>29.2</ele><time>2026-04-25T06:09:38.024Z</time></trkpt><trkpt lat="44.17391" lon="12.12977"><ele>29.4</ele><time>2026-04-25T06:09:40.024Z</time></trkpt><trkpt lat="44.17381" lon="12.1297067"><ele>29.6</ele><time>2026-04-25T06:09:42.023Z</time></trkpt><trkpt lat="44.1737067" lon="12.12965"><ele>29.8</ele><time>2026-04-25T06:09:44.024Z</time></trkpt><trkpt lat="44.1736017" lon="12.1296"><ele>30.0</ele><time>2026-04-25T06:09:46.024Z</time></trkpt><trkpt lat="44.173495" lon="12.12955"><ele>30.0</ele><time>2026-04-25T06:09:48.024Z</time></trkpt><trkpt lat="44.1733883" lon="12.1295"><ele>30.0</ele><time>2026-04-25T06:09:50.024Z</time></trkpt><trkpt lat="44.1732817" lon="12.129455"><ele>30.0</ele><time>2026-04-25T06:09:52.023Z</time></trkpt><trkpt lat="44.1731817" lon="12.1294067"><ele>30.0</ele><time>2026-04-25T06:09:54.023Z</time></trkpt><trkpt lat="44.1730867" lon="12.1293633"><ele>30.0</ele><time>2026-04-25T06:09:56.023Z</time></trkpt><trkpt lat="44.17299" lon="12.1293233"><ele>30.4</ele><time>2026-04-25T06:09:58.024Z</time></trkpt><trkpt lat="44.1729017" lon="12.1292783"><ele>30.8</ele><time>2026-04-25T06:10:00.023Z</time></trkpt><trkpt lat="44.172815" lon="12.1292367"><ele>31.200000000000003</ele><time>2026-04-25T06:10:02.023Z</time></trkpt><trkpt lat="44.1727317" lon="12.12919"><ele>31.6</ele><time>2026-04-25T06:10:04.024Z</time></trkpt><trkpt lat="44.1726433" lon="12.1291483"><ele>32.0</ele><time>2026-04-25T06:10:06.024Z</time></trkpt><trkpt lat="44.1725583" lon="12.129105"><ele>31.999999999999996</ele><time>2026-04-25T06:10:08.023Z</time></trkpt><trkpt lat="44.1724733" lon="12.12906"><ele>32.0</ele><time>2026-04-25T06:10:10.024Z</time></trkpt><trkpt lat="44.1723917" lon="12.1290217"><ele>32.0</ele><time>2026-04-25T06:10:12.023Z</time></trkpt><trkpt lat="44.1723117" lon="12.12899"><ele>32.0</ele><time>2026-04-25T06:10:14.023Z</time></trkpt><trkpt lat="44.1722317" lon="12.1289467"><ele>31.999999999999996</ele><time>2026-04-25T06:10:16.024Z</time></trkpt><trkpt lat="44.172155" lon="12.1289117"><ele>32.0</ele><time>2026-04-25T06:10:18.023Z</time></trkpt><trkpt lat="44.1720783" lon="12.1288767"><ele>33.14285714285714</ele><time>2026-04-25T06:10:20.024Z</time></trkpt><trkpt lat="44.1720067" lon="12.1288467"><ele>34.285714285714285</ele><time>2026-04-25T06:10:22.024Z</time></trkpt><trkpt lat="44.1719333" lon="12.1288183"><ele>35.42857142857143</ele><time>2026-04-25T06:10:24.023Z</time></trkpt><trkpt lat="44.1718633" lon="12.128795"><ele>36.57142857142857</ele><time>2026-04-25T06:10:26.023Z</time></trkpt><trkpt lat="44.1717933" lon="12.1287683"><ele>37.714285714285715</ele><time>2026-04-25T06:10:28.023Z</time></trkpt><trkpt lat="44.171725" lon="12.1287483"><ele>38.857142857142854</ele><time>2026-04-25T06:10:30.024Z</time></trkpt><trkpt lat="44.1716583" lon="12.12872"><ele>40.0</ele><time>2026-04-25T06:10:32.024Z</time></trkpt><trkpt lat="44.17159" lon="12.1286883"><ele>41.14285714285714</ele><time>2026-04-25T06:10:34.024Z</time></trkpt><trkpt lat="44.1715233" lon="12.12865"><ele>42.285714285714285</ele><time>2026-04-25T06:10:36.024Z</time></trkpt><trkpt lat="44.1714533" lon="12.12861"><ele>43.42857142857143</ele><time>2026-04-25T06:10:38.024Z</time></trkpt><trkpt lat="44.171385" lon="12.12857"><ele>44.57142857142857</ele><time>2026-04-25T06:10:40.024Z</time></trkpt><trkpt lat="44.17131" lon="12.1285283"><ele>45.714285714285715</ele><time>2026-04-25T06:10:42.023Z</time></trkpt><trkpt lat="44.171245" lon="12.1284883"><ele>46.857142857142854</ele><time>2026-04-25T06:10:44.023Z</time></trkpt><trkpt lat="44.1711767" lon="12.1284533"><ele>48.0</ele><time>2026-04-25T06:10:46.024Z</time></trkpt><trkpt lat="44.171105" lon="12.1284217"><ele>47.99999999999999</ele><time>2026-04-25T06:10:48.024Z</time></trkpt><trkpt lat="44.1710417" lon="12.1284"><ele>48.0</ele><time>2026-04-25T06:10:50.023Z</time></trkpt><trkpt lat="44.1709783" lon="12.1283717"><ele>48.0</ele><time>2026-04-25T06:10:52.023Z</time></trkpt><trkpt lat="44.170915" lon="12.12834"><ele>48.0</ele><time>2026-04-25T06:10:54.023Z</time></trkpt><trkpt lat="44.1708433" lon="12.1283033"><ele>48.0</ele><time>2026-04-25T06:10:56.024Z</time></trkpt><trkpt lat="44.17077" lon="12.1282717"><ele>47.99999999999999</ele><time>2026-04-25T06:10:58.023Z</time></trkpt><trkpt lat="44.1706983" lon="12.1282417"><ele>48.0</ele><time>2026-04-25T06:11:00.024Z</time></trkpt><trkpt lat="44.1706267" lon="12.1282133"><ele>48.42857142857142</ele><time>2026-04-25T06:11:02.024Z</time></trkpt><trkpt lat="44.1705617" lon="12.1281833"><ele>48.857142857142854</ele><time>2026-04-25T06:11:04.024Z</time></trkpt><trkpt lat="44.1705" lon="12.1281467"><ele>49.285714285714285</ele><time>2026-04-25T06:11:06.023Z</time></trkpt><trkpt lat="44.170435" lon="12.1281133"><ele>49.71428571428571</ele><time>2026-04-25T06:11:08.023Z</time></trkpt><trkpt lat="44.1703667" lon="12.1280883"><ele>50.142857142857146</ele><time>2026-04-25T06:11:10.024Z</time></trkpt><trkpt lat="44.1703017" lon="12.128055"><ele>50.57142857142857</ele><time>2026-04-25T06:11:12.024Z</time></trkpt><trkpt lat="44.17024" lon="12.1280267"><ele>51.0</ele><time>2026-04-25T06:11:14.024Z</time></trkpt><trkpt lat="44.17018" lon="12.12799"><ele>51.0</ele><time>2026-04-25T06:11:16.023Z</time></trkpt><trkpt lat="44.1701117" lon="12.1279567"><ele>51.0</ele><time>2026-04-25T06:11:18.024Z</time></trkpt><trkpt lat="44.1700417" lon="12.12793"><ele>51.0</ele><time>2026-04-25T06:11:20.025Z</time></trkpt><trkpt lat="44.1699717" lon="12.12789"><ele>51.0</ele><time>2026-04-25T06:11:22.025Z</time></trkpt><trkpt lat="44.1699017" lon="12.1278567"><ele>51.0</ele><time>2026-04-25T06:11:24.024Z</time></trkpt><trkpt lat="44.1698333" lon="12.1278267"><ele>51.0</ele><time>2026-04-25T06:11:26.024Z</time></trkpt><trkpt lat="44.1697633" lon="12.1277967"><ele>51.0</ele><time>2026-04-25T06:11:28.025Z</time></trkpt><trkpt lat="44.16969" lon="12.1277717"><ele>51.5</ele><time>2026-04-25T06:11:30.025Z</time></trkpt><trkpt lat="44.1696183" lon="12.12774"><ele>52.0</ele><time>2026-04-25T06:11:32.024Z</time></trkpt><trkpt lat="44.1695467" lon="12.12772"><ele>52.5</ele><time>2026-04-25T06:11:34.025Z</time></trkpt><trkpt lat="44.16947" lon="12.1276833"><ele>53.0</ele><time>2026-04-25T06:11:36.024Z</time></trkpt><trkpt lat="44.16939" lon="12.127655"><ele>53.5</ele><time>2026-04-25T06:11:38.025Z</time></trkpt><trkpt lat="44.1693133" lon="12.127635"><ele>54.0</ele><time>2026-04-25T06:11:40.025Z</time></trkpt><trkpt lat="44.1692367" lon="12.1276167"><ele>54.0</ele><time>2026-04-25T06:11:42.024Z</time></trkpt><trkpt lat="44.1691767" lon="12.1275817"><ele>54.0</ele><time>2026-04-25T06:11:44.025Z</time></trkpt><trkpt lat="44.1691083" lon="12.127545"><ele>54.0</ele><time>2026-04-25T06:11:46.025Z</time></trkpt><trkpt lat="44.1690333" lon="12.1275133"><ele>54.0</ele><time>2026-04-25T06:11:48.025Z</time></trkpt><trkpt lat="44.168945" lon="12.127495"><ele>54.0</ele><time>2026-04-25T06:11:50.024Z</time></trkpt><trkpt lat="44.1688567" lon="12.1274733"><ele>54.0</ele><time>2026-04-25T06:11:52.025Z</time></trkpt><trkpt lat="44.1687717" lon="12.1274567"><ele>54.0</ele><time>2026-04-25T06:11:54.025Z</time></trkpt><trkpt lat="44.168695" lon="12.1274333"><ele>54.0</ele><time>2026-04-25T06:11:56.025Z</time></trkpt><trkpt lat="44.1686167" lon="12.1274"><ele>54.0</ele><time>2026-04-25T06:11:58.024Z</time></trkpt><trkpt lat="44.1685317" lon="12.1273733"><ele>54.0</ele><time>2026-04-25T06:12:00.025Z</time></trkpt><trkpt lat="44.1684483" lon="12.1273383"><ele>54.0</ele><time>2026-04-25T06:12:02.024Z</time></trkpt><trkpt lat="44.1683617" lon="12.1273167"><ele>54.0</ele><time>2026-04-25T06:12:04.025Z</time></trkpt><trkpt lat="44.1682867" lon="12.1272917"><ele>53.333333333333336</ele><time>2026-04-25T06:12:06.025Z</time></trkpt><trkpt lat="44.1682067" lon="12.1272717"><ele>52.66666666666667</ele><time>2026-04-25T06:12:08.024Z</time></trkpt><trkpt lat="44.1681333" lon="12.12723"><ele>52.0</ele><time>2026-04-25T06:12:10.024Z</time></trkpt><trkpt lat="44.16805" lon="12.12721"><ele>51.333333333333336</ele><time>2026-04-25T06:12:12.025Z</time></trkpt><trkpt lat="44.167965" lon="12.1271867"><ele>50.66666666666667</ele><time>2026-04-25T06:12:14.024Z</time></trkpt><trkpt lat="44.1678817" lon="12.1271633"><ele>50.0</ele><time>2026-04-25T06:12:16.024Z</time></trkpt><trkpt lat="44.1678017" lon="12.1271417"><ele>51.142857142857146</ele><time>2026-04-25T06:12:18.025Z</time></trkpt><trkpt lat="44.1677283" lon="12.1271083"><ele>52.28571428571429</ele><time>2026-04-25T06:12:20.025Z</time></trkpt><trkpt lat="44.1676617" lon="12.1270867"><ele>53.42857142857143</ele><time>2026-04-25T06:12:22.024Z</time></trkpt><trkpt lat="44.16759" lon="12.127065"><ele>54.57142857142858</ele><time>2026-04-25T06:12:24.025Z</time></trkpt><trkpt lat="44.16752" lon="12.1270367"><ele>55.714285714285715</ele><time>2026-04-25T06:12:26.025Z</time></trkpt><trkpt lat="44.16745" lon="12.127005"><ele>56.85714285714287</ele><time>2026-04-25T06:12:28.025Z</time></trkpt><trkpt lat="44.16738" lon="12.1269817"><ele>58.00000000000001</ele><time>2026-04-25T06:12:30.025Z</time></trkpt><trkpt lat="44.1673133" lon="12.1269567"><ele>58.83333333333333</ele><time>2026-04-25T06:12:32.024Z</time></trkpt><trkpt lat="44.1672483" lon="12.1269283"><ele>59.666666666666664</ele><time>2026-04-25T06:12:34.024Z</time></trkpt><trkpt lat="44.1671717" lon="12.12691"><ele>60.5</ele><time>2026-04-25T06:12:36.025Z</time></trkpt><trkpt lat="44.1671033" lon="12.1268833"><ele>61.33333333333333</ele><time>2026-04-25T06:12:38.025Z</time></trkpt><trkpt lat="44.16703" lon="12.1268633"><ele>62.166666666666664</ele><time>2026-04-25T06:12:40.025Z</time></trkpt><trkpt lat="44.1669567" lon="12.1268417"><ele>63.0</ele><time>2026-04-25T06:12:42.025Z</time></trkpt><trkpt lat="44.1668667" lon="12.1268"><ele>63.0</ele><time>2026-04-25T06:12:45.025Z</time></trkpt><trkpt lat="44.166785" lon="12.1267517"><ele>63.0</ele><time>2026-04-25T06:12:48.024Z</time></trkpt><trkpt lat="44.1667" lon="12.1267217"><ele>63.0</ele><time>2026-04-25T06:12:51.024Z</time></trkpt><trkpt lat="44.16661" lon="12.1267033"><ele>63.0</ele><time>2026-04-25T06:12:54.025Z</time></trkpt><trkpt lat="44.1665467" lon="12.1266867"><ele>63.0</ele><time>2026-04-25T06:12:56.024Z</time></trkpt><trkpt lat="44.1664833" lon="12.1266617"><ele>63.0</ele><time>2026-04-25T06:12:58.025Z</time></trkpt><trkpt lat="44.1664183" lon="12.12663"><ele>63.14285714285714</ele><time>2026-04-25T06:13:00.025Z</time></trkpt><trkpt lat="44.166355" lon="12.1265983"><ele>63.285714285714285</ele><time>2026-04-25T06:13:02.024Z</time></trkpt><trkpt lat="44.1662933" lon="12.1265683"><ele>63.42857142857143</ele><time>2026-04-25T06:13:04.025Z</time></trkpt><trkpt lat="44.1662267" lon="12.1265317"><ele>63.57142857142857</ele><time>2026-04-25T06:13:06.025Z</time></trkpt><trkpt lat="44.1661583" lon="12.1265"><ele>63.71428571428571</ele><time>2026-04-25T06:13:08.024Z</time></trkpt><trkpt lat="44.166095" lon="12.126465"><ele>63.857142857142854</ele><time>2026-04-25T06:13:10.025Z</time></trkpt><trkpt lat="44.1660317" lon="12.1264433"><ele>64.0</ele><time>2026-04-25T06:13:12.024Z</time></trkpt><trkpt lat="44.165965" lon="12.126415"><ele>63.99999999999999</ele><time>2026-04-25T06:13:14.025Z</time></trkpt><trkpt lat="44.165895" lon="12.1263883"><ele>64.0</ele><time>2026-04-25T06:13:16.025Z</time></trkpt><trkpt lat="44.165825" lon="12.126355"><ele>64.0</ele><time>2026-04-25T06:13:18.025Z</time></trkpt><trkpt lat="44.165755" lon="12.126315"><ele>64.0</ele><time>2026-04-25T06:13:20.025Z</time></trkpt><trkpt lat="44.1656833" lon="12.12627"><ele>63.99999999999999</ele><time>2026-04-25T06:13:22.024Z</time></trkpt><trkpt lat="44.1656117" lon="12.1262317"><ele>64.0</ele><time>2026-04-25T06:13:24.025Z</time></trkpt><trkpt lat="44.165545" lon="12.1261883"><ele>64.5</ele><time>2026-04-25T06:13:26.024Z</time></trkpt><trkpt lat="44.1654783" lon="12.126155"><ele>65.0</ele><time>2026-04-25T06:13:28.025Z</time></trkpt><trkpt lat="44.1654067" lon="12.1261217"><ele>65.5</ele><time>2026-04-25T06:13:30.024Z</time></trkpt><trkpt lat="44.1653267" lon="12.126095"><ele>66.0</ele><time>2026-04-25T06:13:32.024Z</time></trkpt><trkpt lat="44.1652483" lon="12.1260583"><ele>66.5</ele><time>2026-04-25T06:13:34.024Z</time></trkpt><trkpt lat="44.1651667" lon="12.1260317"><ele>67.0</ele><time>2026-04-25T06:13:36.025Z</time></trkpt><trkpt lat="44.1650883" lon="12.1259983"><ele>67.0</ele><time>2026-04-25T06:13:38.025Z</time></trkpt><trkpt lat="44.165015" lon="12.1259583"><ele>67.0</ele><time>2026-04-25T06:13:40.024Z</time></trkpt><trkpt lat="44.1649433" lon="12.1259117"><ele>67.0</ele><time>2026-04-25T06:13:42.024Z</time></trkpt><trkpt lat="44.1648633" lon="12.1258883"><ele>67.0</ele><time>2026-04-25T06:13:44.024Z</time></trkpt><trkpt lat="44.16479" lon="12.1258583"><ele>67.0</ele><time>2026-04-25T06:13:46.024Z</time></trkpt><trkpt lat="44.164705" lon="12.1258233"><ele>67.0</ele><time>2026-04-25T06:13:48.025Z</time></trkpt><trkpt lat="44.1646233" lon="12.1257817"><ele>66.16666666666666</ele><time>2026-04-25T06:13:50.025Z</time></trkpt><trkpt lat="44.1645467" lon="12.125745"><ele>65.33333333333333</ele><time>2026-04-25T06:13:52.025Z</time></trkpt><trkpt lat="44.1644733" lon="12.1257033"><ele>64.5</ele><time>2026-04-25T06:13:54.025Z</time></trkpt><trkpt lat="44.164395" lon="12.125665"><ele>63.66666666666667</ele><time>2026-04-25T06:13:56.025Z</time></trkpt><trkpt lat="44.1643233" lon="12.1256233"><ele>62.833333333333336</ele><time>2026-04-25T06:13:58.025Z</time></trkpt><trkpt lat="44.1642483" lon="12.1255867"><ele>62.0</ele><time>2026-04-25T06:14:00.024Z</time></trkpt><trkpt lat="44.1641733" lon="12.1255433"><ele>62.0</ele><time>2026-04-25T06:14:02.025Z</time></trkpt><trkpt lat="44.1640917" lon="12.1255067"><ele>62.0</ele><time>2026-04-25T06:14:04.024Z</time></trkpt><trkpt lat="44.1640083" lon="12.1254633"><ele>62.0</ele><time>2026-04-25T06:14:06.025Z</time></trkpt><trkpt lat="44.1639267" lon="12.1254183"><ele>62.0</ele><time>2026-04-25T06:14:08.025Z</time></trkpt><trkpt lat="44.1638367" lon="12.1253767"><ele>62.0</ele><time>2026-04-25T06:14:10.025Z</time></trkpt><trkpt lat="44.1637483" lon="12.1253283"><ele>63.400000000000006</ele><time>2026-04-25T06:14:12.025Z</time></trkpt><trkpt lat="44.1636583" lon="12.1252783"><ele>64.80000000000001</ele><time>2026-04-25T06:14:14.025Z</time></trkpt><trkpt lat="44.16357" lon="12.1252367"><ele>66.2</ele><time>2026-04-25T06:14:16.025Z</time></trkpt><trkpt lat="44.16348" lon="12.1252"><ele>67.60000000000001</ele><time>2026-04-25T06:14:18.024Z</time></trkpt><trkpt lat="44.163395" lon="12.1251683"><ele>69.0</ele><time>2026-04-25T06:14:20.025Z</time></trkpt><trkpt lat="44.1633067" lon="12.125135"><ele>69.0</ele><time>2026-04-25T06:14:22.025Z</time></trkpt><trkpt lat="44.1632267" lon="12.1251067"><ele>69.0</ele><time>2026-04-25T06:14:24.025Z</time></trkpt><trkpt lat="44.1631367" lon="12.125085"><ele>69.0</ele><time>2026-04-25T06:14:26.024Z</time></trkpt><trkpt lat="44.163045" lon="12.125065"><ele>69.0</ele><time>2026-04-25T06:14:28.024Z</time></trkpt><trkpt lat="44.1629483" lon="12.125055"><ele>69.0</ele><time>2026-04-25T06:14:30.025Z</time></trkpt><trkpt lat="44.162855" lon="12.1250533"><ele>69.60000000000001</ele><time>2026-04-25T06:14:32.024Z</time></trkpt><trkpt lat="44.1627617" lon="12.1250483"><ele>70.2</ele><time>2026-04-25T06:14:34.025Z</time></trkpt><trkpt lat="44.1626633" lon="12.1250467"><ele>70.80000000000001</ele><time>2026-04-25T06:14:36.025Z</time></trkpt><trkpt lat="44.1625683" lon="12.12505"><ele>71.4</ele><time>2026-04-25T06:14:38.024Z</time></trkpt><trkpt lat="44.16247" lon="12.12505"><ele>72.0</ele><time>2026-04-25T06:14:40.024Z</time></trkpt><trkpt lat="44.162365" lon="12.1250483"><ele>71.8</ele><time>2026-04-25T06:14:42.025Z</time></trkpt><trkpt lat="44.16226" lon="12.1250517"><ele>71.6</ele><time>2026-04-25T06:14:44.025Z</time></trkpt><trkpt lat="44.162155" lon="12.125045"><ele>71.39999999999999</ele><time>2026-04-25T06:14:46.025Z</time></trkpt><trkpt lat="44.1620467" lon="12.125045"><ele>71.2</ele><time>2026-04-25T06:14:48.025Z</time></trkpt><trkpt lat="44.1619467" lon="12.125035"><ele>71.0</ele><time>2026-04-25T06:14:50.024Z</time></trkpt><trkpt lat="44.161845" lon="12.1250333"><ele>71.0</ele><time>2026-04-25T06:14:52.025Z</time></trkpt><trkpt lat="44.1617483" lon="12.12503"><ele>71.0</ele><time>2026-04-25T06:14:54.025Z</time></trkpt><trkpt lat="44.1616583" lon="12.1250267"><ele>71.0</ele><time>2026-04-25T06:14:56.025Z</time></trkpt><trkpt lat="44.161565" lon="12.12503"><ele>71.0</ele><time>2026-04-25T06:14:58.025Z</time></trkpt><trkpt lat="44.161465" lon="12.125025"><ele>71.0</ele><time>2026-04-25T06:15:00.025Z</time></trkpt><trkpt lat="44.1613617" lon="12.1250233"><ele>71.8</ele><time>2026-04-25T06:15:02.025Z</time></trkpt><trkpt lat="44.1612617" lon="12.1250133"><ele>72.6</ele><time>2026-04-25T06:15:04.025Z</time></trkpt><trkpt lat="44.161165" lon="12.1250117"><ele>73.4</ele><time>2026-04-25T06:15:06.025Z</time></trkpt><trkpt lat="44.1610683" lon="12.125015"><ele>74.2</ele><time>2026-04-25T06:15:08.024Z</time></trkpt><trkpt lat="44.1609667" lon="12.1250283"><ele>75.0</ele><time>2026-04-25T06:15:10.025Z</time></trkpt><trkpt lat="44.1608783" lon="12.1250167"><ele>75.0</ele><time>2026-04-25T06:15:12.025Z</time></trkpt><trkpt lat="44.1607867" lon="12.125015"><ele>75.0</ele><time>2026-04-25T06:15:14.025Z</time></trkpt><trkpt lat="44.160695" lon="12.1250083"><ele>75.0</ele><time>2026-04-25T06:15:16.024Z</time></trkpt><trkpt lat="44.160605" lon="12.12501"><ele>75.0</ele><time>2026-04-25T06:15:18.025Z</time></trkpt><trkpt lat="44.1605167" lon="12.1250033"><ele>75.0</ele><time>2026-04-25T06:15:20.024Z</time></trkpt><trkpt lat="44.16043" lon="12.125"><ele>75.0</ele><time>2026-04-25T06:15:22.025Z</time></trkpt><trkpt lat="44.1603433" lon="12.1249933"><ele>75.5</ele><time>2026-04-25T06:15:24.025Z</time></trkpt><trkpt lat="44.1602567" lon="12.1249983"><ele>76.0</ele><time>2026-04-25T06:15:26.024Z</time></trkpt><trkpt lat="44.1601717" lon="12.1249917"><ele>76.5</ele><time>2026-04-25T06:15:28.025Z</time></trkpt><trkpt lat="44.1600867" lon="12.1249983"><ele>77.0</ele><time>2026-04-25T06:15:30.024Z</time></trkpt><trkpt lat="44.160005" lon="12.1249867"><ele>77.5</ele><time>2026-04-25T06:15:32.025Z</time></trkpt><trkpt lat="44.159925" lon="12.1249833"><ele>78.0</ele><time>2026-04-25T06:15:34.025Z</time></trkpt><trkpt lat="44.1598483" lon="12.1249833"><ele>78.0</ele><time>2026-04-25T06:15:36.024Z</time></trkpt><trkpt lat="44.1597733" lon="12.1249867"><ele>78.0</ele><time>2026-04-25T06:15:38.025Z</time></trkpt><trkpt lat="44.1597" lon="12.125"><ele>78.0</ele><time>2026-04-25T06:15:40.024Z</time></trkpt><trkpt lat="44.1596283" lon="12.1250233"><ele>78.0</ele><time>2026-04-25T06:15:42.024Z</time></trkpt><trkpt lat="44.1595583" lon="12.1250517"><ele>78.0</ele><time>2026-04-25T06:15:44.025Z</time></trkpt><trkpt lat="44.1594883" lon="12.1250933"><ele>78.0</ele><time>2026-04-25T06:15:46.025Z</time></trkpt><trkpt lat="44.1594267" lon="12.1251417"><ele>78.0</ele><time>2026-04-25T06:15:48.025Z</time></trkpt><trkpt lat="44.1593783" lon="12.1251983"><ele>78.0</ele><time>2026-04-25T06:15:50.025Z</time></trkpt><trkpt lat="44.1593267" lon="12.12526"><ele>78.0</ele><time>2026-04-25T06:15:52.024Z</time></trkpt><trkpt lat="44.1592683" lon="12.1253383"><ele>78.0</ele><time>2026-04-25T06:15:54.025Z</time></trkpt><trkpt lat="44.1592117" lon="12.1254183"><ele>78.0</ele><time>2026-04-25T06:15:56.024Z</time></trkpt><trkpt lat="44.1591567" lon="12.12549"><ele>78.0</ele><time>2026-04-25T06:15:58.024Z</time></trkpt><trkpt lat="44.1591083" lon="12.12556"><ele>78.0</ele><time>2026-04-25T06:16:00.025Z</time></trkpt><trkpt lat="44.159055" lon="12.1256317"><ele>78.0</ele><time>2026-04-25T06:16:02.024Z</time></trkpt><trkpt lat="44.159005" lon="12.1256967"><ele>79.5</ele><time>2026-04-25T06:16:04.025Z</time></trkpt><trkpt lat="44.158955" lon="12.1257633"><ele>81.0</ele><time>2026-04-25T06:16:06.024Z</time></trkpt><trkpt lat="44.1589033" lon="12.1258267"><ele>82.5</ele><time>2026-04-25T06:16:08.025Z</time></trkpt><trkpt lat="44.1588483" lon="12.1258917"><ele>84.0</ele><time>2026-04-25T06:16:10.025Z</time></trkpt><trkpt lat="44.158795" lon="12.1259433"><ele>85.5</ele><time>2026-04-25T06:16:12.025Z</time></trkpt><trkpt lat="44.1587167" lon="12.1260117"><ele>87.0</ele><time>2026-04-25T06:16:15.025Z</time></trkpt><trkpt lat="44.1586317" lon="12.126065"><ele>87.0</ele><time>2026-04-25T06:16:18.024Z</time></trkpt><trkpt lat="44.158565" lon="12.1260883"><ele>87.0</ele><time>2026-04-25T06:16:20.025Z</time></trkpt><trkpt lat="44.15847" lon="12.1261017"><ele>87.0</ele><time>2026-04-25T06:16:23.024Z</time></trkpt><trkpt lat="44.1583767" lon="12.12611"><ele>87.0</ele><time>2026-04-25T06:16:26.024Z</time></trkpt><trkpt lat="44.1583117" lon="12.1261017"><ele>87.0</ele><time>2026-04-25T06:16:28.025Z</time></trkpt><trkpt lat="44.1582467" lon="12.1260967"><ele>87.0</ele><time>2026-04-25T06:16:30.024Z</time></trkpt><trkpt lat="44.1581817" lon="12.1260917"><ele>87.83333333333333</ele><time>2026-04-25T06:16:32.025Z</time></trkpt><trkpt lat="44.158095" lon="12.1260683"><ele>88.66666666666667</ele><time>2026-04-25T06:16:35.025Z</time></trkpt><trkpt lat="44.1580033" lon="12.1260483"><ele>89.5</ele><time>2026-04-25T06:16:38.024Z</time></trkpt><trkpt lat="44.1579117" lon="12.126035"><ele>90.33333333333334</ele><time>2026-04-25T06:16:41.025Z</time></trkpt><trkpt lat="44.1578183" lon="12.1260283"><ele>91.16666666666667</ele><time>2026-04-25T06:16:44.024Z</time></trkpt><trkpt lat="44.157755" lon="12.1260267"><ele>92.0</ele><time>2026-04-25T06:16:46.025Z</time></trkpt><trkpt lat="44.157665" lon="12.126025"><ele>92.0</ele><time>2026-04-25T06:16:49.025Z</time></trkpt><trkpt lat="44.157575" lon="12.126045"><ele>92.0</ele><time>2026-04-25T06:16:52.025Z</time></trkpt><trkpt lat="44.1574933" lon="12.1260717"><ele>92.0</ele><time>2026-04-25T06:16:55.025Z</time></trkpt><trkpt lat="44.1574067" lon="12.1261"><ele>92.0</ele><time>2026-04-25T06:16:58.024Z</time></trkpt><trkpt lat="44.1573167" lon="12.126125"><ele>92.0</ele><time>2026-04-25T06:17:01.025Z</time></trkpt><trkpt lat="44.1572367" lon="12.126165"><ele>92.0</ele><time>2026-04-25T06:17:04.025Z</time></trkpt><trkpt lat="44.1571783" lon="12.1262017"><ele>92.16666666666667</ele><time>2026-04-25T06:17:06.025Z</time></trkpt><trkpt lat="44.1570933" lon="12.1262517"><ele>92.33333333333334</ele><time>2026-04-25T06:17:09.025Z</time></trkpt><trkpt lat="44.15701" lon="12.126315"><ele>92.5</ele><time>2026-04-25T06:17:12.025Z</time></trkpt><trkpt lat="44.1569383" lon="12.1263717"><ele>92.66666666666667</ele><time>2026-04-25T06:17:15.025Z</time></trkpt><trkpt lat="44.1568817" lon="12.1264133"><ele>92.83333333333333</ele><time>2026-04-25T06:17:17.026Z</time></trkpt><trkpt lat="44.1568167" lon="12.1264583"><ele>93.0</ele><time>2026-04-25T06:17:19.026Z</time></trkpt><trkpt lat="44.1567567" lon="12.1264983"><ele>93.00000000000001</ele><time>2026-04-25T06:17:21.026Z</time></trkpt><trkpt lat="44.1566967" lon="12.126545"><ele>93.0</ele><time>2026-04-25T06:17:23.026Z</time></trkpt><trkpt lat="44.1566383" lon="12.1265883"><ele>93.0</ele><time>2026-04-25T06:17:25.026Z</time></trkpt><trkpt lat="44.1565767" lon="12.12663"><ele>93.0</ele><time>2026-04-25T06:17:27.026Z</time></trkpt><trkpt lat="44.1565183" lon="12.1266717"><ele>93.0</ele><time>2026-04-25T06:17:29.026Z</time></trkpt><trkpt lat="44.156435" lon="12.1267283"><ele>93.00000000000001</ele><time>2026-04-25T06:17:32.026Z</time></trkpt><trkpt lat="44.1563783" lon="12.1267667"><ele>93.0</ele><time>2026-04-25T06:17:34.026Z</time></trkpt><trkpt lat="44.15632" lon="12.1268033"><ele>94.33333333333333</ele><time>2026-04-25T06:17:36.026Z</time></trkpt><trkpt lat="44.1562333" lon="12.1268533"><ele>95.66666666666666</ele><time>2026-04-25T06:17:39.026Z</time></trkpt><trkpt lat="44.1561717" lon="12.1268967"><ele>97.0</ele><time>2026-04-25T06:17:41.026Z</time></trkpt><trkpt lat="44.156115" lon="12.1269367"><ele>98.33333333333333</ele><time>2026-04-25T06:17:43.025Z</time></trkpt><trkpt lat="44.1560317" lon="12.126995"><ele>99.66666666666666</ele><time>2026-04-25T06:17:46.025Z</time></trkpt><trkpt lat="44.1559717" lon="12.1270367"><ele>101.0</ele><time>2026-04-25T06:17:48.025Z</time></trkpt><trkpt lat="44.155915" lon="12.1270783"><ele>101.0</ele><time>2026-04-25T06:17:50.026Z</time></trkpt><trkpt lat="44.1558567" lon="12.1271167"><ele>101.0</ele><time>2026-04-25T06:17:52.025Z</time></trkpt><trkpt lat="44.1557983" lon="12.12715"><ele>101.0</ele><time>2026-04-25T06:17:54.026Z</time></trkpt><trkpt lat="44.15574" lon="12.1271833"><ele>101.0</ele><time>2026-04-25T06:17:56.026Z</time></trkpt><trkpt lat="44.1556817" lon="12.1272167"><ele>101.0</ele><time>2026-04-25T06:17:58.026Z</time></trkpt><trkpt lat="44.1556017" lon="12.1272683"><ele>101.0</ele><time>2026-04-25T06:18:01.026Z</time></trkpt><trkpt lat="44.1555217" lon="12.1273183"><ele>101.0</ele><time>2026-04-25T06:18:04.025Z</time></trkpt><trkpt lat="44.15545" lon="12.1273617"><ele>102.33333333333333</ele><time>2026-04-25T06:18:07.025Z</time></trkpt><trkpt lat="44.15537" lon="12.1274117"><ele>103.66666666666666</ele><time>2026-04-25T06:18:10.026Z</time></trkpt><trkpt lat="44.1552967" lon="12.12746"><ele>105.0</ele><time>2026-04-25T06:18:13.026Z</time></trkpt><trkpt lat="44.15522" lon="12.127515"><ele>106.33333333333334</ele><time>2026-04-25T06:18:16.026Z</time></trkpt><trkpt lat="44.1551433" lon="12.1275717"><ele>107.66666666666667</ele><time>2026-04-25T06:18:19.026Z</time></trkpt><trkpt lat="44.1550683" lon="12.1276283"><ele>109.0</ele><time>2026-04-25T06:18:22.026Z</time></trkpt><trkpt lat="44.154995" lon="12.1276933"><ele>109.00000000000001</ele><time>2026-04-25T06:18:25.025Z</time></trkpt><trkpt lat="44.15493" lon="12.1277717"><ele>109.0</ele><time>2026-04-25T06:18:28.026Z</time></trkpt><trkpt lat="44.1548733" lon="12.12786"><ele>109.0</ele><time>2026-04-25T06:18:31.026Z</time></trkpt><trkpt lat="44.154835" lon="12.127965"><ele>109.0</ele><time>2026-04-25T06:18:34.026Z</time></trkpt><trkpt lat="44.154805" lon="12.1280767"><ele>109.00000000000001</ele><time>2026-04-25T06:18:37.025Z</time></trkpt><trkpt lat="44.15478" lon="12.1281967"><ele>109.0</ele><time>2026-04-25T06:18:40.025Z</time></trkpt><trkpt lat="44.15477" lon="12.1282883"><ele>108.85714285714286</ele><time>2026-04-25T06:18:42.026Z</time></trkpt><trkpt lat="44.1547633" lon="12.1283817"><ele>108.71428571428572</ele><time>2026-04-25T06:18:44.026Z</time></trkpt><trkpt lat="44.1547583" lon="12.1284783"><ele>108.57142857142857</ele><time>2026-04-25T06:18:46.026Z</time></trkpt><trkpt lat="44.1547567" lon="12.128575"><ele>108.42857142857143</ele><time>2026-04-25T06:18:48.025Z</time></trkpt><trkpt lat="44.1547567" lon="12.1286667"><ele>108.28571428571428</ele><time>2026-04-25T06:18:50.025Z</time></trkpt><trkpt lat="44.1547583" lon="12.1287667"><ele>108.14285714285714</ele><time>2026-04-25T06:18:52.026Z</time></trkpt><trkpt lat="44.15476" lon="12.1288633"><ele>108.0</ele><time>2026-04-25T06:18:54.026Z</time></trkpt><trkpt lat="44.1547567" lon="12.128995"><ele>109.0</ele><time>2026-04-25T06:18:57.025Z</time></trkpt><trkpt lat="44.1547567" lon="12.12909"><ele>110.0</ele><time>2026-04-25T06:18:59.026Z</time></trkpt><trkpt lat="44.1547567" lon="12.1291833"><ele>111.0</ele><time>2026-04-25T06:19:01.026Z</time></trkpt><trkpt lat="44.154745" lon="12.129275"><ele>112.0</ele><time>2026-04-25T06:19:03.025Z</time></trkpt><trkpt lat="44.1547283" lon="12.1293617"><ele>113.0</ele><time>2026-04-25T06:19:05.025Z</time></trkpt><trkpt lat="44.15471" lon="12.1294517"><ele>113.99999999999999</ele><time>2026-04-25T06:19:07.025Z</time></trkpt><trkpt lat="44.1546833" lon="12.1295333"><ele>114.99999999999999</ele><time>2026-04-25T06:19:09.025Z</time></trkpt><trkpt lat="44.1546517" lon="12.1296117"><ele>115.00000000000001</ele><time>2026-04-25T06:19:11.025Z</time></trkpt><trkpt lat="44.1546167" lon="12.1296867"><ele>115.0</ele><time>2026-04-25T06:19:13.026Z</time></trkpt><trkpt lat="44.154565" lon="12.129785"><ele>115.0</ele><time>2026-04-25T06:19:16.026Z</time></trkpt><trkpt lat="44.154525" lon="12.1298533"><ele>115.0</ele><time>2026-04-25T06:19:18.026Z</time></trkpt><trkpt lat="44.15447" lon="12.1299517"><ele>115.00000000000001</ele><time>2026-04-25T06:19:21.026Z</time></trkpt><trkpt lat="44.154415" lon="12.130055"><ele>115.0</ele><time>2026-04-25T06:19:24.025Z</time></trkpt><trkpt lat="44.15436" lon="12.1301517"><ele>116.0</ele><time>2026-04-25T06:19:27.026Z</time></trkpt><trkpt lat="44.1542967" lon="12.1302417"><ele>117.0</ele><time>2026-04-25T06:19:30.026Z</time></trkpt><trkpt lat="44.154235" lon="12.1303433"><ele>118.0</ele><time>2026-04-25T06:19:33.025Z</time></trkpt><trkpt lat="44.1541767" lon="12.1304367"><ele>119.0</ele><time>2026-04-25T06:19:36.026Z</time></trkpt><trkpt lat="44.15412" lon="12.13053"><ele>120.0</ele><time>2026-04-25T06:19:39.025Z</time></trkpt><trkpt lat="44.1540617" lon="12.130625"><ele>121.5</ele><time>2026-04-25T06:19:42.026Z</time></trkpt><trkpt lat="44.1539983" lon="12.13072"><ele>123.0</ele><time>2026-04-25T06:19:45.026Z</time></trkpt><trkpt lat="44.1539383" lon="12.130815"><ele>124.5</ele><time>2026-04-25T06:19:48.026Z</time></trkpt><trkpt lat="44.1538783" lon="12.1309033"><ele>126.0</ele><time>2026-04-25T06:19:51.026Z</time></trkpt><trkpt lat="44.1538167" lon="12.1309883"><ele>127.5</ele><time>2026-04-25T06:19:54.026Z</time></trkpt><trkpt lat="44.1537533" lon="12.131075"><ele>129.0</ele><time>2026-04-25T06:19:57.025Z</time></trkpt><trkpt lat="44.1537017" lon="12.1311617"><ele>129.66666666666666</ele><time>2026-04-25T06:20:00.025Z</time></trkpt><trkpt lat="44.1536367" lon="12.1312417"><ele>130.33333333333334</ele><time>2026-04-25T06:20:03.026Z</time></trkpt><trkpt lat="44.1535733" lon="12.1313333"><ele>131.0</ele><time>2026-04-25T06:20:06.025Z</time></trkpt><trkpt lat="44.153535" lon="12.1314033"><ele>131.66666666666669</ele><time>2026-04-25T06:20:08.026Z</time></trkpt><trkpt lat="44.15349" lon="12.1314983"><ele>132.33333333333334</ele><time>2026-04-25T06:20:11.026Z</time></trkpt><trkpt lat="44.1534433" lon="12.1315967"><ele>133.0</ele><time>2026-04-25T06:20:14.025Z</time></trkpt><trkpt lat="44.1533917" lon="12.1316833"><ele>133.0</ele><time>2026-04-25T06:20:17.025Z</time></trkpt><trkpt lat="44.1533383" lon="12.1317717"><ele>133.0</ele><time>2026-04-25T06:20:20.026Z</time></trkpt><trkpt lat="44.1532967" lon="12.1318417"><ele>133.0</ele><time>2026-04-25T06:20:22.025Z</time></trkpt><trkpt lat="44.1532417" lon="12.1319383"><ele>133.0</ele><time>2026-04-25T06:20:25.026Z</time></trkpt><trkpt lat="44.1531867" lon="12.1320317"><ele>133.0</ele><time>2026-04-25T06:20:28.025Z</time></trkpt><trkpt lat="44.1531317" lon="12.1321317"><ele>133.0</ele><time>2026-04-25T06:20:31.026Z</time></trkpt><trkpt lat="44.1530833" lon="12.1322117"><ele>135.5</ele><time>2026-04-25T06:20:34.025Z</time></trkpt><trkpt lat="44.1530267" lon="12.1322917"><ele>138.0</ele><time>2026-04-25T06:20:37.026Z</time></trkpt><trkpt lat="44.1529733" lon="12.13238"><ele>140.5</ele><time>2026-04-25T06:20:40.026Z</time></trkpt><trkpt lat="44.15292" lon="12.13247"><ele>143.0</ele><time>2026-04-25T06:20:43.026Z</time></trkpt><trkpt lat="44.152865" lon="12.1325633"><ele>145.5</ele><time>2026-04-25T06:20:46.026Z</time></trkpt><trkpt lat="44.1528217" lon="12.13264"><ele>148.0</ele><time>2026-04-25T06:20:48.025Z</time></trkpt><trkpt lat="44.1527733" lon="12.132745"><ele>148.0</ele><time>2026-04-25T06:20:51.025Z</time></trkpt><trkpt lat="44.1527283" lon="12.13284"><ele>148.0</ele><time>2026-04-25T06:20:54.025Z</time></trkpt><trkpt lat="44.15269" lon="12.13294"><ele>148.0</ele><time>2026-04-25T06:20:57.025Z</time></trkpt><trkpt lat="44.1526567" lon="12.1330483"><ele>148.0</ele><time>2026-04-25T06:21:00.025Z</time></trkpt><trkpt lat="44.1526267" lon="12.13316"><ele>148.0</ele><time>2026-04-25T06:21:03.026Z</time></trkpt><trkpt lat="44.1525983" lon="12.1332717"><ele>148.0</ele><time>2026-04-25T06:21:06.026Z</time></trkpt><trkpt lat="44.1525667" lon="12.1333867"><ele>148.0</ele><time>2026-04-25T06:21:09.025Z</time></trkpt><trkpt lat="44.1525383" lon="12.1335033"><ele>148.0</ele><time>2026-04-25T06:21:12.026Z</time></trkpt><trkpt lat="44.1525133" lon="12.1336183"><ele>148.0</ele><time>2026-04-25T06:21:15.026Z</time></trkpt><trkpt lat="44.1524967" lon="12.1337333"><ele>148.0</ele><time>2026-04-25T06:21:18.026Z</time></trkpt><trkpt lat="44.1524767" lon="12.1338483"><ele>148.0</ele><time>2026-04-25T06:21:21.026Z</time></trkpt><trkpt lat="44.1524483" lon="12.1339667"><ele>148.0</ele><time>2026-04-25T06:21:24.026Z</time></trkpt><trkpt lat="44.152415" lon="12.1340917"><ele>150.33333333333334</ele><time>2026-04-25T06:21:27.026Z</time></trkpt><trkpt lat="44.15237" lon="12.1341983"><ele>152.66666666666669</ele><time>2026-04-25T06:21:30.025Z</time></trkpt><trkpt lat="44.1523467" lon="12.1343083"><ele>155.0</ele><time>2026-04-25T06:21:33.025Z</time></trkpt><trkpt lat="44.1523183" lon="12.1344117"><ele>157.33333333333334</ele><time>2026-04-25T06:21:36.025Z</time></trkpt><trkpt lat="44.1522783" lon="12.1345283"><ele>159.66666666666666</ele><time>2026-04-25T06:21:39.025Z</time></trkpt><trkpt lat="44.1522317" lon="12.134635"><ele>162.0</ele><time>2026-04-25T06:21:42.026Z</time></trkpt><trkpt lat="44.15218" lon="12.134715"><ele>162.0</ele><time>2026-04-25T06:21:45.026Z</time></trkpt><trkpt lat="44.1521217" lon="12.1347933"><ele>162.0</ele><time>2026-04-25T06:21:48.025Z</time></trkpt><trkpt lat="44.1520583" lon="12.1348833"><ele>162.0</ele><time>2026-04-25T06:21:51.026Z</time></trkpt><trkpt lat="44.1519983" lon="12.13496"><ele>162.0</ele><time>2026-04-25T06:21:54.025Z</time></trkpt><trkpt lat="44.1519367" lon="12.1350733"><ele>162.0</ele><time>2026-04-25T06:21:57.025Z</time></trkpt><trkpt lat="44.1517233" lon="12.1350633"><ele>160.0</ele><time>2026-04-25T06:21:59.739Z</time></trkpt><trkpt lat="44.1519283" lon="12.135395"><ele>158.0</ele><time>2026-04-25T06:22:01.422Z</time></trkpt><trkpt lat="44.15186" lon="12.1353717"><ele>156.0</ele><time>2026-04-25T06:22:04.022Z</time></trkpt><trkpt lat="44.151835" lon="12.1354833"><ele>156.0</ele><time>2026-04-25T06:22:07.023Z</time></trkpt><trkpt lat="44.1518283" lon="12.1355983"><ele>156.0</ele><time>2026-04-25T06:22:10.023Z</time></trkpt><trkpt lat="44.15183" lon="12.135695"><ele>156.0</ele><time>2026-04-25T06:22:13.023Z</time></trkpt><trkpt lat="44.1518283" lon="12.1358033"><ele>156.0</ele><time>2026-04-25T06:22:16.022Z</time></trkpt><trkpt lat="44.15185" lon="12.135925"><ele>156.0</ele><time>2026-04-25T06:22:19.023Z</time></trkpt><trkpt lat="44.1518733" lon="12.1360383"><ele>156.0</ele><time>2026-04-25T06:22:22.022Z</time></trkpt><trkpt lat="44.1519033" lon="12.1361433"><ele>156.42857142857144</ele><time>2026-04-25T06:22:25.022Z</time></trkpt><trkpt lat="44.151945" lon="12.1362483"><ele>156.85714285714283</ele><time>2026-04-25T06:22:28.022Z</time></trkpt><trkpt lat="44.1519717" lon="12.136335"><ele>157.28571428571428</ele><time>2026-04-25T06:22:30.023Z</time></trkpt><trkpt lat="44.152005" lon="12.13641"><ele>157.71428571428572</ele><time>2026-04-25T06:22:32.023Z</time></trkpt><trkpt lat="44.1520567" lon="12.1365183"><ele>158.14285714285717</ele><time>2026-04-25T06:22:35.022Z</time></trkpt><trkpt lat="44.152105" lon="12.1365783"><ele>158.57142857142856</ele><time>2026-04-25T06:22:37.022Z</time></trkpt><trkpt lat="44.1521367" lon="12.1366583"><ele>159.0</ele><time>2026-04-25T06:22:39.022Z</time></trkpt><trkpt lat="44.1521867" lon="12.136765"><ele>158.28571428571428</ele><time>2026-04-25T06:22:42.022Z</time></trkpt><trkpt lat="44.15223" lon="12.1368367"><ele>157.57142857142858</ele><time>2026-04-25T06:22:44.022Z</time></trkpt><trkpt lat="44.1522733" lon="12.13691"><ele>156.85714285714286</ele><time>2026-04-25T06:22:46.022Z</time></trkpt><trkpt lat="44.15231" lon="12.1369883"><ele>156.14285714285714</ele><time>2026-04-25T06:22:48.023Z</time></trkpt><trkpt lat="44.1523467" lon="12.1370633"><ele>155.42857142857144</ele><time>2026-04-25T06:22:50.022Z</time></trkpt><trkpt lat="44.1523817" lon="12.1371383"><ele>154.71428571428572</ele><time>2026-04-25T06:22:52.023Z</time></trkpt><trkpt lat="44.1524183" lon="12.1372183"><ele>154.0</ele><time>2026-04-25T06:22:54.022Z</time></trkpt><trkpt lat="44.1524567" lon="12.1372983"><ele>154.0</ele><time>2026-04-25T06:22:56.023Z</time></trkpt><trkpt lat="44.1525" lon="12.1373717"><ele>154.0</ele><time>2026-04-25T06:22:58.022Z</time></trkpt><trkpt lat="44.1525433" lon="12.13744"><ele>154.0</ele><time>2026-04-25T06:23:00.022Z</time></trkpt><trkpt lat="44.1525883" lon="12.1375467"><ele>154.0</ele><time>2026-04-25T06:23:03.022Z</time></trkpt><trkpt lat="44.1526117" lon="12.1376333"><ele>154.0</ele><time>2026-04-25T06:23:05.022Z</time></trkpt><trkpt lat="44.1526383" lon="12.1377133"><ele>154.0</ele><time>2026-04-25T06:23:07.023Z</time></trkpt><trkpt lat="44.1526633" lon="12.137795"><ele>154.0</ele><time>2026-04-25T06:23:09.023Z</time></trkpt><trkpt lat="44.1526883" lon="12.137915"><ele>154.83333333333334</ele><time>2026-04-25T06:23:12.023Z</time></trkpt><trkpt lat="44.1526933" lon="12.1380383"><ele>155.66666666666669</ele><time>2026-04-25T06:23:15.024Z</time></trkpt><trkpt lat="44.1526867" lon="12.138155"><ele>156.5</ele><time>2026-04-25T06:23:18.023Z</time></trkpt><trkpt lat="44.15267" lon="12.13826"><ele>157.33333333333334</ele><time>2026-04-25T06:23:21.023Z</time></trkpt><trkpt lat="44.1526467" lon="12.1383483"><ele>158.16666666666666</ele><time>2026-04-25T06:23:23.023Z</time></trkpt><trkpt lat="44.152595" lon="12.1384433"><ele>159.0</ele><time>2026-04-25T06:23:26.024Z</time></trkpt><trkpt lat="44.1525233" lon="12.1385267"><ele>159.83333333333334</ele><time>2026-04-25T06:23:29.024Z</time></trkpt><trkpt lat="44.1524433" lon="12.1385633"><ele>160.66666666666666</ele><time>2026-04-25T06:23:32.024Z</time></trkpt><trkpt lat="44.152365" lon="12.1385767"><ele>161.5</ele><time>2026-04-25T06:23:35.024Z</time></trkpt><trkpt lat="44.1522817" lon="12.1385483"><ele>162.33333333333331</ele><time>2026-04-25T06:23:38.024Z</time></trkpt><trkpt lat="44.1521967" lon="12.1385083"><ele>163.16666666666666</ele><time>2026-04-25T06:23:41.024Z</time></trkpt><trkpt lat="44.1521117" lon="12.13847"><ele>164.0</ele><time>2026-04-25T06:23:44.024Z</time></trkpt><trkpt lat="44.1520367" lon="12.138405"><ele>164.83333333333331</ele><time>2026-04-25T06:23:47.023Z</time></trkpt><trkpt lat="44.151965" lon="12.138335"><ele>165.66666666666666</ele><time>2026-04-25T06:23:50.024Z</time></trkpt><trkpt lat="44.151895" lon="12.1382617"><ele>166.5</ele><time>2026-04-25T06:23:53.024Z</time></trkpt><trkpt lat="44.1518383" lon="12.1381917"><ele>167.33333333333334</ele><time>2026-04-25T06:23:56.023Z</time></trkpt><trkpt lat="44.151775" lon="12.138125"><ele>168.16666666666669</ele><time>2026-04-25T06:23:59.023Z</time></trkpt><trkpt lat="44.1517183" lon="12.1380567"><ele>169.0</ele><time>2026-04-25T06:24:02.024Z</time></trkpt><trkpt lat="44.151655" lon="12.137985"><ele>169.0</ele><time>2026-04-25T06:24:05.024Z</time></trkpt><trkpt lat="44.1515967" lon="12.13791"><ele>169.0</ele><time>2026-04-25T06:24:08.024Z</time></trkpt><trkpt lat="44.1515333" lon="12.13784"><ele>169.0</ele><time>2026-04-25T06:24:11.023Z</time></trkpt><trkpt lat="44.1514733" lon="12.137775"><ele>169.0</ele><time>2026-04-25T06:24:14.023Z</time></trkpt><trkpt lat="44.1514083" lon="12.1376967"><ele>169.0</ele><time>2026-04-25T06:24:17.024Z</time></trkpt><trkpt lat="44.15134" lon="12.137625"><ele>169.0</ele><time>2026-04-25T06:24:20.024Z</time></trkpt><trkpt lat="44.15127" lon="12.1375517"><ele>170.16666666666669</ele><time>2026-04-25T06:24:23.023Z</time></trkpt><trkpt lat="44.1512133" lon="12.13748"><ele>171.33333333333334</ele><time>2026-04-25T06:24:26.024Z</time></trkpt><trkpt lat="44.1511567" lon="12.13741"><ele>172.5</ele><time>2026-04-25T06:24:29.024Z</time></trkpt><trkpt lat="44.1510883" lon="12.1373417"><ele>173.66666666666666</ele><time>2026-04-25T06:24:32.024Z</time></trkpt><trkpt lat="44.1510217" lon="12.137275"><ele>174.83333333333331</ele><time>2026-04-25T06:24:35.024Z</time></trkpt><trkpt lat="44.1509583" lon="12.1372083"><ele>176.0</ele><time>2026-04-25T06:24:38.023Z</time></trkpt><trkpt lat="44.1508933" lon="12.1371433"><ele>176.16666666666666</ele><time>2026-04-25T06:24:41.024Z</time></trkpt><trkpt lat="44.1508267" lon="12.137085"><ele>176.33333333333331</ele><time>2026-04-25T06:24:44.023Z</time></trkpt><trkpt lat="44.1507517" lon="12.13704"><ele>176.5</ele><time>2026-04-25T06:24:47.023Z</time></trkpt><trkpt lat="44.1506917" lon="12.1369733"><ele>176.66666666666666</ele><time>2026-04-25T06:24:50.024Z</time></trkpt><trkpt lat="44.1506317" lon="12.1369033"><ele>176.83333333333334</ele><time>2026-04-25T06:24:53.024Z</time></trkpt><trkpt lat="44.1505683" lon="12.1368433"><ele>177.0</ele><time>2026-04-25T06:24:56.024Z</time></trkpt><trkpt lat="44.1504983" lon="12.136785"><ele>177.66666666666666</ele><time>2026-04-25T06:24:59.024Z</time></trkpt><trkpt lat="44.1504433" lon="12.1367133"><ele>178.33333333333334</ele><time>2026-04-25T06:25:02.023Z</time></trkpt><trkpt lat="44.1503783" lon="12.1366467"><ele>179.0</ele><time>2026-04-25T06:25:05.024Z</time></trkpt><trkpt lat="44.15031" lon="12.13658"><ele>179.66666666666669</ele><time>2026-04-25T06:25:08.024Z</time></trkpt><trkpt lat="44.1502417" lon="12.1365183"><ele>180.33333333333334</ele><time>2026-04-25T06:25:11.024Z</time></trkpt><trkpt lat="44.1501717" lon="12.1364583"><ele>181.0</ele><time>2026-04-25T06:25:14.024Z</time></trkpt><trkpt lat="44.1501067" lon="12.1363733"><ele>181.5</ele><time>2026-04-25T06:25:17.024Z</time></trkpt><trkpt lat="44.1500317" lon="12.1363017"><ele>182.0</ele><time>2026-04-25T06:25:20.024Z</time></trkpt><trkpt lat="44.149965" lon="12.136225"><ele>182.5</ele><time>2026-04-25T06:25:23.024Z</time></trkpt><trkpt lat="44.1499083" lon="12.1361317"><ele>183.0</ele><time>2026-04-25T06:25:26.024Z</time></trkpt><trkpt lat="44.14985" lon="12.136045"><ele>183.5</ele><time>2026-04-25T06:25:29.024Z</time></trkpt><trkpt lat="44.1498067" lon="12.1359633"><ele>184.0</ele><time>2026-04-25T06:25:32.024Z</time></trkpt><trkpt lat="44.1497583" lon="12.13586"><ele>184.83333333333334</ele><time>2026-04-25T06:25:35.024Z</time></trkpt><trkpt lat="44.1496967" lon="12.1357933"><ele>185.66666666666669</ele><time>2026-04-25T06:25:38.024Z</time></trkpt><trkpt lat="44.1496133" lon="12.13574"><ele>186.5</ele><time>2026-04-25T06:25:41.023Z</time></trkpt><trkpt lat="44.1495383" lon="12.1356967"><ele>187.33333333333334</ele><time>2026-04-25T06:25:44.024Z</time></trkpt><trkpt lat="44.1494833" lon="12.1356383"><ele>188.16666666666666</ele><time>2026-04-25T06:25:47.024Z</time></trkpt><trkpt lat="44.1494217" lon="12.1355667"><ele>189.0</ele><time>2026-04-25T06:25:50.024Z</time></trkpt><trkpt lat="44.1493433" lon="12.1355067"><ele>191.14285714285714</ele><time>2026-04-25T06:25:53.024Z</time></trkpt><trkpt lat="44.149285" lon="12.13545"><ele>193.28571428571428</ele><time>2026-04-25T06:25:56.024Z</time></trkpt><trkpt lat="44.1492217" lon="12.1354017"><ele>195.42857142857144</ele><time>2026-04-25T06:25:59.024Z</time></trkpt><trkpt lat="44.14915" lon="12.1353667"><ele>197.57142857142856</ele><time>2026-04-25T06:26:02.024Z</time></trkpt><trkpt lat="44.1490767" lon="12.13534"><ele>199.71428571428572</ele><time>2026-04-25T06:26:05.023Z</time></trkpt><trkpt lat="44.1490067" lon="12.1353217"><ele>201.85714285714286</ele><time>2026-04-25T06:26:08.024Z</time></trkpt><trkpt lat="44.1489417" lon="12.1353"><ele>204.0</ele><time>2026-04-25T06:26:11.024Z</time></trkpt><trkpt lat="44.1488767" lon="12.1352767"><ele>205.85714285714286</ele><time>2026-04-25T06:26:14.024Z</time></trkpt><trkpt lat="44.1488117" lon="12.1352567"><ele>207.71428571428572</ele><time>2026-04-25T06:26:17.024Z</time></trkpt><trkpt lat="44.1487483" lon="12.1352367"><ele>209.57142857142856</ele><time>2026-04-25T06:26:20.024Z</time></trkpt><trkpt lat="44.1486767" lon="12.13523"><ele>211.42857142857144</ele><time>2026-04-25T06:26:23.023Z</time></trkpt><trkpt lat="44.14861" lon="12.1352383"><ele>213.28571428571428</ele><time>2026-04-25T06:26:26.023Z</time></trkpt><trkpt lat="44.1485267" lon="12.1352267"><ele>215.14285714285714</ele><time>2026-04-25T06:26:30.023Z</time></trkpt><trkpt lat="44.1484633" lon="12.1352383"><ele>217.0</ele><time>2026-04-25T06:26:33.023Z</time></trkpt><trkpt lat="44.1483883" lon="12.1352433"><ele>216.99999999999997</ele><time>2026-04-25T06:26:37.024Z</time></trkpt><trkpt lat="44.1483167" lon="12.1352483"><ele>217.0</ele><time>2026-04-25T06:26:40.024Z</time></trkpt><trkpt lat="44.1482317" lon="12.1352733"><ele>217.0</ele><time>2026-04-25T06:26:43.024Z</time></trkpt><trkpt lat="44.1481567" lon="12.1352733"><ele>217.0</ele><time>2026-04-25T06:26:46.024Z</time></trkpt><trkpt lat="44.14809" lon="12.1352783"><ele>216.99999999999997</ele><time>2026-04-25T06:26:49.023Z</time></trkpt><trkpt lat="44.1480083" lon="12.13526"><ele>217.0</ele><time>2026-04-25T06:26:53.024Z</time></trkpt><trkpt lat="44.1479283" lon="12.135255"><ele>217.28571428571428</ele><time>2026-04-25T06:26:56.023Z</time></trkpt><trkpt lat="44.14786" lon="12.1352583"><ele>217.57142857142856</ele><time>2026-04-25T06:26:58.023Z</time></trkpt><trkpt lat="44.1477867" lon="12.1352683"><ele>217.85714285714286</ele><time>2026-04-25T06:27:01.023Z</time></trkpt><trkpt lat="44.1477183" lon="12.1352617"><ele>218.14285714285714</ele><time>2026-04-25T06:27:04.024Z</time></trkpt><trkpt lat="44.14764" lon="12.1352433"><ele>218.42857142857142</ele><time>2026-04-25T06:27:07.024Z</time></trkpt><trkpt lat="44.147565" lon="12.13522"><ele>218.71428571428572</ele><time>2026-04-25T06:27:11.024Z</time></trkpt><trkpt lat="44.147495" lon="12.1351983"><ele>219.0</ele><time>2026-04-25T06:27:14.023Z</time></trkpt><trkpt lat="44.1474133" lon="12.1352133"><ele>219.42857142857144</ele><time>2026-04-25T06:27:17.023Z</time></trkpt><trkpt lat="44.1473367" lon="12.1351917"><ele>219.85714285714283</ele><time>2026-04-25T06:27:20.023Z</time></trkpt><trkpt lat="44.14727" lon="12.13518"><ele>220.28571428571428</ele><time>2026-04-25T06:27:23.023Z</time></trkpt><trkpt lat="44.1471983" lon="12.1351667"><ele>220.71428571428572</ele><time>2026-04-25T06:27:26.023Z</time></trkpt><trkpt lat="44.14712" lon="12.135175"><ele>221.14285714285717</ele><time>2026-04-25T06:27:29.023Z</time></trkpt><trkpt lat="44.147045" lon="12.1351833"><ele>221.57142857142856</ele><time>2026-04-25T06:27:32.024Z</time></trkpt><trkpt lat="44.1469733" lon="12.135195"><ele>222.0</ele><time>2026-04-25T06:27:35.024Z</time></trkpt><trkpt lat="44.1469017" lon="12.135195"><ele>222.0</ele><time>2026-04-25T06:27:38.024Z</time></trkpt><trkpt lat="44.14683" lon="12.1351917"><ele>222.0</ele><time>2026-04-25T06:27:41.023Z</time></trkpt><trkpt lat="44.1467567" lon="12.1351967"><ele>222.0</ele><time>2026-04-25T06:27:44.024Z</time></trkpt><trkpt lat="44.1466717" lon="12.1352117"><ele>222.0</ele><time>2026-04-25T06:27:47.023Z</time></trkpt><trkpt lat="44.1466033" lon="12.1352183"><ele>222.0</ele><time>2026-04-25T06:27:49.024Z</time></trkpt><trkpt lat="44.1465333" lon="12.1352183"><ele>222.0</ele><time>2026-04-25T06:27:51.024Z</time></trkpt><trkpt lat="44.1464667" lon="12.1352233"><ele>222.0</ele><time>2026-04-25T06:27:53.023Z</time></trkpt><trkpt lat="44.146405" lon="12.1352417"><ele>221.57142857142856</ele><time>2026-04-25T06:27:55.024Z</time></trkpt><trkpt lat="44.1463417" lon="12.1352567"><ele>221.14285714285717</ele><time>2026-04-25T06:27:57.024Z</time></trkpt><trkpt lat="44.1462783" lon="12.13528"><ele>220.71428571428572</ele><time>2026-04-25T06:27:59.023Z</time></trkpt><trkpt lat="44.14621" lon="12.1352983"><ele>220.28571428571428</ele><time>2026-04-25T06:28:01.024Z</time></trkpt><trkpt lat="44.1461467" lon="12.1353183"><ele>219.85714285714283</ele><time>2026-04-25T06:28:03.024Z</time></trkpt><trkpt lat="44.146065" lon="12.1353317"><ele>219.42857142857144</ele><time>2026-04-25T06:28:06.023Z</time></trkpt><trkpt lat="44.1460083" lon="12.1354067"><ele>219.0</ele><time>2026-04-25T06:28:08.023Z</time></trkpt><trkpt lat="44.1459617" lon="12.1355083"><ele>219.0</ele><time>2026-04-25T06:28:10.024Z</time></trkpt><trkpt lat="44.1459067" lon="12.1355967"><ele>219.0</ele><time>2026-04-25T06:28:12.024Z</time></trkpt><trkpt lat="44.1458633" lon="12.1356833"><ele>219.0</ele><time>2026-04-25T06:28:14.024Z</time></trkpt><trkpt lat="44.145835" lon="12.1357783"><ele>219.0</ele><time>2026-04-25T06:28:16.024Z</time></trkpt><trkpt lat="44.1458033" lon="12.1358683"><ele>219.0</ele><time>2026-04-25T06:28:18.024Z</time></trkpt><trkpt lat="44.14577" lon="12.13596"><ele>219.0</ele><time>2026-04-25T06:28:20.024Z</time></trkpt><trkpt lat="44.1457333" lon="12.136055"><ele>222.33333333333334</ele><time>2026-04-25T06:28:22.024Z</time></trkpt><trkpt lat="44.1457017" lon="12.1361467"><ele>225.66666666666669</ele><time>2026-04-25T06:28:24.024Z</time></trkpt><trkpt lat="44.145665" lon="12.13624"><ele>229.0</ele><time>2026-04-25T06:28:26.024Z</time></trkpt><trkpt lat="44.1456333" lon="12.1363467"><ele>232.33333333333334</ele><time>2026-04-25T06:28:28.023Z</time></trkpt><trkpt lat="44.1456017" lon="12.1364517"><ele>235.66666666666669</ele><time>2026-04-25T06:28:30.024Z</time></trkpt><trkpt lat="44.1455683" lon="12.136535"><ele>239.0</ele><time>2026-04-25T06:28:32.024Z</time></trkpt><trkpt lat="44.145545" lon="12.1366317"><ele>239.0</ele><time>2026-04-25T06:28:34.024Z</time></trkpt><trkpt lat="44.1455117" lon="12.1367333"><ele>238.99999999999997</ele><time>2026-04-25T06:28:36.024Z</time></trkpt><trkpt lat="44.1454683" lon="12.136845"><ele>238.99999999999997</ele><time>2026-04-25T06:28:38.024Z</time></trkpt><trkpt lat="44.1454233" lon="12.1369683"><ele>239.0</ele><time>2026-04-25T06:28:40.024Z</time></trkpt><trkpt lat="44.1453817" lon="12.1370967"><ele>239.0</ele><time>2026-04-25T06:28:42.024Z</time></trkpt><trkpt lat="44.145335" lon="12.1372133"><ele>239.0</ele><time>2026-04-25T06:28:44.024Z</time></trkpt><trkpt lat="44.1452917" lon="12.1372883"><ele>238.99999999999997</ele><time>2026-04-25T06:28:45.023Z</time></trkpt><trkpt lat="44.1452467" lon="12.1374033"><ele>238.99999999999997</ele><time>2026-04-25T06:28:47.023Z</time></trkpt><trkpt lat="44.1452" lon="12.1375217"><ele>239.0</ele><time>2026-04-25T06:28:49.024Z</time></trkpt><trkpt lat="44.14516" lon="12.1376433"><ele>239.0</ele><time>2026-04-25T06:28:51.024Z</time></trkpt><trkpt lat="44.1451217" lon="12.1377683"><ele>237.0</ele><time>2026-04-25T06:28:53.024Z</time></trkpt><trkpt lat="44.1450833" lon="12.1378783"><ele>234.99999999999997</ele><time>2026-04-25T06:28:55.024Z</time></trkpt><trkpt lat="44.1450533" lon="12.13801"><ele>232.99999999999997</ele><time>2026-04-25T06:28:57.023Z</time></trkpt><trkpt lat="44.145015" lon="12.1381283"><ele>231.0</ele><time>2026-04-25T06:28:59.024Z</time></trkpt><trkpt lat="44.1449867" lon="12.13825"><ele>229.0</ele><time>2026-04-25T06:29:01.024Z</time></trkpt><trkpt lat="44.144955" lon="12.1383833"><ele>227.2</ele><time>2026-04-25T06:29:03.023Z</time></trkpt><trkpt lat="44.1449283" lon="12.138525"><ele>225.39999999999998</ele><time>2026-04-25T06:29:05.023Z</time></trkpt><trkpt lat="44.144875" lon="12.1386567"><ele>223.6</ele><time>2026-04-25T06:29:07.024Z</time></trkpt><trkpt lat="44.1448083" lon="12.1387867"><ele>221.8</ele><time>2026-04-25T06:29:09.024Z</time></trkpt><trkpt lat="44.1447383" lon="12.138915"><ele>220.0</ele><time>2026-04-25T06:29:11.024Z</time></trkpt><trkpt lat="44.1446633" lon="12.1390433"><ele>221.25</ele><time>2026-04-25T06:29:13.025Z</time></trkpt><trkpt lat="44.1445867" lon="12.13917"><ele>222.5</ele><time>2026-04-25T06:29:15.025Z</time></trkpt><trkpt lat="44.1445133" lon="12.1393"><ele>223.75</ele><time>2026-04-25T06:29:17.024Z</time></trkpt><trkpt lat="44.14444" lon="12.1394317"><ele>225.0</ele><time>2026-04-25T06:29:19.024Z</time></trkpt><trkpt lat="44.14436" lon="12.139555"><ele>225.0</ele><time>2026-04-25T06:29:21.024Z</time></trkpt><trkpt lat="44.1442883" lon="12.139695"><ele>225.0</ele><time>2026-04-25T06:29:23.025Z</time></trkpt><trkpt lat="44.1442183" lon="12.1398283"><ele>225.0</ele><time>2026-04-25T06:29:25.025Z</time></trkpt><trkpt lat="44.144155" lon="12.139955"><ele>225.0</ele><time>2026-04-25T06:29:27.024Z</time></trkpt><trkpt lat="44.14409" lon="12.1400783"><ele>228.5</ele><time>2026-04-25T06:29:29.025Z</time></trkpt><trkpt lat="44.1440217" lon="12.1402067"><ele>232.0</ele><time>2026-04-25T06:29:31.024Z</time></trkpt><trkpt lat="44.1439483" lon="12.1403333"><ele>235.5</ele><time>2026-04-25T06:29:33.025Z</time></trkpt><trkpt lat="44.1438767" lon="12.1404583"><ele>239.0</ele><time>2026-04-25T06:29:35.025Z</time></trkpt><trkpt lat="44.14381" lon="12.14059"><ele>239.0</ele><time>2026-04-25T06:29:37.025Z</time></trkpt><trkpt lat="44.1437433" lon="12.1407017"><ele>238.99999999999997</ele><time>2026-04-25T06:29:39.025Z</time></trkpt><trkpt lat="44.143675" lon="12.1408317"><ele>238.99999999999997</ele><time>2026-04-25T06:29:41.025Z</time></trkpt><trkpt lat="44.1436133" lon="12.140945"><ele>239.0</ele><time>2026-04-25T06:29:43.025Z</time></trkpt><trkpt lat="44.143545" lon="12.1410733"><ele>239.0</ele><time>2026-04-25T06:29:45.025Z</time></trkpt><trkpt lat="44.1434817" lon="12.1412"><ele>237.79999999999998</ele><time>2026-04-25T06:29:47.024Z</time></trkpt><trkpt lat="44.143415" lon="12.1413167"><ele>236.59999999999997</ele><time>2026-04-25T06:29:49.025Z</time></trkpt><trkpt lat="44.1433533" lon="12.1414383"><ele>235.4</ele><time>2026-04-25T06:29:51.024Z</time></trkpt><trkpt lat="44.14329" lon="12.141565"><ele>234.2</ele><time>2026-04-25T06:29:53.024Z</time></trkpt><trkpt lat="44.14326" lon="12.1416433"><ele>233.0</ele><time>2026-04-25T06:29:54.024Z</time></trkpt><trkpt lat="44.1431933" lon="12.1417783"><ele>233.00000000000003</ele><time>2026-04-25T06:29:56.025Z</time></trkpt><trkpt lat="44.1431583" lon="12.141855"><ele>233.0</ele><time>2026-04-25T06:29:57.024Z</time></trkpt><trkpt lat="44.1431133" lon="12.1419433"><ele>233.0</ele><time>2026-04-25T06:29:58.025Z</time></trkpt><trkpt lat="44.14308" lon="12.14203"><ele>233.0</ele><time>2026-04-25T06:29:59.024Z</time></trkpt><trkpt lat="44.1430417" lon="12.1421117"><ele>233.00000000000003</ele><time>2026-04-25T06:30:00.025Z</time></trkpt><trkpt lat="44.1430017" lon="12.14218"><ele>233.0</ele><time>2026-04-25T06:30:01.025Z</time></trkpt><trkpt lat="44.1429267" lon="12.14232"><ele>231.33333333333334</ele><time>2026-04-25T06:30:03.025Z</time></trkpt><trkpt lat="44.1428517" lon="12.1424567"><ele>229.66666666666669</ele><time>2026-04-25T06:30:05.025Z</time></trkpt><trkpt lat="44.1428117" lon="12.14253"><ele>228.0</ele><time>2026-04-25T06:30:06.024Z</time></trkpt><trkpt lat="44.1427767" lon="12.142605"><ele>226.33333333333331</ele><time>2026-04-25T06:30:07.025Z</time></trkpt><trkpt lat="44.1427033" lon="12.1427433"><ele>224.66666666666666</ele><time>2026-04-25T06:30:09.025Z</time></trkpt><trkpt lat="44.1426683" lon="12.1428183"><ele>223.0</ele><time>2026-04-25T06:30:10.024Z</time></trkpt><trkpt lat="44.1425917" lon="12.1429433"><ele>223.0</ele><time>2026-04-25T06:30:12.025Z</time></trkpt><trkpt lat="44.1425267" lon="12.1430817"><ele>223.0</ele><time>2026-04-25T06:30:14.024Z</time></trkpt><trkpt lat="44.1424567" lon="12.1432167"><ele>223.0</ele><time>2026-04-25T06:30:16.025Z</time></trkpt><trkpt lat="44.1423967" lon="12.1433517"><ele>223.0</ele><time>2026-04-25T06:30:18.025Z</time></trkpt><trkpt lat="44.1423217" lon="12.1435017"><ele>224.75</ele><time>2026-04-25T06:30:20.025Z</time></trkpt><trkpt lat="44.1422517" lon="12.1436433"><ele>226.5</ele><time>2026-04-25T06:30:22.025Z</time></trkpt><trkpt lat="44.1421767" lon="12.143765"><ele>228.25</ele><time>2026-04-25T06:30:24.025Z</time></trkpt><trkpt lat="44.1420833" lon="12.1438667"><ele>230.0</ele><time>2026-04-25T06:30:26.024Z</time></trkpt><trkpt lat="44.141975" lon="12.1439333"><ele>229.99999999999997</ele><time>2026-04-25T06:30:28.024Z</time></trkpt><trkpt lat="44.1419117" lon="12.143975"><ele>230.0</ele><time>2026-04-25T06:30:29.024Z</time></trkpt><trkpt lat="44.14185" lon="12.144015"><ele>229.99999999999997</ele><time>2026-04-25T06:30:30.024Z</time></trkpt><trkpt lat="44.1417917" lon="12.14405"><ele>229.99999999999997</ele><time>2026-04-25T06:30:31.025Z</time></trkpt><trkpt lat="44.1417267" lon="12.1440833"><ele>230.0</ele><time>2026-04-25T06:30:32.025Z</time></trkpt><trkpt lat="44.1416617" lon="12.1441117"><ele>229.99999999999997</ele><time>2026-04-25T06:30:33.025Z</time></trkpt><trkpt lat="44.1415917" lon="12.14414"><ele>229.99999999999997</ele><time>2026-04-25T06:30:34.024Z</time></trkpt><trkpt lat="44.141525" lon="12.14417"><ele>227.85714285714283</ele><time>2026-04-25T06:30:35.024Z</time></trkpt><trkpt lat="44.1414633" lon="12.1442033"><ele>225.71428571428572</ele><time>2026-04-25T06:30:36.025Z</time></trkpt><trkpt lat="44.1414017" lon="12.1442383"><ele>223.57142857142856</ele><time>2026-04-25T06:30:37.025Z</time></trkpt><trkpt lat="44.1413333" lon="12.1442767"><ele>221.42857142857142</ele><time>2026-04-25T06:30:38.025Z</time></trkpt><trkpt lat="44.1412667" lon="12.14431"><ele>219.28571428571428</ele><time>2026-04-25T06:30:39.024Z</time></trkpt><trkpt lat="44.1412" lon="12.1443483"><ele>217.14285714285714</ele><time>2026-04-25T06:30:40.024Z</time></trkpt><trkpt lat="44.14113" lon="12.1443783"><ele>215.0</ele><time>2026-04-25T06:30:41.024Z</time></trkpt><trkpt lat="44.1410667" lon="12.1444133"><ele>215.0</ele><time>2026-04-25T06:30:42.024Z</time></trkpt><trkpt lat="44.1410033" lon="12.14445"><ele>215.0</ele><time>2026-04-25T06:30:43.024Z</time></trkpt><trkpt lat="44.1409433" lon="12.1444933"><ele>215.0</ele><time>2026-04-25T06:30:44.024Z</time></trkpt><trkpt lat="44.1408767" lon="12.1445267"><ele>215.0</ele><time>2026-04-25T06:30:45.025Z</time></trkpt><trkpt lat="44.1408067" lon="12.1445617"><ele>215.0</ele><time>2026-04-25T06:30:46.025Z</time></trkpt><trkpt lat="44.1407383" lon="12.1445983"><ele>215.0</ele><time>2026-04-25T06:30:47.024Z</time></trkpt><trkpt lat="44.1406733" lon="12.14463"><ele>215.0</ele><time>2026-04-25T06:30:48.025Z</time></trkpt><trkpt lat="44.1406067" lon="12.144655"><ele>215.0</ele><time>2026-04-25T06:30:49.025Z</time></trkpt><trkpt lat="44.1405417" lon="12.1446733"><ele>215.0</ele><time>2026-04-25T06:30:50.025Z</time></trkpt><trkpt lat="44.140475" lon="12.1446983"><ele>215.0</ele><time>2026-04-25T06:30:51.025Z</time></trkpt><trkpt lat="44.1404133" lon="12.1447383"><ele>215.0</ele><time>2026-04-25T06:30:52.025Z</time></trkpt><trkpt lat="44.1403533" lon="12.14477"><ele>215.0</ele><time>2026-04-25T06:30:53.024Z</time></trkpt><trkpt lat="44.1402867" lon="12.1448017"><ele>215.0</ele><time>2026-04-25T06:30:54.025Z</time></trkpt><trkpt lat="44.1402267" lon="12.1448317"><ele>215.0</ele><time>2026-04-25T06:30:55.025Z</time></trkpt><trkpt lat="44.1401533" lon="12.144855"><ele>213.7142857142857</ele><time>2026-04-25T06:30:56.025Z</time></trkpt><trkpt lat="44.140085" lon="12.1448933"><ele>212.42857142857144</ele><time>2026-04-25T06:30:57.024Z</time></trkpt><trkpt lat="44.1400167" lon="12.1449217"><ele>211.14285714285714</ele><time>2026-04-25T06:30:58.025Z</time></trkpt><trkpt lat="44.1399517" lon="12.144955"><ele>209.85714285714283</ele><time>2026-04-25T06:30:59.025Z</time></trkpt><trkpt lat="44.13988" lon="12.144985"><ele>208.57142857142856</ele><time>2026-04-25T06:31:00.025Z</time></trkpt><trkpt lat="44.1398133" lon="12.1450117"><ele>207.28571428571428</ele><time>2026-04-25T06:31:01.025Z</time></trkpt><trkpt lat="44.13975" lon="12.14503"><ele>206.0</ele><time>2026-04-25T06:31:02.025Z</time></trkpt><trkpt lat="44.1396283" lon="12.14506"><ele>205.99999999999997</ele><time>2026-04-25T06:31:04.025Z</time></trkpt><trkpt lat="44.139565" lon="12.1450733"><ele>206.0</ele><time>2026-04-25T06:31:05.024Z</time></trkpt><trkpt lat="44.1394983" lon="12.14508"><ele>206.0</ele><time>2026-04-25T06:31:06.024Z</time></trkpt><trkpt lat="44.139435" lon="12.1450883"><ele>206.0</ele><time>2026-04-25T06:31:07.024Z</time></trkpt><trkpt lat="44.1393667" lon="12.1450917"><ele>206.0</ele><time>2026-04-25T06:31:08.025Z</time></trkpt><trkpt lat="44.1393017" lon="12.145095"><ele>205.99999999999997</ele><time>2026-04-25T06:31:09.025Z</time></trkpt><trkpt lat="44.1392383" lon="12.1451017"><ele>206.0</ele><time>2026-04-25T06:31:10.025Z</time></trkpt><trkpt lat="44.1391717" lon="12.1451067"><ele>205.99999999999997</ele><time>2026-04-25T06:31:11.025Z</time></trkpt><trkpt lat="44.1391067" lon="12.1451067"><ele>206.0</ele><time>2026-04-25T06:31:12.025Z</time></trkpt><trkpt lat="44.13904" lon="12.14511"><ele>206.0</ele><time>2026-04-25T06:31:13.024Z</time></trkpt><trkpt lat="44.13897" lon="12.14512"><ele>206.0</ele><time>2026-04-25T06:31:14.025Z</time></trkpt><trkpt lat="44.1389017" lon="12.1451317"><ele>206.0</ele><time>2026-04-25T06:31:15.025Z</time></trkpt><trkpt lat="44.1388333" lon="12.1451367"><ele>205.99999999999997</ele><time>2026-04-25T06:31:16.025Z</time></trkpt><trkpt lat="44.138765" lon="12.1451367"><ele>206.0</ele><time>2026-04-25T06:31:17.024Z</time></trkpt><trkpt lat="44.1387017" lon="12.1451383"><ele>206.4</ele><time>2026-04-25T06:31:18.025Z</time></trkpt><trkpt lat="44.138635" lon="12.1451467"><ele>206.8</ele><time>2026-04-25T06:31:19.025Z</time></trkpt><trkpt lat="44.1385683" lon="12.14515"><ele>207.20000000000002</ele><time>2026-04-25T06:31:20.024Z</time></trkpt><trkpt lat="44.138445" lon="12.14516"><ele>207.60000000000002</ele><time>2026-04-25T06:31:22.025Z</time></trkpt><trkpt lat="44.1383233" lon="12.1451617"><ele>208.0</ele><time>2026-04-25T06:31:24.025Z</time></trkpt><trkpt lat="44.1382" lon="12.145175"><ele>208.2</ele><time>2026-04-25T06:31:26.024Z</time></trkpt><trkpt lat="44.1380717" lon="12.1451883"><ele>208.4</ele><time>2026-04-25T06:31:28.025Z</time></trkpt><trkpt lat="44.137955" lon="12.1452083"><ele>208.6</ele><time>2026-04-25T06:31:30.025Z</time></trkpt><trkpt lat="44.1378867" lon="12.1452383"><ele>208.79999999999998</ele><time>2026-04-25T06:31:31.025Z</time></trkpt><trkpt lat="44.1378133" lon="12.1452633"><ele>209.0</ele><time>2026-04-25T06:31:32.025Z</time></trkpt><trkpt lat="44.1377383" lon="12.1452983"><ele>209.00000000000003</ele><time>2026-04-25T06:31:33.025Z</time></trkpt><trkpt lat="44.1376617" lon="12.1453317"><ele>209.0</ele><time>2026-04-25T06:31:34.025Z</time></trkpt><trkpt lat="44.13758" lon="12.1453567"><ele>209.0</ele><time>2026-04-25T06:31:35.025Z</time></trkpt><trkpt lat="44.137495" lon="12.14539"><ele>209.0</ele><time>2026-04-25T06:31:36.025Z</time></trkpt><trkpt lat="44.1374133" lon="12.1454233"><ele>209.00000000000003</ele><time>2026-04-25T06:31:37.024Z</time></trkpt><trkpt lat="44.137325" lon="12.1454567"><ele>209.0</ele><time>2026-04-25T06:31:38.024Z</time></trkpt><trkpt lat="44.1372333" lon="12.1454917"><ele>207.0</ele><time>2026-04-25T06:31:39.025Z</time></trkpt><trkpt lat="44.1371433" lon="12.14553"><ele>205.0</ele><time>2026-04-25T06:31:40.024Z</time></trkpt><trkpt lat="44.137055" lon="12.1455667"><ele>203.0</ele><time>2026-04-25T06:31:41.025Z</time></trkpt><trkpt lat="44.1369683" lon="12.145605"><ele>201.0</ele><time>2026-04-25T06:31:42.025Z</time></trkpt><trkpt lat="44.136885" lon="12.1456533"><ele>199.0</ele><time>2026-04-25T06:31:43.025Z</time></trkpt><trkpt lat="44.1368" lon="12.1457117"><ele>198.39999999999998</ele><time>2026-04-25T06:31:44.025Z</time></trkpt><trkpt lat="44.1367167" lon="12.145785"><ele>197.8</ele><time>2026-04-25T06:31:45.025Z</time></trkpt><trkpt lat="44.1366367" lon="12.1458633"><ele>197.2</ele><time>2026-04-25T06:31:46.025Z</time></trkpt><trkpt lat="44.1365533" lon="12.1459367"><ele>196.60000000000002</ele><time>2026-04-25T06:31:47.025Z</time></trkpt><trkpt lat="44.13647" lon="12.1459983"><ele>196.0</ele><time>2026-04-25T06:31:48.024Z</time></trkpt><trkpt lat="44.136385" lon="12.1460783"><ele>195.8</ele><time>2026-04-25T06:31:49.025Z</time></trkpt><trkpt lat="44.136305" lon="12.1461617"><ele>195.60000000000002</ele><time>2026-04-25T06:31:50.025Z</time></trkpt><trkpt lat="44.136235" lon="12.1462517"><ele>195.4</ele><time>2026-04-25T06:31:51.025Z</time></trkpt><trkpt lat="44.13617" lon="12.1463533"><ele>195.2</ele><time>2026-04-25T06:31:52.025Z</time></trkpt><trkpt lat="44.136115" lon="12.1464633"><ele>195.0</ele><time>2026-04-25T06:31:53.025Z</time></trkpt><trkpt lat="44.1360617" lon="12.14656"><ele>194.66666666666666</ele><time>2026-04-25T06:31:54.025Z</time></trkpt><trkpt lat="44.1360017" lon="12.14665"><ele>194.33333333333331</ele><time>2026-04-25T06:31:55.025Z</time></trkpt><trkpt lat="44.1359417" lon="12.1467383"><ele>194.0</ele><time>2026-04-25T06:31:56.025Z</time></trkpt><trkpt lat="44.1358833" lon="12.1468183"><ele>193.66666666666666</ele><time>2026-04-25T06:31:57.024Z</time></trkpt><trkpt lat="44.1358233" lon="12.14689"><ele>193.33333333333331</ele><time>2026-04-25T06:31:58.024Z</time></trkpt><trkpt lat="44.1357617" lon="12.1469633"><ele>193.0</ele><time>2026-04-25T06:31:59.025Z</time></trkpt><trkpt lat="44.1357033" lon="12.1470383"><ele>192.99999999999997</ele><time>2026-04-25T06:32:00.025Z</time></trkpt><trkpt lat="44.135645" lon="12.147105"><ele>193.0</ele><time>2026-04-25T06:32:01.025Z</time></trkpt><trkpt lat="44.1355417" lon="12.1472183"><ele>193.0</ele><time>2026-04-25T06:32:03.025Z</time></trkpt><trkpt lat="44.1354717" lon="12.1472633"><ele>193.0</ele><time>2026-04-25T06:32:04.025Z</time></trkpt><trkpt lat="44.135405" lon="12.147315"><ele>192.99999999999997</ele><time>2026-04-25T06:32:05.025Z</time></trkpt><trkpt lat="44.13534" lon="12.14737"><ele>193.0</ele><time>2026-04-25T06:32:06.024Z</time></trkpt><trkpt lat="44.135275" lon="12.1474117"><ele>192.85714285714286</ele><time>2026-04-25T06:32:07.024Z</time></trkpt><trkpt lat="44.13521" lon="12.1474683"><ele>192.71428571428572</ele><time>2026-04-25T06:32:08.024Z</time></trkpt><trkpt lat="44.13515" lon="12.1475167"><ele>192.57142857142856</ele><time>2026-04-25T06:32:09.024Z</time></trkpt><trkpt lat="44.13508" lon="12.1475683"><ele>192.42857142857144</ele><time>2026-04-25T06:32:10.024Z</time></trkpt><trkpt lat="44.13501" lon="12.1476"><ele>192.28571428571428</ele><time>2026-04-25T06:32:11.025Z</time></trkpt><trkpt lat="44.13494" lon="12.1476483"><ele>192.14285714285714</ele><time>2026-04-25T06:32:12.024Z</time></trkpt><trkpt lat="44.1348817" lon="12.1476833"><ele>192.0</ele><time>2026-04-25T06:32:13.025Z</time></trkpt><trkpt lat="44.1348217" lon="12.1477283"><ele>192.0</ele><time>2026-04-25T06:32:14.025Z</time></trkpt><trkpt lat="44.1347567" lon="12.1477717"><ele>192.0</ele><time>2026-04-25T06:32:15.025Z</time></trkpt><trkpt lat="44.1347" lon="12.1478133"><ele>192.0</ele><time>2026-04-25T06:32:16.025Z</time></trkpt><trkpt lat="44.1345967" lon="12.1478883"><ele>192.0</ele><time>2026-04-25T06:32:18.025Z</time></trkpt><trkpt lat="44.134495" lon="12.1479633"><ele>192.0</ele><time>2026-04-25T06:32:20.024Z</time></trkpt><trkpt lat="44.1343883" lon="12.148035"><ele>191.99999999999997</ele><time>2026-04-25T06:32:22.025Z</time></trkpt><trkpt lat="44.13433" lon="12.1480783"><ele>192.0</ele><time>2026-04-25T06:32:23.025Z</time></trkpt><trkpt lat="44.134275" lon="12.1481317"><ele>192.0</ele><time>2026-04-25T06:32:24.025Z</time></trkpt><trkpt lat="44.13422" lon="12.1481917"><ele>192.0</ele><time>2026-04-25T06:32:25.025Z</time></trkpt><trkpt lat="44.1341633" lon="12.1482617"><ele>192.0</ele><time>2026-04-25T06:32:26.025Z</time></trkpt><trkpt lat="44.1341067" lon="12.1483417"><ele>191.99999999999997</ele><time>2026-04-25T06:32:27.024Z</time></trkpt><trkpt lat="44.1340483" lon="12.14842"><ele>192.0</ele><time>2026-04-25T06:32:28.025Z</time></trkpt><trkpt lat="44.1339867" lon="12.1484967"><ele>191.0</ele><time>2026-04-25T06:32:29.025Z</time></trkpt><trkpt lat="44.1339217" lon="12.1485867"><ele>190.0</ele><time>2026-04-25T06:32:30.025Z</time></trkpt><trkpt lat="44.1338567" lon="12.1486783"><ele>189.0</ele><time>2026-04-25T06:32:31.024Z</time></trkpt><trkpt lat="44.13379" lon="12.1487717"><ele>188.0</ele><time>2026-04-25T06:32:32.024Z</time></trkpt><trkpt lat="44.1337283" lon="12.1488617"><ele>187.0</ele><time>2026-04-25T06:32:33.025Z</time></trkpt><trkpt lat="44.1336667" lon="12.14895"><ele>187.0</ele><time>2026-04-25T06:32:34.025Z</time></trkpt><trkpt lat="44.1335983" lon="12.14904"><ele>187.0</ele><time>2026-04-25T06:32:35.025Z</time></trkpt><trkpt lat="44.1335367" lon="12.1491333"><ele>187.0</ele><time>2026-04-25T06:32:36.025Z</time></trkpt><trkpt lat="44.1334783" lon="12.1492083"><ele>187.0</ele><time>2026-04-25T06:32:37.024Z</time></trkpt><trkpt lat="44.1334233" lon="12.1492867"><ele>187.0</ele><time>2026-04-25T06:32:38.025Z</time></trkpt><trkpt lat="44.1333683" lon="12.14937"><ele>187.0</ele><time>2026-04-25T06:32:39.025Z</time></trkpt><trkpt lat="44.1333117" lon="12.1494517"><ele>187.57142857142856</ele><time>2026-04-25T06:32:40.024Z</time></trkpt><trkpt lat="44.13326" lon="12.1495267"><ele>188.14285714285717</ele><time>2026-04-25T06:32:41.025Z</time></trkpt><trkpt lat="44.1332033" lon="12.1496033"><ele>188.71428571428572</ele><time>2026-04-25T06:32:42.025Z</time></trkpt><trkpt lat="44.1331567" lon="12.149685"><ele>189.28571428571428</ele><time>2026-04-25T06:32:43.024Z</time></trkpt><trkpt lat="44.1331217" lon="12.1497733"><ele>189.85714285714283</ele><time>2026-04-25T06:32:44.024Z</time></trkpt><trkpt lat="44.133085" lon="12.14986"><ele>190.42857142857144</ele><time>2026-04-25T06:32:45.024Z</time></trkpt><trkpt lat="44.13305" lon="12.1499533"><ele>191.0</ele><time>2026-04-25T06:32:46.024Z</time></trkpt><trkpt lat="44.1330117" lon="12.1500417"><ele>192.33333333333331</ele><time>2026-04-25T06:32:47.025Z</time></trkpt><trkpt lat="44.13298" lon="12.1501217"><ele>193.66666666666666</ele><time>2026-04-25T06:32:48.025Z</time></trkpt><trkpt lat="44.1329483" lon="12.1502017"><ele>195.0</ele><time>2026-04-25T06:32:49.024Z</time></trkpt><trkpt lat="44.132925" lon="12.1502867"><ele>196.33333333333331</ele><time>2026-04-25T06:32:50.024Z</time></trkpt><trkpt lat="44.132895" lon="12.150365"><ele>197.66666666666666</ele><time>2026-04-25T06:32:51.025Z</time></trkpt><trkpt lat="44.1328383" lon="12.1505183"><ele>199.0</ele><time>2026-04-25T06:32:53.025Z</time></trkpt><trkpt lat="44.132795" lon="12.150655"><ele>199.6</ele><time>2026-04-25T06:32:55.025Z</time></trkpt><trkpt lat="44.1327617" lon="12.1508017"><ele>200.2</ele><time>2026-04-25T06:32:57.025Z</time></trkpt><trkpt lat="44.1327283" lon="12.1509467"><ele>200.79999999999998</ele><time>2026-04-25T06:32:59.024Z</time></trkpt><trkpt lat="44.1327217" lon="12.1511017"><ele>201.39999999999998</ele><time>2026-04-25T06:33:01.024Z</time></trkpt><trkpt lat="44.13273" lon="12.1511933"><ele>202.0</ele><time>2026-04-25T06:33:02.025Z</time></trkpt><trkpt lat="44.1327333" lon="12.1512867"><ele>201.99999999999997</ele><time>2026-04-25T06:33:03.025Z</time></trkpt><trkpt lat="44.132745" lon="12.1513933"><ele>202.0</ele><time>2026-04-25T06:33:04.025Z</time></trkpt><trkpt lat="44.1327567" lon="12.1515"><ele>202.0</ele><time>2026-04-25T06:33:05.024Z</time></trkpt><trkpt lat="44.1327667" lon="12.15161"><ele>202.0</ele><time>2026-04-25T06:33:06.025Z</time></trkpt><trkpt lat="44.132775" lon="12.1517283"><ele>201.99999999999997</ele><time>2026-04-25T06:33:07.025Z</time></trkpt><trkpt lat="44.1327883" lon="12.1518567"><ele>202.0</ele><time>2026-04-25T06:33:08.024Z</time></trkpt><trkpt lat="44.1328017" lon="12.15199"><ele>201.8</ele><time>2026-04-25T06:33:09.025Z</time></trkpt><trkpt lat="44.1328233" lon="12.1521333"><ele>201.6</ele><time>2026-04-25T06:33:10.024Z</time></trkpt><trkpt lat="44.1328467" lon="12.1522683"><ele>201.4</ele><time>2026-04-25T06:33:11.025Z</time></trkpt><trkpt lat="44.1328733" lon="12.152405"><ele>201.20000000000002</ele><time>2026-04-25T06:33:12.024Z</time></trkpt><trkpt lat="44.1329183" lon="12.15255"><ele>201.0</ele><time>2026-04-25T06:33:13.024Z</time></trkpt><trkpt lat="44.1329733" lon="12.1526933"><ele>199.5</ele><time>2026-04-25T06:33:14.025Z</time></trkpt><trkpt lat="44.1330417" lon="12.1528367"><ele>198.0</ele><time>2026-04-25T06:33:15.025Z</time></trkpt><trkpt lat="44.1330983" lon="12.1529817"><ele>196.5</ele><time>2026-04-25T06:33:16.025Z</time></trkpt><trkpt lat="44.1331533" lon="12.1531233"><ele>195.0</ele><time>2026-04-25T06:33:17.024Z</time></trkpt><trkpt lat="44.1332033" lon="12.15327"><ele>191.75</ele><time>2026-04-25T06:33:18.024Z</time></trkpt><trkpt lat="44.133255" lon="12.15342"><ele>188.5</ele><time>2026-04-25T06:33:19.025Z</time></trkpt><trkpt lat="44.1333083" lon="12.15357"><ele>185.25</ele><time>2026-04-25T06:33:20.025Z</time></trkpt><trkpt lat="44.1333633" lon="12.1537283"><ele>182.0</ele><time>2026-04-25T06:33:21.025Z</time></trkpt><trkpt lat="44.13342" lon="12.1538783"><ele>182.0</ele><time>2026-04-25T06:33:22.025Z</time></trkpt><trkpt lat="44.1334717" lon="12.1540217"><ele>182.0</ele><time>2026-04-25T06:33:23.025Z</time></trkpt><trkpt lat="44.1335217" lon="12.1541733"><ele>182.0</ele><time>2026-04-25T06:33:24.025Z</time></trkpt><trkpt lat="44.1335717" lon="12.1543217"><ele>182.0</ele><time>2026-04-25T06:33:25.025Z</time></trkpt><trkpt lat="44.1336167" lon="12.154465"><ele>181.0</ele><time>2026-04-25T06:33:26.024Z</time></trkpt><trkpt lat="44.1336667" lon="12.1546117"><ele>180.0</ele><time>2026-04-25T06:33:27.024Z</time></trkpt><trkpt lat="44.1337167" lon="12.1547467"><ele>179.0</ele><time>2026-04-25T06:33:28.025Z</time></trkpt><trkpt lat="44.133765" lon="12.1548917"><ele>178.0</ele><time>2026-04-25T06:33:29.024Z</time></trkpt><trkpt lat="44.1338117" lon="12.1550333"><ele>175.25</ele><time>2026-04-25T06:33:30.025Z</time></trkpt><trkpt lat="44.133865" lon="12.1551833"><ele>172.5</ele><time>2026-04-25T06:33:31.025Z</time></trkpt><trkpt lat="44.1339167" lon="12.15533"><ele>169.75</ele><time>2026-04-25T06:33:32.025Z</time></trkpt><trkpt lat="44.13397" lon="12.1554767"><ele>167.0</ele><time>2026-04-25T06:33:33.025Z</time></trkpt><trkpt lat="44.134025" lon="12.15563"><ele>168.5</ele><time>2026-04-25T06:33:34.025Z</time></trkpt><trkpt lat="44.134075" lon="12.1557817"><ele>170.0</ele><time>2026-04-25T06:33:35.024Z</time></trkpt><trkpt lat="44.1341217" lon="12.1559283"><ele>171.5</ele><time>2026-04-25T06:33:36.025Z</time></trkpt><trkpt lat="44.134165" lon="12.1560783"><ele>173.0</ele><time>2026-04-25T06:33:37.024Z</time></trkpt><trkpt lat="44.1341867" lon="12.1562433"><ele>173.0</ele><time>2026-04-25T06:33:38.024Z</time></trkpt><trkpt lat="44.13418" lon="12.1564117"><ele>173.0</ele><time>2026-04-25T06:33:39.025Z</time></trkpt><trkpt lat="44.1341433" lon="12.156575"><ele>173.0</ele><time>2026-04-25T06:33:40.025Z</time></trkpt><trkpt lat="44.13409" lon="12.1567333"><ele>173.0</ele><time>2026-04-25T06:33:41.025Z</time></trkpt><trkpt lat="44.134015" lon="12.1568967"><ele>168.0</ele><time>2026-04-25T06:33:42.025Z</time></trkpt><trkpt lat="44.1339633" lon="12.1570667"><ele>163.0</ele><time>2026-04-25T06:33:43.025Z</time></trkpt><trkpt lat="44.1339183" lon="12.15724"><ele>158.0</ele><time>2026-04-25T06:33:44.025Z</time></trkpt><trkpt lat="44.133865" lon="12.1574183"><ele>153.0</ele><time>2026-04-25T06:33:45.024Z</time></trkpt><trkpt lat="44.1338067" lon="12.1575967"><ele>153.0</ele><time>2026-04-25T06:33:46.025Z</time></trkpt><trkpt lat="44.13375" lon="12.1577733"><ele>153.0</ele><time>2026-04-25T06:33:47.025Z</time></trkpt><trkpt lat="44.133695" lon="12.1579517"><ele>153.0</ele><time>2026-04-25T06:33:48.025Z</time></trkpt><trkpt lat="44.1336333" lon="12.1581333"><ele>153.0</ele><time>2026-04-25T06:33:49.025Z</time></trkpt><trkpt lat="44.1335717" lon="12.1583167"><ele>153.25</ele><time>2026-04-25T06:33:50.024Z</time></trkpt><trkpt lat="44.133515" lon="12.1585"><ele>153.5</ele><time>2026-04-25T06:33:51.025Z</time></trkpt><trkpt lat="44.1334617" lon="12.1586867"><ele>153.75</ele><time>2026-04-25T06:33:52.024Z</time></trkpt><trkpt lat="44.13341" lon="12.1588733"><ele>154.0</ele><time>2026-04-25T06:33:53.025Z</time></trkpt><trkpt lat="44.133355" lon="12.159055"><ele>154.0</ele><time>2026-04-25T06:33:54.025Z</time></trkpt><trkpt lat="44.1332983" lon="12.1592317"><ele>154.0</ele><time>2026-04-25T06:33:55.024Z</time></trkpt><trkpt lat="44.1332433" lon="12.15941"><ele>154.0</ele><time>2026-04-25T06:33:56.025Z</time></trkpt><trkpt lat="44.1331883" lon="12.159585"><ele>154.0</ele><time>2026-04-25T06:33:57.025Z</time></trkpt><trkpt lat="44.1331383" lon="12.159755"><ele>153.5</ele><time>2026-04-25T06:33:58.025Z</time></trkpt><trkpt lat="44.1330817" lon="12.1599233"><ele>153.0</ele><time>2026-04-25T06:33:59.025Z</time></trkpt><trkpt lat="44.133035" lon="12.1600917"><ele>152.5</ele><time>2026-04-25T06:34:00.025Z</time></trkpt><trkpt lat="44.1329783" lon="12.1602533"><ele>152.0</ele><time>2026-04-25T06:34:01.025Z</time></trkpt><trkpt lat="44.1329383" lon="12.160415"><ele>152.0</ele><time>2026-04-25T06:34:02.025Z</time></trkpt><trkpt lat="44.1328917" lon="12.1605683"><ele>152.0</ele><time>2026-04-25T06:34:03.025Z</time></trkpt><trkpt lat="44.13284" lon="12.16071"><ele>152.0</ele><time>2026-04-25T06:34:04.025Z</time></trkpt><trkpt lat="44.132785" lon="12.160855"><ele>152.0</ele><time>2026-04-25T06:34:05.024Z</time></trkpt><trkpt lat="44.1327367" lon="12.1609983"><ele>152.25</ele><time>2026-04-25T06:34:06.024Z</time></trkpt><trkpt lat="44.1326867" lon="12.1611417"><ele>152.5</ele><time>2026-04-25T06:34:07.025Z</time></trkpt><trkpt lat="44.13263" lon="12.16128"><ele>152.75</ele><time>2026-04-25T06:34:08.024Z</time></trkpt><trkpt lat="44.13258" lon="12.1614183"><ele>153.0</ele><time>2026-04-25T06:34:09.025Z</time></trkpt><trkpt lat="44.1325367" lon="12.16156"><ele>152.20000000000002</ele><time>2026-04-25T06:34:10.024Z</time></trkpt><trkpt lat="44.1325017" lon="12.1617067"><ele>151.4</ele><time>2026-04-25T06:34:11.025Z</time></trkpt><trkpt lat="44.1324767" lon="12.161855"><ele>150.60000000000002</ele><time>2026-04-25T06:34:12.025Z</time></trkpt><trkpt lat="44.1324667" lon="12.1620033"><ele>149.8</ele><time>2026-04-25T06:34:13.025Z</time></trkpt><trkpt lat="44.1324633" lon="12.1621417"><ele>149.0</ele><time>2026-04-25T06:34:14.024Z</time></trkpt><trkpt lat="44.1324483" lon="12.162275"><ele>148.8</ele><time>2026-04-25T06:34:15.025Z</time></trkpt><trkpt lat="44.1324333" lon="12.1624083"><ele>148.60000000000002</ele><time>2026-04-25T06:34:16.024Z</time></trkpt><trkpt lat="44.1324183" lon="12.1625383"><ele>148.4</ele><time>2026-04-25T06:34:17.025Z</time></trkpt><trkpt lat="44.1324117" lon="12.162665"><ele>148.20000000000002</ele><time>2026-04-25T06:34:18.025Z</time></trkpt><trkpt lat="44.1324" lon="12.162785"><ele>148.0</ele><time>2026-04-25T06:34:19.025Z</time></trkpt><trkpt lat="44.13239" lon="12.1628983"><ele>147.5</ele><time>2026-04-25T06:34:20.024Z</time></trkpt><trkpt lat="44.132375" lon="12.1630033"><ele>147.0</ele><time>2026-04-25T06:34:21.024Z</time></trkpt><trkpt lat="44.1323683" lon="12.1631083"><ele>146.5</ele><time>2026-04-25T06:34:22.024Z</time></trkpt><trkpt lat="44.132355" lon="12.16321"><ele>146.0</ele><time>2026-04-25T06:34:23.024Z</time></trkpt><trkpt lat="44.1323417" lon="12.1632967"><ele>145.5</ele><time>2026-04-25T06:34:24.025Z</time></trkpt><trkpt lat="44.1323133" lon="12.16346"><ele>145.0</ele><time>2026-04-25T06:34:26.025Z</time></trkpt><trkpt lat="44.132285" lon="12.16362"><ele>145.0</ele><time>2026-04-25T06:34:28.024Z</time></trkpt><trkpt lat="44.132245" lon="12.1637783"><ele>145.0</ele><time>2026-04-25T06:34:30.025Z</time></trkpt><trkpt lat="44.1321883" lon="12.1639233"><ele>145.0</ele><time>2026-04-25T06:34:32.025Z</time></trkpt><trkpt lat="44.1321283" lon="12.1640667"><ele>145.0</ele><time>2026-04-25T06:34:34.025Z</time></trkpt><trkpt lat="44.1320667" lon="12.1642033"><ele>147.0</ele><time>2026-04-25T06:34:36.025Z</time></trkpt><trkpt lat="44.1320117" lon="12.1643317"><ele>149.0</ele><time>2026-04-25T06:34:38.024Z</time></trkpt><trkpt lat="44.1319583" lon="12.164455"><ele>151.0</ele><time>2026-04-25T06:34:40.025Z</time></trkpt><trkpt lat="44.1319083" lon="12.1645633"><ele>153.0</ele><time>2026-04-25T06:34:42.024Z</time></trkpt><trkpt lat="44.131855" lon="12.1646717"><ele>155.0</ele><time>2026-04-25T06:34:44.025Z</time></trkpt><trkpt lat="44.1317983" lon="12.1647833"><ele>155.2</ele><time>2026-04-25T06:34:46.025Z</time></trkpt><trkpt lat="44.1317467" lon="12.1648883"><ele>155.4</ele><time>2026-04-25T06:34:48.025Z</time></trkpt><trkpt lat="44.1317117" lon="12.1649933"><ele>155.6</ele><time>2026-04-25T06:34:50.025Z</time></trkpt><trkpt lat="44.1316667" lon="12.1651133"><ele>155.8</ele><time>2026-04-25T06:34:52.026Z</time></trkpt><trkpt lat="44.1316133" lon="12.1652433"><ele>156.0</ele><time>2026-04-25T06:34:54.025Z</time></trkpt><trkpt lat="44.1315733" lon="12.16537"><ele>155.0</ele><time>2026-04-25T06:34:56.025Z</time></trkpt><trkpt lat="44.13152" lon="12.1655117"><ele>154.0</ele><time>2026-04-25T06:34:58.026Z</time></trkpt><trkpt lat="44.1314767" lon="12.1656567"><ele>153.0</ele><time>2026-04-25T06:35:00.026Z</time></trkpt><trkpt lat="44.1314333" lon="12.1658"><ele>152.0</ele><time>2026-04-25T06:35:02.026Z</time></trkpt><trkpt lat="44.131395" lon="12.1659383"><ele>151.0</ele><time>2026-04-25T06:35:04.026Z</time></trkpt><trkpt lat="44.1313517" lon="12.1660833"><ele>151.0</ele><time>2026-04-25T06:35:06.026Z</time></trkpt><trkpt lat="44.1313117" lon="12.1662267"><ele>151.0</ele><time>2026-04-25T06:35:08.026Z</time></trkpt><trkpt lat="44.131265" lon="12.1663683"><ele>151.0</ele><time>2026-04-25T06:35:10.026Z</time></trkpt><trkpt lat="44.1312267" lon="12.16651"><ele>151.0</ele><time>2026-04-25T06:35:12.025Z</time></trkpt><trkpt lat="44.1311833" lon="12.16665"><ele>151.0</ele><time>2026-04-25T06:35:14.025Z</time></trkpt><trkpt lat="44.131145" lon="12.166785"><ele>152.0</ele><time>2026-04-25T06:35:16.026Z</time></trkpt><trkpt lat="44.1311083" lon="12.1669167"><ele>153.0</ele><time>2026-04-25T06:35:18.026Z</time></trkpt><trkpt lat="44.1310383" lon="12.16704"><ele>154.0</ele><time>2026-04-25T06:35:20.026Z</time></trkpt><trkpt lat="44.1309567" lon="12.1671367"><ele>155.0</ele><time>2026-04-25T06:35:22.025Z</time></trkpt><trkpt lat="44.1308633" lon="12.1672267"><ele>156.0</ele><time>2026-04-25T06:35:24.026Z</time></trkpt><trkpt lat="44.1307683" lon="12.1673233"><ele>154.71428571428572</ele><time>2026-04-25T06:35:26.026Z</time></trkpt><trkpt lat="44.130715" lon="12.1673733"><ele>153.42857142857142</ele><time>2026-04-25T06:35:27.025Z</time></trkpt><trkpt lat="44.13066" lon="12.167425"><ele>152.14285714285714</ele><time>2026-04-25T06:35:28.025Z</time></trkpt><trkpt lat="44.130605" lon="12.1674783"><ele>150.85714285714286</ele><time>2026-04-25T06:35:29.026Z</time></trkpt><trkpt lat="44.130545" lon="12.1675417"><ele>149.57142857142856</ele><time>2026-04-25T06:35:30.026Z</time></trkpt><trkpt lat="44.1304783" lon="12.167615"><ele>148.28571428571428</ele><time>2026-04-25T06:35:31.025Z</time></trkpt><trkpt lat="44.13042" lon="12.16769"><ele>147.0</ele><time>2026-04-25T06:35:32.025Z</time></trkpt><trkpt lat="44.1303067" lon="12.1679233"><ele>147.0</ele><time>2026-04-25T06:35:34.525Z</time></trkpt><trkpt lat="44.1302567" lon="12.168"><ele>147.0</ele><time>2026-04-25T06:35:35.525Z</time></trkpt><trkpt lat="44.13016" lon="12.1681167"><ele>147.0</ele><time>2026-04-25T06:35:37.026Z</time></trkpt><trkpt lat="44.1301083" lon="12.16822"><ele>147.0</ele><time>2026-04-25T06:35:38.026Z</time></trkpt><trkpt lat="44.1300583" lon="12.1683383"><ele>147.0</ele><time>2026-04-25T06:35:39.025Z</time></trkpt><trkpt lat="44.1300083" lon="12.1684583"><ele>147.4</ele><time>2026-04-25T06:35:40.025Z</time></trkpt><trkpt lat="44.1299567" lon="12.1685783"><ele>147.79999999999998</ele><time>2026-04-25T06:35:41.025Z</time></trkpt><trkpt lat="44.1299" lon="12.1686883"><ele>148.2</ele><time>2026-04-25T06:35:42.026Z</time></trkpt><trkpt lat="44.1297833" lon="12.168795"><ele>148.6</ele><time>2026-04-25T06:35:43.07Z</time></trkpt><trkpt lat="44.1297367" lon="12.1689067"><ele>149.0</ele><time>2026-04-25T06:35:44.524Z</time></trkpt><trkpt lat="44.12967" lon="12.1690283"><ele>149.0</ele><time>2026-04-25T06:35:45.524Z</time></trkpt><trkpt lat="44.1295933" lon="12.1691767"><ele>149.0</ele><time>2026-04-25T06:35:47.023Z</time></trkpt><trkpt lat="44.1295267" lon="12.1692717"><ele>149.0</ele><time>2026-04-25T06:35:48.023Z</time></trkpt><trkpt lat="44.129455" lon="12.1693633"><ele>149.0</ele><time>2026-04-25T06:35:49.024Z</time></trkpt><trkpt lat="44.12938" lon="12.16945"><ele>149.0</ele><time>2026-04-25T06:35:50.024Z</time></trkpt><trkpt lat="44.1293083" lon="12.16954"><ele>149.0</ele><time>2026-04-25T06:35:51.023Z</time></trkpt><trkpt lat="44.1292383" lon="12.1696267"><ele>149.0</ele><time>2026-04-25T06:35:52.024Z</time></trkpt><trkpt lat="44.12917" lon="12.1697133"><ele>149.0</ele><time>2026-04-25T06:35:53.023Z</time></trkpt><trkpt lat="44.129105" lon="12.1698017"><ele>149.0</ele><time>2026-04-25T06:35:54.024Z</time></trkpt><trkpt lat="44.1290417" lon="12.169895"><ele>149.0</ele><time>2026-04-25T06:35:55.024Z</time></trkpt><trkpt lat="44.1289767" lon="12.1699783"><ele>149.83333333333331</ele><time>2026-04-25T06:35:56.024Z</time></trkpt><trkpt lat="44.1289183" lon="12.1700683"><ele>150.66666666666666</ele><time>2026-04-25T06:35:57.024Z</time></trkpt><trkpt lat="44.1288717" lon="12.17015"><ele>151.5</ele><time>2026-04-25T06:35:58.024Z</time></trkpt><trkpt lat="44.1288233" lon="12.17024"><ele>152.33333333333334</ele><time>2026-04-25T06:35:59.023Z</time></trkpt><trkpt lat="44.1287683" lon="12.1703267"><ele>153.16666666666669</ele><time>2026-04-25T06:36:00.024Z</time></trkpt><trkpt lat="44.12871" lon="12.1704233"><ele>154.0</ele><time>2026-04-25T06:36:01.024Z</time></trkpt><trkpt lat="44.1286533" lon="12.1705217"><ele>154.0</ele><time>2026-04-25T06:36:02.024Z</time></trkpt><trkpt lat="44.1285933" lon="12.1706283"><ele>154.0</ele><time>2026-04-25T06:36:03.024Z</time></trkpt><trkpt lat="44.128535" lon="12.1707367"><ele>154.0</ele><time>2026-04-25T06:36:04.023Z</time></trkpt><trkpt lat="44.1284717" lon="12.170845"><ele>154.0</ele><time>2026-04-25T06:36:05.024Z</time></trkpt><trkpt lat="44.1284067" lon="12.1709583"><ele>154.0</ele><time>2026-04-25T06:36:06.023Z</time></trkpt><trkpt lat="44.1283383" lon="12.1710683"><ele>153.4</ele><time>2026-04-25T06:36:07.024Z</time></trkpt><trkpt lat="44.1282667" lon="12.1711733"><ele>152.8</ele><time>2026-04-25T06:36:08.024Z</time></trkpt><trkpt lat="44.128195" lon="12.1712767"><ele>152.2</ele><time>2026-04-25T06:36:09.024Z</time></trkpt><trkpt lat="44.1281167" lon="12.1713733"><ele>151.6</ele><time>2026-04-25T06:36:10.024Z</time></trkpt><trkpt lat="44.128035" lon="12.1714617"><ele>151.0</ele><time>2026-04-25T06:36:11.023Z</time></trkpt><trkpt lat="44.12796" lon="12.1715517"><ele>150.8</ele><time>2026-04-25T06:36:12.024Z</time></trkpt><trkpt lat="44.1278767" lon="12.1716267"><ele>150.6</ele><time>2026-04-25T06:36:13.024Z</time></trkpt><trkpt lat="44.1277983" lon="12.1717083"><ele>150.4</ele><time>2026-04-25T06:36:14.024Z</time></trkpt><trkpt lat="44.1277217" lon="12.1717883"><ele>150.2</ele><time>2026-04-25T06:36:15.024Z</time></trkpt><trkpt lat="44.1276483" lon="12.1718717"><ele>150.0</ele><time>2026-04-25T06:36:16.024Z</time></trkpt><trkpt lat="44.1275767" lon="12.1719433"><ele>150.0</ele><time>2026-04-25T06:36:17.024Z</time></trkpt><trkpt lat="44.1275033" lon="12.1720067"><ele>150.0</ele><time>2026-04-25T06:36:18.024Z</time></trkpt><trkpt lat="44.1274383" lon="12.1720733"><ele>150.0</ele><time>2026-04-25T06:36:19.023Z</time></trkpt><trkpt lat="44.127365" lon="12.1721333"><ele>150.0</ele><time>2026-04-25T06:36:20.023Z</time></trkpt><trkpt lat="44.127285" lon="12.1722067"><ele>150.0</ele><time>2026-04-25T06:36:21.024Z</time></trkpt><trkpt lat="44.1272" lon="12.1722783"><ele>150.0</ele><time>2026-04-25T06:36:22.024Z</time></trkpt><trkpt lat="44.12712" lon="12.1723483"><ele>148.6</ele><time>2026-04-25T06:36:23.024Z</time></trkpt><trkpt lat="44.1270417" lon="12.172425"><ele>147.2</ele><time>2026-04-25T06:36:24.023Z</time></trkpt><trkpt lat="44.12696" lon="12.17251"><ele>145.8</ele><time>2026-04-25T06:36:25.024Z</time></trkpt><trkpt lat="44.1268767" lon="12.1725767"><ele>144.4</ele><time>2026-04-25T06:36:26.023Z</time></trkpt><trkpt lat="44.1267867" lon="12.17265"><ele>143.0</ele><time>2026-04-25T06:36:27.024Z</time></trkpt><trkpt lat="44.1267" lon="12.1727267"><ele>143.0</ele><time>2026-04-25T06:36:28.023Z</time></trkpt><trkpt lat="44.12661" lon="12.172805"><ele>143.0</ele><time>2026-04-25T06:36:29.024Z</time></trkpt><trkpt lat="44.12652" lon="12.1728967"><ele>143.0</ele><time>2026-04-25T06:36:30.023Z</time></trkpt><trkpt lat="44.1264383" lon="12.1729983"><ele>143.0</ele><time>2026-04-25T06:36:31.024Z</time></trkpt><trkpt lat="44.1263567" lon="12.1731067"><ele>143.0</ele><time>2026-04-25T06:36:32.024Z</time></trkpt><trkpt lat="44.1262783" lon="12.1732167"><ele>141.6</ele><time>2026-04-25T06:36:33.024Z</time></trkpt><trkpt lat="44.1262083" lon="12.17333"><ele>140.20000000000002</ele><time>2026-04-25T06:36:34.024Z</time></trkpt><trkpt lat="44.1261417" lon="12.1734483"><ele>138.8</ele><time>2026-04-25T06:36:35.023Z</time></trkpt><trkpt lat="44.1260833" lon="12.17356"><ele>137.4</ele><time>2026-04-25T06:36:36.023Z</time></trkpt><trkpt lat="44.1260233" lon="12.1736733"><ele>136.0</ele><time>2026-04-25T06:36:37.023Z</time></trkpt><trkpt lat="44.1259683" lon="12.1737833"><ele>136.0</ele><time>2026-04-25T06:36:38.024Z</time></trkpt><trkpt lat="44.1259167" lon="12.1738917"><ele>136.0</ele><time>2026-04-25T06:36:39.023Z</time></trkpt><trkpt lat="44.12587" lon="12.174"><ele>136.0</ele><time>2026-04-25T06:36:40.024Z</time></trkpt><trkpt lat="44.1258217" lon="12.17411"><ele>136.0</ele><time>2026-04-25T06:36:41.024Z</time></trkpt><trkpt lat="44.1257833" lon="12.1742233"><ele>136.0</ele><time>2026-04-25T06:36:42.024Z</time></trkpt><trkpt lat="44.12575" lon="12.1743317"><ele>136.16666666666669</ele><time>2026-04-25T06:36:43.024Z</time></trkpt><trkpt lat="44.125715" lon="12.17444"><ele>136.33333333333334</ele><time>2026-04-25T06:36:44.024Z</time></trkpt><trkpt lat="44.1256867" lon="12.1745583"><ele>136.5</ele><time>2026-04-25T06:36:45.023Z</time></trkpt><trkpt lat="44.1256717" lon="12.17467"><ele>136.66666666666666</ele><time>2026-04-25T06:36:46.024Z</time></trkpt><trkpt lat="44.125655" lon="12.1747867"><ele>136.83333333333331</ele><time>2026-04-25T06:36:47.023Z</time></trkpt><trkpt lat="44.1256533" lon="12.1749133"><ele>137.0</ele><time>2026-04-25T06:36:48.024Z</time></trkpt><trkpt lat="44.1256483" lon="12.1750417"><ele>137.0</ele><time>2026-04-25T06:36:49.024Z</time></trkpt><trkpt lat="44.125645" lon="12.1751717"><ele>137.0</ele><time>2026-04-25T06:36:50.024Z</time></trkpt><trkpt lat="44.1256433" lon="12.1752967"><ele>137.0</ele><time>2026-04-25T06:36:51.024Z</time></trkpt><trkpt lat="44.1256317" lon="12.1754233"><ele>137.0</ele><time>2026-04-25T06:36:52.023Z</time></trkpt><trkpt lat="44.1256183" lon="12.175545"><ele>137.0</ele><time>2026-04-25T06:36:53.024Z</time></trkpt><trkpt lat="44.1256117" lon="12.1756617"><ele>137.0</ele><time>2026-04-25T06:36:54.024Z</time></trkpt><trkpt lat="44.1256033" lon="12.1757767"><ele>136.4</ele><time>2026-04-25T06:36:55.024Z</time></trkpt><trkpt lat="44.1255867" lon="12.1758933"><ele>135.79999999999998</ele><time>2026-04-25T06:36:56.023Z</time></trkpt><trkpt lat="44.1255767" lon="12.17602"><ele>135.2</ele><time>2026-04-25T06:36:57.024Z</time></trkpt><trkpt lat="44.1255617" lon="12.17615"><ele>134.6</ele><time>2026-04-25T06:36:58.023Z</time></trkpt><trkpt lat="44.1255417" lon="12.1762817"><ele>134.0</ele><time>2026-04-25T06:36:59.024Z</time></trkpt><trkpt lat="44.12552" lon="12.1764183"><ele>133.8</ele><time>2026-04-25T06:37:00.024Z</time></trkpt><trkpt lat="44.1254983" lon="12.1765583"><ele>133.60000000000002</ele><time>2026-04-25T06:37:01.024Z</time></trkpt><trkpt lat="44.12547" lon="12.1767"><ele>133.4</ele><time>2026-04-25T06:37:02.023Z</time></trkpt><trkpt lat="44.1254267" lon="12.1768367"><ele>133.20000000000002</ele><time>2026-04-25T06:37:03.023Z</time></trkpt><trkpt lat="44.1253767" lon="12.1769667"><ele>133.0</ele><time>2026-04-25T06:37:04.024Z</time></trkpt><trkpt lat="44.12533" lon="12.1771067"><ele>133.0</ele><time>2026-04-25T06:37:05.024Z</time></trkpt><trkpt lat="44.1252833" lon="12.1772483"><ele>133.0</ele><time>2026-04-25T06:37:06.023Z</time></trkpt><trkpt lat="44.1252467" lon="12.1774033"><ele>133.0</ele><time>2026-04-25T06:37:07.024Z</time></trkpt><trkpt lat="44.1252233" lon="12.1775517"><ele>133.0</ele><time>2026-04-25T06:37:08.024Z</time></trkpt><trkpt lat="44.1252017" lon="12.1777083"><ele>132.5</ele><time>2026-04-25T06:37:09.024Z</time></trkpt><trkpt lat="44.12519" lon="12.1778617"><ele>132.0</ele><time>2026-04-25T06:37:10.023Z</time></trkpt><trkpt lat="44.1251767" lon="12.1780167"><ele>131.5</ele><time>2026-04-25T06:37:11.023Z</time></trkpt><trkpt lat="44.1251683" lon="12.1781733"><ele>131.0</ele><time>2026-04-25T06:37:12.023Z</time></trkpt><trkpt lat="44.1251583" lon="12.1783317"><ele>129.5</ele><time>2026-04-25T06:37:13.024Z</time></trkpt><trkpt lat="44.12515" lon="12.17849"><ele>128.0</ele><time>2026-04-25T06:37:14.023Z</time></trkpt><trkpt lat="44.1251367" lon="12.17865"><ele>126.5</ele><time>2026-04-25T06:37:15.023Z</time></trkpt><trkpt lat="44.1251267" lon="12.1788067"><ele>125.0</ele><time>2026-04-25T06:37:16.023Z</time></trkpt><trkpt lat="44.125115" lon="12.17897"><ele>124.6</ele><time>2026-04-25T06:37:17.024Z</time></trkpt><trkpt lat="44.1251067" lon="12.1791333"><ele>124.2</ele><time>2026-04-25T06:37:18.024Z</time></trkpt><trkpt lat="44.1250933" lon="12.1792933"><ele>123.80000000000001</ele><time>2026-04-25T06:37:19.023Z</time></trkpt><trkpt lat="44.1250817" lon="12.1794483"><ele>123.4</ele><time>2026-04-25T06:37:20.023Z</time></trkpt><trkpt lat="44.1250583" lon="12.1795867"><ele>123.0</ele><time>2026-04-25T06:37:21.024Z</time></trkpt><trkpt lat="44.125015" lon="12.17971"><ele>123.0</ele><time>2026-04-25T06:37:22.023Z</time></trkpt><trkpt lat="44.124945" lon="12.1798183"><ele>123.0</ele><time>2026-04-25T06:37:23.023Z</time></trkpt><trkpt lat="44.12485" lon="12.1799117"><ele>123.0</ele><time>2026-04-25T06:37:24.024Z</time></trkpt><trkpt lat="44.12474" lon="12.1799717"><ele>123.0</ele><time>2026-04-25T06:37:25.024Z</time></trkpt><trkpt lat="44.1246117" lon="12.1800033"><ele>121.25</ele><time>2026-04-25T06:37:26.023Z</time></trkpt><trkpt lat="44.1244867" lon="12.1800417"><ele>119.5</ele><time>2026-04-25T06:37:27.024Z</time></trkpt><trkpt lat="44.1243483" lon="12.18006"><ele>117.75</ele><time>2026-04-25T06:37:28.023Z</time></trkpt><trkpt lat="44.1242117" lon="12.1800967"><ele>116.0</ele><time>2026-04-25T06:37:29.023Z</time></trkpt><trkpt lat="44.1240833" lon="12.1801633"><ele>113.0</ele><time>2026-04-25T06:37:30.023Z</time></trkpt><trkpt lat="44.123965" lon="12.180235"><ele>110.0</ele><time>2026-04-25T06:37:31.024Z</time></trkpt><trkpt lat="44.1238467" lon="12.18031"><ele>107.0</ele><time>2026-04-25T06:37:32.024Z</time></trkpt><trkpt lat="44.12374" lon="12.1803883"><ele>104.0</ele><time>2026-04-25T06:37:33.024Z</time></trkpt><trkpt lat="44.123635" lon="12.1804467"><ele>104.0</ele><time>2026-04-25T06:37:34.024Z</time></trkpt><trkpt lat="44.123545" lon="12.1805067"><ele>104.0</ele><time>2026-04-25T06:37:35.023Z</time></trkpt><trkpt lat="44.1234467" lon="12.1805667"><ele>104.0</ele><time>2026-04-25T06:37:36.024Z</time></trkpt><trkpt lat="44.123365" lon="12.1806183"><ele>104.0</ele><time>2026-04-25T06:37:37.023Z</time></trkpt><trkpt lat="44.1232783" lon="12.1807083"><ele>104.0</ele><time>2026-04-25T06:37:38.024Z</time></trkpt><trkpt lat="44.123205" lon="12.1808133"><ele>103.2</ele><time>2026-04-25T06:37:39.023Z</time></trkpt><trkpt lat="44.1231317" lon="12.1809283"><ele>102.4</ele><time>2026-04-25T06:37:40.024Z</time></trkpt><trkpt lat="44.1230717" lon="12.181035"><ele>101.6</ele><time>2026-04-25T06:37:41.024Z</time></trkpt><trkpt lat="44.123005" lon="12.1811433"><ele>100.8</ele><time>2026-04-25T06:37:42.023Z</time></trkpt><trkpt lat="44.1229417" lon="12.1812483"><ele>100.0</ele><time>2026-04-25T06:37:43.023Z</time></trkpt><trkpt lat="44.1228967" lon="12.18134"><ele>100.00000000000001</ele><time>2026-04-25T06:37:44.023Z</time></trkpt><trkpt lat="44.1228633" lon="12.181435"><ele>100.0</ele><time>2026-04-25T06:37:45.024Z</time></trkpt><trkpt lat="44.1228667" lon="12.1815267"><ele>100.0</ele><time>2026-04-25T06:37:46.024Z</time></trkpt><trkpt lat="44.1228917" lon="12.1816083"><ele>100.0</ele><time>2026-04-25T06:37:47.024Z</time></trkpt><trkpt lat="44.122935" lon="12.1816917"><ele>100.0</ele><time>2026-04-25T06:37:48.024Z</time></trkpt><trkpt lat="44.1229867" lon="12.1817767"><ele>100.00000000000001</ele><time>2026-04-25T06:37:49.024Z</time></trkpt><trkpt lat="44.1230333" lon="12.1818583"><ele>100.0</ele><time>2026-04-25T06:37:50.023Z</time></trkpt><trkpt lat="44.123075" lon="12.1819333"><ele>99.6</ele><time>2026-04-25T06:37:51.024Z</time></trkpt><trkpt lat="44.1231083" lon="12.182015"><ele>99.2</ele><time>2026-04-25T06:37:52.024Z</time></trkpt><trkpt lat="44.1231017" lon="12.1821517"><ele>98.80000000000001</ele><time>2026-04-25T06:37:54.024Z</time></trkpt><trkpt lat="44.1230033" lon="12.1821883"><ele>98.4</ele><time>2026-04-25T06:37:56.023Z</time></trkpt><trkpt lat="44.1228767" lon="12.1821583"><ele>98.0</ele><time>2026-04-25T06:37:58.023Z</time></trkpt><trkpt lat="44.1228083" lon="12.1821383"><ele>97.99999999999999</ele><time>2026-04-25T06:37:59.024Z</time></trkpt><trkpt lat="44.1227333" lon="12.1821133"><ele>98.0</ele><time>2026-04-25T06:38:00.024Z</time></trkpt><trkpt lat="44.1226567" lon="12.1820967"><ele>98.0</ele><time>2026-04-25T06:38:01.024Z</time></trkpt><trkpt lat="44.12258" lon="12.18208"><ele>98.0</ele><time>2026-04-25T06:38:02.024Z</time></trkpt><trkpt lat="44.1225017" lon="12.1820617"><ele>97.99999999999999</ele><time>2026-04-25T06:38:03.024Z</time></trkpt><trkpt lat="44.12242" lon="12.1820417"><ele>98.0</ele><time>2026-04-25T06:38:04.024Z</time></trkpt><trkpt lat="44.122335" lon="12.1820183"><ele>94.80000000000001</ele><time>2026-04-25T06:38:05.024Z</time></trkpt><trkpt lat="44.1222433" lon="12.182"><ele>91.6</ele><time>2026-04-25T06:38:06.024Z</time></trkpt><trkpt lat="44.122155" lon="12.182005"><ele>88.4</ele><time>2026-04-25T06:38:07.024Z</time></trkpt><trkpt lat="44.122065" lon="12.1820267"><ele>85.19999999999999</ele><time>2026-04-25T06:38:08.024Z</time></trkpt><trkpt lat="44.1219783" lon="12.1820617"><ele>82.0</ele><time>2026-04-25T06:38:09.024Z</time></trkpt><trkpt lat="44.1219" lon="12.1821167"><ele>82.0</ele><time>2026-04-25T06:38:10.024Z</time></trkpt><trkpt lat="44.1218367" lon="12.18219"><ele>82.0</ele><time>2026-04-25T06:38:11.024Z</time></trkpt><trkpt lat="44.121795" lon="12.1822717"><ele>82.0</ele><time>2026-04-25T06:38:12.024Z</time></trkpt><trkpt lat="44.121775" lon="12.1823733"><ele>82.0</ele><time>2026-04-25T06:38:13.023Z</time></trkpt><trkpt lat="44.1217767" lon="12.1824783"><ele>82.0</ele><time>2026-04-25T06:38:14.024Z</time></trkpt><trkpt lat="44.1218" lon="12.1825883"><ele>82.0</ele><time>2026-04-25T06:38:15.024Z</time></trkpt><trkpt lat="44.12183" lon="12.1827117"><ele>81.8</ele><time>2026-04-25T06:38:16.024Z</time></trkpt><trkpt lat="44.1218417" lon="12.1828483"><ele>81.6</ele><time>2026-04-25T06:38:17.024Z</time></trkpt><trkpt lat="44.1218283" lon="12.1829883"><ele>81.39999999999999</ele><time>2026-04-25T06:38:18.024Z</time></trkpt><trkpt lat="44.1218017" lon="12.1831333"><ele>81.19999999999999</ele><time>2026-04-25T06:38:19.023Z</time></trkpt><trkpt lat="44.121765" lon="12.18328"><ele>81.0</ele><time>2026-04-25T06:38:20.024Z</time></trkpt><trkpt lat="44.12173" lon="12.1834267"><ele>79.39999999999999</ele><time>2026-04-25T06:38:21.023Z</time></trkpt><trkpt lat="44.1216967" lon="12.1835667"><ele>77.8</ele><time>2026-04-25T06:38:22.023Z</time></trkpt><trkpt lat="44.1216667" lon="12.1837083"><ele>76.19999999999999</ele><time>2026-04-25T06:38:23.024Z</time></trkpt><trkpt lat="44.12164" lon="12.18383"><ele>74.6</ele><time>2026-04-25T06:38:24.024Z</time></trkpt><trkpt lat="44.1216167" lon="12.18395"><ele>73.0</ele><time>2026-04-25T06:38:25.024Z</time></trkpt><trkpt lat="44.121595" lon="12.184045"><ele>71.8</ele><time>2026-04-25T06:38:26.024Z</time></trkpt><trkpt lat="44.121565" lon="12.1841883"><ele>70.6</ele><time>2026-04-25T06:38:28.023Z</time></trkpt><trkpt lat="44.1215683" lon="12.18433"><ele>69.4</ele><time>2026-04-25T06:38:30.024Z</time></trkpt><trkpt lat="44.1216017" lon="12.18448"><ele>68.2</ele><time>2026-04-25T06:38:32.024Z</time></trkpt><trkpt lat="44.1216267" lon="12.1845617"><ele>67.0</ele><time>2026-04-25T06:38:33.024Z</time></trkpt><trkpt lat="44.12165" lon="12.1846467"><ele>67.0</ele><time>2026-04-25T06:38:34.023Z</time></trkpt><trkpt lat="44.121675" lon="12.1847383"><ele>67.0</ele><time>2026-04-25T06:38:35.024Z</time></trkpt><trkpt lat="44.1216983" lon="12.18484"><ele>67.0</ele><time>2026-04-25T06:38:36.023Z</time></trkpt><trkpt lat="44.12173" lon="12.1849383"><ele>67.0</ele><time>2026-04-25T06:38:37.023Z</time></trkpt><trkpt lat="44.12175" lon="12.1850417"><ele>67.0</ele><time>2026-04-25T06:38:38.023Z</time></trkpt><trkpt lat="44.1217633" lon="12.185145"><ele>67.0</ele><time>2026-04-25T06:38:39.024Z</time></trkpt><trkpt lat="44.1217733" lon="12.1852483"><ele>66.42857142857143</ele><time>2026-04-25T06:38:40.024Z</time></trkpt><trkpt lat="44.1217883" lon="12.18535"><ele>65.85714285714286</ele><time>2026-04-25T06:38:41.024Z</time></trkpt><trkpt lat="44.1217967" lon="12.1854533"><ele>65.28571428571428</ele><time>2026-04-25T06:38:42.023Z</time></trkpt><trkpt lat="44.1218067" lon="12.1855517"><ele>64.71428571428572</ele><time>2026-04-25T06:38:43.023Z</time></trkpt><trkpt lat="44.1218183" lon="12.18565"><ele>64.14285714285714</ele><time>2026-04-25T06:38:44.023Z</time></trkpt><trkpt lat="44.1218133" lon="12.1857467"><ele>63.57142857142857</ele><time>2026-04-25T06:38:45.024Z</time></trkpt><trkpt lat="44.1218183" lon="12.1858483"><ele>63.0</ele><time>2026-04-25T06:38:46.024Z</time></trkpt><trkpt lat="44.1218233" lon="12.18595"><ele>62.714285714285715</ele><time>2026-04-25T06:38:47.024Z</time></trkpt><trkpt lat="44.1218267" lon="12.1860533"><ele>62.42857142857143</ele><time>2026-04-25T06:38:48.024Z</time></trkpt><trkpt lat="44.1218283" lon="12.186155"><ele>62.14285714285714</ele><time>2026-04-25T06:38:49.023Z</time></trkpt><trkpt lat="44.12183" lon="12.1862567"><ele>61.857142857142854</ele><time>2026-04-25T06:38:50.023Z</time></trkpt><trkpt lat="44.12183" lon="12.1863583"><ele>61.57142857142857</ele><time>2026-04-25T06:38:51.023Z</time></trkpt><trkpt lat="44.1218283" lon="12.18646"><ele>61.28571428571428</ele><time>2026-04-25T06:38:52.023Z</time></trkpt><trkpt lat="44.1218283" lon="12.18656"><ele>60.99999999999999</ele><time>2026-04-25T06:38:53.023Z</time></trkpt><trkpt lat="44.121825" lon="12.1866583"><ele>60.8</ele><time>2026-04-25T06:38:54.024Z</time></trkpt><trkpt lat="44.1218233" lon="12.18675"><ele>60.599999999999994</ele><time>2026-04-25T06:38:55.023Z</time></trkpt><trkpt lat="44.1217917" lon="12.18689"><ele>60.4</ele><time>2026-04-25T06:38:57.023Z</time></trkpt><trkpt lat="44.1217083" lon="12.1869333"><ele>60.2</ele><time>2026-04-25T06:38:59.024Z</time></trkpt><trkpt lat="44.121595" lon="12.1869217"><ele>60.0</ele><time>2026-04-25T06:39:01.024Z</time></trkpt><trkpt lat="44.121475" lon="12.18693"><ele>60.0</ele><time>2026-04-25T06:39:03.023Z</time></trkpt><trkpt lat="44.12135" lon="12.1869367"><ele>60.0</ele><time>2026-04-25T06:39:05.024Z</time></trkpt><trkpt lat="44.1212867" lon="12.1869467"><ele>60.0</ele><time>2026-04-25T06:39:06.024Z</time></trkpt><trkpt lat="44.1212183" lon="12.1869617"><ele>60.0</ele><time>2026-04-25T06:39:07.023Z</time></trkpt><trkpt lat="44.1211517" lon="12.18698"><ele>60.0</ele><time>2026-04-25T06:39:08.024Z</time></trkpt><trkpt lat="44.121085" lon="12.1869983"><ele>60.0</ele><time>2026-04-25T06:39:09.023Z</time></trkpt><trkpt lat="44.1210217" lon="12.18702"><ele>60.0</ele><time>2026-04-25T06:39:10.024Z</time></trkpt><trkpt lat="44.1209567" lon="12.1870467"><ele>60.0</ele><time>2026-04-25T06:39:11.024Z</time></trkpt><trkpt lat="44.1208917" lon="12.1870767"><ele>60.0</ele><time>2026-04-25T06:39:12.023Z</time></trkpt><trkpt lat="44.12083" lon="12.18711"><ele>60.0</ele><time>2026-04-25T06:39:13.023Z</time></trkpt><trkpt lat="44.1207667" lon="12.187145"><ele>60.0</ele><time>2026-04-25T06:39:14.024Z</time></trkpt><trkpt lat="44.1207" lon="12.1871883"><ele>60.0</ele><time>2026-04-25T06:39:15.024Z</time></trkpt><trkpt lat="44.1206367" lon="12.187235"><ele>60.0</ele><time>2026-04-25T06:39:16.024Z</time></trkpt><trkpt lat="44.1205733" lon="12.1872717"><ele>60.28571428571429</ele><time>2026-04-25T06:39:17.024Z</time></trkpt><trkpt lat="44.1205133" lon="12.1873117"><ele>60.57142857142857</ele><time>2026-04-25T06:39:18.023Z</time></trkpt><trkpt lat="44.1204483" lon="12.1873533"><ele>60.85714285714286</ele><time>2026-04-25T06:39:19.024Z</time></trkpt><trkpt lat="44.1203883" lon="12.1873933"><ele>61.142857142857146</ele><time>2026-04-25T06:39:20.023Z</time></trkpt><trkpt lat="44.1203267" lon="12.1874333"><ele>61.42857142857143</ele><time>2026-04-25T06:39:21.023Z</time></trkpt><trkpt lat="44.120265" lon="12.1874667"><ele>61.714285714285715</ele><time>2026-04-25T06:39:22.023Z</time></trkpt><trkpt lat="44.1202033" lon="12.1875"><ele>62.0</ele><time>2026-04-25T06:39:23.023Z</time></trkpt><trkpt lat="44.120145" lon="12.18754"><ele>62.00000000000001</ele><time>2026-04-25T06:39:24.024Z</time></trkpt><trkpt lat="44.1200867" lon="12.1875733"><ele>62.0</ele><time>2026-04-25T06:39:25.023Z</time></trkpt><trkpt lat="44.1200283" lon="12.1876067"><ele>62.0</ele><time>2026-04-25T06:39:26.023Z</time></trkpt><trkpt lat="44.119915" lon="12.1876817"><ele>62.0</ele><time>2026-04-25T06:39:28.024Z</time></trkpt><trkpt lat="44.119855" lon="12.1877233"><ele>62.00000000000001</ele><time>2026-04-25T06:39:29.024Z</time></trkpt><trkpt lat="44.119795" lon="12.18777"><ele>62.0</ele><time>2026-04-25T06:39:30.024Z</time></trkpt><trkpt lat="44.1197333" lon="12.1878083"><ele>61.833333333333336</ele><time>2026-04-25T06:39:31.024Z</time></trkpt><trkpt lat="44.1196317" lon="12.1878817"><ele>61.66666666666667</ele><time>2026-04-25T06:39:33.024Z</time></trkpt><trkpt lat="44.1195667" lon="12.187935"><ele>61.5</ele><time>2026-04-25T06:39:34.024Z</time></trkpt><trkpt lat="44.1195017" lon="12.1879883"><ele>61.33333333333333</ele><time>2026-04-25T06:39:35.024Z</time></trkpt><trkpt lat="44.1194383" lon="12.1880433"><ele>61.166666666666664</ele><time>2026-04-25T06:39:36.023Z</time></trkpt><trkpt lat="44.1193767" lon="12.1881017"><ele>61.0</ele><time>2026-04-25T06:39:37.024Z</time></trkpt><trkpt lat="44.1193183" lon="12.18816"><ele>60.85714285714285</ele><time>2026-04-25T06:39:38.023Z</time></trkpt><trkpt lat="44.1192583" lon="12.1882183"><ele>60.71428571428571</ele><time>2026-04-25T06:39:39.023Z</time></trkpt><trkpt lat="44.1192" lon="12.1882783"><ele>60.57142857142857</ele><time>2026-04-25T06:39:40.024Z</time></trkpt><trkpt lat="44.1191433" lon="12.1883367"><ele>60.42857142857142</ele><time>2026-04-25T06:39:41.023Z</time></trkpt><trkpt lat="44.1190867" lon="12.1883983"><ele>60.28571428571428</ele><time>2026-04-25T06:39:42.023Z</time></trkpt><trkpt lat="44.119025" lon="12.1884583"><ele>60.142857142857146</ele><time>2026-04-25T06:39:43.023Z</time></trkpt><trkpt lat="44.118965" lon="12.188515"><ele>60.0</ele><time>2026-04-25T06:39:44.023Z</time></trkpt><trkpt lat="44.118905" lon="12.1885733"><ele>60.0</ele><time>2026-04-25T06:39:45.024Z</time></trkpt><trkpt lat="44.11885" lon="12.1886383"><ele>60.0</ele><time>2026-04-25T06:39:46.023Z</time></trkpt><trkpt lat="44.1187917" lon="12.1886983"><ele>60.0</ele><time>2026-04-25T06:39:47.023Z</time></trkpt><trkpt lat="44.11873" lon="12.18876"><ele>60.0</ele><time>2026-04-25T06:39:48.024Z</time></trkpt><trkpt lat="44.11867" lon="12.18882"><ele>60.0</ele><time>2026-04-25T06:39:49.023Z</time></trkpt><trkpt lat="44.11861" lon="12.1888783"><ele>60.0</ele><time>2026-04-25T06:39:50.023Z</time></trkpt><trkpt lat="44.1185517" lon="12.1889367"><ele>60.0</ele><time>2026-04-25T06:39:51.024Z</time></trkpt><trkpt lat="44.118495" lon="12.1889967"><ele>60.0</ele><time>2026-04-25T06:39:52.023Z</time></trkpt><trkpt lat="44.118435" lon="12.189055"><ele>60.0</ele><time>2026-04-25T06:39:53.024Z</time></trkpt><trkpt lat="44.118375" lon="12.1891183"><ele>60.0</ele><time>2026-04-25T06:39:54.024Z</time></trkpt><trkpt lat="44.1183167" lon="12.1891867"><ele>60.0</ele><time>2026-04-25T06:39:55.023Z</time></trkpt><trkpt lat="44.1182583" lon="12.18926"><ele>60.0</ele><time>2026-04-25T06:39:56.025Z</time></trkpt><trkpt lat="44.1182083" lon="12.1893383"><ele>60.0</ele><time>2026-04-25T06:39:57.024Z</time></trkpt><trkpt lat="44.1181533" lon="12.1894183"><ele>60.0</ele><time>2026-04-25T06:39:58.025Z</time></trkpt><trkpt lat="44.1181" lon="12.189495"><ele>60.0</ele><time>2026-04-25T06:39:59.024Z</time></trkpt><trkpt lat="44.1180483" lon="12.1895717"><ele>60.0</ele><time>2026-04-25T06:40:00.025Z</time></trkpt><trkpt lat="44.1179983" lon="12.189655"><ele>60.0</ele><time>2026-04-25T06:40:01.024Z</time></trkpt><trkpt lat="44.11795" lon="12.18974"><ele>60.0</ele><time>2026-04-25T06:40:02.024Z</time></trkpt><trkpt lat="44.1179017" lon="12.1898217"><ele>60.0</ele><time>2026-04-25T06:40:03.025Z</time></trkpt><trkpt lat="44.1178533" lon="12.1899083"><ele>60.0</ele><time>2026-04-25T06:40:04.024Z</time></trkpt><trkpt lat="44.117805" lon="12.1899917"><ele>60.0</ele><time>2026-04-25T06:40:05.025Z</time></trkpt><trkpt lat="44.1177583" lon="12.190075"><ele>60.0</ele><time>2026-04-25T06:40:06.024Z</time></trkpt><trkpt lat="44.1177183" lon="12.1901633"><ele>60.0</ele><time>2026-04-25T06:40:07.024Z</time></trkpt><trkpt lat="44.11767" lon="12.1902483"><ele>60.0</ele><time>2026-04-25T06:40:08.025Z</time></trkpt><trkpt lat="44.1176233" lon="12.1903367"><ele>60.0</ele><time>2026-04-25T06:40:09.025Z</time></trkpt><trkpt lat="44.1175767" lon="12.1904217"><ele>60.0</ele><time>2026-04-25T06:40:10.024Z</time></trkpt><trkpt lat="44.1175317" lon="12.1905033"><ele>60.0</ele><time>2026-04-25T06:40:11.024Z</time></trkpt><trkpt lat="44.1174867" lon="12.1905867"><ele>60.0</ele><time>2026-04-25T06:40:12.024Z</time></trkpt><trkpt lat="44.11744" lon="12.1906717"><ele>60.0</ele><time>2026-04-25T06:40:13.025Z</time></trkpt><trkpt lat="44.117395" lon="12.19076"><ele>60.0</ele><time>2026-04-25T06:40:14.025Z</time></trkpt><trkpt lat="44.1173483" lon="12.19085"><ele>60.0</ele><time>2026-04-25T06:40:15.024Z</time></trkpt><trkpt lat="44.117305" lon="12.1909317"><ele>60.166666666666664</ele><time>2026-04-25T06:40:16.024Z</time></trkpt><trkpt lat="44.117265" lon="12.191015"><ele>60.33333333333333</ele><time>2026-04-25T06:40:17.025Z</time></trkpt><trkpt lat="44.1172167" lon="12.1910967"><ele>60.5</ele><time>2026-04-25T06:40:18.025Z</time></trkpt><trkpt lat="44.1171717" lon="12.1911783"><ele>60.666666666666664</ele><time>2026-04-25T06:40:19.025Z</time></trkpt><trkpt lat="44.117125" lon="12.1912633"><ele>60.83333333333333</ele><time>2026-04-25T06:40:20.024Z</time></trkpt><trkpt lat="44.11708" lon="12.1913467"><ele>61.0</ele><time>2026-04-25T06:40:21.024Z</time></trkpt><trkpt lat="44.1170333" lon="12.1914317"><ele>60.166666666666664</ele><time>2026-04-25T06:40:22.024Z</time></trkpt><trkpt lat="44.1169883" lon="12.1915233"><ele>59.33333333333333</ele><time>2026-04-25T06:40:23.025Z</time></trkpt><trkpt lat="44.11694" lon="12.1916067"><ele>58.5</ele><time>2026-04-25T06:40:24.024Z</time></trkpt><trkpt lat="44.116895" lon="12.1916933"><ele>57.66666666666667</ele><time>2026-04-25T06:40:25.025Z</time></trkpt><trkpt lat="44.1168517" lon="12.1917783"><ele>56.833333333333336</ele><time>2026-04-25T06:40:26.025Z</time></trkpt><trkpt lat="44.1168083" lon="12.1918617"><ele>56.0</ele><time>2026-04-25T06:40:27.025Z</time></trkpt><trkpt lat="44.116765" lon="12.191945"><ele>56.00000000000001</ele><time>2026-04-25T06:40:28.025Z</time></trkpt><trkpt lat="44.1167183" lon="12.1920317"><ele>56.0</ele><time>2026-04-25T06:40:29.025Z</time></trkpt><trkpt lat="44.1166733" lon="12.1921133"><ele>56.0</ele><time>2026-04-25T06:40:30.024Z</time></trkpt><trkpt lat="44.1166267" lon="12.1921933"><ele>56.0</ele><time>2026-04-25T06:40:31.025Z</time></trkpt><trkpt lat="44.1165767" lon="12.1922733"><ele>56.00000000000001</ele><time>2026-04-25T06:40:32.025Z</time></trkpt><trkpt lat="44.1165267" lon="12.1923517"><ele>56.0</ele><time>2026-04-25T06:40:33.024Z</time></trkpt><trkpt lat="44.1164767" lon="12.192425"><ele>56.14285714285714</ele><time>2026-04-25T06:40:34.024Z</time></trkpt><trkpt lat="44.1164183" lon="12.1924933"><ele>56.285714285714285</ele><time>2026-04-25T06:40:35.024Z</time></trkpt><trkpt lat="44.116355" lon="12.19255"><ele>56.42857142857143</ele><time>2026-04-25T06:40:36.024Z</time></trkpt><trkpt lat="44.1162917" lon="12.1925917"><ele>56.57142857142857</ele><time>2026-04-25T06:40:37.024Z</time></trkpt><trkpt lat="44.116225" lon="12.1926317"><ele>56.71428571428571</ele><time>2026-04-25T06:40:38.024Z</time></trkpt><trkpt lat="44.1161583" lon="12.1926667"><ele>56.857142857142854</ele><time>2026-04-25T06:40:39.024Z</time></trkpt><trkpt lat="44.1160867" lon="12.1926967"><ele>57.0</ele><time>2026-04-25T06:40:40.025Z</time></trkpt><trkpt lat="44.116015" lon="12.19272"><ele>57.0</ele><time>2026-04-25T06:40:41.025Z</time></trkpt><trkpt lat="44.1159417" lon="12.1927367"><ele>56.99999999999999</ele><time>2026-04-25T06:40:42.024Z</time></trkpt><trkpt lat="44.115865" lon="12.1927383"><ele>57.0</ele><time>2026-04-25T06:40:43.024Z</time></trkpt><trkpt lat="44.11579" lon="12.1927333"><ele>57.0</ele><time>2026-04-25T06:40:44.024Z</time></trkpt><trkpt lat="44.1157167" lon="12.1927233"><ele>56.99999999999999</ele><time>2026-04-25T06:40:45.025Z</time></trkpt><trkpt lat="44.1156433" lon="12.1926983"><ele>57.0</ele><time>2026-04-25T06:40:46.024Z</time></trkpt><trkpt lat="44.1155733" lon="12.1926683"><ele>57.0</ele><time>2026-04-25T06:40:47.025Z</time></trkpt><trkpt lat="44.115505" lon="12.1926317"><ele>57.14285714285714</ele><time>2026-04-25T06:40:48.025Z</time></trkpt><trkpt lat="44.11544" lon="12.192585"><ele>57.28571428571428</ele><time>2026-04-25T06:40:49.025Z</time></trkpt><trkpt lat="44.11538" lon="12.19253"><ele>57.42857142857143</ele><time>2026-04-25T06:40:50.025Z</time></trkpt><trkpt lat="44.1153217" lon="12.1924767"><ele>57.57142857142857</ele><time>2026-04-25T06:40:51.025Z</time></trkpt><trkpt lat="44.11526" lon="12.19243"><ele>57.714285714285715</ele><time>2026-04-25T06:40:52.024Z</time></trkpt><trkpt lat="44.1152017" lon="12.1923867"><ele>57.85714285714286</ele><time>2026-04-25T06:40:53.024Z</time></trkpt><trkpt lat="44.115145" lon="12.1923433"><ele>58.00000000000001</ele><time>2026-04-25T06:40:54.025Z</time></trkpt><trkpt lat="44.1150867" lon="12.1922983"><ele>57.99999999999999</ele><time>2026-04-25T06:40:55.024Z</time></trkpt><trkpt lat="44.115025" lon="12.1922533"><ele>58.0</ele><time>2026-04-25T06:40:56.025Z</time></trkpt><trkpt lat="44.1149683" lon="12.192205"><ele>58.0</ele><time>2026-04-25T06:40:57.025Z</time></trkpt><trkpt lat="44.1149133" lon="12.1921517"><ele>58.0</ele><time>2026-04-25T06:40:58.024Z</time></trkpt><trkpt lat="44.1148533" lon="12.1921067"><ele>57.99999999999999</ele><time>2026-04-25T06:40:59.024Z</time></trkpt><trkpt lat="44.1147483" lon="12.192015"><ele>58.0</ele><time>2026-04-25T06:41:01.024Z</time></trkpt><trkpt lat="44.1146933" lon="12.19197"><ele>58.0</ele><time>2026-04-25T06:41:02.025Z</time></trkpt><trkpt lat="44.1145933" lon="12.1918817"><ele>58.0</ele><time>2026-04-25T06:41:04.024Z</time></trkpt><trkpt lat="44.1144883" lon="12.1918067"><ele>58.0</ele><time>2026-04-25T06:41:06.025Z</time></trkpt><trkpt lat="44.1143833" lon="12.19172"><ele>58.0</ele><time>2026-04-25T06:41:08.025Z</time></trkpt><trkpt lat="44.1142683" lon="12.1916467"><ele>58.0</ele><time>2026-04-25T06:41:10.024Z</time></trkpt><trkpt lat="44.1142083" lon="12.1916167"><ele>58.0</ele><time>2026-04-25T06:41:11.024Z</time></trkpt><trkpt lat="44.1140933" lon="12.1915617"><ele>58.0</ele><time>2026-04-25T06:41:13.025Z</time></trkpt><trkpt lat="44.1139717" lon="12.19151"><ele>58.0</ele><time>2026-04-25T06:41:15.025Z</time></trkpt><trkpt lat="44.1138517" lon="12.1914583"><ele>58.0</ele><time>2026-04-25T06:41:17.025Z</time></trkpt><trkpt lat="44.1137283" lon="12.1914067"><ele>58.83333333333333</ele><time>2026-04-25T06:41:19.025Z</time></trkpt><trkpt lat="44.1136667" lon="12.19138"><ele>59.666666666666664</ele><time>2026-04-25T06:41:20.024Z</time></trkpt><trkpt lat="44.113545" lon="12.191335"><ele>60.5</ele><time>2026-04-25T06:41:22.025Z</time></trkpt><trkpt lat="44.1134267" lon="12.191275"><ele>61.33333333333333</ele><time>2026-04-25T06:41:24.025Z</time></trkpt><trkpt lat="44.113365" lon="12.1912483"><ele>62.166666666666664</ele><time>2026-04-25T06:41:25.025Z</time></trkpt><trkpt lat="44.1133033" lon="12.1912183"><ele>63.0</ele><time>2026-04-25T06:41:26.025Z</time></trkpt><trkpt lat="44.1131867" lon="12.19116"><ele>63.0</ele><time>2026-04-25T06:41:28.025Z</time></trkpt><trkpt lat="44.1130667" lon="12.1911033"><ele>63.0</ele><time>2026-04-25T06:41:30.024Z</time></trkpt><trkpt lat="44.1130067" lon="12.1910767"><ele>63.0</ele><time>2026-04-25T06:41:31.025Z</time></trkpt><trkpt lat="44.1129433" lon="12.1910483"><ele>63.0</ele><time>2026-04-25T06:41:32.025Z</time></trkpt><trkpt lat="44.1128817" lon="12.191025"><ele>63.0</ele><time>2026-04-25T06:41:33.024Z</time></trkpt><trkpt lat="44.11282" lon="12.1910017"><ele>63.0</ele><time>2026-04-25T06:41:34.024Z</time></trkpt><trkpt lat="44.11276" lon="12.1909733"><ele>63.0</ele><time>2026-04-25T06:41:35.025Z</time></trkpt><trkpt lat="44.1127" lon="12.1909433"><ele>63.0</ele><time>2026-04-25T06:41:36.024Z</time></trkpt><trkpt lat="44.1125833" lon="12.1908833"><ele>63.0</ele><time>2026-04-25T06:41:38.025Z</time></trkpt><trkpt lat="44.1125233" lon="12.1908567"><ele>63.0</ele><time>2026-04-25T06:41:39.024Z</time></trkpt><trkpt lat="44.11246" lon="12.1908267"><ele>63.0</ele><time>2026-04-25T06:41:40.025Z</time></trkpt><trkpt lat="44.1123983" lon="12.1907983"><ele>63.0</ele><time>2026-04-25T06:41:41.025Z</time></trkpt><trkpt lat="44.1122783" lon="12.1907517"><ele>63.0</ele><time>2026-04-25T06:41:43.025Z</time></trkpt><trkpt lat="44.1122167" lon="12.1907267"><ele>62.85714285714286</ele><time>2026-04-25T06:41:44.025Z</time></trkpt><trkpt lat="44.1121533" lon="12.1907"><ele>62.714285714285715</ele><time>2026-04-25T06:41:45.025Z</time></trkpt><trkpt lat="44.1120883" lon="12.1906683"><ele>62.57142857142857</ele><time>2026-04-25T06:41:46.024Z</time></trkpt><trkpt lat="44.1120283" lon="12.19064"><ele>62.42857142857143</ele><time>2026-04-25T06:41:47.025Z</time></trkpt><trkpt lat="44.111965" lon="12.1906083"><ele>62.28571428571429</ele><time>2026-04-25T06:41:48.025Z</time></trkpt><trkpt lat="44.1119017" lon="12.1905867"><ele>62.142857142857146</ele><time>2026-04-25T06:41:49.025Z</time></trkpt><trkpt lat="44.1118383" lon="12.1905633"><ele>62.0</ele><time>2026-04-25T06:41:50.025Z</time></trkpt><trkpt lat="44.111775" lon="12.190535"><ele>62.333333333333336</ele><time>2026-04-25T06:41:51.025Z</time></trkpt><trkpt lat="44.1117117" lon="12.1905083"><ele>62.66666666666667</ele><time>2026-04-25T06:41:52.025Z</time></trkpt><trkpt lat="44.11165" lon="12.1904783"><ele>63.0</ele><time>2026-04-25T06:41:53.025Z</time></trkpt><trkpt lat="44.1115883" lon="12.190455"><ele>63.33333333333333</ele><time>2026-04-25T06:41:54.025Z</time></trkpt><trkpt lat="44.1114683" lon="12.1904117"><ele>63.666666666666664</ele><time>2026-04-25T06:41:56.024Z</time></trkpt><trkpt lat="44.111405" lon="12.1903967"><ele>64.0</ele><time>2026-04-25T06:41:57.025Z</time></trkpt><trkpt lat="44.1113383" lon="12.19038"><ele>64.5</ele><time>2026-04-25T06:41:58.025Z</time></trkpt><trkpt lat="44.1112717" lon="12.19037"><ele>65.0</ele><time>2026-04-25T06:41:59.024Z</time></trkpt><trkpt lat="44.111205" lon="12.1903683"><ele>65.5</ele><time>2026-04-25T06:42:00.025Z</time></trkpt><trkpt lat="44.11114" lon="12.1903667"><ele>66.0</ele><time>2026-04-25T06:42:01.025Z</time></trkpt><trkpt lat="44.111075" lon="12.1903567"><ele>66.5</ele><time>2026-04-25T06:42:02.024Z</time></trkpt><trkpt lat="44.1109467" lon="12.1903483"><ele>67.0</ele><time>2026-04-25T06:42:04.025Z</time></trkpt><trkpt lat="44.11088" lon="12.1903517"><ele>67.0</ele><time>2026-04-25T06:42:05.025Z</time></trkpt><trkpt lat="44.110815" lon="12.1903533"><ele>67.0</ele><time>2026-04-25T06:42:06.024Z</time></trkpt><trkpt lat="44.110745" lon="12.1903517"><ele>67.0</ele><time>2026-04-25T06:42:07.025Z</time></trkpt><trkpt lat="44.11068" lon="12.1903433"><ele>67.0</ele><time>2026-04-25T06:42:08.024Z</time></trkpt><trkpt lat="44.110615" lon="12.1903417"><ele>67.0</ele><time>2026-04-25T06:42:09.025Z</time></trkpt><trkpt lat="44.11055" lon="12.19034"><ele>67.0</ele><time>2026-04-25T06:42:10.025Z</time></trkpt><trkpt lat="44.1104783" lon="12.1903417"><ele>67.0</ele><time>2026-04-25T06:42:11.024Z</time></trkpt><trkpt lat="44.11041" lon="12.1903467"><ele>66.71428571428572</ele><time>2026-04-25T06:42:12.024Z</time></trkpt><trkpt lat="44.11034" lon="12.1903467"><ele>66.42857142857143</ele><time>2026-04-25T06:42:13.025Z</time></trkpt><trkpt lat="44.110275" lon="12.1903467"><ele>66.14285714285714</ele><time>2026-04-25T06:42:14.024Z</time></trkpt><trkpt lat="44.11021" lon="12.19034"><ele>65.85714285714286</ele><time>2026-04-25T06:42:15.024Z</time></trkpt><trkpt lat="44.1101467" lon="12.1903383"><ele>65.57142857142857</ele><time>2026-04-25T06:42:16.025Z</time></trkpt><trkpt lat="44.11008" lon="12.190335"><ele>65.28571428571429</ele><time>2026-04-25T06:42:17.025Z</time></trkpt><trkpt lat="44.1100133" lon="12.1903317"><ele>65.0</ele><time>2026-04-25T06:42:18.024Z</time></trkpt><trkpt lat="44.1099483" lon="12.1903317"><ele>64.57142857142858</ele><time>2026-04-25T06:42:19.025Z</time></trkpt><trkpt lat="44.1098817" lon="12.1903367"><ele>64.14285714285714</ele><time>2026-04-25T06:42:20.024Z</time></trkpt><trkpt lat="44.1098167" lon="12.1903333"><ele>63.71428571428572</ele><time>2026-04-25T06:42:21.025Z</time></trkpt><trkpt lat="44.10975" lon="12.190325"><ele>63.28571428571429</ele><time>2026-04-25T06:42:22.025Z</time></trkpt><trkpt lat="44.109685" lon="12.19032"><ele>62.85714285714286</ele><time>2026-04-25T06:42:23.024Z</time></trkpt><trkpt lat="44.1096167" lon="12.1903217"><ele>62.42857142857143</ele><time>2026-04-25T06:42:24.025Z</time></trkpt><trkpt lat="44.1095467" lon="12.19032"><ele>62.0</ele><time>2026-04-25T06:42:25.025Z</time></trkpt><trkpt lat="44.1094783" lon="12.19032"><ele>62.0</ele><time>2026-04-25T06:42:26.025Z</time></trkpt><trkpt lat="44.1094067" lon="12.19033"><ele>62.00000000000001</ele><time>2026-04-25T06:42:27.024Z</time></trkpt><trkpt lat="44.1093383" lon="12.1903483"><ele>62.0</ele><time>2026-04-25T06:42:28.025Z</time></trkpt><trkpt lat="44.1092667" lon="12.1903783"><ele>62.0</ele><time>2026-04-25T06:42:29.025Z</time></trkpt><trkpt lat="44.1092017" lon="12.190405"><ele>62.00000000000001</ele><time>2026-04-25T06:42:30.024Z</time></trkpt><trkpt lat="44.109135" lon="12.19044"><ele>62.0</ele><time>2026-04-25T06:42:31.024Z</time></trkpt><trkpt lat="44.10907" lon="12.19048"><ele>62.0</ele><time>2026-04-25T06:42:32.025Z</time></trkpt><trkpt lat="44.1090067" lon="12.190535"><ele>62.0</ele><time>2026-04-25T06:42:33.025Z</time></trkpt><trkpt lat="44.108945" lon="12.1905933"><ele>62.00000000000001</ele><time>2026-04-25T06:42:34.024Z</time></trkpt><trkpt lat="44.1088883" lon="12.1906467"><ele>62.0</ele><time>2026-04-25T06:42:35.025Z</time></trkpt><trkpt lat="44.1088317" lon="12.190705"><ele>62.0</ele><time>2026-04-25T06:42:36.025Z</time></trkpt><trkpt lat="44.1087783" lon="12.1907733"><ele>62.00000000000001</ele><time>2026-04-25T06:42:37.024Z</time></trkpt><trkpt lat="44.1087233" lon="12.1908417"><ele>62.0</ele><time>2026-04-25T06:42:38.025Z</time></trkpt><trkpt lat="44.1086733" lon="12.190915"><ele>62.0</ele><time>2026-04-25T06:42:39.024Z</time></trkpt><trkpt lat="44.1086283" lon="12.1909883"><ele>61.714285714285715</ele><time>2026-04-25T06:42:40.025Z</time></trkpt><trkpt lat="44.1085817" lon="12.1910633"><ele>61.42857142857143</ele><time>2026-04-25T06:42:41.024Z</time></trkpt><trkpt lat="44.108535" lon="12.1911417"><ele>61.142857142857146</ele><time>2026-04-25T06:42:42.024Z</time></trkpt><trkpt lat="44.1084933" lon="12.191225"><ele>60.85714285714286</ele><time>2026-04-25T06:42:43.025Z</time></trkpt><trkpt lat="44.10845" lon="12.1913083"><ele>60.57142857142857</ele><time>2026-04-25T06:42:44.024Z</time></trkpt><trkpt lat="44.1084083" lon="12.1913917"><ele>60.28571428571429</ele><time>2026-04-25T06:42:45.024Z</time></trkpt><trkpt lat="44.10837" lon="12.1914717"><ele>60.0</ele><time>2026-04-25T06:42:46.025Z</time></trkpt><trkpt lat="44.1083333" lon="12.19155"><ele>60.0</ele><time>2026-04-25T06:42:47.024Z</time></trkpt><trkpt lat="44.108295" lon="12.1916283"><ele>60.0</ele><time>2026-04-25T06:42:48.025Z</time></trkpt><trkpt lat="44.1082183" lon="12.19177"><ele>60.0</ele><time>2026-04-25T06:42:50.025Z</time></trkpt><trkpt lat="44.108175" lon="12.1918433"><ele>60.0</ele><time>2026-04-25T06:42:51.024Z</time></trkpt><trkpt lat="44.1081367" lon="12.1919183"><ele>60.0</ele><time>2026-04-25T06:42:52.024Z</time></trkpt><trkpt lat="44.1080933" lon="12.191995"><ele>60.0</ele><time>2026-04-25T06:42:53.025Z</time></trkpt><trkpt lat="44.10805" lon="12.19206"><ele>60.0</ele><time>2026-04-25T06:42:54.025Z</time></trkpt><trkpt lat="44.1080083" lon="12.1921283"><ele>60.0</ele><time>2026-04-25T06:42:55.025Z</time></trkpt><trkpt lat="44.107965" lon="12.1921967"><ele>60.0</ele><time>2026-04-25T06:42:56.024Z</time></trkpt><trkpt lat="44.1078833" lon="12.1923333"><ele>60.0</ele><time>2026-04-25T06:42:58.025Z</time></trkpt><trkpt lat="44.107795" lon="12.1924583"><ele>60.0</ele><time>2026-04-25T06:43:00.024Z</time></trkpt><trkpt lat="44.10775" lon="12.1925283"><ele>60.166666666666664</ele><time>2026-04-25T06:43:01.025Z</time></trkpt><trkpt lat="44.1077033" lon="12.1925983"><ele>60.33333333333333</ele><time>2026-04-25T06:43:02.024Z</time></trkpt><trkpt lat="44.107615" lon="12.19272"><ele>60.5</ele><time>2026-04-25T06:43:04.025Z</time></trkpt><trkpt lat="44.10757" lon="12.1927883"><ele>60.666666666666664</ele><time>2026-04-25T06:43:05.025Z</time></trkpt><trkpt lat="44.1075267" lon="12.1928583"><ele>60.83333333333333</ele><time>2026-04-25T06:43:06.025Z</time></trkpt><trkpt lat="44.1074833" lon="12.1929233"><ele>61.0</ele><time>2026-04-25T06:43:07.025Z</time></trkpt><trkpt lat="44.1074367" lon="12.1929867"><ele>60.99999999999999</ele><time>2026-04-25T06:43:08.025Z</time></trkpt><trkpt lat="44.1073933" lon="12.193055"><ele>61.0</ele><time>2026-04-25T06:43:09.025Z</time></trkpt><trkpt lat="44.1073483" lon="12.1931233"><ele>60.99999999999999</ele><time>2026-04-25T06:43:10.025Z</time></trkpt><trkpt lat="44.107305" lon="12.1931933"><ele>60.99999999999999</ele><time>2026-04-25T06:43:11.025Z</time></trkpt><trkpt lat="44.1072617" lon="12.1932617"><ele>61.0</ele><time>2026-04-25T06:43:12.025Z</time></trkpt><trkpt lat="44.1072133" lon="12.19333"><ele>60.99999999999999</ele><time>2026-04-25T06:43:13.025Z</time></trkpt><trkpt lat="44.1071683" lon="12.1933933"><ele>60.99999999999999</ele><time>2026-04-25T06:43:14.025Z</time></trkpt><trkpt lat="44.107075" lon="12.1934967"><ele>61.0</ele><time>2026-04-25T06:43:16.024Z</time></trkpt><trkpt lat="44.10701" lon="12.1936017"><ele>60.99999999999999</ele><time>2026-04-25T06:43:18.024Z</time></trkpt><trkpt lat="44.10697" lon="12.19371"><ele>60.99999999999999</ele><time>2026-04-25T06:43:20.025Z</time></trkpt><trkpt lat="44.1069233" lon="12.19381"><ele>61.0</ele><time>2026-04-25T06:43:22.025Z</time></trkpt><trkpt lat="44.1068733" lon="12.1939283"><ele>61.0</ele><time>2026-04-25T06:43:24.024Z</time></trkpt><trkpt lat="44.1068117" lon="12.1940383"><ele>61.0</ele><time>2026-04-25T06:43:26.025Z</time></trkpt><trkpt lat="44.106755" lon="12.1941567"><ele>60.99999999999999</ele><time>2026-04-25T06:43:28.025Z</time></trkpt><trkpt lat="44.10668" lon="12.1942867"><ele>60.99999999999999</ele><time>2026-04-25T06:43:30.025Z</time></trkpt><trkpt lat="44.1066467" lon="12.1943617"><ele>61.0</ele><time>2026-04-25T06:43:31.024Z</time></trkpt><trkpt lat="44.1065783" lon="12.1945033"><ele>61.0</ele><time>2026-04-25T06:43:33.025Z</time></trkpt><trkpt lat="44.106515" lon="12.1946367"><ele>60.99999999999999</ele><time>2026-04-25T06:43:35.025Z</time></trkpt><trkpt lat="44.10645" lon="12.1947767"><ele>61.0</ele><time>2026-04-25T06:43:37.025Z</time></trkpt><trkpt lat="44.1064167" lon="12.194855"><ele>61.0</ele><time>2026-04-25T06:43:38.025Z</time></trkpt><trkpt lat="44.106385" lon="12.1949317"><ele>61.0</ele><time>2026-04-25T06:43:39.024Z</time></trkpt><trkpt lat="44.1063517" lon="12.1950083"><ele>60.99999999999999</ele><time>2026-04-25T06:43:40.025Z</time></trkpt><trkpt lat="44.1063167" lon="12.195085"><ele>61.0</ele><time>2026-04-25T06:43:41.024Z</time></trkpt><trkpt lat="44.1062533" lon="12.19523"><ele>61.0</ele><time>2026-04-25T06:43:43.025Z</time></trkpt><trkpt lat="44.1062217" lon="12.1953067"><ele>60.99999999999999</ele><time>2026-04-25T06:43:44.024Z</time></trkpt><trkpt lat="44.1061583" lon="12.1954567"><ele>60.99999999999999</ele><time>2026-04-25T06:43:46.025Z</time></trkpt><trkpt lat="44.10613" lon="12.1955367"><ele>61.0</ele><time>2026-04-25T06:43:47.025Z</time></trkpt><trkpt lat="44.1060633" lon="12.195675"><ele>61.0</ele><time>2026-04-25T06:43:49.025Z</time></trkpt><trkpt lat="44.106" lon="12.1958033"><ele>61.0</ele><time>2026-04-25T06:43:51.024Z</time></trkpt><trkpt lat="44.10594" lon="12.1959433"><ele>60.99999999999999</ele><time>2026-04-25T06:43:53.024Z</time></trkpt><trkpt lat="44.105875" lon="12.196075"><ele>60.99999999999999</ele><time>2026-04-25T06:43:55.025Z</time></trkpt><trkpt lat="44.105795" lon="12.1961867"><ele>61.0</ele><time>2026-04-25T06:43:57.024Z</time></trkpt><trkpt lat="44.1057067" lon="12.1962467"><ele>61.0</ele><time>2026-04-25T06:43:59.024Z</time></trkpt><trkpt lat="44.105595" lon="12.1962533"><ele>60.99999999999999</ele><time>2026-04-25T06:44:01.025Z</time></trkpt><trkpt lat="44.10549" lon="12.19625"><ele>61.0</ele><time>2026-04-25T06:44:03.025Z</time></trkpt><trkpt lat="44.10537" lon="12.1962483"><ele>61.0</ele><time>2026-04-25T06:44:05.025Z</time></trkpt><trkpt lat="44.1053067" lon="12.1962467"><ele>61.0</ele><time>2026-04-25T06:44:06.024Z</time></trkpt><trkpt lat="44.105235" lon="12.1962417"><ele>60.99999999999999</ele><time>2026-04-25T06:44:07.025Z</time></trkpt><trkpt lat="44.1051633" lon="12.1962383"><ele>61.0</ele><time>2026-04-25T06:44:08.025Z</time></trkpt><trkpt lat="44.10509" lon="12.1962367"><ele>60.99999999999999</ele><time>2026-04-25T06:44:09.025Z</time></trkpt><trkpt lat="44.1050167" lon="12.1962333"><ele>61.0</ele><time>2026-04-25T06:44:10.025Z</time></trkpt><trkpt lat="44.1049417" lon="12.196235"><ele>61.0</ele><time>2026-04-25T06:44:11.025Z</time></trkpt><trkpt lat="44.1048683" lon="12.196235"><ele>61.0</ele><time>2026-04-25T06:44:12.025Z</time></trkpt><trkpt lat="44.10479" lon="12.1962367"><ele>60.99999999999999</ele><time>2026-04-25T06:44:13.025Z</time></trkpt><trkpt lat="44.1047117" lon="12.196245"><ele>61.0</ele><time>2026-04-25T06:44:14.025Z</time></trkpt><trkpt lat="44.1046383" lon="12.1962467"><ele>60.99999999999999</ele><time>2026-04-25T06:44:15.025Z</time></trkpt><trkpt lat="44.1045683" lon="12.19624"><ele>61.0</ele><time>2026-04-25T06:44:16.024Z</time></trkpt><trkpt lat="44.1044967" lon="12.1962367"><ele>60.99999999999999</ele><time>2026-04-25T06:44:17.025Z</time></trkpt><trkpt lat="44.1044183" lon="12.1962333"><ele>60.99999999999999</ele><time>2026-04-25T06:44:18.025Z</time></trkpt><trkpt lat="44.1043467" lon="12.1962383"><ele>61.0</ele><time>2026-04-25T06:44:19.024Z</time></trkpt><trkpt lat="44.1042783" lon="12.196235"><ele>60.99999999999999</ele><time>2026-04-25T06:44:20.025Z</time></trkpt><trkpt lat="44.1042083" lon="12.19623"><ele>60.99999999999999</ele><time>2026-04-25T06:44:21.025Z</time></trkpt><trkpt lat="44.10414" lon="12.1962183"><ele>60.99999999999999</ele><time>2026-04-25T06:44:22.025Z</time></trkpt><trkpt lat="44.10407" lon="12.1962217"><ele>61.0</ele><time>2026-04-25T06:44:23.025Z</time></trkpt><trkpt lat="44.1039917" lon="12.1962267"><ele>60.99999999999999</ele><time>2026-04-25T06:44:24.024Z</time></trkpt><trkpt lat="44.1039183" lon="12.1962217"><ele>60.99999999999999</ele><time>2026-04-25T06:44:25.024Z</time></trkpt><trkpt lat="44.1038467" lon="12.19623"><ele>61.0</ele><time>2026-04-25T06:44:26.024Z</time></trkpt><trkpt lat="44.1037733" lon="12.1962317"><ele>60.99999999999999</ele><time>2026-04-25T06:44:27.025Z</time></trkpt><trkpt lat="44.1036983" lon="12.1962367"><ele>60.99999999999999</ele><time>2026-04-25T06:44:28.025Z</time></trkpt><trkpt lat="44.1036233" lon="12.196245"><ele>60.99999999999999</ele><time>2026-04-25T06:44:29.025Z</time></trkpt><trkpt lat="44.1035467" lon="12.196255"><ele>61.0</ele><time>2026-04-25T06:44:30.025Z</time></trkpt><trkpt lat="44.1034733" lon="12.1962667"><ele>61.0</ele><time>2026-04-25T06:44:31.025Z</time></trkpt><trkpt lat="44.1033933" lon="12.196285"><ele>61.0</ele><time>2026-04-25T06:44:32.024Z</time></trkpt><trkpt lat="44.1033183" lon="12.196305"><ele>60.99999999999999</ele><time>2026-04-25T06:44:33.025Z</time></trkpt><trkpt lat="44.1032433" lon="12.196325"><ele>61.0</ele><time>2026-04-25T06:44:34.024Z</time></trkpt><trkpt lat="44.10317" lon="12.19634"><ele>60.666666666666664</ele><time>2026-04-25T06:44:35.025Z</time></trkpt><trkpt lat="44.10309" lon="12.1963533"><ele>60.33333333333333</ele><time>2026-04-25T06:44:36.025Z</time></trkpt><trkpt lat="44.103015" lon="12.1963667"><ele>60.0</ele><time>2026-04-25T06:44:37.024Z</time></trkpt><trkpt lat="44.10294" lon="12.1963767"><ele>59.66666666666667</ele><time>2026-04-25T06:44:38.025Z</time></trkpt><trkpt lat="44.1028667" lon="12.1963983"><ele>59.333333333333336</ele><time>2026-04-25T06:44:39.025Z</time></trkpt><trkpt lat="44.1027917" lon="12.1964183"><ele>59.0</ele><time>2026-04-25T06:44:40.024Z</time></trkpt><trkpt lat="44.1027183" lon="12.196435"><ele>59.0</ele><time>2026-04-25T06:44:41.025Z</time></trkpt><trkpt lat="44.102645" lon="12.1964583"><ele>59.0</ele><time>2026-04-25T06:44:42.025Z</time></trkpt><trkpt lat="44.1025783" lon="12.196475"><ele>59.0</ele><time>2026-04-25T06:44:43.025Z</time></trkpt><trkpt lat="44.10251" lon="12.1965017"><ele>59.0</ele><time>2026-04-25T06:44:44.024Z</time></trkpt><trkpt lat="44.102445" lon="12.1965217"><ele>59.0</ele><time>2026-04-25T06:44:45.025Z</time></trkpt><trkpt lat="44.10238" lon="12.19655"><ele>59.0</ele><time>2026-04-25T06:44:46.025Z</time></trkpt><trkpt lat="44.102315" lon="12.1965783"><ele>59.0</ele><time>2026-04-25T06:44:47.025Z</time></trkpt><trkpt lat="44.10225" lon="12.1966167"><ele>59.333333333333336</ele><time>2026-04-25T06:44:48.024Z</time></trkpt><trkpt lat="44.1021867" lon="12.1966567"><ele>59.66666666666667</ele><time>2026-04-25T06:44:49.025Z</time></trkpt><trkpt lat="44.10213" lon="12.1966983"><ele>60.0</ele><time>2026-04-25T06:44:50.025Z</time></trkpt><trkpt lat="44.1020283" lon="12.19679"><ele>60.33333333333333</ele><time>2026-04-25T06:44:52.024Z</time></trkpt><trkpt lat="44.1019733" lon="12.1968333"><ele>60.666666666666664</ele><time>2026-04-25T06:44:53.025Z</time></trkpt><trkpt lat="44.10192" lon="12.1968817"><ele>61.0</ele><time>2026-04-25T06:44:54.025Z</time></trkpt><trkpt lat="44.101815" lon="12.1969817"><ele>60.99999999999999</ele><time>2026-04-25T06:44:56.025Z</time></trkpt><trkpt lat="44.1017133" lon="12.1970883"><ele>61.0</ele><time>2026-04-25T06:44:58.024Z</time></trkpt><trkpt lat="44.10166" lon="12.1971467"><ele>61.0</ele><time>2026-04-25T06:44:59.025Z</time></trkpt><trkpt lat="44.10161" lon="12.197205"><ele>61.0</ele><time>2026-04-25T06:45:00.024Z</time></trkpt><trkpt lat="44.1015583" lon="12.19726"><ele>60.99999999999999</ele><time>2026-04-25T06:45:01.024Z</time></trkpt><trkpt lat="44.101505" lon="12.197315"><ele>61.0</ele><time>2026-04-25T06:45:02.025Z</time></trkpt><trkpt lat="44.1014517" lon="12.1973683"><ele>61.28571428571428</ele><time>2026-04-25T06:45:03.024Z</time></trkpt><trkpt lat="44.1013967" lon="12.1974167"><ele>61.57142857142857</ele><time>2026-04-25T06:45:04.025Z</time></trkpt><trkpt lat="44.1013383" lon="12.1974633"><ele>61.857142857142854</ele><time>2026-04-25T06:45:05.025Z</time></trkpt><trkpt lat="44.101275" lon="12.1975017"><ele>62.14285714285714</ele><time>2026-04-25T06:45:06.025Z</time></trkpt><trkpt lat="44.1012083" lon="12.1975283"><ele>62.42857142857143</ele><time>2026-04-25T06:45:07.024Z</time></trkpt><trkpt lat="44.10114" lon="12.1975433"><ele>62.714285714285715</ele><time>2026-04-25T06:45:08.024Z</time></trkpt><trkpt lat="44.10107" lon="12.197565"><ele>63.0</ele><time>2026-04-25T06:45:09.025Z</time></trkpt><trkpt lat="44.101" lon="12.1975867"><ele>63.0</ele><time>2026-04-25T06:45:10.024Z</time></trkpt><trkpt lat="44.1009333" lon="12.197595"><ele>63.0</ele><time>2026-04-25T06:45:11.025Z</time></trkpt><trkpt lat="44.1008683" lon="12.1975967"><ele>63.0</ele><time>2026-04-25T06:45:12.025Z</time></trkpt><trkpt lat="44.1008033" lon="12.1975967"><ele>63.0</ele><time>2026-04-25T06:45:13.024Z</time></trkpt><trkpt lat="44.1007367" lon="12.197595"><ele>63.0</ele><time>2026-04-25T06:45:14.024Z</time></trkpt><trkpt lat="44.1006667" lon="12.1975917"><ele>63.0</ele><time>2026-04-25T06:45:15.025Z</time></trkpt><trkpt lat="44.1006017" lon="12.1975883"><ele>63.0</ele><time>2026-04-25T06:45:16.025Z</time></trkpt><trkpt lat="44.100535" lon="12.1975867"><ele>62.714285714285715</ele><time>2026-04-25T06:45:17.024Z</time></trkpt><trkpt lat="44.100465" lon="12.1975933"><ele>62.42857142857143</ele><time>2026-04-25T06:45:18.025Z</time></trkpt><trkpt lat="44.1003967" lon="12.1976"><ele>62.14285714285714</ele><time>2026-04-25T06:45:19.024Z</time></trkpt><trkpt lat="44.1003317" lon="12.1976"><ele>61.857142857142854</ele><time>2026-04-25T06:45:20.025Z</time></trkpt><trkpt lat="44.100265" lon="12.1976083"><ele>61.57142857142857</ele><time>2026-04-25T06:45:21.025Z</time></trkpt><trkpt lat="44.1001983" lon="12.19761"><ele>61.28571428571428</ele><time>2026-04-25T06:45:22.025Z</time></trkpt><trkpt lat="44.100135" lon="12.19761"><ele>60.99999999999999</ele><time>2026-04-25T06:45:23.024Z</time></trkpt><trkpt lat="44.1000683" lon="12.1976117"><ele>60.99999999999999</ele><time>2026-04-25T06:45:24.025Z</time></trkpt><trkpt lat="44.0999983" lon="12.1976133"><ele>61.0</ele><time>2026-04-25T06:45:25.025Z</time></trkpt><trkpt lat="44.0999317" lon="12.1976183"><ele>60.99999999999999</ele><time>2026-04-25T06:45:26.024Z</time></trkpt><trkpt lat="44.099865" lon="12.19762"><ele>60.99999999999999</ele><time>2026-04-25T06:45:27.024Z</time></trkpt><trkpt lat="44.0998" lon="12.19762"><ele>61.0</ele><time>2026-04-25T06:45:28.025Z</time></trkpt><trkpt lat="44.099735" lon="12.197625"><ele>60.99999999999999</ele><time>2026-04-25T06:45:29.025Z</time></trkpt><trkpt lat="44.0996667" lon="12.1976233"><ele>60.99999999999999</ele><time>2026-04-25T06:45:30.025Z</time></trkpt><trkpt lat="44.0995983" lon="12.1976217"><ele>60.99999999999999</ele><time>2026-04-25T06:45:31.025Z</time></trkpt><trkpt lat="44.0995333" lon="12.1976233"><ele>61.0</ele><time>2026-04-25T06:45:32.024Z</time></trkpt><trkpt lat="44.0994683" lon="12.1976283"><ele>60.99999999999999</ele><time>2026-04-25T06:45:33.024Z</time></trkpt><trkpt lat="44.099405" lon="12.1976317"><ele>60.99999999999999</ele><time>2026-04-25T06:45:34.024Z</time></trkpt><trkpt lat="44.099335" lon="12.19763"><ele>61.0</ele><time>2026-04-25T06:45:35.025Z</time></trkpt><trkpt lat="44.0992667" lon="12.1976283"><ele>60.99999999999999</ele><time>2026-04-25T06:45:36.024Z</time></trkpt><trkpt lat="44.0992017" lon="12.1976333"><ele>60.99999999999999</ele><time>2026-04-25T06:45:37.024Z</time></trkpt><trkpt lat="44.0991367" lon="12.1976367"><ele>60.83333333333333</ele><time>2026-04-25T06:45:38.025Z</time></trkpt><trkpt lat="44.09907" lon="12.19764"><ele>60.666666666666664</ele><time>2026-04-25T06:45:39.024Z</time></trkpt><trkpt lat="44.0990067" lon="12.1976417"><ele>60.5</ele><time>2026-04-25T06:45:40.024Z</time></trkpt><trkpt lat="44.09894" lon="12.19764"><ele>60.33333333333333</ele><time>2026-04-25T06:45:41.025Z</time></trkpt><trkpt lat="44.0988733" lon="12.1976333"><ele>60.166666666666664</ele><time>2026-04-25T06:45:42.024Z</time></trkpt><trkpt lat="44.098805" lon="12.19763"><ele>60.0</ele><time>2026-04-25T06:45:43.025Z</time></trkpt><trkpt lat="44.09868" lon="12.1976167"><ele>60.0</ele><time>2026-04-25T06:45:45.025Z</time></trkpt><trkpt lat="44.098615" lon="12.1976117"><ele>60.0</ele><time>2026-04-25T06:45:46.025Z</time></trkpt><trkpt lat="44.0985517" lon="12.197605"><ele>60.0</ele><time>2026-04-25T06:45:47.024Z</time></trkpt><trkpt lat="44.0984883" lon="12.197595"><ele>60.0</ele><time>2026-04-25T06:45:48.025Z</time></trkpt><trkpt lat="44.0984217" lon="12.197585"><ele>60.0</ele><time>2026-04-25T06:45:49.025Z</time></trkpt><trkpt lat="44.0983533" lon="12.1975717"><ele>60.0</ele><time>2026-04-25T06:45:50.025Z</time></trkpt><trkpt lat="44.09829" lon="12.1975567"><ele>60.0</ele><time>2026-04-25T06:45:51.024Z</time></trkpt><trkpt lat="44.098225" lon="12.1975417"><ele>60.28571428571429</ele><time>2026-04-25T06:45:52.024Z</time></trkpt><trkpt lat="44.0981583" lon="12.1975183"><ele>60.57142857142857</ele><time>2026-04-25T06:45:53.024Z</time></trkpt><trkpt lat="44.098095" lon="12.1974917"><ele>60.85714285714286</ele><time>2026-04-25T06:45:54.025Z</time></trkpt><trkpt lat="44.0980317" lon="12.19747"><ele>61.142857142857146</ele><time>2026-04-25T06:45:55.024Z</time></trkpt><trkpt lat="44.09797" lon="12.1974383"><ele>61.42857142857143</ele><time>2026-04-25T06:45:56.025Z</time></trkpt><trkpt lat="44.0979067" lon="12.19741"><ele>61.714285714285715</ele><time>2026-04-25T06:45:57.025Z</time></trkpt><trkpt lat="44.0978433" lon="12.1973883"><ele>62.0</ele><time>2026-04-25T06:45:58.025Z</time></trkpt><trkpt lat="44.0977833" lon="12.19736"><ele>62.16666666666667</ele><time>2026-04-25T06:45:59.024Z</time></trkpt><trkpt lat="44.09772" lon="12.1973283"><ele>62.333333333333336</ele><time>2026-04-25T06:46:00.025Z</time></trkpt><trkpt lat="44.09761" lon="12.1972667"><ele>62.5</ele><time>2026-04-25T06:46:02.025Z</time></trkpt><trkpt lat="44.0975467" lon="12.197235"><ele>62.66666666666667</ele><time>2026-04-25T06:46:03.024Z</time></trkpt><trkpt lat="44.0974233" lon="12.1971817"><ele>62.833333333333336</ele><time>2026-04-25T06:46:05.025Z</time></trkpt><trkpt lat="44.097365" lon="12.197145"><ele>63.0</ele><time>2026-04-25T06:46:06.024Z</time></trkpt><trkpt lat="44.097305" lon="12.197115"><ele>62.599999999999994</ele><time>2026-04-25T06:46:07.024Z</time></trkpt><trkpt lat="44.097185" lon="12.19706"><ele>62.199999999999996</ele><time>2026-04-25T06:46:09.025Z</time></trkpt><trkpt lat="44.0971267" lon="12.197025"><ele>61.8</ele><time>2026-04-25T06:46:10.025Z</time></trkpt><trkpt lat="44.097065" lon="12.1969917"><ele>61.4</ele><time>2026-04-25T06:46:11.026Z</time></trkpt><trkpt lat="44.0969467" lon="12.1969183"><ele>61.0</ele><time>2026-04-25T06:46:13.025Z</time></trkpt><trkpt lat="44.0968867" lon="12.1968717"><ele>61.0</ele><time>2026-04-25T06:46:14.026Z</time></trkpt><trkpt lat="44.096825" lon="12.1968283"><ele>60.99999999999999</ele><time>2026-04-25T06:46:15.025Z</time></trkpt><trkpt lat="44.096765" lon="12.1967883"><ele>60.99999999999999</ele><time>2026-04-25T06:46:16.025Z</time></trkpt><trkpt lat="44.09665" lon="12.19671"><ele>61.0</ele><time>2026-04-25T06:46:18.025Z</time></trkpt><trkpt lat="44.0965367" lon="12.1966317"><ele>61.0</ele><time>2026-04-25T06:46:20.025Z</time></trkpt><trkpt lat="44.09648" lon="12.1965883"><ele>61.0</ele><time>2026-04-25T06:46:21.026Z</time></trkpt><trkpt lat="44.0963717" lon="12.1965117"><ele>60.99999999999999</ele><time>2026-04-25T06:46:23.025Z</time></trkpt><trkpt lat="44.096265" lon="12.1964217"><ele>60.99999999999999</ele><time>2026-04-25T06:46:25.025Z</time></trkpt><trkpt lat="44.09621" lon="12.1963717"><ele>61.0</ele><time>2026-04-25T06:46:26.026Z</time></trkpt><trkpt lat="44.0961083" lon="12.19627"><ele>61.0</ele><time>2026-04-25T06:46:28.025Z</time></trkpt><trkpt lat="44.0960067" lon="12.196165"><ele>61.166666666666664</ele><time>2026-04-25T06:46:30.026Z</time></trkpt><trkpt lat="44.095955" lon="12.1961083"><ele>61.33333333333333</ele><time>2026-04-25T06:46:31.026Z</time></trkpt><trkpt lat="44.095905" lon="12.19605"><ele>61.5</ele><time>2026-04-25T06:46:32.026Z</time></trkpt><trkpt lat="44.0958133" lon="12.1959367"><ele>61.66666666666667</ele><time>2026-04-25T06:46:34.025Z</time></trkpt><trkpt lat="44.0957683" lon="12.1958717"><ele>61.833333333333336</ele><time>2026-04-25T06:46:35.026Z</time></trkpt><trkpt lat="44.0956817" lon="12.195745"><ele>62.0</ele><time>2026-04-25T06:46:37.025Z</time></trkpt><trkpt lat="44.0956367" lon="12.19568"><ele>62.42857142857143</ele><time>2026-04-25T06:46:38.026Z</time></trkpt><trkpt lat="44.0955917" lon="12.1956117"><ele>62.85714285714286</ele><time>2026-04-25T06:46:39.026Z</time></trkpt><trkpt lat="44.0955483" lon="12.195545"><ele>63.28571428571429</ele><time>2026-04-25T06:46:40.025Z</time></trkpt><trkpt lat="44.0955067" lon="12.195475"><ele>63.71428571428572</ele><time>2026-04-25T06:46:41.026Z</time></trkpt><trkpt lat="44.0954633" lon="12.1954083"><ele>64.14285714285714</ele><time>2026-04-25T06:46:42.026Z</time></trkpt><trkpt lat="44.0954183" lon="12.1953417"><ele>64.57142857142858</ele><time>2026-04-25T06:46:43.026Z</time></trkpt><trkpt lat="44.095375" lon="12.1952733"><ele>65.0</ele><time>2026-04-25T06:46:44.026Z</time></trkpt><trkpt lat="44.0953317" lon="12.1952033"><ele>65.00000000000001</ele><time>2026-04-25T06:46:45.025Z</time></trkpt><trkpt lat="44.0952833" lon="12.1951383"><ele>65.0</ele><time>2026-04-25T06:46:46.026Z</time></trkpt><trkpt lat="44.095235" lon="12.195075"><ele>65.0</ele><time>2026-04-25T06:46:47.026Z</time></trkpt><trkpt lat="44.09519" lon="12.1950083"><ele>65.0</ele><time>2026-04-25T06:46:48.026Z</time></trkpt><trkpt lat="44.095145" lon="12.1949417"><ele>65.0</ele><time>2026-04-25T06:46:49.026Z</time></trkpt><trkpt lat="44.0950967" lon="12.1948783"><ele>65.00000000000001</ele><time>2026-04-25T06:46:50.026Z</time></trkpt><trkpt lat="44.095015" lon="12.19477"><ele>65.0</ele><time>2026-04-25T06:46:52.025Z</time></trkpt><trkpt lat="44.0949283" lon="12.19467"><ele>65.75</ele><time>2026-04-25T06:46:54.025Z</time></trkpt><trkpt lat="44.09484" lon="12.1945683"><ele>66.5</ele><time>2026-04-25T06:46:56.026Z</time></trkpt><trkpt lat="44.0947617" lon="12.1944683"><ele>67.25</ele><time>2026-04-25T06:46:58.025Z</time></trkpt><trkpt lat="44.0946733" lon="12.194365"><ele>68.0</ele><time>2026-04-25T06:47:00.026Z</time></trkpt><trkpt lat="44.0945767" lon="12.1942633"><ele>68.0</ele><time>2026-04-25T06:47:02.025Z</time></trkpt><trkpt lat="44.0944833" lon="12.1941583"><ele>68.0</ele><time>2026-04-25T06:47:04.026Z</time></trkpt><trkpt lat="44.09439" lon="12.19405"><ele>68.0</ele><time>2026-04-25T06:47:06.026Z</time></trkpt><trkpt lat="44.0942817" lon="12.193955"><ele>68.0</ele><time>2026-04-25T06:47:08.026Z</time></trkpt><trkpt lat="44.0942233" lon="12.1939167"><ele>68.0</ele><time>2026-04-25T06:47:09.026Z</time></trkpt><trkpt lat="44.094165" lon="12.1938817"><ele>68.0</ele><time>2026-04-25T06:47:10.026Z</time></trkpt><trkpt lat="44.0940533" lon="12.1938117"><ele>68.0</ele><time>2026-04-25T06:47:12.026Z</time></trkpt><trkpt lat="44.0939467" lon="12.193755"><ele>68.0</ele><time>2026-04-25T06:47:14.026Z</time></trkpt><trkpt lat="44.0938333" lon="12.1937"><ele>68.0</ele><time>2026-04-25T06:47:16.026Z</time></trkpt><trkpt lat="44.09372" lon="12.1936467"><ele>68.0</ele><time>2026-04-25T06:47:18.026Z</time></trkpt><trkpt lat="44.0936583" lon="12.19361"><ele>68.0</ele><time>2026-04-25T06:47:19.026Z</time></trkpt><trkpt lat="44.0935983" lon="12.1935833"><ele>68.0</ele><time>2026-04-25T06:47:20.026Z</time></trkpt><trkpt lat="44.0934817" lon="12.1935117"><ele>68.0</ele><time>2026-04-25T06:47:22.025Z</time></trkpt><trkpt lat="44.0933733" lon="12.1934483"><ele>68.0</ele><time>2026-04-25T06:47:24.025Z</time></trkpt><trkpt lat="44.0932683" lon="12.193385"><ele>68.2</ele><time>2026-04-25T06:47:26.026Z</time></trkpt><trkpt lat="44.0931617" lon="12.1933233"><ele>68.4</ele><time>2026-04-25T06:47:28.026Z</time></trkpt><trkpt lat="44.0930617" lon="12.1932617"><ele>68.60000000000001</ele><time>2026-04-25T06:47:30.026Z</time></trkpt><trkpt lat="44.092955" lon="12.193205"><ele>68.8</ele><time>2026-04-25T06:47:32.025Z</time></trkpt><trkpt lat="44.0928533" lon="12.1931483"><ele>69.0</ele><time>2026-04-25T06:47:34.026Z</time></trkpt><trkpt lat="44.0927533" lon="12.193085"><ele>69.4</ele><time>2026-04-25T06:47:36.026Z</time></trkpt><trkpt lat="44.0926567" lon="12.193025"><ele>69.80000000000001</ele><time>2026-04-25T06:47:38.025Z</time></trkpt><trkpt lat="44.0925467" lon="12.1929633"><ele>70.19999999999999</ele><time>2026-04-25T06:47:40.026Z</time></trkpt><trkpt lat="44.09245" lon="12.1929"><ele>70.6</ele><time>2026-04-25T06:47:42.025Z</time></trkpt><trkpt lat="44.0923483" lon="12.1928583"><ele>71.0</ele><time>2026-04-25T06:47:44.026Z</time></trkpt><trkpt lat="44.0922483" lon="12.192805"><ele>71.0</ele><time>2026-04-25T06:47:46.025Z</time></trkpt><trkpt lat="44.0921483" lon="12.1927533"><ele>71.0</ele><time>2026-04-25T06:47:48.026Z</time></trkpt><trkpt lat="44.09204" lon="12.19269"><ele>71.0</ele><time>2026-04-25T06:47:50.025Z</time></trkpt><trkpt lat="44.091935" lon="12.192625"><ele>71.0</ele><time>2026-04-25T06:47:52.026Z</time></trkpt><trkpt lat="44.0918383" lon="12.192565"><ele>71.0</ele><time>2026-04-25T06:47:54.025Z</time></trkpt><trkpt lat="44.09174" lon="12.192515"><ele>71.0</ele><time>2026-04-25T06:47:56.026Z</time></trkpt><trkpt lat="44.0916367" lon="12.19246"><ele>71.0</ele><time>2026-04-25T06:47:58.026Z</time></trkpt><trkpt lat="44.0915283" lon="12.192415"><ele>71.0</ele><time>2026-04-25T06:48:00.026Z</time></trkpt><trkpt lat="44.0914217" lon="12.1923667"><ele>71.0</ele><time>2026-04-25T06:48:02.026Z</time></trkpt><trkpt lat="44.0913" lon="12.192325"><ele>70.57142857142857</ele><time>2026-04-25T06:48:04.025Z</time></trkpt><trkpt lat="44.0912383" lon="12.192295"><ele>70.14285714285714</ele><time>2026-04-25T06:48:05.026Z</time></trkpt><trkpt lat="44.0911733" lon="12.1922733"><ele>69.71428571428571</ele><time>2026-04-25T06:48:06.026Z</time></trkpt><trkpt lat="44.09111" lon="12.1922467"><ele>69.28571428571428</ele><time>2026-04-25T06:48:07.025Z</time></trkpt><trkpt lat="44.091035" lon="12.1922317"><ele>68.85714285714286</ele><time>2026-04-25T06:48:08.026Z</time></trkpt><trkpt lat="44.0909583" lon="12.1922167"><ele>68.42857142857142</ele><time>2026-04-25T06:48:09.026Z</time></trkpt><trkpt lat="44.0908833" lon="12.1922117"><ele>68.0</ele><time>2026-04-25T06:48:10.026Z</time></trkpt><trkpt lat="44.090815" lon="12.1922133"><ele>68.57142857142857</ele><time>2026-04-25T06:48:11.026Z</time></trkpt><trkpt lat="44.090745" lon="12.1922167"><ele>69.14285714285714</ele><time>2026-04-25T06:48:12.025Z</time></trkpt><trkpt lat="44.0906783" lon="12.19223"><ele>69.71428571428572</ele><time>2026-04-25T06:48:13.025Z</time></trkpt><trkpt lat="44.09061" lon="12.19224"><ele>70.28571428571428</ele><time>2026-04-25T06:48:14.026Z</time></trkpt><trkpt lat="44.09054" lon="12.1922467"><ele>70.85714285714286</ele><time>2026-04-25T06:48:15.026Z</time></trkpt><trkpt lat="44.0904717" lon="12.19225"><ele>71.42857142857143</ele><time>2026-04-25T06:48:16.026Z</time></trkpt><trkpt lat="44.0904083" lon="12.19226"><ele>72.0</ele><time>2026-04-25T06:48:17.026Z</time></trkpt><trkpt lat="44.090345" lon="12.1922683"><ele>72.0</ele><time>2026-04-25T06:48:18.025Z</time></trkpt><trkpt lat="44.090225" lon="12.19227"><ele>72.0</ele><time>2026-04-25T06:48:20.026Z</time></trkpt><trkpt lat="44.09011" lon="12.1922783"><ele>72.0</ele><time>2026-04-25T06:48:22.026Z</time></trkpt><trkpt lat="44.09" lon="12.192295"><ele>72.0</ele><time>2026-04-25T06:48:24.025Z</time></trkpt><trkpt lat="44.0898767" lon="12.192315"><ele>72.4</ele><time>2026-04-25T06:48:26.026Z</time></trkpt><trkpt lat="44.0898117" lon="12.1923133"><ele>72.80000000000001</ele><time>2026-04-25T06:48:27.026Z</time></trkpt><trkpt lat="44.0896983" lon="12.1923167"><ele>73.2</ele><time>2026-04-25T06:48:29.025Z</time></trkpt><trkpt lat="44.0895767" lon="12.1923317"><ele>73.60000000000001</ele><time>2026-04-25T06:48:31.026Z</time></trkpt><trkpt lat="44.0894633" lon="12.1923383"><ele>74.0</ele><time>2026-04-25T06:48:33.026Z</time></trkpt><trkpt lat="44.0893467" lon="12.192335"><ele>74.0</ele><time>2026-04-25T06:48:35.025Z</time></trkpt><trkpt lat="44.0892317" lon="12.19233"><ele>74.0</ele><time>2026-04-25T06:48:37.026Z</time></trkpt><trkpt lat="44.089115" lon="12.1923117"><ele>74.0</ele><time>2026-04-25T06:48:39.026Z</time></trkpt><trkpt lat="44.0890017" lon="12.1922783"><ele>74.0</ele><time>2026-04-25T06:48:41.026Z</time></trkpt><trkpt lat="44.08889" lon="12.1922433"><ele>74.2</ele><time>2026-04-25T06:48:43.025Z</time></trkpt><trkpt lat="44.0887933" lon="12.192185"><ele>74.4</ele><time>2026-04-25T06:48:45.026Z</time></trkpt><trkpt lat="44.088695" lon="12.192145"><ele>74.6</ele><time>2026-04-25T06:48:47.026Z</time></trkpt><trkpt lat="44.0886333" lon="12.192125"><ele>74.8</ele><time>2026-04-25T06:48:48.025Z</time></trkpt><trkpt lat="44.0885167" lon="12.1920783"><ele>75.0</ele><time>2026-04-25T06:48:50.026Z</time></trkpt><trkpt lat="44.0883983" lon="12.192035"><ele>75.0</ele><time>2026-04-25T06:48:52.025Z</time></trkpt><trkpt lat="44.0882867" lon="12.1920067"><ele>75.0</ele><time>2026-04-25T06:48:54.026Z</time></trkpt><trkpt lat="44.0881717" lon="12.191965"><ele>75.0</ele><time>2026-04-25T06:48:56.025Z</time></trkpt><trkpt lat="44.0880617" lon="12.1919"><ele>75.0</ele><time>2026-04-25T06:48:58.026Z</time></trkpt><trkpt lat="44.0880033" lon="12.191865"><ele>75.0</ele><time>2026-04-25T06:48:59.026Z</time></trkpt><trkpt lat="44.0879433" lon="12.1918367"><ele>74.6</ele><time>2026-04-25T06:49:00.026Z</time></trkpt><trkpt lat="44.0878817" lon="12.1917983"><ele>74.2</ele><time>2026-04-25T06:49:01.025Z</time></trkpt><trkpt lat="44.0877717" lon="12.1917233"><ele>73.8</ele><time>2026-04-25T06:49:03.026Z</time></trkpt><trkpt lat="44.0876583" lon="12.1916367"><ele>73.4</ele><time>2026-04-25T06:49:05.026Z</time></trkpt><trkpt lat="44.0876017" lon="12.1915867"><ele>73.0</ele><time>2026-04-25T06:49:06.026Z</time></trkpt><trkpt lat="44.08755" lon="12.1915333"><ele>73.4</ele><time>2026-04-25T06:49:07.026Z</time></trkpt><trkpt lat="44.0874483" lon="12.191445"><ele>73.8</ele><time>2026-04-25T06:49:09.025Z</time></trkpt><trkpt lat="44.0873883" lon="12.19141"><ele>74.2</ele><time>2026-04-25T06:49:10.025Z</time></trkpt><trkpt lat="44.0872933" lon="12.191315"><ele>74.6</ele><time>2026-04-25T06:49:12.026Z</time></trkpt><trkpt lat="44.087185" lon="12.1912317"><ele>75.0</ele><time>2026-04-25T06:49:14.026Z</time></trkpt><trkpt lat="44.0871283" lon="12.1911933"><ele>75.0</ele><time>2026-04-25T06:49:15.026Z</time></trkpt><trkpt lat="44.0870767" lon="12.19114"><ele>75.0</ele><time>2026-04-25T06:49:16.026Z</time></trkpt><trkpt lat="44.0869733" lon="12.1910533"><ele>75.0</ele><time>2026-04-25T06:49:18.026Z</time></trkpt><trkpt lat="44.0868667" lon="12.190965"><ele>75.0</ele><time>2026-04-25T06:49:20.026Z</time></trkpt><trkpt lat="44.0868133" lon="12.1909183"><ele>75.0</ele><time>2026-04-25T06:49:21.026Z</time></trkpt><trkpt lat="44.0867117" lon="12.19083"><ele>75.0</ele><time>2026-04-25T06:49:23.026Z</time></trkpt><trkpt lat="44.08662" lon="12.1907317"><ele>75.0</ele><time>2026-04-25T06:49:25.026Z</time></trkpt><trkpt lat="44.0865267" lon="12.1906317"><ele>75.0</ele><time>2026-04-25T06:49:27.025Z</time></trkpt><trkpt lat="44.0864383" lon="12.1905233"><ele>75.0</ele><time>2026-04-25T06:49:29.026Z</time></trkpt><trkpt lat="44.0863533" lon="12.1904117"><ele>75.25</ele><time>2026-04-25T06:49:31.025Z</time></trkpt><trkpt lat="44.0862683" lon="12.1903183"><ele>75.5</ele><time>2026-04-25T06:49:33.026Z</time></trkpt><trkpt lat="44.0861717" lon="12.19022"><ele>75.75</ele><time>2026-04-25T06:49:35.026Z</time></trkpt><trkpt lat="44.0860733" lon="12.190135"><ele>76.0</ele><time>2026-04-25T06:49:37.025Z</time></trkpt><trkpt lat="44.085975" lon="12.19005"><ele>76.0</ele><time>2026-04-25T06:49:39.025Z</time></trkpt><trkpt lat="44.0858767" lon="12.1899667"><ele>76.0</ele><time>2026-04-25T06:49:41.026Z</time></trkpt><trkpt lat="44.0857783" lon="12.1898967"><ele>76.0</ele><time>2026-04-25T06:49:43.025Z</time></trkpt><trkpt lat="44.0856667" lon="12.1898417"><ele>76.0</ele><time>2026-04-25T06:49:45.025Z</time></trkpt><trkpt lat="44.0855617" lon="12.1897917"><ele>76.5</ele><time>2026-04-25T06:49:47.025Z</time></trkpt><trkpt lat="44.0854533" lon="12.189735"><ele>77.0</ele><time>2026-04-25T06:49:49.025Z</time></trkpt><trkpt lat="44.0853417" lon="12.189675"><ele>77.5</ele><time>2026-04-25T06:49:51.026Z</time></trkpt><trkpt lat="44.0852333" lon="12.1896217"><ele>78.0</ele><time>2026-04-25T06:49:53.026Z</time></trkpt><trkpt lat="44.0851267" lon="12.1895683"><ele>78.0</ele><time>2026-04-25T06:49:55.025Z</time></trkpt><trkpt lat="44.0850217" lon="12.1895233"><ele>78.0</ele><time>2026-04-25T06:49:57.026Z</time></trkpt><trkpt lat="44.08491" lon="12.1894733"><ele>78.0</ele><time>2026-04-25T06:49:59.025Z</time></trkpt><trkpt lat="44.0847983" lon="12.1894333"><ele>78.0</ele><time>2026-04-25T06:50:01.025Z</time></trkpt><trkpt lat="44.08469" lon="12.189395"><ele>77.75</ele><time>2026-04-25T06:50:03.025Z</time></trkpt><trkpt lat="44.084585" lon="12.18936"><ele>77.5</ele><time>2026-04-25T06:50:05.026Z</time></trkpt><trkpt lat="44.084475" lon="12.1893317"><ele>77.25</ele><time>2026-04-25T06:50:07.026Z</time></trkpt><trkpt lat="44.0843617" lon="12.1893117"><ele>77.0</ele><time>2026-04-25T06:50:09.026Z</time></trkpt><trkpt lat="44.0842467" lon="12.1892883"><ele>77.0</ele><time>2026-04-25T06:50:11.026Z</time></trkpt><trkpt lat="44.0841233" lon="12.1892617"><ele>77.0</ele><time>2026-04-25T06:50:13.026Z</time></trkpt><trkpt lat="44.0840083" lon="12.1892283"><ele>77.0</ele><time>2026-04-25T06:50:15.025Z</time></trkpt><trkpt lat="44.0838883" lon="12.1891933"><ele>77.0</ele><time>2026-04-25T06:50:17.025Z</time></trkpt><trkpt lat="44.0838267" lon="12.1891633"><ele>77.0</ele><time>2026-04-25T06:50:18.026Z</time></trkpt><trkpt lat="44.0837633" lon="12.1891317"><ele>77.0</ele><time>2026-04-25T06:50:19.025Z</time></trkpt><trkpt lat="44.0836383" lon="12.1890783"><ele>77.0</ele><time>2026-04-25T06:50:21.026Z</time></trkpt><trkpt lat="44.0835733" lon="12.1890517"><ele>77.0</ele><time>2026-04-25T06:50:22.025Z</time></trkpt><trkpt lat="44.083505" lon="12.1890183"><ele>77.0</ele><time>2026-04-25T06:50:23.026Z</time></trkpt><trkpt lat="44.0834317" lon="12.1889967"><ele>77.0</ele><time>2026-04-25T06:50:24.025Z</time></trkpt><trkpt lat="44.0833617" lon="12.18897"><ele>77.0</ele><time>2026-04-25T06:50:25.025Z</time></trkpt><trkpt lat="44.0832883" lon="12.188945"><ele>75.33333333333334</ele><time>2026-04-25T06:50:26.026Z</time></trkpt><trkpt lat="44.0832183" lon="12.18891"><ele>73.66666666666667</ele><time>2026-04-25T06:50:27.026Z</time></trkpt><trkpt lat="44.0831433" lon="12.18889"><ele>72.0</ele><time>2026-04-25T06:50:28.026Z</time></trkpt><trkpt lat="44.083065" lon="12.1888667"><ele>70.33333333333333</ele><time>2026-04-25T06:50:29.026Z</time></trkpt><trkpt lat="44.0829933" lon="12.1888567"><ele>68.66666666666666</ele><time>2026-04-25T06:50:30.026Z</time></trkpt><trkpt lat="44.082905" lon="12.18886"><ele>67.0</ele><time>2026-04-25T06:50:31.025Z</time></trkpt><trkpt lat="44.08282" lon="12.18887"><ele>67.0</ele><time>2026-04-25T06:50:32.026Z</time></trkpt><trkpt lat="44.0827433" lon="12.188855"><ele>67.0</ele><time>2026-04-25T06:50:33.025Z</time></trkpt><trkpt lat="44.0826517" lon="12.1888767"><ele>67.0</ele><time>2026-04-25T06:50:34.025Z</time></trkpt><trkpt lat="44.0825533" lon="12.188895"><ele>67.0</ele><time>2026-04-25T06:50:35.026Z</time></trkpt><trkpt lat="44.0824583" lon="12.1889083"><ele>67.0</ele><time>2026-04-25T06:50:36.026Z</time></trkpt><trkpt lat="44.0823633" lon="12.188915"><ele>67.6</ele><time>2026-04-25T06:50:37.026Z</time></trkpt><trkpt lat="44.0822667" lon="12.1889217"><ele>68.2</ele><time>2026-04-25T06:50:38.025Z</time></trkpt><trkpt lat="44.0821717" lon="12.188915"><ele>68.8</ele><time>2026-04-25T06:50:39.026Z</time></trkpt><trkpt lat="44.0820783" lon="12.1888933"><ele>69.4</ele><time>2026-04-25T06:50:40.025Z</time></trkpt><trkpt lat="44.0819883" lon="12.1888817"><ele>70.0</ele><time>2026-04-25T06:50:41.026Z</time></trkpt><trkpt lat="44.0819017" lon="12.1888617"><ele>70.0</ele><time>2026-04-25T06:50:42.026Z</time></trkpt><trkpt lat="44.0818233" lon="12.1888183"><ele>70.0</ele><time>2026-04-25T06:50:43.025Z</time></trkpt><trkpt lat="44.08174" lon="12.1887783"><ele>70.0</ele><time>2026-04-25T06:50:44.026Z</time></trkpt><trkpt lat="44.0816633" lon="12.18874"><ele>70.0</ele><time>2026-04-25T06:50:45.026Z</time></trkpt><trkpt lat="44.081585" lon="12.1887"><ele>70.0</ele><time>2026-04-25T06:50:46.026Z</time></trkpt><trkpt lat="44.0815083" lon="12.1886783"><ele>70.0</ele><time>2026-04-25T06:50:47.026Z</time></trkpt><trkpt lat="44.08143" lon="12.1886667"><ele>71.28571428571429</ele><time>2026-04-25T06:50:48.026Z</time></trkpt><trkpt lat="44.0813583" lon="12.1886683"><ele>72.57142857142857</ele><time>2026-04-25T06:50:49.026Z</time></trkpt><trkpt lat="44.0812867" lon="12.188665"><ele>73.85714285714286</ele><time>2026-04-25T06:50:50.026Z</time></trkpt><trkpt lat="44.081215" lon="12.1886817"><ele>75.14285714285714</ele><time>2026-04-25T06:50:51.026Z</time></trkpt><trkpt lat="44.081145" lon="12.188715"><ele>76.42857142857143</ele><time>2026-04-25T06:50:52.025Z</time></trkpt><trkpt lat="44.0810783" lon="12.188735"><ele>77.71428571428572</ele><time>2026-04-25T06:50:53.026Z</time></trkpt><trkpt lat="44.0810133" lon="12.1887633"><ele>79.0</ele><time>2026-04-25T06:50:54.026Z</time></trkpt><trkpt lat="44.0809517" lon="12.1887867"><ele>79.0</ele><time>2026-04-25T06:50:55.026Z</time></trkpt><trkpt lat="44.0808283" lon="12.1888317"><ele>79.0</ele><time>2026-04-25T06:50:57.026Z</time></trkpt><trkpt lat="44.0807117" lon="12.18888"><ele>79.0</ele><time>2026-04-25T06:50:59.025Z</time></trkpt><trkpt lat="44.0805983" lon="12.188905"><ele>79.0</ele><time>2026-04-25T06:51:01.026Z</time></trkpt><trkpt lat="44.080535" lon="12.1889233"><ele>79.0</ele><time>2026-04-25T06:51:02.026Z</time></trkpt><trkpt lat="44.0804233" lon="12.1889467"><ele>79.5</ele><time>2026-04-25T06:51:04.026Z</time></trkpt><trkpt lat="44.0803133" lon="12.1889683"><ele>80.0</ele><time>2026-04-25T06:51:06.025Z</time></trkpt><trkpt lat="44.080205" lon="12.1889983"><ele>80.5</ele><time>2026-04-25T06:51:08.026Z</time></trkpt><trkpt lat="44.0800917" lon="12.1890167"><ele>81.0</ele><time>2026-04-25T06:51:10.026Z</time></trkpt><trkpt lat="44.0799733" lon="12.1890333"><ele>81.0</ele><time>2026-04-25T06:51:12.026Z</time></trkpt><trkpt lat="44.0798533" lon="12.1890383"><ele>81.0</ele><time>2026-04-25T06:51:14.026Z</time></trkpt><trkpt lat="44.079735" lon="12.189035"><ele>81.0</ele><time>2026-04-25T06:51:16.026Z</time></trkpt><trkpt lat="44.0796217" lon="12.1890283"><ele>81.0</ele><time>2026-04-25T06:51:18.026Z</time></trkpt><trkpt lat="44.079515" lon="12.1889917"><ele>81.0</ele><time>2026-04-25T06:51:20.025Z</time></trkpt><trkpt lat="44.0794083" lon="12.1889533"><ele>81.0</ele><time>2026-04-25T06:51:22.026Z</time></trkpt><trkpt lat="44.0792983" lon="12.1889033"><ele>81.0</ele><time>2026-04-25T06:51:24.026Z</time></trkpt><trkpt lat="44.079195" lon="12.1888433"><ele>81.0</ele><time>2026-04-25T06:51:26.026Z</time></trkpt><trkpt lat="44.0790967" lon="12.18877"><ele>81.0</ele><time>2026-04-25T06:51:28.026Z</time></trkpt><trkpt lat="44.0789883" lon="12.1887017"><ele>80.2</ele><time>2026-04-25T06:51:30.026Z</time></trkpt><trkpt lat="44.0788817" lon="12.188635"><ele>79.39999999999999</ele><time>2026-04-25T06:51:32.026Z</time></trkpt><trkpt lat="44.07877" lon="12.1885683"><ele>78.6</ele><time>2026-04-25T06:51:34.026Z</time></trkpt><trkpt lat="44.0786567" lon="12.1885067"><ele>77.8</ele><time>2026-04-25T06:51:36.026Z</time></trkpt><trkpt lat="44.0785983" lon="12.1884717"><ele>77.0</ele><time>2026-04-25T06:51:37.025Z</time></trkpt><trkpt lat="44.07849" lon="12.1884"><ele>77.0</ele><time>2026-04-25T06:51:39.026Z</time></trkpt><trkpt lat="44.0784317" lon="12.1883633"><ele>77.0</ele><time>2026-04-25T06:51:40.026Z</time></trkpt><trkpt lat="44.0783167" lon="12.1883"><ele>77.0</ele><time>2026-04-25T06:51:42.026Z</time></trkpt><trkpt lat="44.07821" lon="12.1882283"><ele>77.0</ele><time>2026-04-25T06:51:44.026Z</time></trkpt><trkpt lat="44.0781" lon="12.1881617"><ele>77.0</ele><time>2026-04-25T06:51:46.026Z</time></trkpt><trkpt lat="44.0779867" lon="12.1880967"><ele>78.0</ele><time>2026-04-25T06:51:48.025Z</time></trkpt><trkpt lat="44.0778733" lon="12.1880267"><ele>79.0</ele><time>2026-04-25T06:51:50.026Z</time></trkpt><trkpt lat="44.0777633" lon="12.18796"><ele>80.0</ele><time>2026-04-25T06:51:52.026Z</time></trkpt><trkpt lat="44.077705" lon="12.1879267"><ele>81.0</ele><time>2026-04-25T06:51:53.026Z</time></trkpt><trkpt lat="44.0775933" lon="12.1878617"><ele>82.0</ele><time>2026-04-25T06:51:55.026Z</time></trkpt><trkpt lat="44.07748" lon="12.18779"><ele>80.8</ele><time>2026-04-25T06:51:57.026Z</time></trkpt><trkpt lat="44.0773683" lon="12.1877267"><ele>79.6</ele><time>2026-04-25T06:51:59.026Z</time></trkpt><trkpt lat="44.07731" lon="12.1876817"><ele>78.39999999999999</ele><time>2026-04-25T06:52:00.026Z</time></trkpt><trkpt lat="44.0772533" lon="12.1876417"><ele>77.19999999999999</ele><time>2026-04-25T06:52:01.025Z</time></trkpt><trkpt lat="44.07714" lon="12.1875717"><ele>76.0</ele><time>2026-04-25T06:52:03.025Z</time></trkpt><trkpt lat="44.0770317" lon="12.1875017"><ele>76.0</ele><time>2026-04-25T06:52:05.026Z</time></trkpt><trkpt lat="44.0769267" lon="12.18743"><ele>76.0</ele><time>2026-04-25T06:52:07.026Z</time></trkpt><trkpt lat="44.0768267" lon="12.18736"><ele>76.0</ele><time>2026-04-25T06:52:09.026Z</time></trkpt><trkpt lat="44.0767233" lon="12.1872817"><ele>76.0</ele><time>2026-04-25T06:52:11.025Z</time></trkpt><trkpt lat="44.0766233" lon="12.187215"><ele>76.6</ele><time>2026-04-25T06:52:13.026Z</time></trkpt><trkpt lat="44.0765233" lon="12.1871433"><ele>77.19999999999999</ele><time>2026-04-25T06:52:15.025Z</time></trkpt><trkpt lat="44.0764683" lon="12.1871"><ele>77.80000000000001</ele><time>2026-04-25T06:52:16.026Z</time></trkpt><trkpt lat="44.0763667" lon="12.1870333"><ele>78.4</ele><time>2026-04-25T06:52:18.026Z</time></trkpt><trkpt lat="44.0762733" lon="12.18697"><ele>79.0</ele><time>2026-04-25T06:52:20.026Z</time></trkpt><trkpt lat="44.076175" lon="12.18691"><ele>79.0</ele><time>2026-04-25T06:52:22.026Z</time></trkpt><trkpt lat="44.0760767" lon="12.186845"><ele>79.0</ele><time>2026-04-25T06:52:24.026Z</time></trkpt><trkpt lat="44.0759783" lon="12.18678"><ele>79.0</ele><time>2026-04-25T06:52:26.025Z</time></trkpt><trkpt lat="44.0758767" lon="12.186725"><ele>79.0</ele><time>2026-04-25T06:52:28.025Z</time></trkpt><trkpt lat="44.0757733" lon="12.1866633"><ele>79.0</ele><time>2026-04-25T06:52:30.026Z</time></trkpt><trkpt lat="44.0756783" lon="12.186595"><ele>79.6</ele><time>2026-04-25T06:52:32.026Z</time></trkpt><trkpt lat="44.0755783" lon="12.1865317"><ele>80.2</ele><time>2026-04-25T06:52:34.025Z</time></trkpt><trkpt lat="44.07548" lon="12.1864617"><ele>80.8</ele><time>2026-04-25T06:52:36.026Z</time></trkpt><trkpt lat="44.07538" lon="12.1863983"><ele>81.39999999999999</ele><time>2026-04-25T06:52:38.025Z</time></trkpt><trkpt lat="44.075285" lon="12.1863433"><ele>82.0</ele><time>2026-04-25T06:52:40.027Z</time></trkpt><trkpt lat="44.0751883" lon="12.1862867"><ele>81.8</ele><time>2026-04-25T06:52:42.027Z</time></trkpt><trkpt lat="44.0750933" lon="12.1862117"><ele>81.6</ele><time>2026-04-25T06:52:44.027Z</time></trkpt><trkpt lat="44.0749917" lon="12.1861283"><ele>81.39999999999999</ele><time>2026-04-25T06:52:46.027Z</time></trkpt><trkpt lat="44.0749" lon="12.1860517"><ele>81.19999999999999</ele><time>2026-04-25T06:52:48.027Z</time></trkpt><trkpt lat="44.074805" lon="12.1859783"><ele>81.0</ele><time>2026-04-25T06:52:50.027Z</time></trkpt><trkpt lat="44.074705" lon="12.1859117"><ele>81.0</ele><time>2026-04-25T06:52:52.026Z</time></trkpt><trkpt lat="44.0745983" lon="12.1858567"><ele>81.0</ele><time>2026-04-25T06:52:54.026Z</time></trkpt><trkpt lat="44.0745417" lon="12.1858183"><ele>81.0</ele><time>2026-04-25T06:52:55.026Z</time></trkpt><trkpt lat="44.0744317" lon="12.1857517"><ele>81.0</ele><time>2026-04-25T06:52:57.027Z</time></trkpt><trkpt lat="44.0743233" lon="12.18567"><ele>81.0</ele><time>2026-04-25T06:52:59.027Z</time></trkpt><trkpt lat="44.0742683" lon="12.1856183"><ele>82.0</ele><time>2026-04-25T06:53:00.027Z</time></trkpt><trkpt lat="44.0741717" lon="12.18552"><ele>83.0</ele><time>2026-04-25T06:53:02.027Z</time></trkpt><trkpt lat="44.0740667" lon="12.185435"><ele>84.0</ele><time>2026-04-25T06:53:04.026Z</time></trkpt><trkpt lat="44.0739583" lon="12.1853583"><ele>85.0</ele><time>2026-04-25T06:53:06.027Z</time></trkpt><trkpt lat="44.073855" lon="12.1852933"><ele>85.0</ele><time>2026-04-25T06:53:08.026Z</time></trkpt><trkpt lat="44.07376" lon="12.1852467"><ele>85.0</ele><time>2026-04-25T06:53:10.026Z</time></trkpt><trkpt lat="44.073655" lon="12.1852"><ele>85.0</ele><time>2026-04-25T06:53:12.027Z</time></trkpt><trkpt lat="44.0735483" lon="12.1851417"><ele>85.0</ele><time>2026-04-25T06:53:14.026Z</time></trkpt><trkpt lat="44.0734433" lon="12.1850883"><ele>85.0</ele><time>2026-04-25T06:53:16.027Z</time></trkpt><trkpt lat="44.0733383" lon="12.185035"><ele>84.4</ele><time>2026-04-25T06:53:18.027Z</time></trkpt><trkpt lat="44.0732317" lon="12.18498"><ele>83.8</ele><time>2026-04-25T06:53:20.027Z</time></trkpt><trkpt lat="44.0731283" lon="12.1849317"><ele>83.19999999999999</ele><time>2026-04-25T06:53:22.026Z</time></trkpt><trkpt lat="44.07302" lon="12.1848783"><ele>82.6</ele><time>2026-04-25T06:53:24.027Z</time></trkpt><trkpt lat="44.0729167" lon="12.18482"><ele>82.0</ele><time>2026-04-25T06:53:26.027Z</time></trkpt><trkpt lat="44.07281" lon="12.184775"><ele>83.75</ele><time>2026-04-25T06:53:28.026Z</time></trkpt><trkpt lat="44.0727033" lon="12.1847267"><ele>85.5</ele><time>2026-04-25T06:53:30.027Z</time></trkpt><trkpt lat="44.0725967" lon="12.1846717"><ele>87.25</ele><time>2026-04-25T06:53:32.027Z</time></trkpt><trkpt lat="44.072485" lon="12.1846233"><ele>89.0</ele><time>2026-04-25T06:53:34.026Z</time></trkpt><trkpt lat="44.072375" lon="12.1845733"><ele>89.0</ele><time>2026-04-25T06:53:36.027Z</time></trkpt><trkpt lat="44.0722667" lon="12.1845133"><ele>89.0</ele><time>2026-04-25T06:53:38.026Z</time></trkpt><trkpt lat="44.072155" lon="12.1844617"><ele>89.0</ele><time>2026-04-25T06:53:40.027Z</time></trkpt><trkpt lat="44.0720933" lon="12.1844383"><ele>89.0</ele><time>2026-04-25T06:53:41.027Z</time></trkpt><trkpt lat="44.0719767" lon="12.1844067"><ele>89.0</ele><time>2026-04-25T06:53:43.027Z</time></trkpt><trkpt lat="44.07187" lon="12.1843817"><ele>89.0</ele><time>2026-04-25T06:53:45.027Z</time></trkpt><trkpt lat="44.0717617" lon="12.1843483"><ele>89.0</ele><time>2026-04-25T06:53:47.026Z</time></trkpt><trkpt lat="44.071655" lon="12.1843233"><ele>89.0</ele><time>2026-04-25T06:53:49.026Z</time></trkpt><trkpt lat="44.071545" lon="12.1842967"><ele>89.0</ele><time>2026-04-25T06:53:51.027Z</time></trkpt><trkpt lat="44.0714383" lon="12.1842667"><ele>89.0</ele><time>2026-04-25T06:53:53.027Z</time></trkpt><trkpt lat="44.0713367" lon="12.1842417"><ele>88.6</ele><time>2026-04-25T06:53:55.027Z</time></trkpt><trkpt lat="44.0712333" lon="12.1842267"><ele>88.2</ele><time>2026-04-25T06:53:57.027Z</time></trkpt><trkpt lat="44.07113" lon="12.1842067"><ele>87.8</ele><time>2026-04-25T06:53:59.027Z</time></trkpt><trkpt lat="44.07102" lon="12.18419"><ele>87.39999999999999</ele><time>2026-04-25T06:54:01.027Z</time></trkpt><trkpt lat="44.07091" lon="12.18417"><ele>87.0</ele><time>2026-04-25T06:54:03.027Z</time></trkpt><trkpt lat="44.0708033" lon="12.184145"><ele>87.8</ele><time>2026-04-25T06:54:05.027Z</time></trkpt><trkpt lat="44.0707017" lon="12.1841133"><ele>88.6</ele><time>2026-04-25T06:54:07.027Z</time></trkpt><trkpt lat="44.0705983" lon="12.184095"><ele>89.39999999999999</ele><time>2026-04-25T06:54:09.026Z</time></trkpt><trkpt lat="44.070495" lon="12.1840733"><ele>90.19999999999999</ele><time>2026-04-25T06:54:11.027Z</time></trkpt><trkpt lat="44.0703917" lon="12.1840483"><ele>91.0</ele><time>2026-04-25T06:54:13.027Z</time></trkpt><trkpt lat="44.070285" lon="12.1840233"><ele>90.6</ele><time>2026-04-25T06:54:15.027Z</time></trkpt><trkpt lat="44.0701717" lon="12.1840067"><ele>90.19999999999999</ele><time>2026-04-25T06:54:17.026Z</time></trkpt><trkpt lat="44.0700683" lon="12.1839917"><ele>89.80000000000001</ele><time>2026-04-25T06:54:19.026Z</time></trkpt><trkpt lat="44.069965" lon="12.1839667"><ele>89.4</ele><time>2026-04-25T06:54:21.026Z</time></trkpt><trkpt lat="44.06986" lon="12.183945"><ele>89.0</ele><time>2026-04-25T06:54:23.027Z</time></trkpt><trkpt lat="44.0697583" lon="12.1839233"><ele>89.0</ele><time>2026-04-25T06:54:25.027Z</time></trkpt><trkpt lat="44.0696467" lon="12.1839"><ele>89.0</ele><time>2026-04-25T06:54:27.026Z</time></trkpt><trkpt lat="44.0695333" lon="12.18388"><ele>89.0</ele><time>2026-04-25T06:54:29.027Z</time></trkpt><trkpt lat="44.069465" lon="12.18387"><ele>89.0</ele><time>2026-04-25T06:54:30.027Z</time></trkpt><trkpt lat="44.069395" lon="12.18387"><ele>89.0</ele><time>2026-04-25T06:54:31.027Z</time></trkpt><trkpt lat="44.0693217" lon="12.183865"><ele>89.0</ele><time>2026-04-25T06:54:32.027Z</time></trkpt><trkpt lat="44.069245" lon="12.1838767"><ele>89.0</ele><time>2026-04-25T06:54:33.027Z</time></trkpt><trkpt lat="44.0691633" lon="12.1839033"><ele>89.0</ele><time>2026-04-25T06:54:34.026Z</time></trkpt><trkpt lat="44.0690817" lon="12.18394"><ele>89.0</ele><time>2026-04-25T06:54:35.027Z</time></trkpt><trkpt lat="44.069" lon="12.1839833"><ele>89.0</ele><time>2026-04-25T06:54:36.026Z</time></trkpt><trkpt lat="44.0689167" lon="12.1840233"><ele>89.0</ele><time>2026-04-25T06:54:37.027Z</time></trkpt><trkpt lat="44.0688333" lon="12.1840683"><ele>89.0</ele><time>2026-04-25T06:54:38.026Z</time></trkpt><trkpt lat="44.0687533" lon="12.1841117"><ele>88.99999999999999</ele><time>2026-04-25T06:54:39.027Z</time></trkpt><trkpt lat="44.068675" lon="12.1841483"><ele>89.0</ele><time>2026-04-25T06:54:40.026Z</time></trkpt><trkpt lat="44.0685967" lon="12.184175"><ele>89.0</ele><time>2026-04-25T06:54:41.027Z</time></trkpt><trkpt lat="44.0685233" lon="12.1842017"><ele>89.0</ele><time>2026-04-25T06:54:42.027Z</time></trkpt><trkpt lat="44.06846" lon="12.18423"><ele>89.0</ele><time>2026-04-25T06:54:43.027Z</time></trkpt><trkpt lat="44.0683917" lon="12.1842533"><ele>88.99999999999999</ele><time>2026-04-25T06:54:44.026Z</time></trkpt><trkpt lat="44.0683267" lon="12.1842767"><ele>89.0</ele><time>2026-04-25T06:54:45.027Z</time></trkpt><trkpt lat="44.0682583" lon="12.1842833"><ele>89.0</ele><time>2026-04-25T06:54:46.027Z</time></trkpt><trkpt lat="44.06819" lon="12.18428"><ele>89.0</ele><time>2026-04-25T06:54:47.026Z</time></trkpt><trkpt lat="44.0681217" lon="12.1842733"><ele>89.0</ele><time>2026-04-25T06:54:48.026Z</time></trkpt><trkpt lat="44.06806" lon="12.1842517"><ele>89.0</ele><time>2026-04-25T06:54:49.027Z</time></trkpt><trkpt lat="44.06794" lon="12.1842033"><ele>89.0</ele><time>2026-04-25T06:54:51.027Z</time></trkpt><trkpt lat="44.0678783" lon="12.18416"><ele>89.0</ele><time>2026-04-25T06:54:52.027Z</time></trkpt><trkpt lat="44.0678133" lon="12.1841183"><ele>88.99999999999999</ele><time>2026-04-25T06:54:53.027Z</time></trkpt><trkpt lat="44.06775" lon="12.1840817"><ele>89.0</ele><time>2026-04-25T06:54:54.026Z</time></trkpt><trkpt lat="44.06769" lon="12.1840383"><ele>89.0</ele><time>2026-04-25T06:54:55.027Z</time></trkpt><trkpt lat="44.0676333" lon="12.1839917"><ele>89.0</ele><time>2026-04-25T06:54:56.027Z</time></trkpt><trkpt lat="44.0675767" lon="12.1839433"><ele>89.0</ele><time>2026-04-25T06:54:57.027Z</time></trkpt><trkpt lat="44.0675083" lon="12.1838983"><ele>88.99999999999999</ele><time>2026-04-25T06:54:58.026Z</time></trkpt><trkpt lat="44.0674467" lon="12.1838567"><ele>89.0</ele><time>2026-04-25T06:54:59.026Z</time></trkpt><trkpt lat="44.06739" lon="12.1837967"><ele>88.83333333333334</ele><time>2026-04-25T06:55:00.027Z</time></trkpt><trkpt lat="44.067325" lon="12.1837433"><ele>88.66666666666667</ele><time>2026-04-25T06:55:01.027Z</time></trkpt><trkpt lat="44.0672667" lon="12.183705"><ele>88.5</ele><time>2026-04-25T06:55:02.026Z</time></trkpt><trkpt lat="44.06721" lon="12.183655"><ele>88.33333333333333</ele><time>2026-04-25T06:55:03.027Z</time></trkpt><trkpt lat="44.0671083" lon="12.183555"><ele>88.16666666666666</ele><time>2026-04-25T06:55:05.027Z</time></trkpt><trkpt lat="44.0670517" lon="12.1835067"><ele>88.0</ele><time>2026-04-25T06:55:06.026Z</time></trkpt><trkpt lat="44.0669917" lon="12.1834567"><ele>88.0</ele><time>2026-04-25T06:55:07.027Z</time></trkpt><trkpt lat="44.0669283" lon="12.18341"><ele>88.0</ele><time>2026-04-25T06:55:08.027Z</time></trkpt><trkpt lat="44.0668633" lon="12.183355"><ele>88.0</ele><time>2026-04-25T06:55:09.026Z</time></trkpt><trkpt lat="44.0667967" lon="12.1833117"><ele>88.0</ele><time>2026-04-25T06:55:10.027Z</time></trkpt><trkpt lat="44.0667317" lon="12.1832683"><ele>88.0</ele><time>2026-04-25T06:55:11.027Z</time></trkpt><trkpt lat="44.0666667" lon="12.1832033"><ele>88.0</ele><time>2026-04-25T06:55:12.027Z</time></trkpt><trkpt lat="44.0666067" lon="12.1831317"><ele>87.0</ele><time>2026-04-25T06:55:13.026Z</time></trkpt><trkpt lat="44.066545" lon="12.1830583"><ele>86.0</ele><time>2026-04-25T06:55:14.026Z</time></trkpt><trkpt lat="44.0664817" lon="12.18299"><ele>85.0</ele><time>2026-04-25T06:55:15.027Z</time></trkpt><trkpt lat="44.0664183" lon="12.1829183"><ele>84.0</ele><time>2026-04-25T06:55:16.026Z</time></trkpt><trkpt lat="44.06635" lon="12.1828517"><ele>83.0</ele><time>2026-04-25T06:55:17.027Z</time></trkpt><trkpt lat="44.0662883" lon="12.1827717"><ele>82.0</ele><time>2026-04-25T06:55:18.027Z</time></trkpt><trkpt lat="44.0662283" lon="12.182685"><ele>82.0</ele><time>2026-04-25T06:55:19.026Z</time></trkpt><trkpt lat="44.0661717" lon="12.1826033"><ele>82.0</ele><time>2026-04-25T06:55:20.027Z</time></trkpt><trkpt lat="44.0661183" lon="12.1825017"><ele>82.0</ele><time>2026-04-25T06:55:21.027Z</time></trkpt><trkpt lat="44.0660683" lon="12.1823883"><ele>82.0</ele><time>2026-04-25T06:55:22.027Z</time></trkpt><trkpt lat="44.0660167" lon="12.1822767"><ele>82.0</ele><time>2026-04-25T06:55:23.027Z</time></trkpt><trkpt lat="44.0659533" lon="12.18217"><ele>82.39999999999999</ele><time>2026-04-25T06:55:24.027Z</time></trkpt><trkpt lat="44.0658917" lon="12.1820733"><ele>82.8</ele><time>2026-04-25T06:55:25.026Z</time></trkpt><trkpt lat="44.0658217" lon="12.1819867"><ele>83.2</ele><time>2026-04-25T06:55:26.027Z</time></trkpt><trkpt lat="44.06573" lon="12.1819217"><ele>83.6</ele><time>2026-04-25T06:55:27.027Z</time></trkpt><trkpt lat="44.0656417" lon="12.1818867"><ele>84.0</ele><time>2026-04-25T06:55:28.026Z</time></trkpt><trkpt lat="44.0655417" lon="12.1819083"><ele>84.16666666666667</ele><time>2026-04-25T06:55:29.026Z</time></trkpt><trkpt lat="44.06545" lon="12.1819467"><ele>84.33333333333333</ele><time>2026-04-25T06:55:30.026Z</time></trkpt><trkpt lat="44.06537" lon="12.1820083"><ele>84.5</ele><time>2026-04-25T06:55:31.027Z</time></trkpt><trkpt lat="44.0652983" lon="12.182075"><ele>84.66666666666666</ele><time>2026-04-25T06:55:32.027Z</time></trkpt><trkpt lat="44.0652317" lon="12.1821383"><ele>84.83333333333333</ele><time>2026-04-25T06:55:33.026Z</time></trkpt><trkpt lat="44.0651583" lon="12.1822133"><ele>85.0</ele><time>2026-04-25T06:55:34.027Z</time></trkpt><trkpt lat="44.0650983" lon="12.1822867"><ele>84.85714285714286</ele><time>2026-04-25T06:55:35.026Z</time></trkpt><trkpt lat="44.0650483" lon="12.1823617"><ele>84.71428571428571</ele><time>2026-04-25T06:55:36.027Z</time></trkpt><trkpt lat="44.065005" lon="12.182435"><ele>84.57142857142857</ele><time>2026-04-25T06:55:37.027Z</time></trkpt><trkpt lat="44.0649617" lon="12.1825083"><ele>84.42857142857143</ele><time>2026-04-25T06:55:38.027Z</time></trkpt><trkpt lat="44.06492" lon="12.1825817"><ele>84.28571428571428</ele><time>2026-04-25T06:55:39.027Z</time></trkpt><trkpt lat="44.0648817" lon="12.1826533"><ele>84.14285714285714</ele><time>2026-04-25T06:55:40.027Z</time></trkpt><trkpt lat="44.06484" lon="12.18272"><ele>84.0</ele><time>2026-04-25T06:55:41.027Z</time></trkpt><trkpt lat="44.0647533" lon="12.1828267"><ele>85.2</ele><time>2026-04-25T06:55:43.027Z</time></trkpt><trkpt lat="44.0646533" lon="12.1828867"><ele>86.4</ele><time>2026-04-25T06:55:45.026Z</time></trkpt><trkpt lat="44.0645483" lon="12.1829017"><ele>87.6</ele><time>2026-04-25T06:55:47.027Z</time></trkpt><trkpt lat="44.0644267" lon="12.1829017"><ele>88.8</ele><time>2026-04-25T06:55:49.027Z</time></trkpt><trkpt lat="44.0643633" lon="12.1828917"><ele>90.0</ele><time>2026-04-25T06:55:50.027Z</time></trkpt><trkpt lat="44.0643" lon="12.1828883"><ele>90.0</ele><time>2026-04-25T06:55:51.026Z</time></trkpt><trkpt lat="44.0641883" lon="12.182865"><ele>90.0</ele><time>2026-04-25T06:55:53.026Z</time></trkpt><trkpt lat="44.0640817" lon="12.1828217"><ele>90.0</ele><time>2026-04-25T06:55:55.027Z</time></trkpt><trkpt lat="44.06398" lon="12.1827817"><ele>90.0</ele><time>2026-04-25T06:55:57.027Z</time></trkpt><trkpt lat="44.0638733" lon="12.182745"><ele>90.0</ele><time>2026-04-25T06:55:59.027Z</time></trkpt><trkpt lat="44.06376" lon="12.1827"><ele>90.0</ele><time>2026-04-25T06:56:01.027Z</time></trkpt><trkpt lat="44.0636483" lon="12.1826333"><ele>90.0</ele><time>2026-04-25T06:56:03.027Z</time></trkpt><trkpt lat="44.0635367" lon="12.1825683"><ele>90.0</ele><time>2026-04-25T06:56:05.027Z</time></trkpt><trkpt lat="44.0634217" lon="12.18251"><ele>90.0</ele><time>2026-04-25T06:56:07.026Z</time></trkpt><trkpt lat="44.0633567" lon="12.1824817"><ele>90.0</ele><time>2026-04-25T06:56:08.027Z</time></trkpt><trkpt lat="44.0632967" lon="12.182455"><ele>89.85714285714285</ele><time>2026-04-25T06:56:09.026Z</time></trkpt><trkpt lat="44.0632333" lon="12.1824267"><ele>89.71428571428572</ele><time>2026-04-25T06:56:10.027Z</time></trkpt><trkpt lat="44.06317" lon="12.1823883"><ele>89.57142857142857</ele><time>2026-04-25T06:56:11.026Z</time></trkpt><trkpt lat="44.0631033" lon="12.18236"><ele>89.42857142857142</ele><time>2026-04-25T06:56:12.027Z</time></trkpt><trkpt lat="44.0630417" lon="12.1823233"><ele>89.28571428571428</ele><time>2026-04-25T06:56:13.027Z</time></trkpt><trkpt lat="44.0629817" lon="12.182285"><ele>89.14285714285714</ele><time>2026-04-25T06:56:14.027Z</time></trkpt><trkpt lat="44.0629183" lon="12.18225"><ele>89.0</ele><time>2026-04-25T06:56:15.027Z</time></trkpt><trkpt lat="44.062855" lon="12.1822133"><ele>88.99999999999999</ele><time>2026-04-25T06:56:16.026Z</time></trkpt><trkpt lat="44.0627917" lon="12.18218"><ele>89.0</ele><time>2026-04-25T06:56:17.027Z</time></trkpt><trkpt lat="44.062725" lon="12.1821467"><ele>89.0</ele><time>2026-04-25T06:56:18.027Z</time></trkpt><trkpt lat="44.0626567" lon="12.1821117"><ele>89.0</ele><time>2026-04-25T06:56:19.027Z</time></trkpt><trkpt lat="44.0625867" lon="12.18208"><ele>89.0</ele><time>2026-04-25T06:56:20.026Z</time></trkpt><trkpt lat="44.0625217" lon="12.182055"><ele>88.99999999999999</ele><time>2026-04-25T06:56:21.027Z</time></trkpt><trkpt lat="44.0624583" lon="12.18202"><ele>89.0</ele><time>2026-04-25T06:56:22.027Z</time></trkpt><trkpt lat="44.06239" lon="12.181985"><ele>89.0</ele><time>2026-04-25T06:56:23.027Z</time></trkpt><trkpt lat="44.0623283" lon="12.1819583"><ele>89.0</ele><time>2026-04-25T06:56:24.026Z</time></trkpt><trkpt lat="44.0622617" lon="12.1819417"><ele>89.0</ele><time>2026-04-25T06:56:25.027Z</time></trkpt><trkpt lat="44.062195" lon="12.18192"><ele>89.0</ele><time>2026-04-25T06:56:26.026Z</time></trkpt><trkpt lat="44.0621333" lon="12.1818917"><ele>89.0</ele><time>2026-04-25T06:56:27.027Z</time></trkpt><trkpt lat="44.0620283" lon="12.18181"><ele>89.0</ele><time>2026-04-25T06:56:29.026Z</time></trkpt><trkpt lat="44.06197" lon="12.1817717"><ele>89.0</ele><time>2026-04-25T06:56:30.027Z</time></trkpt><trkpt lat="44.061905" lon="12.181745"><ele>89.0</ele><time>2026-04-25T06:56:31.027Z</time></trkpt><trkpt lat="44.06179" lon="12.1816833"><ele>89.0</ele><time>2026-04-25T06:56:33.026Z</time></trkpt><trkpt lat="44.0616867" lon="12.1816317"><ele>89.0</ele><time>2026-04-25T06:56:35.026Z</time></trkpt><trkpt lat="44.0615717" lon="12.18158"><ele>89.0</ele><time>2026-04-25T06:56:37.026Z</time></trkpt><trkpt lat="44.0614717" lon="12.1815267"><ele>89.75</ele><time>2026-04-25T06:56:39.026Z</time></trkpt><trkpt lat="44.0613667" lon="12.1814633"><ele>90.5</ele><time>2026-04-25T06:56:41.027Z</time></trkpt><trkpt lat="44.0612567" lon="12.1814083"><ele>91.25</ele><time>2026-04-25T06:56:43.027Z</time></trkpt><trkpt lat="44.0611433" lon="12.181365"><ele>92.0</ele><time>2026-04-25T06:56:45.027Z</time></trkpt><trkpt lat="44.0610317" lon="12.1813183"><ele>92.0</ele><time>2026-04-25T06:56:47.027Z</time></trkpt><trkpt lat="44.06092" lon="12.18129"><ele>92.0</ele><time>2026-04-25T06:56:49.027Z</time></trkpt><trkpt lat="44.0608033" lon="12.1812467"><ele>92.0</ele><time>2026-04-25T06:56:51.027Z</time></trkpt><trkpt lat="44.06068" lon="12.1812067"><ele>92.0</ele><time>2026-04-25T06:56:53.026Z</time></trkpt><trkpt lat="44.060565" lon="12.1811517"><ele>92.25</ele><time>2026-04-25T06:56:55.027Z</time></trkpt><trkpt lat="44.0604433" lon="12.1811283"><ele>92.5</ele><time>2026-04-25T06:56:57.027Z</time></trkpt><trkpt lat="44.060335" lon="12.1810783"><ele>92.75</ele><time>2026-04-25T06:56:59.027Z</time></trkpt><trkpt lat="44.0602283" lon="12.1810367"><ele>93.0</ele><time>2026-04-25T06:57:01.026Z</time></trkpt><trkpt lat="44.0601133" lon="12.1809983"><ele>93.0</ele><time>2026-04-25T06:57:03.026Z</time></trkpt><trkpt lat="44.059995" lon="12.1809733"><ele>93.0</ele><time>2026-04-25T06:57:05.027Z</time></trkpt><trkpt lat="44.05988" lon="12.1809333"><ele>93.0</ele><time>2026-04-25T06:57:07.027Z</time></trkpt><trkpt lat="44.059765" lon="12.1809033"><ele>93.0</ele><time>2026-04-25T06:57:09.026Z</time></trkpt><trkpt lat="44.0596583" lon="12.1808733"><ele>92.5</ele><time>2026-04-25T06:57:11.026Z</time></trkpt><trkpt lat="44.059545" lon="12.1808333"><ele>92.0</ele><time>2026-04-25T06:57:13.026Z</time></trkpt><trkpt lat="44.05943" lon="12.180805"><ele>91.5</ele><time>2026-04-25T06:57:15.027Z</time></trkpt><trkpt lat="44.0593117" lon="12.1807833"><ele>91.0</ele><time>2026-04-25T06:57:17.027Z</time></trkpt><trkpt lat="44.0591933" lon="12.1807583"><ele>91.25</ele><time>2026-04-25T06:57:19.027Z</time></trkpt><trkpt lat="44.0590767" lon="12.1807317"><ele>91.5</ele><time>2026-04-25T06:57:21.026Z</time></trkpt><trkpt lat="44.05896" lon="12.18071"><ele>91.75</ele><time>2026-04-25T06:57:23.027Z</time></trkpt><trkpt lat="44.05884" lon="12.1806867"><ele>92.0</ele><time>2026-04-25T06:57:25.026Z</time></trkpt><trkpt lat="44.0587217" lon="12.1806567"><ele>92.75</ele><time>2026-04-25T06:57:27.026Z</time></trkpt><trkpt lat="44.0586033" lon="12.18064"><ele>93.5</ele><time>2026-04-25T06:57:29.026Z</time></trkpt><trkpt lat="44.0584933" lon="12.18058"><ele>94.25</ele><time>2026-04-25T06:57:31.026Z</time></trkpt><trkpt lat="44.0583833" lon="12.1805617"><ele>95.0</ele><time>2026-04-25T06:57:33.026Z</time></trkpt><trkpt lat="44.0582683" lon="12.180555"><ele>95.0</ele><time>2026-04-25T06:57:35.027Z</time></trkpt><trkpt lat="44.0581567" lon="12.1805567"><ele>95.0</ele><time>2026-04-25T06:57:37.027Z</time></trkpt><trkpt lat="44.0580367" lon="12.180525"><ele>95.0</ele><time>2026-04-25T06:57:39.027Z</time></trkpt><trkpt lat="44.0579283" lon="12.180505"><ele>95.0</ele><time>2026-04-25T06:57:41.027Z</time></trkpt><trkpt lat="44.0578083" lon="12.1804817"><ele>95.0</ele><time>2026-04-25T06:57:43.027Z</time></trkpt><trkpt lat="44.0577433" lon="12.1804717"><ele>95.0</ele><time>2026-04-25T06:57:44.027Z</time></trkpt><trkpt lat="44.0576783" lon="12.180465"><ele>95.0</ele><time>2026-04-25T06:57:45.027Z</time></trkpt><trkpt lat="44.0576083" lon="12.180465"><ele>95.0</ele><time>2026-04-25T06:57:46.027Z</time></trkpt><trkpt lat="44.0575417" lon="12.1804617"><ele>95.0</ele><time>2026-04-25T06:57:47.027Z</time></trkpt><trkpt lat="44.05741" lon="12.1804333"><ele>95.0</ele><time>2026-04-25T06:57:49.026Z</time></trkpt><trkpt lat="44.0573367" lon="12.180415"><ele>93.66666666666667</ele><time>2026-04-25T06:57:50.026Z</time></trkpt><trkpt lat="44.0572667" lon="12.1804083"><ele>92.33333333333334</ele><time>2026-04-25T06:57:51.027Z</time></trkpt><trkpt lat="44.05719" lon="12.1803867"><ele>91.0</ele><time>2026-04-25T06:57:52.027Z</time></trkpt><trkpt lat="44.0571133" lon="12.1803767"><ele>89.66666666666667</ele><time>2026-04-25T06:57:53.027Z</time></trkpt><trkpt lat="44.0570317" lon="12.1803667"><ele>88.33333333333333</ele><time>2026-04-25T06:57:54.027Z</time></trkpt><trkpt lat="44.056955" lon="12.1803483"><ele>87.0</ele><time>2026-04-25T06:57:55.026Z</time></trkpt><trkpt lat="44.0568733" lon="12.18034"><ele>87.0</ele><time>2026-04-25T06:57:56.027Z</time></trkpt><trkpt lat="44.0567917" lon="12.1803217"><ele>87.0</ele><time>2026-04-25T06:57:57.026Z</time></trkpt><trkpt lat="44.0567067" lon="12.1803117"><ele>87.0</ele><time>2026-04-25T06:57:58.026Z</time></trkpt><trkpt lat="44.0566217" lon="12.1802833"><ele>87.0</ele><time>2026-04-25T06:57:59.026Z</time></trkpt><trkpt lat="44.0565283" lon="12.1802567"><ele>87.0</ele><time>2026-04-25T06:58:00.026Z</time></trkpt><trkpt lat="44.0564367" lon="12.1802333"><ele>87.0</ele><time>2026-04-25T06:58:01.027Z</time></trkpt><trkpt lat="44.05634" lon="12.1801983"><ele>85.6</ele><time>2026-04-25T06:58:02.026Z</time></trkpt><trkpt lat="44.0562467" lon="12.1801583"><ele>84.19999999999999</ele><time>2026-04-25T06:58:03.026Z</time></trkpt><trkpt lat="44.0561517" lon="12.180115"><ele>82.8</ele><time>2026-04-25T06:58:04.027Z</time></trkpt><trkpt lat="44.056055" lon="12.1800583"><ele>81.4</ele><time>2026-04-25T06:58:05.026Z</time></trkpt><trkpt lat="44.0559583" lon="12.1800083"><ele>80.0</ele><time>2026-04-25T06:58:06.026Z</time></trkpt><trkpt lat="44.0558633" lon="12.1799617"><ele>80.2</ele><time>2026-04-25T06:58:07.027Z</time></trkpt><trkpt lat="44.0557667" lon="12.1799083"><ele>80.4</ele><time>2026-04-25T06:58:08.026Z</time></trkpt><trkpt lat="44.055675" lon="12.1798567"><ele>80.6</ele><time>2026-04-25T06:58:09.026Z</time></trkpt><trkpt lat="44.0555833" lon="12.1798033"><ele>80.8</ele><time>2026-04-25T06:58:10.027Z</time></trkpt><trkpt lat="44.05548" lon="12.1797583"><ele>81.0</ele><time>2026-04-25T06:58:11.027Z</time></trkpt><trkpt lat="44.0553883" lon="12.179705"><ele>81.0</ele><time>2026-04-25T06:58:12.027Z</time></trkpt><trkpt lat="44.055305" lon="12.1796417"><ele>81.0</ele><time>2026-04-25T06:58:13.027Z</time></trkpt><trkpt lat="44.055215" lon="12.1795817"><ele>81.0</ele><time>2026-04-25T06:58:14.027Z</time></trkpt><trkpt lat="44.0551167" lon="12.1795167"><ele>81.0</ele><time>2026-04-25T06:58:15.027Z</time></trkpt><trkpt lat="44.0550217" lon="12.1794433"><ele>81.0</ele><time>2026-04-25T06:58:16.026Z</time></trkpt><trkpt lat="44.0549233" lon="12.179365"><ele>79.25</ele><time>2026-04-25T06:58:17.027Z</time></trkpt><trkpt lat="44.0548267" lon="12.1792833"><ele>77.5</ele><time>2026-04-25T06:58:18.027Z</time></trkpt><trkpt lat="44.0547233" lon="12.1792033"><ele>75.75</ele><time>2026-04-25T06:58:19.026Z</time></trkpt><trkpt lat="44.05463" lon="12.1791133"><ele>74.0</ele><time>2026-04-25T06:58:20.027Z</time></trkpt><trkpt lat="44.0545317" lon="12.1790267"><ele>74.0</ele><time>2026-04-25T06:58:21.027Z</time></trkpt><trkpt lat="44.0544317" lon="12.17895"><ele>74.0</ele><time>2026-04-25T06:58:22.027Z</time></trkpt><trkpt lat="44.0543383" lon="12.178865"><ele>74.0</ele><time>2026-04-25T06:58:23.027Z</time></trkpt><trkpt lat="44.0542433" lon="12.1787917"><ele>74.0</ele><time>2026-04-25T06:58:24.027Z</time></trkpt><trkpt lat="44.0541483" lon="12.1787217"><ele>74.0</ele><time>2026-04-25T06:58:25.027Z</time></trkpt><trkpt lat="44.054055" lon="12.1786467"><ele>74.0</ele><time>2026-04-25T06:58:26.026Z</time></trkpt><trkpt lat="44.05396" lon="12.178575"><ele>74.0</ele><time>2026-04-25T06:58:27.027Z</time></trkpt><trkpt lat="44.053875" lon="12.1784933"><ele>74.0</ele><time>2026-04-25T06:58:28.026Z</time></trkpt><trkpt lat="44.0537883" lon="12.17843"><ele>74.0</ele><time>2026-04-25T06:58:29.026Z</time></trkpt><trkpt lat="44.0537083" lon="12.1783533"><ele>74.0</ele><time>2026-04-25T06:58:30.027Z</time></trkpt><trkpt lat="44.0536283" lon="12.1782717"><ele>74.0</ele><time>2026-04-25T06:58:31.026Z</time></trkpt><trkpt lat="44.05355" lon="12.1782033"><ele>74.0</ele><time>2026-04-25T06:58:32.027Z</time></trkpt><trkpt lat="44.0534733" lon="12.1781267"><ele>74.0</ele><time>2026-04-25T06:58:33.027Z</time></trkpt><trkpt lat="44.053395" lon="12.1780617"><ele>74.0</ele><time>2026-04-25T06:58:34.027Z</time></trkpt><trkpt lat="44.0533167" lon="12.17801"><ele>74.0</ele><time>2026-04-25T06:58:35.027Z</time></trkpt><trkpt lat="44.0532367" lon="12.17795"><ele>73.4</ele><time>2026-04-25T06:58:36.026Z</time></trkpt><trkpt lat="44.053155" lon="12.17789"><ele>72.80000000000001</ele><time>2026-04-25T06:58:37.026Z</time></trkpt><trkpt lat="44.0530767" lon="12.1778267"><ele>72.19999999999999</ele><time>2026-04-25T06:58:38.027Z</time></trkpt><trkpt lat="44.0530067" lon="12.1777533"><ele>71.6</ele><time>2026-04-25T06:58:39.027Z</time></trkpt><trkpt lat="44.0529267" lon="12.1776917"><ele>71.0</ele><time>2026-04-25T06:58:40.026Z</time></trkpt><trkpt lat="44.0528483" lon="12.1776267"><ele>71.0</ele><time>2026-04-25T06:58:41.027Z</time></trkpt><trkpt lat="44.0527717" lon="12.177555"><ele>71.0</ele><time>2026-04-25T06:58:42.027Z</time></trkpt><trkpt lat="44.0527" lon="12.1774717"><ele>71.0</ele><time>2026-04-25T06:58:43.026Z</time></trkpt><trkpt lat="44.0526367" lon="12.1773833"><ele>71.0</ele><time>2026-04-25T06:58:44.026Z</time></trkpt><trkpt lat="44.0525733" lon="12.1772917"><ele>71.0</ele><time>2026-04-25T06:58:45.026Z</time></trkpt><trkpt lat="44.0525133" lon="12.1771867"><ele>71.0</ele><time>2026-04-25T06:58:46.027Z</time></trkpt><trkpt lat="44.0524683" lon="12.1770767"><ele>71.0</ele><time>2026-04-25T06:58:47.027Z</time></trkpt><trkpt lat="44.0524167" lon="12.1769683"><ele>71.0</ele><time>2026-04-25T06:58:48.027Z</time></trkpt><trkpt lat="44.0523733" lon="12.1768617"><ele>71.0</ele><time>2026-04-25T06:58:49.027Z</time></trkpt><trkpt lat="44.0523217" lon="12.1767633"><ele>71.0</ele><time>2026-04-25T06:58:50.027Z</time></trkpt><trkpt lat="44.052275" lon="12.17667"><ele>71.0</ele><time>2026-04-25T06:58:51.027Z</time></trkpt><trkpt lat="44.0522233" lon="12.1765733"><ele>71.14285714285714</ele><time>2026-04-25T06:58:52.027Z</time></trkpt><trkpt lat="44.0521817" lon="12.1764817"><ele>71.28571428571428</ele><time>2026-04-25T06:58:53.027Z</time></trkpt><trkpt lat="44.05214" lon="12.1763933"><ele>71.42857142857143</ele><time>2026-04-25T06:58:54.027Z</time></trkpt><trkpt lat="44.0520967" lon="12.176315"><ele>71.57142857142857</ele><time>2026-04-25T06:58:55.027Z</time></trkpt><trkpt lat="44.0520483" lon="12.1762417"><ele>71.71428571428572</ele><time>2026-04-25T06:58:56.027Z</time></trkpt><trkpt lat="44.051995" lon="12.17617"><ele>71.85714285714286</ele><time>2026-04-25T06:58:57.026Z</time></trkpt><trkpt lat="44.0519467" lon="12.1761117"><ele>72.0</ele><time>2026-04-25T06:58:58.027Z</time></trkpt><trkpt lat="44.0518933" lon="12.1760467"><ele>72.00000000000001</ele><time>2026-04-25T06:58:59.027Z</time></trkpt><trkpt lat="44.0518483" lon="12.17597"><ele>72.0</ele><time>2026-04-25T06:59:00.026Z</time></trkpt><trkpt lat="44.0518" lon="12.1759033"><ele>72.0</ele><time>2026-04-25T06:59:01.026Z</time></trkpt><trkpt lat="44.0517533" lon="12.1758433"><ele>72.0</ele><time>2026-04-25T06:59:02.027Z</time></trkpt><trkpt lat="44.0516383" lon="12.175835"><ele>72.0</ele><time>2026-04-25T06:59:04.026Z</time></trkpt><trkpt lat="44.0515767" lon="12.1758633"><ele>72.00000000000001</ele><time>2026-04-25T06:59:05.027Z</time></trkpt><trkpt lat="44.0515117" lon="12.1758783"><ele>72.0</ele><time>2026-04-25T06:59:06.027Z</time></trkpt><trkpt lat="44.051445" lon="12.17591"><ele>71.85714285714286</ele><time>2026-04-25T06:59:07.027Z</time></trkpt><trkpt lat="44.0513783" lon="12.1759383"><ele>71.71428571428572</ele><time>2026-04-25T06:59:08.026Z</time></trkpt><trkpt lat="44.0513117" lon="12.1759933"><ele>71.57142857142857</ele><time>2026-04-25T06:59:09.027Z</time></trkpt><trkpt lat="44.051255" lon="12.1760617"><ele>71.42857142857143</ele><time>2026-04-25T06:59:10.027Z</time></trkpt><trkpt lat="44.0512017" lon="12.1761283"><ele>71.28571428571428</ele><time>2026-04-25T06:59:11.027Z</time></trkpt><trkpt lat="44.051145" lon="12.1762017"><ele>71.14285714285714</ele><time>2026-04-25T06:59:12.026Z</time></trkpt><trkpt lat="44.0510917" lon="12.176275"><ele>71.0</ele><time>2026-04-25T06:59:13.027Z</time></trkpt><trkpt lat="44.05104" lon="12.1763533"><ele>71.0</ele><time>2026-04-25T06:59:14.026Z</time></trkpt><trkpt lat="44.0509967" lon="12.176435"><ele>71.0</ele><time>2026-04-25T06:59:15.027Z</time></trkpt><trkpt lat="44.0509633" lon="12.1765217"><ele>71.0</ele><time>2026-04-25T06:59:16.026Z</time></trkpt><trkpt lat="44.0509367" lon="12.176605"><ele>71.0</ele><time>2026-04-25T06:59:17.027Z</time></trkpt><trkpt lat="44.050895" lon="12.1767717"><ele>71.0</ele><time>2026-04-25T06:59:19.027Z</time></trkpt><trkpt lat="44.0508533" lon="12.1769317"><ele>70.75</ele><time>2026-04-25T06:59:21.027Z</time></trkpt><trkpt lat="44.050805" lon="12.1770767"><ele>70.5</ele><time>2026-04-25T06:59:23.026Z</time></trkpt><trkpt lat="44.050755" lon="12.177225"><ele>70.25</ele><time>2026-04-25T06:59:25.026Z</time></trkpt><trkpt lat="44.050705" lon="12.17737"><ele>70.0</ele><time>2026-04-25T06:59:27.026Z</time></trkpt><trkpt lat="44.0506567" lon="12.1774967"><ele>70.8</ele><time>2026-04-25T06:59:29.026Z</time></trkpt><trkpt lat="44.0506167" lon="12.1776383"><ele>71.6</ele><time>2026-04-25T06:59:31.027Z</time></trkpt><trkpt lat="44.0505867" lon="12.1777817"><ele>72.4</ele><time>2026-04-25T06:59:33.027Z</time></trkpt><trkpt lat="44.0505533" lon="12.17794"><ele>73.2</ele><time>2026-04-25T06:59:35.026Z</time></trkpt><trkpt lat="44.0505333" lon="12.178085"><ele>74.0</ele><time>2026-04-25T06:59:37.026Z</time></trkpt><trkpt lat="44.0505383" lon="12.1782317"><ele>74.60000000000001</ele><time>2026-04-25T06:59:39.028Z</time></trkpt><trkpt lat="44.0505417" lon="12.178375"><ele>75.2</ele><time>2026-04-25T06:59:41.028Z</time></trkpt><trkpt lat="44.05057" lon="12.1785033"><ele>75.80000000000001</ele><time>2026-04-25T06:59:43.028Z</time></trkpt><trkpt lat="44.0506" lon="12.1786217"><ele>76.4</ele><time>2026-04-25T06:59:45.027Z</time></trkpt><trkpt lat="44.0506417" lon="12.17876"><ele>77.0</ele><time>2026-04-25T06:59:47.027Z</time></trkpt><trkpt lat="44.0506917" lon="12.178895"><ele>76.83333333333334</ele><time>2026-04-25T06:59:49.028Z</time></trkpt><trkpt lat="44.0507267" lon="12.1790267"><ele>76.66666666666667</ele><time>2026-04-25T06:59:51.027Z</time></trkpt><trkpt lat="44.0507783" lon="12.1791783"><ele>76.5</ele><time>2026-04-25T06:59:53.028Z</time></trkpt><trkpt lat="44.0508" lon="12.17931"><ele>76.33333333333333</ele><time>2026-04-25T06:59:55.028Z</time></trkpt><trkpt lat="44.05083" lon="12.1793917"><ele>76.16666666666666</ele><time>2026-04-25T06:59:56.027Z</time></trkpt><trkpt lat="44.0508517" lon="12.179475"><ele>76.0</ele><time>2026-04-25T06:59:57.028Z</time></trkpt><trkpt lat="44.050865" lon="12.1796283"><ele>76.0</ele><time>2026-04-25T06:59:59.027Z</time></trkpt><trkpt lat="44.0508817" lon="12.17972"><ele>76.0</ele><time>2026-04-25T07:00:00.027Z</time></trkpt><trkpt lat="44.0508983" lon="12.1798117"><ele>76.0</ele><time>2026-04-25T07:00:01.028Z</time></trkpt><trkpt lat="44.050905" lon="12.1799017"><ele>76.0</ele><time>2026-04-25T07:00:02.028Z</time></trkpt><trkpt lat="44.0509183" lon="12.1800733"><ele>76.0</ele><time>2026-04-25T07:00:04.028Z</time></trkpt><trkpt lat="44.050925" lon="12.1801617"><ele>76.0</ele><time>2026-04-25T07:00:05.027Z</time></trkpt><trkpt lat="44.0509283" lon="12.180335"><ele>76.25</ele><time>2026-04-25T07:00:07.027Z</time></trkpt><trkpt lat="44.0509433" lon="12.1805"><ele>76.5</ele><time>2026-04-25T07:00:09.028Z</time></trkpt><trkpt lat="44.05095" lon="12.1806683"><ele>76.75</ele><time>2026-04-25T07:00:11.028Z</time></trkpt><trkpt lat="44.0509683" lon="12.1808417"><ele>77.0</ele><time>2026-04-25T07:00:13.028Z</time></trkpt><trkpt lat="44.0509683" lon="12.1810067"><ele>77.0</ele><time>2026-04-25T07:00:15.028Z</time></trkpt><trkpt lat="44.050965" lon="12.1811683"><ele>77.0</ele><time>2026-04-25T07:00:17.027Z</time></trkpt><trkpt lat="44.0509467" lon="12.1813383"><ele>77.0</ele><time>2026-04-25T07:00:19.028Z</time></trkpt><trkpt lat="44.0509133" lon="12.1815033"><ele>77.0</ele><time>2026-04-25T07:00:21.028Z</time></trkpt><trkpt lat="44.0508867" lon="12.181585"><ele>77.0</ele><time>2026-04-25T07:00:22.027Z</time></trkpt><trkpt lat="44.0508283" lon="12.1817367"><ele>77.0</ele><time>2026-04-25T07:00:24.028Z</time></trkpt><trkpt lat="44.0507917" lon="12.1818117"><ele>77.0</ele><time>2026-04-25T07:00:25.028Z</time></trkpt><trkpt lat="44.05075" lon="12.1818883"><ele>77.0</ele><time>2026-04-25T07:00:26.028Z</time></trkpt><trkpt lat="44.050705" lon="12.1819633"><ele>77.0</ele><time>2026-04-25T07:00:27.028Z</time></trkpt><trkpt lat="44.0506583" lon="12.18203"><ele>77.0</ele><time>2026-04-25T07:00:28.027Z</time></trkpt><trkpt lat="44.05061" lon="12.1820883"><ele>77.0</ele><time>2026-04-25T07:00:29.027Z</time></trkpt><trkpt lat="44.0505067" lon="12.18218"><ele>76.75</ele><time>2026-04-25T07:00:31.028Z</time></trkpt><trkpt lat="44.050395" lon="12.1822517"><ele>76.5</ele><time>2026-04-25T07:00:33.028Z</time></trkpt><trkpt lat="44.0502867" lon="12.1822983"><ele>76.25</ele><time>2026-04-25T07:00:35.027Z</time></trkpt><trkpt lat="44.0501767" lon="12.182335"><ele>76.0</ele><time>2026-04-25T07:00:37.027Z</time></trkpt><trkpt lat="44.0500667" lon="12.1823483"><ele>76.0</ele><time>2026-04-25T07:00:39.027Z</time></trkpt><trkpt lat="44.04996" lon="12.182355"><ele>76.0</ele><time>2026-04-25T07:00:41.028Z</time></trkpt><trkpt lat="44.049855" lon="12.1823683"><ele>76.0</ele><time>2026-04-25T07:00:43.028Z</time></trkpt><trkpt lat="44.0497667" lon="12.18238"><ele>76.0</ele><time>2026-04-25T07:00:45.028Z</time></trkpt><trkpt lat="44.0496783" lon="12.182395"><ele>76.0</ele><time>2026-04-25T07:00:47.028Z</time></trkpt><trkpt lat="44.0495917" lon="12.182395"><ele>76.5</ele><time>2026-04-25T07:00:49.027Z</time></trkpt><trkpt lat="44.04951" lon="12.182415"><ele>77.0</ele><time>2026-04-25T07:00:51.028Z</time></trkpt><trkpt lat="44.049425" lon="12.182435"><ele>77.5</ele><time>2026-04-25T07:00:53.028Z</time></trkpt><trkpt lat="44.049335" lon="12.1824467"><ele>78.0</ele><time>2026-04-25T07:00:55.028Z</time></trkpt><trkpt lat="44.04924" lon="12.1824633"><ele>78.5</ele><time>2026-04-25T07:00:57.027Z</time></trkpt><trkpt lat="44.0491483" lon="12.1824783"><ele>79.0</ele><time>2026-04-25T07:00:59.028Z</time></trkpt><trkpt lat="44.04906" lon="12.1824883"><ele>79.66666666666666</ele><time>2026-04-25T07:01:01.027Z</time></trkpt><trkpt lat="44.048975" lon="12.1824933"><ele>80.33333333333333</ele><time>2026-04-25T07:01:03.027Z</time></trkpt><trkpt lat="44.0488867" lon="12.1825167"><ele>81.0</ele><time>2026-04-25T07:01:05.027Z</time></trkpt><trkpt lat="44.0488" lon="12.1825417"><ele>81.66666666666667</ele><time>2026-04-25T07:01:07.027Z</time></trkpt><trkpt lat="44.048715" lon="12.182555"><ele>82.33333333333334</ele><time>2026-04-25T07:01:09.028Z</time></trkpt><trkpt lat="44.0486183" lon="12.18257"><ele>83.0</ele><time>2026-04-25T07:01:11.027Z</time></trkpt><trkpt lat="44.0485233" lon="12.1826017"><ele>83.0</ele><time>2026-04-25T07:01:13.028Z</time></trkpt><trkpt lat="44.0484467" lon="12.1826233"><ele>83.0</ele><time>2026-04-25T07:01:15.027Z</time></trkpt><trkpt lat="44.0484017" lon="12.18273"><ele>83.0</ele><time>2026-04-25T07:01:17.027Z</time></trkpt><trkpt lat="44.048385" lon="12.1828333"><ele>83.0</ele><time>2026-04-25T07:01:19.027Z</time></trkpt><trkpt lat="44.0483833" lon="12.182955"><ele>83.0</ele><time>2026-04-25T07:01:21.028Z</time></trkpt><trkpt lat="44.048385" lon="12.183085"><ele>83.0</ele><time>2026-04-25T07:01:23.028Z</time></trkpt><trkpt lat="44.04838" lon="12.1832283"><ele>81.80000000000001</ele><time>2026-04-25T07:01:25.027Z</time></trkpt><trkpt lat="44.048375" lon="12.18336"><ele>80.60000000000001</ele><time>2026-04-25T07:01:27.027Z</time></trkpt><trkpt lat="44.0483717" lon="12.1834917"><ele>79.4</ele><time>2026-04-25T07:01:29.028Z</time></trkpt><trkpt lat="44.0483583" lon="12.1836317"><ele>78.2</ele><time>2026-04-25T07:01:31.028Z</time></trkpt><trkpt lat="44.0483433" lon="12.1837733"><ele>77.0</ele><time>2026-04-25T07:01:33.028Z</time></trkpt><trkpt lat="44.048325" lon="12.1839217"><ele>76.8</ele><time>2026-04-25T07:01:35.027Z</time></trkpt><trkpt lat="44.048315" lon="12.1840583"><ele>76.6</ele><time>2026-04-25T07:01:37.027Z</time></trkpt><trkpt lat="44.0483017" lon="12.184205"><ele>76.39999999999999</ele><time>2026-04-25T07:01:39.027Z</time></trkpt><trkpt lat="44.04829" lon="12.18437"><ele>76.2</ele><time>2026-04-25T07:01:41.028Z</time></trkpt><trkpt lat="44.0482783" lon="12.1844567"><ele>76.0</ele><time>2026-04-25T07:01:42.027Z</time></trkpt><trkpt lat="44.04826" lon="12.18455"><ele>76.66666666666666</ele><time>2026-04-25T07:01:43.028Z</time></trkpt><trkpt lat="44.0482217" lon="12.1846367"><ele>77.33333333333333</ele><time>2026-04-25T07:01:44.028Z</time></trkpt><trkpt lat="44.0481817" lon="12.1847283"><ele>78.0</ele><time>2026-04-25T07:01:45.028Z</time></trkpt><trkpt lat="44.04814" lon="12.1848233"><ele>78.66666666666667</ele><time>2026-04-25T07:01:46.027Z</time></trkpt><trkpt lat="44.0480917" lon="12.18492"><ele>79.33333333333334</ele><time>2026-04-25T07:01:47.028Z</time></trkpt><trkpt lat="44.04804" lon="12.18502"><ele>80.0</ele><time>2026-04-25T07:01:48.027Z</time></trkpt><trkpt lat="44.0479833" lon="12.1851217"><ele>80.4</ele><time>2026-04-25T07:01:49.027Z</time></trkpt><trkpt lat="44.04792" lon="12.18523"><ele>80.8</ele><time>2026-04-25T07:01:50.028Z</time></trkpt><trkpt lat="44.04786" lon="12.185345"><ele>81.19999999999999</ele><time>2026-04-25T07:01:51.028Z</time></trkpt><trkpt lat="44.0478033" lon="12.1854617"><ele>81.6</ele><time>2026-04-25T07:01:52.028Z</time></trkpt><trkpt lat="44.0477483" lon="12.1855867"><ele>82.0</ele><time>2026-04-25T07:01:53.028Z</time></trkpt><trkpt lat="44.04769" lon="12.185715"><ele>81.39999999999999</ele><time>2026-04-25T07:01:54.028Z</time></trkpt><trkpt lat="44.04763" lon="12.18583"><ele>80.8</ele><time>2026-04-25T07:01:55.027Z</time></trkpt><trkpt lat="44.0475567" lon="12.1859367"><ele>80.2</ele><time>2026-04-25T07:01:56.028Z</time></trkpt><trkpt lat="44.0474767" lon="12.1860317"><ele>79.6</ele><time>2026-04-25T07:01:57.028Z</time></trkpt><trkpt lat="44.0473933" lon="12.1861083"><ele>79.0</ele><time>2026-04-25T07:01:58.028Z</time></trkpt><trkpt lat="44.0473183" lon="12.1861933"><ele>79.0</ele><time>2026-04-25T07:01:59.028Z</time></trkpt><trkpt lat="44.047245" lon="12.1862717"><ele>79.0</ele><time>2026-04-25T07:02:00.028Z</time></trkpt><trkpt lat="44.0471717" lon="12.1863433"><ele>79.0</ele><time>2026-04-25T07:02:01.028Z</time></trkpt><trkpt lat="44.0471033" lon="12.18642"><ele>79.0</ele><time>2026-04-25T07:02:02.027Z</time></trkpt><trkpt lat="44.0470433" lon="12.1865017"><ele>79.0</ele><time>2026-04-25T07:02:03.028Z</time></trkpt><trkpt lat="44.0469917" lon="12.1865667"><ele>79.0</ele><time>2026-04-25T07:02:04.027Z</time></trkpt><trkpt lat="44.0469283" lon="12.1866133"><ele>78.16666666666666</ele><time>2026-04-25T07:02:05.027Z</time></trkpt><trkpt lat="44.0468667" lon="12.1866417"><ele>77.33333333333333</ele><time>2026-04-25T07:02:06.028Z</time></trkpt><trkpt lat="44.0468033" lon="12.1866467"><ele>76.5</ele><time>2026-04-25T07:02:07.028Z</time></trkpt><trkpt lat="44.0466833" lon="12.1866233"><ele>75.66666666666667</ele><time>2026-04-25T07:02:09.028Z</time></trkpt><trkpt lat="44.04662" lon="12.1866217"><ele>74.83333333333334</ele><time>2026-04-25T07:02:10.027Z</time></trkpt><trkpt lat="44.0465133" lon="12.1867"><ele>74.0</ele><time>2026-04-25T07:02:12.028Z</time></trkpt><trkpt lat="44.0464667" lon="12.1868483"><ele>74.0</ele><time>2026-04-25T07:02:14.028Z</time></trkpt><trkpt lat="44.0465017" lon="12.1870133"><ele>74.0</ele><time>2026-04-25T07:02:16.027Z</time></trkpt><trkpt lat="44.046525" lon="12.1870967"><ele>74.0</ele><time>2026-04-25T07:02:17.027Z</time></trkpt><trkpt lat="44.0465283" lon="12.1872617"><ele>74.0</ele><time>2026-04-25T07:02:19.027Z</time></trkpt><trkpt lat="44.0465017" lon="12.1873433"><ele>74.0</ele><time>2026-04-25T07:02:20.028Z</time></trkpt><trkpt lat="44.046465" lon="12.1874233"><ele>74.0</ele><time>2026-04-25T07:02:21.027Z</time></trkpt><trkpt lat="44.0464233" lon="12.1874983"><ele>73.0</ele><time>2026-04-25T07:02:22.027Z</time></trkpt><trkpt lat="44.0463867" lon="12.18758"><ele>72.0</ele><time>2026-04-25T07:02:23.027Z</time></trkpt><trkpt lat="44.04635" lon="12.1876583"><ele>71.0</ele><time>2026-04-25T07:02:24.028Z</time></trkpt><trkpt lat="44.04631" lon="12.1877333"><ele>70.0</ele><time>2026-04-25T07:02:25.028Z</time></trkpt><trkpt lat="44.0462717" lon="12.187805"><ele>69.0</ele><time>2026-04-25T07:02:26.027Z</time></trkpt><trkpt lat="44.046235" lon="12.187885"><ele>68.0</ele><time>2026-04-25T07:02:27.028Z</time></trkpt><trkpt lat="44.0462" lon="12.1879667"><ele>67.0</ele><time>2026-04-25T07:02:28.027Z</time></trkpt><trkpt lat="44.0461633" lon="12.188045"><ele>67.0</ele><time>2026-04-25T07:02:29.028Z</time></trkpt><trkpt lat="44.0461283" lon="12.188125"><ele>67.0</ele><time>2026-04-25T07:02:30.028Z</time></trkpt><trkpt lat="44.0460967" lon="12.1882017"><ele>67.0</ele><time>2026-04-25T07:02:31.027Z</time></trkpt><trkpt lat="44.046065" lon="12.1882783"><ele>67.0</ele><time>2026-04-25T07:02:32.028Z</time></trkpt><trkpt lat="44.0460283" lon="12.188355"><ele>67.0</ele><time>2026-04-25T07:02:33.027Z</time></trkpt><trkpt lat="44.04599" lon="12.18843"><ele>67.0</ele><time>2026-04-25T07:02:34.028Z</time></trkpt><trkpt lat="44.04595" lon="12.1885"><ele>67.0</ele><time>2026-04-25T07:02:35.028Z</time></trkpt><trkpt lat="44.0459133" lon="12.1885717"><ele>67.16666666666666</ele><time>2026-04-25T07:02:36.028Z</time></trkpt><trkpt lat="44.0458783" lon="12.1886483"><ele>67.33333333333333</ele><time>2026-04-25T07:02:37.028Z</time></trkpt><trkpt lat="44.04581" lon="12.18879"><ele>67.5</ele><time>2026-04-25T07:02:39.028Z</time></trkpt><trkpt lat="44.0457717" lon="12.1888633"><ele>67.66666666666667</ele><time>2026-04-25T07:02:40.027Z</time></trkpt><trkpt lat="44.0457317" lon="12.1889367"><ele>67.83333333333334</ele><time>2026-04-25T07:02:41.027Z</time></trkpt><trkpt lat="44.0456983" lon="12.1890117"><ele>68.0</ele><time>2026-04-25T07:02:42.027Z</time></trkpt><trkpt lat="44.04566" lon="12.1890883"><ele>67.99999999999999</ele><time>2026-04-25T07:02:43.027Z</time></trkpt><trkpt lat="44.04562" lon="12.1891617"><ele>68.0</ele><time>2026-04-25T07:02:44.028Z</time></trkpt><trkpt lat="44.04558" lon="12.1892417"><ele>68.0</ele><time>2026-04-25T07:02:45.028Z</time></trkpt><trkpt lat="44.0455433" lon="12.1893183"><ele>68.0</ele><time>2026-04-25T07:02:46.027Z</time></trkpt><trkpt lat="44.0455083" lon="12.1893933"><ele>68.0</ele><time>2026-04-25T07:02:47.028Z</time></trkpt><trkpt lat="44.0454717" lon="12.1894667"><ele>67.99999999999999</ele><time>2026-04-25T07:02:48.027Z</time></trkpt><trkpt lat="44.0454333" lon="12.1895433"><ele>68.0</ele><time>2026-04-25T07:02:49.027Z</time></trkpt><trkpt lat="44.04536" lon="12.1896783"><ele>67.99999999999999</ele><time>2026-04-25T07:02:51.028Z</time></trkpt><trkpt lat="44.0452917" lon="12.1898233"><ele>68.0</ele><time>2026-04-25T07:02:53.028Z</time></trkpt><trkpt lat="44.045255" lon="12.1898983"><ele>68.0</ele><time>2026-04-25T07:02:54.028Z</time></trkpt><trkpt lat="44.0452183" lon="12.18997"><ele>68.0</ele><time>2026-04-25T07:02:55.027Z</time></trkpt><trkpt lat="44.0451783" lon="12.1900417"><ele>68.0</ele><time>2026-04-25T07:02:56.028Z</time></trkpt><trkpt lat="44.04514" lon="12.1901133"><ele>67.99999999999999</ele><time>2026-04-25T07:02:57.027Z</time></trkpt><trkpt lat="44.0450933" lon="12.190175"><ele>68.0</ele><time>2026-04-25T07:02:58.027Z</time></trkpt><trkpt lat="44.04499" lon="12.19026"><ele>69.8</ele><time>2026-04-25T07:03:00.027Z</time></trkpt><trkpt lat="44.044885" lon="12.1903317"><ele>71.6</ele><time>2026-04-25T07:03:02.028Z</time></trkpt><trkpt lat="44.0447883" lon="12.1903783"><ele>73.4</ele><time>2026-04-25T07:03:04.027Z</time></trkpt><trkpt lat="44.04468" lon="12.190395"><ele>75.2</ele><time>2026-04-25T07:03:06.027Z</time></trkpt><trkpt lat="44.0445817" lon="12.19038"><ele>77.0</ele><time>2026-04-25T07:03:08.027Z</time></trkpt><trkpt lat="44.0444783" lon="12.190345"><ele>77.0</ele><time>2026-04-25T07:03:10.027Z</time></trkpt><trkpt lat="44.04438" lon="12.19031"><ele>77.0</ele><time>2026-04-25T07:03:12.028Z</time></trkpt><trkpt lat="44.0442917" lon="12.19026"><ele>77.0</ele><time>2026-04-25T07:03:14.027Z</time></trkpt><trkpt lat="44.0441983" lon="12.1902117"><ele>77.0</ele><time>2026-04-25T07:03:16.027Z</time></trkpt><trkpt lat="44.044105" lon="12.1901633"><ele>77.0</ele><time>2026-04-25T07:03:18.027Z</time></trkpt><trkpt lat="44.0440183" lon="12.1901217"><ele>77.6</ele><time>2026-04-25T07:03:20.028Z</time></trkpt><trkpt lat="44.0439267" lon="12.1900783"><ele>78.2</ele><time>2026-04-25T07:03:22.028Z</time></trkpt><trkpt lat="44.04383" lon="12.1900283"><ele>78.8</ele><time>2026-04-25T07:03:24.028Z</time></trkpt><trkpt lat="44.0437433" lon="12.1899867"><ele>79.4</ele><time>2026-04-25T07:03:26.028Z</time></trkpt><trkpt lat="44.0436483" lon="12.1899433"><ele>80.0</ele><time>2026-04-25T07:03:28.027Z</time></trkpt><trkpt lat="44.043555" lon="12.1899067"><ele>80.0</ele><time>2026-04-25T07:03:30.028Z</time></trkpt><trkpt lat="44.0434517" lon="12.1898867"><ele>80.0</ele><time>2026-04-25T07:03:32.028Z</time></trkpt><trkpt lat="44.0433517" lon="12.1898883"><ele>80.0</ele><time>2026-04-25T07:03:34.028Z</time></trkpt><trkpt lat="44.0432433" lon="12.1898867"><ele>80.0</ele><time>2026-04-25T07:03:36.028Z</time></trkpt><trkpt lat="44.0431367" lon="12.1898983"><ele>80.0</ele><time>2026-04-25T07:03:38.027Z</time></trkpt><trkpt lat="44.043035" lon="12.1899117"><ele>80.6</ele><time>2026-04-25T07:03:40.027Z</time></trkpt><trkpt lat="44.0429317" lon="12.1899017"><ele>81.2</ele><time>2026-04-25T07:03:42.027Z</time></trkpt><trkpt lat="44.042845" lon="12.1898617"><ele>81.80000000000001</ele><time>2026-04-25T07:03:44.027Z</time></trkpt><trkpt lat="44.04276" lon="12.1897983"><ele>82.4</ele><time>2026-04-25T07:03:46.028Z</time></trkpt><trkpt lat="44.0426817" lon="12.1897433"><ele>83.0</ele><time>2026-04-25T07:03:48.027Z</time></trkpt><trkpt lat="44.0426" lon="12.1897067"><ele>83.4</ele><time>2026-04-25T07:03:50.028Z</time></trkpt><trkpt lat="44.0425167" lon="12.18969"><ele>83.80000000000001</ele><time>2026-04-25T07:03:52.027Z</time></trkpt><trkpt lat="44.0424267" lon="12.189715"><ele>84.2</ele><time>2026-04-25T07:03:54.028Z</time></trkpt><trkpt lat="44.04235" lon="12.1897517"><ele>84.6</ele><time>2026-04-25T07:03:56.028Z</time></trkpt><trkpt lat="44.0422717" lon="12.1898267"><ele>85.0</ele><time>2026-04-25T07:03:58.028Z</time></trkpt><trkpt lat="44.0421933" lon="12.18991"><ele>85.0</ele><time>2026-04-25T07:04:00.028Z</time></trkpt><trkpt lat="44.0421183" lon="12.1899833"><ele>85.0</ele><time>2026-04-25T07:04:02.028Z</time></trkpt><trkpt lat="44.0420383" lon="12.1900333"><ele>85.0</ele><time>2026-04-25T07:04:04.027Z</time></trkpt><trkpt lat="44.0419433" lon="12.190075"><ele>85.0</ele><time>2026-04-25T07:04:06.028Z</time></trkpt><trkpt lat="44.0418483" lon="12.1900967"><ele>85.0</ele><time>2026-04-25T07:04:08.028Z</time></trkpt><trkpt lat="44.0417533" lon="12.190095"><ele>85.0</ele><time>2026-04-25T07:04:10.028Z</time></trkpt><trkpt lat="44.0416633" lon="12.190065"><ele>85.0</ele><time>2026-04-25T07:04:12.028Z</time></trkpt><trkpt lat="44.04158" lon="12.1900583"><ele>85.0</ele><time>2026-04-25T07:04:14.028Z</time></trkpt><trkpt lat="44.0414917" lon="12.1900567"><ele>85.0</ele><time>2026-04-25T07:04:16.027Z</time></trkpt><trkpt lat="44.0414033" lon="12.1900733"><ele>85.0</ele><time>2026-04-25T07:04:18.028Z</time></trkpt><trkpt lat="44.0413183" lon="12.1900933"><ele>85.0</ele><time>2026-04-25T07:04:20.028Z</time></trkpt><trkpt lat="44.0412333" lon="12.1901283"><ele>84.4</ele><time>2026-04-25T07:04:22.027Z</time></trkpt><trkpt lat="44.0411533" lon="12.190185"><ele>83.8</ele><time>2026-04-25T07:04:24.028Z</time></trkpt><trkpt lat="44.0410783" lon="12.19027"><ele>83.19999999999999</ele><time>2026-04-25T07:04:26.027Z</time></trkpt><trkpt lat="44.0410067" lon="12.1903533"><ele>82.6</ele><time>2026-04-25T07:04:28.028Z</time></trkpt><trkpt lat="44.0409417" lon="12.1904417"><ele>82.0</ele><time>2026-04-25T07:04:30.028Z</time></trkpt><trkpt lat="44.0408767" lon="12.1905417"><ele>82.0</ele><time>2026-04-25T07:04:32.028Z</time></trkpt><trkpt lat="44.0408" lon="12.1906433"><ele>82.0</ele><time>2026-04-25T07:04:34.028Z</time></trkpt><trkpt lat="44.0407183" lon="12.1907367"><ele>82.0</ele><time>2026-04-25T07:04:36.028Z</time></trkpt><trkpt lat="44.0406233" lon="12.1908067"><ele>82.0</ele><time>2026-04-25T07:04:38.028Z</time></trkpt><trkpt lat="44.0405317" lon="12.1908617"><ele>82.0</ele><time>2026-04-25T07:04:40.028Z</time></trkpt><trkpt lat="44.0404267" lon="12.19089"><ele>83.39999999999999</ele><time>2026-04-25T07:04:42.028Z</time></trkpt><trkpt lat="44.0403183" lon="12.190905"><ele>84.8</ele><time>2026-04-25T07:04:44.028Z</time></trkpt><trkpt lat="44.04021" lon="12.1909117"><ele>86.2</ele><time>2026-04-25T07:04:46.028Z</time></trkpt><trkpt lat="44.0400967" lon="12.1909017"><ele>87.6</ele><time>2026-04-25T07:04:48.028Z</time></trkpt><trkpt lat="44.0399833" lon="12.1908783"><ele>89.0</ele><time>2026-04-25T07:04:50.027Z</time></trkpt><trkpt lat="44.0398783" lon="12.1908333"><ele>89.0</ele><time>2026-04-25T07:04:52.027Z</time></trkpt><trkpt lat="44.0397833" lon="12.190775"><ele>89.0</ele><time>2026-04-25T07:04:54.028Z</time></trkpt><trkpt lat="44.0396817" lon="12.1907217"><ele>89.0</ele><time>2026-04-25T07:04:56.028Z</time></trkpt><trkpt lat="44.0395783" lon="12.1907083"><ele>89.0</ele><time>2026-04-25T07:04:58.028Z</time></trkpt><trkpt lat="44.0394683" lon="12.1907317"><ele>89.0</ele><time>2026-04-25T07:05:00.028Z</time></trkpt><trkpt lat="44.0393633" lon="12.1908083"><ele>89.0</ele><time>2026-04-25T07:05:02.028Z</time></trkpt><trkpt lat="44.0392833" lon="12.1909267"><ele>89.0</ele><time>2026-04-25T07:05:04.028Z</time></trkpt><trkpt lat="44.0392367" lon="12.1910717"><ele>89.0</ele><time>2026-04-25T07:05:06.028Z</time></trkpt><trkpt lat="44.039205" lon="12.1912167"><ele>89.0</ele><time>2026-04-25T07:05:08.028Z</time></trkpt><trkpt lat="44.0391817" lon="12.1913767"><ele>90.0</ele><time>2026-04-25T07:05:10.027Z</time></trkpt><trkpt lat="44.0391467" lon="12.19154"><ele>91.0</ele><time>2026-04-25T07:05:12.027Z</time></trkpt><trkpt lat="44.0391217" lon="12.191625"><ele>92.0</ele><time>2026-04-25T07:05:13.027Z</time></trkpt><trkpt lat="44.03909" lon="12.1917017"><ele>93.0</ele><time>2026-04-25T07:05:14.027Z</time></trkpt><trkpt lat="44.03905" lon="12.1917717"><ele>94.0</ele><time>2026-04-25T07:05:15.028Z</time></trkpt><trkpt lat="44.0389683" lon="12.191895"><ele>95.0</ele><time>2026-04-25T07:05:17.027Z</time></trkpt><trkpt lat="44.0389183" lon="12.1919483"><ele>92.6</ele><time>2026-04-25T07:05:18.028Z</time></trkpt><trkpt lat="44.038865" lon="12.1919967"><ele>90.2</ele><time>2026-04-25T07:05:19.028Z</time></trkpt><trkpt lat="44.0387583" lon="12.1920933"><ele>87.80000000000001</ele><time>2026-04-25T07:05:21.028Z</time></trkpt><trkpt lat="44.0387" lon="12.1921367"><ele>85.4</ele><time>2026-04-25T07:05:22.027Z</time></trkpt><trkpt lat="44.0385833" lon="12.1922033"><ele>83.0</ele><time>2026-04-25T07:05:24.027Z</time></trkpt><trkpt lat="44.038475" lon="12.1922867"><ele>83.0</ele><time>2026-04-25T07:05:26.027Z</time></trkpt><trkpt lat="44.03839" lon="12.1923933"><ele>83.0</ele><time>2026-04-25T07:05:28.028Z</time></trkpt><trkpt lat="44.0383083" lon="12.1925"><ele>83.0</ele><time>2026-04-25T07:05:30.028Z</time></trkpt><trkpt lat="44.0382433" lon="12.192635"><ele>83.0</ele><time>2026-04-25T07:05:32.028Z</time></trkpt><trkpt lat="44.0382133" lon="12.192785"><ele>83.0</ele><time>2026-04-25T07:05:34.027Z</time></trkpt><trkpt lat="44.0381983" lon="12.1929583"><ele>83.0</ele><time>2026-04-25T07:05:36.027Z</time></trkpt><trkpt lat="44.0381883" lon="12.1930483"><ele>83.0</ele><time>2026-04-25T07:05:37.028Z</time></trkpt><trkpt lat="44.0381817" lon="12.1931383"><ele>83.0</ele><time>2026-04-25T07:05:38.027Z</time></trkpt><trkpt lat="44.0381967" lon="12.1933033"><ele>83.0</ele><time>2026-04-25T07:05:40.027Z</time></trkpt><trkpt lat="44.0382067" lon="12.1934783"><ele>83.25</ele><time>2026-04-25T07:05:42.027Z</time></trkpt><trkpt lat="44.0382" lon="12.193645"><ele>83.5</ele><time>2026-04-25T07:05:44.028Z</time></trkpt><trkpt lat="44.0381717" lon="12.19381"><ele>83.75</ele><time>2026-04-25T07:05:46.027Z</time></trkpt><trkpt lat="44.0381233" lon="12.19396"><ele>84.0</ele><time>2026-04-25T07:05:48.028Z</time></trkpt><trkpt lat="44.0380567" lon="12.194095"><ele>85.25</ele><time>2026-04-25T07:05:50.027Z</time></trkpt><trkpt lat="44.0379733" lon="12.19421"><ele>86.5</ele><time>2026-04-25T07:05:52.027Z</time></trkpt><trkpt lat="44.0378767" lon="12.1943"><ele>87.75</ele><time>2026-04-25T07:05:54.028Z</time></trkpt><trkpt lat="44.0377817" lon="12.1943783"><ele>89.0</ele><time>2026-04-25T07:05:56.028Z</time></trkpt><trkpt lat="44.0376833" lon="12.1944483"><ele>89.0</ele><time>2026-04-25T07:05:58.028Z</time></trkpt><trkpt lat="44.0375983" lon="12.1945283"><ele>89.0</ele><time>2026-04-25T07:06:00.028Z</time></trkpt><trkpt lat="44.0375167" lon="12.1946067"><ele>89.0</ele><time>2026-04-25T07:06:02.028Z</time></trkpt><trkpt lat="44.0374433" lon="12.1947033"><ele>89.0</ele><time>2026-04-25T07:06:04.027Z</time></trkpt><trkpt lat="44.037375" lon="12.1948133"><ele>89.0</ele><time>2026-04-25T07:06:06.027Z</time></trkpt><trkpt lat="44.037305" lon="12.19492"><ele>89.0</ele><time>2026-04-25T07:06:08.028Z</time></trkpt><trkpt lat="44.037245" lon="12.1950217"><ele>89.0</ele><time>2026-04-25T07:06:10.029Z</time></trkpt><trkpt lat="44.0371867" lon="12.195135"><ele>89.0</ele><time>2026-04-25T07:06:12.028Z</time></trkpt><trkpt lat="44.03712" lon="12.1952467"><ele>89.0</ele><time>2026-04-25T07:06:14.028Z</time></trkpt><trkpt lat="44.0370533" lon="12.1953417"><ele>89.0</ele><time>2026-04-25T07:06:16.028Z</time></trkpt><trkpt lat="44.036985" lon="12.1954433"><ele>89.0</ele><time>2026-04-25T07:06:18.028Z</time></trkpt><trkpt lat="44.036905" lon="12.195555"><ele>89.0</ele><time>2026-04-25T07:06:20.029Z</time></trkpt><trkpt lat="44.036835" lon="12.1956633"><ele>89.0</ele><time>2026-04-25T07:06:22.029Z</time></trkpt><trkpt lat="44.0367683" lon="12.1957617"><ele>89.0</ele><time>2026-04-25T07:06:24.029Z</time></trkpt><trkpt lat="44.0366933" lon="12.1958617"><ele>89.0</ele><time>2026-04-25T07:06:26.028Z</time></trkpt><trkpt lat="44.0366117" lon="12.195935"><ele>90.6</ele><time>2026-04-25T07:06:28.029Z</time></trkpt><trkpt lat="44.0365167" lon="12.195975"><ele>92.2</ele><time>2026-04-25T07:06:30.029Z</time></trkpt><trkpt lat="44.036425" lon="12.1960017"><ele>93.8</ele><time>2026-04-25T07:06:32.029Z</time></trkpt><trkpt lat="44.036325" lon="12.1960033"><ele>95.39999999999999</ele><time>2026-04-25T07:06:34.029Z</time></trkpt><trkpt lat="44.036225" lon="12.1959767"><ele>97.0</ele><time>2026-04-25T07:06:36.028Z</time></trkpt><trkpt lat="44.03612" lon="12.1959517"><ele>97.0</ele><time>2026-04-25T07:06:38.029Z</time></trkpt><trkpt lat="44.0360217" lon="12.1959083"><ele>97.0</ele><time>2026-04-25T07:06:40.029Z</time></trkpt><trkpt lat="44.0359367" lon="12.1958683"><ele>97.0</ele><time>2026-04-25T07:06:42.028Z</time></trkpt><trkpt lat="44.03584" lon="12.1958367"><ele>97.0</ele><time>2026-04-25T07:06:44.029Z</time></trkpt><trkpt lat="44.0357467" lon="12.19581"><ele>97.0</ele><time>2026-04-25T07:06:46.028Z</time></trkpt><trkpt lat="44.0356567" lon="12.19578"><ele>98.0</ele><time>2026-04-25T07:06:48.029Z</time></trkpt><trkpt lat="44.0355633" lon="12.195755"><ele>99.0</ele><time>2026-04-25T07:06:50.029Z</time></trkpt><trkpt lat="44.0354683" lon="12.1957267"><ele>100.0</ele><time>2026-04-25T07:06:52.029Z</time></trkpt><trkpt lat="44.0353717" lon="12.1957"><ele>101.0</ele><time>2026-04-25T07:06:54.029Z</time></trkpt><trkpt lat="44.0352733" lon="12.19568"><ele>102.0</ele><time>2026-04-25T07:06:56.028Z</time></trkpt><trkpt lat="44.0351783" lon="12.19566"><ele>99.19999999999999</ele><time>2026-04-25T07:06:58.028Z</time></trkpt><trkpt lat="44.0350833" lon="12.195645"><ele>96.4</ele><time>2026-04-25T07:07:00.028Z</time></trkpt><trkpt lat="44.0349917" lon="12.1956367"><ele>93.6</ele><time>2026-04-25T07:07:02.029Z</time></trkpt><trkpt lat="44.0348983" lon="12.19562"><ele>90.80000000000001</ele><time>2026-04-25T07:07:04.029Z</time></trkpt><trkpt lat="44.0348117" lon="12.195605"><ele>88.0</ele><time>2026-04-25T07:07:06.029Z</time></trkpt><trkpt lat="44.0347117" lon="12.195595"><ele>87.60000000000001</ele><time>2026-04-25T07:07:08.028Z</time></trkpt><trkpt lat="44.03462" lon="12.195605"><ele>87.2</ele><time>2026-04-25T07:07:10.029Z</time></trkpt><trkpt lat="44.0345367" lon="12.1956267"><ele>86.8</ele><time>2026-04-25T07:07:12.028Z</time></trkpt><trkpt lat="44.0344533" lon="12.1956633"><ele>86.4</ele><time>2026-04-25T07:07:14.029Z</time></trkpt><trkpt lat="44.0343683" lon="12.1957317"><ele>86.0</ele><time>2026-04-25T07:07:16.028Z</time></trkpt><trkpt lat="44.0343" lon="12.1958217"><ele>85.19999999999999</ele><time>2026-04-25T07:07:18.029Z</time></trkpt><trkpt lat="44.034245" lon="12.1959317"><ele>84.39999999999999</ele><time>2026-04-25T07:07:20.028Z</time></trkpt><trkpt lat="44.0341967" lon="12.1960617"><ele>83.6</ele><time>2026-04-25T07:07:22.029Z</time></trkpt><trkpt lat="44.0341733" lon="12.196215"><ele>82.8</ele><time>2026-04-25T07:07:24.028Z</time></trkpt><trkpt lat="44.0341617" lon="12.1963717"><ele>82.0</ele><time>2026-04-25T07:07:26.028Z</time></trkpt><trkpt lat="44.0341233" lon="12.1965283"><ele>82.0</ele><time>2026-04-25T07:07:28.029Z</time></trkpt><trkpt lat="44.0340633" lon="12.1966717"><ele>82.0</ele><time>2026-04-25T07:07:30.028Z</time></trkpt><trkpt lat="44.0339733" lon="12.19679"><ele>82.0</ele><time>2026-04-25T07:07:32.028Z</time></trkpt><trkpt lat="44.033915" lon="12.1968467"><ele>82.0</ele><time>2026-04-25T07:07:33.029Z</time></trkpt><trkpt lat="44.0338633" lon="12.1968967"><ele>82.0</ele><time>2026-04-25T07:07:34.029Z</time></trkpt><trkpt lat="44.0337533" lon="12.1969933"><ele>81.99999999999999</ele><time>2026-04-25T07:07:36.028Z</time></trkpt><trkpt lat="44.0337" lon="12.197045"><ele>82.0</ele><time>2026-04-25T07:07:37.029Z</time></trkpt><trkpt lat="44.03365" lon="12.1971033"><ele>82.0</ele><time>2026-04-25T07:07:38.029Z</time></trkpt><trkpt lat="44.0336017" lon="12.1971667"><ele>82.0</ele><time>2026-04-25T07:07:39.029Z</time></trkpt><trkpt lat="44.0335517" lon="12.1972383"><ele>82.0</ele><time>2026-04-25T07:07:40.029Z</time></trkpt><trkpt lat="44.0335067" lon="12.19731"><ele>81.99999999999999</ele><time>2026-04-25T07:07:41.029Z</time></trkpt><trkpt lat="44.0334617" lon="12.1973817"><ele>82.0</ele><time>2026-04-25T07:07:42.029Z</time></trkpt><trkpt lat="44.0334217" lon="12.1974567"><ele>81.0</ele><time>2026-04-25T07:07:43.029Z</time></trkpt><trkpt lat="44.033385" lon="12.19754"><ele>80.0</ele><time>2026-04-25T07:07:44.029Z</time></trkpt><trkpt lat="44.0333533" lon="12.1976167"><ele>79.0</ele><time>2026-04-25T07:07:45.028Z</time></trkpt><trkpt lat="44.0333267" lon="12.1976983"><ele>78.0</ele><time>2026-04-25T07:07:46.029Z</time></trkpt><trkpt lat="44.033295" lon="12.19778"><ele>77.0</ele><time>2026-04-25T07:07:47.029Z</time></trkpt><trkpt lat="44.03327" lon="12.197865"><ele>76.0</ele><time>2026-04-25T07:07:48.029Z</time></trkpt><trkpt lat="44.033235" lon="12.1980333"><ele>76.0</ele><time>2026-04-25T07:07:50.029Z</time></trkpt><trkpt lat="44.0332217" lon="12.1981283"><ele>76.0</ele><time>2026-04-25T07:07:51.029Z</time></trkpt><trkpt lat="44.0332133" lon="12.1982233"><ele>76.0</ele><time>2026-04-25T07:07:52.028Z</time></trkpt><trkpt lat="44.0332117" lon="12.19832"><ele>76.0</ele><time>2026-04-25T07:07:53.028Z</time></trkpt><trkpt lat="44.0332267" lon="12.1984117"><ele>76.0</ele><time>2026-04-25T07:07:54.029Z</time></trkpt><trkpt lat="44.0332467" lon="12.198505"><ele>76.0</ele><time>2026-04-25T07:07:55.028Z</time></trkpt><trkpt lat="44.033275" lon="12.198595"><ele>76.0</ele><time>2026-04-25T07:07:56.029Z</time></trkpt><trkpt lat="44.0333067" lon="12.1986817"><ele>79.14285714285714</ele><time>2026-04-25T07:07:57.028Z</time></trkpt><trkpt lat="44.0333267" lon="12.1987667"><ele>82.28571428571429</ele><time>2026-04-25T07:07:58.028Z</time></trkpt><trkpt lat="44.033355" lon="12.19885"><ele>85.42857142857143</ele><time>2026-04-25T07:07:59.029Z</time></trkpt><trkpt lat="44.0333833" lon="12.19893"><ele>88.57142857142857</ele><time>2026-04-25T07:08:00.028Z</time></trkpt><trkpt lat="44.03341" lon="12.19902"><ele>91.71428571428572</ele><time>2026-04-25T07:08:01.029Z</time></trkpt><trkpt lat="44.0334267" lon="12.1991133"><ele>94.85714285714286</ele><time>2026-04-25T07:08:02.029Z</time></trkpt><trkpt lat="44.03343" lon="12.19921"><ele>98.0</ele><time>2026-04-25T07:08:03.029Z</time></trkpt><trkpt lat="44.0334183" lon="12.1993083"><ele>97.99999999999999</ele><time>2026-04-25T07:08:04.029Z</time></trkpt><trkpt lat="44.0333917" lon="12.1994067"><ele>98.0</ele><time>2026-04-25T07:08:05.029Z</time></trkpt><trkpt lat="44.0333517" lon="12.1994883"><ele>98.0</ele><time>2026-04-25T07:08:06.029Z</time></trkpt><trkpt lat="44.033295" lon="12.1995533"><ele>98.0</ele><time>2026-04-25T07:08:07.028Z</time></trkpt><trkpt lat="44.0332283" lon="12.1996"><ele>97.99999999999999</ele><time>2026-04-25T07:08:08.029Z</time></trkpt><trkpt lat="44.0331567" lon="12.1996317"><ele>98.0</ele><time>2026-04-25T07:08:09.028Z</time></trkpt><trkpt lat="44.033075" lon="12.1996367"><ele>97.0</ele><time>2026-04-25T07:08:10.028Z</time></trkpt><trkpt lat="44.0329967" lon="12.199625"><ele>96.0</ele><time>2026-04-25T07:08:11.029Z</time></trkpt><trkpt lat="44.0329217" lon="12.1996033"><ele>95.0</ele><time>2026-04-25T07:08:12.028Z</time></trkpt><trkpt lat="44.03285" lon="12.1995783"><ele>94.0</ele><time>2026-04-25T07:08:13.029Z</time></trkpt><trkpt lat="44.032785" lon="12.1995667"><ele>93.0</ele><time>2026-04-25T07:08:14.028Z</time></trkpt><trkpt lat="44.0327167" lon="12.1995667"><ele>92.0</ele><time>2026-04-25T07:08:15.029Z</time></trkpt><trkpt lat="44.0326483" lon="12.1995783"><ele>91.0</ele><time>2026-04-25T07:08:16.029Z</time></trkpt><trkpt lat="44.0325817" lon="12.1996183"><ele>91.0</ele><time>2026-04-25T07:08:17.028Z</time></trkpt><trkpt lat="44.0325217" lon="12.1996633"><ele>91.0</ele><time>2026-04-25T07:08:18.028Z</time></trkpt><trkpt lat="44.0324633" lon="12.1997217"><ele>91.0</ele><time>2026-04-25T07:08:19.029Z</time></trkpt><trkpt lat="44.03241" lon="12.1997767"><ele>91.0</ele><time>2026-04-25T07:08:20.029Z</time></trkpt><trkpt lat="44.0323517" lon="12.19983"><ele>91.0</ele><time>2026-04-25T07:08:21.029Z</time></trkpt><trkpt lat="44.0322933" lon="12.1998717"><ele>91.0</ele><time>2026-04-25T07:08:22.029Z</time></trkpt><trkpt lat="44.03223" lon="12.1998983"><ele>91.0</ele><time>2026-04-25T07:08:23.029Z</time></trkpt><trkpt lat="44.0321633" lon="12.199915"><ele>91.71428571428571</ele><time>2026-04-25T07:08:24.029Z</time></trkpt><trkpt lat="44.0320933" lon="12.1999217"><ele>92.42857142857143</ele><time>2026-04-25T07:08:25.029Z</time></trkpt><trkpt lat="44.0320183" lon="12.1999283"><ele>93.14285714285714</ele><time>2026-04-25T07:08:26.028Z</time></trkpt><trkpt lat="44.0319467" lon="12.1999183"><ele>93.85714285714286</ele><time>2026-04-25T07:08:27.028Z</time></trkpt><trkpt lat="44.0318783" lon="12.199905"><ele>94.57142857142857</ele><time>2026-04-25T07:08:28.029Z</time></trkpt><trkpt lat="44.0318067" lon="12.1999"><ele>95.28571428571428</ele><time>2026-04-25T07:08:29.028Z</time></trkpt><trkpt lat="44.031735" lon="12.1999083"><ele>96.0</ele><time>2026-04-25T07:08:30.029Z</time></trkpt><trkpt lat="44.031665" lon="12.1999217"><ele>94.28571428571428</ele><time>2026-04-25T07:08:31.029Z</time></trkpt><trkpt lat="44.0315983" lon="12.199935"><ele>92.57142857142857</ele><time>2026-04-25T07:08:32.029Z</time></trkpt><trkpt lat="44.0315367" lon="12.19996"><ele>90.85714285714286</ele><time>2026-04-25T07:08:33.029Z</time></trkpt><trkpt lat="44.031475" lon="12.2000017"><ele>89.14285714285714</ele><time>2026-04-25T07:08:34.029Z</time></trkpt><trkpt lat="44.031415" lon="12.200055"><ele>87.42857142857143</ele><time>2026-04-25T07:08:35.028Z</time></trkpt><trkpt lat="44.031355" lon="12.2001083"><ele>85.71428571428571</ele><time>2026-04-25T07:08:36.029Z</time></trkpt><trkpt lat="44.031295" lon="12.2001683"><ele>84.0</ele><time>2026-04-25T07:08:37.029Z</time></trkpt><trkpt lat="44.031235" lon="12.2002317"><ele>84.0</ele><time>2026-04-25T07:08:38.028Z</time></trkpt><trkpt lat="44.0311783" lon="12.2002917"><ele>84.0</ele><time>2026-04-25T07:08:39.029Z</time></trkpt><trkpt lat="44.0311217" lon="12.2003517"><ele>84.0</ele><time>2026-04-25T07:08:40.028Z</time></trkpt><trkpt lat="44.03107" lon="12.2004133"><ele>84.0</ele><time>2026-04-25T07:08:41.029Z</time></trkpt><trkpt lat="44.03102" lon="12.2004783"><ele>84.0</ele><time>2026-04-25T07:08:42.029Z</time></trkpt><trkpt lat="44.0309667" lon="12.2005383"><ele>84.0</ele><time>2026-04-25T07:08:43.029Z</time></trkpt><trkpt lat="44.0309117" lon="12.2005967"><ele>84.0</ele><time>2026-04-25T07:08:44.028Z</time></trkpt><trkpt lat="44.03086" lon="12.2006517"><ele>85.0</ele><time>2026-04-25T07:08:45.029Z</time></trkpt><trkpt lat="44.0308033" lon="12.200705"><ele>86.0</ele><time>2026-04-25T07:08:46.028Z</time></trkpt><trkpt lat="44.0307433" lon="12.2007517"><ele>87.0</ele><time>2026-04-25T07:08:47.029Z</time></trkpt><trkpt lat="44.03063" lon="12.2008383"><ele>88.0</ele><time>2026-04-25T07:08:49.029Z</time></trkpt><trkpt lat="44.0305617" lon="12.2008833"><ele>89.0</ele><time>2026-04-25T07:08:50.028Z</time></trkpt><trkpt lat="44.0304883" lon="12.2009167"><ele>90.0</ele><time>2026-04-25T07:08:51.028Z</time></trkpt><trkpt lat="44.0304217" lon="12.2009383"><ele>90.0</ele><time>2026-04-25T07:08:52.028Z</time></trkpt><trkpt lat="44.0303517" lon="12.2009667"><ele>90.0</ele><time>2026-04-25T07:08:53.029Z</time></trkpt><trkpt lat="44.0302817" lon="12.2009967"><ele>90.0</ele><time>2026-04-25T07:08:54.029Z</time></trkpt><trkpt lat="44.03021" lon="12.2010267"><ele>90.0</ele><time>2026-04-25T07:08:55.029Z</time></trkpt><trkpt lat="44.03014" lon="12.201055"><ele>90.0</ele><time>2026-04-25T07:08:56.029Z</time></trkpt><trkpt lat="44.0300683" lon="12.2010883"><ele>90.0</ele><time>2026-04-25T07:08:57.029Z</time></trkpt><trkpt lat="44.0299983" lon="12.20112"><ele>90.0</ele><time>2026-04-25T07:08:58.029Z</time></trkpt><trkpt lat="44.0299367" lon="12.2011533"><ele>88.66666666666667</ele><time>2026-04-25T07:08:59.028Z</time></trkpt><trkpt lat="44.02987" lon="12.2011867"><ele>87.33333333333333</ele><time>2026-04-25T07:09:00.028Z</time></trkpt><trkpt lat="44.0298083" lon="12.2012267"><ele>86.0</ele><time>2026-04-25T07:09:01.028Z</time></trkpt><trkpt lat="44.0296917" lon="12.2012917"><ele>84.66666666666666</ele><time>2026-04-25T07:09:03.029Z</time></trkpt><trkpt lat="44.0296317" lon="12.201325"><ele>83.33333333333333</ele><time>2026-04-25T07:09:04.029Z</time></trkpt><trkpt lat="44.0295667" lon="12.20136"><ele>82.0</ele><time>2026-04-25T07:09:05.028Z</time></trkpt><trkpt lat="44.0294567" lon="12.2014283"><ele>82.0</ele><time>2026-04-25T07:09:07.028Z</time></trkpt><trkpt lat="44.0294" lon="12.2014667"><ele>82.0</ele><time>2026-04-25T07:09:08.029Z</time></trkpt><trkpt lat="44.0292883" lon="12.201515"><ele>82.0</ele><time>2026-04-25T07:09:10.029Z</time></trkpt><trkpt lat="44.02918" lon="12.2015467"><ele>82.0</ele><time>2026-04-25T07:09:12.029Z</time></trkpt><trkpt lat="44.0290717" lon="12.20158"><ele>82.0</ele><time>2026-04-25T07:09:14.029Z</time></trkpt><trkpt lat="44.0289583" lon="12.20162"><ele>82.6</ele><time>2026-04-25T07:09:16.029Z</time></trkpt><trkpt lat="44.0288467" lon="12.2016933"><ele>83.19999999999999</ele><time>2026-04-25T07:09:18.028Z</time></trkpt><trkpt lat="44.028795" lon="12.2017433"><ele>83.8</ele><time>2026-04-25T07:09:19.029Z</time></trkpt><trkpt lat="44.0287017" lon="12.201855"><ele>84.4</ele><time>2026-04-25T07:09:21.029Z</time></trkpt><trkpt lat="44.0286267" lon="12.2019833"><ele>85.0</ele><time>2026-04-25T07:09:23.029Z</time></trkpt><trkpt lat="44.0285917" lon="12.20206"><ele>85.0</ele><time>2026-04-25T07:09:24.029Z</time></trkpt><trkpt lat="44.0285583" lon="12.2021417"><ele>85.0</ele><time>2026-04-25T07:09:25.028Z</time></trkpt><trkpt lat="44.0285267" lon="12.202225"><ele>85.0</ele><time>2026-04-25T07:09:26.029Z</time></trkpt><trkpt lat="44.028505" lon="12.20239"><ele>85.0</ele><time>2026-04-25T07:09:28.028Z</time></trkpt><trkpt lat="44.02851" lon="12.2025517"><ele>85.0</ele><time>2026-04-25T07:09:30.029Z</time></trkpt><trkpt lat="44.02854" lon="12.2027167"><ele>85.8</ele><time>2026-04-25T07:09:32.029Z</time></trkpt><trkpt lat="44.0285917" lon="12.2028683"><ele>86.6</ele><time>2026-04-25T07:09:34.028Z</time></trkpt><trkpt lat="44.0286633" lon="12.2030083"><ele>87.4</ele><time>2026-04-25T07:09:36.029Z</time></trkpt><trkpt lat="44.028745" lon="12.203145"><ele>88.2</ele><time>2026-04-25T07:09:38.029Z</time></trkpt><trkpt lat="44.0287733" lon="12.20323"><ele>89.0</ele><time>2026-04-25T07:09:39.029Z</time></trkpt><trkpt lat="44.0287933" lon="12.2033233"><ele>89.5</ele><time>2026-04-25T07:09:40.029Z</time></trkpt><trkpt lat="44.0287783" lon="12.2035033"><ele>90.0</ele><time>2026-04-25T07:09:42.029Z</time></trkpt><trkpt lat="44.0287517" lon="12.2035867"><ele>90.5</ele><time>2026-04-25T07:09:43.029Z</time></trkpt><trkpt lat="44.028715" lon="12.20366"><ele>91.0</ele><time>2026-04-25T07:09:44.029Z</time></trkpt><trkpt lat="44.02866" lon="12.2037133"><ele>91.5</ele><time>2026-04-25T07:09:45.029Z</time></trkpt><trkpt lat="44.0285917" lon="12.2037567"><ele>92.0</ele><time>2026-04-25T07:09:46.028Z</time></trkpt><trkpt lat="44.0285283" lon="12.2037817"><ele>92.0</ele><time>2026-04-25T07:09:47.029Z</time></trkpt><trkpt lat="44.0284533" lon="12.2038"><ele>92.0</ele><time>2026-04-25T07:09:48.029Z</time></trkpt><trkpt lat="44.0283817" lon="12.2038167"><ele>92.0</ele><time>2026-04-25T07:09:49.029Z</time></trkpt><trkpt lat="44.028315" lon="12.2038367"><ele>92.0</ele><time>2026-04-25T07:09:50.029Z</time></trkpt><trkpt lat="44.02824" lon="12.2038617"><ele>92.0</ele><time>2026-04-25T07:09:51.029Z</time></trkpt><trkpt lat="44.0281733" lon="12.203885"><ele>92.0</ele><time>2026-04-25T07:09:52.029Z</time></trkpt><trkpt lat="44.0281083" lon="12.20392"><ele>92.0</ele><time>2026-04-25T07:09:53.028Z</time></trkpt><trkpt lat="44.0280483" lon="12.2039533"><ele>92.0</ele><time>2026-04-25T07:09:54.029Z</time></trkpt><trkpt lat="44.02799" lon="12.2039983"><ele>92.0</ele><time>2026-04-25T07:09:55.029Z</time></trkpt><trkpt lat="44.027935" lon="12.2040517"><ele>92.0</ele><time>2026-04-25T07:09:56.028Z</time></trkpt><trkpt lat="44.02788" lon="12.2041033"><ele>92.0</ele><time>2026-04-25T07:09:57.029Z</time></trkpt><trkpt lat="44.027825" lon="12.2041667"><ele>92.0</ele><time>2026-04-25T07:09:58.029Z</time></trkpt><trkpt lat="44.02777" lon="12.20423"><ele>92.0</ele><time>2026-04-25T07:09:59.028Z</time></trkpt><trkpt lat="44.0277217" lon="12.2042983"><ele>92.0</ele><time>2026-04-25T07:10:00.028Z</time></trkpt><trkpt lat="44.0276783" lon="12.2043633"><ele>92.0</ele><time>2026-04-25T07:10:01.028Z</time></trkpt><trkpt lat="44.027595" lon="12.20449"><ele>92.0</ele><time>2026-04-25T07:10:03.029Z</time></trkpt><trkpt lat="44.0275133" lon="12.204605"><ele>92.0</ele><time>2026-04-25T07:10:05.029Z</time></trkpt><trkpt lat="44.02747" lon="12.2046717"><ele>92.0</ele><time>2026-04-25T07:10:06.028Z</time></trkpt><trkpt lat="44.02738" lon="12.2047967"><ele>92.0</ele><time>2026-04-25T07:10:08.029Z</time></trkpt><trkpt lat="44.027325" lon="12.20486"><ele>91.71428571428572</ele><time>2026-04-25T07:10:09.028Z</time></trkpt><trkpt lat="44.0272717" lon="12.2049117"><ele>91.42857142857142</ele><time>2026-04-25T07:10:10.029Z</time></trkpt><trkpt lat="44.027215" lon="12.20496"><ele>91.14285714285714</ele><time>2026-04-25T07:10:11.029Z</time></trkpt><trkpt lat="44.0271533" lon="12.2050017"><ele>90.85714285714286</ele><time>2026-04-25T07:10:12.029Z</time></trkpt><trkpt lat="44.0270917" lon="12.2050333"><ele>90.57142857142858</ele><time>2026-04-25T07:10:13.029Z</time></trkpt><trkpt lat="44.0270267" lon="12.2050617"><ele>90.28571428571428</ele><time>2026-04-25T07:10:14.029Z</time></trkpt><trkpt lat="44.0269633" lon="12.2050817"><ele>90.0</ele><time>2026-04-25T07:10:15.029Z</time></trkpt><trkpt lat="44.0268983" lon="12.2051"><ele>90.0</ele><time>2026-04-25T07:10:16.029Z</time></trkpt><trkpt lat="44.0268317" lon="12.205105"><ele>90.0</ele><time>2026-04-25T07:10:17.028Z</time></trkpt><trkpt lat="44.0267683" lon="12.2051117"><ele>90.0</ele><time>2026-04-25T07:10:18.029Z</time></trkpt><trkpt lat="44.026705" lon="12.2051183"><ele>90.0</ele><time>2026-04-25T07:10:19.028Z</time></trkpt><trkpt lat="44.0265733" lon="12.205125"><ele>90.0</ele><time>2026-04-25T07:10:21.028Z</time></trkpt><trkpt lat="44.0265017" lon="12.2051183"><ele>90.0</ele><time>2026-04-25T07:10:22.028Z</time></trkpt><trkpt lat="44.0264367" lon="12.2051083"><ele>90.25</ele><time>2026-04-25T07:10:23.029Z</time></trkpt><trkpt lat="44.0263117" lon="12.2050983"><ele>90.5</ele><time>2026-04-25T07:10:25.028Z</time></trkpt><trkpt lat="44.0261933" lon="12.20509"><ele>90.75</ele><time>2026-04-25T07:10:27.029Z</time></trkpt><trkpt lat="44.0260733" lon="12.2050833"><ele>91.0</ele><time>2026-04-25T07:10:29.028Z</time></trkpt><trkpt lat="44.02595" lon="12.2050733"><ele>91.0</ele><time>2026-04-25T07:10:31.029Z</time></trkpt><trkpt lat="44.025825" lon="12.2050617"><ele>91.0</ele><time>2026-04-25T07:10:33.028Z</time></trkpt><trkpt lat="44.025705" lon="12.205045"><ele>91.0</ele><time>2026-04-25T07:10:35.029Z</time></trkpt><trkpt lat="44.0255817" lon="12.2050383"><ele>91.0</ele><time>2026-04-25T07:10:37.028Z</time></trkpt><trkpt lat="44.0254667" lon="12.20503"><ele>91.0</ele><time>2026-04-25T07:10:39.028Z</time></trkpt><trkpt lat="44.0253467" lon="12.205015"><ele>91.0</ele><time>2026-04-25T07:10:41.029Z</time></trkpt><trkpt lat="44.02528" lon="12.205"><ele>91.0</ele><time>2026-04-25T07:10:42.029Z</time></trkpt><trkpt lat="44.0251583" lon="12.20498"><ele>91.0</ele><time>2026-04-25T07:10:44.029Z</time></trkpt><trkpt lat="44.0250417" lon="12.20497"><ele>91.0</ele><time>2026-04-25T07:10:46.029Z</time></trkpt><trkpt lat="44.0249267" lon="12.20496"><ele>91.0</ele><time>2026-04-25T07:10:48.028Z</time></trkpt><trkpt lat="44.02481" lon="12.2049467"><ele>91.0</ele><time>2026-04-25T07:10:50.028Z</time></trkpt><trkpt lat="44.0246883" lon="12.20492"><ele>91.0</ele><time>2026-04-25T07:10:52.029Z</time></trkpt><trkpt lat="44.0245717" lon="12.2049"><ele>91.0</ele><time>2026-04-25T07:10:54.029Z</time></trkpt><trkpt lat="44.024455" lon="12.2049"><ele>91.0</ele><time>2026-04-25T07:10:56.029Z</time></trkpt><trkpt lat="44.0243333" lon="12.204895"><ele>91.0</ele><time>2026-04-25T07:10:58.028Z</time></trkpt><trkpt lat="44.0242667" lon="12.2048817"><ele>91.0</ele><time>2026-04-25T07:10:59.029Z</time></trkpt><trkpt lat="44.0242033" lon="12.204875"><ele>91.0</ele><time>2026-04-25T07:11:00.028Z</time></trkpt><trkpt lat="44.02414" lon="12.2048617"><ele>91.0</ele><time>2026-04-25T07:11:01.028Z</time></trkpt><trkpt lat="44.024075" lon="12.204855"><ele>91.0</ele><time>2026-04-25T07:11:02.029Z</time></trkpt><trkpt lat="44.0240083" lon="12.20485"><ele>91.0</ele><time>2026-04-25T07:11:03.029Z</time></trkpt><trkpt lat="44.023945" lon="12.20484"><ele>91.16666666666666</ele><time>2026-04-25T07:11:04.028Z</time></trkpt><trkpt lat="44.02388" lon="12.2048367"><ele>91.33333333333333</ele><time>2026-04-25T07:11:05.029Z</time></trkpt><trkpt lat="44.0238133" lon="12.2048317"><ele>91.5</ele><time>2026-04-25T07:11:06.029Z</time></trkpt><trkpt lat="44.02375" lon="12.20482"><ele>91.66666666666667</ele><time>2026-04-25T07:11:07.028Z</time></trkpt><trkpt lat="44.0236283" lon="12.20481"><ele>91.83333333333334</ele><time>2026-04-25T07:11:09.029Z</time></trkpt><trkpt lat="44.0235633" lon="12.2048033"><ele>92.0</ele><time>2026-04-25T07:11:10.029Z</time></trkpt><trkpt lat="44.023445" lon="12.2047933"><ele>92.0</ele><time>2026-04-25T07:11:12.029Z</time></trkpt><trkpt lat="44.0233233" lon="12.204775"><ele>92.0</ele><time>2026-04-25T07:11:14.029Z</time></trkpt><trkpt lat="44.02325" lon="12.20476"><ele>92.0</ele><time>2026-04-25T07:11:15.029Z</time></trkpt><trkpt lat="44.0231833" lon="12.2047433"><ele>92.0</ele><time>2026-04-25T07:11:16.028Z</time></trkpt><trkpt lat="44.0230583" lon="12.2047317"><ele>92.0</ele><time>2026-04-25T07:11:18.028Z</time></trkpt><trkpt lat="44.0229933" lon="12.2047267"><ele>91.85714285714286</ele><time>2026-04-25T07:11:19.029Z</time></trkpt><trkpt lat="44.0229267" lon="12.20472"><ele>91.71428571428571</ele><time>2026-04-25T07:11:20.029Z</time></trkpt><trkpt lat="44.0228617" lon="12.2047067"><ele>91.57142857142857</ele><time>2026-04-25T07:11:21.028Z</time></trkpt><trkpt lat="44.0227967" lon="12.2047017"><ele>91.42857142857143</ele><time>2026-04-25T07:11:22.028Z</time></trkpt><trkpt lat="44.02273" lon="12.204705"><ele>91.28571428571428</ele><time>2026-04-25T07:11:23.028Z</time></trkpt><trkpt lat="44.0226667" lon="12.2047"><ele>91.14285714285714</ele><time>2026-04-25T07:11:24.029Z</time></trkpt><trkpt lat="44.0226" lon="12.2046883"><ele>91.0</ele><time>2026-04-25T07:11:25.028Z</time></trkpt><trkpt lat="44.0225367" lon="12.2046867"><ele>91.0</ele><time>2026-04-25T07:11:26.029Z</time></trkpt><trkpt lat="44.0224733" lon="12.2046817"><ele>91.0</ele><time>2026-04-25T07:11:27.029Z</time></trkpt><trkpt lat="44.0224083" lon="12.2046733"><ele>91.0</ele><time>2026-04-25T07:11:28.028Z</time></trkpt><trkpt lat="44.0222867" lon="12.204675"><ele>91.0</ele><time>2026-04-25T07:11:30.028Z</time></trkpt><trkpt lat="44.0222233" lon="12.2046667"><ele>91.0</ele><time>2026-04-25T07:11:31.028Z</time></trkpt><trkpt lat="44.0221583" lon="12.2046633"><ele>91.0</ele><time>2026-04-25T07:11:32.029Z</time></trkpt><trkpt lat="44.022035" lon="12.2046517"><ele>91.0</ele><time>2026-04-25T07:11:34.028Z</time></trkpt><trkpt lat="44.02191" lon="12.2046283"><ele>91.0</ele><time>2026-04-25T07:11:36.029Z</time></trkpt><trkpt lat="44.0217867" lon="12.2046183"><ele>91.0</ele><time>2026-04-25T07:11:38.029Z</time></trkpt><trkpt lat="44.0217233" lon="12.2046083"><ele>91.0</ele><time>2026-04-25T07:11:39.029Z</time></trkpt><trkpt lat="44.0216083" lon="12.2045983"><ele>91.0</ele><time>2026-04-25T07:11:41.029Z</time></trkpt><trkpt lat="44.0214783" lon="12.2045733"><ele>91.0</ele><time>2026-04-25T07:11:43.029Z</time></trkpt><trkpt lat="44.0214117" lon="12.204575"><ele>91.0</ele><time>2026-04-25T07:11:44.029Z</time></trkpt><trkpt lat="44.0213467" lon="12.2045683"><ele>91.0</ele><time>2026-04-25T07:11:45.028Z</time></trkpt><trkpt lat="44.0212817" lon="12.204565"><ele>91.0</ele><time>2026-04-25T07:11:46.028Z</time></trkpt><trkpt lat="44.0212183" lon="12.20456"><ele>91.0</ele><time>2026-04-25T07:11:47.028Z</time></trkpt><trkpt lat="44.0210917" lon="12.2045517"><ele>91.0</ele><time>2026-04-25T07:11:49.029Z</time></trkpt><trkpt lat="44.0210267" lon="12.2045433"><ele>91.0</ele><time>2026-04-25T07:11:50.028Z</time></trkpt><trkpt lat="44.0209583" lon="12.2045333"><ele>91.0</ele><time>2026-04-25T07:11:51.029Z</time></trkpt><trkpt lat="44.0208333" lon="12.2045183"><ele>91.0</ele><time>2026-04-25T07:11:53.029Z</time></trkpt><trkpt lat="44.02077" lon="12.204515"><ele>91.0</ele><time>2026-04-25T07:11:54.028Z</time></trkpt><trkpt lat="44.0206467" lon="12.2045"><ele>91.0</ele><time>2026-04-25T07:11:56.029Z</time></trkpt><trkpt lat="44.0205317" lon="12.2044983"><ele>90.83333333333333</ele><time>2026-04-25T07:11:58.029Z</time></trkpt><trkpt lat="44.020425" lon="12.2044933"><ele>90.66666666666666</ele><time>2026-04-25T07:12:00.028Z</time></trkpt><trkpt lat="44.0203017" lon="12.2044933"><ele>90.5</ele><time>2026-04-25T07:12:02.029Z</time></trkpt><trkpt lat="44.0202383" lon="12.204495"><ele>90.33333333333333</ele><time>2026-04-25T07:12:03.029Z</time></trkpt><trkpt lat="44.0201733" lon="12.2044917"><ele>90.16666666666667</ele><time>2026-04-25T07:12:04.028Z</time></trkpt><trkpt lat="44.0201017" lon="12.2044933"><ele>90.0</ele><time>2026-04-25T07:12:05.029Z</time></trkpt><trkpt lat="44.0200333" lon="12.2044933"><ele>89.57142857142857</ele><time>2026-04-25T07:12:06.028Z</time></trkpt><trkpt lat="44.019965" lon="12.2045017"><ele>89.14285714285715</ele><time>2026-04-25T07:12:07.028Z</time></trkpt><trkpt lat="44.0198933" lon="12.2045133"><ele>88.71428571428572</ele><time>2026-04-25T07:12:08.029Z</time></trkpt><trkpt lat="44.0198283" lon="12.20452"><ele>88.28571428571428</ele><time>2026-04-25T07:12:09.028Z</time></trkpt><trkpt lat="44.019755" lon="12.204525"><ele>87.85714285714286</ele><time>2026-04-25T07:12:10.029Z</time></trkpt><trkpt lat="44.0196867" lon="12.2045367"><ele>87.42857142857143</ele><time>2026-04-25T07:12:11.029Z</time></trkpt><trkpt lat="44.019615" lon="12.2045467"><ele>87.0</ele><time>2026-04-25T07:12:12.028Z</time></trkpt><trkpt lat="44.0195383" lon="12.204555"><ele>87.0</ele><time>2026-04-25T07:12:13.028Z</time></trkpt><trkpt lat="44.019465" lon="12.204575"><ele>87.0</ele><time>2026-04-25T07:12:14.029Z</time></trkpt><trkpt lat="44.0193883" lon="12.2045933"><ele>87.0</ele><time>2026-04-25T07:12:15.029Z</time></trkpt><trkpt lat="44.0193233" lon="12.20462"><ele>87.0</ele><time>2026-04-25T07:12:16.028Z</time></trkpt><trkpt lat="44.0192433" lon="12.20462"><ele>87.0</ele><time>2026-04-25T07:12:17.029Z</time></trkpt><trkpt lat="44.0191683" lon="12.2046283"><ele>87.0</ele><time>2026-04-25T07:12:18.029Z</time></trkpt><trkpt lat="44.01909" lon="12.2046417"><ele>87.0</ele><time>2026-04-25T07:12:19.029Z</time></trkpt><trkpt lat="44.019015" lon="12.2046517"><ele>87.0</ele><time>2026-04-25T07:12:20.029Z</time></trkpt><trkpt lat="44.018945" lon="12.2046767"><ele>87.0</ele><time>2026-04-25T07:12:21.028Z</time></trkpt><trkpt lat="44.0188733" lon="12.2046917"><ele>87.0</ele><time>2026-04-25T07:12:22.028Z</time></trkpt><trkpt lat="44.0187933" lon="12.2047017"><ele>87.0</ele><time>2026-04-25T07:12:23.029Z</time></trkpt><trkpt lat="44.018715" lon="12.20472"><ele>87.0</ele><time>2026-04-25T07:12:24.029Z</time></trkpt><trkpt lat="44.01864" lon="12.2047317"><ele>87.0</ele><time>2026-04-25T07:12:25.029Z</time></trkpt><trkpt lat="44.0185683" lon="12.2047483"><ele>87.0</ele><time>2026-04-25T07:12:26.028Z</time></trkpt><trkpt lat="44.0184933" lon="12.2047617"><ele>87.0</ele><time>2026-04-25T07:12:27.029Z</time></trkpt><trkpt lat="44.0184167" lon="12.20478"><ele>87.0</ele><time>2026-04-25T07:12:28.029Z</time></trkpt><trkpt lat="44.0183467" lon="12.204795"><ele>87.0</ele><time>2026-04-25T07:12:29.029Z</time></trkpt><trkpt lat="44.0182733" lon="12.204815"><ele>87.0</ele><time>2026-04-25T07:12:30.03Z</time></trkpt><trkpt lat="44.0182017" lon="12.2048267"><ele>87.0</ele><time>2026-04-25T07:12:31.03Z</time></trkpt><trkpt lat="44.0181333" lon="12.2048433"><ele>86.85714285714286</ele><time>2026-04-25T07:12:32.03Z</time></trkpt><trkpt lat="44.018065" lon="12.20486"><ele>86.71428571428572</ele><time>2026-04-25T07:12:33.03Z</time></trkpt><trkpt lat="44.0179967" lon="12.2048817"><ele>86.57142857142858</ele><time>2026-04-25T07:12:34.03Z</time></trkpt><trkpt lat="44.017925" lon="12.2049017"><ele>86.42857142857143</ele><time>2026-04-25T07:12:35.03Z</time></trkpt><trkpt lat="44.0178533" lon="12.2049183"><ele>86.28571428571429</ele><time>2026-04-25T07:12:36.03Z</time></trkpt><trkpt lat="44.0177833" lon="12.2049317"><ele>86.14285714285715</ele><time>2026-04-25T07:12:37.029Z</time></trkpt><trkpt lat="44.0177167" lon="12.2049483"><ele>86.0</ele><time>2026-04-25T07:12:38.03Z</time></trkpt><trkpt lat="44.01765" lon="12.2049583"><ele>86.00000000000001</ele><time>2026-04-25T07:12:39.03Z</time></trkpt><trkpt lat="44.01758" lon="12.2049783"><ele>86.0</ele><time>2026-04-25T07:12:40.03Z</time></trkpt><trkpt lat="44.017515" lon="12.2049883"><ele>86.0</ele><time>2026-04-25T07:12:41.03Z</time></trkpt><trkpt lat="44.0174483" lon="12.2049917"><ele>86.0</ele><time>2026-04-25T07:12:42.029Z</time></trkpt><trkpt lat="44.017375" lon="12.2050067"><ele>86.0</ele><time>2026-04-25T07:12:43.03Z</time></trkpt><trkpt lat="44.0173033" lon="12.2050217"><ele>86.00000000000001</ele><time>2026-04-25T07:12:44.03Z</time></trkpt><trkpt lat="44.017235" lon="12.2050317"><ele>86.0</ele><time>2026-04-25T07:12:45.03Z</time></trkpt><trkpt lat="44.017165" lon="12.2050433"><ele>86.0</ele><time>2026-04-25T07:12:46.03Z</time></trkpt><trkpt lat="44.0170983" lon="12.2050583"><ele>86.0</ele><time>2026-04-25T07:12:47.029Z</time></trkpt><trkpt lat="44.0170333" lon="12.205075"><ele>86.0</ele><time>2026-04-25T07:12:48.029Z</time></trkpt><trkpt lat="44.0169117" lon="12.205095"><ele>86.0</ele><time>2026-04-25T07:12:50.029Z</time></trkpt><trkpt lat="44.0168417" lon="12.20511"><ele>86.0</ele><time>2026-04-25T07:12:51.03Z</time></trkpt><trkpt lat="44.01677" lon="12.2051267"><ele>86.0</ele><time>2026-04-25T07:12:52.029Z</time></trkpt><trkpt lat="44.0167017" lon="12.20515"><ele>86.00000000000001</ele><time>2026-04-25T07:12:53.03Z</time></trkpt><trkpt lat="44.01663" lon="12.20517"><ele>86.0</ele><time>2026-04-25T07:12:54.03Z</time></trkpt><trkpt lat="44.0165617" lon="12.2051783"><ele>86.0</ele><time>2026-04-25T07:12:55.029Z</time></trkpt><trkpt lat="44.0164983" lon="12.2051883"><ele>86.0</ele><time>2026-04-25T07:12:56.03Z</time></trkpt><trkpt lat="44.016435" lon="12.2051967"><ele>86.0</ele><time>2026-04-25T07:12:57.029Z</time></trkpt><trkpt lat="44.01637" lon="12.2052133"><ele>86.00000000000001</ele><time>2026-04-25T07:12:58.03Z</time></trkpt><trkpt lat="44.016305" lon="12.2052317"><ele>86.0</ele><time>2026-04-25T07:12:59.03Z</time></trkpt><trkpt lat="44.0162383" lon="12.205245"><ele>86.00000000000001</ele><time>2026-04-25T07:13:00.03Z</time></trkpt><trkpt lat="44.0161717" lon="12.2052667"><ele>86.0</ele><time>2026-04-25T07:13:01.03Z</time></trkpt><trkpt lat="44.0161033" lon="12.2052867"><ele>86.0</ele><time>2026-04-25T07:13:02.029Z</time></trkpt><trkpt lat="44.0160367" lon="12.2053033"><ele>86.0</ele><time>2026-04-25T07:13:03.03Z</time></trkpt><trkpt lat="44.0159717" lon="12.2053167"><ele>86.0</ele><time>2026-04-25T07:13:04.03Z</time></trkpt><trkpt lat="44.0159067" lon="12.205335"><ele>86.00000000000001</ele><time>2026-04-25T07:13:05.03Z</time></trkpt><trkpt lat="44.0158433" lon="12.2053467"><ele>86.0</ele><time>2026-04-25T07:13:06.03Z</time></trkpt><trkpt lat="44.0157783" lon="12.20536"><ele>86.00000000000001</ele><time>2026-04-25T07:13:07.029Z</time></trkpt><trkpt lat="44.015715" lon="12.205375"><ele>86.0</ele><time>2026-04-25T07:13:08.029Z</time></trkpt><trkpt lat="44.0156467" lon="12.2053883"><ele>86.0</ele><time>2026-04-25T07:13:09.03Z</time></trkpt><trkpt lat="44.0155783" lon="12.2053983"><ele>86.0</ele><time>2026-04-25T07:13:10.03Z</time></trkpt><trkpt lat="44.01551" lon="12.2054083"><ele>86.0</ele><time>2026-04-25T07:13:11.03Z</time></trkpt><trkpt lat="44.0154433" lon="12.205425"><ele>86.00000000000001</ele><time>2026-04-25T07:13:12.03Z</time></trkpt><trkpt lat="44.0153783" lon="12.20543"><ele>86.0</ele><time>2026-04-25T07:13:13.029Z</time></trkpt><trkpt lat="44.0153117" lon="12.2054333"><ele>86.00000000000001</ele><time>2026-04-25T07:13:14.029Z</time></trkpt><trkpt lat="44.0152483" lon="12.2054367"><ele>86.0</ele><time>2026-04-25T07:13:15.029Z</time></trkpt><trkpt lat="44.015185" lon="12.20543"><ele>86.0</ele><time>2026-04-25T07:13:16.029Z</time></trkpt><trkpt lat="44.0151217" lon="12.2054017"><ele>86.0</ele><time>2026-04-25T07:13:17.029Z</time></trkpt><trkpt lat="44.0150633" lon="12.20536"><ele>86.0</ele><time>2026-04-25T07:13:18.029Z</time></trkpt><trkpt lat="44.0150117" lon="12.2052983"><ele>86.00000000000001</ele><time>2026-04-25T07:13:19.029Z</time></trkpt><trkpt lat="44.014955" lon="12.205245"><ele>86.0</ele><time>2026-04-25T07:13:20.029Z</time></trkpt><trkpt lat="44.014835" lon="12.2052083"><ele>86.16666666666667</ele><time>2026-04-25T07:13:22.03Z</time></trkpt><trkpt lat="44.0147283" lon="12.205275"><ele>86.33333333333334</ele><time>2026-04-25T07:13:24.03Z</time></trkpt><trkpt lat="44.0146717" lon="12.2053267"><ele>86.5</ele><time>2026-04-25T07:13:25.03Z</time></trkpt><trkpt lat="44.014615" lon="12.2053783"><ele>86.66666666666667</ele><time>2026-04-25T07:13:26.03Z</time></trkpt><trkpt lat="44.0145633" lon="12.2054317"><ele>86.83333333333333</ele><time>2026-04-25T07:13:27.03Z</time></trkpt><trkpt lat="44.0145" lon="12.2054717"><ele>87.0</ele><time>2026-04-25T07:13:28.03Z</time></trkpt><trkpt lat="44.0143817" lon="12.2055017"><ele>87.0</ele><time>2026-04-25T07:13:30.03Z</time></trkpt><trkpt lat="44.014315" lon="12.205495"><ele>87.0</ele><time>2026-04-25T07:13:31.029Z</time></trkpt><trkpt lat="44.0142483" lon="12.2054867"><ele>87.0</ele><time>2026-04-25T07:13:32.03Z</time></trkpt><trkpt lat="44.0141833" lon="12.2054767"><ele>87.0</ele><time>2026-04-25T07:13:33.03Z</time></trkpt><trkpt lat="44.0141117" lon="12.2054733"><ele>87.0</ele><time>2026-04-25T07:13:34.03Z</time></trkpt><trkpt lat="44.0140483" lon="12.2054633"><ele>87.0</ele><time>2026-04-25T07:13:35.03Z</time></trkpt><trkpt lat="44.01398" lon="12.2054483"><ele>87.0</ele><time>2026-04-25T07:13:36.03Z</time></trkpt><trkpt lat="44.0139183" lon="12.20543"><ele>87.0</ele><time>2026-04-25T07:13:37.029Z</time></trkpt><trkpt lat="44.013805" lon="12.20538"><ele>87.0</ele><time>2026-04-25T07:13:39.03Z</time></trkpt><trkpt lat="44.0137433" lon="12.2053583"><ele>87.0</ele><time>2026-04-25T07:13:40.03Z</time></trkpt><trkpt lat="44.0136783" lon="12.2053283"><ele>87.0</ele><time>2026-04-25T07:13:41.03Z</time></trkpt><trkpt lat="44.0136183" lon="12.2052983"><ele>87.0</ele><time>2026-04-25T07:13:42.03Z</time></trkpt><trkpt lat="44.0135567" lon="12.205275"><ele>87.0</ele><time>2026-04-25T07:13:43.03Z</time></trkpt><trkpt lat="44.0134417" lon="12.2052233"><ele>87.0</ele><time>2026-04-25T07:13:45.029Z</time></trkpt><trkpt lat="44.013325" lon="12.2051683"><ele>87.0</ele><time>2026-04-25T07:13:47.029Z</time></trkpt><trkpt lat="44.0132117" lon="12.2051167"><ele>87.0</ele><time>2026-04-25T07:13:49.029Z</time></trkpt><trkpt lat="44.0130883" lon="12.20507"><ele>87.0</ele><time>2026-04-25T07:13:51.03Z</time></trkpt><trkpt lat="44.0129667" lon="12.2050233"><ele>87.19999999999999</ele><time>2026-04-25T07:13:53.029Z</time></trkpt><trkpt lat="44.0129017" lon="12.205005"><ele>87.4</ele><time>2026-04-25T07:13:54.03Z</time></trkpt><trkpt lat="44.0127917" lon="12.2049567"><ele>87.6</ele><time>2026-04-25T07:13:56.029Z</time></trkpt><trkpt lat="44.0126783" lon="12.2048983"><ele>87.80000000000001</ele><time>2026-04-25T07:13:58.03Z</time></trkpt><trkpt lat="44.0125683" lon="12.2048633"><ele>88.0</ele><time>2026-04-25T07:14:00.029Z</time></trkpt><trkpt lat="44.01246" lon="12.2048117"><ele>88.2</ele><time>2026-04-25T07:14:02.03Z</time></trkpt><trkpt lat="44.0124" lon="12.2047833"><ele>88.4</ele><time>2026-04-25T07:14:03.029Z</time></trkpt><trkpt lat="44.0122867" lon="12.2047317"><ele>88.60000000000001</ele><time>2026-04-25T07:14:05.03Z</time></trkpt><trkpt lat="44.012175" lon="12.2046717"><ele>88.80000000000001</ele><time>2026-04-25T07:14:07.03Z</time></trkpt><trkpt lat="44.0120633" lon="12.2046183"><ele>89.0</ele><time>2026-04-25T07:14:09.029Z</time></trkpt><trkpt lat="44.01196" lon="12.2045733"><ele>89.0</ele><time>2026-04-25T07:14:11.03Z</time></trkpt><trkpt lat="44.0118517" lon="12.20453"><ele>89.0</ele><time>2026-04-25T07:14:13.03Z</time></trkpt><trkpt lat="44.0117483" lon="12.2044783"><ele>89.0</ele><time>2026-04-25T07:14:15.029Z</time></trkpt><trkpt lat="44.01164" lon="12.20443"><ele>89.0</ele><time>2026-04-25T07:14:17.03Z</time></trkpt><trkpt lat="44.0115317" lon="12.2043867"><ele>89.0</ele><time>2026-04-25T07:14:19.029Z</time></trkpt><trkpt lat="44.0114283" lon="12.2043433"><ele>89.0</ele><time>2026-04-25T07:14:21.03Z</time></trkpt><trkpt lat="44.0113317" lon="12.2042967"><ele>89.0</ele><time>2026-04-25T07:14:23.029Z</time></trkpt><trkpt lat="44.0112433" lon="12.204225"><ele>89.0</ele><time>2026-04-25T07:14:25.03Z</time></trkpt><trkpt lat="44.0111633" lon="12.2041467"><ele>89.0</ele><time>2026-04-25T07:14:27.029Z</time></trkpt><trkpt lat="44.0111067" lon="12.204035"><ele>89.0</ele><time>2026-04-25T07:14:29.03Z</time></trkpt><trkpt lat="44.01107" lon="12.2038933"><ele>89.0</ele><time>2026-04-25T07:14:31.03Z</time></trkpt><trkpt lat="44.0110583" lon="12.2037433"><ele>89.0</ele><time>2026-04-25T07:14:33.03Z</time></trkpt><trkpt lat="44.01106" lon="12.203595"><ele>89.0</ele><time>2026-04-25T07:14:35.029Z</time></trkpt><trkpt lat="44.0110833" lon="12.20344"><ele>89.0</ele><time>2026-04-25T07:14:37.029Z</time></trkpt><trkpt lat="44.011115" lon="12.2033"><ele>89.0</ele><time>2026-04-25T07:14:39.03Z</time></trkpt><trkpt lat="44.0111433" lon="12.2031567"><ele>88.80000000000001</ele><time>2026-04-25T07:14:41.03Z</time></trkpt><trkpt lat="44.011185" lon="12.203025"><ele>88.60000000000001</ele><time>2026-04-25T07:14:43.029Z</time></trkpt><trkpt lat="44.0112317" lon="12.2028883"><ele>88.4</ele><time>2026-04-25T07:14:45.029Z</time></trkpt><trkpt lat="44.01127" lon="12.2027667"><ele>88.2</ele><time>2026-04-25T07:14:47.03Z</time></trkpt><trkpt lat="44.0113017" lon="12.202635"><ele>88.0</ele><time>2026-04-25T07:14:49.029Z</time></trkpt><trkpt lat="44.0113367" lon="12.2024933"><ele>88.0</ele><time>2026-04-25T07:14:51.03Z</time></trkpt><trkpt lat="44.01138" lon="12.2023383"><ele>88.0</ele><time>2026-04-25T07:14:53.03Z</time></trkpt><trkpt lat="44.01142" lon="12.2021783"><ele>88.0</ele><time>2026-04-25T07:14:55.03Z</time></trkpt><trkpt lat="44.01145" lon="12.2020317"><ele>88.0</ele><time>2026-04-25T07:14:57.03Z</time></trkpt><trkpt lat="44.0114883" lon="12.2018883"><ele>87.4</ele><time>2026-04-25T07:14:59.03Z</time></trkpt><trkpt lat="44.0115317" lon="12.2017483"><ele>86.80000000000001</ele><time>2026-04-25T07:15:01.03Z</time></trkpt><trkpt lat="44.0115667" lon="12.20162"><ele>86.2</ele><time>2026-04-25T07:15:03.03Z</time></trkpt><trkpt lat="44.0116" lon="12.2015"><ele>85.6</ele><time>2026-04-25T07:15:05.03Z</time></trkpt><trkpt lat="44.011635" lon="12.2013933"><ele>85.0</ele><time>2026-04-25T07:15:07.03Z</time></trkpt><trkpt lat="44.0116583" lon="12.2012833"><ele>86.0</ele><time>2026-04-25T07:15:09.03Z</time></trkpt><trkpt lat="44.01166" lon="12.201195"><ele>87.0</ele><time>2026-04-25T07:15:11.03Z</time></trkpt><trkpt lat="44.0116717" lon="12.2010967"><ele>88.0</ele><time>2026-04-25T07:15:14.03Z</time></trkpt><trkpt lat="44.0116733" lon="12.201005"><ele>89.0</ele><time>2026-04-25T07:15:17.029Z</time></trkpt><trkpt lat="44.0116483" lon="12.2009017"><ele>90.0</ele><time>2026-04-25T07:15:22.03Z</time></trkpt><trkpt lat="44.011605" lon="12.2007967"><ele>91.0</ele><time>2026-04-25T07:15:26.03Z</time></trkpt><trkpt lat="44.011565" lon="12.2007083"><ele>92.0</ele><time>2026-04-25T07:15:29.03Z</time></trkpt><trkpt lat="44.0115133" lon="12.200615"><ele>93.14285714285715</ele><time>2026-04-25T07:15:32.03Z</time></trkpt><trkpt lat="44.0114667" lon="12.200555"><ele>94.28571428571428</ele><time>2026-04-25T07:15:34.03Z</time></trkpt><trkpt lat="44.0114133" lon="12.200505"><ele>95.42857142857143</ele><time>2026-04-25T07:15:36.03Z</time></trkpt><trkpt lat="44.0113533" lon="12.2004767"><ele>96.57142857142858</ele><time>2026-04-25T07:15:38.03Z</time></trkpt><trkpt lat="44.0112683" lon="12.20042"><ele>97.71428571428572</ele><time>2026-04-25T07:15:41.029Z</time></trkpt><trkpt lat="44.0112083" lon="12.2003783"><ele>98.85714285714286</ele><time>2026-04-25T07:15:43.029Z</time></trkpt><trkpt lat="44.0111367" lon="12.2003383"><ele>100.0</ele><time>2026-04-25T07:15:45.03Z</time></trkpt><trkpt lat="44.011075" lon="12.20029"><ele>100.00000000000001</ele><time>2026-04-25T07:15:47.029Z</time></trkpt><trkpt lat="44.011005" lon="12.200255"><ele>100.0</ele><time>2026-04-25T07:15:49.03Z</time></trkpt><trkpt lat="44.01094" lon="12.2002117"><ele>100.0</ele><time>2026-04-25T07:15:51.03Z</time></trkpt><trkpt lat="44.01087" lon="12.2001683"><ele>100.0</ele><time>2026-04-25T07:15:53.03Z</time></trkpt><trkpt lat="44.0108017" lon="12.2001183"><ele>100.00000000000001</ele><time>2026-04-25T07:15:55.029Z</time></trkpt><trkpt lat="44.0107383" lon="12.2000733"><ele>100.0</ele><time>2026-04-25T07:15:57.03Z</time></trkpt><trkpt lat="44.0106717" lon="12.2000167"><ele>99.66666666666667</ele><time>2026-04-25T07:15:59.029Z</time></trkpt><trkpt lat="44.0106117" lon="12.1999567"><ele>99.33333333333334</ele><time>2026-04-25T07:16:01.029Z</time></trkpt><trkpt lat="44.0105383" lon="12.19991"><ele>99.0</ele><time>2026-04-25T07:16:03.03Z</time></trkpt><trkpt lat="44.01047" lon="12.199855"><ele>98.66666666666666</ele><time>2026-04-25T07:16:05.03Z</time></trkpt><trkpt lat="44.0104033" lon="12.1997933"><ele>98.33333333333333</ele><time>2026-04-25T07:16:07.029Z</time></trkpt><trkpt lat="44.0103467" lon="12.199735"><ele>98.0</ele><time>2026-04-25T07:16:09.03Z</time></trkpt><trkpt lat="44.01029" lon="12.1996717"><ele>97.99999999999999</ele><time>2026-04-25T07:16:11.029Z</time></trkpt><trkpt lat="44.0102217" lon="12.1996"><ele>98.0</ele><time>2026-04-25T07:16:13.03Z</time></trkpt><trkpt lat="44.0101483" lon="12.1995117"><ele>98.0</ele><time>2026-04-25T07:16:15.029Z</time></trkpt><trkpt lat="44.01008" lon="12.1994333"><ele>98.0</ele><time>2026-04-25T07:16:17.03Z</time></trkpt><trkpt lat="44.0100267" lon="12.1993667"><ele>97.99999999999999</ele><time>2026-04-25T07:16:19.03Z</time></trkpt><trkpt lat="44.009965" lon="12.1992967"><ele>98.0</ele><time>2026-04-25T07:16:21.03Z</time></trkpt><trkpt lat="44.0099067" lon="12.199215"><ele>97.99999999999999</ele><time>2026-04-25T07:16:23.029Z</time></trkpt><trkpt lat="44.00985" lon="12.1991383"><ele>98.0</ele><time>2026-04-25T07:16:25.03Z</time></trkpt><trkpt lat="44.0097867" lon="12.199065"><ele>98.0</ele><time>2026-04-25T07:16:27.029Z</time></trkpt><trkpt lat="44.0097267" lon="12.1989917"><ele>98.0</ele><time>2026-04-25T07:16:29.03Z</time></trkpt><trkpt lat="44.0096717" lon="12.198935"><ele>97.99999999999999</ele><time>2026-04-25T07:16:31.03Z</time></trkpt><trkpt lat="44.009615" lon="12.1988833"><ele>98.0</ele><time>2026-04-25T07:16:33.029Z</time></trkpt><trkpt lat="44.0095517" lon="12.1988317"><ele>97.99999999999999</ele><time>2026-04-25T07:16:35.03Z</time></trkpt><trkpt lat="44.009485" lon="12.1987917"><ele>98.0</ele><time>2026-04-25T07:16:37.03Z</time></trkpt><trkpt lat="44.0094133" lon="12.1987567"><ele>98.0</ele><time>2026-04-25T07:16:39.029Z</time></trkpt><trkpt lat="44.00934" lon="12.19872"><ele>98.0</ele><time>2026-04-25T07:16:41.03Z</time></trkpt><trkpt lat="44.0092583" lon="12.1986833"><ele>97.99999999999999</ele><time>2026-04-25T07:16:43.03Z</time></trkpt><trkpt lat="44.0091733" lon="12.1986467"><ele>98.0</ele><time>2026-04-25T07:16:45.03Z</time></trkpt><trkpt lat="44.0090933" lon="12.198615"><ele>97.83333333333333</ele><time>2026-04-25T07:16:47.029Z</time></trkpt><trkpt lat="44.0090183" lon="12.198585"><ele>97.66666666666666</ele><time>2026-04-25T07:16:49.03Z</time></trkpt><trkpt lat="44.0089383" lon="12.19857"><ele>97.5</ele><time>2026-04-25T07:16:51.029Z</time></trkpt><trkpt lat="44.00886" lon="12.1985467"><ele>97.33333333333334</ele><time>2026-04-25T07:16:53.029Z</time></trkpt><trkpt lat="44.0087817" lon="12.19853"><ele>97.16666666666667</ele><time>2026-04-25T07:16:55.03Z</time></trkpt><trkpt lat="44.0087" lon="12.1985233"><ele>97.0</ele><time>2026-04-25T07:16:57.029Z</time></trkpt><trkpt lat="44.0086217" lon="12.1985183"><ele>97.00000000000001</ele><time>2026-04-25T07:16:59.03Z</time></trkpt><trkpt lat="44.0085433" lon="12.1985133"><ele>97.0</ele><time>2026-04-25T07:17:01.03Z</time></trkpt><trkpt lat="44.0084667" lon="12.19852"><ele>97.0</ele><time>2026-04-25T07:17:03.03Z</time></trkpt><trkpt lat="44.0083983" lon="12.1985217"><ele>97.0</ele><time>2026-04-25T07:17:05.03Z</time></trkpt><trkpt lat="44.0083233" lon="12.19853"><ele>97.00000000000001</ele><time>2026-04-25T07:17:07.03Z</time></trkpt><trkpt lat="44.0082517" lon="12.1985367"><ele>97.0</ele><time>2026-04-25T07:17:09.03Z</time></trkpt><trkpt lat="44.0081617" lon="12.1985517"><ele>96.83333333333334</ele><time>2026-04-25T07:17:11.03Z</time></trkpt><trkpt lat="44.0080767" lon="12.1985733"><ele>96.66666666666667</ele><time>2026-04-25T07:17:13.03Z</time></trkpt><trkpt lat="44.007995" lon="12.19859"><ele>96.5</ele><time>2026-04-25T07:17:15.03Z</time></trkpt><trkpt lat="44.00791" lon="12.1986033"><ele>96.33333333333334</ele><time>2026-04-25T07:17:17.029Z</time></trkpt><trkpt lat="44.00782" lon="12.1986183"><ele>96.16666666666667</ele><time>2026-04-25T07:17:19.029Z</time></trkpt><trkpt lat="44.007735" lon="12.1986333"><ele>96.0</ele><time>2026-04-25T07:17:21.03Z</time></trkpt><trkpt lat="44.007655" lon="12.19865"><ele>96.0</ele><time>2026-04-25T07:17:23.029Z</time></trkpt><trkpt lat="44.0075733" lon="12.1986583"><ele>96.0</ele><time>2026-04-25T07:17:25.029Z</time></trkpt><trkpt lat="44.0074917" lon="12.198675"><ele>96.0</ele><time>2026-04-25T07:17:27.03Z</time></trkpt><trkpt lat="44.0074083" lon="12.1986883"><ele>96.0</ele><time>2026-04-25T07:17:29.03Z</time></trkpt><trkpt lat="44.007335" lon="12.1987083"><ele>96.0</ele><time>2026-04-25T07:17:31.03Z</time></trkpt><trkpt lat="44.0072533" lon="12.1987283"><ele>96.0</ele><time>2026-04-25T07:17:33.029Z</time></trkpt><trkpt lat="44.0071683" lon="12.1987367"><ele>96.33333333333333</ele><time>2026-04-25T07:17:35.03Z</time></trkpt><trkpt lat="44.007085" lon="12.1987483"><ele>96.66666666666666</ele><time>2026-04-25T07:17:37.029Z</time></trkpt><trkpt lat="44.0070067" lon="12.198765"><ele>97.0</ele><time>2026-04-25T07:17:39.029Z</time></trkpt><trkpt lat="44.00692" lon="12.1987817"><ele>97.33333333333333</ele><time>2026-04-25T07:17:41.03Z</time></trkpt><trkpt lat="44.0068333" lon="12.1988"><ele>97.66666666666666</ele><time>2026-04-25T07:17:43.029Z</time></trkpt><trkpt lat="44.00674" lon="12.1988167"><ele>98.0</ele><time>2026-04-25T07:17:45.029Z</time></trkpt><trkpt lat="44.00665" lon="12.19883"><ele>98.4</ele><time>2026-04-25T07:17:47.03Z</time></trkpt><trkpt lat="44.0065567" lon="12.19886"><ele>98.80000000000001</ele><time>2026-04-25T07:17:49.03Z</time></trkpt><trkpt lat="44.006475" lon="12.1988783"><ele>99.2</ele><time>2026-04-25T07:17:51.03Z</time></trkpt><trkpt lat="44.006385" lon="12.198895"><ele>99.6</ele><time>2026-04-25T07:17:53.03Z</time></trkpt><trkpt lat="44.0062917" lon="12.19891"><ele>100.0</ele><time>2026-04-25T07:17:55.03Z</time></trkpt><trkpt lat="44.0062017" lon="12.1989367"><ele>100.00000000000001</ele><time>2026-04-25T07:17:57.03Z</time></trkpt><trkpt lat="44.006105" lon="12.19895"><ele>100.0</ele><time>2026-04-25T07:17:59.029Z</time></trkpt><trkpt lat="44.0060183" lon="12.1989667"><ele>100.0</ele><time>2026-04-25T07:18:01.029Z</time></trkpt><trkpt lat="44.00594" lon="12.1989817"><ele>100.0</ele><time>2026-04-25T07:18:03.03Z</time></trkpt><trkpt lat="44.0058533" lon="12.198995"><ele>100.00000000000001</ele><time>2026-04-25T07:18:05.03Z</time></trkpt><trkpt lat="44.0057583" lon="12.1990083"><ele>100.0</ele><time>2026-04-25T07:18:07.029Z</time></trkpt><trkpt lat="44.00566" lon="12.1990183"><ele>99.4</ele><time>2026-04-25T07:18:09.03Z</time></trkpt><trkpt lat="44.0055683" lon="12.19903"><ele>98.8</ele><time>2026-04-25T07:18:11.03Z</time></trkpt><trkpt lat="44.0054667" lon="12.1990567"><ele>98.19999999999999</ele><time>2026-04-25T07:18:13.03Z</time></trkpt><trkpt lat="44.00537" lon="12.1990833"><ele>97.6</ele><time>2026-04-25T07:18:15.03Z</time></trkpt><trkpt lat="44.0052717" lon="12.1991067"><ele>97.0</ele><time>2026-04-25T07:18:17.03Z</time></trkpt><trkpt lat="44.005175" lon="12.1991283"><ele>97.0</ele><time>2026-04-25T07:18:19.03Z</time></trkpt><trkpt lat="44.0050867" lon="12.1991783"><ele>97.0</ele><time>2026-04-25T07:18:21.03Z</time></trkpt><trkpt lat="44.0049867" lon="12.1992083"><ele>97.0</ele><time>2026-04-25T07:18:23.029Z</time></trkpt><trkpt lat="44.0048883" lon="12.1992483"><ele>97.0</ele><time>2026-04-25T07:18:25.03Z</time></trkpt><trkpt lat="44.004795" lon="12.1993"><ele>97.0</ele><time>2026-04-25T07:18:27.029Z</time></trkpt><trkpt lat="44.0046933" lon="12.1993183"><ele>97.39999999999999</ele><time>2026-04-25T07:18:29.03Z</time></trkpt><trkpt lat="44.0046" lon="12.1993383"><ele>97.8</ele><time>2026-04-25T07:18:31.03Z</time></trkpt><trkpt lat="44.0045183" lon="12.199375"><ele>98.2</ele><time>2026-04-25T07:18:33.029Z</time></trkpt><trkpt lat="44.004415" lon="12.1994083"><ele>98.6</ele><time>2026-04-25T07:18:35.03Z</time></trkpt><trkpt lat="44.0043217" lon="12.199445"><ele>99.0</ele><time>2026-04-25T07:18:37.03Z</time></trkpt><trkpt lat="44.00422" lon="12.19948"><ele>98.80000000000001</ele><time>2026-04-25T07:18:39.03Z</time></trkpt><trkpt lat="44.004125" lon="12.19952"><ele>98.60000000000001</ele><time>2026-04-25T07:18:41.029Z</time></trkpt><trkpt lat="44.004035" lon="12.1995583"><ele>98.4</ele><time>2026-04-25T07:18:43.03Z</time></trkpt><trkpt lat="44.0039433" lon="12.1995883"><ele>98.2</ele><time>2026-04-25T07:18:45.03Z</time></trkpt><trkpt lat="44.0038517" lon="12.1996183"><ele>98.0</ele><time>2026-04-25T07:18:47.03Z</time></trkpt><trkpt lat="44.003755" lon="12.19965"><ele>98.0</ele><time>2026-04-25T07:18:49.03Z</time></trkpt><trkpt lat="44.0036567" lon="12.19969"><ele>98.0</ele><time>2026-04-25T07:18:51.029Z</time></trkpt><trkpt lat="44.003565" lon="12.1997267"><ele>98.0</ele><time>2026-04-25T07:18:53.029Z</time></trkpt><trkpt lat="44.0034733" lon="12.1997583"><ele>98.0</ele><time>2026-04-25T07:18:55.029Z</time></trkpt><trkpt lat="44.0033783" lon="12.1998033"><ele>98.0</ele><time>2026-04-25T07:18:57.03Z</time></trkpt><trkpt lat="44.0033" lon="12.199835"><ele>99.2</ele><time>2026-04-25T07:18:59.03Z</time></trkpt><trkpt lat="44.0032167" lon="12.19987"><ele>100.4</ele><time>2026-04-25T07:19:01.029Z</time></trkpt><trkpt lat="44.0031267" lon="12.19991"><ele>101.60000000000001</ele><time>2026-04-25T07:19:03.03Z</time></trkpt><trkpt lat="44.003035" lon="12.1999617"><ele>102.80000000000001</ele><time>2026-04-25T07:19:05.03Z</time></trkpt><trkpt lat="44.0029533" lon="12.2000133"><ele>104.0</ele><time>2026-04-25T07:19:07.029Z</time></trkpt><trkpt lat="44.00288" lon="12.2000767"><ele>103.99999999999999</ele><time>2026-04-25T07:19:09.03Z</time></trkpt><trkpt lat="44.002815" lon="12.200155"><ele>104.0</ele><time>2026-04-25T07:19:11.03Z</time></trkpt><trkpt lat="44.002745" lon="12.200245"><ele>104.0</ele><time>2026-04-25T07:19:13.03Z</time></trkpt><trkpt lat="44.0026933" lon="12.2003367"><ele>104.0</ele><time>2026-04-25T07:19:15.03Z</time></trkpt><trkpt lat="44.002645" lon="12.2004417"><ele>103.99999999999999</ele><time>2026-04-25T07:19:17.03Z</time></trkpt><trkpt lat="44.0025883" lon="12.2005417"><ele>104.0</ele><time>2026-04-25T07:19:19.029Z</time></trkpt><trkpt lat="44.0025283" lon="12.2006383"><ele>105.66666666666666</ele><time>2026-04-25T07:19:21.029Z</time></trkpt><trkpt lat="44.0024833" lon="12.2007267"><ele>107.33333333333333</ele><time>2026-04-25T07:19:23.029Z</time></trkpt><trkpt lat="44.0024283" lon="12.200815"><ele>109.0</ele><time>2026-04-25T07:19:25.03Z</time></trkpt><trkpt lat="44.0023567" lon="12.2008867"><ele>110.66666666666666</ele><time>2026-04-25T07:19:27.03Z</time></trkpt><trkpt lat="44.0022767" lon="12.2009417"><ele>112.33333333333333</ele><time>2026-04-25T07:19:29.03Z</time></trkpt><trkpt lat="44.0022" lon="12.2009867"><ele>114.0</ele><time>2026-04-25T07:19:31.03Z</time></trkpt><trkpt lat="44.0021083" lon="12.2010233"><ele>114.0</ele><time>2026-04-25T07:19:33.029Z</time></trkpt><trkpt lat="44.00202" lon="12.2010583"><ele>114.0</ele><time>2026-04-25T07:19:35.03Z</time></trkpt><trkpt lat="44.00193" lon="12.2010817"><ele>114.0</ele><time>2026-04-25T07:19:37.03Z</time></trkpt><trkpt lat="44.0018433" lon="12.2011067"><ele>114.0</ele><time>2026-04-25T07:19:39.03Z</time></trkpt><trkpt lat="44.0017533" lon="12.2011317"><ele>114.0</ele><time>2026-04-25T07:19:41.03Z</time></trkpt><trkpt lat="44.0016617" lon="12.201165"><ele>113.0</ele><time>2026-04-25T07:19:43.029Z</time></trkpt><trkpt lat="44.00157" lon="12.2011967"><ele>112.0</ele><time>2026-04-25T07:19:45.03Z</time></trkpt><trkpt lat="44.0014767" lon="12.2012017"><ele>111.0</ele><time>2026-04-25T07:19:47.03Z</time></trkpt><trkpt lat="44.0013833" lon="12.2011883"><ele>110.0</ele><time>2026-04-25T07:19:49.03Z</time></trkpt><trkpt lat="44.0013017" lon="12.2011233"><ele>109.0</ele><time>2026-04-25T07:19:51.029Z</time></trkpt><trkpt lat="44.0012267" lon="12.2010283"><ele>109.0</ele><time>2026-04-25T07:19:53.03Z</time></trkpt><trkpt lat="44.0011383" lon="12.2009517"><ele>109.0</ele><time>2026-04-25T07:19:55.03Z</time></trkpt><trkpt lat="44.001055" lon="12.2008617"><ele>109.0</ele><time>2026-04-25T07:19:57.03Z</time></trkpt><trkpt lat="44.0009717" lon="12.20074"><ele>109.0</ele><time>2026-04-25T07:19:59.029Z</time></trkpt><trkpt lat="44.0008783" lon="12.2006133"><ele>108.00000000000001</ele><time>2026-04-25T07:20:01.031Z</time></trkpt><trkpt lat="44.00083" lon="12.2005483"><ele>107.0</ele><time>2026-04-25T07:20:02.031Z</time></trkpt><trkpt lat="44.0007783" lon="12.20048"><ele>106.0</ele><time>2026-04-25T07:20:03.03Z</time></trkpt><trkpt lat="44.00073" lon="12.2004"><ele>105.0</ele><time>2026-04-25T07:20:04.031Z</time></trkpt><trkpt lat="44.0006733" lon="12.2003233"><ele>104.00000000000001</ele><time>2026-04-25T07:20:05.03Z</time></trkpt><trkpt lat="44.00061" lon="12.2002517"><ele>103.0</ele><time>2026-04-25T07:20:06.031Z</time></trkpt><trkpt lat="44.0005467" lon="12.2001717"><ele>103.00000000000001</ele><time>2026-04-25T07:20:07.031Z</time></trkpt><trkpt lat="44.0004833" lon="12.200095"><ele>103.0</ele><time>2026-04-25T07:20:08.031Z</time></trkpt><trkpt lat="44.0004233" lon="12.2000233"><ele>103.0</ele><time>2026-04-25T07:20:09.03Z</time></trkpt><trkpt lat="44.00036" lon="12.1999467"><ele>103.0</ele><time>2026-04-25T07:20:10.031Z</time></trkpt><trkpt lat="44.000285" lon="12.1998683"><ele>103.00000000000001</ele><time>2026-04-25T07:20:11.03Z</time></trkpt><trkpt lat="44.0002083" lon="12.19979"><ele>103.0</ele><time>2026-04-25T07:20:12.031Z</time></trkpt><trkpt lat="44.00013" lon="12.19971"><ele>103.80000000000001</ele><time>2026-04-25T07:20:13.03Z</time></trkpt><trkpt lat="44.000055" lon="12.1996333"><ele>104.6</ele><time>2026-04-25T07:20:14.031Z</time></trkpt><trkpt lat="43.9999833" lon="12.1995517"><ele>105.39999999999999</ele><time>2026-04-25T07:20:15.031Z</time></trkpt><trkpt lat="43.9999083" lon="12.199475"><ele>106.19999999999999</ele><time>2026-04-25T07:20:16.031Z</time></trkpt><trkpt lat="43.9998233" lon="12.1994083"><ele>107.0</ele><time>2026-04-25T07:20:17.031Z</time></trkpt><trkpt lat="43.9997417" lon="12.1993433"><ele>106.99999999999999</ele><time>2026-04-25T07:20:18.031Z</time></trkpt><trkpt lat="43.9996633" lon="12.1992817"><ele>107.0</ele><time>2026-04-25T07:20:19.03Z</time></trkpt><trkpt lat="43.9995883" lon="12.19922"><ele>107.0</ele><time>2026-04-25T07:20:20.03Z</time></trkpt><trkpt lat="43.999515" lon="12.199165"><ele>107.0</ele><time>2026-04-25T07:20:21.03Z</time></trkpt><trkpt lat="43.9994433" lon="12.1991"><ele>106.99999999999999</ele><time>2026-04-25T07:20:22.031Z</time></trkpt><trkpt lat="43.9993733" lon="12.199035"><ele>107.0</ele><time>2026-04-25T07:20:23.031Z</time></trkpt><trkpt lat="43.9993083" lon="12.1989717"><ele>106.49999999999999</ele><time>2026-04-25T07:20:24.03Z</time></trkpt><trkpt lat="43.9992367" lon="12.19892"><ele>106.0</ele><time>2026-04-25T07:20:25.031Z</time></trkpt><trkpt lat="43.9991667" lon="12.1988617"><ele>105.5</ele><time>2026-04-25T07:20:26.03Z</time></trkpt><trkpt lat="43.9991" lon="12.1988067"><ele>105.0</ele><time>2026-04-25T07:20:27.031Z</time></trkpt><trkpt lat="43.99903" lon="12.1987517"><ele>104.49999999999999</ele><time>2026-04-25T07:20:28.031Z</time></trkpt><trkpt lat="43.9989633" lon="12.1986967"><ele>104.0</ele><time>2026-04-25T07:20:29.03Z</time></trkpt><trkpt lat="43.998895" lon="12.1986433"><ele>103.99999999999999</ele><time>2026-04-25T07:20:30.031Z</time></trkpt><trkpt lat="43.99883" lon="12.19859"><ele>104.0</ele><time>2026-04-25T07:20:31.031Z</time></trkpt><trkpt lat="43.99876" lon="12.19854"><ele>104.0</ele><time>2026-04-25T07:20:32.03Z</time></trkpt><trkpt lat="43.99869" lon="12.1984917"><ele>104.0</ele><time>2026-04-25T07:20:33.031Z</time></trkpt><trkpt lat="43.99862" lon="12.1984333"><ele>103.99999999999999</ele><time>2026-04-25T07:20:34.03Z</time></trkpt><trkpt lat="43.9985467" lon="12.1983733"><ele>104.0</ele><time>2026-04-25T07:20:35.031Z</time></trkpt><trkpt lat="43.9984733" lon="12.198315"><ele>103.99999999999999</ele><time>2026-04-25T07:20:36.031Z</time></trkpt><trkpt lat="43.9984067" lon="12.19826"><ele>104.0</ele><time>2026-04-25T07:20:37.03Z</time></trkpt><trkpt lat="43.99834" lon="12.198205"><ele>104.0</ele><time>2026-04-25T07:20:38.031Z</time></trkpt><trkpt lat="43.998275" lon="12.1981517"><ele>104.0</ele><time>2026-04-25T07:20:39.031Z</time></trkpt><trkpt lat="43.9982033" lon="12.1981017"><ele>103.99999999999999</ele><time>2026-04-25T07:20:40.03Z</time></trkpt><trkpt lat="43.9981333" lon="12.198055"><ele>104.0</ele><time>2026-04-25T07:20:41.03Z</time></trkpt><trkpt lat="43.998065" lon="12.1980033"><ele>103.66666666666666</ele><time>2026-04-25T07:20:42.03Z</time></trkpt><trkpt lat="43.9979883" lon="12.1979733"><ele>103.33333333333333</ele><time>2026-04-25T07:20:43.03Z</time></trkpt><trkpt lat="43.9979133" lon="12.1979367"><ele>103.0</ele><time>2026-04-25T07:20:44.031Z</time></trkpt><trkpt lat="43.9978267" lon="12.19791"><ele>102.66666666666666</ele><time>2026-04-25T07:20:45.031Z</time></trkpt><trkpt lat="43.997745" lon="12.1978883"><ele>102.33333333333333</ele><time>2026-04-25T07:20:46.03Z</time></trkpt><trkpt lat="43.9976633" lon="12.1978783"><ele>102.0</ele><time>2026-04-25T07:20:47.031Z</time></trkpt><trkpt lat="43.9975883" lon="12.197865"><ele>102.0</ele><time>2026-04-25T07:20:48.031Z</time></trkpt><trkpt lat="43.9975133" lon="12.1978533"><ele>102.0</ele><time>2026-04-25T07:20:49.03Z</time></trkpt><trkpt lat="43.9974383" lon="12.19783"><ele>102.0</ele><time>2026-04-25T07:20:50.031Z</time></trkpt><trkpt lat="43.997365" lon="12.1978133"><ele>102.0</ele><time>2026-04-25T07:20:51.03Z</time></trkpt><trkpt lat="43.99729" lon="12.1978017"><ele>102.0</ele><time>2026-04-25T07:20:52.03Z</time></trkpt><trkpt lat="43.9972183" lon="12.1977817"><ele>102.0</ele><time>2026-04-25T07:20:53.031Z</time></trkpt><trkpt lat="43.9971483" lon="12.1977617"><ele>102.0</ele><time>2026-04-25T07:20:54.031Z</time></trkpt><trkpt lat="43.9970833" lon="12.19775"><ele>102.19999999999999</ele><time>2026-04-25T07:20:55.031Z</time></trkpt><trkpt lat="43.99702" lon="12.1977283"><ele>102.4</ele><time>2026-04-25T07:20:56.031Z</time></trkpt><trkpt lat="43.9969517" lon="12.1977083"><ele>102.6</ele><time>2026-04-25T07:20:57.03Z</time></trkpt><trkpt lat="43.996885" lon="12.19769"><ele>102.80000000000001</ele><time>2026-04-25T07:20:58.031Z</time></trkpt><trkpt lat="43.99676" lon="12.1976617"><ele>103.0</ele><time>2026-04-25T07:21:00.031Z</time></trkpt><trkpt lat="43.9966383" lon="12.1976333"><ele>103.0</ele><time>2026-04-25T07:21:02.03Z</time></trkpt><trkpt lat="43.9965767" lon="12.1976133"><ele>103.0</ele><time>2026-04-25T07:21:03.03Z</time></trkpt><trkpt lat="43.996455" lon="12.19758"><ele>103.0</ele><time>2026-04-25T07:21:05.031Z</time></trkpt><trkpt lat="43.99639" lon="12.19757"><ele>103.0</ele><time>2026-04-25T07:21:06.03Z</time></trkpt><trkpt lat="43.9962683" lon="12.19755"><ele>103.0</ele><time>2026-04-25T07:21:08.031Z</time></trkpt><trkpt lat="43.996155" lon="12.1975283"><ele>103.0</ele><time>2026-04-25T07:21:10.031Z</time></trkpt><trkpt lat="43.9960383" lon="12.1974967"><ele>103.0</ele><time>2026-04-25T07:21:12.03Z</time></trkpt><trkpt lat="43.9959217" lon="12.1974683"><ele>103.0</ele><time>2026-04-25T07:21:14.031Z</time></trkpt><trkpt lat="43.995805" lon="12.197435"><ele>103.0</ele><time>2026-04-25T07:21:16.03Z</time></trkpt><trkpt lat="43.9956833" lon="12.1974067"><ele>103.4</ele><time>2026-04-25T07:21:18.03Z</time></trkpt><trkpt lat="43.9955633" lon="12.1973667"><ele>103.80000000000001</ele><time>2026-04-25T07:21:20.031Z</time></trkpt><trkpt lat="43.995445" lon="12.197325"><ele>104.2</ele><time>2026-04-25T07:21:22.03Z</time></trkpt><trkpt lat="43.99538" lon="12.1973183"><ele>104.6</ele><time>2026-04-25T07:21:23.031Z</time></trkpt><trkpt lat="43.9953167" lon="12.1972967"><ele>105.0</ele><time>2026-04-25T07:21:24.03Z</time></trkpt><trkpt lat="43.9952" lon="12.1972733"><ele>105.0</ele><time>2026-04-25T07:21:26.031Z</time></trkpt><trkpt lat="43.9951383" lon="12.197255"><ele>105.0</ele><time>2026-04-25T07:21:27.03Z</time></trkpt><trkpt lat="43.995075" lon="12.1972483"><ele>105.0</ele><time>2026-04-25T07:21:28.03Z</time></trkpt><trkpt lat="43.9949583" lon="12.1972183"><ele>105.0</ele><time>2026-04-25T07:21:30.031Z</time></trkpt><trkpt lat="43.9948283" lon="12.1971767"><ele>105.0</ele><time>2026-04-25T07:21:32.031Z</time></trkpt><trkpt lat="43.9947617" lon="12.1971617"><ele>105.0</ele><time>2026-04-25T07:21:33.03Z</time></trkpt><trkpt lat="43.9946933" lon="12.197145"><ele>105.71428571428571</ele><time>2026-04-25T07:21:34.031Z</time></trkpt><trkpt lat="43.994625" lon="12.19713"><ele>106.42857142857143</ele><time>2026-04-25T07:21:35.031Z</time></trkpt><trkpt lat="43.99456" lon="12.1971183"><ele>107.14285714285714</ele><time>2026-04-25T07:21:36.031Z</time></trkpt><trkpt lat="43.994495" lon="12.1971"><ele>107.85714285714286</ele><time>2026-04-25T07:21:37.03Z</time></trkpt><trkpt lat="43.9944283" lon="12.1970767"><ele>108.57142857142857</ele><time>2026-04-25T07:21:38.03Z</time></trkpt><trkpt lat="43.994365" lon="12.1970683"><ele>109.28571428571428</ele><time>2026-04-25T07:21:39.031Z</time></trkpt><trkpt lat="43.994295" lon="12.19706"><ele>110.0</ele><time>2026-04-25T07:21:40.031Z</time></trkpt><trkpt lat="43.9942283" lon="12.1970567"><ele>109.99999999999999</ele><time>2026-04-25T07:21:41.031Z</time></trkpt><trkpt lat="43.9941633" lon="12.1970383"><ele>110.0</ele><time>2026-04-25T07:21:42.031Z</time></trkpt><trkpt lat="43.9941" lon="12.1970233"><ele>110.0</ele><time>2026-04-25T07:21:43.03Z</time></trkpt><trkpt lat="43.9940367" lon="12.19701"><ele>110.0</ele><time>2026-04-25T07:21:44.03Z</time></trkpt><trkpt lat="43.9939733" lon="12.197005"><ele>110.0</ele><time>2026-04-25T07:21:45.03Z</time></trkpt><trkpt lat="43.9939083" lon="12.1969983"><ele>109.99999999999999</ele><time>2026-04-25T07:21:46.031Z</time></trkpt><trkpt lat="43.9938417" lon="12.1970017"><ele>110.0</ele><time>2026-04-25T07:21:47.031Z</time></trkpt><trkpt lat="43.99372" lon="12.1969867"><ele>110.0</ele><time>2026-04-25T07:21:49.031Z</time></trkpt><trkpt lat="43.993655" lon="12.1969733"><ele>110.0</ele><time>2026-04-25T07:21:50.031Z</time></trkpt><trkpt lat="43.9935283" lon="12.19695"><ele>110.0</ele><time>2026-04-25T07:21:52.031Z</time></trkpt><trkpt lat="43.9934617" lon="12.196945"><ele>110.0</ele><time>2026-04-25T07:21:53.03Z</time></trkpt><trkpt lat="43.993395" lon="12.1969333"><ele>110.0</ele><time>2026-04-25T07:21:54.031Z</time></trkpt><trkpt lat="43.9932717" lon="12.19691"><ele>109.99999999999999</ele><time>2026-04-25T07:21:56.031Z</time></trkpt><trkpt lat="43.9932067" lon="12.1969017"><ele>110.0</ele><time>2026-04-25T07:21:57.031Z</time></trkpt><trkpt lat="43.9931383" lon="12.19689"><ele>110.0</ele><time>2026-04-25T07:21:58.03Z</time></trkpt><trkpt lat="43.9930183" lon="12.1968733"><ele>110.0</ele><time>2026-04-25T07:22:00.031Z</time></trkpt><trkpt lat="43.9929533" lon="12.1968617"><ele>109.99999999999999</ele><time>2026-04-25T07:22:01.031Z</time></trkpt><trkpt lat="43.992885" lon="12.1968633"><ele>110.0</ele><time>2026-04-25T07:22:02.031Z</time></trkpt><trkpt lat="43.99282" lon="12.196865"><ele>110.0</ele><time>2026-04-25T07:22:03.031Z</time></trkpt><trkpt lat="43.9927533" lon="12.1968583"><ele>110.0</ele><time>2026-04-25T07:22:04.031Z</time></trkpt><trkpt lat="43.992635" lon="12.1968483"><ele>110.0</ele><time>2026-04-25T07:22:06.031Z</time></trkpt><trkpt lat="43.99251" lon="12.196855"><ele>110.0</ele><time>2026-04-25T07:22:08.031Z</time></trkpt><trkpt lat="43.992445" lon="12.1968567"><ele>110.0</ele><time>2026-04-25T07:22:09.031Z</time></trkpt><trkpt lat="43.99232" lon="12.1968767"><ele>110.2</ele><time>2026-04-25T07:22:11.031Z</time></trkpt><trkpt lat="43.9922517" lon="12.1968917"><ele>110.4</ele><time>2026-04-25T07:22:12.031Z</time></trkpt><trkpt lat="43.99213" lon="12.1969217"><ele>110.6</ele><time>2026-04-25T07:22:14.03Z</time></trkpt><trkpt lat="43.9920683" lon="12.1969433"><ele>110.8</ele><time>2026-04-25T07:22:15.031Z</time></trkpt><trkpt lat="43.9919433" lon="12.197005"><ele>111.0</ele><time>2026-04-25T07:22:17.03Z</time></trkpt><trkpt lat="43.9918817" lon="12.1970367"><ele>111.0</ele><time>2026-04-25T07:22:18.031Z</time></trkpt><trkpt lat="43.9918217" lon="12.1970733"><ele>111.0</ele><time>2026-04-25T07:22:19.031Z</time></trkpt><trkpt lat="43.9917617" lon="12.197115"><ele>111.0</ele><time>2026-04-25T07:22:20.03Z</time></trkpt><trkpt lat="43.9917033" lon="12.1971583"><ele>111.0</ele><time>2026-04-25T07:22:21.03Z</time></trkpt><trkpt lat="43.9916433" lon="12.1972067"><ele>111.0</ele><time>2026-04-25T07:22:22.031Z</time></trkpt><trkpt lat="43.9915833" lon="12.1972617"><ele>111.0</ele><time>2026-04-25T07:22:23.03Z</time></trkpt><trkpt lat="43.9915217" lon="12.19732"><ele>111.0</ele><time>2026-04-25T07:22:24.031Z</time></trkpt><trkpt lat="43.9914667" lon="12.1973817"><ele>110.57142857142857</ele><time>2026-04-25T07:22:25.031Z</time></trkpt><trkpt lat="43.99141" lon="12.1974417"><ele>110.14285714285715</ele><time>2026-04-25T07:22:26.031Z</time></trkpt><trkpt lat="43.991355" lon="12.1975"><ele>109.71428571428572</ele><time>2026-04-25T07:22:27.031Z</time></trkpt><trkpt lat="43.9913067" lon="12.197565"><ele>109.28571428571428</ele><time>2026-04-25T07:22:28.031Z</time></trkpt><trkpt lat="43.9912517" lon="12.197625"><ele>108.85714285714286</ele><time>2026-04-25T07:22:29.03Z</time></trkpt><trkpt lat="43.9912017" lon="12.1976817"><ele>108.42857142857143</ele><time>2026-04-25T07:22:30.03Z</time></trkpt><trkpt lat="43.99115" lon="12.19774"><ele>108.0</ele><time>2026-04-25T07:22:31.03Z</time></trkpt><trkpt lat="43.9910983" lon="12.1978"><ele>108.0</ele><time>2026-04-25T07:22:32.031Z</time></trkpt><trkpt lat="43.9910367" lon="12.1978617"><ele>108.0</ele><time>2026-04-25T07:22:33.03Z</time></trkpt><trkpt lat="43.9909767" lon="12.1979183"><ele>108.0</ele><time>2026-04-25T07:22:34.031Z</time></trkpt><trkpt lat="43.99092" lon="12.197975"><ele>108.0</ele><time>2026-04-25T07:22:35.03Z</time></trkpt><trkpt lat="43.9908633" lon="12.1980317"><ele>108.0</ele><time>2026-04-25T07:22:36.031Z</time></trkpt><trkpt lat="43.9908067" lon="12.1980883"><ele>108.0</ele><time>2026-04-25T07:22:37.031Z</time></trkpt><trkpt lat="43.99075" lon="12.1981517"><ele>108.0</ele><time>2026-04-25T07:22:38.031Z</time></trkpt><trkpt lat="43.990695" lon="12.1982067"><ele>108.14285714285714</ele><time>2026-04-25T07:22:39.031Z</time></trkpt><trkpt lat="43.9906367" lon="12.19825"><ele>108.28571428571428</ele><time>2026-04-25T07:22:40.031Z</time></trkpt><trkpt lat="43.9905767" lon="12.1982883"><ele>108.42857142857143</ele><time>2026-04-25T07:22:41.031Z</time></trkpt><trkpt lat="43.9905133" lon="12.19833"><ele>108.57142857142857</ele><time>2026-04-25T07:22:42.031Z</time></trkpt><trkpt lat="43.9904467" lon="12.198365"><ele>108.71428571428572</ele><time>2026-04-25T07:22:43.031Z</time></trkpt><trkpt lat="43.99038" lon="12.1983967"><ele>108.85714285714286</ele><time>2026-04-25T07:22:44.031Z</time></trkpt><trkpt lat="43.99031" lon="12.19842"><ele>109.0</ele><time>2026-04-25T07:22:45.031Z</time></trkpt><trkpt lat="43.9901833" lon="12.1984583"><ele>109.0</ele><time>2026-04-25T07:22:47.031Z</time></trkpt><trkpt lat="43.9901133" lon="12.1984667"><ele>109.0</ele><time>2026-04-25T07:22:48.031Z</time></trkpt><trkpt lat="43.9900417" lon="12.1984783"><ele>109.0</ele><time>2026-04-25T07:22:49.031Z</time></trkpt><trkpt lat="43.989975" lon="12.1984833"><ele>109.0</ele><time>2026-04-25T07:22:50.031Z</time></trkpt><trkpt lat="43.989905" lon="12.1984933"><ele>109.0</ele><time>2026-04-25T07:22:51.03Z</time></trkpt><trkpt lat="43.989835" lon="12.198495"><ele>109.0</ele><time>2026-04-25T07:22:52.03Z</time></trkpt><trkpt lat="43.9897667" lon="12.1984967"><ele>109.0</ele><time>2026-04-25T07:22:53.03Z</time></trkpt><trkpt lat="43.9897033" lon="12.1985"><ele>109.00000000000001</ele><time>2026-04-25T07:22:54.031Z</time></trkpt><trkpt lat="43.9896383" lon="12.198505"><ele>109.0</ele><time>2026-04-25T07:22:55.031Z</time></trkpt><trkpt lat="43.9895133" lon="12.198515"><ele>109.0</ele><time>2026-04-25T07:22:57.03Z</time></trkpt><trkpt lat="43.98945" lon="12.1985217"><ele>109.0</ele><time>2026-04-25T07:22:58.031Z</time></trkpt><trkpt lat="43.98938" lon="12.1985317"><ele>109.00000000000001</ele><time>2026-04-25T07:22:59.031Z</time></trkpt><trkpt lat="43.989315" lon="12.19854"><ele>109.0</ele><time>2026-04-25T07:23:00.031Z</time></trkpt><trkpt lat="43.98925" lon="12.1985467"><ele>109.16666666666667</ele><time>2026-04-25T07:23:01.03Z</time></trkpt><trkpt lat="43.9891233" lon="12.1985567"><ele>109.33333333333334</ele><time>2026-04-25T07:23:03.031Z</time></trkpt><trkpt lat="43.989055" lon="12.1985667"><ele>109.5</ele><time>2026-04-25T07:23:04.031Z</time></trkpt><trkpt lat="43.98898" lon="12.1985683"><ele>109.66666666666666</ele><time>2026-04-25T07:23:05.031Z</time></trkpt><trkpt lat="43.9889133" lon="12.1985833"><ele>109.83333333333333</ele><time>2026-04-25T07:23:06.031Z</time></trkpt><trkpt lat="43.9888433" lon="12.1985867"><ele>110.0</ele><time>2026-04-25T07:23:07.03Z</time></trkpt><trkpt lat="43.9887783" lon="12.1985983"><ele>109.99999999999999</ele><time>2026-04-25T07:23:08.031Z</time></trkpt><trkpt lat="43.9887133" lon="12.1986067"><ele>110.0</ele><time>2026-04-25T07:23:09.031Z</time></trkpt><trkpt lat="43.9886467" lon="12.198615"><ele>110.0</ele><time>2026-04-25T07:23:10.031Z</time></trkpt><trkpt lat="43.9885733" lon="12.19862"><ele>110.0</ele><time>2026-04-25T07:23:11.031Z</time></trkpt><trkpt lat="43.9885" lon="12.1986133"><ele>109.99999999999999</ele><time>2026-04-25T07:23:12.031Z</time></trkpt><trkpt lat="43.9884283" lon="12.1986033"><ele>110.0</ele><time>2026-04-25T07:23:13.03Z</time></trkpt><trkpt lat="43.988305" lon="12.1985583"><ele>109.83333333333333</ele><time>2026-04-25T07:23:15.031Z</time></trkpt><trkpt lat="43.9882383" lon="12.1985333"><ele>109.66666666666666</ele><time>2026-04-25T07:23:16.03Z</time></trkpt><trkpt lat="43.9881783" lon="12.1985017"><ele>109.5</ele><time>2026-04-25T07:23:17.031Z</time></trkpt><trkpt lat="43.9881217" lon="12.1984533"><ele>109.33333333333334</ele><time>2026-04-25T07:23:18.031Z</time></trkpt><trkpt lat="43.9880717" lon="12.1983967"><ele>109.16666666666667</ele><time>2026-04-25T07:23:19.031Z</time></trkpt><trkpt lat="43.9879767" lon="12.1982733"><ele>109.0</ele><time>2026-04-25T07:23:21.031Z</time></trkpt><trkpt lat="43.9879333" lon="12.1982033"><ele>110.66666666666667</ele><time>2026-04-25T07:23:22.031Z</time></trkpt><trkpt lat="43.987895" lon="12.1981283"><ele>112.33333333333334</ele><time>2026-04-25T07:23:23.031Z</time></trkpt><trkpt lat="43.9878533" lon="12.1980467"><ele>114.0</ele><time>2026-04-25T07:23:24.031Z</time></trkpt><trkpt lat="43.9878117" lon="12.1979717"><ele>115.66666666666666</ele><time>2026-04-25T07:23:25.031Z</time></trkpt><trkpt lat="43.987745" lon="12.1978167"><ele>117.33333333333333</ele><time>2026-04-25T07:23:27.03Z</time></trkpt><trkpt lat="43.9877133" lon="12.1977333"><ele>119.0</ele><time>2026-04-25T07:23:28.03Z</time></trkpt><trkpt lat="43.9876367" lon="12.1975883"><ele>119.0</ele><time>2026-04-25T07:23:30.031Z</time></trkpt><trkpt lat="43.9875967" lon="12.19752"><ele>119.0</ele><time>2026-04-25T07:23:31.031Z</time></trkpt><trkpt lat="43.987555" lon="12.1974533"><ele>119.0</ele><time>2026-04-25T07:23:32.031Z</time></trkpt><trkpt lat="43.987485" lon="12.19732"><ele>119.0</ele><time>2026-04-25T07:23:34.031Z</time></trkpt><trkpt lat="43.9874133" lon="12.197195"><ele>119.0</ele><time>2026-04-25T07:23:36.031Z</time></trkpt><trkpt lat="43.987355" lon="12.1970533"><ele>118.4</ele><time>2026-04-25T07:23:38.03Z</time></trkpt><trkpt lat="43.9872933" lon="12.1969117"><ele>117.80000000000001</ele><time>2026-04-25T07:23:40.031Z</time></trkpt><trkpt lat="43.9872383" lon="12.1967833"><ele>117.19999999999999</ele><time>2026-04-25T07:23:42.03Z</time></trkpt><trkpt lat="43.98718" lon="12.196655"><ele>116.6</ele><time>2026-04-25T07:23:44.03Z</time></trkpt><trkpt lat="43.987115" lon="12.1965417"><ele>116.0</ele><time>2026-04-25T07:23:46.031Z</time></trkpt><trkpt lat="43.98705" lon="12.1964333"><ele>116.8</ele><time>2026-04-25T07:23:48.031Z</time></trkpt><trkpt lat="43.9869783" lon="12.196325"><ele>117.6</ele><time>2026-04-25T07:23:50.03Z</time></trkpt><trkpt lat="43.9868983" lon="12.1962383"><ele>118.4</ele><time>2026-04-25T07:23:52.03Z</time></trkpt><trkpt lat="43.9868117" lon="12.1961683"><ele>119.2</ele><time>2026-04-25T07:23:54.031Z</time></trkpt><trkpt lat="43.98672" lon="12.1961183"><ele>120.0</ele><time>2026-04-25T07:23:56.031Z</time></trkpt><trkpt lat="43.986625" lon="12.19607"><ele>120.0</ele><time>2026-04-25T07:23:58.031Z</time></trkpt><trkpt lat="43.9865317" lon="12.1960267"><ele>120.0</ele><time>2026-04-25T07:24:00.031Z</time></trkpt><trkpt lat="43.986435" lon="12.1959917"><ele>120.0</ele><time>2026-04-25T07:24:02.031Z</time></trkpt><trkpt lat="43.9863467" lon="12.1959617"><ele>120.0</ele><time>2026-04-25T07:24:04.031Z</time></trkpt><trkpt lat="43.98626" lon="12.1959233"><ele>120.0</ele><time>2026-04-25T07:24:06.031Z</time></trkpt><trkpt lat="43.9861717" lon="12.19588"><ele>120.0</ele><time>2026-04-25T07:24:08.03Z</time></trkpt><trkpt lat="43.986085" lon="12.1958483"><ele>120.0</ele><time>2026-04-25T07:24:10.03Z</time></trkpt><trkpt lat="43.9859833" lon="12.1958133"><ele>120.0</ele><time>2026-04-25T07:24:12.03Z</time></trkpt><trkpt lat="43.985875" lon="12.1957733"><ele>120.0</ele><time>2026-04-25T07:24:14.03Z</time></trkpt><trkpt lat="43.9857667" lon="12.1957317"><ele>120.0</ele><time>2026-04-25T07:24:16.03Z</time></trkpt><trkpt lat="43.9856617" lon="12.1956933"><ele>120.4</ele><time>2026-04-25T07:24:18.03Z</time></trkpt><trkpt lat="43.9855517" lon="12.19567"><ele>120.8</ele><time>2026-04-25T07:24:20.031Z</time></trkpt><trkpt lat="43.9854417" lon="12.1956467"><ele>121.19999999999999</ele><time>2026-04-25T07:24:22.031Z</time></trkpt><trkpt lat="43.985325" lon="12.1956317"><ele>121.6</ele><time>2026-04-25T07:24:24.031Z</time></trkpt><trkpt lat="43.98522" lon="12.195635"><ele>122.0</ele><time>2026-04-25T07:24:26.031Z</time></trkpt><trkpt lat="43.9851117" lon="12.1956917"><ele>122.19999999999999</ele><time>2026-04-25T07:24:28.031Z</time></trkpt><trkpt lat="43.98501" lon="12.1957517"><ele>122.39999999999999</ele><time>2026-04-25T07:24:30.031Z</time></trkpt><trkpt lat="43.984915" lon="12.1958317"><ele>122.60000000000001</ele><time>2026-04-25T07:24:32.031Z</time></trkpt><trkpt lat="43.9848133" lon="12.19594"><ele>122.80000000000001</ele><time>2026-04-25T07:24:34.031Z</time></trkpt><trkpt lat="43.984765" lon="12.1959983"><ele>123.0</ele><time>2026-04-25T07:24:35.031Z</time></trkpt><trkpt lat="43.9846783" lon="12.1961183"><ele>123.0</ele><time>2026-04-25T07:24:37.031Z</time></trkpt><trkpt lat="43.98461" lon="12.19622"><ele>123.00000000000001</ele><time>2026-04-25T07:24:39.031Z</time></trkpt><trkpt lat="43.9845383" lon="12.19633"><ele>123.00000000000001</ele><time>2026-04-25T07:24:41.03Z</time></trkpt><trkpt lat="43.98447" lon="12.196435"><ele>123.0</ele><time>2026-04-25T07:24:43.031Z</time></trkpt><trkpt lat="43.9844067" lon="12.1965433"><ele>123.0</ele><time>2026-04-25T07:24:45.031Z</time></trkpt><trkpt lat="43.98434" lon="12.1966517"><ele>124.2</ele><time>2026-04-25T07:24:47.031Z</time></trkpt><trkpt lat="43.9842833" lon="12.1967567"><ele>125.4</ele><time>2026-04-25T07:24:49.031Z</time></trkpt><trkpt lat="43.9841983" lon="12.1968767"><ele>126.60000000000001</ele><time>2026-04-25T07:24:51.031Z</time></trkpt><trkpt lat="43.9841267" lon="12.1969783"><ele>127.80000000000001</ele><time>2026-04-25T07:24:53.031Z</time></trkpt><trkpt lat="43.9840567" lon="12.197085"><ele>129.0</ele><time>2026-04-25T07:24:55.031Z</time></trkpt><trkpt lat="43.9839833" lon="12.1972033"><ele>129.0</ele><time>2026-04-25T07:24:57.03Z</time></trkpt><trkpt lat="43.9839117" lon="12.1973167"><ele>129.0</ele><time>2026-04-25T07:24:59.03Z</time></trkpt><trkpt lat="43.9838467" lon="12.197415"><ele>129.0</ele><time>2026-04-25T07:25:01.031Z</time></trkpt><trkpt lat="43.9837783" lon="12.19751"><ele>129.0</ele><time>2026-04-25T07:25:03.031Z</time></trkpt><trkpt lat="43.9837183" lon="12.197605"><ele>129.0</ele><time>2026-04-25T07:25:05.031Z</time></trkpt><trkpt lat="43.98366" lon="12.1976983"><ele>127.4</ele><time>2026-04-25T07:25:07.03Z</time></trkpt><trkpt lat="43.9835967" lon="12.1978133"><ele>125.80000000000001</ele><time>2026-04-25T07:25:09.031Z</time></trkpt><trkpt lat="43.9835233" lon="12.1979167"><ele>124.19999999999999</ele><time>2026-04-25T07:25:11.03Z</time></trkpt><trkpt lat="43.9834567" lon="12.19802"><ele>122.6</ele><time>2026-04-25T07:25:13.031Z</time></trkpt><trkpt lat="43.9833933" lon="12.1981117"><ele>121.0</ele><time>2026-04-25T07:25:15.03Z</time></trkpt><trkpt lat="43.98333" lon="12.1982117"><ele>121.00000000000001</ele><time>2026-04-25T07:25:17.031Z</time></trkpt><trkpt lat="43.9832617" lon="12.1983067"><ele>121.0</ele><time>2026-04-25T07:25:19.031Z</time></trkpt><trkpt lat="43.983205" lon="12.1983917"><ele>121.0</ele><time>2026-04-25T07:25:21.03Z</time></trkpt><trkpt lat="43.9831467" lon="12.1984833"><ele>121.0</ele><time>2026-04-25T07:25:23.031Z</time></trkpt><trkpt lat="43.9830883" lon="12.1985667"><ele>121.00000000000001</ele><time>2026-04-25T07:25:25.03Z</time></trkpt><trkpt lat="43.9830283" lon="12.1986567"><ele>121.0</ele><time>2026-04-25T07:25:27.03Z</time></trkpt><trkpt lat="43.9829667" lon="12.1987483"><ele>121.0</ele><time>2026-04-25T07:25:29.031Z</time></trkpt><trkpt lat="43.9828967" lon="12.1988483"><ele>121.0</ele><time>2026-04-25T07:25:31.03Z</time></trkpt><trkpt lat="43.9828283" lon="12.1989433"><ele>121.0</ele><time>2026-04-25T07:25:33.03Z</time></trkpt><trkpt lat="43.9827667" lon="12.1990417"><ele>121.0</ele><time>2026-04-25T07:25:35.031Z</time></trkpt><trkpt lat="43.9826933" lon="12.1991383"><ele>121.0</ele><time>2026-04-25T07:25:37.03Z</time></trkpt><trkpt lat="43.98263" lon="12.19923"><ele>119.0</ele><time>2026-04-25T07:25:39.031Z</time></trkpt><trkpt lat="43.9825717" lon="12.1993267"><ele>117.0</ele><time>2026-04-25T07:25:41.031Z</time></trkpt><trkpt lat="43.982505" lon="12.199425"><ele>115.0</ele><time>2026-04-25T07:25:43.031Z</time></trkpt><trkpt lat="43.98244" lon="12.1995267"><ele>113.0</ele><time>2026-04-25T07:25:45.031Z</time></trkpt><trkpt lat="43.9823683" lon="12.1996267"><ele>111.0</ele><time>2026-04-25T07:25:47.031Z</time></trkpt><trkpt lat="43.9823017" lon="12.1997233"><ele>112.8</ele><time>2026-04-25T07:25:49.031Z</time></trkpt><trkpt lat="43.9822417" lon="12.1998267"><ele>114.6</ele><time>2026-04-25T07:25:51.031Z</time></trkpt><trkpt lat="43.9821683" lon="12.19992"><ele>116.4</ele><time>2026-04-25T07:25:53.031Z</time></trkpt><trkpt lat="43.9821017" lon="12.2000267"><ele>118.2</ele><time>2026-04-25T07:25:55.03Z</time></trkpt><trkpt lat="43.9820433" lon="12.2001283"><ele>120.0</ele><time>2026-04-25T07:25:57.031Z</time></trkpt><trkpt lat="43.9819767" lon="12.20023"><ele>120.0</ele><time>2026-04-25T07:25:59.031Z</time></trkpt><trkpt lat="43.9819133" lon="12.2003183"><ele>120.0</ele><time>2026-04-25T07:26:01.03Z</time></trkpt><trkpt lat="43.9818533" lon="12.2004017"><ele>120.0</ele><time>2026-04-25T07:26:03.031Z</time></trkpt><trkpt lat="43.98179" lon="12.2004833"><ele>120.0</ele><time>2026-04-25T07:26:05.03Z</time></trkpt><trkpt lat="43.981725" lon="12.20058"><ele>120.0</ele><time>2026-04-25T07:26:07.03Z</time></trkpt><trkpt lat="43.9816583" lon="12.2006717"><ele>122.0</ele><time>2026-04-25T07:26:09.031Z</time></trkpt><trkpt lat="43.981595" lon="12.200745"><ele>124.0</ele><time>2026-04-25T07:26:11.031Z</time></trkpt><trkpt lat="43.9815417" lon="12.2008317"><ele>126.0</ele><time>2026-04-25T07:26:13.03Z</time></trkpt><trkpt lat="43.9814783" lon="12.2009217"><ele>128.0</ele><time>2026-04-25T07:26:15.031Z</time></trkpt><trkpt lat="43.9814117" lon="12.201"><ele>130.0</ele><time>2026-04-25T07:26:17.031Z</time></trkpt><trkpt lat="43.981345" lon="12.201075"><ele>132.0</ele><time>2026-04-25T07:26:19.031Z</time></trkpt><trkpt lat="43.981265" lon="12.20114"><ele>132.0</ele><time>2026-04-25T07:26:21.031Z</time></trkpt><trkpt lat="43.98118" lon="12.2011967"><ele>132.0</ele><time>2026-04-25T07:26:23.031Z</time></trkpt><trkpt lat="43.9810983" lon="12.2012517"><ele>132.0</ele><time>2026-04-25T07:26:25.031Z</time></trkpt><trkpt lat="43.9810183" lon="12.2013083"><ele>132.0</ele><time>2026-04-25T07:26:27.031Z</time></trkpt><trkpt lat="43.980935" lon="12.2013517"><ele>132.0</ele><time>2026-04-25T07:26:29.031Z</time></trkpt><trkpt lat="43.98086" lon="12.2013733"><ele>132.0</ele><time>2026-04-25T07:26:31.03Z</time></trkpt><trkpt lat="43.9807833" lon="12.2013983"><ele>132.4</ele><time>2026-04-25T07:26:33.031Z</time></trkpt><trkpt lat="43.9807033" lon="12.201425"><ele>132.79999999999998</ele><time>2026-04-25T07:26:35.031Z</time></trkpt><trkpt lat="43.9805983" lon="12.2014517"><ele>133.2</ele><time>2026-04-25T07:26:37.03Z</time></trkpt><trkpt lat="43.9805333" lon="12.2014783"><ele>133.6</ele><time>2026-04-25T07:26:38.031Z</time></trkpt><trkpt lat="43.9804183" lon="12.2014967"><ele>134.0</ele><time>2026-04-25T07:26:40.031Z</time></trkpt><trkpt lat="43.9803217" lon="12.2015183"><ele>134.0</ele><time>2026-04-25T07:26:42.031Z</time></trkpt><trkpt lat="43.98022" lon="12.201555"><ele>134.0</ele><time>2026-04-25T07:26:44.03Z</time></trkpt><trkpt lat="43.9801183" lon="12.201585"><ele>134.0</ele><time>2026-04-25T07:26:46.03Z</time></trkpt><trkpt lat="43.98" lon="12.20161"><ele>134.0</ele><time>2026-04-25T07:26:48.031Z</time></trkpt><trkpt lat="43.979885" lon="12.2016333"><ele>134.0</ele><time>2026-04-25T07:26:50.03Z</time></trkpt><trkpt lat="43.9798217" lon="12.2016483"><ele>133.6</ele><time>2026-04-25T07:26:51.031Z</time></trkpt><trkpt lat="43.979705" lon="12.20168"><ele>133.2</ele><time>2026-04-25T07:26:53.031Z</time></trkpt><trkpt lat="43.9796033" lon="12.201695"><ele>132.79999999999998</ele><time>2026-04-25T07:26:55.031Z</time></trkpt><trkpt lat="43.97951" lon="12.2016983"><ele>132.4</ele><time>2026-04-25T07:26:57.03Z</time></trkpt><trkpt lat="43.9794233" lon="12.2017033"><ele>132.0</ele><time>2026-04-25T07:26:59.03Z</time></trkpt><trkpt lat="43.9793267" lon="12.2017133"><ele>132.0</ele><time>2026-04-25T07:27:01.03Z</time></trkpt><trkpt lat="43.9792417" lon="12.2017133"><ele>132.0</ele><time>2026-04-25T07:27:03.031Z</time></trkpt><trkpt lat="43.9791533" lon="12.2017133"><ele>132.0</ele><time>2026-04-25T07:27:05.031Z</time></trkpt><trkpt lat="43.9790633" lon="12.2017067"><ele>132.0</ele><time>2026-04-25T07:27:07.031Z</time></trkpt><trkpt lat="43.978925" lon="12.2017033"><ele>132.0</ele><time>2026-04-25T07:27:10.03Z</time></trkpt><trkpt lat="43.9788333" lon="12.201695"><ele>132.83333333333334</ele><time>2026-04-25T07:27:12.031Z</time></trkpt><trkpt lat="43.9787417" lon="12.201685"><ele>133.66666666666666</ele><time>2026-04-25T07:27:14.03Z</time></trkpt><trkpt lat="43.9786767" lon="12.2017033"><ele>134.5</ele><time>2026-04-25T07:27:16.238Z</time></trkpt><trkpt lat="43.9785783" lon="12.20173"><ele>135.33333333333331</ele><time>2026-04-25T07:27:18.524Z</time></trkpt><trkpt lat="43.9785033" lon="12.2017267"><ele>136.16666666666666</ele><time>2026-04-25T07:27:20.024Z</time></trkpt><trkpt lat="43.9783917" lon="12.201725"><ele>137.0</ele><time>2026-04-25T07:27:22.024Z</time></trkpt><trkpt lat="43.97829" lon="12.2017133"><ele>138.25</ele><time>2026-04-25T07:27:24.024Z</time></trkpt><trkpt lat="43.978185" lon="12.2016817"><ele>139.5</ele><time>2026-04-25T07:27:27.526Z</time></trkpt><trkpt lat="43.9780333" lon="12.2016617"><ele>140.75</ele><time>2026-04-25T07:27:30.026Z</time></trkpt><trkpt lat="43.97794" lon="12.2016533"><ele>142.0</ele><time>2026-04-25T07:27:32.026Z</time></trkpt><trkpt lat="43.9778433" lon="12.201635"><ele>142.0</ele><time>2026-04-25T07:27:34.026Z</time></trkpt><trkpt lat="43.97775" lon="12.2016367"><ele>142.0</ele><time>2026-04-25T07:27:36.026Z</time></trkpt><trkpt lat="43.9776667" lon="12.201635"><ele>142.0</ele><time>2026-04-25T07:27:38.026Z</time></trkpt><trkpt lat="43.9775917" lon="12.201635"><ele>142.0</ele><time>2026-04-25T07:27:40.026Z</time></trkpt><trkpt lat="43.9775217" lon="12.20162"><ele>142.0</ele><time>2026-04-25T07:27:42.026Z</time></trkpt><trkpt lat="43.9774533" lon="12.2016067"><ele>142.0</ele><time>2026-04-25T07:27:44.025Z</time></trkpt><trkpt lat="43.9773733" lon="12.2016017"><ele>141.83333333333334</ele><time>2026-04-25T07:27:46.026Z</time></trkpt><trkpt lat="43.977285" lon="12.2015967"><ele>141.66666666666669</ele><time>2026-04-25T07:27:48.026Z</time></trkpt><trkpt lat="43.9772117" lon="12.2015933"><ele>141.5</ele><time>2026-04-25T07:27:50.025Z</time></trkpt><trkpt lat="43.977125" lon="12.2015783"><ele>141.33333333333334</ele><time>2026-04-25T07:27:52.025Z</time></trkpt><trkpt lat="43.977035" lon="12.2015633"><ele>141.16666666666666</ele><time>2026-04-25T07:27:54.025Z</time></trkpt><trkpt lat="43.9769417" lon="12.20156"><ele>141.0</ele><time>2026-04-25T07:27:56.026Z</time></trkpt><trkpt lat="43.97685" lon="12.2015517"><ele>141.0</ele><time>2026-04-25T07:27:58.025Z</time></trkpt><trkpt lat="43.9767617" lon="12.2015467"><ele>141.0</ele><time>2026-04-25T07:28:00.026Z</time></trkpt><trkpt lat="43.9766583" lon="12.20155"><ele>141.0</ele><time>2026-04-25T07:28:02.026Z</time></trkpt><trkpt lat="43.976555" lon="12.20154"><ele>141.0</ele><time>2026-04-25T07:28:04.026Z</time></trkpt><trkpt lat="43.9764567" lon="12.2015133"><ele>141.0</ele><time>2026-04-25T07:28:06.026Z</time></trkpt><trkpt lat="43.9763567" lon="12.20149"><ele>141.33333333333334</ele><time>2026-04-25T07:28:08.026Z</time></trkpt><trkpt lat="43.976265" lon="12.2014833"><ele>141.66666666666666</ele><time>2026-04-25T07:28:10.026Z</time></trkpt><trkpt lat="43.9761733" lon="12.20148"><ele>142.0</ele><time>2026-04-25T07:28:12.026Z</time></trkpt><trkpt lat="43.976085" lon="12.2014733"><ele>142.33333333333331</ele><time>2026-04-25T07:28:14.025Z</time></trkpt><trkpt lat="43.976" lon="12.2014683"><ele>142.66666666666666</ele><time>2026-04-25T07:28:16.026Z</time></trkpt><trkpt lat="43.975915" lon="12.2014467"><ele>143.0</ele><time>2026-04-25T07:28:18.025Z</time></trkpt><trkpt lat="43.9758333" lon="12.2014167"><ele>144.16666666666666</ele><time>2026-04-25T07:28:20.026Z</time></trkpt><trkpt lat="43.975755" lon="12.201375"><ele>145.33333333333331</ele><time>2026-04-25T07:28:22.026Z</time></trkpt><trkpt lat="43.9756667" lon="12.2013417"><ele>146.5</ele><time>2026-04-25T07:28:24.026Z</time></trkpt><trkpt lat="43.9755967" lon="12.2012817"><ele>147.66666666666666</ele><time>2026-04-25T07:28:26.025Z</time></trkpt><trkpt lat="43.97551" lon="12.20123"><ele>148.83333333333334</ele><time>2026-04-25T07:28:28.026Z</time></trkpt><trkpt lat="43.9754367" lon="12.2011767"><ele>150.0</ele><time>2026-04-25T07:28:30.026Z</time></trkpt><trkpt lat="43.9753517" lon="12.201135"><ele>150.0</ele><time>2026-04-25T07:28:32.025Z</time></trkpt><trkpt lat="43.97527" lon="12.2010983"><ele>150.0</ele><time>2026-04-25T07:28:34.026Z</time></trkpt><trkpt lat="43.9751967" lon="12.2010517"><ele>150.0</ele><time>2026-04-25T07:28:36.026Z</time></trkpt><trkpt lat="43.9751133" lon="12.20102"><ele>150.0</ele><time>2026-04-25T07:28:38.026Z</time></trkpt><trkpt lat="43.9750333" lon="12.2009867"><ele>150.0</ele><time>2026-04-25T07:28:40.026Z</time></trkpt><trkpt lat="43.9749567" lon="12.2009467"><ele>150.0</ele><time>2026-04-25T07:28:42.025Z</time></trkpt><trkpt lat="43.9748767" lon="12.2009017"><ele>149.83333333333334</ele><time>2026-04-25T07:28:44.026Z</time></trkpt><trkpt lat="43.9748017" lon="12.2008433"><ele>149.66666666666666</ele><time>2026-04-25T07:28:46.026Z</time></trkpt><trkpt lat="43.9747467" lon="12.2007717"><ele>149.5</ele><time>2026-04-25T07:28:48.026Z</time></trkpt><trkpt lat="43.9747067" lon="12.2006883"><ele>149.33333333333331</ele><time>2026-04-25T07:28:50.025Z</time></trkpt><trkpt lat="43.974665" lon="12.2006"><ele>149.16666666666666</ele><time>2026-04-25T07:28:52.025Z</time></trkpt><trkpt lat="43.9746117" lon="12.200525"><ele>149.0</ele><time>2026-04-25T07:28:54.026Z</time></trkpt><trkpt lat="43.9745383" lon="12.200475"><ele>149.5</ele><time>2026-04-25T07:28:56.025Z</time></trkpt><trkpt lat="43.9744633" lon="12.2004683"><ele>150.0</ele><time>2026-04-25T07:28:58.025Z</time></trkpt><trkpt lat="43.97439" lon="12.2004867"><ele>150.5</ele><time>2026-04-25T07:29:00.026Z</time></trkpt><trkpt lat="43.97431" lon="12.2004917"><ele>151.0</ele><time>2026-04-25T07:29:02.026Z</time></trkpt><trkpt lat="43.97422" lon="12.2004517"><ele>151.5</ele><time>2026-04-25T07:29:04.026Z</time></trkpt><trkpt lat="43.97413" lon="12.2003867"><ele>152.0</ele><time>2026-04-25T07:29:06.026Z</time></trkpt><trkpt lat="43.9740433" lon="12.2003333"><ele>152.0</ele><time>2026-04-25T07:29:08.025Z</time></trkpt><trkpt lat="43.97396" lon="12.2002783"><ele>152.0</ele><time>2026-04-25T07:29:10.026Z</time></trkpt><trkpt lat="43.9738767" lon="12.200225"><ele>152.0</ele><time>2026-04-25T07:29:12.026Z</time></trkpt><trkpt lat="43.9738017" lon="12.2001783"><ele>152.0</ele><time>2026-04-25T07:29:14.026Z</time></trkpt><trkpt lat="43.9737183" lon="12.2001283"><ele>152.0</ele><time>2026-04-25T07:29:16.026Z</time></trkpt><trkpt lat="43.9736367" lon="12.2000867"><ele>152.0</ele><time>2026-04-25T07:29:18.025Z</time></trkpt><trkpt lat="43.9735533" lon="12.2000467"><ele>152.0</ele><time>2026-04-25T07:29:20.026Z</time></trkpt><trkpt lat="43.9734667" lon="12.2000067"><ele>152.0</ele><time>2026-04-25T07:29:22.025Z</time></trkpt><trkpt lat="43.9733783" lon="12.199965"><ele>152.0</ele><time>2026-04-25T07:29:24.025Z</time></trkpt><trkpt lat="43.9732917" lon="12.1999333"><ele>152.0</ele><time>2026-04-25T07:29:26.026Z</time></trkpt><trkpt lat="43.9731967" lon="12.1998983"><ele>152.0</ele><time>2026-04-25T07:29:28.026Z</time></trkpt><trkpt lat="43.9731017" lon="12.1998633"><ele>151.79999999999998</ele><time>2026-04-25T07:29:30.026Z</time></trkpt><trkpt lat="43.9730067" lon="12.1998383"><ele>151.6</ele><time>2026-04-25T07:29:32.025Z</time></trkpt><trkpt lat="43.9729067" lon="12.1998117"><ele>151.39999999999998</ele><time>2026-04-25T07:29:34.026Z</time></trkpt><trkpt lat="43.9728067" lon="12.1997883"><ele>151.2</ele><time>2026-04-25T07:29:36.026Z</time></trkpt><trkpt lat="43.9727083" lon="12.19976"><ele>151.0</ele><time>2026-04-25T07:29:38.025Z</time></trkpt><trkpt lat="43.97261" lon="12.1997417"><ele>151.6</ele><time>2026-04-25T07:29:40.025Z</time></trkpt><trkpt lat="43.9725117" lon="12.1997217"><ele>152.2</ele><time>2026-04-25T07:29:42.026Z</time></trkpt><trkpt lat="43.9724117" lon="12.1997017"><ele>152.8</ele><time>2026-04-25T07:29:44.025Z</time></trkpt><trkpt lat="43.97231" lon="12.1996783"><ele>153.4</ele><time>2026-04-25T07:29:46.026Z</time></trkpt><trkpt lat="43.9722117" lon="12.199655"><ele>154.0</ele><time>2026-04-25T07:29:48.025Z</time></trkpt><trkpt lat="43.972125" lon="12.1996383"><ele>154.0</ele><time>2026-04-25T07:29:50.026Z</time></trkpt><trkpt lat="43.9720433" lon="12.1996183"><ele>154.0</ele><time>2026-04-25T07:29:52.026Z</time></trkpt><trkpt lat="43.9719567" lon="12.1995983"><ele>154.0</ele><time>2026-04-25T07:29:54.025Z</time></trkpt><trkpt lat="43.9718683" lon="12.1995767"><ele>154.0</ele><time>2026-04-25T07:29:56.025Z</time></trkpt><trkpt lat="43.97177" lon="12.1995533"><ele>154.0</ele><time>2026-04-25T07:29:58.025Z</time></trkpt><trkpt lat="43.9716683" lon="12.1995267"><ele>154.2</ele><time>2026-04-25T07:30:00.025Z</time></trkpt><trkpt lat="43.9715717" lon="12.1995017"><ele>154.4</ele><time>2026-04-25T07:30:02.025Z</time></trkpt><trkpt lat="43.971475" lon="12.1994817"><ele>154.6</ele><time>2026-04-25T07:30:04.026Z</time></trkpt><trkpt lat="43.9713733" lon="12.1994633"><ele>154.8</ele><time>2026-04-25T07:30:06.025Z</time></trkpt><trkpt lat="43.9712767" lon="12.19944"><ele>155.0</ele><time>2026-04-25T07:30:08.026Z</time></trkpt><trkpt lat="43.971185" lon="12.1994167"><ele>155.0</ele><time>2026-04-25T07:30:10.026Z</time></trkpt><trkpt lat="43.9711" lon="12.19939"><ele>155.0</ele><time>2026-04-25T07:30:12.026Z</time></trkpt><trkpt lat="43.9710133" lon="12.199365"><ele>155.0</ele><time>2026-04-25T07:30:14.025Z</time></trkpt><trkpt lat="43.97092" lon="12.1993367"><ele>155.0</ele><time>2026-04-25T07:30:16.025Z</time></trkpt><trkpt lat="43.97083" lon="12.1993083"><ele>155.0</ele><time>2026-04-25T07:30:18.025Z</time></trkpt><trkpt lat="43.97074" lon="12.1992783"><ele>155.16666666666666</ele><time>2026-04-25T07:30:20.025Z</time></trkpt><trkpt lat="43.9706517" lon="12.1992567"><ele>155.33333333333331</ele><time>2026-04-25T07:30:22.026Z</time></trkpt><trkpt lat="43.9705717" lon="12.1992417"><ele>155.5</ele><time>2026-04-25T07:30:24.026Z</time></trkpt><trkpt lat="43.9704883" lon="12.1992183"><ele>155.66666666666666</ele><time>2026-04-25T07:30:26.025Z</time></trkpt><trkpt lat="43.970395" lon="12.1991983"><ele>155.83333333333334</ele><time>2026-04-25T07:30:28.026Z</time></trkpt><trkpt lat="43.9703083" lon="12.19918"><ele>156.0</ele><time>2026-04-25T07:30:30.026Z</time></trkpt><trkpt lat="43.9702267" lon="12.1991517"><ele>156.0</ele><time>2026-04-25T07:30:32.025Z</time></trkpt><trkpt lat="43.97014" lon="12.1991333"><ele>156.0</ele><time>2026-04-25T07:30:34.026Z</time></trkpt><trkpt lat="43.9700517" lon="12.1991217"><ele>156.0</ele><time>2026-04-25T07:30:36.025Z</time></trkpt><trkpt lat="43.96996" lon="12.1991083"><ele>156.0</ele><time>2026-04-25T07:30:38.025Z</time></trkpt><trkpt lat="43.96988" lon="12.1990783"><ele>156.0</ele><time>2026-04-25T07:30:40.026Z</time></trkpt><trkpt lat="43.9697933" lon="12.1990467"><ele>156.0</ele><time>2026-04-25T07:30:42.025Z</time></trkpt><trkpt lat="43.9696967" lon="12.199025"><ele>156.6</ele><time>2026-04-25T07:30:44.026Z</time></trkpt><trkpt lat="43.9696067" lon="12.1990017"><ele>157.2</ele><time>2026-04-25T07:30:46.026Z</time></trkpt><trkpt lat="43.969515" lon="12.1989817"><ele>157.8</ele><time>2026-04-25T07:30:48.025Z</time></trkpt><trkpt lat="43.9694267" lon="12.19895"><ele>158.4</ele><time>2026-04-25T07:30:50.025Z</time></trkpt><trkpt lat="43.9693383" lon="12.198915"><ele>159.0</ele><time>2026-04-25T07:30:52.026Z</time></trkpt><trkpt lat="43.9692467" lon="12.19889"><ele>159.4</ele><time>2026-04-25T07:30:54.026Z</time></trkpt><trkpt lat="43.96915" lon="12.1988667"><ele>159.8</ele><time>2026-04-25T07:30:56.026Z</time></trkpt><trkpt lat="43.969055" lon="12.19883"><ele>160.20000000000002</ele><time>2026-04-25T07:30:58.025Z</time></trkpt><trkpt lat="43.9689633" lon="12.19879"><ele>160.60000000000002</ele><time>2026-04-25T07:31:00.026Z</time></trkpt><trkpt lat="43.9688667" lon="12.1987517"><ele>161.0</ele><time>2026-04-25T07:31:02.026Z</time></trkpt><trkpt lat="43.9687417" lon="12.1987383"><ele>161.0</ele><time>2026-04-25T07:31:04.026Z</time></trkpt><trkpt lat="43.9686417" lon="12.198695"><ele>161.0</ele><time>2026-04-25T07:31:06.026Z</time></trkpt><trkpt lat="43.9685433" lon="12.1986733"><ele>161.0</ele><time>2026-04-25T07:31:08.025Z</time></trkpt><trkpt lat="43.9684483" lon="12.1986617"><ele>161.0</ele><time>2026-04-25T07:31:10.026Z</time></trkpt><trkpt lat="43.96836" lon="12.198655"><ele>161.0</ele><time>2026-04-25T07:31:12.026Z</time></trkpt><trkpt lat="43.9682583" lon="12.1986683"><ele>161.8</ele><time>2026-04-25T07:31:14.025Z</time></trkpt><trkpt lat="43.9681583" lon="12.1986833"><ele>162.60000000000002</ele><time>2026-04-25T07:31:16.025Z</time></trkpt><trkpt lat="43.9680617" lon="12.1987083"><ele>163.4</ele><time>2026-04-25T07:31:18.025Z</time></trkpt><trkpt lat="43.967965" lon="12.1987383"><ele>164.2</ele><time>2026-04-25T07:31:20.025Z</time></trkpt><trkpt lat="43.9678667" lon="12.198775"><ele>165.0</ele><time>2026-04-25T07:31:22.025Z</time></trkpt><trkpt lat="43.967775" lon="12.1988117"><ele>165.0</ele><time>2026-04-25T07:31:24.026Z</time></trkpt><trkpt lat="43.967685" lon="12.19884"><ele>165.0</ele><time>2026-04-25T07:31:26.026Z</time></trkpt><trkpt lat="43.9675867" lon="12.1988683"><ele>165.0</ele><time>2026-04-25T07:31:28.026Z</time></trkpt><trkpt lat="43.9674917" lon="12.1988883"><ele>165.0</ele><time>2026-04-25T07:31:30.026Z</time></trkpt><trkpt lat="43.9673933" lon="12.1989033"><ele>165.0</ele><time>2026-04-25T07:31:32.026Z</time></trkpt><trkpt lat="43.9672817" lon="12.1989283"><ele>165.4</ele><time>2026-04-25T07:31:34.026Z</time></trkpt><trkpt lat="43.9671767" lon="12.1989417"><ele>165.8</ele><time>2026-04-25T07:31:36.026Z</time></trkpt><trkpt lat="43.9670833" lon="12.1989417"><ele>166.2</ele><time>2026-04-25T07:31:38.026Z</time></trkpt><trkpt lat="43.966995" lon="12.19893"><ele>166.6</ele><time>2026-04-25T07:31:40.026Z</time></trkpt><trkpt lat="43.9668967" lon="12.198925"><ele>167.0</ele><time>2026-04-25T07:31:42.026Z</time></trkpt><trkpt lat="43.9667967" lon="12.1989117"><ele>167.0</ele><time>2026-04-25T07:31:44.025Z</time></trkpt><trkpt lat="43.9667" lon="12.1988867"><ele>167.0</ele><time>2026-04-25T07:31:46.025Z</time></trkpt><trkpt lat="43.9666033" lon="12.1988617"><ele>167.0</ele><time>2026-04-25T07:31:48.025Z</time></trkpt><trkpt lat="43.9665133" lon="12.19883"><ele>167.0</ele><time>2026-04-25T07:31:50.026Z</time></trkpt><trkpt lat="43.96642" lon="12.1987967"><ele>167.0</ele><time>2026-04-25T07:31:52.025Z</time></trkpt><trkpt lat="43.96632" lon="12.198775"><ele>166.8</ele><time>2026-04-25T07:31:54.026Z</time></trkpt><trkpt lat="43.9662217" lon="12.19873"><ele>166.6</ele><time>2026-04-25T07:31:56.025Z</time></trkpt><trkpt lat="43.96615" lon="12.1986517"><ele>166.4</ele><time>2026-04-25T07:31:58.026Z</time></trkpt><trkpt lat="43.9660583" lon="12.19859"><ele>166.20000000000002</ele><time>2026-04-25T07:32:00.025Z</time></trkpt><trkpt lat="43.9659483" lon="12.198545"><ele>166.0</ele><time>2026-04-25T07:32:02.025Z</time></trkpt><trkpt lat="43.96585" lon="12.1985383"><ele>165.60000000000002</ele><time>2026-04-25T07:32:04.025Z</time></trkpt><trkpt lat="43.9657417" lon="12.1985733"><ele>165.2</ele><time>2026-04-25T07:32:06.025Z</time></trkpt><trkpt lat="43.9656267" lon="12.1986"><ele>164.8</ele><time>2026-04-25T07:32:08.025Z</time></trkpt><trkpt lat="43.9655267" lon="12.1985617"><ele>164.39999999999998</ele><time>2026-04-25T07:32:10.026Z</time></trkpt><trkpt lat="43.965415" lon="12.1985283"><ele>164.0</ele><time>2026-04-25T07:32:12.026Z</time></trkpt><trkpt lat="43.9653083" lon="12.1984967"><ele>164.0</ele><time>2026-04-25T07:32:14.025Z</time></trkpt><trkpt lat="43.9651967" lon="12.1984667"><ele>164.0</ele><time>2026-04-25T07:32:16.026Z</time></trkpt><trkpt lat="43.9650883" lon="12.1984267"><ele>164.0</ele><time>2026-04-25T07:32:18.025Z</time></trkpt><trkpt lat="43.964975" lon="12.1984017"><ele>164.0</ele><time>2026-04-25T07:32:20.026Z</time></trkpt><trkpt lat="43.964865" lon="12.1983817"><ele>163.83333333333331</ele><time>2026-04-25T07:32:22.026Z</time></trkpt><trkpt lat="43.96476" lon="12.19836"><ele>163.66666666666666</ele><time>2026-04-25T07:32:24.026Z</time></trkpt><trkpt lat="43.9646967" lon="12.1983383"><ele>163.5</ele><time>2026-04-25T07:32:25.025Z</time></trkpt><trkpt lat="43.9645683" lon="12.1983133"><ele>163.33333333333334</ele><time>2026-04-25T07:32:27.026Z</time></trkpt><trkpt lat="43.9645017" lon="12.1983033"><ele>163.16666666666669</ele><time>2026-04-25T07:32:28.026Z</time></trkpt><trkpt lat="43.9644383" lon="12.198295"><ele>163.0</ele><time>2026-04-25T07:32:29.026Z</time></trkpt><trkpt lat="43.9643167" lon="12.1982617"><ele>163.0</ele><time>2026-04-25T07:32:31.025Z</time></trkpt><trkpt lat="43.9642017" lon="12.1982283"><ele>163.0</ele><time>2026-04-25T07:32:33.026Z</time></trkpt><trkpt lat="43.9640967" lon="12.1981933"><ele>163.0</ele><time>2026-04-25T07:32:35.026Z</time></trkpt><trkpt lat="43.96398" lon="12.1981583"><ele>163.0</ele><time>2026-04-25T07:32:37.027Z</time></trkpt><trkpt lat="43.9638733" lon="12.1981183"><ele>164.0</ele><time>2026-04-25T07:32:39.027Z</time></trkpt><trkpt lat="43.9637567" lon="12.1980867"><ele>165.0</ele><time>2026-04-25T07:32:41.027Z</time></trkpt><trkpt lat="43.963645" lon="12.1980467"><ele>166.0</ele><time>2026-04-25T07:32:43.027Z</time></trkpt><trkpt lat="43.9635167" lon="12.1980367"><ele>167.0</ele><time>2026-04-25T07:32:45.026Z</time></trkpt><trkpt lat="43.96345" lon="12.198025"><ele>168.0</ele><time>2026-04-25T07:32:46.027Z</time></trkpt><trkpt lat="43.96333" lon="12.197995"><ele>168.0</ele><time>2026-04-25T07:32:48.026Z</time></trkpt><trkpt lat="43.9632083" lon="12.1979667"><ele>168.0</ele><time>2026-04-25T07:32:50.026Z</time></trkpt><trkpt lat="43.96309" lon="12.1979333"><ele>168.0</ele><time>2026-04-25T07:32:52.027Z</time></trkpt><trkpt lat="43.9629767" lon="12.1979033"><ele>168.0</ele><time>2026-04-25T07:32:54.027Z</time></trkpt><trkpt lat="43.9628633" lon="12.1978667"><ele>168.0</ele><time>2026-04-25T07:32:56.027Z</time></trkpt><trkpt lat="43.96275" lon="12.197835"><ele>168.0</ele><time>2026-04-25T07:32:58.026Z</time></trkpt><trkpt lat="43.9626317" lon="12.1978067"><ele>168.0</ele><time>2026-04-25T07:33:00.026Z</time></trkpt><trkpt lat="43.9625133" lon="12.19778"><ele>168.0</ele><time>2026-04-25T07:33:02.026Z</time></trkpt><trkpt lat="43.9623933" lon="12.1977483"><ele>167.85714285714286</ele><time>2026-04-25T07:33:04.027Z</time></trkpt><trkpt lat="43.9623317" lon="12.1977233"><ele>167.71428571428572</ele><time>2026-04-25T07:33:05.027Z</time></trkpt><trkpt lat="43.96226" lon="12.19771"><ele>167.57142857142856</ele><time>2026-04-25T07:33:06.026Z</time></trkpt><trkpt lat="43.9621917" lon="12.1976917"><ele>167.42857142857144</ele><time>2026-04-25T07:33:07.027Z</time></trkpt><trkpt lat="43.9621183" lon="12.1976717"><ele>167.28571428571428</ele><time>2026-04-25T07:33:08.026Z</time></trkpt><trkpt lat="43.962045" lon="12.1976567"><ele>167.14285714285714</ele><time>2026-04-25T07:33:09.027Z</time></trkpt><trkpt lat="43.9619767" lon="12.1976367"><ele>167.0</ele><time>2026-04-25T07:33:10.026Z</time></trkpt><trkpt lat="43.9619083" lon="12.1976167"><ele>167.0</ele><time>2026-04-25T07:33:11.026Z</time></trkpt><trkpt lat="43.9618367" lon="12.1975917"><ele>167.0</ele><time>2026-04-25T07:33:12.027Z</time></trkpt><trkpt lat="43.961765" lon="12.19757"><ele>167.0</ele><time>2026-04-25T07:33:13.027Z</time></trkpt><trkpt lat="43.9616933" lon="12.1975483"><ele>167.0</ele><time>2026-04-25T07:33:14.027Z</time></trkpt><trkpt lat="43.9616267" lon="12.19751"><ele>167.0</ele><time>2026-04-25T07:33:15.027Z</time></trkpt><trkpt lat="43.9615533" lon="12.1974833"><ele>167.0</ele><time>2026-04-25T07:33:16.026Z</time></trkpt><trkpt lat="43.96147" lon="12.1974733"><ele>165.5</ele><time>2026-04-25T07:33:17.027Z</time></trkpt><trkpt lat="43.9613883" lon="12.1974517"><ele>164.0</ele><time>2026-04-25T07:33:18.026Z</time></trkpt><trkpt lat="43.9613033" lon="12.1974367"><ele>162.5</ele><time>2026-04-25T07:33:19.027Z</time></trkpt><trkpt lat="43.9612217" lon="12.197415"><ele>161.0</ele><time>2026-04-25T07:33:20.027Z</time></trkpt><trkpt lat="43.9611417" lon="12.1973933"><ele>159.5</ele><time>2026-04-25T07:33:21.026Z</time></trkpt><trkpt lat="43.96106" lon="12.1973717"><ele>158.0</ele><time>2026-04-25T07:33:22.027Z</time></trkpt><trkpt lat="43.9609767" lon="12.1973517"><ele>159.16666666666666</ele><time>2026-04-25T07:33:23.027Z</time></trkpt><trkpt lat="43.9608933" lon="12.1973317"><ele>160.33333333333331</ele><time>2026-04-25T07:33:24.026Z</time></trkpt><trkpt lat="43.96081" lon="12.197305"><ele>161.5</ele><time>2026-04-25T07:33:25.027Z</time></trkpt><trkpt lat="43.96072" lon="12.197275"><ele>162.66666666666666</ele><time>2026-04-25T07:33:26.026Z</time></trkpt><trkpt lat="43.9606317" lon="12.1972467"><ele>163.83333333333334</ele><time>2026-04-25T07:33:27.027Z</time></trkpt><trkpt lat="43.96055" lon="12.19722"><ele>165.0</ele><time>2026-04-25T07:33:28.027Z</time></trkpt><trkpt lat="43.96046" lon="12.1971983"><ele>165.0</ele><time>2026-04-25T07:33:29.026Z</time></trkpt><trkpt lat="43.96038" lon="12.1971633"><ele>165.0</ele><time>2026-04-25T07:33:30.026Z</time></trkpt><trkpt lat="43.9603033" lon="12.19712"><ele>165.0</ele><time>2026-04-25T07:33:31.027Z</time></trkpt><trkpt lat="43.9602217" lon="12.1970733"><ele>165.0</ele><time>2026-04-25T07:33:32.026Z</time></trkpt><trkpt lat="43.9601417" lon="12.1970233"><ele>165.0</ele><time>2026-04-25T07:33:33.027Z</time></trkpt><trkpt lat="43.9600633" lon="12.1969783"><ele>165.0</ele><time>2026-04-25T07:33:34.027Z</time></trkpt><trkpt lat="43.9599817" lon="12.196925"><ele>163.83333333333334</ele><time>2026-04-25T07:33:35.027Z</time></trkpt><trkpt lat="43.9599017" lon="12.1968767"><ele>162.66666666666666</ele><time>2026-04-25T07:33:36.026Z</time></trkpt><trkpt lat="43.9598167" lon="12.1968367"><ele>161.5</ele><time>2026-04-25T07:33:37.026Z</time></trkpt><trkpt lat="43.959735" lon="12.1967917"><ele>160.33333333333331</ele><time>2026-04-25T07:33:38.027Z</time></trkpt><trkpt lat="43.9596517" lon="12.1967533"><ele>159.16666666666666</ele><time>2026-04-25T07:33:39.027Z</time></trkpt><trkpt lat="43.9595667" lon="12.1967183"><ele>158.0</ele><time>2026-04-25T07:33:40.027Z</time></trkpt><trkpt lat="43.9594817" lon="12.1966833"><ele>158.0</ele><time>2026-04-25T07:33:41.027Z</time></trkpt><trkpt lat="43.9593917" lon="12.1966483"><ele>158.0</ele><time>2026-04-25T07:33:42.026Z</time></trkpt><trkpt lat="43.9593067" lon="12.1966067"><ele>158.0</ele><time>2026-04-25T07:33:43.027Z</time></trkpt><trkpt lat="43.9592217" lon="12.1965683"><ele>158.0</ele><time>2026-04-25T07:33:44.026Z</time></trkpt><trkpt lat="43.9591383" lon="12.1965167"><ele>158.0</ele><time>2026-04-25T07:33:45.027Z</time></trkpt><trkpt lat="43.95905" lon="12.1964583"><ele>158.0</ele><time>2026-04-25T07:33:46.027Z</time></trkpt><trkpt lat="43.9589533" lon="12.196405"><ele>158.0</ele><time>2026-04-25T07:33:47.027Z</time></trkpt><trkpt lat="43.95885" lon="12.1963617"><ele>158.0</ele><time>2026-04-25T07:33:48.027Z</time></trkpt><trkpt lat="43.9587467" lon="12.196315"><ele>158.0</ele><time>2026-04-25T07:33:49.027Z</time></trkpt><trkpt lat="43.9586533" lon="12.1962717"><ele>158.0</ele><time>2026-04-25T07:33:50.027Z</time></trkpt><trkpt lat="43.958565" lon="12.196235"><ele>158.0</ele><time>2026-04-25T07:33:51.026Z</time></trkpt><trkpt lat="43.95849" lon="12.1962083"><ele>158.0</ele><time>2026-04-25T07:33:52.027Z</time></trkpt><trkpt lat="43.9584267" lon="12.1961867"><ele>158.0</ele><time>2026-04-25T07:33:53.026Z</time></trkpt><trkpt lat="43.9583183" lon="12.1961383"><ele>158.0</ele><time>2026-04-25T07:33:55.026Z</time></trkpt><trkpt lat="43.9582" lon="12.19609"><ele>158.0</ele><time>2026-04-25T07:33:57.026Z</time></trkpt><trkpt lat="43.9581317" lon="12.1960667"><ele>157.5</ele><time>2026-04-25T07:33:58.027Z</time></trkpt><trkpt lat="43.9580633" lon="12.1960383"><ele>157.0</ele><time>2026-04-25T07:33:59.027Z</time></trkpt><trkpt lat="43.9580033" lon="12.19601"><ele>156.5</ele><time>2026-04-25T07:34:00.027Z</time></trkpt><trkpt lat="43.9579383" lon="12.1959733"><ele>156.0</ele><time>2026-04-25T07:34:01.026Z</time></trkpt><trkpt lat="43.9578617" lon="12.195945"><ele>155.5</ele><time>2026-04-25T07:34:02.026Z</time></trkpt><trkpt lat="43.95778" lon="12.1959167"><ele>155.0</ele><time>2026-04-25T07:34:03.027Z</time></trkpt><trkpt lat="43.9576983" lon="12.19591"><ele>155.0</ele><time>2026-04-25T07:34:04.027Z</time></trkpt><trkpt lat="43.9576333" lon="12.1959"><ele>155.0</ele><time>2026-04-25T07:34:05.026Z</time></trkpt><trkpt lat="43.95757" lon="12.1958683"><ele>155.0</ele><time>2026-04-25T07:34:06.026Z</time></trkpt><trkpt lat="43.9575033" lon="12.19586"><ele>155.0</ele><time>2026-04-25T07:34:07.026Z</time></trkpt><trkpt lat="43.9573783" lon="12.1958417"><ele>155.0</ele><time>2026-04-25T07:34:09.027Z</time></trkpt><trkpt lat="43.9572717" lon="12.1958233"><ele>155.0</ele><time>2026-04-25T07:34:11.027Z</time></trkpt><trkpt lat="43.9571417" lon="12.195835"><ele>152.6</ele><time>2026-04-25T07:34:13.027Z</time></trkpt><trkpt lat="43.9570317" lon="12.1958983"><ele>150.2</ele><time>2026-04-25T07:34:15.027Z</time></trkpt><trkpt lat="43.9569267" lon="12.1959233"><ele>147.8</ele><time>2026-04-25T07:34:17.027Z</time></trkpt><trkpt lat="43.95683" lon="12.1959383"><ele>145.4</ele><time>2026-04-25T07:34:19.026Z</time></trkpt><trkpt lat="43.9567383" lon="12.19596"><ele>143.0</ele><time>2026-04-25T07:34:21.027Z</time></trkpt><trkpt lat="43.956645" lon="12.1959933"><ele>142.66666666666666</ele><time>2026-04-25T07:34:23.027Z</time></trkpt><trkpt lat="43.9565533" lon="12.1960033"><ele>142.33333333333331</ele><time>2026-04-25T07:34:25.026Z</time></trkpt><trkpt lat="43.9564767" lon="12.19601"><ele>142.0</ele><time>2026-04-25T07:34:27.027Z</time></trkpt><trkpt lat="43.95639" lon="12.1960117"><ele>141.66666666666666</ele><time>2026-04-25T07:34:29.026Z</time></trkpt><trkpt lat="43.9563083" lon="12.19601"><ele>141.33333333333334</ele><time>2026-04-25T07:34:31.027Z</time></trkpt><trkpt lat="43.9562367" lon="12.1960017"><ele>141.0</ele><time>2026-04-25T07:34:33.027Z</time></trkpt><trkpt lat="43.9561683" lon="12.1960183"><ele>141.0</ele><time>2026-04-25T07:34:35.027Z</time></trkpt><trkpt lat="43.956105" lon="12.19604"><ele>141.0</ele><time>2026-04-25T07:34:37.026Z</time></trkpt><trkpt lat="43.9560383" lon="12.19604"><ele>141.0</ele><time>2026-04-25T07:34:39.026Z</time></trkpt><trkpt lat="43.95597" lon="12.196005"><ele>141.0</ele><time>2026-04-25T07:34:41.027Z</time></trkpt><trkpt lat="43.9559183" lon="12.19593"><ele>141.0</ele><time>2026-04-25T07:34:43.027Z</time></trkpt><trkpt lat="43.9558767" lon="12.195845"><ele>141.0</ele><time>2026-04-25T07:34:45.026Z</time></trkpt><trkpt lat="43.9558417" lon="12.1957567"><ele>141.0</ele><time>2026-04-25T07:34:47.027Z</time></trkpt><trkpt lat="43.9558217" lon="12.1956617"><ele>140.5</ele><time>2026-04-25T07:34:49.027Z</time></trkpt><trkpt lat="43.9558033" lon="12.1955767"><ele>140.0</ele><time>2026-04-25T07:34:51.027Z</time></trkpt><trkpt lat="43.95575" lon="12.195475"><ele>139.5</ele><time>2026-04-25T07:34:54.027Z</time></trkpt><trkpt lat="43.9557317" lon="12.1955683"><ele>139.0</ele><time>2026-04-25T07:39:08.026Z</time></trkpt><trkpt lat="43.955655" lon="12.1956183"><ele>138.5</ele><time>2026-04-25T07:39:11.027Z</time></trkpt><trkpt lat="43.9555817" lon="12.1956467"><ele>138.0</ele><time>2026-04-25T07:39:14.027Z</time></trkpt><trkpt lat="43.9555083" lon="12.1956533"><ele>137.33333333333334</ele><time>2026-04-25T07:39:17.027Z</time></trkpt><trkpt lat="43.9554283" lon="12.1956717"><ele>136.66666666666666</ele><time>2026-04-25T07:39:20.026Z</time></trkpt><trkpt lat="43.95536" lon="12.1957067"><ele>136.0</ele><time>2026-04-25T07:39:23.027Z</time></trkpt><trkpt lat="43.9552833" lon="12.1957233"><ele>135.33333333333331</ele><time>2026-04-25T07:39:26.027Z</time></trkpt><trkpt lat="43.955215" lon="12.1957533"><ele>134.66666666666666</ele><time>2026-04-25T07:39:29.027Z</time></trkpt><trkpt lat="43.9551383" lon="12.195785"><ele>134.0</ele><time>2026-04-25T07:39:32.027Z</time></trkpt><trkpt lat="43.955065" lon="12.1958067"><ele>134.66666666666666</ele><time>2026-04-25T07:39:35.026Z</time></trkpt><trkpt lat="43.9549817" lon="12.1958233"><ele>135.33333333333331</ele><time>2026-04-25T07:39:38.027Z</time></trkpt><trkpt lat="43.9549017" lon="12.1957933"><ele>136.0</ele><time>2026-04-25T07:39:41.026Z</time></trkpt><trkpt lat="43.9548317" lon="12.19575"><ele>136.66666666666666</ele><time>2026-04-25T07:39:44.027Z</time></trkpt><trkpt lat="43.9547667" lon="12.195705"><ele>137.33333333333334</ele><time>2026-04-25T07:39:47.027Z</time></trkpt><trkpt lat="43.9546967" lon="12.1956733"><ele>138.0</ele><time>2026-04-25T07:39:50.027Z</time></trkpt><trkpt lat="43.9546317" lon="12.1956367"><ele>138.0</ele><time>2026-04-25T07:39:53.026Z</time></trkpt><trkpt lat="43.9545717" lon="12.1956"><ele>138.0</ele><time>2026-04-25T07:39:56.027Z</time></trkpt><trkpt lat="43.9544983" lon="12.195565"><ele>138.0</ele><time>2026-04-25T07:39:59.027Z</time></trkpt><trkpt lat="43.95443" lon="12.1955383"><ele>138.0</ele><time>2026-04-25T07:40:02.027Z</time></trkpt><trkpt lat="43.9543667" lon="12.1955067"><ele>138.0</ele><time>2026-04-25T07:40:05.027Z</time></trkpt><trkpt lat="43.95429" lon="12.1954817"><ele>138.0</ele><time>2026-04-25T07:40:08.027Z</time></trkpt><trkpt lat="43.9542133" lon="12.19544"><ele>138.0</ele><time>2026-04-25T07:40:11.026Z</time></trkpt><trkpt lat="43.954145" lon="12.1954183"><ele>140.85714285714286</ele><time>2026-04-25T07:40:14.026Z</time></trkpt><trkpt lat="43.9540717" lon="12.1953817"><ele>143.71428571428572</ele><time>2026-04-25T07:40:17.027Z</time></trkpt><trkpt lat="43.9540067" lon="12.1953483"><ele>146.57142857142858</ele><time>2026-04-25T07:40:20.027Z</time></trkpt><trkpt lat="43.95394" lon="12.1953167"><ele>149.42857142857144</ele><time>2026-04-25T07:40:23.026Z</time></trkpt><trkpt lat="43.9538683" lon="12.1953267"><ele>152.28571428571428</ele><time>2026-04-25T07:40:26.027Z</time></trkpt><trkpt lat="43.9538" lon="12.1953717"><ele>155.14285714285717</ele><time>2026-04-25T07:40:29.027Z</time></trkpt><trkpt lat="43.9537317" lon="12.1954267"><ele>158.0</ele><time>2026-04-25T07:40:32.026Z</time></trkpt><trkpt lat="43.9536367" lon="12.1954483"><ele>158.0</ele><time>2026-04-25T07:40:35.027Z</time></trkpt><trkpt lat="43.9535533" lon="12.1954067"><ele>158.0</ele><time>2026-04-25T07:40:37.027Z</time></trkpt><trkpt lat="43.953475" lon="12.1953133"><ele>158.0</ele><time>2026-04-25T07:40:39.027Z</time></trkpt><trkpt lat="43.953445" lon="12.19519"><ele>158.0</ele><time>2026-04-25T07:40:41.027Z</time></trkpt><trkpt lat="43.9534617" lon="12.1950633"><ele>158.0</ele><time>2026-04-25T07:40:43.027Z</time></trkpt><trkpt lat="43.9535033" lon="12.1949733"><ele>158.0</ele><time>2026-04-25T07:40:45.027Z</time></trkpt><trkpt lat="43.9535633" lon="12.19492"><ele>158.0</ele><time>2026-04-25T07:40:48.026Z</time></trkpt><trkpt lat="43.9536383" lon="12.1949067"><ele>158.0</ele><time>2026-04-25T07:40:53.027Z</time></trkpt><trkpt lat="43.95372" lon="12.1948883"><ele>158.0</ele><time>2026-04-25T07:40:57.027Z</time></trkpt><trkpt lat="43.953795" lon="12.1948433"><ele>158.0</ele><time>2026-04-25T07:41:01.027Z</time></trkpt><trkpt lat="43.9538633" lon="12.194795"><ele>158.0</ele><time>2026-04-25T07:41:04.027Z</time></trkpt><trkpt lat="43.953925" lon="12.1947517"><ele>158.2857142857143</ele><time>2026-04-25T07:41:07.027Z</time></trkpt><trkpt lat="43.9539817" lon="12.1947117"><ele>158.57142857142858</ele><time>2026-04-25T07:41:10.027Z</time></trkpt><trkpt lat="43.953995" lon="12.19462"><ele>158.85714285714286</ele><time>2026-04-25T07:41:14.026Z</time></trkpt><trkpt lat="43.9539167" lon="12.1945833"><ele>159.14285714285717</ele><time>2026-04-25T07:41:19.027Z</time></trkpt><trkpt lat="43.9538533" lon="12.1946033"><ele>159.42857142857144</ele><time>2026-04-25T07:41:22.027Z</time></trkpt><trkpt lat="43.9537867" lon="12.19464"><ele>159.71428571428572</ele><time>2026-04-25T07:41:26.027Z</time></trkpt><trkpt lat="43.9537133" lon="12.194665"><ele>160.0</ele><time>2026-04-25T07:41:30.027Z</time></trkpt><trkpt lat="43.953645" lon="12.1946883"><ele>160.0</ele><time>2026-04-25T07:41:33.026Z</time></trkpt><trkpt lat="43.9535817" lon="12.19471"><ele>160.0</ele><time>2026-04-25T07:41:36.027Z</time></trkpt><trkpt lat="43.9535" lon="12.1947317"><ele>160.0</ele><time>2026-04-25T07:41:40.027Z</time></trkpt><trkpt lat="43.9534417" lon="12.194765"><ele>160.0</ele><time>2026-04-25T07:41:43.026Z</time></trkpt><trkpt lat="43.9533767" lon="12.194795"><ele>160.0</ele><time>2026-04-25T07:41:46.027Z</time></trkpt><trkpt lat="43.95332" lon="12.1948483"><ele>160.0</ele><time>2026-04-25T07:41:50.027Z</time></trkpt><trkpt lat="43.953245" lon="12.1948983"><ele>160.0</ele><time>2026-04-25T07:41:54.027Z</time></trkpt><trkpt lat="43.953185" lon="12.1949283"><ele>161.14285714285714</ele><time>2026-04-25T07:41:57.026Z</time></trkpt><trkpt lat="43.9531183" lon="12.1949533"><ele>162.28571428571428</ele><time>2026-04-25T07:42:00.027Z</time></trkpt><trkpt lat="43.9530533" lon="12.19497"><ele>163.42857142857144</ele><time>2026-04-25T07:42:03.026Z</time></trkpt><trkpt lat="43.9529833" lon="12.1950133"><ele>164.57142857142856</ele><time>2026-04-25T07:42:07.026Z</time></trkpt><trkpt lat="43.9529183" lon="12.19507"><ele>165.71428571428572</ele><time>2026-04-25T07:42:11.026Z</time></trkpt><trkpt lat="43.95286" lon="12.19512"><ele>166.85714285714286</ele><time>2026-04-25T07:42:16.027Z</time></trkpt><trkpt lat="43.952795" lon="12.195195"><ele>168.0</ele><time>2026-04-25T07:42:20.026Z</time></trkpt><trkpt lat="43.95273" lon="12.1952383"><ele>168.0</ele><time>2026-04-25T07:42:23.026Z</time></trkpt><trkpt lat="43.9526417" lon="12.19526"><ele>168.0</ele><time>2026-04-25T07:42:26.026Z</time></trkpt><trkpt lat="43.9525683" lon="12.1952667"><ele>168.0</ele><time>2026-04-25T07:42:29.026Z</time></trkpt><trkpt lat="43.9525" lon="12.1952517"><ele>168.0</ele><time>2026-04-25T07:42:32.026Z</time></trkpt><trkpt lat="43.952445" lon="12.195195"><ele>168.0</ele><time>2026-04-25T07:42:35.027Z</time></trkpt><trkpt lat="43.9524067" lon="12.1951167"><ele>168.0</ele><time>2026-04-25T07:42:38.027Z</time></trkpt><trkpt lat="43.95235" lon="12.19503"><ele>170.14285714285714</ele><time>2026-04-25T07:42:42.027Z</time></trkpt><trkpt lat="43.9523133" lon="12.1949383"><ele>172.28571428571428</ele><time>2026-04-25T07:42:46.027Z</time></trkpt><trkpt lat="43.952265" lon="12.1948633"><ele>174.42857142857144</ele><time>2026-04-25T07:42:50.027Z</time></trkpt><trkpt lat="43.95222" lon="12.1947583"><ele>176.57142857142856</ele><time>2026-04-25T07:42:54.027Z</time></trkpt><trkpt lat="43.95217" lon="12.19469"><ele>178.71428571428572</ele><time>2026-04-25T07:42:57.027Z</time></trkpt><trkpt lat="43.9521317" lon="12.1946167"><ele>180.85714285714286</ele><time>2026-04-25T07:43:00.027Z</time></trkpt><trkpt lat="43.9521017" lon="12.1945333"><ele>183.0</ele><time>2026-04-25T07:43:03.027Z</time></trkpt><trkpt lat="43.9520433" lon="12.1944433"><ele>182.83333333333334</ele><time>2026-04-25T07:43:06.027Z</time></trkpt><trkpt lat="43.9519867" lon="12.1943383"><ele>182.66666666666666</ele><time>2026-04-25T07:43:09.027Z</time></trkpt><trkpt lat="43.9519417" lon="12.194265"><ele>182.5</ele><time>2026-04-25T07:43:11.026Z</time></trkpt><trkpt lat="43.9518867" lon="12.194185"><ele>182.33333333333331</ele><time>2026-04-25T07:43:13.027Z</time></trkpt><trkpt lat="43.9518367" lon="12.1941"><ele>182.16666666666666</ele><time>2026-04-25T07:43:15.027Z</time></trkpt><trkpt lat="43.9517917" lon="12.19402"><ele>182.0</ele><time>2026-04-25T07:43:17.026Z</time></trkpt><trkpt lat="43.9517483" lon="12.1939433"><ele>183.16666666666666</ele><time>2026-04-25T07:43:19.027Z</time></trkpt><trkpt lat="43.9517033" lon="12.1938667"><ele>184.33333333333331</ele><time>2026-04-25T07:43:21.026Z</time></trkpt><trkpt lat="43.951655" lon="12.1937783"><ele>185.5</ele><time>2026-04-25T07:43:23.027Z</time></trkpt><trkpt lat="43.9516" lon="12.19369"><ele>186.66666666666666</ele><time>2026-04-25T07:43:25.027Z</time></trkpt><trkpt lat="43.951545" lon="12.193605"><ele>187.83333333333334</ele><time>2026-04-25T07:43:27.027Z</time></trkpt><trkpt lat="43.951495" lon="12.193525"><ele>189.0</ele><time>2026-04-25T07:43:29.027Z</time></trkpt><trkpt lat="43.951445" lon="12.1934467"><ele>189.0</ele><time>2026-04-25T07:43:31.027Z</time></trkpt><trkpt lat="43.951395" lon="12.1933583"><ele>189.0</ele><time>2026-04-25T07:43:33.027Z</time></trkpt><trkpt lat="43.9513433" lon="12.193265"><ele>189.0</ele><time>2026-04-25T07:43:35.027Z</time></trkpt><trkpt lat="43.9512967" lon="12.1931717"><ele>189.0</ele><time>2026-04-25T07:43:37.027Z</time></trkpt><trkpt lat="43.9512483" lon="12.193085"><ele>189.0</ele><time>2026-04-25T07:43:39.026Z</time></trkpt><trkpt lat="43.9512" lon="12.1930033"><ele>189.0</ele><time>2026-04-25T07:43:41.026Z</time></trkpt><trkpt lat="43.9511517" lon="12.19292"><ele>188.66666666666666</ele><time>2026-04-25T07:43:43.027Z</time></trkpt><trkpt lat="43.9510983" lon="12.1928467"><ele>188.33333333333334</ele><time>2026-04-25T07:43:45.027Z</time></trkpt><trkpt lat="43.951035" lon="12.1927767"><ele>188.0</ele><time>2026-04-25T07:43:47.027Z</time></trkpt><trkpt lat="43.950975" lon="12.1927083"><ele>187.66666666666669</ele><time>2026-04-25T07:43:49.026Z</time></trkpt><trkpt lat="43.9509083" lon="12.192635"><ele>187.33333333333334</ele><time>2026-04-25T07:43:51.027Z</time></trkpt><trkpt lat="43.9508417" lon="12.1925733"><ele>187.0</ele><time>2026-04-25T07:43:53.026Z</time></trkpt><trkpt lat="43.950785" lon="12.192515"><ele>187.57142857142856</ele><time>2026-04-25T07:43:55.026Z</time></trkpt><trkpt lat="43.9507267" lon="12.19246"><ele>188.14285714285717</ele><time>2026-04-25T07:43:57.026Z</time></trkpt><trkpt lat="43.9506733" lon="12.19241"><ele>188.71428571428572</ele><time>2026-04-25T07:43:59.027Z</time></trkpt><trkpt lat="43.950605" lon="12.1923517"><ele>189.28571428571428</ele><time>2026-04-25T07:44:01.027Z</time></trkpt><trkpt lat="43.9505367" lon="12.192295"><ele>189.85714285714283</ele><time>2026-04-25T07:44:03.026Z</time></trkpt><trkpt lat="43.9504783" lon="12.1922383"><ele>190.42857142857144</ele><time>2026-04-25T07:44:05.026Z</time></trkpt><trkpt lat="43.95042" lon="12.19219"><ele>191.0</ele><time>2026-04-25T07:44:07.027Z</time></trkpt><trkpt lat="43.9503567" lon="12.1921533"><ele>191.0</ele><time>2026-04-25T07:44:09.026Z</time></trkpt><trkpt lat="43.9502883" lon="12.1921183"><ele>191.0</ele><time>2026-04-25T07:44:11.027Z</time></trkpt><trkpt lat="43.9502217" lon="12.1921"><ele>191.0</ele><time>2026-04-25T07:44:13.027Z</time></trkpt><trkpt lat="43.9501533" lon="12.1920783"><ele>191.0</ele><time>2026-04-25T07:44:15.027Z</time></trkpt><trkpt lat="43.9500867" lon="12.1920567"><ele>191.0</ele><time>2026-04-25T07:44:17.027Z</time></trkpt><trkpt lat="43.9500217" lon="12.1920333"><ele>191.0</ele><time>2026-04-25T07:44:19.026Z</time></trkpt><trkpt lat="43.9499583" lon="12.1920083"><ele>191.0</ele><time>2026-04-25T07:44:21.027Z</time></trkpt><trkpt lat="43.9498967" lon="12.1919883"><ele>191.33333333333331</ele><time>2026-04-25T07:44:23.027Z</time></trkpt><trkpt lat="43.949805" lon="12.1919633"><ele>191.66666666666666</ele><time>2026-04-25T07:44:26.027Z</time></trkpt><trkpt lat="43.9497183" lon="12.1919367"><ele>192.0</ele><time>2026-04-25T07:44:29.027Z</time></trkpt><trkpt lat="43.9496367" lon="12.1919233"><ele>192.33333333333331</ele><time>2026-04-25T07:44:32.027Z</time></trkpt><trkpt lat="43.9495467" lon="12.1918933"><ele>192.66666666666666</ele><time>2026-04-25T07:44:35.026Z</time></trkpt><trkpt lat="43.949485" lon="12.1918733"><ele>193.0</ele><time>2026-04-25T07:44:37.027Z</time></trkpt><trkpt lat="43.9493983" lon="12.191855"><ele>192.99999999999997</ele><time>2026-04-25T07:44:40.027Z</time></trkpt><trkpt lat="43.949335" lon="12.1918417"><ele>193.0</ele><time>2026-04-25T07:44:42.027Z</time></trkpt><trkpt lat="43.9492717" lon="12.191825"><ele>193.0</ele><time>2026-04-25T07:44:44.027Z</time></trkpt><trkpt lat="43.9491867" lon="12.1918017"><ele>193.0</ele><time>2026-04-25T07:44:47.027Z</time></trkpt><trkpt lat="43.9491033" lon="12.1917783"><ele>192.99999999999997</ele><time>2026-04-25T07:44:50.027Z</time></trkpt><trkpt lat="43.9490183" lon="12.1917567"><ele>193.0</ele><time>2026-04-25T07:44:53.027Z</time></trkpt><trkpt lat="43.9489383" lon="12.1917083"><ele>193.66666666666666</ele><time>2026-04-25T07:44:56.027Z</time></trkpt><trkpt lat="43.948855" lon="12.191675"><ele>194.33333333333331</ele><time>2026-04-25T07:44:59.026Z</time></trkpt><trkpt lat="43.9487717" lon="12.1916317"><ele>195.0</ele><time>2026-04-25T07:45:02.027Z</time></trkpt><trkpt lat="43.94869" lon="12.1915967"><ele>195.66666666666669</ele><time>2026-04-25T07:45:05.027Z</time></trkpt><trkpt lat="43.94861" lon="12.191565"><ele>196.33333333333334</ele><time>2026-04-25T07:45:08.027Z</time></trkpt><trkpt lat="43.948535" lon="12.191535"><ele>197.0</ele><time>2026-04-25T07:45:12.026Z</time></trkpt><trkpt lat="43.9484717" lon="12.1915017"><ele>197.0</ele><time>2026-04-25T07:45:15.027Z</time></trkpt><trkpt lat="43.9483933" lon="12.1914717"><ele>197.0</ele><time>2026-04-25T07:45:19.026Z</time></trkpt><trkpt lat="43.9483167" lon="12.1914267"><ele>197.0</ele><time>2026-04-25T07:45:23.026Z</time></trkpt><trkpt lat="43.9482567" lon="12.191395"><ele>197.0</ele><time>2026-04-25T07:45:26.027Z</time></trkpt><trkpt lat="43.9481833" lon="12.19134"><ele>197.0</ele><time>2026-04-25T07:45:30.026Z</time></trkpt><trkpt lat="43.9481267" lon="12.1912917"><ele>197.0</ele><time>2026-04-25T07:45:33.027Z</time></trkpt><trkpt lat="43.9480667" lon="12.1912533"><ele>197.0</ele><time>2026-04-25T07:45:36.027Z</time></trkpt><trkpt lat="43.9480017" lon="12.1912217"><ele>198.42857142857144</ele><time>2026-04-25T07:45:39.027Z</time></trkpt><trkpt lat="43.94793" lon="12.1911767"><ele>199.85714285714286</ele><time>2026-04-25T07:45:43.027Z</time></trkpt><trkpt lat="43.947855" lon="12.1911483"><ele>201.28571428571428</ele><time>2026-04-25T07:45:47.027Z</time></trkpt><trkpt lat="43.9477917" lon="12.1911217"><ele>202.71428571428572</ele><time>2026-04-25T07:45:51.026Z</time></trkpt><trkpt lat="43.9478433" lon="12.1912033"><ele>204.14285714285714</ele><time>2026-04-25T07:45:59.027Z</time></trkpt><trkpt lat="43.947855" lon="12.19129"><ele>205.57142857142858</ele><time>2026-04-25T07:46:01.026Z</time></trkpt><trkpt lat="43.9478683" lon="12.191395"><ele>207.0</ele><time>2026-04-25T07:46:04.026Z</time></trkpt><trkpt lat="43.9478917" lon="12.191505"><ele>207.71428571428572</ele><time>2026-04-25T07:46:08.027Z</time></trkpt><trkpt lat="43.94791" lon="12.1915917"><ele>208.42857142857144</ele><time>2026-04-25T07:46:11.026Z</time></trkpt><trkpt lat="43.9479417" lon="12.1917"><ele>209.14285714285717</ele><time>2026-04-25T07:46:15.027Z</time></trkpt><trkpt lat="43.9479667" lon="12.1917817"><ele>209.85714285714286</ele><time>2026-04-25T07:46:18.027Z</time></trkpt><trkpt lat="43.94799" lon="12.19187"><ele>210.57142857142856</ele><time>2026-04-25T07:46:21.026Z</time></trkpt><trkpt lat="43.9480067" lon="12.19196"><ele>211.2857142857143</ele><time>2026-04-25T07:46:24.027Z</time></trkpt><trkpt lat="43.9480183" lon="12.192055"><ele>212.0</ele><time>2026-04-25T07:46:27.027Z</time></trkpt><trkpt lat="43.9480533" lon="12.192155"><ele>212.0</ele><time>2026-04-25T07:46:31.027Z</time></trkpt><trkpt lat="43.9480817" lon="12.1922567"><ele>212.0</ele><time>2026-04-25T07:46:35.027Z</time></trkpt><trkpt lat="43.9481067" lon="12.1923617"><ele>212.0</ele><time>2026-04-25T07:46:39.027Z</time></trkpt><trkpt lat="43.9481333" lon="12.1924483"><ele>212.0</ele><time>2026-04-25T07:46:42.027Z</time></trkpt><trkpt lat="43.948175" lon="12.19255"><ele>212.0</ele><time>2026-04-25T07:46:46.026Z</time></trkpt><trkpt lat="43.9482083" lon="12.192625"><ele>212.0</ele><time>2026-04-25T07:46:49.027Z</time></trkpt><trkpt lat="43.948245" lon="12.1927033"><ele>212.0</ele><time>2026-04-25T07:46:52.027Z</time></trkpt><trkpt lat="43.9482917" lon="12.1927967"><ele>212.2857142857143</ele><time>2026-04-25T07:46:56.026Z</time></trkpt><trkpt lat="43.9483217" lon="12.1928783"><ele>212.57142857142856</ele><time>2026-04-25T07:46:59.026Z</time></trkpt><trkpt lat="43.9483483" lon="12.192965"><ele>212.85714285714286</ele><time>2026-04-25T07:47:02.027Z</time></trkpt><trkpt lat="43.94837" lon="12.1930767"><ele>213.14285714285717</ele><time>2026-04-25T07:47:06.027Z</time></trkpt><trkpt lat="43.9483867" lon="12.1931617"><ele>213.42857142857144</ele><time>2026-04-25T07:47:09.027Z</time></trkpt><trkpt lat="43.948405" lon="12.1932517"><ele>213.71428571428572</ele><time>2026-04-25T07:47:12.027Z</time></trkpt><trkpt lat="43.948425" lon="12.19334"><ele>214.0</ele><time>2026-04-25T07:47:15.027Z</time></trkpt><trkpt lat="43.9484433" lon="12.1934533"><ele>214.00000000000003</ele><time>2026-04-25T07:47:19.026Z</time></trkpt><trkpt lat="43.9484517" lon="12.1935417"><ele>214.0</ele><time>2026-04-25T07:47:22.027Z</time></trkpt><trkpt lat="43.948465" lon="12.1936317"><ele>214.0</ele><time>2026-04-25T07:47:25.027Z</time></trkpt><trkpt lat="43.9484817" lon="12.1937217"><ele>214.0</ele><time>2026-04-25T07:47:28.026Z</time></trkpt><trkpt lat="43.948505" lon="12.1938067"><ele>214.0</ele><time>2026-04-25T07:47:31.027Z</time></trkpt><trkpt lat="43.94855" lon="12.193895"><ele>214.00000000000003</ele><time>2026-04-25T07:47:35.026Z</time></trkpt><trkpt lat="43.94861" lon="12.1939733"><ele>214.0</ele><time>2026-04-25T07:47:39.026Z</time></trkpt><trkpt lat="43.9486517" lon="12.1940417"><ele>215.14285714285717</ele><time>2026-04-25T07:47:42.027Z</time></trkpt><trkpt lat="43.9486967" lon="12.1941233"><ele>216.28571428571428</ele><time>2026-04-25T07:47:45.027Z</time></trkpt><trkpt lat="43.948705" lon="12.1942217"><ele>217.42857142857144</ele><time>2026-04-25T07:47:48.026Z</time></trkpt><trkpt lat="43.94868" lon="12.194315"><ele>218.57142857142858</ele><time>2026-04-25T07:47:51.027Z</time></trkpt><trkpt lat="43.9486517" lon="12.1943933"><ele>219.71428571428572</ele><time>2026-04-25T07:47:54.027Z</time></trkpt><trkpt lat="43.94862" lon="12.1944817"><ele>220.85714285714286</ele><time>2026-04-25T07:47:57.027Z</time></trkpt><trkpt lat="43.948585" lon="12.194575"><ele>222.0</ele><time>2026-04-25T07:48:00.026Z</time></trkpt><trkpt lat="43.94856" lon="12.194665"><ele>222.0</ele><time>2026-04-25T07:48:03.027Z</time></trkpt><trkpt lat="43.94854" lon="12.1947667"><ele>222.0</ele><time>2026-04-25T07:48:06.026Z</time></trkpt><trkpt lat="43.948515" lon="12.1948533"><ele>222.0</ele><time>2026-04-25T07:48:09.027Z</time></trkpt><trkpt lat="43.9484933" lon="12.1949483"><ele>222.0</ele><time>2026-04-25T07:48:12.027Z</time></trkpt><trkpt lat="43.9484733" lon="12.1950533"><ele>222.0</ele><time>2026-04-25T07:48:15.026Z</time></trkpt><trkpt lat="43.9484533" lon="12.1951467"><ele>222.0</ele><time>2026-04-25T07:48:18.027Z</time></trkpt><trkpt lat="43.9484467" lon="12.19524"><ele>222.0</ele><time>2026-04-25T07:48:21.027Z</time></trkpt><trkpt lat="43.948455" lon="12.1953367"><ele>224.0</ele><time>2026-04-25T07:48:24.026Z</time></trkpt><trkpt lat="43.9484617" lon="12.195445"><ele>226.0</ele><time>2026-04-25T07:48:27.027Z</time></trkpt><trkpt lat="43.9484883" lon="12.19554"><ele>228.0</ele><time>2026-04-25T07:48:30.026Z</time></trkpt><trkpt lat="43.948525" lon="12.19562"><ele>230.0</ele><time>2026-04-25T07:48:33.026Z</time></trkpt><trkpt lat="43.94857" lon="12.1956983"><ele>232.0</ele><time>2026-04-25T07:48:36.027Z</time></trkpt><trkpt lat="43.9486383" lon="12.1957517"><ele>234.0</ele><time>2026-04-25T07:48:39.026Z</time></trkpt><trkpt lat="43.9487067" lon="12.1957867"><ele>236.0</ele><time>2026-04-25T07:48:42.027Z</time></trkpt><trkpt lat="43.948775" lon="12.1957917"><ele>238.42857142857142</ele><time>2026-04-25T07:48:45.027Z</time></trkpt><trkpt lat="43.9488467" lon="12.19578"><ele>240.8571428571429</ele><time>2026-04-25T07:48:48.026Z</time></trkpt><trkpt lat="43.9489117" lon="12.1957583"><ele>243.2857142857143</ele><time>2026-04-25T07:48:51.026Z</time></trkpt><trkpt lat="43.94898" lon="12.195745"><ele>245.71428571428572</ele><time>2026-04-25T07:48:54.027Z</time></trkpt><trkpt lat="43.94905" lon="12.1957183"><ele>248.14285714285717</ele><time>2026-04-25T07:48:57.027Z</time></trkpt><trkpt lat="43.9491083" lon="12.1957533"><ele>250.5714285714286</ele><time>2026-04-25T07:49:00.027Z</time></trkpt><trkpt lat="43.94911" lon="12.1958433"><ele>253.00000000000003</ele><time>2026-04-25T07:49:03.026Z</time></trkpt><trkpt lat="43.9490733" lon="12.1959233"><ele>253.00000000000003</ele><time>2026-04-25T07:49:06.027Z</time></trkpt><trkpt lat="43.9490283" lon="12.1960067"><ele>253.0</ele><time>2026-04-25T07:49:09.027Z</time></trkpt><trkpt lat="43.9489867" lon="12.1961083"><ele>253.00000000000003</ele><time>2026-04-25T07:49:13.027Z</time></trkpt><trkpt lat="43.948945" lon="12.1961867"><ele>253.00000000000003</ele><time>2026-04-25T07:49:16.027Z</time></trkpt><trkpt lat="43.9489117" lon="12.1962633"><ele>253.0</ele><time>2026-04-25T07:49:19.027Z</time></trkpt><trkpt lat="43.9488767" lon="12.1963417"><ele>253.00000000000003</ele><time>2026-04-25T07:49:22.027Z</time></trkpt><trkpt lat="43.9488417" lon="12.1964183"><ele>253.00000000000003</ele><time>2026-04-25T07:49:25.027Z</time></trkpt><trkpt lat="43.9487867" lon="12.1965083"><ele>253.14285714285717</ele><time>2026-04-25T07:49:28.027Z</time></trkpt><trkpt lat="43.9487367" lon="12.19659"><ele>253.28571428571428</ele><time>2026-04-25T07:49:31.027Z</time></trkpt><trkpt lat="43.9486783" lon="12.19664"><ele>253.42857142857144</ele><time>2026-04-25T07:49:34.026Z</time></trkpt><trkpt lat="43.9486067" lon="12.196665"><ele>253.57142857142858</ele><time>2026-04-25T07:49:37.026Z</time></trkpt><trkpt lat="43.9485333" lon="12.1966783"><ele>253.71428571428572</ele><time>2026-04-25T07:49:40.026Z</time></trkpt><trkpt lat="43.9484567" lon="12.1966767"><ele>253.85714285714286</ele><time>2026-04-25T07:49:43.026Z</time></trkpt><trkpt lat="43.94838" lon="12.1966567"><ele>254.0</ele><time>2026-04-25T07:49:46.027Z</time></trkpt><trkpt lat="43.948315" lon="12.1966317"><ele>254.28571428571428</ele><time>2026-04-25T07:49:49.027Z</time></trkpt><trkpt lat="43.9482417" lon="12.1966117"><ele>254.57142857142856</ele><time>2026-04-25T07:49:52.026Z</time></trkpt><trkpt lat="43.94817" lon="12.1965833"><ele>254.85714285714283</ele><time>2026-04-25T07:49:55.027Z</time></trkpt><trkpt lat="43.9481017" lon="12.1965617"><ele>255.14285714285714</ele><time>2026-04-25T07:49:58.027Z</time></trkpt><trkpt lat="43.9480317" lon="12.19653"><ele>255.4285714285714</ele><time>2026-04-25T07:50:01.027Z</time></trkpt><trkpt lat="43.9479567" lon="12.1964983"><ele>255.7142857142857</ele><time>2026-04-25T07:50:04.027Z</time></trkpt><trkpt lat="43.9478867" lon="12.1964583"><ele>256.0</ele><time>2026-04-25T07:50:07.027Z</time></trkpt><trkpt lat="43.9478183" lon="12.196415"><ele>256.0</ele><time>2026-04-25T07:50:10.026Z</time></trkpt><trkpt lat="43.94775" lon="12.1963683"><ele>255.99999999999997</ele><time>2026-04-25T07:50:13.027Z</time></trkpt><trkpt lat="43.9476867" lon="12.1963267"><ele>256.0</ele><time>2026-04-25T07:50:16.027Z</time></trkpt><trkpt lat="43.947635" lon="12.1962683"><ele>256.0</ele><time>2026-04-25T07:50:19.027Z</time></trkpt><trkpt lat="43.9475783" lon="12.1962033"><ele>255.99999999999997</ele><time>2026-04-25T07:50:22.026Z</time></trkpt><trkpt lat="43.9475283" lon="12.1961367"><ele>256.0</ele><time>2026-04-25T07:50:25.027Z</time></trkpt><trkpt lat="43.947475" lon="12.19607"><ele>256.0</ele><time>2026-04-25T07:50:28.027Z</time></trkpt><trkpt lat="43.947415" lon="12.1960167"><ele>258.1428571428571</ele><time>2026-04-25T07:50:31.027Z</time></trkpt><trkpt lat="43.9473617" lon="12.1959633"><ele>260.2857142857143</ele><time>2026-04-25T07:50:34.027Z</time></trkpt><trkpt lat="43.94729" lon="12.1959033"><ele>262.42857142857144</ele><time>2026-04-25T07:50:38.026Z</time></trkpt><trkpt lat="43.9472333" lon="12.1958633"><ele>264.57142857142856</ele><time>2026-04-25T07:50:41.027Z</time></trkpt><trkpt lat="43.9471667" lon="12.195825"><ele>266.7142857142857</ele><time>2026-04-25T07:50:44.026Z</time></trkpt><trkpt lat="43.9471033" lon="12.1958167"><ele>268.85714285714283</ele><time>2026-04-25T07:50:47.026Z</time></trkpt><trkpt lat="43.9470483" lon="12.19586"><ele>271.0</ele><time>2026-04-25T07:50:50.026Z</time></trkpt><trkpt lat="43.9470767" lon="12.1959583"><ele>271.0</ele><time>2026-04-25T07:50:54.027Z</time></trkpt><trkpt lat="43.9471283" lon="12.1960167"><ele>271.0</ele><time>2026-04-25T07:50:57.027Z</time></trkpt><trkpt lat="43.9471783" lon="12.1960783"><ele>271.0</ele><time>2026-04-25T07:51:00.027Z</time></trkpt><trkpt lat="43.94721" lon="12.1961617"><ele>271.0</ele><time>2026-04-25T07:51:03.027Z</time></trkpt><trkpt lat="43.9472233" lon="12.1962567"><ele>271.0</ele><time>2026-04-25T07:51:06.027Z</time></trkpt><trkpt lat="43.9472333" lon="12.1963517"><ele>271.0</ele><time>2026-04-25T07:51:09.026Z</time></trkpt><trkpt lat="43.9472517" lon="12.19645"><ele>271.0</ele><time>2026-04-25T07:51:12.027Z</time></trkpt><trkpt lat="43.9472633" lon="12.1965383"><ele>272.1428571428571</ele><time>2026-04-25T07:51:15.026Z</time></trkpt><trkpt lat="43.947295" lon="12.1966183"><ele>273.2857142857143</ele><time>2026-04-25T07:51:18.027Z</time></trkpt><trkpt lat="43.947315" lon="12.196705"><ele>274.42857142857144</ele><time>2026-04-25T07:51:21.027Z</time></trkpt><trkpt lat="43.9473267" lon="12.196795"><ele>275.57142857142856</ele><time>2026-04-25T07:51:24.026Z</time></trkpt><trkpt lat="43.9473283" lon="12.19689"><ele>276.7142857142857</ele><time>2026-04-25T07:51:27.027Z</time></trkpt><trkpt lat="43.9473317" lon="12.1969783"><ele>277.85714285714283</ele><time>2026-04-25T07:51:30.027Z</time></trkpt><trkpt lat="43.9473233" lon="12.1970783"><ele>279.0</ele><time>2026-04-25T07:51:33.027Z</time></trkpt><trkpt lat="43.9473017" lon="12.1971717"><ele>278.99999999999994</ele><time>2026-04-25T07:51:36.026Z</time></trkpt><trkpt lat="43.9472767" lon="12.19726"><ele>279.0</ele><time>2026-04-25T07:51:39.026Z</time></trkpt><trkpt lat="43.9472317" lon="12.197345"><ele>279.0</ele><time>2026-04-25T07:51:42.026Z</time></trkpt><trkpt lat="43.9471917" lon="12.1974233"><ele>279.0</ele><time>2026-04-25T07:51:45.027Z</time></trkpt><trkpt lat="43.9471367" lon="12.1974917"><ele>279.0</ele><time>2026-04-25T07:51:49.027Z</time></trkpt><trkpt lat="43.9470733" lon="12.1975667"><ele>278.99999999999994</ele><time>2026-04-25T07:51:53.027Z</time></trkpt><trkpt lat="43.94701" lon="12.1976017"><ele>279.0</ele><time>2026-04-25T07:51:56.027Z</time></trkpt><trkpt lat="43.94694" lon="12.1976417"><ele>278.71428571428567</ele><time>2026-04-25T07:51:59.027Z</time></trkpt><trkpt lat="43.9468783" lon="12.19768"><ele>278.42857142857144</ele><time>2026-04-25T07:52:02.026Z</time></trkpt><trkpt lat="43.9468167" lon="12.1977067"><ele>278.1428571428571</ele><time>2026-04-25T07:52:05.026Z</time></trkpt><trkpt lat="43.946745" lon="12.1977567"><ele>277.85714285714283</ele><time>2026-04-25T07:52:09.026Z</time></trkpt><trkpt lat="43.9466817" lon="12.1978"><ele>277.57142857142856</ele><time>2026-04-25T07:52:12.027Z</time></trkpt><trkpt lat="43.9466367" lon="12.1978617"><ele>277.2857142857143</ele><time>2026-04-25T07:52:15.027Z</time></trkpt><trkpt lat="43.94659" lon="12.197935"><ele>277.0</ele><time>2026-04-25T07:52:19.027Z</time></trkpt><trkpt lat="43.9465317" lon="12.1979983"><ele>282.3333333333333</ele><time>2026-04-25T07:52:22.027Z</time></trkpt><trkpt lat="43.9464667" lon="12.1980117"><ele>287.66666666666663</ele><time>2026-04-25T07:52:25.027Z</time></trkpt><trkpt lat="43.9463967" lon="12.1979767"><ele>293.0</ele><time>2026-04-25T07:53:38.027Z</time></trkpt><trkpt lat="43.9464117" lon="12.19787"><ele>298.3333333333333</ele><time>2026-04-25T07:53:42.027Z</time></trkpt><trkpt lat="43.9464467" lon="12.197795"><ele>303.6666666666667</ele><time>2026-04-25T07:53:45.027Z</time></trkpt><trkpt lat="43.946485" lon="12.1976933"><ele>309.0</ele><time>2026-04-25T07:53:49.026Z</time></trkpt><trkpt lat="43.9465283" lon="12.1975917"><ele>309.00000000000006</ele><time>2026-04-25T07:53:53.027Z</time></trkpt><trkpt lat="43.9465633" lon="12.197495"><ele>309.0</ele><time>2026-04-25T07:53:57.026Z</time></trkpt><trkpt lat="43.9465933" lon="12.1974117"><ele>309.0</ele><time>2026-04-25T07:54:00.026Z</time></trkpt><trkpt lat="43.946635" lon="12.1973267"><ele>309.0</ele><time>2026-04-25T07:54:03.027Z</time></trkpt><trkpt lat="43.9466633" lon="12.1972383"><ele>309.0</ele><time>2026-04-25T07:54:06.026Z</time></trkpt><trkpt lat="43.9466883" lon="12.1971333"><ele>309.00000000000006</ele><time>2026-04-25T07:54:10.026Z</time></trkpt><trkpt lat="43.9467083" lon="12.19705"><ele>309.0</ele><time>2026-04-25T07:54:13.027Z</time></trkpt><trkpt lat="43.94671" lon="12.1969383"><ele>308.8571428571429</ele><time>2026-04-25T07:54:17.027Z</time></trkpt><trkpt lat="43.9466867" lon="12.196845"><ele>308.7142857142857</ele><time>2026-04-25T07:54:20.026Z</time></trkpt><trkpt lat="43.946675" lon="12.1967417"><ele>308.57142857142856</ele><time>2026-04-25T07:54:24.027Z</time></trkpt><trkpt lat="43.9466483" lon="12.1966483"><ele>308.42857142857144</ele><time>2026-04-25T07:54:27.027Z</time></trkpt><trkpt lat="43.9466083" lon="12.196575"><ele>308.2857142857143</ele><time>2026-04-25T07:54:30.026Z</time></trkpt><trkpt lat="43.94655" lon="12.1965167"><ele>308.14285714285717</ele><time>2026-04-25T07:54:33.026Z</time></trkpt><trkpt lat="43.94647" lon="12.1965117"><ele>308.0</ele><time>2026-04-25T07:54:37.027Z</time></trkpt><trkpt lat="43.94641" lon="12.19654"><ele>308.0</ele><time>2026-04-25T07:54:40.026Z</time></trkpt><trkpt lat="43.9463533" lon="12.1965933"><ele>308.0</ele><time>2026-04-25T07:54:43.026Z</time></trkpt><trkpt lat="43.9462933" lon="12.1966567"><ele>308.0</ele><time>2026-04-25T07:54:46.027Z</time></trkpt><trkpt lat="43.9462317" lon="12.19673"><ele>308.0</ele><time>2026-04-25T07:54:49.026Z</time></trkpt><trkpt lat="43.9461633" lon="12.1968083"><ele>308.0</ele><time>2026-04-25T07:54:52.026Z</time></trkpt><trkpt lat="43.9460883" lon="12.1968633"><ele>308.0</ele><time>2026-04-25T07:54:55.026Z</time></trkpt><trkpt lat="43.9460133" lon="12.1969117"><ele>308.0</ele><time>2026-04-25T07:54:58.026Z</time></trkpt><trkpt lat="43.9459317" lon="12.1969467"><ele>308.0</ele><time>2026-04-25T07:55:01.026Z</time></trkpt><trkpt lat="43.9458583" lon="12.1969883"><ele>308.0</ele><time>2026-04-25T07:55:04.027Z</time></trkpt><trkpt lat="43.9457867" lon="12.1970233"><ele>308.0</ele><time>2026-04-25T07:55:07.027Z</time></trkpt><trkpt lat="43.9457083" lon="12.1970567"><ele>308.0</ele><time>2026-04-25T07:55:10.026Z</time></trkpt><trkpt lat="43.94562" lon="12.197085"><ele>308.0</ele><time>2026-04-25T07:55:13.027Z</time></trkpt><trkpt lat="43.9455517" lon="12.1971067"><ele>308.0</ele><time>2026-04-25T07:55:15.026Z</time></trkpt><trkpt lat="43.94548" lon="12.1971267"><ele>308.0</ele><time>2026-04-25T07:55:17.027Z</time></trkpt><trkpt lat="43.9453833" lon="12.1971333"><ele>308.0</ele><time>2026-04-25T07:55:20.027Z</time></trkpt><trkpt lat="43.945315" lon="12.1971067"><ele>308.0</ele><time>2026-04-25T07:55:22.027Z</time></trkpt><trkpt lat="43.9452317" lon="12.1970483"><ele>308.0</ele><time>2026-04-25T07:55:25.026Z</time></trkpt><trkpt lat="43.9451517" lon="12.1969817"><ele>308.0</ele><time>2026-04-25T07:55:28.027Z</time></trkpt><trkpt lat="43.9451033" lon="12.196925"><ele>310.33333333333337</ele><time>2026-04-25T07:55:30.027Z</time></trkpt><trkpt lat="43.9450283" lon="12.19685"><ele>312.6666666666667</ele><time>2026-04-25T07:55:33.026Z</time></trkpt><trkpt lat="43.944975" lon="12.1968"><ele>315.0</ele><time>2026-04-25T07:55:35.027Z</time></trkpt><trkpt lat="43.9448933" lon="12.19674"><ele>317.3333333333333</ele><time>2026-04-25T07:55:38.027Z</time></trkpt><trkpt lat="43.9448033" lon="12.1966983"><ele>319.66666666666663</ele><time>2026-04-25T07:55:41.026Z</time></trkpt><trkpt lat="43.9447383" lon="12.1966783"><ele>322.0</ele><time>2026-04-25T07:55:43.027Z</time></trkpt><trkpt lat="43.94465" lon="12.1966567"><ele>322.0</ele><time>2026-04-25T07:55:46.026Z</time></trkpt><trkpt lat="43.9445633" lon="12.1966267"><ele>322.0</ele><time>2026-04-25T07:55:49.027Z</time></trkpt><trkpt lat="43.9445" lon="12.1965933"><ele>322.0</ele><time>2026-04-25T07:55:51.027Z</time></trkpt><trkpt lat="43.9444367" lon="12.19656"><ele>322.0</ele><time>2026-04-25T07:55:53.027Z</time></trkpt><trkpt lat="43.944355" lon="12.1965183"><ele>322.0</ele><time>2026-04-25T07:55:56.027Z</time></trkpt><trkpt lat="43.9442767" lon="12.1964717"><ele>322.0</ele><time>2026-04-25T07:55:59.027Z</time></trkpt><trkpt lat="43.9441883" lon="12.19642"><ele>323.3333333333333</ele><time>2026-04-25T07:56:02.026Z</time></trkpt><trkpt lat="43.9441333" lon="12.1963717"><ele>324.66666666666663</ele><time>2026-04-25T07:56:04.027Z</time></trkpt><trkpt lat="43.944055" lon="12.1963033"><ele>326.0</ele><time>2026-04-25T07:56:07.027Z</time></trkpt><trkpt lat="43.94398" lon="12.1962383"><ele>327.3333333333333</ele><time>2026-04-25T07:56:10.027Z</time></trkpt><trkpt lat="43.9439033" lon="12.1961767"><ele>328.6666666666667</ele><time>2026-04-25T07:56:13.027Z</time></trkpt><trkpt lat="43.9438233" lon="12.1961467"><ele>330.0</ele><time>2026-04-25T07:56:16.027Z</time></trkpt><trkpt lat="43.9437383" lon="12.1961583"><ele>330.0</ele><time>2026-04-25T07:56:19.026Z</time></trkpt><trkpt lat="43.943685" lon="12.196205"><ele>330.0</ele><time>2026-04-25T07:56:21.026Z</time></trkpt><trkpt lat="43.9436133" lon="12.1962733"><ele>330.0</ele><time>2026-04-25T07:56:24.026Z</time></trkpt><trkpt lat="43.9435483" lon="12.1963517"><ele>330.0</ele><time>2026-04-25T07:56:27.027Z</time></trkpt><trkpt lat="43.9434833" lon="12.1964333"><ele>330.0</ele><time>2026-04-25T07:56:30.027Z</time></trkpt><trkpt lat="43.9434333" lon="12.19649"><ele>330.0</ele><time>2026-04-25T07:56:32.027Z</time></trkpt><trkpt lat="43.94337" lon="12.1965683"><ele>331.6666666666667</ele><time>2026-04-25T07:56:35.027Z</time></trkpt><trkpt lat="43.9433067" lon="12.1966317"><ele>333.3333333333333</ele><time>2026-04-25T07:56:38.027Z</time></trkpt><trkpt lat="43.943235" lon="12.1967033"><ele>335.0</ele><time>2026-04-25T07:56:41.027Z</time></trkpt><trkpt lat="43.9431667" lon="12.19677"><ele>336.66666666666663</ele><time>2026-04-25T07:56:44.026Z</time></trkpt><trkpt lat="43.9430917" lon="12.19682"><ele>338.3333333333333</ele><time>2026-04-25T07:56:47.027Z</time></trkpt><trkpt lat="43.9430067" lon="12.196865"><ele>340.0</ele><time>2026-04-25T07:56:50.027Z</time></trkpt><trkpt lat="43.9429283" lon="12.1968717"><ele>340.0</ele><time>2026-04-25T07:56:53.027Z</time></trkpt><trkpt lat="43.942845" lon="12.196895"><ele>340.0</ele><time>2026-04-25T07:56:56.026Z</time></trkpt><trkpt lat="43.9427633" lon="12.1969267"><ele>340.0</ele><time>2026-04-25T07:56:59.027Z</time></trkpt><trkpt lat="43.9426867" lon="12.1969617"><ele>340.0</ele><time>2026-04-25T07:57:02.027Z</time></trkpt><trkpt lat="43.9426117" lon="12.1969967"><ele>340.0</ele><time>2026-04-25T07:57:05.027Z</time></trkpt><trkpt lat="43.9425333" lon="12.197035"><ele>340.0</ele><time>2026-04-25T07:57:08.027Z</time></trkpt><trkpt lat="43.9424517" lon="12.1970733"><ele>340.0</ele><time>2026-04-25T07:57:11.027Z</time></trkpt><trkpt lat="43.9423733" lon="12.197125"><ele>340.0</ele><time>2026-04-25T07:57:14.026Z</time></trkpt><trkpt lat="43.942315" lon="12.197175"><ele>340.0</ele><time>2026-04-25T07:57:16.026Z</time></trkpt><trkpt lat="43.9422317" lon="12.1972083"><ele>340.0</ele><time>2026-04-25T07:57:19.026Z</time></trkpt><trkpt lat="43.9421533" lon="12.19724"><ele>340.0</ele><time>2026-04-25T07:57:22.026Z</time></trkpt><trkpt lat="43.9420783" lon="12.197265"><ele>340.0</ele><time>2026-04-25T07:57:25.027Z</time></trkpt><trkpt lat="43.9420033" lon="12.1972517"><ele>340.0</ele><time>2026-04-25T07:57:28.027Z</time></trkpt><trkpt lat="43.941935" lon="12.1971983"><ele>340.0</ele><time>2026-04-25T07:57:31.027Z</time></trkpt><trkpt lat="43.9418733" lon="12.19716"><ele>340.0</ele><time>2026-04-25T07:57:34.027Z</time></trkpt><trkpt lat="43.94181" lon="12.1971417"><ele>340.0</ele><time>2026-04-25T07:57:37.026Z</time></trkpt><trkpt lat="43.9417433" lon="12.1971883"><ele>340.0</ele><time>2026-04-25T07:57:41.027Z</time></trkpt><trkpt lat="43.9417417" lon="12.197295"><ele>340.0</ele><time>2026-04-25T07:57:45.027Z</time></trkpt><trkpt lat="43.94179" lon="12.19739"><ele>340.0</ele><time>2026-04-25T07:57:49.026Z</time></trkpt><trkpt lat="43.94184" lon="12.197455"><ele>342.0</ele><time>2026-04-25T07:57:52.027Z</time></trkpt><trkpt lat="43.9418983" lon="12.1975117"><ele>344.0</ele><time>2026-04-25T07:57:55.026Z</time></trkpt><trkpt lat="43.9419567" lon="12.19755"><ele>346.0</ele><time>2026-04-25T07:57:58.027Z</time></trkpt><trkpt lat="43.94202" lon="12.1975783"><ele>348.0</ele><time>2026-04-25T07:58:01.025Z</time></trkpt><trkpt lat="43.9420717" lon="12.197655"><ele>350.0</ele><time>2026-04-25T07:58:05.025Z</time></trkpt><trkpt lat="43.94207" lon="12.19775"><ele>352.0</ele><time>2026-04-25T07:58:08.026Z</time></trkpt><trkpt lat="43.9420233" lon="12.19784"><ele>354.0</ele><time>2026-04-25T07:58:12.025Z</time></trkpt><trkpt lat="43.9419617" lon="12.1978633"><ele>354.0</ele><time>2026-04-25T07:58:15.026Z</time></trkpt><trkpt lat="43.941895" lon="12.1978617"><ele>354.0</ele><time>2026-04-25T07:58:18.026Z</time></trkpt><trkpt lat="43.94181" lon="12.1978533"><ele>354.0</ele><time>2026-04-25T07:58:22.026Z</time></trkpt><trkpt lat="43.9417383" lon="12.1978533"><ele>354.0</ele><time>2026-04-25T07:58:25.026Z</time></trkpt><trkpt lat="43.941675" lon="12.1978567"><ele>354.0</ele><time>2026-04-25T07:58:28.026Z</time></trkpt><trkpt lat="43.9415967" lon="12.1978933"><ele>354.0</ele><time>2026-04-25T07:58:32.026Z</time></trkpt><trkpt lat="43.94154" lon="12.197945"><ele>354.0</ele><time>2026-04-25T07:58:35.025Z</time></trkpt><trkpt lat="43.9414933" lon="12.1980067"><ele>354.6666666666667</ele><time>2026-04-25T07:58:38.026Z</time></trkpt><trkpt lat="43.9414667" lon="12.198095"><ele>355.3333333333333</ele><time>2026-04-25T07:58:41.026Z</time></trkpt><trkpt lat="43.9414383" lon="12.19819"><ele>356.0</ele><time>2026-04-25T07:58:44.026Z</time></trkpt><trkpt lat="43.9414117" lon="12.1982933"><ele>356.66666666666663</ele><time>2026-04-25T07:58:47.026Z</time></trkpt><trkpt lat="43.941405" lon="12.198405"><ele>357.3333333333333</ele><time>2026-04-25T07:58:50.026Z</time></trkpt><trkpt lat="43.9414133" lon="12.19853"><ele>358.0</ele><time>2026-04-25T07:58:53.025Z</time></trkpt><trkpt lat="43.9414317" lon="12.1986467"><ele>359.16666666666663</ele><time>2026-04-25T07:58:56.026Z</time></trkpt><trkpt lat="43.9414533" lon="12.1987683"><ele>360.3333333333333</ele><time>2026-04-25T07:58:59.026Z</time></trkpt><trkpt lat="43.9414517" lon="12.1988567"><ele>361.5</ele><time>2026-04-25T07:59:01.025Z</time></trkpt><trkpt lat="43.94142" lon="12.1989783"><ele>362.6666666666667</ele><time>2026-04-25T07:59:04.026Z</time></trkpt><trkpt lat="43.9413683" lon="12.1990783"><ele>363.83333333333337</ele><time>2026-04-25T07:59:07.025Z</time></trkpt><trkpt lat="43.9413133" lon="12.1991817"><ele>365.0</ele><time>2026-04-25T07:59:10.026Z</time></trkpt><trkpt lat="43.9412733" lon="12.1992817"><ele>367.1666666666667</ele><time>2026-04-25T07:59:13.026Z</time></trkpt><trkpt lat="43.9412583" lon="12.1993933"><ele>369.33333333333337</ele><time>2026-04-25T07:59:16.026Z</time></trkpt><trkpt lat="43.94128" lon="12.1995"><ele>371.5</ele><time>2026-04-25T07:59:20.026Z</time></trkpt><trkpt lat="43.941345" lon="12.199515"><ele>373.6666666666667</ele><time>2026-04-25T07:59:24.025Z</time></trkpt><trkpt lat="43.9414033" lon="12.1994333"><ele>375.8333333333333</ele><time>2026-04-25T07:59:28.026Z</time></trkpt><trkpt lat="43.941455" lon="12.1993633"><ele>378.0</ele><time>2026-04-25T07:59:32.026Z</time></trkpt><trkpt lat="43.9415117" lon="12.1992767"><ele>378.0</ele><time>2026-04-25T07:59:36.026Z</time></trkpt><trkpt lat="43.941565" lon="12.1992017"><ele>378.0</ele><time>2026-04-25T07:59:40.026Z</time></trkpt><trkpt lat="43.94162" lon="12.1991233"><ele>378.0</ele><time>2026-04-25T07:59:44.026Z</time></trkpt><trkpt lat="43.9416833" lon="12.199065"><ele>378.0</ele><time>2026-04-25T07:59:48.026Z</time></trkpt><trkpt lat="43.9417333" lon="12.1990117"><ele>378.0</ele><time>2026-04-25T07:59:51.026Z</time></trkpt><trkpt lat="43.94179" lon="12.1989733"><ele>378.0</ele><time>2026-04-25T07:59:54.026Z</time></trkpt><trkpt lat="43.9418717" lon="12.1989683"><ele>378.0</ele><time>2026-04-25T07:59:59.026Z</time></trkpt><trkpt lat="43.9419517" lon="12.1989917"><ele>379.2857142857143</ele><time>2026-04-25T08:00:03.026Z</time></trkpt><trkpt lat="43.942015" lon="12.19901"><ele>380.57142857142856</ele><time>2026-04-25T08:00:06.025Z</time></trkpt><trkpt lat="43.942085" lon="12.1990317"><ele>381.8571428571429</ele><time>2026-04-25T08:00:10.026Z</time></trkpt><trkpt lat="43.942155" lon="12.1990617"><ele>383.1428571428571</ele><time>2026-04-25T08:00:14.026Z</time></trkpt><trkpt lat="43.9422167" lon="12.1991017"><ele>384.42857142857144</ele><time>2026-04-25T08:00:17.026Z</time></trkpt><trkpt lat="43.9422767" lon="12.19915"><ele>385.7142857142857</ele><time>2026-04-25T08:00:20.026Z</time></trkpt><trkpt lat="43.942325" lon="12.1992083"><ele>387.0</ele><time>2026-04-25T08:00:23.026Z</time></trkpt><trkpt lat="43.9423783" lon="12.199255"><ele>387.0</ele><time>2026-04-25T08:00:26.025Z</time></trkpt><trkpt lat="43.942445" lon="12.1992767"><ele>387.0</ele><time>2026-04-25T08:00:29.026Z</time></trkpt><trkpt lat="43.942525" lon="12.1992967"><ele>387.0</ele><time>2026-04-25T08:00:33.026Z</time></trkpt><trkpt lat="43.94259" lon="12.1993367"><ele>387.0</ele><time>2026-04-25T08:00:36.025Z</time></trkpt><trkpt lat="43.9426617" lon="12.1993883"><ele>387.0</ele><time>2026-04-25T08:00:40.026Z</time></trkpt><trkpt lat="43.9427283" lon="12.1994233"><ele>387.0</ele><time>2026-04-25T08:00:43.025Z</time></trkpt><trkpt lat="43.9427883" lon="12.1994533"><ele>387.0</ele><time>2026-04-25T08:00:46.026Z</time></trkpt><trkpt lat="43.9428683" lon="12.1994717"><ele>386.6666666666667</ele><time>2026-04-25T08:00:51.026Z</time></trkpt><trkpt lat="43.942945" lon="12.1994817"><ele>386.33333333333337</ele><time>2026-04-25T08:00:55.025Z</time></trkpt><trkpt lat="43.9430317" lon="12.1994583"><ele>386.0</ele><time>2026-04-25T08:00:58.026Z</time></trkpt><trkpt lat="43.9431" lon="12.1994133"><ele>385.6666666666667</ele><time>2026-04-25T08:01:01.026Z</time></trkpt><trkpt lat="43.9431667" lon="12.1993633"><ele>385.33333333333337</ele><time>2026-04-25T08:01:05.026Z</time></trkpt><trkpt lat="43.94322" lon="12.1992767"><ele>385.0</ele><time>2026-04-25T08:01:09.025Z</time></trkpt><trkpt lat="43.943255" lon="12.1991967"><ele>385.00000000000006</ele><time>2026-04-25T08:01:12.026Z</time></trkpt><trkpt lat="43.9432983" lon="12.1990933"><ele>385.0</ele><time>2026-04-25T08:01:15.026Z</time></trkpt><trkpt lat="43.94335" lon="12.19899"><ele>385.0</ele><time>2026-04-25T08:01:18.026Z</time></trkpt><trkpt lat="43.9434033" lon="12.1988767"><ele>385.0</ele><time>2026-04-25T08:01:21.026Z</time></trkpt><trkpt lat="43.9434583" lon="12.198795"><ele>385.00000000000006</ele><time>2026-04-25T08:01:23.026Z</time></trkpt><trkpt lat="43.9435183" lon="12.1987217"><ele>385.0</ele><time>2026-04-25T08:01:25.026Z</time></trkpt><trkpt lat="43.943575" lon="12.19867"><ele>382.50000000000006</ele><time>2026-04-25T08:01:27.025Z</time></trkpt><trkpt lat="43.943665" lon="12.1985867"><ele>380.0</ele><time>2026-04-25T08:01:31.026Z</time></trkpt><trkpt lat="43.9437217" lon="12.1985117"><ele>377.5</ele><time>2026-04-25T08:01:34.026Z</time></trkpt><trkpt lat="43.9437733" lon="12.1984283"><ele>375.0</ele><time>2026-04-25T08:01:37.026Z</time></trkpt><trkpt lat="43.9438" lon="12.1983433"><ele>372.5</ele><time>2026-04-25T08:01:41.026Z</time></trkpt><trkpt lat="43.94376" lon="12.198415"><ele>370.0</ele><time>2026-04-25T08:01:46.025Z</time></trkpt><trkpt lat="43.9437183" lon="12.1985133"><ele>370.0</ele><time>2026-04-25T08:01:49.026Z</time></trkpt><trkpt lat="43.943665" lon="12.198575"><ele>370.0</ele><time>2026-04-25T08:01:51.026Z</time></trkpt><trkpt lat="43.9436083" lon="12.1986333"><ele>370.0</ele><time>2026-04-25T08:01:53.026Z</time></trkpt><trkpt lat="43.943535" lon="12.1987067"><ele>370.0</ele><time>2026-04-25T08:01:56.026Z</time></trkpt><trkpt lat="43.9434617" lon="12.1987867"><ele>370.0</ele><time>2026-04-25T08:01:59.026Z</time></trkpt><trkpt lat="43.9434083" lon="12.198855"><ele>370.0</ele><time>2026-04-25T08:02:02.026Z</time></trkpt><trkpt lat="43.9433683" lon="12.1989317"><ele>372.1428571428571</ele><time>2026-04-25T08:02:05.025Z</time></trkpt><trkpt lat="43.9433267" lon="12.199015"><ele>374.2857142857143</ele><time>2026-04-25T08:02:08.026Z</time></trkpt><trkpt lat="43.943285" lon="12.199105"><ele>376.42857142857144</ele><time>2026-04-25T08:02:11.026Z</time></trkpt><trkpt lat="43.9432433" lon="12.1991967"><ele>378.57142857142856</ele><time>2026-04-25T08:02:14.026Z</time></trkpt><trkpt lat="43.9432117" lon="12.1992783"><ele>380.7142857142857</ele><time>2026-04-25T08:02:17.025Z</time></trkpt><trkpt lat="43.9431633" lon="12.199355"><ele>382.85714285714283</ele><time>2026-04-25T08:02:20.026Z</time></trkpt><trkpt lat="43.9431" lon="12.199415"><ele>385.0</ele><time>2026-04-25T08:02:23.025Z</time></trkpt><trkpt lat="43.9430133" lon="12.19946"><ele>385.0</ele><time>2026-04-25T08:02:26.025Z</time></trkpt><trkpt lat="43.9429483" lon="12.1994783"><ele>385.0</ele><time>2026-04-25T08:02:28.025Z</time></trkpt><trkpt lat="43.9428783" lon="12.1994883"><ele>385.0</ele><time>2026-04-25T08:02:30.026Z</time></trkpt><trkpt lat="43.94281" lon="12.1994983"><ele>385.0</ele><time>2026-04-25T08:02:32.026Z</time></trkpt><trkpt lat="43.9427467" lon="12.1994833"><ele>385.0</ele><time>2026-04-25T08:02:34.025Z</time></trkpt><trkpt lat="43.9426783" lon="12.1994333"><ele>385.0</ele><time>2026-04-25T08:02:37.025Z</time></trkpt><trkpt lat="43.9426133" lon="12.1993717"><ele>385.0</ele><time>2026-04-25T08:02:41.026Z</time></trkpt><trkpt lat="43.94254" lon="12.19933"><ele>385.33333333333337</ele><time>2026-04-25T08:02:44.026Z</time></trkpt><trkpt lat="43.9424617" lon="12.1993067"><ele>385.6666666666667</ele><time>2026-04-25T08:02:47.025Z</time></trkpt><trkpt lat="43.94239" lon="12.1992867"><ele>386.0</ele><time>2026-04-25T08:02:51.025Z</time></trkpt><trkpt lat="43.94232" lon="12.1992383"><ele>386.33333333333337</ele><time>2026-04-25T08:02:54.025Z</time></trkpt><trkpt lat="43.9422617" lon="12.1991617"><ele>386.6666666666667</ele><time>2026-04-25T08:02:57.025Z</time></trkpt><trkpt lat="43.942185" lon="12.19909"><ele>387.0</ele><time>2026-04-25T08:03:00.026Z</time></trkpt><trkpt lat="43.9421267" lon="12.19905"><ele>387.0</ele><time>2026-04-25T08:03:02.025Z</time></trkpt><trkpt lat="43.94204" lon="12.19902"><ele>387.0</ele><time>2026-04-25T08:03:04.026Z</time></trkpt><trkpt lat="43.9419567" lon="12.1989933"><ele>387.0</ele><time>2026-04-25T08:03:06.026Z</time></trkpt><trkpt lat="43.9418783" lon="12.1989717"><ele>387.0</ele><time>2026-04-25T08:03:08.025Z</time></trkpt><trkpt lat="43.9417817" lon="12.1989567"><ele>387.0</ele><time>2026-04-25T08:03:11.025Z</time></trkpt><trkpt lat="43.9416983" lon="12.198995"><ele>387.0</ele><time>2026-04-25T08:03:13.026Z</time></trkpt><trkpt lat="43.9416233" lon="12.1990717"><ele>385.5</ele><time>2026-04-25T08:03:15.025Z</time></trkpt><trkpt lat="43.94156" lon="12.1991433"><ele>384.0</ele><time>2026-04-25T08:03:17.026Z</time></trkpt><trkpt lat="43.9415167" lon="12.19921"><ele>382.5</ele><time>2026-04-25T08:03:19.026Z</time></trkpt><trkpt lat="43.9414767" lon="12.1992817"><ele>381.0</ele><time>2026-04-25T08:03:21.025Z</time></trkpt><trkpt lat="43.9414183" lon="12.199355"><ele>379.5</ele><time>2026-04-25T08:03:23.026Z</time></trkpt><trkpt lat="43.9413683" lon="12.1994233"><ele>378.0</ele><time>2026-04-25T08:03:25.026Z</time></trkpt><trkpt lat="43.941305" lon="12.199525"><ele>378.0</ele><time>2026-04-25T08:03:28.026Z</time></trkpt><trkpt lat="43.941275" lon="12.1996117"><ele>378.0</ele><time>2026-04-25T08:03:30.025Z</time></trkpt><trkpt lat="43.941255" lon="12.199725"><ele>378.0</ele><time>2026-04-25T08:03:32.025Z</time></trkpt><trkpt lat="43.9412433" lon="12.1998683"><ele>378.0</ele><time>2026-04-25T08:03:34.025Z</time></trkpt><trkpt lat="43.9412333" lon="12.2000133"><ele>378.0</ele><time>2026-04-25T08:03:36.026Z</time></trkpt><trkpt lat="43.9412217" lon="12.20014"><ele>378.0</ele><time>2026-04-25T08:03:38.026Z</time></trkpt><trkpt lat="43.9412133" lon="12.2002667"><ele>378.0</ele><time>2026-04-25T08:03:40.026Z</time></trkpt><trkpt lat="43.941205" lon="12.2003817"><ele>378.0</ele><time>2026-04-25T08:03:42.026Z</time></trkpt><trkpt lat="43.9412067" lon="12.2004833"><ele>378.0</ele><time>2026-04-25T08:03:44.026Z</time></trkpt><trkpt lat="43.9412233" lon="12.200595"><ele>378.0</ele><time>2026-04-25T08:03:46.026Z</time></trkpt><trkpt lat="43.94126" lon="12.2006733"><ele>378.0</ele><time>2026-04-25T08:03:48.026Z</time></trkpt><trkpt lat="43.94127" lon="12.2007617"><ele>376.1666666666667</ele><time>2026-04-25T08:03:50.025Z</time></trkpt><trkpt lat="43.9412683" lon="12.2008617"><ele>374.3333333333333</ele><time>2026-04-25T08:03:52.026Z</time></trkpt><trkpt lat="43.9412383" lon="12.2009433"><ele>372.5</ele><time>2026-04-25T08:03:54.025Z</time></trkpt><trkpt lat="43.9411817" lon="12.2010017"><ele>370.66666666666663</ele><time>2026-04-25T08:03:56.026Z</time></trkpt><trkpt lat="43.9411" lon="12.2010667"><ele>368.8333333333333</ele><time>2026-04-25T08:03:58.026Z</time></trkpt><trkpt lat="43.9410267" lon="12.2011383"><ele>367.0</ele><time>2026-04-25T08:04:00.026Z</time></trkpt><trkpt lat="43.94098" lon="12.2012467"><ele>367.0</ele><time>2026-04-25T08:04:02.026Z</time></trkpt><trkpt lat="43.940955" lon="12.2013883"><ele>367.0</ele><time>2026-04-25T08:04:04.026Z</time></trkpt><trkpt lat="43.940945" lon="12.2015583"><ele>367.0</ele><time>2026-04-25T08:04:06.025Z</time></trkpt><trkpt lat="43.940945" lon="12.2016567"><ele>367.0</ele><time>2026-04-25T08:04:07.026Z</time></trkpt><trkpt lat="43.9409433" lon="12.2017583"><ele>367.0</ele><time>2026-04-25T08:04:08.026Z</time></trkpt><trkpt lat="43.9409483" lon="12.201875"><ele>365.16666666666663</ele><time>2026-04-25T08:04:09.025Z</time></trkpt><trkpt lat="43.94095" lon="12.2019917"><ele>363.3333333333333</ele><time>2026-04-25T08:04:10.026Z</time></trkpt><trkpt lat="43.94095" lon="12.2021117"><ele>361.5</ele><time>2026-04-25T08:04:11.026Z</time></trkpt><trkpt lat="43.940945" lon="12.2022317"><ele>359.6666666666667</ele><time>2026-04-25T08:04:12.026Z</time></trkpt><trkpt lat="43.940935" lon="12.2023517"><ele>357.83333333333337</ele><time>2026-04-25T08:04:13.025Z</time></trkpt><trkpt lat="43.9409267" lon="12.202475"><ele>356.0</ele><time>2026-04-25T08:04:14.026Z</time></trkpt><trkpt lat="43.9409217" lon="12.2026017"><ele>354.83333333333337</ele><time>2026-04-25T08:04:15.025Z</time></trkpt><trkpt lat="43.9409083" lon="12.2027267"><ele>353.6666666666667</ele><time>2026-04-25T08:04:16.025Z</time></trkpt><trkpt lat="43.9408933" lon="12.20285"><ele>352.5</ele><time>2026-04-25T08:04:17.026Z</time></trkpt><trkpt lat="43.9408817" lon="12.2029717"><ele>351.3333333333333</ele><time>2026-04-25T08:04:18.026Z</time></trkpt><trkpt lat="43.9408633" lon="12.2030917"><ele>350.16666666666663</ele><time>2026-04-25T08:04:19.026Z</time></trkpt><trkpt lat="43.9408483" lon="12.2031983"><ele>349.0</ele><time>2026-04-25T08:04:20.026Z</time></trkpt><trkpt lat="43.940825" lon="12.2033033"><ele>348.66666666666663</ele><time>2026-04-25T08:04:21.026Z</time></trkpt><trkpt lat="43.9407933" lon="12.203405"><ele>348.3333333333333</ele><time>2026-04-25T08:04:22.026Z</time></trkpt><trkpt lat="43.9407717" lon="12.2035067"><ele>348.0</ele><time>2026-04-25T08:04:23.026Z</time></trkpt><trkpt lat="43.9407483" lon="12.203605"><ele>347.6666666666667</ele><time>2026-04-25T08:04:24.026Z</time></trkpt><trkpt lat="43.9407233" lon="12.20371"><ele>347.33333333333337</ele><time>2026-04-25T08:04:25.026Z</time></trkpt><trkpt lat="43.9407" lon="12.2038067"><ele>347.0</ele><time>2026-04-25T08:04:26.026Z</time></trkpt><trkpt lat="43.9406767" lon="12.203895"><ele>347.0</ele><time>2026-04-25T08:04:27.025Z</time></trkpt><trkpt lat="43.9406583" lon="12.2039817"><ele>347.0</ele><time>2026-04-25T08:04:28.025Z</time></trkpt><trkpt lat="43.9406367" lon="12.2040683"><ele>347.0</ele><time>2026-04-25T08:04:29.025Z</time></trkpt><trkpt lat="43.9406117" lon="12.2041517"><ele>347.0</ele><time>2026-04-25T08:04:30.025Z</time></trkpt><trkpt lat="43.940575" lon="12.2043183"><ele>347.0</ele><time>2026-04-25T08:04:32.025Z</time></trkpt><trkpt lat="43.9405433" lon="12.204465"><ele>347.0</ele><time>2026-04-25T08:04:34.025Z</time></trkpt><trkpt lat="43.9405" lon="12.2046083"><ele>346.83333333333337</ele><time>2026-04-25T08:04:36.026Z</time></trkpt><trkpt lat="43.9404617" lon="12.2047267"><ele>346.6666666666667</ele><time>2026-04-25T08:04:38.026Z</time></trkpt><trkpt lat="43.9404317" lon="12.2048067"><ele>346.5</ele><time>2026-04-25T08:04:40.026Z</time></trkpt><trkpt lat="43.9403883" lon="12.2048817"><ele>346.3333333333333</ele><time>2026-04-25T08:04:43.026Z</time></trkpt><trkpt lat="43.9403383" lon="12.204955"><ele>346.16666666666663</ele><time>2026-04-25T08:04:46.026Z</time></trkpt><trkpt lat="43.9402817" lon="12.20503"><ele>346.0</ele><time>2026-04-25T08:04:50.026Z</time></trkpt><trkpt lat="43.94022" lon="12.2051083"><ele>346.0</ele><time>2026-04-25T08:04:54.026Z</time></trkpt><trkpt lat="43.9401717" lon="12.2051833"><ele>346.0</ele><time>2026-04-25T08:04:57.026Z</time></trkpt><trkpt lat="43.9401267" lon="12.2052633"><ele>346.0</ele><time>2026-04-25T08:05:00.025Z</time></trkpt><trkpt lat="43.940085" lon="12.20534"><ele>346.0</ele><time>2026-04-25T08:05:03.026Z</time></trkpt><trkpt lat="43.9400417" lon="12.2054233"><ele>346.0</ele><time>2026-04-25T08:05:06.025Z</time></trkpt><trkpt lat="43.9399933" lon="12.2054883"><ele>346.0</ele><time>2026-04-25T08:05:09.026Z</time></trkpt><trkpt lat="43.9399433" lon="12.2055433"><ele>346.0</ele><time>2026-04-25T08:05:12.025Z</time></trkpt><trkpt lat="43.9398883" lon="12.2055967"><ele>348.16666666666663</ele><time>2026-04-25T08:05:15.026Z</time></trkpt><trkpt lat="43.93982" lon="12.2056633"><ele>350.3333333333333</ele><time>2026-04-25T08:05:19.026Z</time></trkpt><trkpt lat="43.939765" lon="12.205755"><ele>352.5</ele><time>2026-04-25T08:05:23.025Z</time></trkpt><trkpt lat="43.939745" lon="12.2058667"><ele>354.6666666666667</ele><time>2026-04-25T08:05:27.026Z</time></trkpt><trkpt lat="43.9397583" lon="12.2059533"><ele>356.83333333333337</ele><time>2026-04-25T08:05:30.026Z</time></trkpt><trkpt lat="43.9397917" lon="12.20603"><ele>359.0</ele><time>2026-04-25T08:05:33.026Z</time></trkpt><trkpt lat="43.9398483" lon="12.206085"><ele>359.0</ele><time>2026-04-25T08:05:36.025Z</time></trkpt><trkpt lat="43.939905" lon="12.2061267"><ele>359.0</ele><time>2026-04-25T08:05:39.025Z</time></trkpt><trkpt lat="43.9399633" lon="12.206165"><ele>359.0</ele><time>2026-04-25T08:05:42.026Z</time></trkpt><trkpt lat="43.94004" lon="12.2062117"><ele>359.0</ele><time>2026-04-25T08:05:46.025Z</time></trkpt><trkpt lat="43.9401083" lon="12.2062433"><ele>359.0</ele><time>2026-04-25T08:05:49.025Z</time></trkpt><trkpt lat="43.9401767" lon="12.2062767"><ele>359.0</ele><time>2026-04-25T08:05:52.025Z</time></trkpt><trkpt lat="43.9402417" lon="12.2063267"><ele>359.0</ele><time>2026-04-25T08:05:55.025Z</time></trkpt><trkpt lat="43.94029" lon="12.2064"><ele>359.33333333333337</ele><time>2026-04-25T08:05:58.026Z</time></trkpt><trkpt lat="43.9403233" lon="12.2065"><ele>359.6666666666667</ele><time>2026-04-25T08:06:01.026Z</time></trkpt><trkpt lat="43.9403617" lon="12.2066"><ele>360.0</ele><time>2026-04-25T08:06:04.026Z</time></trkpt><trkpt lat="43.9404017" lon="12.2067167"><ele>360.3333333333333</ele><time>2026-04-25T08:06:07.026Z</time></trkpt><trkpt lat="43.940435" lon="12.2068267"><ele>360.66666666666663</ele><time>2026-04-25T08:06:10.026Z</time></trkpt><trkpt lat="43.9404683" lon="12.2069283"><ele>361.0</ele><time>2026-04-25T08:06:13.026Z</time></trkpt><trkpt lat="43.9405033" lon="12.2070083"><ele>361.0</ele><time>2026-04-25T08:06:16.026Z</time></trkpt><trkpt lat="43.9405383" lon="12.207085"><ele>361.0</ele><time>2026-04-25T08:06:19.026Z</time></trkpt><trkpt lat="43.940575" lon="12.2071617"><ele>361.0</ele><time>2026-04-25T08:06:22.026Z</time></trkpt><trkpt lat="43.9406167" lon="12.20723"><ele>361.0</ele><time>2026-04-25T08:06:25.026Z</time></trkpt><trkpt lat="43.9406617" lon="12.207295"><ele>361.0</ele><time>2026-04-25T08:06:28.026Z</time></trkpt><trkpt lat="43.9407083" lon="12.2073617"><ele>361.0</ele><time>2026-04-25T08:06:31.026Z</time></trkpt><trkpt lat="43.9407617" lon="12.2074133"><ele>361.0</ele><time>2026-04-25T08:06:34.026Z</time></trkpt><trkpt lat="43.940815" lon="12.2074633"><ele>360.8571428571429</ele><time>2026-04-25T08:06:37.026Z</time></trkpt><trkpt lat="43.9408717" lon="12.2075167"><ele>360.71428571428567</ele><time>2026-04-25T08:06:40.026Z</time></trkpt><trkpt lat="43.9409167" lon="12.207585"><ele>360.57142857142856</ele><time>2026-04-25T08:06:43.025Z</time></trkpt><trkpt lat="43.9409717" lon="12.2076767"><ele>360.42857142857144</ele><time>2026-04-25T08:06:47.026Z</time></trkpt><trkpt lat="43.9410017" lon="12.2077583"><ele>360.28571428571433</ele><time>2026-04-25T08:06:50.026Z</time></trkpt><trkpt lat="43.941035" lon="12.2078367"><ele>360.1428571428571</ele><time>2026-04-25T08:06:53.025Z</time></trkpt><trkpt lat="43.94104" lon="12.2079517"><ele>360.0</ele><time>2026-04-25T08:06:57.026Z</time></trkpt><trkpt lat="43.9410033" lon="12.2080517"><ele>360.0</ele><time>2026-04-25T08:07:01.025Z</time></trkpt><trkpt lat="43.9409517" lon="12.208115"><ele>360.0</ele><time>2026-04-25T08:07:04.026Z</time></trkpt><trkpt lat="43.940885" lon="12.208155"><ele>360.0</ele><time>2026-04-25T08:07:07.026Z</time></trkpt><trkpt lat="43.940815" lon="12.208165"><ele>360.0</ele><time>2026-04-25T08:07:10.025Z</time></trkpt><trkpt lat="43.9407367" lon="12.2081867"><ele>360.0</ele><time>2026-04-25T08:07:13.026Z</time></trkpt><trkpt lat="43.9406683" lon="12.208205"><ele>360.0</ele><time>2026-04-25T08:07:16.025Z</time></trkpt><trkpt lat="43.9405983" lon="12.208225"><ele>360.0</ele><time>2026-04-25T08:07:19.026Z</time></trkpt><trkpt lat="43.940535" lon="12.2082617"><ele>363.4285714285714</ele><time>2026-04-25T08:07:22.026Z</time></trkpt><trkpt lat="43.940475" lon="12.2082917"><ele>366.8571428571429</ele><time>2026-04-25T08:07:25.026Z</time></trkpt><trkpt lat="43.9404017" lon="12.2083467"><ele>370.2857142857143</ele><time>2026-04-25T08:07:29.026Z</time></trkpt><trkpt lat="43.9403317" lon="12.20841"><ele>373.71428571428567</ele><time>2026-04-25T08:07:33.026Z</time></trkpt><trkpt lat="43.94028" lon="12.2084717"><ele>377.1428571428571</ele><time>2026-04-25T08:07:37.026Z</time></trkpt><trkpt lat="43.94024" lon="12.2085533"><ele>380.57142857142856</ele><time>2026-04-25T08:07:42.026Z</time></trkpt><trkpt lat="43.9401933" lon="12.2086317"><ele>384.0</ele><time>2026-04-25T08:07:47.026Z</time></trkpt><trkpt lat="43.9401617" lon="12.2085483"><ele>383.99999999999994</ele><time>2026-04-25T08:07:53.026Z</time></trkpt><trkpt lat="43.9401483" lon="12.20845"><ele>384.0</ele><time>2026-04-25T08:07:58.026Z</time></trkpt><trkpt lat="43.9401717" lon="12.2085517"><ele>384.0</ele><time>2026-04-25T08:08:09.026Z</time></trkpt><trkpt lat="43.9401867" lon="12.2086467"><ele>384.0</ele><time>2026-04-25T08:08:12.026Z</time></trkpt><trkpt lat="43.9401817" lon="12.2085533"><ele>384.0</ele><time>2026-04-25T08:08:19.025Z</time></trkpt><trkpt lat="43.9401567" lon="12.20845"><ele>383.99999999999994</ele><time>2026-04-25T08:08:24.026Z</time></trkpt><trkpt lat="43.9401433" lon="12.2083517"><ele>384.0</ele><time>2026-04-25T08:08:28.026Z</time></trkpt><trkpt lat="43.9401317" lon="12.2082517"><ele>383.99999999999994</ele><time>2026-04-25T08:08:32.026Z</time></trkpt><trkpt lat="43.940075" lon="12.2081833"><ele>384.0</ele><time>2026-04-25T08:08:37.026Z</time></trkpt><trkpt lat="43.94002" lon="12.2082433"><ele>384.0</ele><time>2026-04-25T08:08:42.026Z</time></trkpt><trkpt lat="43.9399783" lon="12.20833"><ele>384.0</ele><time>2026-04-25T08:08:46.025Z</time></trkpt><trkpt lat="43.939935" lon="12.2084067"><ele>384.0</ele><time>2026-04-25T08:08:50.026Z</time></trkpt><trkpt lat="43.939895" lon="12.20849"><ele>383.99999999999994</ele><time>2026-04-25T08:08:54.025Z</time></trkpt><trkpt lat="43.9398467" lon="12.2085733"><ele>384.0</ele><time>2026-04-25T08:08:58.026Z</time></trkpt><trkpt lat="43.939795" lon="12.2086667"><ele>386.2857142857143</ele><time>2026-04-25T08:09:02.026Z</time></trkpt><trkpt lat="43.939765" lon="12.208765"><ele>388.57142857142856</ele><time>2026-04-25T08:09:06.026Z</time></trkpt><trkpt lat="43.9397517" lon="12.2088617"><ele>390.8571428571429</ele><time>2026-04-25T08:09:10.026Z</time></trkpt><trkpt lat="43.9397183" lon="12.2089483"><ele>393.1428571428571</ele><time>2026-04-25T08:09:14.025Z</time></trkpt><trkpt lat="43.9396817" lon="12.2090233"><ele>395.42857142857144</ele><time>2026-04-25T08:09:18.026Z</time></trkpt><trkpt lat="43.939615" lon="12.20908"><ele>397.7142857142857</ele><time>2026-04-25T08:09:23.026Z</time></trkpt><trkpt lat="43.9395417" lon="12.2090933"><ele>400.0</ele><time>2026-04-25T08:09:27.026Z</time></trkpt><trkpt lat="43.939465" lon="12.2091017"><ele>400.50000000000006</ele><time>2026-04-25T08:09:31.025Z</time></trkpt><trkpt lat="43.9393917" lon="12.2091183"><ele>401.0</ele><time>2026-04-25T08:09:35.026Z</time></trkpt><trkpt lat="43.9393183" lon="12.20915"><ele>401.5</ele><time>2026-04-25T08:09:39.025Z</time></trkpt><trkpt lat="43.9392467" lon="12.20919"><ele>402.0</ele><time>2026-04-25T08:09:43.025Z</time></trkpt><trkpt lat="43.9391733" lon="12.209235"><ele>402.50000000000006</ele><time>2026-04-25T08:09:48.025Z</time></trkpt><trkpt lat="43.9390717" lon="12.209365"><ele>403.0</ele><time>2026-04-25T08:10:04.026Z</time></trkpt><trkpt lat="43.9389967" lon="12.2094933"><ele>405.83333333333337</ele><time>2026-04-25T08:10:19.026Z</time></trkpt><trkpt lat="43.9389117" lon="12.2096033"><ele>408.6666666666667</ele><time>2026-04-25T08:10:32.025Z</time></trkpt><trkpt lat="43.938865" lon="12.2096633"><ele>411.5</ele><time>2026-04-25T08:10:39.026Z</time></trkpt><trkpt lat="43.9388067" lon="12.2097617"><ele>414.33333333333337</ele><time>2026-04-25T08:10:50.026Z</time></trkpt><trkpt lat="43.9387667" lon="12.20983"><ele>417.1666666666667</ele><time>2026-04-25T08:11:00.026Z</time></trkpt><trkpt lat="43.9387183" lon="12.2098883"><ele>420.0</ele><time>2026-04-25T08:11:03.025Z</time></trkpt><trkpt lat="43.9386383" lon="12.2099467"><ele>420.0</ele><time>2026-04-25T08:11:11.025Z</time></trkpt><trkpt lat="43.9385233" lon="12.20999"><ele>420.0</ele><time>2026-04-25T08:11:25.025Z</time></trkpt><trkpt lat="43.9384433" lon="12.2100917"><ele>420.0</ele><time>2026-04-25T08:11:53.026Z</time></trkpt><trkpt lat="43.938375" lon="12.2102133"><ele>420.0</ele><time>2026-04-25T08:12:13.026Z</time></trkpt><trkpt lat="43.938405" lon="12.2101333"><ele>420.0</ele><time>2026-04-25T08:12:25.026Z</time></trkpt><trkpt lat="43.9384317" lon="12.2100317"><ele>420.0</ele><time>2026-04-25T08:12:28.025Z</time></trkpt><trkpt lat="43.9385017" lon="12.2099783"><ele>420.0</ele><time>2026-04-25T08:12:32.026Z</time></trkpt><trkpt lat="43.9385733" lon="12.2099217"><ele>420.0</ele><time>2026-04-25T08:12:35.025Z</time></trkpt><trkpt lat="43.9386333" lon="12.2098733"><ele>420.0</ele><time>2026-04-25T08:12:37.026Z</time></trkpt><trkpt lat="43.9386867" lon="12.20982"><ele>420.0</ele><time>2026-04-25T08:12:39.025Z</time></trkpt><trkpt lat="43.9387467" lon="12.2097567"><ele>420.0</ele><time>2026-04-25T08:12:42.026Z</time></trkpt><trkpt lat="43.9388017" lon="12.2096733"><ele>421.0</ele><time>2026-04-25T08:12:45.026Z</time></trkpt><trkpt lat="43.938855" lon="12.2096033"><ele>422.0</ele><time>2026-04-25T08:12:48.026Z</time></trkpt><trkpt lat="43.9388967" lon="12.2095233"><ele>423.0</ele><time>2026-04-25T08:12:51.026Z</time></trkpt><trkpt lat="43.9389517" lon="12.20943"><ele>424.0</ele><time>2026-04-25T08:12:54.024Z</time></trkpt><trkpt lat="43.93901" lon="12.2093433"><ele>425.0</ele><time>2026-04-25T08:12:57.025Z</time></trkpt><trkpt lat="43.9390717" lon="12.209285"><ele>426.0</ele><time>2026-04-25T08:13:00.025Z</time></trkpt><trkpt lat="43.939145" lon="12.2092233"><ele>422.71428571428567</ele><time>2026-04-25T08:13:03.025Z</time></trkpt><trkpt lat="43.9392217" lon="12.2091833"><ele>419.42857142857144</ele><time>2026-04-25T08:13:06.024Z</time></trkpt><trkpt lat="43.93929" lon="12.2091467"><ele>416.1428571428571</ele><time>2026-04-25T08:13:09.025Z</time></trkpt><trkpt lat="43.93936" lon="12.2091267"><ele>412.85714285714283</ele><time>2026-04-25T08:13:12.025Z</time></trkpt><trkpt lat="43.939435" lon="12.2091183"><ele>409.57142857142856</ele><time>2026-04-25T08:13:14.025Z</time></trkpt><trkpt lat="43.9395083" lon="12.20911"><ele>406.2857142857143</ele><time>2026-04-25T08:13:16.025Z</time></trkpt><trkpt lat="43.939575" lon="12.2090933"><ele>403.0</ele><time>2026-04-25T08:13:18.025Z</time></trkpt><trkpt lat="43.939635" lon="12.209055"><ele>402.4</ele><time>2026-04-25T08:13:20.025Z</time></trkpt><trkpt lat="43.93968" lon="12.2089917"><ele>401.79999999999995</ele><time>2026-04-25T08:13:22.025Z</time></trkpt><trkpt lat="43.9397283" lon="12.2088917"><ele>401.2</ele><time>2026-04-25T08:13:25.025Z</time></trkpt><trkpt lat="43.939755" lon="12.2087783"><ele>400.6</ele><time>2026-04-25T08:13:28.025Z</time></trkpt><trkpt lat="43.9397967" lon="12.2086583"><ele>400.0</ele><time>2026-04-25T08:13:30.024Z</time></trkpt><trkpt lat="43.9398633" lon="12.2085217"><ele>400.0</ele><time>2026-04-25T08:13:32.025Z</time></trkpt><trkpt lat="43.9399283" lon="12.2084"><ele>400.0</ele><time>2026-04-25T08:13:34.025Z</time></trkpt><trkpt lat="43.9399867" lon="12.2082883"><ele>400.0</ele><time>2026-04-25T08:13:36.024Z</time></trkpt><trkpt lat="43.9400417" lon="12.2082067"><ele>400.0</ele><time>2026-04-25T08:13:38.025Z</time></trkpt><trkpt lat="43.9401267" lon="12.2082283"><ele>400.0</ele><time>2026-04-25T08:13:41.025Z</time></trkpt><trkpt lat="43.9401517" lon="12.2083383"><ele>397.7142857142857</ele><time>2026-04-25T08:13:44.025Z</time></trkpt><trkpt lat="43.9401533" lon="12.2084317"><ele>395.42857142857144</ele><time>2026-04-25T08:13:47.024Z</time></trkpt><trkpt lat="43.9401733" lon="12.2085233"><ele>393.1428571428571</ele><time>2026-04-25T08:13:50.025Z</time></trkpt><trkpt lat="43.9401883" lon="12.2086333"><ele>390.8571428571429</ele><time>2026-04-25T08:13:53.025Z</time></trkpt><trkpt lat="43.9401717" lon="12.2087317"><ele>388.57142857142856</ele><time>2026-04-25T08:13:55.024Z</time></trkpt><trkpt lat="43.9401567" lon="12.2088233"><ele>386.2857142857143</ele><time>2026-04-25T08:13:57.024Z</time></trkpt><trkpt lat="43.94015" lon="12.2089333"><ele>384.0</ele><time>2026-04-25T08:14:01.025Z</time></trkpt><trkpt lat="43.9401417" lon="12.20903"><ele>383.0</ele><time>2026-04-25T08:14:04.025Z</time></trkpt><trkpt lat="43.94014" lon="12.20915"><ele>382.0</ele><time>2026-04-25T08:14:08.024Z</time></trkpt><trkpt lat="43.940135" lon="12.2092467"><ele>381.0</ele><time>2026-04-25T08:14:11.025Z</time></trkpt><trkpt lat="43.9401367" lon="12.2093583"><ele>380.0</ele><time>2026-04-25T08:14:14.025Z</time></trkpt><trkpt lat="43.94012" lon="12.20947"><ele>379.0</ele><time>2026-04-25T08:14:17.025Z</time></trkpt><trkpt lat="43.940085" lon="12.2095883"><ele>378.0</ele><time>2026-04-25T08:14:20.025Z</time></trkpt><trkpt lat="43.9400617" lon="12.2096733"><ele>382.2</ele><time>2026-04-25T08:14:22.025Z</time></trkpt><trkpt lat="43.9400317" lon="12.2097817"><ele>386.4</ele><time>2026-04-25T08:14:24.025Z</time></trkpt><trkpt lat="43.94001" lon="12.2099033"><ele>390.59999999999997</ele><time>2026-04-25T08:14:26.024Z</time></trkpt><trkpt lat="43.9400133" lon="12.2100567"><ele>394.79999999999995</ele><time>2026-04-25T08:14:28.024Z</time></trkpt><trkpt lat="43.940025" lon="12.2102217"><ele>399.0</ele><time>2026-04-25T08:14:30.024Z</time></trkpt><trkpt lat="43.940045" lon="12.2103217"><ele>394.6666666666667</ele><time>2026-04-25T08:14:31.025Z</time></trkpt><trkpt lat="43.940075" lon="12.2104233"><ele>390.3333333333333</ele><time>2026-04-25T08:14:32.025Z</time></trkpt><trkpt lat="43.9401067" lon="12.210515"><ele>386.0</ele><time>2026-04-25T08:14:33.025Z</time></trkpt><trkpt lat="43.9401333" lon="12.2106017"><ele>381.66666666666663</ele><time>2026-04-25T08:14:34.025Z</time></trkpt><trkpt lat="43.9401633" lon="12.21068"><ele>377.3333333333333</ele><time>2026-04-25T08:14:35.025Z</time></trkpt><trkpt lat="43.940215" lon="12.2108267"><ele>373.0</ele><time>2026-04-25T08:14:37.025Z</time></trkpt><trkpt lat="43.9402667" lon="12.2109683"><ele>372.79999999999995</ele><time>2026-04-25T08:14:39.024Z</time></trkpt><trkpt lat="43.9403283" lon="12.2111183"><ele>372.6</ele><time>2026-04-25T08:14:41.025Z</time></trkpt><trkpt lat="43.9403883" lon="12.2112667"><ele>372.4</ele><time>2026-04-25T08:14:43.025Z</time></trkpt><trkpt lat="43.9404333" lon="12.2113933"><ele>372.20000000000005</ele><time>2026-04-25T08:14:45.025Z</time></trkpt><trkpt lat="43.940465" lon="12.21152"><ele>372.0</ele><time>2026-04-25T08:14:47.024Z</time></trkpt><trkpt lat="43.9405" lon="12.2116533"><ele>373.40000000000003</ele><time>2026-04-25T08:14:49.025Z</time></trkpt><trkpt lat="43.94054" lon="12.2117967"><ele>374.8</ele><time>2026-04-25T08:14:51.025Z</time></trkpt><trkpt lat="43.9405883" lon="12.2119333"><ele>376.2</ele><time>2026-04-25T08:14:53.024Z</time></trkpt><trkpt lat="43.9406333" lon="12.2120417"><ele>377.6</ele><time>2026-04-25T08:14:55.024Z</time></trkpt><trkpt lat="43.94071" lon="12.2121283"><ele>379.0</ele><time>2026-04-25T08:14:57.025Z</time></trkpt><trkpt lat="43.9408033" lon="12.2121817"><ele>379.0</ele><time>2026-04-25T08:14:59.025Z</time></trkpt><trkpt lat="43.94087" lon="12.21222"><ele>379.0</ele><time>2026-04-25T08:15:00.025Z</time></trkpt><trkpt lat="43.9409283" lon="12.2122583"><ele>379.0</ele><time>2026-04-25T08:15:01.024Z</time></trkpt><trkpt lat="43.941035" lon="12.21234"><ele>379.0</ele><time>2026-04-25T08:15:03.024Z</time></trkpt><trkpt lat="43.941095" lon="12.2123867"><ele>379.0</ele><time>2026-04-25T08:15:04.025Z</time></trkpt><trkpt lat="43.9411467" lon="12.21244"><ele>379.0</ele><time>2026-04-25T08:15:05.025Z</time></trkpt><trkpt lat="43.941235" lon="12.2125517"><ele>377.16666666666663</ele><time>2026-04-25T08:15:07.025Z</time></trkpt><trkpt lat="43.9412817" lon="12.2126133"><ele>375.3333333333333</ele><time>2026-04-25T08:15:08.025Z</time></trkpt><trkpt lat="43.9413217" lon="12.2126817"><ele>373.5</ele><time>2026-04-25T08:15:09.025Z</time></trkpt><trkpt lat="43.9413817" lon="12.2128133"><ele>371.6666666666667</ele><time>2026-04-25T08:15:11.025Z</time></trkpt><trkpt lat="43.94144" lon="12.2129467"><ele>369.83333333333337</ele><time>2026-04-25T08:15:13.024Z</time></trkpt><trkpt lat="43.9414983" lon="12.21303"><ele>368.0</ele><time>2026-04-25T08:15:15.025Z</time></trkpt><trkpt lat="43.9415717" lon="12.2130633"><ele>368.0</ele><time>2026-04-25T08:15:17.025Z</time></trkpt><trkpt lat="43.9416633" lon="12.2130433"><ele>368.0</ele><time>2026-04-25T08:15:19.025Z</time></trkpt><trkpt lat="43.9417733" lon="12.2130033"><ele>368.0</ele><time>2026-04-25T08:15:21.025Z</time></trkpt><trkpt lat="43.9418833" lon="12.2129683"><ele>368.0</ele><time>2026-04-25T08:15:23.024Z</time></trkpt><trkpt lat="43.9419917" lon="12.2129317"><ele>368.0</ele><time>2026-04-25T08:15:25.024Z</time></trkpt><trkpt lat="43.9421033" lon="12.2129017"><ele>365.2</ele><time>2026-04-25T08:15:27.024Z</time></trkpt><trkpt lat="43.942215" lon="12.21288"><ele>362.4</ele><time>2026-04-25T08:15:29.025Z</time></trkpt><trkpt lat="43.9423317" lon="12.2128567"><ele>359.59999999999997</ele><time>2026-04-25T08:15:31.025Z</time></trkpt><trkpt lat="43.94244" lon="12.212835"><ele>356.79999999999995</ele><time>2026-04-25T08:15:33.024Z</time></trkpt><trkpt lat="43.9425383" lon="12.21287"><ele>354.0</ele><time>2026-04-25T08:15:35.025Z</time></trkpt><trkpt lat="43.9426133" lon="12.2129633"><ele>352.75</ele><time>2026-04-25T08:15:37.025Z</time></trkpt><trkpt lat="43.942695" lon="12.213055"><ele>351.5</ele><time>2026-04-25T08:15:39.024Z</time></trkpt><trkpt lat="43.9427917" lon="12.2131467"><ele>350.25</ele><time>2026-04-25T08:15:41.025Z</time></trkpt><trkpt lat="43.9428767" lon="12.21326"><ele>349.0</ele><time>2026-04-25T08:15:43.025Z</time></trkpt><trkpt lat="43.9429567" lon="12.21338"><ele>349.0</ele><time>2026-04-25T08:15:45.024Z</time></trkpt><trkpt lat="43.9430283" lon="12.2134917"><ele>349.0</ele><time>2026-04-25T08:15:47.025Z</time></trkpt><trkpt lat="43.94307" lon="12.2136033"><ele>349.0</ele><time>2026-04-25T08:15:49.025Z</time></trkpt><trkpt lat="43.943125" lon="12.213685"><ele>349.0</ele><time>2026-04-25T08:15:51.025Z</time></trkpt><trkpt lat="43.94319" lon="12.2137517"><ele>349.0</ele><time>2026-04-25T08:15:53.025Z</time></trkpt><trkpt lat="43.9432617" lon="12.21382"><ele>349.0</ele><time>2026-04-25T08:15:55.024Z</time></trkpt><trkpt lat="43.94333" lon="12.2138817"><ele>349.0</ele><time>2026-04-25T08:15:57.025Z</time></trkpt><trkpt lat="43.94338" lon="12.213955"><ele>349.0</ele><time>2026-04-25T08:15:59.024Z</time></trkpt><trkpt lat="43.9434383" lon="12.214025"><ele>349.0</ele><time>2026-04-25T08:16:01.024Z</time></trkpt><trkpt lat="43.943495" lon="12.21409"><ele>349.0</ele><time>2026-04-25T08:16:03.024Z</time></trkpt><trkpt lat="43.9435517" lon="12.214155"><ele>349.0</ele><time>2026-04-25T08:16:05.025Z</time></trkpt><trkpt lat="43.9436133" lon="12.2142517"><ele>349.0</ele><time>2026-04-25T08:16:08.025Z</time></trkpt><trkpt lat="43.9436717" lon="12.214305"><ele>349.8333333333333</ele><time>2026-04-25T08:16:10.024Z</time></trkpt><trkpt lat="43.9437333" lon="12.2143383"><ele>350.66666666666663</ele><time>2026-04-25T08:16:12.024Z</time></trkpt><trkpt lat="43.9438017" lon="12.2143667"><ele>351.5</ele><time>2026-04-25T08:16:14.025Z</time></trkpt><trkpt lat="43.9438733" lon="12.2144033"><ele>352.3333333333333</ele><time>2026-04-25T08:16:16.024Z</time></trkpt><trkpt lat="43.9439417" lon="12.2144433"><ele>353.1666666666667</ele><time>2026-04-25T08:16:18.025Z</time></trkpt><trkpt lat="43.9440033" lon="12.2144817"><ele>354.0</ele><time>2026-04-25T08:16:20.024Z</time></trkpt><trkpt lat="43.944095" lon="12.2145167"><ele>354.0</ele><time>2026-04-25T08:16:23.025Z</time></trkpt><trkpt lat="43.944155" lon="12.2145533"><ele>354.0</ele><time>2026-04-25T08:16:25.025Z</time></trkpt><trkpt lat="43.944215" lon="12.2146017"><ele>354.0</ele><time>2026-04-25T08:16:27.024Z</time></trkpt><trkpt lat="43.9442967" lon="12.2146617"><ele>354.0</ele><time>2026-04-25T08:16:30.025Z</time></trkpt><trkpt lat="43.944375" lon="12.2146967"><ele>354.0</ele><time>2026-04-25T08:16:33.025Z</time></trkpt><trkpt lat="43.944435" lon="12.2147683"><ele>354.0</ele><time>2026-04-25T08:16:36.024Z</time></trkpt><trkpt lat="43.9444583" lon="12.2148767"><ele>354.42857142857144</ele><time>2026-04-25T08:16:40.025Z</time></trkpt><trkpt lat="43.9444433" lon="12.21499"><ele>354.85714285714283</ele><time>2026-04-25T08:16:44.025Z</time></trkpt><trkpt lat="43.944425" lon="12.2150817"><ele>355.2857142857143</ele><time>2026-04-25T08:16:47.024Z</time></trkpt><trkpt lat="43.9443933" lon="12.2151667"><ele>355.7142857142857</ele><time>2026-04-25T08:16:50.024Z</time></trkpt><trkpt lat="43.944355" lon="12.21525"><ele>356.1428571428571</ele><time>2026-04-25T08:16:53.025Z</time></trkpt><trkpt lat="43.9443083" lon="12.215325"><ele>356.57142857142856</ele><time>2026-04-25T08:16:56.024Z</time></trkpt><trkpt lat="43.9442533" lon="12.21539"><ele>357.0</ele><time>2026-04-25T08:16:59.025Z</time></trkpt><trkpt lat="43.9441867" lon="12.21544"><ele>358.0</ele><time>2026-04-25T08:17:02.025Z</time></trkpt><trkpt lat="43.94413" lon="12.21549"><ele>359.0</ele><time>2026-04-25T08:17:05.025Z</time></trkpt><trkpt lat="43.9440767" lon="12.2155383"><ele>360.0</ele><time>2026-04-25T08:17:08.025Z</time></trkpt><trkpt lat="43.94402" lon="12.2155883"><ele>361.0</ele><time>2026-04-25T08:17:11.024Z</time></trkpt><trkpt lat="43.94394" lon="12.2156317"><ele>362.0</ele><time>2026-04-25T08:17:15.025Z</time></trkpt><trkpt lat="43.9438667" lon="12.2156633"><ele>363.0</ele><time>2026-04-25T08:17:18.024Z</time></trkpt><trkpt lat="43.9438017" lon="12.2156817"><ele>364.0</ele><time>2026-04-25T08:17:21.024Z</time></trkpt><trkpt lat="43.9437233" lon="12.2156767"><ele>364.0</ele><time>2026-04-25T08:17:24.025Z</time></trkpt><trkpt lat="43.94365" lon="12.21565"><ele>364.0</ele><time>2026-04-25T08:17:27.024Z</time></trkpt><trkpt lat="43.9435833" lon="12.21562"><ele>364.0</ele><time>2026-04-25T08:17:30.025Z</time></trkpt><trkpt lat="43.9435217" lon="12.2155783"><ele>364.0</ele><time>2026-04-25T08:17:33.024Z</time></trkpt><trkpt lat="43.9434533" lon="12.2155433"><ele>364.0</ele><time>2026-04-25T08:17:36.025Z</time></trkpt><trkpt lat="43.9433867" lon="12.2155167"><ele>364.0</ele><time>2026-04-25T08:17:39.025Z</time></trkpt><trkpt lat="43.943315" lon="12.2155067"><ele>364.0</ele><time>2026-04-25T08:17:42.025Z</time></trkpt><trkpt lat="43.9432433" lon="12.21553"><ele>364.16666666666663</ele><time>2026-04-25T08:17:45.025Z</time></trkpt><trkpt lat="43.9431783" lon="12.2155567"><ele>364.3333333333333</ele><time>2026-04-25T08:17:48.025Z</time></trkpt><trkpt lat="43.9431183" lon="12.2156117"><ele>364.5</ele><time>2026-04-25T08:17:51.025Z</time></trkpt><trkpt lat="43.9430683" lon="12.2156817"><ele>364.6666666666667</ele><time>2026-04-25T08:17:54.025Z</time></trkpt><trkpt lat="43.943015" lon="12.2157617"><ele>364.83333333333337</ele><time>2026-04-25T08:17:57.025Z</time></trkpt><trkpt lat="43.9429567" lon="12.2158283"><ele>365.0</ele><time>2026-04-25T08:18:00.025Z</time></trkpt><trkpt lat="43.9430467" lon="12.2157533"><ele>365.0</ele><time>2026-04-25T08:18:06.025Z</time></trkpt><trkpt lat="43.9431167" lon="12.2156483"><ele>365.0</ele><time>2026-04-25T08:18:08.024Z</time></trkpt><trkpt lat="43.9432333" lon="12.2155667"><ele>365.0</ele><time>2026-04-25T08:18:10.025Z</time></trkpt><trkpt lat="43.9433067" lon="12.21555"><ele>365.0</ele><time>2026-04-25T08:18:11.024Z</time></trkpt><trkpt lat="43.94338" lon="12.215555"><ele>365.0</ele><time>2026-04-25T08:18:12.025Z</time></trkpt><trkpt lat="43.9434467" lon="12.2155717"><ele>365.0</ele><time>2026-04-25T08:18:13.024Z</time></trkpt><trkpt lat="43.94351" lon="12.2156033"><ele>365.00000000000006</ele><time>2026-04-25T08:18:14.025Z</time></trkpt><trkpt lat="43.9435733" lon="12.2156533"><ele>365.0</ele><time>2026-04-25T08:18:15.025Z</time></trkpt><trkpt lat="43.9436367" lon="12.2157017"><ele>365.0</ele><time>2026-04-25T08:18:16.025Z</time></trkpt><trkpt lat="43.9437033" lon="12.2157333"><ele>365.0</ele><time>2026-04-25T08:18:17.025Z</time></trkpt><trkpt lat="43.9437717" lon="12.2157467"><ele>365.0</ele><time>2026-04-25T08:18:18.025Z</time></trkpt><trkpt lat="43.9438417" lon="12.2157267"><ele>365.00000000000006</ele><time>2026-04-25T08:18:19.025Z</time></trkpt><trkpt lat="43.9439133" lon="12.2156883"><ele>365.0</ele><time>2026-04-25T08:18:20.025Z</time></trkpt><trkpt lat="43.9439883" lon="12.2156417"><ele>364.8571428571429</ele><time>2026-04-25T08:18:21.025Z</time></trkpt><trkpt lat="43.9440583" lon="12.2155933"><ele>364.7142857142857</ele><time>2026-04-25T08:18:22.025Z</time></trkpt><trkpt lat="43.944125" lon="12.2155467"><ele>364.57142857142856</ele><time>2026-04-25T08:18:23.025Z</time></trkpt><trkpt lat="43.9441833" lon="12.2154933"><ele>364.42857142857144</ele><time>2026-04-25T08:18:24.024Z</time></trkpt><trkpt lat="43.9442417" lon="12.2154383"><ele>364.2857142857143</ele><time>2026-04-25T08:18:25.024Z</time></trkpt><trkpt lat="43.9442983" lon="12.2153767"><ele>364.14285714285717</ele><time>2026-04-25T08:18:26.025Z</time></trkpt><trkpt lat="43.9443467" lon="12.2153017"><ele>364.0</ele><time>2026-04-25T08:18:27.025Z</time></trkpt><trkpt lat="43.9443883" lon="12.215215"><ele>362.8333333333333</ele><time>2026-04-25T08:18:28.024Z</time></trkpt><trkpt lat="43.94443" lon="12.2151167"><ele>361.66666666666663</ele><time>2026-04-25T08:18:29.025Z</time></trkpt><trkpt lat="43.944455" lon="12.21501"><ele>360.5</ele><time>2026-04-25T08:18:30.024Z</time></trkpt><trkpt lat="43.944475" lon="12.2149083"><ele>359.3333333333333</ele><time>2026-04-25T08:18:31.024Z</time></trkpt><trkpt lat="43.9444967" lon="12.21481"><ele>358.1666666666667</ele><time>2026-04-25T08:18:32.025Z</time></trkpt><trkpt lat="43.9445233" lon="12.2147133"><ele>357.0</ele><time>2026-04-25T08:18:33.024Z</time></trkpt><trkpt lat="43.9445483" lon="12.21462"><ele>356.57142857142856</ele><time>2026-04-25T08:18:34.025Z</time></trkpt><trkpt lat="43.9445783" lon="12.2145217"><ele>356.1428571428571</ele><time>2026-04-25T08:18:35.024Z</time></trkpt><trkpt lat="43.944605" lon="12.2144283"><ele>355.7142857142857</ele><time>2026-04-25T08:18:36.025Z</time></trkpt><trkpt lat="43.9446367" lon="12.2143367"><ele>355.2857142857143</ele><time>2026-04-25T08:18:37.025Z</time></trkpt><trkpt lat="43.9446767" lon="12.2142567"><ele>354.85714285714283</ele><time>2026-04-25T08:18:38.025Z</time></trkpt><trkpt lat="43.94472" lon="12.2141867"><ele>354.42857142857144</ele><time>2026-04-25T08:18:39.025Z</time></trkpt><trkpt lat="43.94478" lon="12.2141383"><ele>354.0</ele><time>2026-04-25T08:18:40.025Z</time></trkpt><trkpt lat="43.9448433" lon="12.2141233"><ele>354.0</ele><time>2026-04-25T08:18:41.025Z</time></trkpt><trkpt lat="43.9449133" lon="12.2141317"><ele>354.0</ele><time>2026-04-25T08:18:42.025Z</time></trkpt><trkpt lat="43.94498" lon="12.2141517"><ele>354.0</ele><time>2026-04-25T08:18:43.025Z</time></trkpt><trkpt lat="43.94505" lon="12.2141933"><ele>354.0</ele><time>2026-04-25T08:18:44.024Z</time></trkpt><trkpt lat="43.9451233" lon="12.2142417"><ele>354.0</ele><time>2026-04-25T08:18:45.025Z</time></trkpt><trkpt lat="43.9451967" lon="12.214295"><ele>354.0</ele><time>2026-04-25T08:18:46.024Z</time></trkpt><trkpt lat="43.9452667" lon="12.2143567"><ele>351.6666666666667</ele><time>2026-04-25T08:18:47.025Z</time></trkpt><trkpt lat="43.9453283" lon="12.2144283"><ele>349.3333333333333</ele><time>2026-04-25T08:18:48.025Z</time></trkpt><trkpt lat="43.9453933" lon="12.2144983"><ele>347.0</ele><time>2026-04-25T08:18:49.024Z</time></trkpt><trkpt lat="43.9454517" lon="12.2145567"><ele>344.66666666666663</ele><time>2026-04-25T08:18:50.025Z</time></trkpt><trkpt lat="43.9455083" lon="12.2146"><ele>342.3333333333333</ele><time>2026-04-25T08:18:51.025Z</time></trkpt><trkpt lat="43.9456133" lon="12.2146167"><ele>340.0</ele><time>2026-04-25T08:18:53.024Z</time></trkpt><trkpt lat="43.945695" lon="12.2145233"><ele>340.0</ele><time>2026-04-25T08:18:55.024Z</time></trkpt><trkpt lat="43.9457017" lon="12.214355"><ele>340.0</ele><time>2026-04-25T08:18:57.025Z</time></trkpt><trkpt lat="43.94568" lon="12.2142667"><ele>340.0</ele><time>2026-04-25T08:18:58.025Z</time></trkpt><trkpt lat="43.94567" lon="12.2141767"><ele>340.0</ele><time>2026-04-25T08:18:59.025Z</time></trkpt><trkpt lat="43.945685" lon="12.2140817"><ele>340.0</ele><time>2026-04-25T08:19:00.024Z</time></trkpt><trkpt lat="43.9457183" lon="12.214005"><ele>340.0</ele><time>2026-04-25T08:19:01.025Z</time></trkpt><trkpt lat="43.9457833" lon="12.2139467"><ele>338.16666666666663</ele><time>2026-04-25T08:19:02.024Z</time></trkpt><trkpt lat="43.9458567" lon="12.2139233"><ele>336.3333333333333</ele><time>2026-04-25T08:19:03.025Z</time></trkpt><trkpt lat="43.9459267" lon="12.2139317"><ele>334.5</ele><time>2026-04-25T08:19:04.024Z</time></trkpt><trkpt lat="43.9459917" lon="12.213945"><ele>332.6666666666667</ele><time>2026-04-25T08:19:05.024Z</time></trkpt><trkpt lat="43.946115" lon="12.2139683"><ele>330.83333333333337</ele><time>2026-04-25T08:19:07.025Z</time></trkpt><trkpt lat="43.9461783" lon="12.2139733"><ele>329.0</ele><time>2026-04-25T08:19:08.024Z</time></trkpt><trkpt lat="43.9462433" lon="12.213975"><ele>329.0</ele><time>2026-04-25T08:19:09.024Z</time></trkpt><trkpt lat="43.9463617" lon="12.2139783"><ele>329.0</ele><time>2026-04-25T08:19:11.024Z</time></trkpt><trkpt lat="43.9464783" lon="12.2139867"><ele>329.0</ele><time>2026-04-25T08:19:13.024Z</time></trkpt><trkpt lat="43.94658" lon="12.2139833"><ele>329.0</ele><time>2026-04-25T08:19:15.025Z</time></trkpt><trkpt lat="43.946665" lon="12.213985"><ele>329.0</ele><time>2026-04-25T08:19:17.025Z</time></trkpt><trkpt lat="43.9467317" lon="12.21397"><ele>328.5</ele><time>2026-04-25T08:19:19.025Z</time></trkpt><trkpt lat="43.9467967" lon="12.2140067"><ele>328.0</ele><time>2026-04-25T08:19:22.025Z</time></trkpt><trkpt lat="43.94681" lon="12.21411"><ele>327.5</ele><time>2026-04-25T08:19:24.025Z</time></trkpt><trkpt lat="43.9468367" lon="12.2142317"><ele>327.0</ele><time>2026-04-25T08:19:26.025Z</time></trkpt><trkpt lat="43.9468583" lon="12.2143417"><ele>326.5</ele><time>2026-04-25T08:19:28.025Z</time></trkpt><trkpt lat="43.94688" lon="12.2144583"><ele>326.0</ele><time>2026-04-25T08:19:31.025Z</time></trkpt><trkpt lat="43.946905" lon="12.21457"><ele>326.0</ele><time>2026-04-25T08:19:34.024Z</time></trkpt><trkpt lat="43.9469317" lon="12.214655"><ele>326.0</ele><time>2026-04-25T08:19:36.024Z</time></trkpt><trkpt lat="43.9469517" lon="12.2147417"><ele>326.0</ele><time>2026-04-25T08:19:38.024Z</time></trkpt><trkpt lat="43.946975" lon="12.2148367"><ele>326.0</ele><time>2026-04-25T08:19:40.024Z</time></trkpt><trkpt lat="43.947005" lon="12.2149567"><ele>326.0</ele><time>2026-04-25T08:19:42.025Z</time></trkpt><trkpt lat="43.9470433" lon="12.2151083"><ele>326.0</ele><time>2026-04-25T08:19:44.025Z</time></trkpt><trkpt lat="43.9470667" lon="12.21527"><ele>326.20000000000005</ele><time>2026-04-25T08:19:46.025Z</time></trkpt><trkpt lat="43.9470917" lon="12.2154217"><ele>326.40000000000003</ele><time>2026-04-25T08:19:48.025Z</time></trkpt><trkpt lat="43.947115" lon="12.2155483"><ele>326.6</ele><time>2026-04-25T08:19:50.025Z</time></trkpt><trkpt lat="43.9471383" lon="12.21568"><ele>326.8</ele><time>2026-04-25T08:19:52.024Z</time></trkpt><trkpt lat="43.9471517" lon="12.2157917"><ele>327.0</ele><time>2026-04-25T08:19:54.024Z</time></trkpt><trkpt lat="43.9471433" lon="12.2159"><ele>327.42857142857144</ele><time>2026-04-25T08:19:56.025Z</time></trkpt><trkpt lat="43.9471183" lon="12.21599"><ele>327.8571428571429</ele><time>2026-04-25T08:19:58.024Z</time></trkpt><trkpt lat="43.947075" lon="12.2160617"><ele>328.28571428571433</ele><time>2026-04-25T08:20:00.025Z</time></trkpt><trkpt lat="43.9470217" lon="12.2161133"><ele>328.7142857142857</ele><time>2026-04-25T08:20:02.024Z</time></trkpt><trkpt lat="43.9469433" lon="12.2161717"><ele>329.14285714285717</ele><time>2026-04-25T08:20:05.025Z</time></trkpt><trkpt lat="43.946885" lon="12.2162217"><ele>329.5714285714286</ele><time>2026-04-25T08:20:08.025Z</time></trkpt><trkpt lat="43.946825" lon="12.2162783"><ele>330.0</ele><time>2026-04-25T08:20:11.025Z</time></trkpt><trkpt lat="43.9468083" lon="12.2163717"><ele>330.0</ele><time>2026-04-25T08:20:14.025Z</time></trkpt><trkpt lat="43.946835" lon="12.2164533"><ele>330.0</ele><time>2026-04-25T08:20:17.025Z</time></trkpt><trkpt lat="43.9468883" lon="12.2165467"><ele>330.0</ele><time>2026-04-25T08:20:20.024Z</time></trkpt><trkpt lat="43.9469317" lon="12.2166133"><ele>330.0</ele><time>2026-04-25T08:20:22.024Z</time></trkpt><trkpt lat="43.9469933" lon="12.216715"><ele>330.0</ele><time>2026-04-25T08:20:25.025Z</time></trkpt><trkpt lat="43.9470483" lon="12.2167933"><ele>330.0</ele><time>2026-04-25T08:20:28.025Z</time></trkpt><trkpt lat="43.9471017" lon="12.216865"><ele>330.8571428571429</ele><time>2026-04-25T08:20:31.025Z</time></trkpt><trkpt lat="43.9471367" lon="12.2169383"><ele>331.7142857142857</ele><time>2026-04-25T08:20:34.025Z</time></trkpt><trkpt lat="43.9471767" lon="12.2170067"><ele>332.57142857142856</ele><time>2026-04-25T08:20:37.025Z</time></trkpt><trkpt lat="43.9472167" lon="12.2170817"><ele>333.42857142857144</ele><time>2026-04-25T08:20:40.025Z</time></trkpt><trkpt lat="43.9472717" lon="12.2171617"><ele>334.2857142857143</ele><time>2026-04-25T08:20:44.025Z</time></trkpt><trkpt lat="43.947315" lon="12.21725"><ele>335.14285714285717</ele><time>2026-04-25T08:20:48.024Z</time></trkpt><trkpt lat="43.9473617" lon="12.217335"><ele>336.0</ele><time>2026-04-25T08:20:52.024Z</time></trkpt><trkpt lat="43.9474067" lon="12.2174267"><ele>336.85714285714283</ele><time>2026-04-25T08:20:56.025Z</time></trkpt><trkpt lat="43.9474517" lon="12.2175167"><ele>337.7142857142857</ele><time>2026-04-25T08:21:00.025Z</time></trkpt><trkpt lat="43.9474983" lon="12.2175983"><ele>338.57142857142856</ele><time>2026-04-25T08:21:04.024Z</time></trkpt><trkpt lat="43.9475017" lon="12.2176883"><ele>339.42857142857144</ele><time>2026-04-25T08:21:08.025Z</time></trkpt><trkpt lat="43.9474533" lon="12.2177567"><ele>340.2857142857143</ele><time>2026-04-25T08:21:12.024Z</time></trkpt><trkpt lat="43.9473783" lon="12.2177883"><ele>341.1428571428571</ele><time>2026-04-25T08:21:16.024Z</time></trkpt><trkpt lat="43.94731" lon="12.2178"><ele>342.0</ele><time>2026-04-25T08:21:19.024Z</time></trkpt><trkpt lat="43.9472267" lon="12.2178367"><ele>341.99999999999994</ele><time>2026-04-25T08:21:22.025Z</time></trkpt><trkpt lat="43.9471517" lon="12.217875"><ele>342.0</ele><time>2026-04-25T08:21:25.025Z</time></trkpt><trkpt lat="43.947095" lon="12.2179317"><ele>342.0</ele><time>2026-04-25T08:21:28.025Z</time></trkpt><trkpt lat="43.9470467" lon="12.2179917"><ele>342.0</ele><time>2026-04-25T08:21:31.025Z</time></trkpt><trkpt lat="43.947" lon="12.218065"><ele>342.0</ele><time>2026-04-25T08:21:34.025Z</time></trkpt><trkpt lat="43.9469467" lon="12.2181517"><ele>341.99999999999994</ele><time>2026-04-25T08:21:37.025Z</time></trkpt><trkpt lat="43.9468917" lon="12.2182283"><ele>342.0</ele><time>2026-04-25T08:21:40.025Z</time></trkpt><trkpt lat="43.9468367" lon="12.218315"><ele>343.4285714285714</ele><time>2026-04-25T08:21:44.025Z</time></trkpt><trkpt lat="43.9467917" lon="12.21838"><ele>344.85714285714283</ele><time>2026-04-25T08:21:47.024Z</time></trkpt><trkpt lat="43.9467433" lon="12.218455"><ele>346.2857142857143</ele><time>2026-04-25T08:21:50.024Z</time></trkpt><trkpt lat="43.94669" lon="12.2185417"><ele>347.71428571428567</ele><time>2026-04-25T08:21:54.025Z</time></trkpt><trkpt lat="43.946645" lon="12.2186217"><ele>349.1428571428571</ele><time>2026-04-25T08:21:57.024Z</time></trkpt><trkpt lat="43.9465967" lon="12.2187"><ele>350.57142857142856</ele><time>2026-04-25T08:22:00.025Z</time></trkpt><trkpt lat="43.9465583" lon="12.2187833"><ele>352.0</ele><time>2026-04-25T08:22:03.024Z</time></trkpt><trkpt lat="43.946525" lon="12.218865"><ele>352.0</ele><time>2026-04-25T08:22:06.024Z</time></trkpt><trkpt lat="43.9464867" lon="12.2189567"><ele>352.0</ele><time>2026-04-25T08:22:10.025Z</time></trkpt><trkpt lat="43.946445" lon="12.2190533"><ele>352.0</ele><time>2026-04-25T08:22:14.025Z</time></trkpt><trkpt lat="43.9464083" lon="12.2191267"><ele>352.0</ele><time>2026-04-25T08:22:17.025Z</time></trkpt><trkpt lat="43.9463683" lon="12.21922"><ele>352.0</ele><time>2026-04-25T08:22:21.024Z</time></trkpt><trkpt lat="43.9463317" lon="12.219305"><ele>352.0</ele><time>2026-04-25T08:22:25.025Z</time></trkpt><trkpt lat="43.946285" lon="12.2193917"><ele>352.0</ele><time>2026-04-25T08:22:29.024Z</time></trkpt><trkpt lat="43.9462617" lon="12.2194783"><ele>353.66666666666663</ele><time>2026-04-25T08:22:32.025Z</time></trkpt><trkpt lat="43.9462467" lon="12.219565"><ele>355.3333333333333</ele><time>2026-04-25T08:22:35.024Z</time></trkpt><trkpt lat="43.94624" lon="12.2196583"><ele>357.0</ele><time>2026-04-25T08:22:38.025Z</time></trkpt><trkpt lat="43.9462483" lon="12.2197483"><ele>358.6666666666667</ele><time>2026-04-25T08:22:41.024Z</time></trkpt><trkpt lat="43.94626" lon="12.219835"><ele>360.33333333333337</ele><time>2026-04-25T08:22:45.025Z</time></trkpt><trkpt lat="43.9462717" lon="12.2199233"><ele>362.0</ele><time>2026-04-25T08:22:53.025Z</time></trkpt><trkpt lat="43.9462967" lon="12.2201117"><ele>365.0</ele><time>2026-04-25T08:23:12.025Z</time></trkpt><trkpt lat="43.9463167" lon="12.2201967"><ele>368.0</ele><time>2026-04-25T08:23:18.025Z</time></trkpt><trkpt lat="43.9463933" lon="12.2202417"><ele>371.0</ele><time>2026-04-25T08:23:27.025Z</time></trkpt><trkpt lat="43.946515" lon="12.220165"><ele>374.0</ele><time>2026-04-25T08:23:41.025Z</time></trkpt><trkpt lat="43.946565" lon="12.2201017"><ele>377.0</ele><time>2026-04-25T08:23:48.024Z</time></trkpt><trkpt lat="43.946625" lon="12.2200467"><ele>380.0</ele><time>2026-04-25T08:23:56.024Z</time></trkpt><trkpt lat="43.946685" lon="12.2200083"><ele>381.2</ele><time>2026-04-25T08:24:02.023Z</time></trkpt><trkpt lat="43.9467433" lon="12.2199733"><ele>382.4</ele><time>2026-04-25T08:24:09.024Z</time></trkpt><trkpt lat="43.9468117" lon="12.21994"><ele>383.6</ele><time>2026-04-25T08:24:16.024Z</time></trkpt><trkpt lat="43.9468817" lon="12.2199217"><ele>384.8</ele><time>2026-04-25T08:24:24.024Z</time></trkpt><trkpt lat="43.946925" lon="12.2201017"><ele>386.0</ele><time>2026-04-25T08:24:42.024Z</time></trkpt><trkpt lat="43.94691" lon="12.22028"><ele>385.99999999999994</ele><time>2026-04-25T08:24:56.024Z</time></trkpt><trkpt lat="43.9469267" lon="12.2204517"><ele>386.0</ele><time>2026-04-25T08:25:14.023Z</time></trkpt><trkpt lat="43.9469417" lon="12.2205483"><ele>386.0</ele><time>2026-04-25T08:25:21.024Z</time></trkpt><trkpt lat="43.9469967" lon="12.220615"><ele>386.0</ele><time>2026-04-25T08:25:29.023Z</time></trkpt><trkpt lat="43.947065" lon="12.220635"><ele>385.99999999999994</ele><time>2026-04-25T08:25:37.023Z</time></trkpt><trkpt lat="43.9471267" lon="12.2205433"><ele>386.0</ele><time>2026-04-25T08:25:49.024Z</time></trkpt><trkpt lat="43.94715" lon="12.2204533"><ele>386.00000000000006</ele><time>2026-04-25T08:25:54.024Z</time></trkpt><trkpt lat="43.9471817" lon="12.2203767"><ele>386.0</ele><time>2026-04-25T08:25:57.023Z</time></trkpt><trkpt lat="43.9472283" lon="12.2203083"><ele>386.0</ele><time>2026-04-25T08:26:01.024Z</time></trkpt><trkpt lat="43.9473" lon="12.220285"><ele>386.0</ele><time>2026-04-25T08:26:05.023Z</time></trkpt><trkpt lat="43.9473717" lon="12.2203167"><ele>386.0</ele><time>2026-04-25T08:26:09.023Z</time></trkpt><trkpt lat="43.9474333" lon="12.22039"><ele>386.00000000000006</ele><time>2026-04-25T08:26:13.024Z</time></trkpt><trkpt lat="43.947475" lon="12.2204717"><ele>386.0</ele><time>2026-04-25T08:26:17.023Z</time></trkpt><trkpt lat="43.9475133" lon="12.2205617"><ele>386.00000000000006</ele><time>2026-04-25T08:26:21.024Z</time></trkpt><trkpt lat="43.9475567" lon="12.2206383"><ele>386.0</ele><time>2026-04-25T08:26:25.024Z</time></trkpt><trkpt lat="43.9475867" lon="12.2207283"><ele>386.0</ele><time>2026-04-25T08:26:29.024Z</time></trkpt><trkpt lat="43.9475767" lon="12.2208333"><ele>386.0</ele><time>2026-04-25T08:29:10.023Z</time></trkpt><trkpt lat="43.9475783" lon="12.220725"><ele>386.0</ele><time>2026-04-25T08:29:15.024Z</time></trkpt><trkpt lat="43.94756" lon="12.2206233"><ele>386.00000000000006</ele><time>2026-04-25T08:29:19.024Z</time></trkpt><trkpt lat="43.947525" lon="12.2205383"><ele>386.0</ele><time>2026-04-25T08:29:23.023Z</time></trkpt><trkpt lat="43.9474883" lon="12.2204667"><ele>385.99999999999994</ele><time>2026-04-25T08:29:26.023Z</time></trkpt><trkpt lat="43.9474467" lon="12.2204"><ele>386.0</ele><time>2026-04-25T08:29:29.024Z</time></trkpt><trkpt lat="43.9473833" lon="12.2203483"><ele>386.0</ele><time>2026-04-25T08:29:32.023Z</time></trkpt><trkpt lat="43.94732" lon="12.2203133"><ele>386.0</ele><time>2026-04-25T08:29:35.024Z</time></trkpt><trkpt lat="43.9472433" lon="12.22033"><ele>385.99999999999994</ele><time>2026-04-25T08:29:38.023Z</time></trkpt><trkpt lat="43.947175" lon="12.2204067"><ele>386.0</ele><time>2026-04-25T08:29:41.024Z</time></trkpt><trkpt lat="43.9471483" lon="12.2205167"><ele>386.00000000000006</ele><time>2026-04-25T08:29:44.023Z</time></trkpt><trkpt lat="43.94711" lon="12.2206067"><ele>386.0</ele><time>2026-04-25T08:29:48.023Z</time></trkpt><trkpt lat="43.9470467" lon="12.2206383"><ele>386.0</ele><time>2026-04-25T08:29:51.024Z</time></trkpt><trkpt lat="43.9469683" lon="12.220625"><ele>386.0</ele><time>2026-04-25T08:29:55.023Z</time></trkpt><trkpt lat="43.946925" lon="12.22056"><ele>386.0</ele><time>2026-04-25T08:29:58.023Z</time></trkpt><trkpt lat="43.9469083" lon="12.2204717"><ele>386.00000000000006</ele><time>2026-04-25T08:30:01.024Z</time></trkpt><trkpt lat="43.9469067" lon="12.2203583"><ele>386.0</ele><time>2026-04-25T08:30:05.023Z</time></trkpt><trkpt lat="43.9469233" lon="12.2202517"><ele>386.00000000000006</ele><time>2026-04-25T08:30:09.024Z</time></trkpt><trkpt lat="43.94694" lon="12.2201517"><ele>386.0</ele><time>2026-04-25T08:30:13.024Z</time></trkpt><trkpt lat="43.9469217" lon="12.2200583"><ele>386.0</ele><time>2026-04-25T08:30:17.024Z</time></trkpt><trkpt lat="43.9468583" lon="12.2200233"><ele>386.0</ele><time>2026-04-25T08:30:21.023Z</time></trkpt><trkpt lat="43.946795" lon="12.2200383"><ele>386.0</ele><time>2026-04-25T08:30:24.023Z</time></trkpt><trkpt lat="43.9467117" lon="12.2200733"><ele>386.00000000000006</ele><time>2026-04-25T08:30:27.024Z</time></trkpt><trkpt lat="43.946635" lon="12.2201167"><ele>386.0</ele><time>2026-04-25T08:30:29.024Z</time></trkpt><trkpt lat="43.946575" lon="12.22016"><ele>385.14285714285717</ele><time>2026-04-25T08:30:31.024Z</time></trkpt><trkpt lat="43.9465033" lon="12.2202"><ele>384.2857142857143</ele><time>2026-04-25T08:30:34.024Z</time></trkpt><trkpt lat="43.9464267" lon="12.22023"><ele>383.42857142857144</ele><time>2026-04-25T08:30:37.024Z</time></trkpt><trkpt lat="43.9463583" lon="12.2202283"><ele>382.57142857142856</ele><time>2026-04-25T08:30:40.023Z</time></trkpt><trkpt lat="43.9463067" lon="12.22015"><ele>381.7142857142857</ele><time>2026-04-25T08:30:44.023Z</time></trkpt><trkpt lat="43.9462883" lon="12.2200467"><ele>380.8571428571429</ele><time>2026-04-25T08:30:48.023Z</time></trkpt><trkpt lat="43.9462767" lon="12.2199533"><ele>380.0</ele><time>2026-04-25T08:30:51.023Z</time></trkpt><trkpt lat="43.94627" lon="12.2198417"><ele>377.0</ele><time>2026-04-25T08:30:54.022Z</time></trkpt><trkpt lat="43.946255" lon="12.21972"><ele>374.0</ele><time>2026-04-25T08:30:57.023Z</time></trkpt><trkpt lat="43.9462517" lon="12.219585"><ele>371.0</ele><time>2026-04-25T08:31:00.023Z</time></trkpt><trkpt lat="43.9462683" lon="12.2194833"><ele>368.0</ele><time>2026-04-25T08:31:02.022Z</time></trkpt><trkpt lat="43.94629" lon="12.2194"><ele>365.0</ele><time>2026-04-25T08:31:04.022Z</time></trkpt><trkpt lat="43.9463283" lon="12.2192967"><ele>362.0</ele><time>2026-04-25T08:31:07.023Z</time></trkpt><trkpt lat="43.9463717" lon="12.2191983"><ele>362.0</ele><time>2026-04-25T08:31:10.022Z</time></trkpt><trkpt lat="43.946415" lon="12.2190933"><ele>362.0</ele><time>2026-04-25T08:31:13.023Z</time></trkpt><trkpt lat="43.94646" lon="12.2189883"><ele>362.0</ele><time>2026-04-25T08:31:16.023Z</time></trkpt><trkpt lat="43.9465083" lon="12.218885"><ele>362.0</ele><time>2026-04-25T08:31:19.023Z</time></trkpt><trkpt lat="43.9465533" lon="12.2187683"><ele>362.0</ele><time>2026-04-25T08:31:22.022Z</time></trkpt><trkpt lat="43.9466033" lon="12.2186733"><ele>362.0</ele><time>2026-04-25T08:31:24.023Z</time></trkpt><trkpt lat="43.946665" lon="12.2185667"><ele>360.6666666666667</ele><time>2026-04-25T08:31:26.022Z</time></trkpt><trkpt lat="43.9467433" lon="12.21844"><ele>359.33333333333337</ele><time>2026-04-25T08:31:28.023Z</time></trkpt><trkpt lat="43.94679" lon="12.2183683"><ele>358.0</ele><time>2026-04-25T08:31:29.022Z</time></trkpt><trkpt lat="43.946835" lon="12.2182933"><ele>356.6666666666667</ele><time>2026-04-25T08:31:30.023Z</time></trkpt><trkpt lat="43.9468817" lon="12.21822"><ele>355.3333333333333</ele><time>2026-04-25T08:31:31.023Z</time></trkpt><trkpt lat="43.946925" lon="12.2181533"><ele>354.0</ele><time>2026-04-25T08:31:32.022Z</time></trkpt><trkpt lat="43.9469733" lon="12.21809"><ele>351.6</ele><time>2026-04-25T08:31:33.022Z</time></trkpt><trkpt lat="43.9470683" lon="12.2179583"><ele>349.2</ele><time>2026-04-25T08:31:35.022Z</time></trkpt><trkpt lat="43.9471217" lon="12.2179067"><ele>346.8</ele><time>2026-04-25T08:31:36.022Z</time></trkpt><trkpt lat="43.94723" lon="12.21783"><ele>344.40000000000003</ele><time>2026-04-25T08:31:38.022Z</time></trkpt><trkpt lat="43.9473333" lon="12.217785"><ele>342.0</ele><time>2026-04-25T08:31:40.023Z</time></trkpt><trkpt lat="43.94741" lon="12.2177483"><ele>342.0</ele><time>2026-04-25T08:31:42.022Z</time></trkpt><trkpt lat="43.9474833" lon="12.2176867"><ele>342.0</ele><time>2026-04-25T08:31:45.022Z</time></trkpt><trkpt lat="43.9474767" lon="12.2175783"><ele>342.0</ele><time>2026-04-25T08:31:48.022Z</time></trkpt><trkpt lat="43.9474417" lon="12.2174983"><ele>342.0</ele><time>2026-04-25T08:31:50.023Z</time></trkpt><trkpt lat="43.9473967" lon="12.2174133"><ele>342.0</ele><time>2026-04-25T08:31:52.022Z</time></trkpt><trkpt lat="43.94735" lon="12.2173283"><ele>342.0</ele><time>2026-04-25T08:31:54.023Z</time></trkpt><trkpt lat="43.947305" lon="12.217255"><ele>341.0</ele><time>2026-04-25T08:31:56.022Z</time></trkpt><trkpt lat="43.9472567" lon="12.2171583"><ele>340.0</ele><time>2026-04-25T08:31:58.023Z</time></trkpt><trkpt lat="43.947205" lon="12.21707"><ele>339.0</ele><time>2026-04-25T08:32:00.022Z</time></trkpt><trkpt lat="43.947155" lon="12.2169817"><ele>338.0</ele><time>2026-04-25T08:32:02.023Z</time></trkpt><trkpt lat="43.9470967" lon="12.2168883"><ele>337.0</ele><time>2026-04-25T08:32:04.022Z</time></trkpt><trkpt lat="43.9470467" lon="12.216805"><ele>336.0</ele><time>2026-04-25T08:32:06.022Z</time></trkpt><trkpt lat="43.9469867" lon="12.21671"><ele>336.0</ele><time>2026-04-25T08:32:08.023Z</time></trkpt><trkpt lat="43.9469317" lon="12.2166167"><ele>336.0</ele><time>2026-04-25T08:32:10.023Z</time></trkpt><trkpt lat="43.9468783" lon="12.2165283"><ele>336.0</ele><time>2026-04-25T08:32:12.022Z</time></trkpt><trkpt lat="43.9468367" lon="12.216435"><ele>336.0</ele><time>2026-04-25T08:32:14.023Z</time></trkpt><trkpt lat="43.9468217" lon="12.2163367"><ele>336.0</ele><time>2026-04-25T08:32:16.022Z</time></trkpt><trkpt lat="43.9468467" lon="12.21625"><ele>336.0</ele><time>2026-04-25T08:32:18.022Z</time></trkpt><trkpt lat="43.9469133" lon="12.2162"><ele>334.8</ele><time>2026-04-25T08:32:20.023Z</time></trkpt><trkpt lat="43.9469933" lon="12.2161433"><ele>333.6</ele><time>2026-04-25T08:32:22.023Z</time></trkpt><trkpt lat="43.9470783" lon="12.216065"><ele>332.4</ele><time>2026-04-25T08:32:24.022Z</time></trkpt><trkpt lat="43.9471417" lon="12.2159567"><ele>331.2</ele><time>2026-04-25T08:32:26.022Z</time></trkpt><trkpt lat="43.9471617" lon="12.2158283"><ele>330.0</ele><time>2026-04-25T08:32:28.023Z</time></trkpt><trkpt lat="43.9471517" lon="12.2157"><ele>329.5</ele><time>2026-04-25T08:32:30.023Z</time></trkpt><trkpt lat="43.9471367" lon="12.2155717"><ele>329.0</ele><time>2026-04-25T08:32:32.023Z</time></trkpt><trkpt lat="43.9471317" lon="12.2154567"><ele>328.5</ele><time>2026-04-25T08:32:34.022Z</time></trkpt><trkpt lat="43.947105" lon="12.2153483"><ele>328.0</ele><time>2026-04-25T08:32:36.023Z</time></trkpt><trkpt lat="43.9470817" lon="12.2152433"><ele>327.5</ele><time>2026-04-25T08:32:38.023Z</time></trkpt><trkpt lat="43.94706" lon="12.215155"><ele>327.0</ele><time>2026-04-25T08:32:40.023Z</time></trkpt><trkpt lat="43.9470333" lon="12.215045"><ele>327.0</ele><time>2026-04-25T08:32:43.023Z</time></trkpt><trkpt lat="43.9470133" lon="12.2149617"><ele>327.0</ele><time>2026-04-25T08:32:46.023Z</time></trkpt><trkpt lat="43.9469967" lon="12.21487"><ele>327.0</ele><time>2026-04-25T08:32:49.023Z</time></trkpt><trkpt lat="43.9469783" lon="12.2147783"><ele>327.0</ele><time>2026-04-25T08:32:52.022Z</time></trkpt><trkpt lat="43.9469583" lon="12.214695"><ele>327.0</ele><time>2026-04-25T08:32:55.023Z</time></trkpt><trkpt lat="43.9469333" lon="12.21461"><ele>327.0</ele><time>2026-04-25T08:32:58.023Z</time></trkpt><trkpt lat="43.9469133" lon="12.2144967"><ele>327.0</ele><time>2026-04-25T08:33:01.023Z</time></trkpt><trkpt lat="43.9468933" lon="12.2144033"><ele>326.8333333333333</ele><time>2026-04-25T08:33:03.022Z</time></trkpt><trkpt lat="43.9468717" lon="12.2143033"><ele>326.6666666666667</ele><time>2026-04-25T08:33:05.022Z</time></trkpt><trkpt lat="43.9468567" lon="12.2141967"><ele>326.5</ele><time>2026-04-25T08:33:07.023Z</time></trkpt><trkpt lat="43.9468417" lon="12.214085"><ele>326.33333333333337</ele><time>2026-04-25T08:33:09.023Z</time></trkpt><trkpt lat="43.9468317" lon="12.2139733"><ele>326.1666666666667</ele><time>2026-04-25T08:33:12.023Z</time></trkpt><trkpt lat="43.9468867" lon="12.213855"><ele>326.0</ele><time>2026-04-25T08:33:15.022Z</time></trkpt><trkpt lat="43.9469433" lon="12.2137483"><ele>325.5</ele><time>2026-04-25T08:33:17.023Z</time></trkpt><trkpt lat="43.9469833" lon="12.2135867"><ele>325.0</ele><time>2026-04-25T08:33:19.023Z</time></trkpt><trkpt lat="43.946995" lon="12.21349"><ele>324.5</ele><time>2026-04-25T08:33:20.023Z</time></trkpt><trkpt lat="43.947005" lon="12.2133817"><ele>324.0</ele><time>2026-04-25T08:33:21.023Z</time></trkpt><trkpt lat="43.94702" lon="12.2132633"><ele>323.5</ele><time>2026-04-25T08:33:22.023Z</time></trkpt><trkpt lat="43.9470483" lon="12.213145"><ele>323.0</ele><time>2026-04-25T08:33:23.022Z</time></trkpt><trkpt lat="43.94709" lon="12.2130117"><ele>322.59999999999997</ele><time>2026-04-25T08:33:24.023Z</time></trkpt><trkpt lat="43.9471483" lon="12.2128967"><ele>322.2</ele><time>2026-04-25T08:33:25.022Z</time></trkpt><trkpt lat="43.94722" lon="12.212785"><ele>321.8</ele><time>2026-04-25T08:33:26.022Z</time></trkpt><trkpt lat="43.9473" lon="12.212675"><ele>321.4</ele><time>2026-04-25T08:33:27.022Z</time></trkpt><trkpt lat="43.9473817" lon="12.2125683"><ele>321.0</ele><time>2026-04-25T08:33:28.023Z</time></trkpt><trkpt lat="43.9474633" lon="12.2124583"><ele>321.0</ele><time>2026-04-25T08:33:29.023Z</time></trkpt><trkpt lat="43.9475433" lon="12.2123517"><ele>321.0</ele><time>2026-04-25T08:33:30.023Z</time></trkpt><trkpt lat="43.9476283" lon="12.2122367"><ele>321.0</ele><time>2026-04-25T08:33:31.022Z</time></trkpt><trkpt lat="43.9477183" lon="12.212125"><ele>321.0</ele><time>2026-04-25T08:33:32.022Z</time></trkpt><trkpt lat="43.94781" lon="12.21203"><ele>319.0</ele><time>2026-04-25T08:33:33.022Z</time></trkpt><trkpt lat="43.947905" lon="12.211955"><ele>317.0</ele><time>2026-04-25T08:33:34.023Z</time></trkpt><trkpt lat="43.9479983" lon="12.211885"><ele>315.0</ele><time>2026-04-25T08:33:35.023Z</time></trkpt><trkpt lat="43.9480917" lon="12.211805"><ele>313.0</ele><time>2026-04-25T08:33:36.022Z</time></trkpt><trkpt lat="43.94818" lon="12.21171"><ele>311.0</ele><time>2026-04-25T08:33:37.022Z</time></trkpt><trkpt lat="43.9482733" lon="12.2115933"><ele>310.0</ele><time>2026-04-25T08:33:38.023Z</time></trkpt><trkpt lat="43.9483633" lon="12.2114683"><ele>309.0</ele><time>2026-04-25T08:33:39.023Z</time></trkpt><trkpt lat="43.948455" lon="12.21134"><ele>308.0</ele><time>2026-04-25T08:33:40.023Z</time></trkpt><trkpt lat="43.9485567" lon="12.2112267"><ele>307.0</ele><time>2026-04-25T08:33:41.022Z</time></trkpt><trkpt lat="43.9486533" lon="12.2111133"><ele>306.5</ele><time>2026-04-25T08:33:42.023Z</time></trkpt><trkpt lat="43.9487467" lon="12.2109967"><ele>306.0</ele><time>2026-04-25T08:33:43.023Z</time></trkpt><trkpt lat="43.9488333" lon="12.2108567"><ele>305.5</ele><time>2026-04-25T08:33:44.023Z</time></trkpt><trkpt lat="43.9489183" lon="12.2107167"><ele>305.0</ele><time>2026-04-25T08:33:45.023Z</time></trkpt><trkpt lat="43.949" lon="12.21057"><ele>304.5</ele><time>2026-04-25T08:33:46.023Z</time></trkpt><trkpt lat="43.9490833" lon="12.210425"><ele>304.0</ele><time>2026-04-25T08:33:47.022Z</time></trkpt><trkpt lat="43.94917" lon="12.2102817"><ele>303.5</ele><time>2026-04-25T08:33:48.022Z</time></trkpt><trkpt lat="43.9492567" lon="12.2101483"><ele>303.0</ele><time>2026-04-25T08:33:49.023Z</time></trkpt><trkpt lat="43.9493483" lon="12.210025"><ele>300.8</ele><time>2026-04-25T08:33:50.022Z</time></trkpt><trkpt lat="43.9494283" lon="12.2099133"><ele>298.6</ele><time>2026-04-25T08:33:51.023Z</time></trkpt><trkpt lat="43.9495033" lon="12.2098133"><ele>296.4</ele><time>2026-04-25T08:33:52.023Z</time></trkpt><trkpt lat="43.9495583" lon="12.2097"><ele>294.2</ele><time>2026-04-25T08:33:53.023Z</time></trkpt><trkpt lat="43.9495917" lon="12.20957"><ele>292.0</ele><time>2026-04-25T08:33:54.022Z</time></trkpt><trkpt lat="43.9495983" lon="12.20943"><ele>292.0</ele><time>2026-04-25T08:33:55.023Z</time></trkpt><trkpt lat="43.949595" lon="12.2092917"><ele>292.0</ele><time>2026-04-25T08:33:56.022Z</time></trkpt><trkpt lat="43.9496" lon="12.20916"><ele>292.0</ele><time>2026-04-25T08:33:57.022Z</time></trkpt><trkpt lat="43.9496133" lon="12.20903"><ele>292.0</ele><time>2026-04-25T08:33:58.023Z</time></trkpt><trkpt lat="43.9496417" lon="12.208905"><ele>292.0</ele><time>2026-04-25T08:33:59.023Z</time></trkpt><trkpt lat="43.9497" lon="12.208795"><ele>292.2</ele><time>2026-04-25T08:34:00.022Z</time></trkpt><trkpt lat="43.9497783" lon="12.208715"><ele>292.4</ele><time>2026-04-25T08:34:01.023Z</time></trkpt><trkpt lat="43.9498633" lon="12.2086667"><ele>292.6</ele><time>2026-04-25T08:34:02.023Z</time></trkpt><trkpt lat="43.9499583" lon="12.208635"><ele>292.8</ele><time>2026-04-25T08:34:03.023Z</time></trkpt><trkpt lat="43.9500583" lon="12.2086017"><ele>293.0</ele><time>2026-04-25T08:34:04.022Z</time></trkpt><trkpt lat="43.9501583" lon="12.208575"><ele>291.6</ele><time>2026-04-25T08:34:05.022Z</time></trkpt><trkpt lat="43.9502633" lon="12.20854"><ele>290.20000000000005</ele><time>2026-04-25T08:34:06.022Z</time></trkpt><trkpt lat="43.9503717" lon="12.2085033"><ele>288.8</ele><time>2026-04-25T08:34:07.023Z</time></trkpt><trkpt lat="43.9504767" lon="12.2084533"><ele>287.40000000000003</ele><time>2026-04-25T08:34:08.022Z</time></trkpt><trkpt lat="43.9505817" lon="12.208405"><ele>286.0</ele><time>2026-04-25T08:34:09.023Z</time></trkpt><trkpt lat="43.9506867" lon="12.2083617"><ele>286.0</ele><time>2026-04-25T08:34:10.023Z</time></trkpt><trkpt lat="43.9507883" lon="12.20831"><ele>286.0</ele><time>2026-04-25T08:34:11.022Z</time></trkpt><trkpt lat="43.950895" lon="12.2082567"><ele>286.0</ele><time>2026-04-25T08:34:12.023Z</time></trkpt><trkpt lat="43.951005" lon="12.2082067"><ele>286.0</ele><time>2026-04-25T08:34:13.023Z</time></trkpt><trkpt lat="43.9511167" lon="12.2081517"><ele>283.40000000000003</ele><time>2026-04-25T08:34:14.023Z</time></trkpt><trkpt lat="43.9512183" lon="12.20809"><ele>280.8</ele><time>2026-04-25T08:34:15.023Z</time></trkpt><trkpt lat="43.9513133" lon="12.2080333"><ele>278.20000000000005</ele><time>2026-04-25T08:34:16.023Z</time></trkpt><trkpt lat="43.9514083" lon="12.2080067"><ele>275.6</ele><time>2026-04-25T08:34:17.022Z</time></trkpt><trkpt lat="43.951505" lon="12.2080033"><ele>273.0</ele><time>2026-04-25T08:34:18.022Z</time></trkpt><trkpt lat="43.951605" lon="12.2080283"><ele>273.0</ele><time>2026-04-25T08:34:19.023Z</time></trkpt><trkpt lat="43.9516867" lon="12.2080733"><ele>273.0</ele><time>2026-04-25T08:34:20.022Z</time></trkpt><trkpt lat="43.9517533" lon="12.2081217"><ele>273.0</ele><time>2026-04-25T08:34:21.022Z</time></trkpt><trkpt lat="43.951825" lon="12.20814"><ele>273.0</ele><time>2026-04-25T08:34:22.023Z</time></trkpt><trkpt lat="43.9519" lon="12.2081117"><ele>273.0</ele><time>2026-04-25T08:34:23.023Z</time></trkpt><trkpt lat="43.9519717" lon="12.2080483"><ele>273.0</ele><time>2026-04-25T08:34:24.022Z</time></trkpt><trkpt lat="43.9520167" lon="12.2079517"><ele>271.6</ele><time>2026-04-25T08:34:25.023Z</time></trkpt><trkpt lat="43.9520467" lon="12.2078317"><ele>270.20000000000005</ele><time>2026-04-25T08:34:26.023Z</time></trkpt><trkpt lat="43.9520817" lon="12.2076983"><ele>268.8</ele><time>2026-04-25T08:34:27.023Z</time></trkpt><trkpt lat="43.9521283" lon="12.2075667"><ele>267.40000000000003</ele><time>2026-04-25T08:34:28.023Z</time></trkpt><trkpt lat="43.95219" lon="12.2074533"><ele>266.0</ele><time>2026-04-25T08:34:29.023Z</time></trkpt><trkpt lat="43.9522667" lon="12.20734"><ele>264.6</ele><time>2026-04-25T08:34:30.023Z</time></trkpt><trkpt lat="43.952345" lon="12.2072283"><ele>263.20000000000005</ele><time>2026-04-25T08:34:31.022Z</time></trkpt><trkpt lat="43.9524317" lon="12.20712"><ele>261.79999999999995</ele><time>2026-04-25T08:34:32.022Z</time></trkpt><trkpt lat="43.9525133" lon="12.207015"><ele>260.4</ele><time>2026-04-25T08:34:33.022Z</time></trkpt><trkpt lat="43.9525867" lon="12.2069083"><ele>259.0</ele><time>2026-04-25T08:34:34.023Z</time></trkpt><trkpt lat="43.9526417" lon="12.206795"><ele>257.25</ele><time>2026-04-25T08:34:35.023Z</time></trkpt><trkpt lat="43.9526867" lon="12.2066533"><ele>255.5</ele><time>2026-04-25T08:34:36.022Z</time></trkpt><trkpt lat="43.952695" lon="12.2064917"><ele>253.75</ele><time>2026-04-25T08:34:37.023Z</time></trkpt><trkpt lat="43.9526783" lon="12.2063283"><ele>252.0</ele><time>2026-04-25T08:34:38.023Z</time></trkpt><trkpt lat="43.9526383" lon="12.2061783"><ele>252.6</ele><time>2026-04-25T08:34:39.022Z</time></trkpt><trkpt lat="43.9525917" lon="12.2060483"><ele>253.2</ele><time>2026-04-25T08:34:40.023Z</time></trkpt><trkpt lat="43.952535" lon="12.205925"><ele>253.8</ele><time>2026-04-25T08:34:41.023Z</time></trkpt><trkpt lat="43.9524783" lon="12.205795"><ele>254.4</ele><time>2026-04-25T08:34:42.023Z</time></trkpt><trkpt lat="43.95244" lon="12.2056583"><ele>255.0</ele><time>2026-04-25T08:34:43.023Z</time></trkpt><trkpt lat="43.9524167" lon="12.205505"><ele>253.6</ele><time>2026-04-25T08:34:44.022Z</time></trkpt><trkpt lat="43.952415" lon="12.2053533"><ele>252.2</ele><time>2026-04-25T08:34:45.023Z</time></trkpt><trkpt lat="43.9524217" lon="12.2052083"><ele>250.8</ele><time>2026-04-25T08:34:46.023Z</time></trkpt><trkpt lat="43.9524333" lon="12.2050617"><ele>249.4</ele><time>2026-04-25T08:34:47.023Z</time></trkpt><trkpt lat="43.952435" lon="12.2049217"><ele>248.0</ele><time>2026-04-25T08:34:48.023Z</time></trkpt><trkpt lat="43.952425" lon="12.204765"><ele>247.2</ele><time>2026-04-25T08:34:49.022Z</time></trkpt><trkpt lat="43.952405" lon="12.2046233"><ele>246.4</ele><time>2026-04-25T08:34:50.022Z</time></trkpt><trkpt lat="43.952375" lon="12.204485"><ele>245.59999999999997</ele><time>2026-04-25T08:34:51.023Z</time></trkpt><trkpt lat="43.95234" lon="12.2043433"><ele>244.79999999999998</ele><time>2026-04-25T08:34:52.023Z</time></trkpt><trkpt lat="43.952305" lon="12.20421"><ele>244.0</ele><time>2026-04-25T08:34:53.023Z</time></trkpt><trkpt lat="43.9522783" lon="12.2040617"><ele>243.5</ele><time>2026-04-25T08:34:54.023Z</time></trkpt><trkpt lat="43.9522583" lon="12.2039117"><ele>243.0</ele><time>2026-04-25T08:34:55.022Z</time></trkpt><trkpt lat="43.9522433" lon="12.20375"><ele>242.5</ele><time>2026-04-25T08:34:56.022Z</time></trkpt><trkpt lat="43.9522283" lon="12.2035833"><ele>242.0</ele><time>2026-04-25T08:34:57.023Z</time></trkpt><trkpt lat="43.9522117" lon="12.2034217"><ele>242.0</ele><time>2026-04-25T08:34:58.022Z</time></trkpt><trkpt lat="43.9521917" lon="12.2032517"><ele>242.0</ele><time>2026-04-25T08:34:59.022Z</time></trkpt><trkpt lat="43.9521667" lon="12.2030783"><ele>242.0</ele><time>2026-04-25T08:35:00.023Z</time></trkpt><trkpt lat="43.95215" lon="12.2029017"><ele>242.0</ele><time>2026-04-25T08:35:01.022Z</time></trkpt><trkpt lat="43.9521333" lon="12.20274"><ele>241.0</ele><time>2026-04-25T08:35:02.023Z</time></trkpt><trkpt lat="43.952115" lon="12.2025967"><ele>240.0</ele><time>2026-04-25T08:35:03.023Z</time></trkpt><trkpt lat="43.9521383" lon="12.2024533"><ele>239.0</ele><time>2026-04-25T08:35:04.022Z</time></trkpt><trkpt lat="43.95218" lon="12.2023167"><ele>238.0</ele><time>2026-04-25T08:35:05.023Z</time></trkpt><trkpt lat="43.95224" lon="12.202185"><ele>237.0</ele><time>2026-04-25T08:35:06.022Z</time></trkpt><trkpt lat="43.9523033" lon="12.20206"><ele>236.0</ele><time>2026-04-25T08:35:07.022Z</time></trkpt><trkpt lat="43.9523783" lon="12.20195"><ele>235.0</ele><time>2026-04-25T08:35:08.022Z</time></trkpt><trkpt lat="43.95247" lon="12.2018533"><ele>234.0</ele><time>2026-04-25T08:35:09.023Z</time></trkpt><trkpt lat="43.9525683" lon="12.201775"><ele>233.0</ele><time>2026-04-25T08:35:10.023Z</time></trkpt><trkpt lat="43.9526683" lon="12.2017067"><ele>232.0</ele><time>2026-04-25T08:35:11.023Z</time></trkpt><trkpt lat="43.9527767" lon="12.20167"><ele>230.2</ele><time>2026-04-25T08:35:12.023Z</time></trkpt><trkpt lat="43.9528733" lon="12.2016617"><ele>228.39999999999998</ele><time>2026-04-25T08:35:13.022Z</time></trkpt><trkpt lat="43.9529683" lon="12.20168"><ele>226.60000000000002</ele><time>2026-04-25T08:35:14.022Z</time></trkpt><trkpt lat="43.9530517" lon="12.2017367"><ele>224.8</ele><time>2026-04-25T08:35:15.023Z</time></trkpt><trkpt lat="43.9531333" lon="12.2018083"><ele>223.0</ele><time>2026-04-25T08:35:16.023Z</time></trkpt><trkpt lat="43.9531817" lon="12.2019233"><ele>222.99999999999997</ele><time>2026-04-25T08:35:17.022Z</time></trkpt><trkpt lat="43.9532117" lon="12.2020483"><ele>223.0</ele><time>2026-04-25T08:35:18.022Z</time></trkpt><trkpt lat="43.9532367" lon="12.2021683"><ele>223.0</ele><time>2026-04-25T08:35:19.023Z</time></trkpt><trkpt lat="43.953275" lon="12.202265"><ele>223.0</ele><time>2026-04-25T08:35:20.023Z</time></trkpt><trkpt lat="43.9533283" lon="12.2023317"><ele>222.99999999999997</ele><time>2026-04-25T08:35:21.022Z</time></trkpt><trkpt lat="43.9534" lon="12.2023317"><ele>223.0</ele><time>2026-04-25T08:35:22.022Z</time></trkpt><trkpt lat="43.95347" lon="12.20229"><ele>219.83333333333331</ele><time>2026-04-25T08:35:23.023Z</time></trkpt><trkpt lat="43.9535267" lon="12.2022133"><ele>216.66666666666666</ele><time>2026-04-25T08:35:24.023Z</time></trkpt><trkpt lat="43.953565" lon="12.20211"><ele>213.5</ele><time>2026-04-25T08:35:25.023Z</time></trkpt><trkpt lat="43.9535867" lon="12.20199"><ele>210.33333333333331</ele><time>2026-04-25T08:35:26.022Z</time></trkpt><trkpt lat="43.9536" lon="12.2018567"><ele>207.16666666666666</ele><time>2026-04-25T08:35:27.023Z</time></trkpt><trkpt lat="43.9536133" lon="12.2017183"><ele>204.0</ele><time>2026-04-25T08:35:28.023Z</time></trkpt><trkpt lat="43.9536217" lon="12.20158"><ele>204.39999999999998</ele><time>2026-04-25T08:35:29.023Z</time></trkpt><trkpt lat="43.9536183" lon="12.20144"><ele>204.8</ele><time>2026-04-25T08:35:30.023Z</time></trkpt><trkpt lat="43.953615" lon="12.2013"><ele>205.2</ele><time>2026-04-25T08:35:31.023Z</time></trkpt><trkpt lat="43.95362" lon="12.2011667"><ele>205.60000000000002</ele><time>2026-04-25T08:35:32.022Z</time></trkpt><trkpt lat="43.9536367" lon="12.2010467"><ele>206.0</ele><time>2026-04-25T08:35:33.022Z</time></trkpt><trkpt lat="43.9536683" lon="12.2009367"><ele>206.0</ele><time>2026-04-25T08:35:34.023Z</time></trkpt><trkpt lat="43.95372" lon="12.2008433"><ele>206.0</ele><time>2026-04-25T08:35:35.023Z</time></trkpt><trkpt lat="43.9537933" lon="12.2007567"><ele>206.0</ele><time>2026-04-25T08:35:36.022Z</time></trkpt><trkpt lat="43.9538717" lon="12.20068"><ele>206.0</ele><time>2026-04-25T08:35:37.023Z</time></trkpt><trkpt lat="43.9539583" lon="12.2006017"><ele>206.0</ele><time>2026-04-25T08:35:38.022Z</time></trkpt><trkpt lat="43.9540333" lon="12.2005183"><ele>206.20000000000002</ele><time>2026-04-25T08:35:39.023Z</time></trkpt><trkpt lat="43.9541033" lon="12.2004383"><ele>206.4</ele><time>2026-04-25T08:35:40.023Z</time></trkpt><trkpt lat="43.9541617" lon="12.2003467"><ele>206.6</ele><time>2026-04-25T08:35:41.022Z</time></trkpt><trkpt lat="43.9542033" lon="12.200235"><ele>206.8</ele><time>2026-04-25T08:35:42.023Z</time></trkpt><trkpt lat="43.9542217" lon="12.2001117"><ele>207.0</ele><time>2026-04-25T08:35:43.023Z</time></trkpt><trkpt lat="43.9542067" lon="12.1999817"><ele>207.0</ele><time>2026-04-25T08:35:44.023Z</time></trkpt><trkpt lat="43.95417" lon="12.19985"><ele>207.0</ele><time>2026-04-25T08:35:45.022Z</time></trkpt><trkpt lat="43.9541133" lon="12.1997383"><ele>207.0</ele><time>2026-04-25T08:35:46.023Z</time></trkpt><trkpt lat="43.954045" lon="12.1996317"><ele>207.0</ele><time>2026-04-25T08:35:47.023Z</time></trkpt><trkpt lat="43.9539767" lon="12.1995383"><ele>207.0</ele><time>2026-04-25T08:35:48.023Z</time></trkpt><trkpt lat="43.9539183" lon="12.1994483"><ele>206.5</ele><time>2026-04-25T08:35:49.022Z</time></trkpt><trkpt lat="43.95387" lon="12.1993583"><ele>206.0</ele><time>2026-04-25T08:35:50.023Z</time></trkpt><trkpt lat="43.9538417" lon="12.1992533"><ele>205.5</ele><time>2026-04-25T08:35:51.023Z</time></trkpt><trkpt lat="43.9538483" lon="12.1991417"><ele>205.0</ele><time>2026-04-25T08:35:52.023Z</time></trkpt><trkpt lat="43.953895" lon="12.1990417"><ele>204.5</ele><time>2026-04-25T08:35:53.022Z</time></trkpt><trkpt lat="43.953965" lon="12.1989617"><ele>204.0</ele><time>2026-04-25T08:35:54.023Z</time></trkpt><trkpt lat="43.954045" lon="12.1989067"><ele>201.39999999999998</ele><time>2026-04-25T08:35:55.023Z</time></trkpt><trkpt lat="43.9541333" lon="12.1988867"><ele>198.8</ele><time>2026-04-25T08:35:56.023Z</time></trkpt><trkpt lat="43.95423" lon="12.1988933"><ele>196.2</ele><time>2026-04-25T08:35:57.023Z</time></trkpt><trkpt lat="43.9543317" lon="12.1989117"><ele>193.60000000000002</ele><time>2026-04-25T08:35:58.023Z</time></trkpt><trkpt lat="43.95442" lon="12.1989417"><ele>191.0</ele><time>2026-04-25T08:35:59.023Z</time></trkpt><trkpt lat="43.9545183" lon="12.1989667"><ele>191.4</ele><time>2026-04-25T08:36:00.023Z</time></trkpt><trkpt lat="43.9546083" lon="12.1989917"><ele>191.8</ele><time>2026-04-25T08:36:01.022Z</time></trkpt><trkpt lat="43.9547" lon="12.1990233"><ele>192.20000000000002</ele><time>2026-04-25T08:36:02.023Z</time></trkpt><trkpt lat="43.954795" lon="12.1990517"><ele>192.60000000000002</ele><time>2026-04-25T08:36:03.023Z</time></trkpt><trkpt lat="43.954885" lon="12.1990817"><ele>193.0</ele><time>2026-04-25T08:36:04.023Z</time></trkpt><trkpt lat="43.954975" lon="12.1991083"><ele>191.2</ele><time>2026-04-25T08:36:05.022Z</time></trkpt><trkpt lat="43.9550683" lon="12.199135"><ele>189.4</ele><time>2026-04-25T08:36:06.022Z</time></trkpt><trkpt lat="43.9551617" lon="12.1991683"><ele>187.6</ele><time>2026-04-25T08:36:07.023Z</time></trkpt><trkpt lat="43.955255" lon="12.1992033"><ele>185.79999999999998</ele><time>2026-04-25T08:36:08.022Z</time></trkpt><trkpt lat="43.9553433" lon="12.19924"><ele>184.0</ele><time>2026-04-25T08:36:09.023Z</time></trkpt><trkpt lat="43.955425" lon="12.1992717"><ele>184.0</ele><time>2026-04-25T08:36:10.023Z</time></trkpt><trkpt lat="43.9555067" lon="12.1992917"><ele>184.0</ele><time>2026-04-25T08:36:11.022Z</time></trkpt><trkpt lat="43.955595" lon="12.1993017"><ele>184.0</ele><time>2026-04-25T08:36:12.023Z</time></trkpt><trkpt lat="43.955685" lon="12.1992983"><ele>184.0</ele><time>2026-04-25T08:36:13.022Z</time></trkpt><trkpt lat="43.955775" lon="12.1992717"><ele>184.0</ele><time>2026-04-25T08:36:14.023Z</time></trkpt><trkpt lat="43.9558583" lon="12.199225"><ele>184.0</ele><time>2026-04-25T08:36:15.023Z</time></trkpt><trkpt lat="43.9559367" lon="12.1991583"><ele>180.33333333333334</ele><time>2026-04-25T08:36:16.023Z</time></trkpt><trkpt lat="43.9559917" lon="12.1990667"><ele>176.66666666666669</ele><time>2026-04-25T08:36:17.023Z</time></trkpt><trkpt lat="43.956035" lon="12.198955"><ele>173.0</ele><time>2026-04-25T08:36:18.022Z</time></trkpt><trkpt lat="43.95605" lon="12.1988433"><ele>169.33333333333334</ele><time>2026-04-25T08:36:19.022Z</time></trkpt><trkpt lat="43.956055" lon="12.1987167"><ele>165.66666666666666</ele><time>2026-04-25T08:36:20.023Z</time></trkpt><trkpt lat="43.95603" lon="12.198585"><ele>162.0</ele><time>2026-04-25T08:36:21.023Z</time></trkpt><trkpt lat="43.9559733" lon="12.1984583"><ele>160.79999999999998</ele><time>2026-04-25T08:36:22.023Z</time></trkpt><trkpt lat="43.95591" lon="12.1983417"><ele>159.6</ele><time>2026-04-25T08:36:23.022Z</time></trkpt><trkpt lat="43.9558433" lon="12.1982217"><ele>158.39999999999998</ele><time>2026-04-25T08:36:24.023Z</time></trkpt><trkpt lat="43.9557717" lon="12.1980967"><ele>157.2</ele><time>2026-04-25T08:36:25.022Z</time></trkpt><trkpt lat="43.9557083" lon="12.1979667"><ele>156.0</ele><time>2026-04-25T08:36:26.023Z</time></trkpt><trkpt lat="43.95564" lon="12.1978267"><ele>156.0</ele><time>2026-04-25T08:36:27.023Z</time></trkpt><trkpt lat="43.9555667" lon="12.1976917"><ele>156.0</ele><time>2026-04-25T08:36:28.023Z</time></trkpt><trkpt lat="43.955505" lon="12.1975533"><ele>156.0</ele><time>2026-04-25T08:36:29.023Z</time></trkpt><trkpt lat="43.9554467" lon="12.1974167"><ele>156.0</ele><time>2026-04-25T08:36:30.022Z</time></trkpt><trkpt lat="43.95539" lon="12.1972733"><ele>151.5</ele><time>2026-04-25T08:36:31.023Z</time></trkpt><trkpt lat="43.9553283" lon="12.1971317"><ele>147.0</ele><time>2026-04-25T08:36:32.023Z</time></trkpt><trkpt lat="43.9552733" lon="12.196995"><ele>142.5</ele><time>2026-04-25T08:36:33.023Z</time></trkpt><trkpt lat="43.9552133" lon="12.19685"><ele>138.0</ele><time>2026-04-25T08:36:34.023Z</time></trkpt><trkpt lat="43.9551517" lon="12.19672"><ele>138.0</ele><time>2026-04-25T08:36:35.022Z</time></trkpt><trkpt lat="43.955095" lon="12.196585"><ele>138.0</ele><time>2026-04-25T08:36:36.023Z</time></trkpt><trkpt lat="43.9550333" lon="12.196465"><ele>138.0</ele><time>2026-04-25T08:36:37.023Z</time></trkpt><trkpt lat="43.9549717" lon="12.1963467"><ele>138.0</ele><time>2026-04-25T08:36:38.022Z</time></trkpt><trkpt lat="43.9549017" lon="12.1962333"><ele>138.0</ele><time>2026-04-25T08:36:39.023Z</time></trkpt><trkpt lat="43.9548283" lon="12.196125"><ele>139.8</ele><time>2026-04-25T08:36:40.022Z</time></trkpt><trkpt lat="43.9547467" lon="12.1960167"><ele>141.60000000000002</ele><time>2026-04-25T08:36:41.022Z</time></trkpt><trkpt lat="43.9546717" lon="12.195925"><ele>143.39999999999998</ele><time>2026-04-25T08:36:42.022Z</time></trkpt><trkpt lat="43.9545867" lon="12.19584"><ele>145.2</ele><time>2026-04-25T08:36:43.023Z</time></trkpt><trkpt lat="43.95449" lon="12.195775"><ele>147.0</ele><time>2026-04-25T08:36:44.023Z</time></trkpt><trkpt lat="43.9543817" lon="12.1957117"><ele>145.2</ele><time>2026-04-25T08:36:45.022Z</time></trkpt><trkpt lat="43.9542733" lon="12.1956483"><ele>143.39999999999998</ele><time>2026-04-25T08:36:46.022Z</time></trkpt><trkpt lat="43.9541833" lon="12.1956167"><ele>141.60000000000002</ele><time>2026-04-25T08:36:47.023Z</time></trkpt><trkpt lat="43.9540833" lon="12.1955883"><ele>139.8</ele><time>2026-04-25T08:36:48.022Z</time></trkpt><trkpt lat="43.9539967" lon="12.1955817"><ele>138.0</ele><time>2026-04-25T08:36:49.023Z</time></trkpt><trkpt lat="43.95392" lon="12.1955817"><ele>142.0</ele><time>2026-04-25T08:36:50.022Z</time></trkpt><trkpt lat="43.95382" lon="12.19553"><ele>146.0</ele><time>2026-04-25T08:36:52.023Z</time></trkpt><trkpt lat="43.9538283" lon="12.195425"><ele>150.0</ele><time>2026-04-25T08:36:54.023Z</time></trkpt><trkpt lat="43.9539483" lon="12.19538"><ele>154.0</ele><time>2026-04-25T08:36:56.023Z</time></trkpt><trkpt lat="43.9540283" lon="12.1954017"><ele>158.0</ele><time>2026-04-25T08:36:57.023Z</time></trkpt><trkpt lat="43.9541083" lon="12.1954183"><ele>158.0</ele><time>2026-04-25T08:36:58.023Z</time></trkpt><trkpt lat="43.9541983" lon="12.1954383"><ele>158.0</ele><time>2026-04-25T08:36:59.022Z</time></trkpt><trkpt lat="43.954295" lon="12.1954583"><ele>158.0</ele><time>2026-04-25T08:37:00.023Z</time></trkpt><trkpt lat="43.95439" lon="12.19548"><ele>158.0</ele><time>2026-04-25T08:37:01.023Z</time></trkpt><trkpt lat="43.9544917" lon="12.195515"><ele>158.0</ele><time>2026-04-25T08:37:02.022Z</time></trkpt><trkpt lat="43.9545933" lon="12.1955583"><ele>155.8</ele><time>2026-04-25T08:37:03.023Z</time></trkpt><trkpt lat="43.9546967" lon="12.1956283"><ele>153.60000000000002</ele><time>2026-04-25T08:37:04.023Z</time></trkpt><trkpt lat="43.9548017" lon="12.1957183"><ele>151.39999999999998</ele><time>2026-04-25T08:37:05.023Z</time></trkpt><trkpt lat="43.9548883" lon="12.19577"><ele>149.2</ele><time>2026-04-25T08:37:06.023Z</time></trkpt><trkpt lat="43.9549717" lon="12.1958117"><ele>147.0</ele><time>2026-04-25T08:37:07.022Z</time></trkpt><trkpt lat="43.95505" lon="12.1958317"><ele>145.5</ele><time>2026-04-25T08:37:08.022Z</time></trkpt><trkpt lat="43.9551333" lon="12.1958267"><ele>144.0</ele><time>2026-04-25T08:37:09.023Z</time></trkpt><trkpt lat="43.9552167" lon="12.1957983"><ele>142.5</ele><time>2026-04-25T08:37:10.022Z</time></trkpt><trkpt lat="43.9553067" lon="12.195755"><ele>141.0</ele><time>2026-04-25T08:37:11.023Z</time></trkpt><trkpt lat="43.9553967" lon="12.195725"><ele>139.5</ele><time>2026-04-25T08:37:12.022Z</time></trkpt><trkpt lat="43.9554817" lon="12.1956967"><ele>138.0</ele><time>2026-04-25T08:37:13.023Z</time></trkpt><trkpt lat="43.9555467" lon="12.195665"><ele>138.0</ele><time>2026-04-25T08:37:14.023Z</time></trkpt><trkpt lat="43.9556433" lon="12.1956317"><ele>138.0</ele><time>2026-04-25T08:37:16.022Z</time></trkpt><trkpt lat="43.9557217" lon="12.1955933"><ele>138.0</ele><time>2026-04-25T08:37:19.021Z</time></trkpt><trkpt lat="43.9557683" lon="12.1955067"><ele>138.0</ele><time>2026-04-25T08:37:23.022Z</time></trkpt><trkpt lat="43.95573" lon="12.1954183"><ele>138.0</ele><time>2026-04-25T08:37:26.022Z</time></trkpt><trkpt lat="43.9557983" lon="12.195395"><ele>138.0</ele><time>2026-04-25T08:38:24.022Z</time></trkpt><trkpt lat="43.955805" lon="12.1954933"><ele>138.0</ele><time>2026-04-25T08:38:27.022Z</time></trkpt><trkpt lat="43.9558217" lon="12.1956283"><ele>138.0</ele><time>2026-04-25T08:38:30.021Z</time></trkpt><trkpt lat="43.9558483" lon="12.19572"><ele>138.0</ele><time>2026-04-25T08:38:32.021Z</time></trkpt><trkpt lat="43.955875" lon="12.1958233"><ele>138.0</ele><time>2026-04-25T08:38:34.022Z</time></trkpt><trkpt lat="43.955905" lon="12.1959233"><ele>138.0</ele><time>2026-04-25T08:38:36.021Z</time></trkpt><trkpt lat="43.9559583" lon="12.1960033"><ele>138.0</ele><time>2026-04-25T08:38:38.021Z</time></trkpt><trkpt lat="43.95602" lon="12.1960617"><ele>138.6</ele><time>2026-04-25T08:38:40.022Z</time></trkpt><trkpt lat="43.9561" lon="12.1960767"><ele>139.20000000000002</ele><time>2026-04-25T08:38:42.022Z</time></trkpt><trkpt lat="43.956185" lon="12.1960683"><ele>139.8</ele><time>2026-04-25T08:38:44.022Z</time></trkpt><trkpt lat="43.9562817" lon="12.1960733"><ele>140.4</ele><time>2026-04-25T08:38:46.021Z</time></trkpt><trkpt lat="43.9563767" lon="12.1960583"><ele>141.0</ele><time>2026-04-25T08:38:48.022Z</time></trkpt><trkpt lat="43.9564717" lon="12.1960417"><ele>141.0</ele><time>2026-04-25T08:38:50.021Z</time></trkpt><trkpt lat="43.9565717" lon="12.1960133"><ele>141.0</ele><time>2026-04-25T08:38:52.021Z</time></trkpt><trkpt lat="43.9566717" lon="12.1960067"><ele>141.0</ele><time>2026-04-25T08:38:54.021Z</time></trkpt><trkpt lat="43.95677" lon="12.1960067"><ele>141.0</ele><time>2026-04-25T08:38:56.021Z</time></trkpt><trkpt lat="43.9568717" lon="12.1959967"><ele>141.0</ele><time>2026-04-25T08:38:58.021Z</time></trkpt><trkpt lat="43.95697" lon="12.1959933"><ele>141.4</ele><time>2026-04-25T08:39:00.021Z</time></trkpt><trkpt lat="43.9570683" lon="12.1960017"><ele>141.8</ele><time>2026-04-25T08:39:02.022Z</time></trkpt><trkpt lat="43.957175" lon="12.1960417"><ele>142.20000000000002</ele><time>2026-04-25T08:39:04.022Z</time></trkpt><trkpt lat="43.9572717" lon="12.19609"><ele>142.6</ele><time>2026-04-25T08:39:06.021Z</time></trkpt><trkpt lat="43.9573567" lon="12.196095"><ele>143.0</ele><time>2026-04-25T08:39:08.021Z</time></trkpt><trkpt lat="43.95745" lon="12.1961217"><ele>143.0</ele><time>2026-04-25T08:39:10.022Z</time></trkpt><trkpt lat="43.95753" lon="12.19621"><ele>143.0</ele><time>2026-04-25T08:39:12.022Z</time></trkpt><trkpt lat="43.957585" lon="12.19635"><ele>143.0</ele><time>2026-04-25T08:39:14.022Z</time></trkpt><trkpt lat="43.957615" lon="12.1964883"><ele>143.0</ele><time>2026-04-25T08:39:16.022Z</time></trkpt><trkpt lat="43.9576367" lon="12.1966083"><ele>143.0</ele><time>2026-04-25T08:39:18.022Z</time></trkpt><trkpt lat="43.9576567" lon="12.1967067"><ele>141.5</ele><time>2026-04-25T08:39:20.022Z</time></trkpt><trkpt lat="43.9576717" lon="12.1968"><ele>140.0</ele><time>2026-04-25T08:39:22.022Z</time></trkpt><trkpt lat="43.957685" lon="12.196905"><ele>138.5</ele><time>2026-04-25T08:39:25.022Z</time></trkpt><trkpt lat="43.9577083" lon="12.1970017"><ele>137.0</ele><time>2026-04-25T08:39:28.021Z</time></trkpt><trkpt lat="43.9577283" lon="12.1971283"><ele>135.5</ele><time>2026-04-25T08:39:43.021Z</time></trkpt><trkpt lat="43.9577567" lon="12.19723"><ele>134.0</ele><time>2026-04-25T08:39:46.022Z</time></trkpt><trkpt lat="43.9577883" lon="12.1973583"><ele>132.66666666666666</ele><time>2026-04-25T08:39:49.022Z</time></trkpt><trkpt lat="43.9578" lon="12.1974467"><ele>131.33333333333331</ele><time>2026-04-25T08:39:51.022Z</time></trkpt><trkpt lat="43.9578117" lon="12.197535"><ele>130.0</ele><time>2026-04-25T08:39:53.022Z</time></trkpt><trkpt lat="43.9578267" lon="12.1976567"><ele>128.66666666666666</ele><time>2026-04-25T08:39:56.022Z</time></trkpt><trkpt lat="43.9578483" lon="12.197765"><ele>127.33333333333333</ele><time>2026-04-25T08:39:59.022Z</time></trkpt><trkpt lat="43.95787" lon="12.1978583"><ele>126.0</ele><time>2026-04-25T08:40:02.021Z</time></trkpt><trkpt lat="43.9579017" lon="12.1979617"><ele>126.0</ele><time>2026-04-25T08:40:05.022Z</time></trkpt><trkpt lat="43.9579217" lon="12.198075"><ele>126.0</ele><time>2026-04-25T08:40:08.022Z</time></trkpt><trkpt lat="43.9579333" lon="12.19819"><ele>126.0</ele><time>2026-04-25T08:40:11.022Z</time></trkpt><trkpt lat="43.9579483" lon="12.198285"><ele>126.0</ele><time>2026-04-25T08:40:14.021Z</time></trkpt><trkpt lat="43.9579667" lon="12.1983833"><ele>126.0</ele><time>2026-04-25T08:40:17.021Z</time></trkpt><trkpt lat="43.9579867" lon="12.1984867"><ele>126.0</ele><time>2026-04-25T08:40:20.022Z</time></trkpt><trkpt lat="43.9579983" lon="12.1985833"><ele>126.14285714285714</ele><time>2026-04-25T08:40:23.021Z</time></trkpt><trkpt lat="43.9580117" lon="12.1986767"><ele>126.28571428571428</ele><time>2026-04-25T08:40:26.021Z</time></trkpt><trkpt lat="43.9580283" lon="12.1987717"><ele>126.42857142857143</ele><time>2026-04-25T08:40:29.022Z</time></trkpt><trkpt lat="43.95804" lon="12.1988583"><ele>126.57142857142857</ele><time>2026-04-25T08:40:32.021Z</time></trkpt><trkpt lat="43.95808" lon="12.19895"><ele>126.71428571428571</ele><time>2026-04-25T08:40:36.022Z</time></trkpt><trkpt lat="43.958125" lon="12.1990217"><ele>126.85714285714286</ele><time>2026-04-25T08:40:39.022Z</time></trkpt><trkpt lat="43.9581817" lon="12.19906"><ele>127.0</ele><time>2026-04-25T08:40:42.022Z</time></trkpt><trkpt lat="43.95825" lon="12.1990817"><ele>129.66666666666669</ele><time>2026-04-25T08:40:45.022Z</time></trkpt><trkpt lat="43.95832" lon="12.199125"><ele>132.33333333333334</ele><time>2026-04-25T08:40:48.022Z</time></trkpt><trkpt lat="43.958395" lon="12.199165"><ele>135.0</ele><time>2026-04-25T08:40:51.022Z</time></trkpt><trkpt lat="43.95847" lon="12.1991683"><ele>137.66666666666666</ele><time>2026-04-25T08:40:54.022Z</time></trkpt><trkpt lat="43.9585517" lon="12.199175"><ele>140.33333333333331</ele><time>2026-04-25T08:40:57.021Z</time></trkpt><trkpt lat="43.95862" lon="12.1991767"><ele>143.0</ele><time>2026-04-25T08:41:00.022Z</time></trkpt><trkpt lat="43.9586883" lon="12.1991667"><ele>143.42857142857142</ele><time>2026-04-25T08:41:03.021Z</time></trkpt><trkpt lat="43.9587533" lon="12.199155"><ele>143.85714285714286</ele><time>2026-04-25T08:41:06.022Z</time></trkpt><trkpt lat="43.95883" lon="12.1991717"><ele>144.28571428571428</ele><time>2026-04-25T08:41:09.022Z</time></trkpt><trkpt lat="43.9589083" lon="12.1991833"><ele>144.71428571428572</ele><time>2026-04-25T08:41:12.021Z</time></trkpt><trkpt lat="43.95899" lon="12.19916"><ele>145.14285714285714</ele><time>2026-04-25T08:41:15.021Z</time></trkpt><trkpt lat="43.9590567" lon="12.1991417"><ele>145.57142857142856</ele><time>2026-04-25T08:41:18.021Z</time></trkpt><trkpt lat="43.95912" lon="12.19915"><ele>146.0</ele><time>2026-04-25T08:41:21.022Z</time></trkpt><trkpt lat="43.9591867" lon="12.1991333"><ele>147.33333333333331</ele><time>2026-04-25T08:41:24.022Z</time></trkpt><trkpt lat="43.9592667" lon="12.19911"><ele>148.66666666666666</ele><time>2026-04-25T08:41:27.022Z</time></trkpt><trkpt lat="43.9593317" lon="12.1990817"><ele>150.0</ele><time>2026-04-25T08:41:30.021Z</time></trkpt><trkpt lat="43.95941" lon="12.1990717"><ele>151.33333333333334</ele><time>2026-04-25T08:41:34.021Z</time></trkpt><trkpt lat="43.9594767" lon="12.19906"><ele>152.66666666666669</ele><time>2026-04-25T08:41:37.022Z</time></trkpt><trkpt lat="43.9595567" lon="12.19908"><ele>154.0</ele><time>2026-04-25T08:41:40.022Z</time></trkpt><trkpt lat="43.9596367" lon="12.199105"><ele>154.0</ele><time>2026-04-25T08:41:43.022Z</time></trkpt><trkpt lat="43.9597133" lon="12.1991683"><ele>154.0</ele><time>2026-04-25T08:41:46.022Z</time></trkpt><trkpt lat="43.9597817" lon="12.1992483"><ele>154.0</ele><time>2026-04-25T08:41:49.022Z</time></trkpt><trkpt lat="43.95985" lon="12.1993167"><ele>154.0</ele><time>2026-04-25T08:41:52.021Z</time></trkpt><trkpt lat="43.9599167" lon="12.1993733"><ele>154.0</ele><time>2026-04-25T08:41:55.022Z</time></trkpt><trkpt lat="43.9599767" lon="12.199435"><ele>154.0</ele><time>2026-04-25T08:41:58.022Z</time></trkpt><trkpt lat="43.96004" lon="12.199485"><ele>153.5</ele><time>2026-04-25T08:42:01.021Z</time></trkpt><trkpt lat="43.960095" lon="12.19954"><ele>153.0</ele><time>2026-04-25T08:42:04.022Z</time></trkpt><trkpt lat="43.9601667" lon="12.1995917"><ele>152.5</ele><time>2026-04-25T08:42:07.021Z</time></trkpt><trkpt lat="43.96022" lon="12.1996417"><ele>152.0</ele><time>2026-04-25T08:42:09.022Z</time></trkpt><trkpt lat="43.9602867" lon="12.1996983"><ele>151.5</ele><time>2026-04-25T08:42:12.022Z</time></trkpt><trkpt lat="43.9603533" lon="12.1997633"><ele>151.0</ele><time>2026-04-25T08:42:15.022Z</time></trkpt><trkpt lat="43.96043" lon="12.1998233"><ele>152.16666666666669</ele><time>2026-04-25T08:42:18.022Z</time></trkpt><trkpt lat="43.9604983" lon="12.1998933"><ele>153.33333333333334</ele><time>2026-04-25T08:42:21.022Z</time></trkpt><trkpt lat="43.96058" lon="12.1999583"><ele>154.5</ele><time>2026-04-25T08:42:24.022Z</time></trkpt><trkpt lat="43.9606333" lon="12.20001"><ele>155.66666666666666</ele><time>2026-04-25T08:42:26.022Z</time></trkpt><trkpt lat="43.9607017" lon="12.2000717"><ele>156.83333333333331</ele><time>2026-04-25T08:42:28.022Z</time></trkpt><trkpt lat="43.9607767" lon="12.2001433"><ele>158.0</ele><time>2026-04-25T08:42:30.022Z</time></trkpt><trkpt lat="43.9608533" lon="12.200205"><ele>155.8</ele><time>2026-04-25T08:42:32.022Z</time></trkpt><trkpt lat="43.96094" lon="12.2002667"><ele>153.60000000000002</ele><time>2026-04-25T08:42:34.022Z</time></trkpt><trkpt lat="43.96102" lon="12.20033"><ele>151.39999999999998</ele><time>2026-04-25T08:42:36.022Z</time></trkpt><trkpt lat="43.9611017" lon="12.2003883"><ele>149.2</ele><time>2026-04-25T08:42:38.021Z</time></trkpt><trkpt lat="43.96118" lon="12.2004683"><ele>147.0</ele><time>2026-04-25T08:42:40.022Z</time></trkpt><trkpt lat="43.96126" lon="12.2005317"><ele>147.0</ele><time>2026-04-25T08:42:42.022Z</time></trkpt><trkpt lat="43.9613367" lon="12.2005933"><ele>147.0</ele><time>2026-04-25T08:42:44.022Z</time></trkpt><trkpt lat="43.961415" lon="12.2006667"><ele>147.0</ele><time>2026-04-25T08:42:46.021Z</time></trkpt><trkpt lat="43.9615033" lon="12.200725"><ele>147.0</ele><time>2026-04-25T08:42:48.022Z</time></trkpt><trkpt lat="43.96159" lon="12.2008"><ele>147.0</ele><time>2026-04-25T08:42:50.021Z</time></trkpt><trkpt lat="43.9616717" lon="12.200875"><ele>144.4</ele><time>2026-04-25T08:42:52.022Z</time></trkpt><trkpt lat="43.9617517" lon="12.2009367"><ele>141.79999999999998</ele><time>2026-04-25T08:42:54.022Z</time></trkpt><trkpt lat="43.9618333" lon="12.2010083"><ele>139.2</ele><time>2026-04-25T08:42:56.021Z</time></trkpt><trkpt lat="43.9619183" lon="12.2010783"><ele>136.6</ele><time>2026-04-25T08:42:58.021Z</time></trkpt><trkpt lat="43.9620017" lon="12.2011483"><ele>134.0</ele><time>2026-04-25T08:43:00.022Z</time></trkpt><trkpt lat="43.962085" lon="12.2012133"><ele>134.0</ele><time>2026-04-25T08:43:02.022Z</time></trkpt><trkpt lat="43.962165" lon="12.2012833"><ele>134.0</ele><time>2026-04-25T08:43:04.021Z</time></trkpt><trkpt lat="43.962245" lon="12.2013533"><ele>134.0</ele><time>2026-04-25T08:43:06.021Z</time></trkpt><trkpt lat="43.9623283" lon="12.2014"><ele>134.0</ele><time>2026-04-25T08:43:08.021Z</time></trkpt><trkpt lat="43.9624167" lon="12.2014583"><ele>134.0</ele><time>2026-04-25T08:43:10.021Z</time></trkpt><trkpt lat="43.9625117" lon="12.20153"><ele>133.8</ele><time>2026-04-25T08:43:12.022Z</time></trkpt><trkpt lat="43.9626133" lon="12.2015883"><ele>133.60000000000002</ele><time>2026-04-25T08:43:14.021Z</time></trkpt><trkpt lat="43.9627183" lon="12.2016433"><ele>133.4</ele><time>2026-04-25T08:43:16.022Z</time></trkpt><trkpt lat="43.9628383" lon="12.2017"><ele>133.20000000000002</ele><time>2026-04-25T08:43:18.022Z</time></trkpt><trkpt lat="43.9629083" lon="12.2017333"><ele>133.0</ele><time>2026-04-25T08:43:19.021Z</time></trkpt><trkpt lat="43.962975" lon="12.20177"><ele>133.0</ele><time>2026-04-25T08:43:20.022Z</time></trkpt><trkpt lat="43.9630467" lon="12.201805"><ele>133.0</ele><time>2026-04-25T08:43:21.022Z</time></trkpt><trkpt lat="43.963125" lon="12.2018417"><ele>133.0</ele><time>2026-04-25T08:43:22.022Z</time></trkpt><trkpt lat="43.9632083" lon="12.2018767"><ele>133.0</ele><time>2026-04-25T08:43:23.021Z</time></trkpt><trkpt lat="43.9632933" lon="12.2019167"><ele>133.0</ele><time>2026-04-25T08:43:24.022Z</time></trkpt><trkpt lat="43.9633783" lon="12.2019717"><ele>133.0</ele><time>2026-04-25T08:43:25.021Z</time></trkpt><trkpt lat="43.9634683" lon="12.202025"><ele>131.20000000000002</ele><time>2026-04-25T08:43:26.021Z</time></trkpt><trkpt lat="43.9635533" lon="12.2020733"><ele>129.4</ele><time>2026-04-25T08:43:27.021Z</time></trkpt><trkpt lat="43.9636417" lon="12.2021333"><ele>127.60000000000001</ele><time>2026-04-25T08:43:28.021Z</time></trkpt><trkpt lat="43.9637233" lon="12.2021833"><ele>125.80000000000001</ele><time>2026-04-25T08:43:29.021Z</time></trkpt><trkpt lat="43.963805" lon="12.2022267"><ele>124.0</ele><time>2026-04-25T08:43:30.021Z</time></trkpt><trkpt lat="43.9638833" lon="12.2022717"><ele>124.00000000000001</ele><time>2026-04-25T08:43:31.021Z</time></trkpt><trkpt lat="43.9639617" lon="12.2023117"><ele>124.0</ele><time>2026-04-25T08:43:32.021Z</time></trkpt><trkpt lat="43.9640417" lon="12.2023467"><ele>124.0</ele><time>2026-04-25T08:43:33.022Z</time></trkpt><trkpt lat="43.9641167" lon="12.2023783"><ele>124.0</ele><time>2026-04-25T08:43:34.022Z</time></trkpt><trkpt lat="43.9641883" lon="12.2024"><ele>124.00000000000001</ele><time>2026-04-25T08:43:35.022Z</time></trkpt><trkpt lat="43.96425" lon="12.2024217"><ele>124.0</ele><time>2026-04-25T08:43:36.022Z</time></trkpt><trkpt lat="43.964355" lon="12.2024733"><ele>126.33333333333334</ele><time>2026-04-25T08:43:38.022Z</time></trkpt><trkpt lat="43.96444" lon="12.2025283"><ele>128.66666666666669</ele><time>2026-04-25T08:43:40.022Z</time></trkpt><trkpt lat="43.96451" lon="12.202565"><ele>131.0</ele><time>2026-04-25T08:43:42.021Z</time></trkpt><trkpt lat="43.9646" lon="12.2026033"><ele>133.33333333333334</ele><time>2026-04-25T08:43:45.022Z</time></trkpt><trkpt lat="43.9646633" lon="12.2026333"><ele>135.66666666666666</ele><time>2026-04-25T08:43:47.022Z</time></trkpt><trkpt lat="43.9647267" lon="12.2026467"><ele>138.0</ele><time>2026-04-25T08:43:49.021Z</time></trkpt><trkpt lat="43.96479" lon="12.2026633"><ele>138.0</ele><time>2026-04-25T08:43:51.021Z</time></trkpt><trkpt lat="43.9648533" lon="12.2026817"><ele>138.0</ele><time>2026-04-25T08:43:53.021Z</time></trkpt><trkpt lat="43.9649417" lon="12.2027117"><ele>138.0</ele><time>2026-04-25T08:43:56.022Z</time></trkpt><trkpt lat="43.9650333" lon="12.2027317"><ele>138.0</ele><time>2026-04-25T08:43:59.022Z</time></trkpt><trkpt lat="43.965125" lon="12.2027633"><ele>138.0</ele><time>2026-04-25T08:44:02.021Z</time></trkpt><trkpt lat="43.965195" lon="12.202805"><ele>138.0</ele><time>2026-04-25T08:44:04.021Z</time></trkpt><trkpt lat="43.9652667" lon="12.2028633"><ele>139.0</ele><time>2026-04-25T08:44:06.02Z</time></trkpt><trkpt lat="43.9653217" lon="12.2029417"><ele>140.0</ele><time>2026-04-25T08:44:08.02Z</time></trkpt><trkpt lat="43.965365" lon="12.203025"><ele>141.0</ele><time>2026-04-25T08:44:10.02Z</time></trkpt><trkpt lat="43.9653933" lon="12.2031183"><ele>142.0</ele><time>2026-04-25T08:44:12.021Z</time></trkpt><trkpt lat="43.9654067" lon="12.2032217"><ele>143.0</ele><time>2026-04-25T08:44:14.021Z</time></trkpt><trkpt lat="43.9654083" lon="12.2033417"><ele>144.0</ele><time>2026-04-25T08:44:17.021Z</time></trkpt><trkpt lat="43.9654067" lon="12.20344"><ele>144.0</ele><time>2026-04-25T08:44:20.021Z</time></trkpt><trkpt lat="43.9654" lon="12.2035433"><ele>144.0</ele><time>2026-04-25T08:44:24.021Z</time></trkpt><trkpt lat="43.9654633" lon="12.2035683"><ele>144.0</ele><time>2026-04-25T08:44:27.021Z</time></trkpt><trkpt lat="43.9655233" lon="12.203605"><ele>144.0</ele><time>2026-04-25T08:44:29.021Z</time></trkpt><trkpt lat="43.9655933" lon="12.20364"><ele>144.0</ele><time>2026-04-25T08:44:32.02Z</time></trkpt><trkpt lat="43.96566" lon="12.2036917"><ele>144.0</ele><time>2026-04-25T08:44:35.021Z</time></trkpt><trkpt lat="43.96575" lon="12.203725"><ele>144.00000000000003</ele><time>2026-04-25T08:44:38.021Z</time></trkpt><trkpt lat="43.9658133" lon="12.2037483"><ele>144.0</ele><time>2026-04-25T08:44:40.021Z</time></trkpt><trkpt lat="43.9658767" lon="12.2037617"><ele>144.0</ele><time>2026-04-25T08:44:42.021Z</time></trkpt><trkpt lat="43.9659467" lon="12.2037783"><ele>144.0</ele><time>2026-04-25T08:44:44.02Z</time></trkpt><trkpt lat="43.9660167" lon="12.2038"><ele>144.0</ele><time>2026-04-25T08:44:46.021Z</time></trkpt><trkpt lat="43.9660983" lon="12.2038283"><ele>144.00000000000003</ele><time>2026-04-25T08:44:48.021Z</time></trkpt><trkpt lat="43.9661867" lon="12.2038483"><ele>144.0</ele><time>2026-04-25T08:44:50.02Z</time></trkpt><trkpt lat="43.9662817" lon="12.2038467"><ele>143.8</ele><time>2026-04-25T08:44:52.02Z</time></trkpt><trkpt lat="43.9663833" lon="12.2038667"><ele>143.60000000000002</ele><time>2026-04-25T08:44:54.021Z</time></trkpt><trkpt lat="43.9664867" lon="12.2039"><ele>143.4</ele><time>2026-04-25T08:44:56.021Z</time></trkpt><trkpt lat="43.9665783" lon="12.2038867"><ele>143.20000000000002</ele><time>2026-04-25T08:44:58.02Z</time></trkpt><trkpt lat="43.9666667" lon="12.203885"><ele>143.0</ele><time>2026-04-25T08:45:00.021Z</time></trkpt><trkpt lat="43.966755" lon="12.20388"><ele>143.66666666666666</ele><time>2026-04-25T08:45:02.02Z</time></trkpt><trkpt lat="43.9668417" lon="12.2038683"><ele>144.33333333333331</ele><time>2026-04-25T08:45:04.021Z</time></trkpt><trkpt lat="43.9669283" lon="12.20385"><ele>145.0</ele><time>2026-04-25T08:45:06.021Z</time></trkpt><trkpt lat="43.9670183" lon="12.2038483"><ele>145.66666666666666</ele><time>2026-04-25T08:45:08.02Z</time></trkpt><trkpt lat="43.9671083" lon="12.2038317"><ele>146.33333333333334</ele><time>2026-04-25T08:45:10.021Z</time></trkpt><trkpt lat="43.9671983" lon="12.2038133"><ele>147.0</ele><time>2026-04-25T08:45:12.02Z</time></trkpt><trkpt lat="43.9672817" lon="12.203805"><ele>147.0</ele><time>2026-04-25T08:45:14.021Z</time></trkpt><trkpt lat="43.96737" lon="12.2037983"><ele>147.0</ele><time>2026-04-25T08:45:16.021Z</time></trkpt><trkpt lat="43.9674483" lon="12.2038"><ele>147.0</ele><time>2026-04-25T08:45:18.021Z</time></trkpt><trkpt lat="43.9675267" lon="12.2038183"><ele>147.0</ele><time>2026-04-25T08:45:20.02Z</time></trkpt><trkpt lat="43.9675967" lon="12.2038433"><ele>147.0</ele><time>2026-04-25T08:45:22.021Z</time></trkpt><trkpt lat="43.96766" lon="12.2038833"><ele>147.0</ele><time>2026-04-25T08:45:24.021Z</time></trkpt><trkpt lat="43.9677267" lon="12.203915"><ele>146.66666666666666</ele><time>2026-04-25T08:45:26.021Z</time></trkpt><trkpt lat="43.9678033" lon="12.2039417"><ele>146.33333333333334</ele><time>2026-04-25T08:45:28.021Z</time></trkpt><trkpt lat="43.967895" lon="12.2039833"><ele>146.0</ele><time>2026-04-25T08:45:30.02Z</time></trkpt><trkpt lat="43.96797" lon="12.2040283"><ele>145.66666666666669</ele><time>2026-04-25T08:45:32.02Z</time></trkpt><trkpt lat="43.96805" lon="12.2040583"><ele>145.33333333333334</ele><time>2026-04-25T08:45:34.02Z</time></trkpt><trkpt lat="43.9681283" lon="12.2040967"><ele>145.0</ele><time>2026-04-25T08:45:36.021Z</time></trkpt><trkpt lat="43.9681967" lon="12.204135"><ele>147.42857142857144</ele><time>2026-04-25T08:45:38.021Z</time></trkpt><trkpt lat="43.9682717" lon="12.2041567"><ele>149.85714285714286</ele><time>2026-04-25T08:45:40.02Z</time></trkpt><trkpt lat="43.9683517" lon="12.20418"><ele>152.28571428571428</ele><time>2026-04-25T08:45:42.02Z</time></trkpt><trkpt lat="43.9684183" lon="12.2042"><ele>154.71428571428572</ele><time>2026-04-25T08:45:44.02Z</time></trkpt><trkpt lat="43.968485" lon="12.2042067"><ele>157.14285714285714</ele><time>2026-04-25T08:45:46.021Z</time></trkpt><trkpt lat="43.9685517" lon="12.2042283"><ele>159.57142857142858</ele><time>2026-04-25T08:45:48.02Z</time></trkpt><trkpt lat="43.9686133" lon="12.20425"><ele>162.0</ele><time>2026-04-25T08:45:50.021Z</time></trkpt><trkpt lat="43.9687033" lon="12.2043017"><ele>162.0</ele><time>2026-04-25T08:45:53.02Z</time></trkpt><trkpt lat="43.9687667" lon="12.2043183"><ele>162.0</ele><time>2026-04-25T08:45:55.02Z</time></trkpt><trkpt lat="43.9688417" lon="12.2043267"><ele>162.0</ele><time>2026-04-25T08:45:58.02Z</time></trkpt><trkpt lat="43.968925" lon="12.2043333"><ele>162.0</ele><time>2026-04-25T08:46:01.021Z</time></trkpt><trkpt lat="43.969015" lon="12.2043683"><ele>162.0</ele><time>2026-04-25T08:46:04.02Z</time></trkpt><trkpt lat="43.9690933" lon="12.2043967"><ele>162.0</ele><time>2026-04-25T08:46:07.02Z</time></trkpt><trkpt lat="43.9691617" lon="12.2044517"><ele>161.33333333333334</ele><time>2026-04-25T08:46:10.02Z</time></trkpt><trkpt lat="43.9692283" lon="12.2045"><ele>160.66666666666666</ele><time>2026-04-25T08:46:13.021Z</time></trkpt><trkpt lat="43.9693083" lon="12.2045567"><ele>160.0</ele><time>2026-04-25T08:46:16.021Z</time></trkpt><trkpt lat="43.9693883" lon="12.20459"><ele>159.33333333333331</ele><time>2026-04-25T08:46:19.021Z</time></trkpt><trkpt lat="43.9694633" lon="12.2046133"><ele>158.66666666666666</ele><time>2026-04-25T08:46:22.021Z</time></trkpt><trkpt lat="43.9695417" lon="12.20463"><ele>158.0</ele><time>2026-04-25T08:46:25.02Z</time></trkpt><trkpt lat="43.96962" lon="12.204635"><ele>158.0</ele><time>2026-04-25T08:46:28.02Z</time></trkpt><trkpt lat="43.9697" lon="12.2046583"><ele>158.0</ele><time>2026-04-25T08:46:31.02Z</time></trkpt><trkpt lat="43.96978" lon="12.2046717"><ele>158.0</ele><time>2026-04-25T08:46:34.021Z</time></trkpt><trkpt lat="43.9698617" lon="12.2046933"><ele>158.0</ele><time>2026-04-25T08:46:37.021Z</time></trkpt><trkpt lat="43.969945" lon="12.204695"><ele>158.0</ele><time>2026-04-25T08:46:40.021Z</time></trkpt><trkpt lat="43.9700033" lon="12.2047533"><ele>158.0</ele><time>2026-04-25T08:46:42.02Z</time></trkpt><trkpt lat="43.9700517" lon="12.20485"><ele>156.66666666666666</ele><time>2026-04-25T08:46:45.02Z</time></trkpt><trkpt lat="43.97005" lon="12.204975"><ele>155.33333333333331</ele><time>2026-04-25T08:46:48.02Z</time></trkpt><trkpt lat="43.9699767" lon="12.2050333"><ele>154.0</ele><time>2026-04-25T08:46:51.02Z</time></trkpt><trkpt lat="43.9698867" lon="12.20502"><ele>152.66666666666666</ele><time>2026-04-25T08:46:54.021Z</time></trkpt><trkpt lat="43.9697983" lon="12.2050017"><ele>151.33333333333334</ele><time>2026-04-25T08:46:57.021Z</time></trkpt><trkpt lat="43.96972" lon="12.20497"><ele>150.0</ele><time>2026-04-25T08:47:00.021Z</time></trkpt><trkpt lat="43.9696383" lon="12.2049633"><ele>155.5</ele><time>2026-04-25T08:47:03.021Z</time></trkpt><trkpt lat="43.9695567" lon="12.20495"><ele>161.0</ele><time>2026-04-25T08:47:06.02Z</time></trkpt><trkpt lat="43.969475" lon="12.204945"><ele>166.5</ele><time>2026-04-25T08:47:09.02Z</time></trkpt><trkpt lat="43.9694083" lon="12.2049417"><ele>172.0</ele><time>2026-04-25T08:47:11.021Z</time></trkpt><trkpt lat="43.9693233" lon="12.2049217"><ele>177.5</ele><time>2026-04-25T08:47:14.02Z</time></trkpt><trkpt lat="43.9692517" lon="12.2049"><ele>183.0</ele><time>2026-04-25T08:47:17.021Z</time></trkpt><trkpt lat="43.969165" lon="12.2049067"><ele>185.0</ele><time>2026-04-25T08:47:20.021Z</time></trkpt><trkpt lat="43.9690867" lon="12.2049217"><ele>187.0</ele><time>2026-04-25T08:47:23.021Z</time></trkpt><trkpt lat="43.9690183" lon="12.2049367"><ele>189.0</ele><time>2026-04-25T08:47:26.02Z</time></trkpt><trkpt lat="43.968945" lon="12.204945"><ele>191.0</ele><time>2026-04-25T08:47:29.02Z</time></trkpt><trkpt lat="43.9688733" lon="12.2049433"><ele>193.0</ele><time>2026-04-25T08:47:32.021Z</time></trkpt><trkpt lat="43.96879" lon="12.204945"><ele>195.0</ele><time>2026-04-25T08:47:35.021Z</time></trkpt><trkpt lat="43.968725" lon="12.2049433"><ele>197.0</ele><time>2026-04-25T08:47:37.02Z</time></trkpt><trkpt lat="43.96865" lon="12.2049717"><ele>197.00000000000003</ele><time>2026-04-25T08:47:40.021Z</time></trkpt><trkpt lat="43.9685667" lon="12.204995"><ele>197.0</ele><time>2026-04-25T08:47:43.021Z</time></trkpt><trkpt lat="43.9684817" lon="12.2049983"><ele>197.0</ele><time>2026-04-25T08:47:46.021Z</time></trkpt><trkpt lat="43.968415" lon="12.2050117"><ele>197.0</ele><time>2026-04-25T08:47:49.02Z</time></trkpt><trkpt lat="43.9683317" lon="12.205035"><ele>197.00000000000003</ele><time>2026-04-25T08:47:52.021Z</time></trkpt><trkpt lat="43.9682517" lon="12.2050533"><ele>197.0</ele><time>2026-04-25T08:47:55.021Z</time></trkpt><trkpt lat="43.96819" lon="12.2050767"><ele>196.83333333333334</ele><time>2026-04-25T08:47:57.021Z</time></trkpt><trkpt lat="43.968095" lon="12.205105"><ele>196.66666666666669</ele><time>2026-04-25T08:48:00.021Z</time></trkpt><trkpt lat="43.9680317" lon="12.205135"><ele>196.5</ele><time>2026-04-25T08:48:02.021Z</time></trkpt><trkpt lat="43.9679583" lon="12.2051717"><ele>196.33333333333331</ele><time>2026-04-25T08:48:04.021Z</time></trkpt><trkpt lat="43.967875" lon="12.2052283"><ele>196.16666666666666</ele><time>2026-04-25T08:48:07.02Z</time></trkpt><trkpt lat="43.96781" lon="12.2052817"><ele>196.0</ele><time>2026-04-25T08:48:10.02Z</time></trkpt><trkpt lat="43.9677417" lon="12.2053317"><ele>195.99999999999997</ele><time>2026-04-25T08:48:13.02Z</time></trkpt><trkpt lat="43.9676767" lon="12.2053967"><ele>196.0</ele><time>2026-04-25T08:48:16.021Z</time></trkpt><trkpt lat="43.9675967" lon="12.2054533"><ele>196.0</ele><time>2026-04-25T08:48:19.021Z</time></trkpt><trkpt lat="43.96752" lon="12.2054883"><ele>196.0</ele><time>2026-04-25T08:48:22.021Z</time></trkpt><trkpt lat="43.9674517" lon="12.2055267"><ele>195.99999999999997</ele><time>2026-04-25T08:48:25.021Z</time></trkpt><trkpt lat="43.9673817" lon="12.2055767"><ele>196.0</ele><time>2026-04-25T08:48:28.02Z</time></trkpt><trkpt lat="43.9673117" lon="12.20566"><ele>200.16666666666666</ele><time>2026-04-25T08:48:31.02Z</time></trkpt><trkpt lat="43.967245" lon="12.20573"><ele>204.33333333333331</ele><time>2026-04-25T08:48:34.02Z</time></trkpt><trkpt lat="43.9671867" lon="12.2057633"><ele>208.5</ele><time>2026-04-25T08:48:36.021Z</time></trkpt><trkpt lat="43.967135" lon="12.2058167"><ele>212.66666666666669</ele><time>2026-04-25T08:48:38.021Z</time></trkpt><trkpt lat="43.967065" lon="12.2058767"><ele>216.83333333333334</ele><time>2026-04-25T08:48:41.02Z</time></trkpt><trkpt lat="43.9670083" lon="12.2059517"><ele>221.0</ele><time>2026-04-25T08:48:44.021Z</time></trkpt><trkpt lat="43.9669517" lon="12.2060383"><ele>221.00000000000003</ele><time>2026-04-25T08:48:47.02Z</time></trkpt><trkpt lat="43.9668933" lon="12.2061133"><ele>221.0</ele><time>2026-04-25T08:48:50.021Z</time></trkpt><trkpt lat="43.9668483" lon="12.206215"><ele>221.0</ele><time>2026-04-25T08:48:53.021Z</time></trkpt><trkpt lat="43.966805" lon="12.2063033"><ele>221.0</ele><time>2026-04-25T08:48:56.021Z</time></trkpt><trkpt lat="43.9668083" lon="12.206425"><ele>221.00000000000003</ele><time>2026-04-25T08:48:59.021Z</time></trkpt><trkpt lat="43.966825" lon="12.2065317"><ele>221.0</ele><time>2026-04-25T08:49:02.021Z</time></trkpt><trkpt lat="43.9668533" lon="12.2066367"><ele>225.16666666666669</ele><time>2026-04-25T08:49:05.02Z</time></trkpt><trkpt lat="43.96687" lon="12.2067567"><ele>229.33333333333334</ele><time>2026-04-25T08:49:08.021Z</time></trkpt><trkpt lat="43.9668833" lon="12.20687"><ele>233.5</ele><time>2026-04-25T08:49:11.02Z</time></trkpt><trkpt lat="43.966895" lon="12.206985"><ele>237.66666666666669</ele><time>2026-04-25T08:49:14.02Z</time></trkpt><trkpt lat="43.9669" lon="12.207095"><ele>241.83333333333334</ele><time>2026-04-25T08:49:17.02Z</time></trkpt><trkpt lat="43.9669017" lon="12.2072117"><ele>246.0</ele><time>2026-04-25T08:49:20.021Z</time></trkpt><trkpt lat="43.9668983" lon="12.20733"><ele>246.33333333333334</ele><time>2026-04-25T08:49:23.02Z</time></trkpt><trkpt lat="43.9668967" lon="12.20744"><ele>246.66666666666669</ele><time>2026-04-25T08:49:26.02Z</time></trkpt><trkpt lat="43.9669183" lon="12.2075533"><ele>247.0</ele><time>2026-04-25T08:49:29.021Z</time></trkpt><trkpt lat="43.9669483" lon="12.20767"><ele>247.33333333333334</ele><time>2026-04-25T08:49:32.02Z</time></trkpt><trkpt lat="43.9669833" lon="12.20778"><ele>247.66666666666669</ele><time>2026-04-25T08:49:35.02Z</time></trkpt><trkpt lat="43.96701" lon="12.2078933"><ele>248.0</ele><time>2026-04-25T08:49:38.021Z</time></trkpt><trkpt lat="43.967055" lon="12.207995"><ele>248.00000000000003</ele><time>2026-04-25T08:49:41.02Z</time></trkpt><trkpt lat="43.9670683" lon="12.2080883"><ele>248.0</ele><time>2026-04-25T08:49:43.021Z</time></trkpt><trkpt lat="43.9670967" lon="12.2082017"><ele>248.0</ele><time>2026-04-25T08:49:46.021Z</time></trkpt><trkpt lat="43.9670883" lon="12.2083133"><ele>248.0</ele><time>2026-04-25T08:49:49.021Z</time></trkpt><trkpt lat="43.9670433" lon="12.208405"><ele>248.00000000000003</ele><time>2026-04-25T08:49:52.021Z</time></trkpt><trkpt lat="43.966985" lon="12.2084933"><ele>248.0</ele><time>2026-04-25T08:49:55.02Z</time></trkpt><trkpt lat="43.966935" lon="12.20857"><ele>248.16666666666669</ele><time>2026-04-25T08:49:58.021Z</time></trkpt><trkpt lat="43.96694" lon="12.2086883"><ele>248.33333333333334</ele><time>2026-04-25T08:50:01.021Z</time></trkpt><trkpt lat="43.9670067" lon="12.2087483"><ele>248.5</ele><time>2026-04-25T08:50:04.021Z</time></trkpt><trkpt lat="43.9670817" lon="12.20872"><ele>248.66666666666669</ele><time>2026-04-25T08:50:07.021Z</time></trkpt><trkpt lat="43.96714" lon="12.2086383"><ele>248.83333333333334</ele><time>2026-04-25T08:50:10.021Z</time></trkpt><trkpt lat="43.96718" lon="12.2085517"><ele>249.0</ele><time>2026-04-25T08:50:13.021Z</time></trkpt><trkpt lat="43.96721" lon="12.20847"><ele>249.0</ele><time>2026-04-25T08:50:15.021Z</time></trkpt><trkpt lat="43.9672183" lon="12.2083533"><ele>249.0</ele><time>2026-04-25T08:50:18.02Z</time></trkpt><trkpt lat="43.9672083" lon="12.208245"><ele>249.0</ele><time>2026-04-25T08:50:21.02Z</time></trkpt><trkpt lat="43.9672" lon="12.2081467"><ele>249.0</ele><time>2026-04-25T08:50:24.02Z</time></trkpt><trkpt lat="43.9672" lon="12.208035"><ele>249.0</ele><time>2026-04-25T08:50:27.02Z</time></trkpt><trkpt lat="43.9672083" lon="12.2079267"><ele>249.0</ele><time>2026-04-25T08:50:30.021Z</time></trkpt><trkpt lat="43.9672033" lon="12.2078383"><ele>248.85714285714283</ele><time>2026-04-25T08:50:32.02Z</time></trkpt><trkpt lat="43.967195" lon="12.207745"><ele>248.7142857142857</ele><time>2026-04-25T08:50:34.021Z</time></trkpt><trkpt lat="43.9671883" lon="12.2076533"><ele>248.57142857142856</ele><time>2026-04-25T08:50:36.021Z</time></trkpt><trkpt lat="43.967205" lon="12.20753"><ele>248.42857142857144</ele><time>2026-04-25T08:50:39.021Z</time></trkpt><trkpt lat="43.9672333" lon="12.2074433"><ele>248.2857142857143</ele><time>2026-04-25T08:50:41.021Z</time></trkpt><trkpt lat="43.96727" lon="12.2073533"><ele>248.14285714285717</ele><time>2026-04-25T08:50:44.021Z</time></trkpt><trkpt lat="43.9673233" lon="12.207275"><ele>248.0</ele><time>2026-04-25T08:50:47.021Z</time></trkpt><trkpt lat="43.9674" lon="12.207315"><ele>248.00000000000003</ele><time>2026-04-25T08:50:50.021Z</time></trkpt><trkpt lat="43.9674317" lon="12.2074083"><ele>248.0</ele><time>2026-04-25T08:50:53.021Z</time></trkpt><trkpt lat="43.9674117" lon="12.2075267"><ele>248.0</ele><time>2026-04-25T08:50:56.02Z</time></trkpt><trkpt lat="43.9673917" lon="12.2076533"><ele>248.0</ele><time>2026-04-25T08:50:59.021Z</time></trkpt><trkpt lat="43.9673667" lon="12.2077683"><ele>248.00000000000003</ele><time>2026-04-25T08:51:02.021Z</time></trkpt><trkpt lat="43.9673567" lon="12.2078917"><ele>248.0</ele><time>2026-04-25T08:51:05.02Z</time></trkpt><trkpt lat="43.967365" lon="12.2079833"><ele>248.00000000000003</ele><time>2026-04-25T08:51:07.02Z</time></trkpt><trkpt lat="43.9673933" lon="12.2081033"><ele>248.0</ele><time>2026-04-25T08:51:10.021Z</time></trkpt><trkpt lat="43.9674367" lon="12.2082167"><ele>248.0</ele><time>2026-04-25T08:51:13.021Z</time></trkpt><trkpt lat="43.96747" lon="12.2083267"><ele>248.0</ele><time>2026-04-25T08:51:16.021Z</time></trkpt><trkpt lat="43.9675117" lon="12.2084333"><ele>248.00000000000003</ele><time>2026-04-25T08:51:19.02Z</time></trkpt><trkpt lat="43.9675467" lon="12.2085317"><ele>248.0</ele><time>2026-04-25T08:51:22.02Z</time></trkpt><trkpt lat="43.9675433" lon="12.2086333"><ele>248.16666666666669</ele><time>2026-04-25T08:51:25.02Z</time></trkpt><trkpt lat="43.967535" lon="12.2087317"><ele>248.33333333333334</ele><time>2026-04-25T08:51:28.02Z</time></trkpt><trkpt lat="43.967495" lon="12.2088267"><ele>248.5</ele><time>2026-04-25T08:51:31.019Z</time></trkpt><trkpt lat="43.9674317" lon="12.2088933"><ele>248.66666666666669</ele><time>2026-04-25T08:51:34.02Z</time></trkpt><trkpt lat="43.9673667" lon="12.2089817"><ele>248.83333333333334</ele><time>2026-04-25T08:51:37.02Z</time></trkpt><trkpt lat="43.9673217" lon="12.2090433"><ele>249.0</ele><time>2026-04-25T08:51:39.02Z</time></trkpt><trkpt lat="43.967285" lon="12.20914"><ele>248.66666666666666</ele><time>2026-04-25T08:51:42.02Z</time></trkpt><trkpt lat="43.9673067" lon="12.209245"><ele>248.33333333333331</ele><time>2026-04-25T08:51:45.02Z</time></trkpt><trkpt lat="43.96736" lon="12.2093317"><ele>248.0</ele><time>2026-04-25T08:51:48.02Z</time></trkpt><trkpt lat="43.9674267" lon="12.209395"><ele>247.66666666666666</ele><time>2026-04-25T08:51:51.02Z</time></trkpt><trkpt lat="43.9674883" lon="12.2094583"><ele>247.33333333333331</ele><time>2026-04-25T08:51:54.02Z</time></trkpt><trkpt lat="43.9675483" lon="12.20952"><ele>247.0</ele><time>2026-04-25T08:51:57.02Z</time></trkpt><trkpt lat="43.9675917" lon="12.2095967"><ele>252.99999999999997</ele><time>2026-04-25T08:52:00.02Z</time></trkpt><trkpt lat="43.9676283" lon="12.2097083"><ele>259.0</ele><time>2026-04-25T08:52:03.019Z</time></trkpt><trkpt lat="43.9676567" lon="12.2097917"><ele>265.0</ele><time>2026-04-25T08:52:05.02Z</time></trkpt><trkpt lat="43.9676533" lon="12.2099067"><ele>271.0</ele><time>2026-04-25T08:52:08.02Z</time></trkpt><trkpt lat="43.9676333" lon="12.2100233"><ele>277.0</ele><time>2026-04-25T08:52:11.02Z</time></trkpt><trkpt lat="43.9675967" lon="12.2101383"><ele>283.0</ele><time>2026-04-25T08:52:14.019Z</time></trkpt><trkpt lat="43.9675683" lon="12.2102283"><ele>283.5</ele><time>2026-04-25T08:52:16.02Z</time></trkpt><trkpt lat="43.9675633" lon="12.2103367"><ele>284.0</ele><time>2026-04-25T08:52:19.019Z</time></trkpt><trkpt lat="43.967645" lon="12.2103267"><ele>284.5</ele><time>2026-04-25T08:52:22.019Z</time></trkpt><trkpt lat="43.9676767" lon="12.21024"><ele>285.0</ele><time>2026-04-25T08:52:24.02Z</time></trkpt><trkpt lat="43.9677083" lon="12.2101517"><ele>285.5</ele><time>2026-04-25T08:52:26.019Z</time></trkpt><trkpt lat="43.9677333" lon="12.2100333"><ele>286.0</ele><time>2026-04-25T08:52:29.02Z</time></trkpt><trkpt lat="43.96774" lon="12.2099283"><ele>285.5</ele><time>2026-04-25T08:52:32.019Z</time></trkpt><trkpt lat="43.9677333" lon="12.2098133"><ele>285.0</ele><time>2026-04-25T08:52:35.02Z</time></trkpt><trkpt lat="43.9677167" lon="12.2097067"><ele>284.5</ele><time>2026-04-25T08:52:38.019Z</time></trkpt><trkpt lat="43.9677017" lon="12.2096183"><ele>284.0</ele><time>2026-04-25T08:52:41.02Z</time></trkpt><trkpt lat="43.9676617" lon="12.2095183"><ele>283.5</ele><time>2026-04-25T08:52:44.02Z</time></trkpt><trkpt lat="43.9676233" lon="12.2094167"><ele>283.0</ele><time>2026-04-25T08:52:47.02Z</time></trkpt><trkpt lat="43.9676033" lon="12.2093117"><ele>283.0</ele><time>2026-04-25T08:52:50.019Z</time></trkpt><trkpt lat="43.9676383" lon="12.209205"><ele>283.0</ele><time>2026-04-25T08:52:53.019Z</time></trkpt><trkpt lat="43.9677167" lon="12.20915"><ele>283.0</ele><time>2026-04-25T08:52:56.02Z</time></trkpt><trkpt lat="43.96779" lon="12.2091317"><ele>283.0</ele><time>2026-04-25T08:52:58.02Z</time></trkpt><trkpt lat="43.9678817" lon="12.209095"><ele>283.0</ele><time>2026-04-25T08:53:01.02Z</time></trkpt><trkpt lat="43.9679617" lon="12.2090617"><ele>283.0</ele><time>2026-04-25T08:53:04.02Z</time></trkpt><trkpt lat="43.968035" lon="12.209035"><ele>282.3333333333333</ele><time>2026-04-25T08:53:07.02Z</time></trkpt><trkpt lat="43.9681167" lon="12.20897"><ele>281.66666666666663</ele><time>2026-04-25T08:53:10.02Z</time></trkpt><trkpt lat="43.9681717" lon="12.20892"><ele>281.0</ele><time>2026-04-25T08:53:12.019Z</time></trkpt><trkpt lat="43.9682367" lon="12.20885"><ele>280.3333333333333</ele><time>2026-04-25T08:53:15.019Z</time></trkpt><trkpt lat="43.96828" lon="12.208765"><ele>279.6666666666667</ele><time>2026-04-25T08:53:20.02Z</time></trkpt><trkpt lat="43.9682833" lon="12.2086517"><ele>279.0</ele><time>2026-04-25T08:53:24.019Z</time></trkpt><trkpt lat="43.9682667" lon="12.2085617"><ele>279.0</ele><time>2026-04-25T08:53:27.02Z</time></trkpt><trkpt lat="43.9682517" lon="12.2084667"><ele>279.0</ele><time>2026-04-25T08:53:30.02Z</time></trkpt><trkpt lat="43.968225" lon="12.2083667"><ele>279.0</ele><time>2026-04-25T08:53:33.02Z</time></trkpt><trkpt lat="43.968185" lon="12.208275"><ele>279.0</ele><time>2026-04-25T08:53:36.02Z</time></trkpt><trkpt lat="43.96814" lon="12.20818"><ele>279.0</ele><time>2026-04-25T08:53:39.02Z</time></trkpt><trkpt lat="43.9680933" lon="12.2080967"><ele>279.0</ele><time>2026-04-25T08:53:42.02Z</time></trkpt><trkpt lat="43.968045" lon="12.2080033"><ele>278.5</ele><time>2026-04-25T08:53:45.02Z</time></trkpt><trkpt lat="43.968025" lon="12.2078883"><ele>278.0</ele><time>2026-04-25T08:53:48.019Z</time></trkpt><trkpt lat="43.9680417" lon="12.2077967"><ele>277.5</ele><time>2026-04-25T08:53:50.02Z</time></trkpt><trkpt lat="43.9680783" lon="12.2077033"><ele>277.0</ele><time>2026-04-25T08:53:53.02Z</time></trkpt><trkpt lat="43.9681267" lon="12.2076017"><ele>276.5</ele><time>2026-04-25T08:53:56.02Z</time></trkpt><trkpt lat="43.9681717" lon="12.2075017"><ele>276.0</ele><time>2026-04-25T08:53:59.019Z</time></trkpt><trkpt lat="43.9682217" lon="12.2074017"><ele>274.6666666666667</ele><time>2026-04-25T08:54:02.02Z</time></trkpt><trkpt lat="43.9682533" lon="12.2073117"><ele>273.3333333333333</ele><time>2026-04-25T08:54:05.02Z</time></trkpt><trkpt lat="43.968295" lon="12.2072333"><ele>272.0</ele><time>2026-04-25T08:54:08.019Z</time></trkpt><trkpt lat="43.9683567" lon="12.2072517"><ele>270.66666666666663</ele><time>2026-04-25T08:54:11.02Z</time></trkpt><trkpt lat="43.9684283" lon="12.2073067"><ele>269.3333333333333</ele><time>2026-04-25T08:54:14.019Z</time></trkpt><trkpt lat="43.9685183" lon="12.207305"><ele>268.0</ele><time>2026-04-25T08:54:17.019Z</time></trkpt><trkpt lat="43.96857" lon="12.2073883"><ele>266.57142857142856</ele><time>2026-04-25T08:54:20.02Z</time></trkpt><trkpt lat="43.9685933" lon="12.2075117"><ele>265.1428571428571</ele><time>2026-04-25T08:54:23.02Z</time></trkpt><trkpt lat="43.9685967" lon="12.2076017"><ele>263.71428571428567</ele><time>2026-04-25T08:54:25.019Z</time></trkpt><trkpt lat="43.9686033" lon="12.2076917"><ele>262.2857142857143</ele><time>2026-04-25T08:54:27.02Z</time></trkpt><trkpt lat="43.968615" lon="12.2077867"><ele>260.85714285714283</ele><time>2026-04-25T08:54:29.02Z</time></trkpt><trkpt lat="43.9686267" lon="12.2078767"><ele>259.4285714285714</ele><time>2026-04-25T08:54:31.02Z</time></trkpt><trkpt lat="43.968635" lon="12.207965"><ele>258.0</ele><time>2026-04-25T08:54:33.019Z</time></trkpt><trkpt lat="43.96865" lon="12.2080583"><ele>257.99999999999994</ele><time>2026-04-25T08:54:35.019Z</time></trkpt><trkpt lat="43.968645" lon="12.2081467"><ele>258.0</ele><time>2026-04-25T08:54:37.02Z</time></trkpt><trkpt lat="43.96866" lon="12.2082367"><ele>258.0</ele><time>2026-04-25T08:54:39.02Z</time></trkpt><trkpt lat="43.9686783" lon="12.2083267"><ele>258.0</ele><time>2026-04-25T08:54:41.02Z</time></trkpt><trkpt lat="43.9687033" lon="12.2084167"><ele>258.0</ele><time>2026-04-25T08:54:43.02Z</time></trkpt><trkpt lat="43.9687217" lon="12.2085017"><ele>257.99999999999994</ele><time>2026-04-25T08:54:45.02Z</time></trkpt><trkpt lat="43.968735" lon="12.208595"><ele>258.0</ele><time>2026-04-25T08:54:47.02Z</time></trkpt><trkpt lat="43.9687533" lon="12.2086917"><ele>258.8333333333333</ele><time>2026-04-25T08:54:49.02Z</time></trkpt><trkpt lat="43.9687683" lon="12.2087767"><ele>259.6666666666667</ele><time>2026-04-25T08:54:51.02Z</time></trkpt><trkpt lat="43.9687533" lon="12.2089"><ele>260.5</ele><time>2026-04-25T08:54:54.02Z</time></trkpt><trkpt lat="43.9687333" lon="12.2090233"><ele>261.33333333333337</ele><time>2026-04-25T08:54:57.019Z</time></trkpt><trkpt lat="43.9687167" lon="12.2091383"><ele>262.1666666666667</ele><time>2026-04-25T08:55:00.019Z</time></trkpt><trkpt lat="43.9686883" lon="12.2092517"><ele>263.0</ele><time>2026-04-25T08:55:03.02Z</time></trkpt><trkpt lat="43.9686483" lon="12.2093533"><ele>264.0</ele><time>2026-04-25T08:55:06.019Z</time></trkpt><trkpt lat="43.9686117" lon="12.2094433"><ele>265.0</ele><time>2026-04-25T08:55:09.019Z</time></trkpt><trkpt lat="43.9685767" lon="12.2095383"><ele>266.0</ele><time>2026-04-25T08:55:12.019Z</time></trkpt><trkpt lat="43.96856" lon="12.209635"><ele>267.0</ele><time>2026-04-25T08:55:15.02Z</time></trkpt><trkpt lat="43.9685617" lon="12.209745"><ele>268.0</ele><time>2026-04-25T08:55:18.02Z</time></trkpt><trkpt lat="43.9685733" lon="12.2098433"><ele>269.0</ele><time>2026-04-25T08:55:21.02Z</time></trkpt><trkpt lat="43.9686067" lon="12.2099383"><ele>270.8571428571429</ele><time>2026-04-25T08:55:25.02Z</time></trkpt><trkpt lat="43.968635" lon="12.2100283"><ele>272.7142857142857</ele><time>2026-04-25T08:55:29.019Z</time></trkpt><trkpt lat="43.9686533" lon="12.2101133"><ele>274.57142857142856</ele><time>2026-04-25T08:55:33.02Z</time></trkpt><trkpt lat="43.9686683" lon="12.2102033"><ele>276.42857142857144</ele><time>2026-04-25T08:55:37.02Z</time></trkpt><trkpt lat="43.968685" lon="12.2103067"><ele>278.2857142857143</ele><time>2026-04-25T08:55:41.02Z</time></trkpt><trkpt lat="43.9687067" lon="12.2104133"><ele>280.14285714285717</ele><time>2026-04-25T08:55:45.019Z</time></trkpt><trkpt lat="43.9687133" lon="12.210515"><ele>282.0</ele><time>2026-04-25T08:55:49.019Z</time></trkpt><trkpt lat="43.96872" lon="12.2106183"><ele>284.42857142857144</ele><time>2026-04-25T08:55:53.019Z</time></trkpt><trkpt lat="43.9687333" lon="12.210715"><ele>286.85714285714283</ele><time>2026-04-25T08:55:57.02Z</time></trkpt><trkpt lat="43.9687417" lon="12.21083"><ele>289.2857142857143</ele><time>2026-04-25T08:56:01.02Z</time></trkpt><trkpt lat="43.968735" lon="12.2109217"><ele>291.7142857142857</ele><time>2026-04-25T08:56:04.019Z</time></trkpt><trkpt lat="43.9687083" lon="12.2110167"><ele>294.14285714285717</ele><time>2026-04-25T08:56:07.019Z</time></trkpt><trkpt lat="43.968685" lon="12.211125"><ele>296.57142857142856</ele><time>2026-04-25T08:56:11.02Z</time></trkpt><trkpt lat="43.9686683" lon="12.2112233"><ele>299.0</ele><time>2026-04-25T08:56:15.019Z</time></trkpt><trkpt lat="43.968655" lon="12.2113117"><ele>299.0</ele><time>2026-04-25T08:56:18.02Z</time></trkpt><trkpt lat="43.9686317" lon="12.2114017"><ele>299.0</ele><time>2026-04-25T08:56:21.02Z</time></trkpt><trkpt lat="43.96861" lon="12.211485"><ele>299.0</ele><time>2026-04-25T08:56:24.02Z</time></trkpt><trkpt lat="43.96859" lon="12.2115983"><ele>299.0</ele><time>2026-04-25T08:56:28.02Z</time></trkpt><trkpt lat="43.968575" lon="12.2116883"><ele>299.0</ele><time>2026-04-25T08:56:31.019Z</time></trkpt><trkpt lat="43.9685667" lon="12.2117933"><ele>299.0</ele><time>2026-04-25T08:56:34.019Z</time></trkpt><trkpt lat="43.9685517" lon="12.2118983"><ele>299.0</ele><time>2026-04-25T08:56:37.019Z</time></trkpt><trkpt lat="43.968535" lon="12.2119933"><ele>301.1666666666667</ele><time>2026-04-25T08:56:40.02Z</time></trkpt><trkpt lat="43.9685283" lon="12.2121017"><ele>303.33333333333337</ele><time>2026-04-25T08:56:44.019Z</time></trkpt><trkpt lat="43.96852" lon="12.21219"><ele>305.5</ele><time>2026-04-25T08:56:47.019Z</time></trkpt><trkpt lat="43.968505" lon="12.21228"><ele>307.6666666666667</ele><time>2026-04-25T08:56:50.019Z</time></trkpt><trkpt lat="43.9684983" lon="12.21239"><ele>309.8333333333333</ele><time>2026-04-25T08:56:54.02Z</time></trkpt><trkpt lat="43.9685017" lon="12.2125067"><ele>312.0</ele><time>2026-04-25T08:56:58.019Z</time></trkpt><trkpt lat="43.9685" lon="12.2126233"><ele>313.7142857142857</ele><time>2026-04-25T08:57:02.02Z</time></trkpt><trkpt lat="43.9685" lon="12.212715"><ele>315.4285714285714</ele><time>2026-04-25T08:57:05.02Z</time></trkpt><trkpt lat="43.9685117" lon="12.2128233"><ele>317.1428571428571</ele><time>2026-04-25T08:57:09.02Z</time></trkpt><trkpt lat="43.9685417" lon="12.212925"><ele>318.8571428571429</ele><time>2026-04-25T08:57:13.019Z</time></trkpt><trkpt lat="43.96856" lon="12.2130233"><ele>320.57142857142856</ele><time>2026-04-25T08:57:16.02Z</time></trkpt><trkpt lat="43.9686117" lon="12.2131217"><ele>322.2857142857143</ele><time>2026-04-25T08:57:20.02Z</time></trkpt><trkpt lat="43.9686517" lon="12.2131917"><ele>324.0</ele><time>2026-04-25T08:57:23.02Z</time></trkpt><trkpt lat="43.9687" lon="12.2132483"><ele>324.6666666666667</ele><time>2026-04-25T08:57:26.019Z</time></trkpt><trkpt lat="43.9687667" lon="12.2133117"><ele>325.3333333333333</ele><time>2026-04-25T08:57:30.019Z</time></trkpt><trkpt lat="43.9688433" lon="12.2133533"><ele>326.0</ele><time>2026-04-25T08:57:34.02Z</time></trkpt><trkpt lat="43.9689083" lon="12.213375"><ele>326.66666666666663</ele><time>2026-04-25T08:57:37.02Z</time></trkpt><trkpt lat="43.9689917" lon="12.2133967"><ele>327.3333333333333</ele><time>2026-04-25T08:57:41.02Z</time></trkpt><trkpt lat="43.96906" lon="12.2133917"><ele>328.0</ele><time>2026-04-25T08:57:44.019Z</time></trkpt><trkpt lat="43.96913" lon="12.2133917"><ele>329.2857142857143</ele><time>2026-04-25T08:57:47.019Z</time></trkpt><trkpt lat="43.9692067" lon="12.213375"><ele>330.57142857142856</ele><time>2026-04-25T08:57:51.019Z</time></trkpt><trkpt lat="43.96927" lon="12.21336"><ele>331.8571428571429</ele><time>2026-04-25T08:57:54.02Z</time></trkpt><trkpt lat="43.9693467" lon="12.2133267"><ele>333.1428571428571</ele><time>2026-04-25T08:57:58.02Z</time></trkpt><trkpt lat="43.9694067" lon="12.2132983"><ele>334.42857142857144</ele><time>2026-04-25T08:58:01.02Z</time></trkpt><trkpt lat="43.9694717" lon="12.2132567"><ele>335.7142857142857</ele><time>2026-04-25T08:58:05.02Z</time></trkpt><trkpt lat="43.96954" lon="12.2132"><ele>337.0</ele><time>2026-04-25T08:58:10.02Z</time></trkpt><trkpt lat="43.96959" lon="12.213145"><ele>337.00000000000006</ele><time>2026-04-25T08:58:13.019Z</time></trkpt><trkpt lat="43.9696517" lon="12.2131067"><ele>337.0</ele><time>2026-04-25T08:58:16.02Z</time></trkpt><trkpt lat="43.9696983" lon="12.2130333"><ele>337.0</ele><time>2026-04-25T08:58:20.019Z</time></trkpt><trkpt lat="43.9697467" lon="12.2129683"><ele>337.0</ele><time>2026-04-25T08:58:24.02Z</time></trkpt><trkpt lat="43.9698067" lon="12.2129033"><ele>337.0</ele><time>2026-04-25T08:58:28.02Z</time></trkpt><trkpt lat="43.9698617" lon="12.212845"><ele>337.00000000000006</ele><time>2026-04-25T08:58:32.02Z</time></trkpt><trkpt lat="43.969925" lon="12.2128333"><ele>337.0</ele><time>2026-04-25T08:58:36.019Z</time></trkpt><trkpt lat="43.9699617" lon="12.21292"><ele>337.00000000000006</ele><time>2026-04-25T08:58:40.019Z</time></trkpt><trkpt lat="43.9699883" lon="12.213005"><ele>337.0</ele><time>2026-04-25T08:58:44.018Z</time></trkpt><trkpt lat="43.970025" lon="12.21309"><ele>337.0</ele><time>2026-04-25T08:58:48.019Z</time></trkpt><trkpt lat="43.9700483" lon="12.2131717"><ele>337.0</ele><time>2026-04-25T08:58:52.019Z</time></trkpt><trkpt lat="43.9700767" lon="12.21325"><ele>337.0</ele><time>2026-04-25T08:58:56.018Z</time></trkpt><trkpt lat="43.9701167" lon="12.2133383"><ele>337.00000000000006</ele><time>2026-04-25T08:59:01.019Z</time></trkpt><trkpt lat="43.9701317" lon="12.2134333"><ele>337.0</ele><time>2026-04-25T08:59:06.018Z</time></trkpt><trkpt lat="43.9701567" lon="12.2135183"><ele>338.5714285714286</ele><time>2026-04-25T08:59:10.018Z</time></trkpt><trkpt lat="43.970185" lon="12.2136067"><ele>340.14285714285717</ele><time>2026-04-25T08:59:14.018Z</time></trkpt><trkpt lat="43.97022" lon="12.213695"><ele>341.7142857142857</ele><time>2026-04-25T08:59:18.019Z</time></trkpt><trkpt lat="43.9702417" lon="12.2137817"><ele>343.28571428571433</ele><time>2026-04-25T08:59:21.019Z</time></trkpt><trkpt lat="43.9702767" lon="12.213865"><ele>344.8571428571429</ele><time>2026-04-25T08:59:24.019Z</time></trkpt><trkpt lat="43.9703017" lon="12.2139517"><ele>346.42857142857144</ele><time>2026-04-25T08:59:27.018Z</time></trkpt><trkpt lat="43.9703267" lon="12.21405"><ele>348.0</ele><time>2026-04-25T08:59:30.019Z</time></trkpt><trkpt lat="43.97037" lon="12.2141383"><ele>348.0</ele><time>2026-04-25T08:59:35.018Z</time></trkpt><trkpt lat="43.9704067" lon="12.21423"><ele>348.0</ele><time>2026-04-25T08:59:39.019Z</time></trkpt><trkpt lat="43.9704367" lon="12.2143183"><ele>348.0</ele><time>2026-04-25T08:59:42.018Z</time></trkpt><trkpt lat="43.9704767" lon="12.2144267"><ele>348.0</ele><time>2026-04-25T08:59:45.019Z</time></trkpt><trkpt lat="43.9705167" lon="12.2144983"><ele>348.0</ele><time>2026-04-25T08:59:47.018Z</time></trkpt><trkpt lat="43.9705517" lon="12.214585"><ele>348.0</ele><time>2026-04-25T08:59:49.019Z</time></trkpt><trkpt lat="43.9705817" lon="12.2146883"><ele>348.0</ele><time>2026-04-25T08:59:51.019Z</time></trkpt><trkpt lat="43.9706133" lon="12.2147983"><ele>348.0</ele><time>2026-04-25T08:59:53.019Z</time></trkpt><trkpt lat="43.9706367" lon="12.2149183"><ele>348.0</ele><time>2026-04-25T08:59:55.019Z</time></trkpt><trkpt lat="43.9706617" lon="12.2150333"><ele>348.0</ele><time>2026-04-25T08:59:57.019Z</time></trkpt><trkpt lat="43.9706867" lon="12.2151733"><ele>348.0</ele><time>2026-04-25T08:59:59.018Z</time></trkpt><trkpt lat="43.9707133" lon="12.2153367"><ele>348.25</ele><time>2026-04-25T09:00:01.018Z</time></trkpt><trkpt lat="43.970735" lon="12.21551"><ele>348.5</ele><time>2026-04-25T09:00:03.019Z</time></trkpt><trkpt lat="43.9707517" lon="12.21568"><ele>348.75</ele><time>2026-04-25T09:00:05.018Z</time></trkpt><trkpt lat="43.9707683" lon="12.2158317"><ele>349.0</ele><time>2026-04-25T09:00:07.019Z</time></trkpt><trkpt lat="43.9707833" lon="12.2159583"><ele>348.99999999999994</ele><time>2026-04-25T09:00:09.019Z</time></trkpt><trkpt lat="43.9707983" lon="12.2160617"><ele>349.0</ele><time>2026-04-25T09:00:11.019Z</time></trkpt><trkpt lat="43.9708183" lon="12.2161633"><ele>349.0</ele><time>2026-04-25T09:00:14.019Z</time></trkpt><trkpt lat="43.970815" lon="12.2160567"><ele>349.0</ele><time>2026-04-25T09:00:33.019Z</time></trkpt><trkpt lat="43.9707967" lon="12.2159533"><ele>349.0</ele><time>2026-04-25T09:00:37.018Z</time></trkpt><trkpt lat="43.9707783" lon="12.2158617"><ele>348.99999999999994</ele><time>2026-04-25T09:00:40.019Z</time></trkpt><trkpt lat="43.9707617" lon="12.2157733"><ele>349.0</ele><time>2026-04-25T09:00:43.019Z</time></trkpt><trkpt lat="43.9707533" lon="12.2156717"><ele>348.5</ele><time>2026-04-25T09:00:46.018Z</time></trkpt><trkpt lat="43.9707367" lon="12.2155617"><ele>348.0</ele><time>2026-04-25T09:00:49.019Z</time></trkpt><trkpt lat="43.9707283" lon="12.215455"><ele>347.5</ele><time>2026-04-25T09:00:52.019Z</time></trkpt><trkpt lat="43.9707133" lon="12.2153333"><ele>347.0</ele><time>2026-04-25T09:00:55.019Z</time></trkpt><trkpt lat="43.970695" lon="12.2152233"><ele>346.5</ele><time>2026-04-25T09:00:58.018Z</time></trkpt><trkpt lat="43.970675" lon="12.2151"><ele>346.0</ele><time>2026-04-25T09:01:01.019Z</time></trkpt><trkpt lat="43.9706583" lon="12.2149717"><ele>346.0</ele><time>2026-04-25T09:01:04.019Z</time></trkpt><trkpt lat="43.970625" lon="12.21485"><ele>346.0</ele><time>2026-04-25T09:01:07.019Z</time></trkpt><trkpt lat="43.9706" lon="12.21475"><ele>346.0</ele><time>2026-04-25T09:01:09.019Z</time></trkpt><trkpt lat="43.9705667" lon="12.21466"><ele>346.0</ele><time>2026-04-25T09:01:11.018Z</time></trkpt><trkpt lat="43.970525" lon="12.214575"><ele>346.0</ele><time>2026-04-25T09:01:13.019Z</time></trkpt><trkpt lat="43.970495" lon="12.2144767"><ele>346.0</ele><time>2026-04-25T09:01:15.019Z</time></trkpt><trkpt lat="43.9704617" lon="12.214385"><ele>346.3333333333333</ele><time>2026-04-25T09:01:17.018Z</time></trkpt><trkpt lat="43.970425" lon="12.21431"><ele>346.66666666666663</ele><time>2026-04-25T09:01:19.019Z</time></trkpt><trkpt lat="43.9704033" lon="12.2142217"><ele>347.0</ele><time>2026-04-25T09:01:21.019Z</time></trkpt><trkpt lat="43.9703667" lon="12.214135"><ele>347.3333333333333</ele><time>2026-04-25T09:01:23.018Z</time></trkpt><trkpt lat="43.9703217" lon="12.2140367"><ele>347.6666666666667</ele><time>2026-04-25T09:01:25.018Z</time></trkpt><trkpt lat="43.9702883" lon="12.2139117"><ele>348.0</ele><time>2026-04-25T09:01:27.019Z</time></trkpt><trkpt lat="43.97024" lon="12.21376"><ele>347.4</ele><time>2026-04-25T09:01:29.019Z</time></trkpt><trkpt lat="43.9701867" lon="12.213605"><ele>346.79999999999995</ele><time>2026-04-25T09:01:31.018Z</time></trkpt><trkpt lat="43.970155" lon="12.2135267"><ele>346.2</ele><time>2026-04-25T09:01:32.018Z</time></trkpt><trkpt lat="43.97011" lon="12.2133783"><ele>345.6</ele><time>2026-04-25T09:01:34.018Z</time></trkpt><trkpt lat="43.9700633" lon="12.2132367"><ele>345.0</ele><time>2026-04-25T09:01:36.018Z</time></trkpt><trkpt lat="43.9700283" lon="12.2130783"><ele>343.4</ele><time>2026-04-25T09:01:38.019Z</time></trkpt><trkpt lat="43.9699983" lon="12.2129433"><ele>341.8</ele><time>2026-04-25T09:01:40.019Z</time></trkpt><trkpt lat="43.9699517" lon="12.2128567"><ele>340.20000000000005</ele><time>2026-04-25T09:01:42.019Z</time></trkpt><trkpt lat="43.9698583" lon="12.2128533"><ele>338.6</ele><time>2026-04-25T09:01:44.019Z</time></trkpt><trkpt lat="43.9697667" lon="12.212955"><ele>337.0</ele><time>2026-04-25T09:01:46.019Z</time></trkpt><trkpt lat="43.9697033" lon="12.2130367"><ele>337.0</ele><time>2026-04-25T09:01:47.019Z</time></trkpt><trkpt lat="43.9696367" lon="12.2131167"><ele>337.0</ele><time>2026-04-25T09:01:48.018Z</time></trkpt><trkpt lat="43.9695683" lon="12.2131817"><ele>337.0</ele><time>2026-04-25T09:01:49.019Z</time></trkpt><trkpt lat="43.9694983" lon="12.2132367"><ele>337.0</ele><time>2026-04-25T09:01:50.019Z</time></trkpt><trkpt lat="43.9694283" lon="12.2132783"><ele>337.0</ele><time>2026-04-25T09:01:51.018Z</time></trkpt><trkpt lat="43.9693533" lon="12.2133083"><ele>337.0</ele><time>2026-04-25T09:01:52.019Z</time></trkpt><trkpt lat="43.9692783" lon="12.213335"><ele>338.3333333333333</ele><time>2026-04-25T09:01:53.019Z</time></trkpt><trkpt lat="43.9692" lon="12.2133667"><ele>339.66666666666663</ele><time>2026-04-25T09:01:54.018Z</time></trkpt><trkpt lat="43.96912" lon="12.21339"><ele>341.0</ele><time>2026-04-25T09:01:55.019Z</time></trkpt><trkpt lat="43.9690433" lon="12.2133983"><ele>342.3333333333333</ele><time>2026-04-25T09:01:56.018Z</time></trkpt><trkpt lat="43.9689617" lon="12.2133933"><ele>343.6666666666667</ele><time>2026-04-25T09:01:57.018Z</time></trkpt><trkpt lat="43.9688867" lon="12.2133833"><ele>345.0</ele><time>2026-04-25T09:01:58.019Z</time></trkpt><trkpt lat="43.9688183" lon="12.21335"><ele>342.1666666666667</ele><time>2026-04-25T09:01:59.018Z</time></trkpt><trkpt lat="43.9687533" lon="12.2133117"><ele>339.3333333333333</ele><time>2026-04-25T09:02:00.019Z</time></trkpt><trkpt lat="43.9686933" lon="12.2132567"><ele>336.5</ele><time>2026-04-25T09:02:01.018Z</time></trkpt><trkpt lat="43.9686433" lon="12.2131833"><ele>333.66666666666663</ele><time>2026-04-25T09:02:02.018Z</time></trkpt><trkpt lat="43.9686033" lon="12.2131133"><ele>330.8333333333333</ele><time>2026-04-25T09:02:03.019Z</time></trkpt><trkpt lat="43.9685367" lon="12.212985"><ele>328.0</ele><time>2026-04-25T09:02:05.019Z</time></trkpt><trkpt lat="43.9685117" lon="12.2128433"><ele>327.2</ele><time>2026-04-25T09:02:07.019Z</time></trkpt><trkpt lat="43.9684983" lon="12.2126617"><ele>326.4</ele><time>2026-04-25T09:02:09.019Z</time></trkpt><trkpt lat="43.9684967" lon="12.2125567"><ele>325.59999999999997</ele><time>2026-04-25T09:02:10.018Z</time></trkpt><trkpt lat="43.968495" lon="12.2124433"><ele>324.79999999999995</ele><time>2026-04-25T09:02:11.019Z</time></trkpt><trkpt lat="43.9685" lon="12.2123267"><ele>324.0</ele><time>2026-04-25T09:02:12.019Z</time></trkpt><trkpt lat="43.968505" lon="12.2122"><ele>322.0</ele><time>2026-04-25T09:02:13.019Z</time></trkpt><trkpt lat="43.9685233" lon="12.2120767"><ele>320.0</ele><time>2026-04-25T09:02:14.018Z</time></trkpt><trkpt lat="43.96854" lon="12.21196"><ele>318.0</ele><time>2026-04-25T09:02:15.018Z</time></trkpt><trkpt lat="43.9685533" lon="12.2118417"><ele>316.0</ele><time>2026-04-25T09:02:16.019Z</time></trkpt><trkpt lat="43.9685683" lon="12.211735"><ele>314.0</ele><time>2026-04-25T09:02:17.018Z</time></trkpt><trkpt lat="43.968585" lon="12.2116283"><ele>312.0</ele><time>2026-04-25T09:02:18.018Z</time></trkpt><trkpt lat="43.9685933" lon="12.21153"><ele>309.4</ele><time>2026-04-25T09:02:19.019Z</time></trkpt><trkpt lat="43.9686083" lon="12.2114283"><ele>306.79999999999995</ele><time>2026-04-25T09:02:20.018Z</time></trkpt><trkpt lat="43.968625" lon="12.2113317"><ele>304.2</ele><time>2026-04-25T09:02:21.018Z</time></trkpt><trkpt lat="43.9686667" lon="12.2111767"><ele>301.59999999999997</ele><time>2026-04-25T09:02:23.018Z</time></trkpt><trkpt lat="43.96871" lon="12.211015"><ele>299.0</ele><time>2026-04-25T09:02:25.019Z</time></trkpt><trkpt lat="43.9687333" lon="12.2108567"><ele>299.0</ele><time>2026-04-25T09:02:27.019Z</time></trkpt><trkpt lat="43.9687333" lon="12.2106867"><ele>299.0</ele><time>2026-04-25T09:02:29.019Z</time></trkpt><trkpt lat="43.9687267" lon="12.2105283"><ele>299.0</ele><time>2026-04-25T09:02:31.018Z</time></trkpt><trkpt lat="43.9687133" lon="12.2103833"><ele>299.0</ele><time>2026-04-25T09:02:33.019Z</time></trkpt><trkpt lat="43.96868" lon="12.210215"><ele>296.1666666666667</ele><time>2026-04-25T09:02:35.018Z</time></trkpt><trkpt lat="43.9686583" lon="12.21012"><ele>293.33333333333337</ele><time>2026-04-25T09:02:36.019Z</time></trkpt><trkpt lat="43.9686317" lon="12.210035"><ele>290.5</ele><time>2026-04-25T09:02:37.018Z</time></trkpt><trkpt lat="43.968615" lon="12.20995"><ele>287.6666666666667</ele><time>2026-04-25T09:02:38.018Z</time></trkpt><trkpt lat="43.9686033" lon="12.2098583"><ele>284.8333333333333</ele><time>2026-04-25T09:02:39.019Z</time></trkpt><trkpt lat="43.9686083" lon="12.209685"><ele>282.0</ele><time>2026-04-25T09:02:41.018Z</time></trkpt><trkpt lat="43.968625" lon="12.2095967"><ele>279.8333333333333</ele><time>2026-04-25T09:02:42.019Z</time></trkpt><trkpt lat="43.9686467" lon="12.20951"><ele>277.6666666666667</ele><time>2026-04-25T09:02:43.019Z</time></trkpt><trkpt lat="43.96867" lon="12.2094233"><ele>275.5</ele><time>2026-04-25T09:02:44.019Z</time></trkpt><trkpt lat="43.9687217" lon="12.209275"><ele>273.33333333333337</ele><time>2026-04-25T09:02:46.018Z</time></trkpt><trkpt lat="43.96874" lon="12.2091567"><ele>271.1666666666667</ele><time>2026-04-25T09:02:47.019Z</time></trkpt><trkpt lat="43.9687617" lon="12.20905"><ele>269.0</ele><time>2026-04-25T09:02:48.019Z</time></trkpt><trkpt lat="43.9687767" lon="12.20893"><ele>268.0</ele><time>2026-04-25T09:02:49.019Z</time></trkpt><trkpt lat="43.9687867" lon="12.2088067"><ele>267.0</ele><time>2026-04-25T09:02:50.019Z</time></trkpt><trkpt lat="43.9687733" lon="12.2086933"><ele>266.0</ele><time>2026-04-25T09:02:51.018Z</time></trkpt><trkpt lat="43.9687533" lon="12.2085667"><ele>265.0</ele><time>2026-04-25T09:02:52.019Z</time></trkpt><trkpt lat="43.9687367" lon="12.20844"><ele>264.0</ele><time>2026-04-25T09:02:53.018Z</time></trkpt><trkpt lat="43.9687167" lon="12.20832"><ele>263.0</ele><time>2026-04-25T09:02:54.019Z</time></trkpt><trkpt lat="43.9686967" lon="12.2082033"><ele>262.0</ele><time>2026-04-25T09:02:55.019Z</time></trkpt><trkpt lat="43.9686733" lon="12.2080817"><ele>261.0</ele><time>2026-04-25T09:02:56.019Z</time></trkpt><trkpt lat="43.9686417" lon="12.2079567"><ele>260.0</ele><time>2026-04-25T09:02:57.019Z</time></trkpt><trkpt lat="43.9686083" lon="12.207825"><ele>259.0</ele><time>2026-04-25T09:02:58.018Z</time></trkpt><trkpt lat="43.96859" lon="12.207705"><ele>258.0</ele><time>2026-04-25T09:02:59.019Z</time></trkpt><trkpt lat="43.96857" lon="12.2075917"><ele>258.0</ele><time>2026-04-25T09:03:00.019Z</time></trkpt><trkpt lat="43.9685633" lon="12.20749"><ele>258.0</ele><time>2026-04-25T09:03:01.018Z</time></trkpt><trkpt lat="43.9685217" lon="12.2073433"><ele>258.0</ele><time>2026-04-25T09:03:03.019Z</time></trkpt><trkpt lat="43.968425" lon="12.2072517"><ele>258.0</ele><time>2026-04-25T09:03:05.018Z</time></trkpt><trkpt lat="43.96833" lon="12.207215"><ele>258.0</ele><time>2026-04-25T09:03:07.019Z</time></trkpt><trkpt lat="43.9682633" lon="12.20723"><ele>259.6666666666667</ele><time>2026-04-25T09:03:09.018Z</time></trkpt><trkpt lat="43.9682217" lon="12.2073217"><ele>261.3333333333333</ele><time>2026-04-25T09:03:11.018Z</time></trkpt><trkpt lat="43.96818" lon="12.2074183"><ele>263.0</ele><time>2026-04-25T09:03:12.019Z</time></trkpt><trkpt lat="43.9681433" lon="12.2075167"><ele>264.66666666666663</ele><time>2026-04-25T09:03:13.018Z</time></trkpt><trkpt lat="43.9681083" lon="12.2076217"><ele>266.3333333333333</ele><time>2026-04-25T09:03:14.019Z</time></trkpt><trkpt lat="43.968075" lon="12.2077183"><ele>268.0</ele><time>2026-04-25T09:03:15.018Z</time></trkpt><trkpt lat="43.96805" lon="12.2078067"><ele>269.3333333333333</ele><time>2026-04-25T09:03:16.018Z</time></trkpt><trkpt lat="43.9680517" lon="12.2078983"><ele>270.66666666666663</ele><time>2026-04-25T09:03:17.019Z</time></trkpt><trkpt lat="43.9681217" lon="12.2080383"><ele>272.0</ele><time>2026-04-25T09:03:19.018Z</time></trkpt><trkpt lat="43.9681667" lon="12.2081133"><ele>273.3333333333333</ele><time>2026-04-25T09:03:20.019Z</time></trkpt><trkpt lat="43.9682133" lon="12.208185"><ele>274.6666666666667</ele><time>2026-04-25T09:03:21.019Z</time></trkpt><trkpt lat="43.968255" lon="12.2082617"><ele>276.0</ele><time>2026-04-25T09:03:22.018Z</time></trkpt><trkpt lat="43.968295" lon="12.20834"><ele>276.42857142857144</ele><time>2026-04-25T09:03:23.019Z</time></trkpt><trkpt lat="43.9683233" lon="12.2084267"><ele>276.8571428571429</ele><time>2026-04-25T09:03:24.019Z</time></trkpt><trkpt lat="43.968345" lon="12.208515"><ele>277.2857142857143</ele><time>2026-04-25T09:03:25.018Z</time></trkpt><trkpt lat="43.9683583" lon="12.2086033"><ele>277.7142857142857</ele><time>2026-04-25T09:03:26.018Z</time></trkpt><trkpt lat="43.96835" lon="12.208695"><ele>278.1428571428571</ele><time>2026-04-25T09:03:27.018Z</time></trkpt><trkpt lat="43.968325" lon="12.208785"><ele>278.57142857142856</ele><time>2026-04-25T09:03:28.018Z</time></trkpt><trkpt lat="43.9682817" lon="12.2088633"><ele>279.0</ele><time>2026-04-25T09:03:29.018Z</time></trkpt><trkpt lat="43.96823" lon="12.2089167"><ele>279.0</ele><time>2026-04-25T09:03:30.018Z</time></trkpt><trkpt lat="43.96817" lon="12.208955"><ele>279.0</ele><time>2026-04-25T09:03:31.018Z</time></trkpt><trkpt lat="43.968105" lon="12.2089767"><ele>279.0</ele><time>2026-04-25T09:03:32.018Z</time></trkpt><trkpt lat="43.968035" lon="12.2089983"><ele>279.0</ele><time>2026-04-25T09:03:33.018Z</time></trkpt><trkpt lat="43.9679683" lon="12.2090183"><ele>279.0</ele><time>2026-04-25T09:03:34.018Z</time></trkpt><trkpt lat="43.9678933" lon="12.2090467"><ele>279.0</ele><time>2026-04-25T09:03:35.019Z</time></trkpt><trkpt lat="43.9677667" lon="12.209095"><ele>279.6666666666667</ele><time>2026-04-25T09:03:37.018Z</time></trkpt><trkpt lat="43.9677067" lon="12.2091533"><ele>280.3333333333333</ele><time>2026-04-25T09:03:38.018Z</time></trkpt><trkpt lat="43.96769" lon="12.20924"><ele>281.0</ele><time>2026-04-25T09:03:39.018Z</time></trkpt><trkpt lat="43.9677067" lon="12.20941"><ele>281.66666666666663</ele><time>2026-04-25T09:03:41.018Z</time></trkpt><trkpt lat="43.9677283" lon="12.2095017"><ele>282.3333333333333</ele><time>2026-04-25T09:03:42.019Z</time></trkpt><trkpt lat="43.96775" lon="12.2096033"><ele>283.0</ele><time>2026-04-25T09:03:43.019Z</time></trkpt><trkpt lat="43.9677583" lon="12.209715"><ele>283.5</ele><time>2026-04-25T09:03:44.018Z</time></trkpt><trkpt lat="43.96776" lon="12.2098317"><ele>284.0</ele><time>2026-04-25T09:03:45.019Z</time></trkpt><trkpt lat="43.9677417" lon="12.2099433"><ele>284.5</ele><time>2026-04-25T09:03:46.019Z</time></trkpt><trkpt lat="43.96772" lon="12.2100517"><ele>285.0</ele><time>2026-04-25T09:03:47.019Z</time></trkpt><trkpt lat="43.9676867" lon="12.21014"><ele>285.5</ele><time>2026-04-25T09:03:48.018Z</time></trkpt><trkpt lat="43.967655" lon="12.2102217"><ele>286.0</ele><time>2026-04-25T09:03:49.019Z</time></trkpt><trkpt lat="43.9675833" lon="12.21032"><ele>286.0</ele><time>2026-04-25T09:03:51.019Z</time></trkpt><trkpt lat="43.96753" lon="12.2102667"><ele>286.0</ele><time>2026-04-25T09:03:53.018Z</time></trkpt><trkpt lat="43.9675633" lon="12.2101467"><ele>286.0</ele><time>2026-04-25T09:03:55.019Z</time></trkpt><trkpt lat="43.9676133" lon="12.2100017"><ele>286.0</ele><time>2026-04-25T09:03:57.019Z</time></trkpt><trkpt lat="43.96764" lon="12.2098383"><ele>286.0</ele><time>2026-04-25T09:03:59.019Z</time></trkpt><trkpt lat="43.967605" lon="12.2096633"><ele>285.40000000000003</ele><time>2026-04-25T09:04:01.019Z</time></trkpt><trkpt lat="43.967555" lon="12.2095683"><ele>284.8</ele><time>2026-04-25T09:04:02.019Z</time></trkpt><trkpt lat="43.9674917" lon="12.2094817"><ele>284.20000000000005</ele><time>2026-04-25T09:04:03.019Z</time></trkpt><trkpt lat="43.9674267" lon="12.2094067"><ele>283.6</ele><time>2026-04-25T09:04:04.018Z</time></trkpt><trkpt lat="43.9673667" lon="12.20935"><ele>283.0</ele><time>2026-04-25T09:04:05.019Z</time></trkpt><trkpt lat="43.967295" lon="12.2092133"><ele>282.3333333333333</ele><time>2026-04-25T09:04:07.019Z</time></trkpt><trkpt lat="43.967335" lon="12.20906"><ele>281.66666666666663</ele><time>2026-04-25T09:04:09.019Z</time></trkpt><trkpt lat="43.967395" lon="12.2089983"><ele>281.0</ele><time>2026-04-25T09:04:10.019Z</time></trkpt><trkpt lat="43.967445" lon="12.2089367"><ele>280.3333333333333</ele><time>2026-04-25T09:04:11.019Z</time></trkpt><trkpt lat="43.9675083" lon="12.2088717"><ele>279.6666666666667</ele><time>2026-04-25T09:04:12.018Z</time></trkpt><trkpt lat="43.96756" lon="12.2087833"><ele>279.0</ele><time>2026-04-25T09:04:13.018Z</time></trkpt><trkpt lat="43.967575" lon="12.2086667"><ele>279.0</ele><time>2026-04-25T09:04:14.018Z</time></trkpt><trkpt lat="43.9675783" lon="12.20856"><ele>279.0</ele><time>2026-04-25T09:04:15.018Z</time></trkpt><trkpt lat="43.9675367" lon="12.208445"><ele>279.0</ele><time>2026-04-25T09:04:16.019Z</time></trkpt><trkpt lat="43.9674867" lon="12.2083383"><ele>279.0</ele><time>2026-04-25T09:04:17.019Z</time></trkpt><trkpt lat="43.9674417" lon="12.20823"><ele>279.0</ele><time>2026-04-25T09:04:18.019Z</time></trkpt><trkpt lat="43.9674217" lon="12.2081183"><ele>279.0</ele><time>2026-04-25T09:04:19.019Z</time></trkpt><trkpt lat="43.967405" lon="12.2080133"><ele>273.8333333333333</ele><time>2026-04-25T09:04:20.019Z</time></trkpt><trkpt lat="43.9673917" lon="12.2078833"><ele>268.6666666666667</ele><time>2026-04-25T09:04:21.018Z</time></trkpt><trkpt lat="43.9673983" lon="12.2077667"><ele>263.5</ele><time>2026-04-25T09:04:22.019Z</time></trkpt><trkpt lat="43.9674083" lon="12.2076317"><ele>258.33333333333337</ele><time>2026-04-25T09:04:23.018Z</time></trkpt><trkpt lat="43.9674383" lon="12.2075183"><ele>253.16666666666669</ele><time>2026-04-25T09:04:24.019Z</time></trkpt><trkpt lat="43.9674633" lon="12.2074283"><ele>248.0</ele><time>2026-04-25T09:04:25.019Z</time></trkpt><trkpt lat="43.9674433" lon="12.2072867"><ele>248.00000000000003</ele><time>2026-04-25T09:04:27.018Z</time></trkpt><trkpt lat="43.96736" lon="12.2072583"><ele>248.0</ele><time>2026-04-25T09:04:29.019Z</time></trkpt><trkpt lat="43.967315" lon="12.20738"><ele>248.0</ele><time>2026-04-25T09:04:31.018Z</time></trkpt><trkpt lat="43.9672883" lon="12.2074783"><ele>248.0</ele><time>2026-04-25T09:04:32.019Z</time></trkpt><trkpt lat="43.9672617" lon="12.20758"><ele>248.00000000000003</ele><time>2026-04-25T09:04:33.019Z</time></trkpt><trkpt lat="43.9672467" lon="12.20769"><ele>248.0</ele><time>2026-04-25T09:04:34.019Z</time></trkpt><trkpt lat="43.967235" lon="12.2078"><ele>248.00000000000003</ele><time>2026-04-25T09:04:35.019Z</time></trkpt><trkpt lat="43.9672367" lon="12.20791"><ele>248.0</ele><time>2026-04-25T09:04:36.019Z</time></trkpt><trkpt lat="43.9672433" lon="12.2080267"><ele>248.0</ele><time>2026-04-25T09:04:37.019Z</time></trkpt><trkpt lat="43.9672583" lon="12.208145"><ele>248.0</ele><time>2026-04-25T09:04:38.018Z</time></trkpt><trkpt lat="43.9672617" lon="12.208255"><ele>248.00000000000003</ele><time>2026-04-25T09:04:39.018Z</time></trkpt><trkpt lat="43.9672583" lon="12.208375"><ele>248.0</ele><time>2026-04-25T09:04:40.018Z</time></trkpt><trkpt lat="43.9672333" lon="12.208485"><ele>248.16666666666669</ele><time>2026-04-25T09:04:41.018Z</time></trkpt><trkpt lat="43.9671933" lon="12.2085867"><ele>248.33333333333334</ele><time>2026-04-25T09:04:42.019Z</time></trkpt><trkpt lat="43.96714" lon="12.20868"><ele>248.5</ele><time>2026-04-25T09:04:43.019Z</time></trkpt><trkpt lat="43.96708" lon="12.208735"><ele>248.66666666666669</ele><time>2026-04-25T09:04:44.019Z</time></trkpt><trkpt lat="43.9670167" lon="12.2087667"><ele>248.83333333333334</ele><time>2026-04-25T09:04:45.019Z</time></trkpt><trkpt lat="43.9669217" lon="12.2087133"><ele>249.0</ele><time>2026-04-25T09:04:47.019Z</time></trkpt><trkpt lat="43.96696" lon="12.2085567"><ele>249.0</ele><time>2026-04-25T09:04:49.019Z</time></trkpt><trkpt lat="43.9670117" lon="12.2084833"><ele>249.0</ele><time>2026-04-25T09:04:50.018Z</time></trkpt><trkpt lat="43.967065" lon="12.208425"><ele>249.0</ele><time>2026-04-25T09:04:51.019Z</time></trkpt><trkpt lat="43.9671083" lon="12.2083567"><ele>249.0</ele><time>2026-04-25T09:04:52.018Z</time></trkpt><trkpt lat="43.9671433" lon="12.2082733"><ele>249.0</ele><time>2026-04-25T09:04:53.019Z</time></trkpt><trkpt lat="43.9671133" lon="12.208075"><ele>249.0</ele><time>2026-04-25T09:04:55.018Z</time></trkpt><trkpt lat="43.9670667" lon="12.2079567"><ele>248.79999999999998</ele><time>2026-04-25T09:04:56.019Z</time></trkpt><trkpt lat="43.9670183" lon="12.2078417"><ele>248.59999999999997</ele><time>2026-04-25T09:04:57.019Z</time></trkpt><trkpt lat="43.966975" lon="12.2077183"><ele>248.4</ele><time>2026-04-25T09:04:58.018Z</time></trkpt><trkpt lat="43.966955" lon="12.2075867"><ele>248.2</ele><time>2026-04-25T09:04:59.019Z</time></trkpt><trkpt lat="43.9669433" lon="12.207465"><ele>248.0</ele><time>2026-04-25T09:05:00.019Z</time></trkpt><trkpt lat="43.9669283" lon="12.207335"><ele>247.60000000000002</ele><time>2026-04-25T09:05:01.019Z</time></trkpt><trkpt lat="43.9669167" lon="12.2072117"><ele>247.20000000000002</ele><time>2026-04-25T09:05:02.019Z</time></trkpt><trkpt lat="43.9669183" lon="12.2070833"><ele>246.8</ele><time>2026-04-25T09:05:03.019Z</time></trkpt><trkpt lat="43.96691" lon="12.2069633"><ele>246.4</ele><time>2026-04-25T09:05:04.019Z</time></trkpt><trkpt lat="43.9668883" lon="12.2068283"><ele>246.0</ele><time>2026-04-25T09:05:05.019Z</time></trkpt><trkpt lat="43.966865" lon="12.2066967"><ele>246.0</ele><time>2026-04-25T09:05:06.019Z</time></trkpt><trkpt lat="43.9668417" lon="12.2065717"><ele>246.0</ele><time>2026-04-25T09:05:07.019Z</time></trkpt><trkpt lat="43.9668267" lon="12.2064633"><ele>246.0</ele><time>2026-04-25T09:05:08.019Z</time></trkpt><trkpt lat="43.9668217" lon="12.206355"><ele>246.0</ele><time>2026-04-25T09:05:09.019Z</time></trkpt><trkpt lat="43.9668267" lon="12.20626"><ele>246.0</ele><time>2026-04-25T09:05:10.018Z</time></trkpt><trkpt lat="43.966855" lon="12.206155"><ele>246.0</ele><time>2026-04-25T09:05:11.018Z</time></trkpt><trkpt lat="43.9669083" lon="12.2060717"><ele>241.83333333333334</ele><time>2026-04-25T09:05:12.018Z</time></trkpt><trkpt lat="43.9669683" lon="12.2059933"><ele>237.66666666666669</ele><time>2026-04-25T09:05:13.019Z</time></trkpt><trkpt lat="43.9670333" lon="12.2059033"><ele>233.5</ele><time>2026-04-25T09:05:14.018Z</time></trkpt><trkpt lat="43.9670983" lon="12.205835"><ele>229.33333333333334</ele><time>2026-04-25T09:05:15.018Z</time></trkpt><trkpt lat="43.96717" lon="12.2057783"><ele>225.16666666666669</ele><time>2026-04-25T09:05:16.019Z</time></trkpt><trkpt lat="43.9672533" lon="12.2057033"><ele>221.0</ele><time>2026-04-25T09:05:17.019Z</time></trkpt><trkpt lat="43.9673367" lon="12.2056483"><ele>216.0</ele><time>2026-04-25T09:05:18.019Z</time></trkpt><trkpt lat="43.9674167" lon="12.2055817"><ele>211.00000000000003</ele><time>2026-04-25T09:05:19.018Z</time></trkpt><trkpt lat="43.9674983" lon="12.2054967"><ele>206.0</ele><time>2026-04-25T09:05:20.019Z</time></trkpt><trkpt lat="43.9675817" lon="12.2054183"><ele>201.0</ele><time>2026-04-25T09:05:21.018Z</time></trkpt><trkpt lat="43.9676633" lon="12.2053533"><ele>196.0</ele><time>2026-04-25T09:05:22.019Z</time></trkpt><trkpt lat="43.9677417" lon="12.205295"><ele>196.0</ele><time>2026-04-25T09:05:23.019Z</time></trkpt><trkpt lat="43.967825" lon="12.2052267"><ele>196.0</ele><time>2026-04-25T09:05:24.019Z</time></trkpt><trkpt lat="43.96792" lon="12.205185"><ele>196.0</ele><time>2026-04-25T09:05:25.017Z</time></trkpt><trkpt lat="43.9680183" lon="12.205155"><ele>196.0</ele><time>2026-04-25T09:05:26.018Z</time></trkpt><trkpt lat="43.9681217" lon="12.2051183"><ele>196.0</ele><time>2026-04-25T09:05:27.018Z</time></trkpt><trkpt lat="43.96822" lon="12.2050983"><ele>196.0</ele><time>2026-04-25T09:05:28.018Z</time></trkpt><trkpt lat="43.9683167" lon="12.2050883"><ele>196.0</ele><time>2026-04-25T09:05:29.018Z</time></trkpt><trkpt lat="43.9684233" lon="12.20506"><ele>196.0</ele><time>2026-04-25T09:05:30.018Z</time></trkpt><trkpt lat="43.9685317" lon="12.2050317"><ele>196.0</ele><time>2026-04-25T09:05:31.017Z</time></trkpt><trkpt lat="43.9686467" lon="12.205005"><ele>196.0</ele><time>2026-04-25T09:05:32.018Z</time></trkpt><trkpt lat="43.96877" lon="12.2049883"><ele>196.25</ele><time>2026-04-25T09:05:33.018Z</time></trkpt><trkpt lat="43.9688967" lon="12.2049783"><ele>196.5</ele><time>2026-04-25T09:05:34.018Z</time></trkpt><trkpt lat="43.9690217" lon="12.2049717"><ele>196.75</ele><time>2026-04-25T09:05:35.018Z</time></trkpt><trkpt lat="43.9691467" lon="12.2049617"><ele>197.0</ele><time>2026-04-25T09:05:36.018Z</time></trkpt><trkpt lat="43.9692767" lon="12.2049567"><ele>193.5</ele><time>2026-04-25T09:05:37.018Z</time></trkpt><trkpt lat="43.9694033" lon="12.2049683"><ele>190.0</ele><time>2026-04-25T09:05:38.018Z</time></trkpt><trkpt lat="43.9695133" lon="12.2049733"><ele>186.5</ele><time>2026-04-25T09:05:39.018Z</time></trkpt><trkpt lat="43.96962" lon="12.2049833"><ele>183.0</ele><time>2026-04-25T09:05:40.017Z</time></trkpt><trkpt lat="43.9697283" lon="12.2050217"><ele>183.0</ele><time>2026-04-25T09:05:41.018Z</time></trkpt><trkpt lat="43.969825" lon="12.205065"><ele>183.0</ele><time>2026-04-25T09:05:42.018Z</time></trkpt><trkpt lat="43.9699067" lon="12.2051017"><ele>183.0</ele><time>2026-04-25T09:05:43.018Z</time></trkpt><trkpt lat="43.969975" lon="12.205115"><ele>183.0</ele><time>2026-04-25T09:05:44.017Z</time></trkpt><trkpt lat="43.9700367" lon="12.205075"><ele>183.0</ele><time>2026-04-25T09:05:45.018Z</time></trkpt><trkpt lat="43.9700733" lon="12.20498"><ele>183.0</ele><time>2026-04-25T09:05:47.018Z</time></trkpt><trkpt lat="43.9700233" lon="12.2049067"><ele>183.0</ele><time>2026-04-25T09:05:48.018Z</time></trkpt><trkpt lat="43.9699683" lon="12.2048333"><ele>183.0</ele><time>2026-04-25T09:05:49.018Z</time></trkpt><trkpt lat="43.9698967" lon="12.204795"><ele>183.0</ele><time>2026-04-25T09:05:50.018Z</time></trkpt><trkpt lat="43.9698133" lon="12.2047717"><ele>183.0</ele><time>2026-04-25T09:05:51.017Z</time></trkpt><trkpt lat="43.9697283" lon="12.2047483"><ele>183.0</ele><time>2026-04-25T09:05:52.018Z</time></trkpt><trkpt lat="43.9696433" lon="12.204715"><ele>183.0</ele><time>2026-04-25T09:05:53.017Z</time></trkpt><trkpt lat="43.9695533" lon="12.2046933"><ele>178.8</ele><time>2026-04-25T09:05:54.018Z</time></trkpt><trkpt lat="43.96946" lon="12.2046617"><ele>174.60000000000002</ele><time>2026-04-25T09:05:55.018Z</time></trkpt><trkpt lat="43.969365" lon="12.2046283"><ele>170.39999999999998</ele><time>2026-04-25T09:05:56.017Z</time></trkpt><trkpt lat="43.96927" lon="12.2045867"><ele>166.2</ele><time>2026-04-25T09:05:57.017Z</time></trkpt><trkpt lat="43.9691783" lon="12.20454"><ele>162.0</ele><time>2026-04-25T09:05:58.018Z</time></trkpt><trkpt lat="43.9690767" lon="12.2044783"><ele>162.0</ele><time>2026-04-25T09:05:59.017Z</time></trkpt><trkpt lat="43.9689717" lon="12.20442"><ele>162.0</ele><time>2026-04-25T09:06:00.017Z</time></trkpt><trkpt lat="43.9688633" lon="12.2043717"><ele>162.0</ele><time>2026-04-25T09:06:01.018Z</time></trkpt><trkpt lat="43.9687583" lon="12.2043233"><ele>162.0</ele><time>2026-04-25T09:06:02.018Z</time></trkpt><trkpt lat="43.9686517" lon="12.20427"><ele>162.0</ele><time>2026-04-25T09:06:03.018Z</time></trkpt><trkpt lat="43.968525" lon="12.2042267"><ele>162.0</ele><time>2026-04-25T09:06:04.017Z</time></trkpt><trkpt lat="43.96839" lon="12.2042017"><ele>162.0</ele><time>2026-04-25T09:06:05.017Z</time></trkpt><trkpt lat="43.9682633" lon="12.20416"><ele>162.0</ele><time>2026-04-25T09:06:06.017Z</time></trkpt><trkpt lat="43.9681283" lon="12.20411"><ele>162.25</ele><time>2026-04-25T09:06:07.017Z</time></trkpt><trkpt lat="43.9679917" lon="12.2040683"><ele>162.5</ele><time>2026-04-25T09:06:08.018Z</time></trkpt><trkpt lat="43.9678633" lon="12.20403"><ele>162.75</ele><time>2026-04-25T09:06:09.017Z</time></trkpt><trkpt lat="43.9677467" lon="12.203985"><ele>163.0</ele><time>2026-04-25T09:06:10.018Z</time></trkpt><trkpt lat="43.9676217" lon="12.203935"><ele>159.8</ele><time>2026-04-25T09:06:11.018Z</time></trkpt><trkpt lat="43.9675017" lon="12.2038817"><ele>156.60000000000002</ele><time>2026-04-25T09:06:12.017Z</time></trkpt><trkpt lat="43.967395" lon="12.2038467"><ele>153.39999999999998</ele><time>2026-04-25T09:06:13.017Z</time></trkpt><trkpt lat="43.967305" lon="12.2038233"><ele>150.2</ele><time>2026-04-25T09:06:14.017Z</time></trkpt><trkpt lat="43.96722" lon="12.20382"><ele>147.0</ele><time>2026-04-25T09:06:15.018Z</time></trkpt><trkpt lat="43.9671433" lon="12.2038167"><ele>147.0</ele><time>2026-04-25T09:06:16.018Z</time></trkpt><trkpt lat="43.9670667" lon="12.2038267"><ele>147.0</ele><time>2026-04-25T09:06:17.018Z</time></trkpt><trkpt lat="43.96699" lon="12.203855"><ele>147.0</ele><time>2026-04-25T09:06:18.018Z</time></trkpt><trkpt lat="43.96691" lon="12.2038633"><ele>147.0</ele><time>2026-04-25T09:06:19.017Z</time></trkpt><trkpt lat="43.9668267" lon="12.20388"><ele>147.0</ele><time>2026-04-25T09:06:20.018Z</time></trkpt><trkpt lat="43.9667433" lon="12.2038983"><ele>147.0</ele><time>2026-04-25T09:06:21.018Z</time></trkpt><trkpt lat="43.9666583" lon="12.2039133"><ele>146.33333333333334</ele><time>2026-04-25T09:06:22.017Z</time></trkpt><trkpt lat="43.966585" lon="12.2039183"><ele>145.66666666666666</ele><time>2026-04-25T09:06:23.018Z</time></trkpt><trkpt lat="43.966515" lon="12.203925"><ele>145.0</ele><time>2026-04-25T09:06:24.018Z</time></trkpt><trkpt lat="43.966445" lon="12.2039317"><ele>144.33333333333331</ele><time>2026-04-25T09:06:25.018Z</time></trkpt><trkpt lat="43.9663733" lon="12.2039417"><ele>143.66666666666666</ele><time>2026-04-25T09:06:26.017Z</time></trkpt><trkpt lat="43.966305" lon="12.20394"><ele>143.0</ele><time>2026-04-25T09:06:27.018Z</time></trkpt><trkpt lat="43.96618" lon="12.20394"><ele>142.99999999999997</ele><time>2026-04-25T09:06:29.018Z</time></trkpt><trkpt lat="43.9661067" lon="12.2039333"><ele>143.0</ele><time>2026-04-25T09:06:30.018Z</time></trkpt><trkpt lat="43.9660367" lon="12.20392"><ele>143.0</ele><time>2026-04-25T09:06:31.017Z</time></trkpt><trkpt lat="43.965965" lon="12.2039067"><ele>143.0</ele><time>2026-04-25T09:06:32.018Z</time></trkpt><trkpt lat="43.9658983" lon="12.2038917"><ele>143.0</ele><time>2026-04-25T09:06:33.018Z</time></trkpt><trkpt lat="43.9658283" lon="12.2038683"><ele>142.99999999999997</ele><time>2026-04-25T09:06:34.018Z</time></trkpt><trkpt lat="43.96576" lon="12.20383"><ele>143.0</ele><time>2026-04-25T09:06:35.018Z</time></trkpt><trkpt lat="43.9656933" lon="12.2037833"><ele>143.16666666666666</ele><time>2026-04-25T09:06:36.018Z</time></trkpt><trkpt lat="43.9656267" lon="12.20372"><ele>143.33333333333331</ele><time>2026-04-25T09:06:37.017Z</time></trkpt><trkpt lat="43.9655683" lon="12.2036567"><ele>143.5</ele><time>2026-04-25T09:06:38.018Z</time></trkpt><trkpt lat="43.96551" lon="12.20357"><ele>143.66666666666666</ele><time>2026-04-25T09:06:39.017Z</time></trkpt><trkpt lat="43.9654767" lon="12.2034717"><ele>143.83333333333334</ele><time>2026-04-25T09:06:40.018Z</time></trkpt><trkpt lat="43.965455" lon="12.2033783"><ele>144.0</ele><time>2026-04-25T09:06:41.017Z</time></trkpt><trkpt lat="43.965435" lon="12.2032667"><ele>144.00000000000003</ele><time>2026-04-25T09:06:42.018Z</time></trkpt><trkpt lat="43.96542" lon="12.2031667"><ele>144.0</ele><time>2026-04-25T09:06:43.018Z</time></trkpt><trkpt lat="43.9653983" lon="12.203075"><ele>144.0</ele><time>2026-04-25T09:06:44.017Z</time></trkpt><trkpt lat="43.9653533" lon="12.2029867"><ele>144.0</ele><time>2026-04-25T09:06:45.017Z</time></trkpt><trkpt lat="43.9653083" lon="12.20291"><ele>144.0</ele><time>2026-04-25T09:06:46.017Z</time></trkpt><trkpt lat="43.96525" lon="12.2028417"><ele>144.00000000000003</ele><time>2026-04-25T09:06:47.017Z</time></trkpt><trkpt lat="43.9651833" lon="12.20279"><ele>144.0</ele><time>2026-04-25T09:06:48.018Z</time></trkpt><trkpt lat="43.96512" lon="12.20275"><ele>143.0</ele><time>2026-04-25T09:06:49.017Z</time></trkpt><trkpt lat="43.96505" lon="12.2027267"><ele>142.0</ele><time>2026-04-25T09:06:50.018Z</time></trkpt><trkpt lat="43.96498" lon="12.20271"><ele>141.0</ele><time>2026-04-25T09:06:51.018Z</time></trkpt><trkpt lat="43.9649033" lon="12.2027"><ele>140.0</ele><time>2026-04-25T09:06:52.017Z</time></trkpt><trkpt lat="43.96481" lon="12.2026783"><ele>139.0</ele><time>2026-04-25T09:06:53.018Z</time></trkpt><trkpt lat="43.9647167" lon="12.2026517"><ele>138.0</ele><time>2026-04-25T09:06:54.017Z</time></trkpt><trkpt lat="43.9646267" lon="12.2026183"><ele>138.0</ele><time>2026-04-25T09:06:55.017Z</time></trkpt><trkpt lat="43.96453" lon="12.2025817"><ele>138.0</ele><time>2026-04-25T09:06:56.018Z</time></trkpt><trkpt lat="43.9644317" lon="12.2025383"><ele>138.0</ele><time>2026-04-25T09:06:57.018Z</time></trkpt><trkpt lat="43.9643317" lon="12.2024917"><ele>138.0</ele><time>2026-04-25T09:06:58.018Z</time></trkpt><trkpt lat="43.9642233" lon="12.2024417"><ele>138.0</ele><time>2026-04-25T09:06:59.018Z</time></trkpt><trkpt lat="43.9641183" lon="12.2023967"><ele>138.6</ele><time>2026-04-25T09:07:00.018Z</time></trkpt><trkpt lat="43.9640183" lon="12.2023433"><ele>139.20000000000002</ele><time>2026-04-25T09:07:01.018Z</time></trkpt><trkpt lat="43.9639183" lon="12.2023017"><ele>139.8</ele><time>2026-04-25T09:07:02.018Z</time></trkpt><trkpt lat="43.9638183" lon="12.2022483"><ele>140.4</ele><time>2026-04-25T09:07:03.017Z</time></trkpt><trkpt lat="43.9637217" lon="12.2021983"><ele>141.0</ele><time>2026-04-25T09:07:04.018Z</time></trkpt><trkpt lat="43.9636267" lon="12.2021533"><ele>139.66666666666666</ele><time>2026-04-25T09:07:05.017Z</time></trkpt><trkpt lat="43.9635367" lon="12.2021083"><ele>138.33333333333334</ele><time>2026-04-25T09:07:06.017Z</time></trkpt><trkpt lat="43.9634617" lon="12.2020583"><ele>137.0</ele><time>2026-04-25T09:07:07.017Z</time></trkpt><trkpt lat="43.9633833" lon="12.20201"><ele>135.66666666666669</ele><time>2026-04-25T09:07:08.017Z</time></trkpt><trkpt lat="43.9633117" lon="12.20197"><ele>134.33333333333334</ele><time>2026-04-25T09:07:09.018Z</time></trkpt><trkpt lat="43.9632433" lon="12.2019367"><ele>133.0</ele><time>2026-04-25T09:07:10.018Z</time></trkpt><trkpt lat="43.9631767" lon="12.2019033"><ele>133.0</ele><time>2026-04-25T09:07:11.017Z</time></trkpt><trkpt lat="43.963115" lon="12.201885"><ele>133.0</ele><time>2026-04-25T09:07:12.017Z</time></trkpt><trkpt lat="43.9630167" lon="12.201845"><ele>133.0</ele><time>2026-04-25T09:07:14.018Z</time></trkpt><trkpt lat="43.9629517" lon="12.2018083"><ele>133.0</ele><time>2026-04-25T09:07:16.018Z</time></trkpt><trkpt lat="43.96287" lon="12.2017767"><ele>133.0</ele><time>2026-04-25T09:07:19.017Z</time></trkpt><trkpt lat="43.9627933" lon="12.2017283"><ele>133.0</ele><time>2026-04-25T09:07:22.017Z</time></trkpt><trkpt lat="43.9627067" lon="12.2016767"><ele>133.0</ele><time>2026-04-25T09:07:25.017Z</time></trkpt><trkpt lat="43.9626417" lon="12.2016567"><ele>133.0</ele><time>2026-04-25T09:07:27.018Z</time></trkpt><trkpt lat="43.9625633" lon="12.2015933"><ele>133.0</ele><time>2026-04-25T09:07:30.017Z</time></trkpt><trkpt lat="43.9625133" lon="12.2015383"><ele>133.0</ele><time>2026-04-25T09:07:32.017Z</time></trkpt><trkpt lat="43.9624317" lon="12.2014733"><ele>133.0</ele><time>2026-04-25T09:07:35.018Z</time></trkpt><trkpt lat="43.962365" lon="12.2014317"><ele>133.0</ele><time>2026-04-25T09:07:37.018Z</time></trkpt><trkpt lat="43.96229" lon="12.2013883"><ele>133.16666666666669</ele><time>2026-04-25T09:07:39.018Z</time></trkpt><trkpt lat="43.9622117" lon="12.2013183"><ele>133.33333333333334</ele><time>2026-04-25T09:07:41.018Z</time></trkpt><trkpt lat="43.9621333" lon="12.20126"><ele>133.5</ele><time>2026-04-25T09:07:43.018Z</time></trkpt><trkpt lat="43.9620567" lon="12.2012"><ele>133.66666666666666</ele><time>2026-04-25T09:07:45.018Z</time></trkpt><trkpt lat="43.9619883" lon="12.20113"><ele>133.83333333333331</ele><time>2026-04-25T09:07:47.017Z</time></trkpt><trkpt lat="43.96191" lon="12.2010733"><ele>134.0</ele><time>2026-04-25T09:07:49.018Z</time></trkpt><trkpt lat="43.9618317" lon="12.2010167"><ele>134.0</ele><time>2026-04-25T09:07:51.018Z</time></trkpt><trkpt lat="43.9617533" lon="12.20095"><ele>134.0</ele><time>2026-04-25T09:07:53.017Z</time></trkpt><trkpt lat="43.9616717" lon="12.20088"><ele>134.0</ele><time>2026-04-25T09:07:55.018Z</time></trkpt><trkpt lat="43.96159" lon="12.2008133"><ele>134.0</ele><time>2026-04-25T09:07:57.017Z</time></trkpt><trkpt lat="43.9615117" lon="12.2007433"><ele>134.0</ele><time>2026-04-25T09:07:59.018Z</time></trkpt><trkpt lat="43.96143" lon="12.2006767"><ele>136.6</ele><time>2026-04-25T09:08:01.018Z</time></trkpt><trkpt lat="43.961355" lon="12.2006117"><ele>139.2</ele><time>2026-04-25T09:08:03.018Z</time></trkpt><trkpt lat="43.9612717" lon="12.200535"><ele>141.79999999999998</ele><time>2026-04-25T09:08:05.018Z</time></trkpt><trkpt lat="43.9611833" lon="12.2004567"><ele>144.4</ele><time>2026-04-25T09:08:07.018Z</time></trkpt><trkpt lat="43.961085" lon="12.20039"><ele>147.0</ele><time>2026-04-25T09:08:09.018Z</time></trkpt><trkpt lat="43.9609867" lon="12.2003167"><ele>147.0</ele><time>2026-04-25T09:08:11.017Z</time></trkpt><trkpt lat="43.9608983" lon="12.2002367"><ele>147.0</ele><time>2026-04-25T09:08:13.017Z</time></trkpt><trkpt lat="43.9608033" lon="12.2001567"><ele>147.0</ele><time>2026-04-25T09:08:15.018Z</time></trkpt><trkpt lat="43.9607033" lon="12.2000817"><ele>147.0</ele><time>2026-04-25T09:08:17.018Z</time></trkpt><trkpt lat="43.9606167" lon="12.1999933"><ele>147.0</ele><time>2026-04-25T09:08:19.018Z</time></trkpt><trkpt lat="43.9605117" lon="12.1999117"><ele>147.66666666666666</ele><time>2026-04-25T09:08:21.017Z</time></trkpt><trkpt lat="43.9604233" lon="12.1998417"><ele>148.33333333333334</ele><time>2026-04-25T09:08:23.018Z</time></trkpt><trkpt lat="43.9603233" lon="12.19976"><ele>149.0</ele><time>2026-04-25T09:08:25.018Z</time></trkpt><trkpt lat="43.9602683" lon="12.199715"><ele>149.66666666666669</ele><time>2026-04-25T09:08:26.017Z</time></trkpt><trkpt lat="43.9602133" lon="12.1996667"><ele>150.33333333333334</ele><time>2026-04-25T09:08:27.018Z</time></trkpt><trkpt lat="43.9601533" lon="12.1996017"><ele>151.0</ele><time>2026-04-25T09:08:28.017Z</time></trkpt><trkpt lat="43.9600867" lon="12.1995467"><ele>151.5</ele><time>2026-04-25T09:08:29.018Z</time></trkpt><trkpt lat="43.9600167" lon="12.1994933"><ele>152.0</ele><time>2026-04-25T09:08:30.017Z</time></trkpt><trkpt lat="43.9599567" lon="12.1994383"><ele>152.5</ele><time>2026-04-25T09:08:31.017Z</time></trkpt><trkpt lat="43.9598933" lon="12.1993767"><ele>153.0</ele><time>2026-04-25T09:08:32.017Z</time></trkpt><trkpt lat="43.959815" lon="12.1993033"><ele>153.5</ele><time>2026-04-25T09:08:33.018Z</time></trkpt><trkpt lat="43.9597383" lon="12.19924"><ele>154.0</ele><time>2026-04-25T09:08:34.017Z</time></trkpt><trkpt lat="43.9596583" lon="12.1991867"><ele>154.0</ele><time>2026-04-25T09:08:35.018Z</time></trkpt><trkpt lat="43.9595717" lon="12.1991533"><ele>154.0</ele><time>2026-04-25T09:08:36.017Z</time></trkpt><trkpt lat="43.9594817" lon="12.19913"><ele>154.0</ele><time>2026-04-25T09:08:37.018Z</time></trkpt><trkpt lat="43.9594067" lon="12.1991167"><ele>154.0</ele><time>2026-04-25T09:08:38.018Z</time></trkpt><trkpt lat="43.959305" lon="12.19912"><ele>154.0</ele><time>2026-04-25T09:08:39.017Z</time></trkpt><trkpt lat="43.9591883" lon="12.1991467"><ele>152.0</ele><time>2026-04-25T09:08:40.018Z</time></trkpt><trkpt lat="43.9590667" lon="12.1991633"><ele>150.0</ele><time>2026-04-25T09:08:41.018Z</time></trkpt><trkpt lat="43.9589333" lon="12.1991817"><ele>148.0</ele><time>2026-04-25T09:08:42.018Z</time></trkpt><trkpt lat="43.9588017" lon="12.1991867"><ele>146.0</ele><time>2026-04-25T09:08:43.018Z</time></trkpt><trkpt lat="43.9586767" lon="12.1992017"><ele>146.0</ele><time>2026-04-25T09:08:44.018Z</time></trkpt><trkpt lat="43.9585583" lon="12.1992067"><ele>146.0</ele><time>2026-04-25T09:08:45.017Z</time></trkpt><trkpt lat="43.95846" lon="12.1992083"><ele>146.0</ele><time>2026-04-25T09:08:46.017Z</time></trkpt><trkpt lat="43.9583667" lon="12.199195"><ele>146.0</ele><time>2026-04-25T09:08:47.017Z</time></trkpt><trkpt lat="43.9582817" lon="12.199165"><ele>146.0</ele><time>2026-04-25T09:08:48.018Z</time></trkpt><trkpt lat="43.95821" lon="12.1991067"><ele>145.5</ele><time>2026-04-25T09:08:49.018Z</time></trkpt><trkpt lat="43.9581417" lon="12.1990333"><ele>145.0</ele><time>2026-04-25T09:08:50.017Z</time></trkpt><trkpt lat="43.95809" lon="12.1989483"><ele>144.5</ele><time>2026-04-25T09:08:51.018Z</time></trkpt><trkpt lat="43.9580483" lon="12.1988417"><ele>144.0</ele><time>2026-04-25T09:08:52.017Z</time></trkpt><trkpt lat="43.9580233" lon="12.19871"><ele>143.5</ele><time>2026-04-25T09:08:53.018Z</time></trkpt><trkpt lat="43.9579917" lon="12.198585"><ele>143.0</ele><time>2026-04-25T09:08:54.017Z</time></trkpt><trkpt lat="43.95797" lon="12.19846"><ele>139.8</ele><time>2026-04-25T09:08:55.018Z</time></trkpt><trkpt lat="43.9579483" lon="12.198335"><ele>136.60000000000002</ele><time>2026-04-25T09:08:56.018Z</time></trkpt><trkpt lat="43.957925" lon="12.1982083"><ele>133.39999999999998</ele><time>2026-04-25T09:08:57.017Z</time></trkpt><trkpt lat="43.957895" lon="12.1980817"><ele>130.2</ele><time>2026-04-25T09:08:58.018Z</time></trkpt><trkpt lat="43.9578783" lon="12.19795"><ele>127.0</ele><time>2026-04-25T09:08:59.017Z</time></trkpt><trkpt lat="43.9578617" lon="12.19783"><ele>126.83333333333334</ele><time>2026-04-25T09:09:00.017Z</time></trkpt><trkpt lat="43.9578367" lon="12.1977033"><ele>126.66666666666667</ele><time>2026-04-25T09:09:01.018Z</time></trkpt><trkpt lat="43.9578167" lon="12.19757"><ele>126.5</ele><time>2026-04-25T09:09:02.017Z</time></trkpt><trkpt lat="43.95779" lon="12.1974583"><ele>126.33333333333334</ele><time>2026-04-25T09:09:03.018Z</time></trkpt><trkpt lat="43.9577733" lon="12.197335"><ele>126.16666666666667</ele><time>2026-04-25T09:09:04.017Z</time></trkpt><trkpt lat="43.95776" lon="12.1972233"><ele>126.0</ele><time>2026-04-25T09:09:05.018Z</time></trkpt><trkpt lat="43.9577467" lon="12.197115"><ele>127.33333333333333</ele><time>2026-04-25T09:09:06.018Z</time></trkpt><trkpt lat="43.95773" lon="12.1970067"><ele>128.66666666666666</ele><time>2026-04-25T09:09:07.018Z</time></trkpt><trkpt lat="43.9577083" lon="12.1968983"><ele>130.0</ele><time>2026-04-25T09:09:08.018Z</time></trkpt><trkpt lat="43.9576917" lon="12.1967933"><ele>131.33333333333331</ele><time>2026-04-25T09:09:09.017Z</time></trkpt><trkpt lat="43.9576783" lon="12.1966917"><ele>132.66666666666666</ele><time>2026-04-25T09:09:10.018Z</time></trkpt><trkpt lat="43.9576583" lon="12.1965917"><ele>134.0</ele><time>2026-04-25T09:09:11.017Z</time></trkpt><trkpt lat="43.9576417" lon="12.19649"><ele>135.5</ele><time>2026-04-25T09:09:12.017Z</time></trkpt><trkpt lat="43.957625" lon="12.1963967"><ele>137.0</ele><time>2026-04-25T09:09:13.017Z</time></trkpt><trkpt lat="43.9575883" lon="12.1963117"><ele>138.5</ele><time>2026-04-25T09:09:14.017Z</time></trkpt><trkpt lat="43.9575533" lon="12.196235"><ele>140.0</ele><time>2026-04-25T09:09:15.018Z</time></trkpt><trkpt lat="43.9574383" lon="12.19617"><ele>141.5</ele><time>2026-04-25T09:09:17.018Z</time></trkpt><trkpt lat="43.9573717" lon="12.1961583"><ele>143.0</ele><time>2026-04-25T09:09:18.018Z</time></trkpt><trkpt lat="43.957275" lon="12.19616"><ele>143.0</ele><time>2026-04-25T09:09:20.017Z</time></trkpt><trkpt lat="43.9572033" lon="12.19615"><ele>143.0</ele><time>2026-04-25T09:09:22.018Z</time></trkpt><trkpt lat="43.9571083" lon="12.19614"><ele>143.0</ele><time>2026-04-25T09:09:25.017Z</time></trkpt><trkpt lat="43.95707" lon="12.1960667"><ele>143.0</ele><time>2026-04-25T09:09:28.018Z</time></trkpt><trkpt lat="43.957135" lon="12.1959817"><ele>143.0</ele><time>2026-04-25T09:09:31.018Z</time></trkpt><trkpt lat="43.95721" lon="12.195935"><ele>143.0</ele><time>2026-04-25T09:09:34.017Z</time></trkpt><trkpt lat="43.9572833" lon="12.195935"><ele>143.0</ele><time>2026-04-25T09:09:37.018Z</time></trkpt><trkpt lat="43.95738" lon="12.1959617"><ele>143.0</ele><time>2026-04-25T09:09:40.017Z</time></trkpt><trkpt lat="43.9574467" lon="12.195975"><ele>143.0</ele><time>2026-04-25T09:09:42.017Z</time></trkpt><trkpt lat="43.9575183" lon="12.1959867"><ele>143.0</ele><time>2026-04-25T09:09:44.018Z</time></trkpt><trkpt lat="43.957595" lon="12.1959783"><ele>143.0</ele><time>2026-04-25T09:09:46.017Z</time></trkpt><trkpt lat="43.9576583" lon="12.1959833"><ele>143.0</ele><time>2026-04-25T09:09:48.018Z</time></trkpt><trkpt lat="43.95774" lon="12.1959767"><ele>145.0</ele><time>2026-04-25T09:09:50.018Z</time></trkpt><trkpt lat="43.957815" lon="12.1959733"><ele>147.0</ele><time>2026-04-25T09:09:52.017Z</time></trkpt><trkpt lat="43.9578967" lon="12.1959983"><ele>149.0</ele><time>2026-04-25T09:09:54.018Z</time></trkpt><trkpt lat="43.9579767" lon="12.1960267"><ele>151.0</ele><time>2026-04-25T09:09:56.017Z</time></trkpt><trkpt lat="43.9580467" lon="12.19606"><ele>153.0</ele><time>2026-04-25T09:09:58.018Z</time></trkpt><trkpt lat="43.9581333" lon="12.1960933"><ele>155.0</ele><time>2026-04-25T09:10:00.018Z</time></trkpt><trkpt lat="43.9581983" lon="12.196115"><ele>155.0</ele><time>2026-04-25T09:10:02.018Z</time></trkpt><trkpt lat="43.958285" lon="12.196135"><ele>155.0</ele><time>2026-04-25T09:10:05.018Z</time></trkpt><trkpt lat="43.9583483" lon="12.1961483"><ele>155.0</ele><time>2026-04-25T09:10:07.017Z</time></trkpt><trkpt lat="43.9584333" lon="12.1961833"><ele>155.0</ele><time>2026-04-25T09:10:10.018Z</time></trkpt><trkpt lat="43.9585167" lon="12.1962083"><ele>155.0</ele><time>2026-04-25T09:10:13.018Z</time></trkpt><trkpt lat="43.9586033" lon="12.1962333"><ele>155.0</ele><time>2026-04-25T09:10:16.017Z</time></trkpt><trkpt lat="43.9587133" lon="12.1962917"><ele>155.5</ele><time>2026-04-25T09:10:19.018Z</time></trkpt><trkpt lat="43.9588" lon="12.19633"><ele>156.0</ele><time>2026-04-25T09:10:22.017Z</time></trkpt><trkpt lat="43.95888" lon="12.196375"><ele>156.5</ele><time>2026-04-25T09:10:25.017Z</time></trkpt><trkpt lat="43.958965" lon="12.19641"><ele>157.0</ele><time>2026-04-25T09:10:28.018Z</time></trkpt><trkpt lat="43.9590467" lon="12.196465"><ele>157.5</ele><time>2026-04-25T09:10:31.017Z</time></trkpt><trkpt lat="43.95913" lon="12.196505"><ele>158.0</ele><time>2026-04-25T09:10:34.018Z</time></trkpt><trkpt lat="43.9592083" lon="12.1965583"><ele>158.00000000000003</ele><time>2026-04-25T09:10:37.018Z</time></trkpt><trkpt lat="43.9592817" lon="12.196575"><ele>158.0</ele><time>2026-04-25T09:10:40.017Z</time></trkpt><trkpt lat="43.959355" lon="12.19658"><ele>158.0</ele><time>2026-04-25T09:10:43.018Z</time></trkpt><trkpt lat="43.9594217" lon="12.1965917"><ele>158.0</ele><time>2026-04-25T09:10:45.017Z</time></trkpt><trkpt lat="43.95949" lon="12.1966167"><ele>158.0</ele><time>2026-04-25T09:10:47.018Z</time></trkpt><trkpt lat="43.9595617" lon="12.1966283"><ele>158.00000000000003</ele><time>2026-04-25T09:10:49.017Z</time></trkpt><trkpt lat="43.9596267" lon="12.19665"><ele>158.0</ele><time>2026-04-25T09:10:51.017Z</time></trkpt><trkpt lat="43.959705" lon="12.1966817"><ele>158.0</ele><time>2026-04-25T09:10:53.018Z</time></trkpt><trkpt lat="43.959775" lon="12.1967133"><ele>158.0</ele><time>2026-04-25T09:10:55.017Z</time></trkpt><trkpt lat="43.9598383" lon="12.1967317"><ele>158.0</ele><time>2026-04-25T09:10:57.018Z</time></trkpt><trkpt lat="43.9599217" lon="12.1967533"><ele>158.0</ele><time>2026-04-25T09:11:00.017Z</time></trkpt><trkpt lat="43.959985" lon="12.19676"><ele>158.0</ele><time>2026-04-25T09:11:02.018Z</time></trkpt><trkpt lat="43.9600733" lon="12.1967567"><ele>158.0</ele><time>2026-04-25T09:11:05.018Z</time></trkpt><trkpt lat="43.9601567" lon="12.19676"><ele>159.16666666666666</ele><time>2026-04-25T09:11:08.017Z</time></trkpt><trkpt lat="43.9602317" lon="12.19677"><ele>160.33333333333331</ele><time>2026-04-25T09:11:11.017Z</time></trkpt><trkpt lat="43.9602967" lon="12.1967583"><ele>161.5</ele><time>2026-04-25T09:11:13.018Z</time></trkpt><trkpt lat="43.960375" lon="12.196765"><ele>162.66666666666666</ele><time>2026-04-25T09:11:16.017Z</time></trkpt><trkpt lat="43.960465" lon="12.1967667"><ele>163.83333333333334</ele><time>2026-04-25T09:11:19.017Z</time></trkpt><trkpt lat="43.9605533" lon="12.1967817"><ele>165.0</ele><time>2026-04-25T09:11:22.018Z</time></trkpt><trkpt lat="43.9606433" lon="12.1967533"><ele>165.0</ele><time>2026-04-25T09:11:25.018Z</time></trkpt><trkpt lat="43.960725" lon="12.196735"><ele>165.0</ele><time>2026-04-25T09:11:28.017Z</time></trkpt><trkpt lat="43.9608133" lon="12.196715"><ele>165.0</ele><time>2026-04-25T09:11:31.018Z</time></trkpt><trkpt lat="43.9609" lon="12.1967233"><ele>165.0</ele><time>2026-04-25T09:11:34.018Z</time></trkpt><trkpt lat="43.96098" lon="12.1967133"><ele>165.0</ele><time>2026-04-25T09:11:37.017Z</time></trkpt><trkpt lat="43.961055" lon="12.1966883"><ele>165.0</ele><time>2026-04-25T09:11:39.018Z</time></trkpt><trkpt lat="43.9611333" lon="12.1966817"><ele>166.0</ele><time>2026-04-25T09:11:41.017Z</time></trkpt><trkpt lat="43.9612217" lon="12.1966583"><ele>167.0</ele><time>2026-04-25T09:11:44.018Z</time></trkpt><trkpt lat="43.96131" lon="12.1966333"><ele>168.0</ele><time>2026-04-25T09:11:47.018Z</time></trkpt><trkpt lat="43.9614" lon="12.1966133"><ele>169.0</ele><time>2026-04-25T09:11:50.017Z</time></trkpt><trkpt lat="43.9614917" lon="12.1965883"><ele>170.0</ele><time>2026-04-25T09:11:53.018Z</time></trkpt><trkpt lat="43.9615567" lon="12.1965733"><ele>171.0</ele><time>2026-04-25T09:11:55.018Z</time></trkpt><trkpt lat="43.9616417" lon="12.196555"><ele>172.0</ele><time>2026-04-25T09:11:58.017Z</time></trkpt><trkpt lat="43.9617067" lon="12.19654"><ele>173.0</ele><time>2026-04-25T09:12:00.018Z</time></trkpt><trkpt lat="43.9617783" lon="12.1965217"><ele>174.0</ele><time>2026-04-25T09:12:02.018Z</time></trkpt><trkpt lat="43.9618733" lon="12.1965217"><ele>175.0</ele><time>2026-04-25T09:12:05.018Z</time></trkpt><trkpt lat="43.9619717" lon="12.1965183"><ele>176.0</ele><time>2026-04-25T09:12:08.017Z</time></trkpt><trkpt lat="43.9620633" lon="12.1964867"><ele>177.0</ele><time>2026-04-25T09:12:11.016Z</time></trkpt><trkpt lat="43.9621267" lon="12.1964683"><ele>177.0</ele><time>2026-04-25T09:12:13.016Z</time></trkpt><trkpt lat="43.962195" lon="12.1964517"><ele>177.0</ele><time>2026-04-25T09:12:15.017Z</time></trkpt><trkpt lat="43.9622867" lon="12.1964633"><ele>177.0</ele><time>2026-04-25T09:12:18.017Z</time></trkpt><trkpt lat="43.9623717" lon="12.1964483"><ele>177.0</ele><time>2026-04-25T09:12:20.016Z</time></trkpt><trkpt lat="43.9624417" lon="12.1964333"><ele>177.0</ele><time>2026-04-25T09:12:22.017Z</time></trkpt><trkpt lat="43.9625167" lon="12.1964267"><ele>177.0</ele><time>2026-04-25T09:12:24.017Z</time></trkpt><trkpt lat="43.9625883" lon="12.19642"><ele>177.0</ele><time>2026-04-25T09:12:26.017Z</time></trkpt><trkpt lat="43.9626667" lon="12.1964067"><ele>177.0</ele><time>2026-04-25T09:12:28.017Z</time></trkpt><trkpt lat="43.9627417" lon="12.1963883"><ele>177.0</ele><time>2026-04-25T09:12:30.017Z</time></trkpt><trkpt lat="43.9628233" lon="12.1963717"><ele>177.0</ele><time>2026-04-25T09:12:32.017Z</time></trkpt><trkpt lat="43.9629133" lon="12.1963667"><ele>177.0</ele><time>2026-04-25T09:12:34.017Z</time></trkpt><trkpt lat="43.9630067" lon="12.1963483"><ele>177.0</ele><time>2026-04-25T09:12:36.017Z</time></trkpt><trkpt lat="43.96311" lon="12.1963483"><ele>177.0</ele><time>2026-04-25T09:12:38.016Z</time></trkpt><trkpt lat="43.9632067" lon="12.1963417"><ele>177.0</ele><time>2026-04-25T09:12:40.016Z</time></trkpt><trkpt lat="43.9633033" lon="12.1963283"><ele>177.0</ele><time>2026-04-25T09:12:42.016Z</time></trkpt><trkpt lat="43.9634017" lon="12.1963233"><ele>177.0</ele><time>2026-04-25T09:12:44.016Z</time></trkpt><trkpt lat="43.9634833" lon="12.1963183"><ele>177.0</ele><time>2026-04-25T09:12:46.017Z</time></trkpt><trkpt lat="43.9635667" lon="12.1963083"><ele>177.5</ele><time>2026-04-25T09:12:48.017Z</time></trkpt><trkpt lat="43.9636467" lon="12.1962883"><ele>178.0</ele><time>2026-04-25T09:12:50.016Z</time></trkpt><trkpt lat="43.963735" lon="12.196275"><ele>178.5</ele><time>2026-04-25T09:12:52.017Z</time></trkpt><trkpt lat="43.96382" lon="12.19628"><ele>179.0</ele><time>2026-04-25T09:12:54.016Z</time></trkpt><trkpt lat="43.9639067" lon="12.1962717"><ele>179.5</ele><time>2026-04-25T09:12:56.017Z</time></trkpt><trkpt lat="43.9639983" lon="12.1962667"><ele>180.0</ele><time>2026-04-25T09:12:58.017Z</time></trkpt><trkpt lat="43.9640917" lon="12.1962683"><ele>180.0</ele><time>2026-04-25T09:13:00.016Z</time></trkpt><trkpt lat="43.9641933" lon="12.19625"><ele>180.0</ele><time>2026-04-25T09:13:02.017Z</time></trkpt><trkpt lat="43.964305" lon="12.1962717"><ele>180.0</ele><time>2026-04-25T09:13:04.017Z</time></trkpt><trkpt lat="43.9644" lon="12.1963"><ele>180.0</ele><time>2026-04-25T09:13:06.017Z</time></trkpt><trkpt lat="43.964515" lon="12.1963067"><ele>180.0</ele><time>2026-04-25T09:13:08.016Z</time></trkpt><trkpt lat="43.9646183" lon="12.1963317"><ele>179.8</ele><time>2026-04-25T09:13:10.017Z</time></trkpt><trkpt lat="43.9647283" lon="12.1963583"><ele>179.6</ele><time>2026-04-25T09:13:12.017Z</time></trkpt><trkpt lat="43.9648317" lon="12.1963883"><ele>179.39999999999998</ele><time>2026-04-25T09:13:14.016Z</time></trkpt><trkpt lat="43.96494" lon="12.196415"><ele>179.2</ele><time>2026-04-25T09:13:16.016Z</time></trkpt><trkpt lat="43.9650367" lon="12.19641"><ele>179.0</ele><time>2026-04-25T09:13:18.017Z</time></trkpt><trkpt lat="43.965145" lon="12.1964217"><ele>178.79999999999998</ele><time>2026-04-25T09:13:20.017Z</time></trkpt><trkpt lat="43.9652617" lon="12.1964433"><ele>178.6</ele><time>2026-04-25T09:13:22.017Z</time></trkpt><trkpt lat="43.9653767" lon="12.19647"><ele>178.4</ele><time>2026-04-25T09:13:24.016Z</time></trkpt><trkpt lat="43.9654883" lon="12.1964983"><ele>178.2</ele><time>2026-04-25T09:13:26.017Z</time></trkpt><trkpt lat="43.965575" lon="12.196555"><ele>178.0</ele><time>2026-04-25T09:13:28.017Z</time></trkpt><trkpt lat="43.9656517" lon="12.1965917"><ele>177.4</ele><time>2026-04-25T09:13:30.017Z</time></trkpt><trkpt lat="43.9657467" lon="12.19662"><ele>176.8</ele><time>2026-04-25T09:13:32.016Z</time></trkpt><trkpt lat="43.96587" lon="12.1966083"><ele>176.2</ele><time>2026-04-25T09:13:34.017Z</time></trkpt><trkpt lat="43.9659817" lon="12.1966383"><ele>175.6</ele><time>2026-04-25T09:13:36.017Z</time></trkpt><trkpt lat="43.9660717" lon="12.1966717"><ele>175.0</ele><time>2026-04-25T09:13:38.016Z</time></trkpt><trkpt lat="43.9661767" lon="12.19667"><ele>175.0</ele><time>2026-04-25T09:13:40.017Z</time></trkpt><trkpt lat="43.9662583" lon="12.1966967"><ele>175.0</ele><time>2026-04-25T09:13:42.017Z</time></trkpt><trkpt lat="43.96636" lon="12.1967367"><ele>175.0</ele><time>2026-04-25T09:13:44.016Z</time></trkpt><trkpt lat="43.96647" lon="12.1967483"><ele>175.0</ele><time>2026-04-25T09:13:46.017Z</time></trkpt><trkpt lat="43.96657" lon="12.1967533"><ele>175.0</ele><time>2026-04-25T09:13:48.016Z</time></trkpt><trkpt lat="43.96667" lon="12.1967567"><ele>175.0</ele><time>2026-04-25T09:13:50.016Z</time></trkpt><trkpt lat="43.9667833" lon="12.1967733"><ele>175.0</ele><time>2026-04-25T09:13:52.017Z</time></trkpt><trkpt lat="43.9668933" lon="12.1967867"><ele>175.0</ele><time>2026-04-25T09:13:54.017Z</time></trkpt><trkpt lat="43.9669933" lon="12.196795"><ele>175.0</ele><time>2026-04-25T09:13:56.016Z</time></trkpt><trkpt lat="43.9671133" lon="12.1968117"><ele>175.0</ele><time>2026-04-25T09:13:58.016Z</time></trkpt><trkpt lat="43.9672183" lon="12.196825"><ele>175.0</ele><time>2026-04-25T09:14:00.017Z</time></trkpt><trkpt lat="43.9673383" lon="12.19686"><ele>175.0</ele><time>2026-04-25T09:14:02.016Z</time></trkpt><trkpt lat="43.9674017" lon="12.19687"><ele>175.0</ele><time>2026-04-25T09:14:03.016Z</time></trkpt><trkpt lat="43.96751" lon="12.1969117"><ele>175.0</ele><time>2026-04-25T09:14:05.017Z</time></trkpt><trkpt lat="43.96762" lon="12.196925"><ele>175.0</ele><time>2026-04-25T09:14:07.016Z</time></trkpt><trkpt lat="43.9677233" lon="12.19693"><ele>175.0</ele><time>2026-04-25T09:14:09.017Z</time></trkpt><trkpt lat="43.9678317" lon="12.196935"><ele>175.0</ele><time>2026-04-25T09:14:11.017Z</time></trkpt><trkpt lat="43.9679517" lon="12.1969417"><ele>175.0</ele><time>2026-04-25T09:14:13.016Z</time></trkpt><trkpt lat="43.9680667" lon="12.196955"><ele>175.0</ele><time>2026-04-25T09:14:15.016Z</time></trkpt><trkpt lat="43.968175" lon="12.1969767"><ele>175.0</ele><time>2026-04-25T09:14:17.017Z</time></trkpt><trkpt lat="43.9682833" lon="12.1970033"><ele>175.0</ele><time>2026-04-25T09:14:19.017Z</time></trkpt><trkpt lat="43.96839" lon="12.1970333"><ele>175.0</ele><time>2026-04-25T09:14:21.017Z</time></trkpt><trkpt lat="43.9685" lon="12.1970567"><ele>175.0</ele><time>2026-04-25T09:14:23.016Z</time></trkpt><trkpt lat="43.9686233" lon="12.1970817"><ele>174.2</ele><time>2026-04-25T09:14:25.017Z</time></trkpt><trkpt lat="43.9687367" lon="12.19709"><ele>173.4</ele><time>2026-04-25T09:14:27.016Z</time></trkpt><trkpt lat="43.968865" lon="12.1971133"><ele>172.60000000000002</ele><time>2026-04-25T09:14:29.017Z</time></trkpt><trkpt lat="43.9689867" lon="12.1971417"><ele>171.8</ele><time>2026-04-25T09:14:31.016Z</time></trkpt><trkpt lat="43.96905" lon="12.197155"><ele>171.0</ele><time>2026-04-25T09:14:32.017Z</time></trkpt><trkpt lat="43.9691133" lon="12.1971617"><ele>171.0</ele><time>2026-04-25T09:14:33.016Z</time></trkpt><trkpt lat="43.969235" lon="12.1971733"><ele>171.0</ele><time>2026-04-25T09:14:35.016Z</time></trkpt><trkpt lat="43.9692983" lon="12.1971833"><ele>171.0</ele><time>2026-04-25T09:14:36.016Z</time></trkpt><trkpt lat="43.9694267" lon="12.1972"><ele>171.0</ele><time>2026-04-25T09:14:38.017Z</time></trkpt><trkpt lat="43.9694917" lon="12.1972067"><ele>171.0</ele><time>2026-04-25T09:14:39.017Z</time></trkpt><trkpt lat="43.9695583" lon="12.1972167"><ele>171.0</ele><time>2026-04-25T09:14:40.017Z</time></trkpt><trkpt lat="43.9696817" lon="12.1972483"><ele>171.0</ele><time>2026-04-25T09:14:42.017Z</time></trkpt><trkpt lat="43.969795" lon="12.19727"><ele>171.0</ele><time>2026-04-25T09:14:44.016Z</time></trkpt><trkpt lat="43.9698583" lon="12.1972717"><ele>171.0</ele><time>2026-04-25T09:14:45.016Z</time></trkpt><trkpt lat="43.9699217" lon="12.1972767"><ele>171.0</ele><time>2026-04-25T09:14:46.017Z</time></trkpt><trkpt lat="43.9700267" lon="12.1972967"><ele>171.0</ele><time>2026-04-25T09:14:48.016Z</time></trkpt><trkpt lat="43.9701367" lon="12.1973067"><ele>170.8</ele><time>2026-04-25T09:14:50.017Z</time></trkpt><trkpt lat="43.9702517" lon="12.1973317"><ele>170.60000000000002</ele><time>2026-04-25T09:14:52.017Z</time></trkpt><trkpt lat="43.9703817" lon="12.1973533"><ele>170.4</ele><time>2026-04-25T09:14:54.017Z</time></trkpt><trkpt lat="43.9704533" lon="12.1973683"><ele>170.2</ele><time>2026-04-25T09:14:55.016Z</time></trkpt><trkpt lat="43.9705233" lon="12.1973867"><ele>170.0</ele><time>2026-04-25T09:14:56.017Z</time></trkpt><trkpt lat="43.970595" lon="12.1973983"><ele>169.42857142857144</ele><time>2026-04-25T09:14:57.016Z</time></trkpt><trkpt lat="43.9706617" lon="12.1974133"><ele>168.85714285714283</ele><time>2026-04-25T09:14:58.017Z</time></trkpt><trkpt lat="43.97073" lon="12.19743"><ele>168.28571428571428</ele><time>2026-04-25T09:14:59.017Z</time></trkpt><trkpt lat="43.9708033" lon="12.1974417"><ele>167.71428571428572</ele><time>2026-04-25T09:15:00.016Z</time></trkpt><trkpt lat="43.9708667" lon="12.197455"><ele>167.14285714285717</ele><time>2026-04-25T09:15:01.017Z</time></trkpt><trkpt lat="43.97094" lon="12.1974667"><ele>166.57142857142856</ele><time>2026-04-25T09:15:02.016Z</time></trkpt><trkpt lat="43.9710117" lon="12.197475"><ele>166.0</ele><time>2026-04-25T09:15:03.017Z</time></trkpt><trkpt lat="43.971085" lon="12.197485"><ele>165.57142857142856</ele><time>2026-04-25T09:15:04.016Z</time></trkpt><trkpt lat="43.9711583" lon="12.1975083"><ele>165.14285714285717</ele><time>2026-04-25T09:15:05.017Z</time></trkpt><trkpt lat="43.97123" lon="12.1975167"><ele>164.71428571428572</ele><time>2026-04-25T09:15:06.017Z</time></trkpt><trkpt lat="43.9713033" lon="12.19752"><ele>164.28571428571428</ele><time>2026-04-25T09:15:07.017Z</time></trkpt><trkpt lat="43.9713733" lon="12.1975333"><ele>163.85714285714283</ele><time>2026-04-25T09:15:08.017Z</time></trkpt><trkpt lat="43.9714467" lon="12.1975383"><ele>163.42857142857144</ele><time>2026-04-25T09:15:09.016Z</time></trkpt><trkpt lat="43.971525" lon="12.1975417"><ele>163.0</ele><time>2026-04-25T09:15:10.017Z</time></trkpt><trkpt lat="43.9715917" lon="12.1975583"><ele>163.0</ele><time>2026-04-25T09:15:11.016Z</time></trkpt><trkpt lat="43.971665" lon="12.1975767"><ele>163.0</ele><time>2026-04-25T09:15:12.017Z</time></trkpt><trkpt lat="43.9717383" lon="12.1975867"><ele>163.0</ele><time>2026-04-25T09:15:13.017Z</time></trkpt><trkpt lat="43.97181" lon="12.1976"><ele>163.0</ele><time>2026-04-25T09:15:14.017Z</time></trkpt><trkpt lat="43.971885" lon="12.1976067"><ele>163.0</ele><time>2026-04-25T09:15:15.017Z</time></trkpt><trkpt lat="43.9719567" lon="12.197615"><ele>163.0</ele><time>2026-04-25T09:15:16.017Z</time></trkpt><trkpt lat="43.9720283" lon="12.1976367"><ele>163.0</ele><time>2026-04-25T09:15:17.016Z</time></trkpt><trkpt lat="43.972105" lon="12.1976433"><ele>163.2857142857143</ele><time>2026-04-25T09:15:18.017Z</time></trkpt><trkpt lat="43.9721717" lon="12.1976567"><ele>163.57142857142856</ele><time>2026-04-25T09:15:19.017Z</time></trkpt><trkpt lat="43.97224" lon="12.19767"><ele>163.85714285714286</ele><time>2026-04-25T09:15:20.017Z</time></trkpt><trkpt lat="43.972315" lon="12.197685"><ele>164.14285714285717</ele><time>2026-04-25T09:15:21.017Z</time></trkpt><trkpt lat="43.97239" lon="12.1977017"><ele>164.42857142857144</ele><time>2026-04-25T09:15:22.016Z</time></trkpt><trkpt lat="43.972465" lon="12.1977167"><ele>164.71428571428572</ele><time>2026-04-25T09:15:23.017Z</time></trkpt><trkpt lat="43.9725367" lon="12.1977233"><ele>165.0</ele><time>2026-04-25T09:15:24.017Z</time></trkpt><trkpt lat="43.972605" lon="12.1977467"><ele>165.33333333333334</ele><time>2026-04-25T09:15:25.017Z</time></trkpt><trkpt lat="43.9726683" lon="12.1977483"><ele>165.66666666666666</ele><time>2026-04-25T09:15:26.016Z</time></trkpt><trkpt lat="43.972735" lon="12.197755"><ele>166.0</ele><time>2026-04-25T09:15:27.017Z</time></trkpt><trkpt lat="43.9728617" lon="12.197775"><ele>166.33333333333331</ele><time>2026-04-25T09:15:29.016Z</time></trkpt><trkpt lat="43.9729317" lon="12.1977783"><ele>166.66666666666666</ele><time>2026-04-25T09:15:30.017Z</time></trkpt><trkpt lat="43.9730517" lon="12.1978017"><ele>167.0</ele><time>2026-04-25T09:15:32.016Z</time></trkpt><trkpt lat="43.973175" lon="12.197825"><ele>167.0</ele><time>2026-04-25T09:15:34.017Z</time></trkpt><trkpt lat="43.9732417" lon="12.1978383"><ele>167.0</ele><time>2026-04-25T09:15:35.016Z</time></trkpt><trkpt lat="43.9733083" lon="12.1978517"><ele>167.0</ele><time>2026-04-25T09:15:36.017Z</time></trkpt><trkpt lat="43.9733767" lon="12.19786"><ele>167.0</ele><time>2026-04-25T09:15:37.017Z</time></trkpt><trkpt lat="43.9734433" lon="12.1978633"><ele>167.0</ele><time>2026-04-25T09:15:38.017Z</time></trkpt><trkpt lat="43.9735583" lon="12.1978783"><ele>167.0</ele><time>2026-04-25T09:15:40.016Z</time></trkpt><trkpt lat="43.97367" lon="12.19791"><ele>166.8</ele><time>2026-04-25T09:15:42.016Z</time></trkpt><trkpt lat="43.973785" lon="12.1979433"><ele>166.6</ele><time>2026-04-25T09:15:44.017Z</time></trkpt><trkpt lat="43.973895" lon="12.19797"><ele>166.4</ele><time>2026-04-25T09:15:46.017Z</time></trkpt><trkpt lat="43.9740167" lon="12.1979967"><ele>166.20000000000002</ele><time>2026-04-25T09:15:48.017Z</time></trkpt><trkpt lat="43.97408" lon="12.1980117"><ele>166.0</ele><time>2026-04-25T09:15:49.016Z</time></trkpt><trkpt lat="43.9741433" lon="12.1980317"><ele>165.5</ele><time>2026-04-25T09:15:50.017Z</time></trkpt><trkpt lat="43.974265" lon="12.1980683"><ele>165.0</ele><time>2026-04-25T09:15:52.017Z</time></trkpt><trkpt lat="43.974385" lon="12.1980867"><ele>164.5</ele><time>2026-04-25T09:15:54.016Z</time></trkpt><trkpt lat="43.9745017" lon="12.1981083"><ele>164.0</ele><time>2026-04-25T09:15:56.017Z</time></trkpt><trkpt lat="43.9746283" lon="12.1981333"><ele>163.99999999999997</ele><time>2026-04-25T09:15:58.016Z</time></trkpt><trkpt lat="43.9747517" lon="12.1981517"><ele>164.0</ele><time>2026-04-25T09:16:00.017Z</time></trkpt><trkpt lat="43.974815" lon="12.1981717"><ele>164.0</ele><time>2026-04-25T09:16:01.017Z</time></trkpt><trkpt lat="43.9748767" lon="12.19819"><ele>164.0</ele><time>2026-04-25T09:16:02.017Z</time></trkpt><trkpt lat="43.9749383" lon="12.1982133"><ele>164.0</ele><time>2026-04-25T09:16:03.017Z</time></trkpt><trkpt lat="43.9750017" lon="12.1982317"><ele>163.99999999999997</ele><time>2026-04-25T09:16:04.016Z</time></trkpt><trkpt lat="43.9750667" lon="12.1982517"><ele>164.0</ele><time>2026-04-25T09:16:05.017Z</time></trkpt><trkpt lat="43.97513" lon="12.1982667"><ele>163.7142857142857</ele><time>2026-04-25T09:16:06.016Z</time></trkpt><trkpt lat="43.9751967" lon="12.19829"><ele>163.42857142857142</ele><time>2026-04-25T09:16:07.017Z</time></trkpt><trkpt lat="43.97526" lon="12.1983033"><ele>163.14285714285714</ele><time>2026-04-25T09:16:08.017Z</time></trkpt><trkpt lat="43.9753233" lon="12.1983283"><ele>162.85714285714283</ele><time>2026-04-25T09:16:09.017Z</time></trkpt><trkpt lat="43.9753867" lon="12.19835"><ele>162.57142857142856</ele><time>2026-04-25T09:16:10.017Z</time></trkpt><trkpt lat="43.9754483" lon="12.1983683"><ele>162.28571428571428</ele><time>2026-04-25T09:16:11.017Z</time></trkpt><trkpt lat="43.975515" lon="12.19839"><ele>162.0</ele><time>2026-04-25T09:16:12.017Z</time></trkpt><trkpt lat="43.9755817" lon="12.1984017"><ele>162.0</ele><time>2026-04-25T09:16:13.017Z</time></trkpt><trkpt lat="43.9756483" lon="12.1984117"><ele>162.0</ele><time>2026-04-25T09:16:14.016Z</time></trkpt><trkpt lat="43.975715" lon="12.1984083"><ele>162.0</ele><time>2026-04-25T09:16:15.017Z</time></trkpt><trkpt lat="43.975785" lon="12.1984033"><ele>162.0</ele><time>2026-04-25T09:16:16.016Z</time></trkpt><trkpt lat="43.97585" lon="12.1983917"><ele>162.0</ele><time>2026-04-25T09:16:17.016Z</time></trkpt><trkpt lat="43.9759133" lon="12.1983767"><ele>162.0</ele><time>2026-04-25T09:16:18.017Z</time></trkpt><trkpt lat="43.9760333" lon="12.198325"><ele>161.0</ele><time>2026-04-25T09:16:20.017Z</time></trkpt><trkpt lat="43.976135" lon="12.1982517"><ele>160.0</ele><time>2026-04-25T09:16:22.016Z</time></trkpt><trkpt lat="43.9762067" lon="12.19814"><ele>159.0</ele><time>2026-04-25T09:16:24.017Z</time></trkpt><trkpt lat="43.9762617" lon="12.197995"><ele>158.0</ele><time>2026-04-25T09:16:26.016Z</time></trkpt><trkpt lat="43.9762833" lon="12.197835"><ele>158.0</ele><time>2026-04-25T09:16:28.016Z</time></trkpt><trkpt lat="43.9763167" lon="12.19767"><ele>158.0</ele><time>2026-04-25T09:16:30.017Z</time></trkpt><trkpt lat="43.9763417" lon="12.1975067"><ele>158.0</ele><time>2026-04-25T09:16:32.017Z</time></trkpt><trkpt lat="43.9763583" lon="12.1974217"><ele>158.0</ele><time>2026-04-25T09:16:33.017Z</time></trkpt><trkpt lat="43.976385" lon="12.1973317"><ele>158.0</ele><time>2026-04-25T09:16:34.016Z</time></trkpt><trkpt lat="43.9764183" lon="12.1972417"><ele>158.42857142857144</ele><time>2026-04-25T09:16:35.017Z</time></trkpt><trkpt lat="43.9764617" lon="12.1971517"><ele>158.85714285714286</ele><time>2026-04-25T09:16:36.017Z</time></trkpt><trkpt lat="43.9765033" lon="12.19707"><ele>159.28571428571428</ele><time>2026-04-25T09:16:37.017Z</time></trkpt><trkpt lat="43.976555" lon="12.197"><ele>159.71428571428572</ele><time>2026-04-25T09:16:38.017Z</time></trkpt><trkpt lat="43.9766033" lon="12.1969283"><ele>160.14285714285714</ele><time>2026-04-25T09:16:39.016Z</time></trkpt><trkpt lat="43.9766533" lon="12.1968667"><ele>160.57142857142858</ele><time>2026-04-25T09:16:40.017Z</time></trkpt><trkpt lat="43.9767183" lon="12.1968367"><ele>161.0</ele><time>2026-04-25T09:16:41.017Z</time></trkpt><trkpt lat="43.9768367" lon="12.1968667"><ele>161.8</ele><time>2026-04-25T09:16:43.017Z</time></trkpt><trkpt lat="43.9769" lon="12.1969083"><ele>162.60000000000002</ele><time>2026-04-25T09:16:44.017Z</time></trkpt><trkpt lat="43.976955" lon="12.1969533"><ele>163.4</ele><time>2026-04-25T09:16:45.017Z</time></trkpt><trkpt lat="43.9770533" lon="12.197045"><ele>164.2</ele><time>2026-04-25T09:16:47.017Z</time></trkpt><trkpt lat="43.9771533" lon="12.1971317"><ele>165.0</ele><time>2026-04-25T09:16:49.017Z</time></trkpt><trkpt lat="43.977245" lon="12.19722"><ele>165.0</ele><time>2026-04-25T09:16:51.017Z</time></trkpt><trkpt lat="43.9773317" lon="12.1972967"><ele>165.0</ele><time>2026-04-25T09:16:53.017Z</time></trkpt><trkpt lat="43.9774133" lon="12.1973733"><ele>165.0</ele><time>2026-04-25T09:16:55.016Z</time></trkpt><trkpt lat="43.9774967" lon="12.1974617"><ele>165.0</ele><time>2026-04-25T09:16:57.016Z</time></trkpt><trkpt lat="43.9775883" lon="12.1975283"><ele>165.0</ele><time>2026-04-25T09:16:59.016Z</time></trkpt><trkpt lat="43.9776867" lon="12.1975917"><ele>165.0</ele><time>2026-04-25T09:17:01.017Z</time></trkpt><trkpt lat="43.977785" lon="12.19765"><ele>165.0</ele><time>2026-04-25T09:17:03.017Z</time></trkpt><trkpt lat="43.977895" lon="12.1977"><ele>165.0</ele><time>2026-04-25T09:17:05.017Z</time></trkpt><trkpt lat="43.9780033" lon="12.19772"><ele>165.0</ele><time>2026-04-25T09:17:07.016Z</time></trkpt><trkpt lat="43.9781233" lon="12.1977167"><ele>165.0</ele><time>2026-04-25T09:17:09.017Z</time></trkpt><trkpt lat="43.9782333" lon="12.1977133"><ele>165.0</ele><time>2026-04-25T09:17:11.016Z</time></trkpt><trkpt lat="43.978355" lon="12.1977317"><ele>165.0</ele><time>2026-04-25T09:17:13.017Z</time></trkpt><trkpt lat="43.9784783" lon="12.197755"><ele>165.0</ele><time>2026-04-25T09:17:15.017Z</time></trkpt><trkpt lat="43.9785417" lon="12.1977633"><ele>165.0</ele><time>2026-04-25T09:17:16.016Z</time></trkpt><trkpt lat="43.97866" lon="12.1977633"><ele>164.83333333333334</ele><time>2026-04-25T09:17:18.016Z</time></trkpt><trkpt lat="43.978785" lon="12.19777"><ele>164.66666666666666</ele><time>2026-04-25T09:17:20.017Z</time></trkpt><trkpt lat="43.97885" lon="12.1977767"><ele>164.5</ele><time>2026-04-25T09:17:21.017Z</time></trkpt><trkpt lat="43.9789667" lon="12.1977783"><ele>164.33333333333331</ele><time>2026-04-25T09:17:23.017Z</time></trkpt><trkpt lat="43.97903" lon="12.1977883"><ele>164.16666666666666</ele><time>2026-04-25T09:17:24.017Z</time></trkpt><trkpt lat="43.9790933" lon="12.1977883"><ele>164.0</ele><time>2026-04-25T09:17:25.016Z</time></trkpt><trkpt lat="43.979215" lon="12.1977517"><ele>163.5</ele><time>2026-04-25T09:17:27.017Z</time></trkpt><trkpt lat="43.9792733" lon="12.1977117"><ele>163.0</ele><time>2026-04-25T09:17:28.017Z</time></trkpt><trkpt lat="43.9793583" lon="12.1975883"><ele>162.5</ele><time>2026-04-25T09:17:30.016Z</time></trkpt><trkpt lat="43.9793983" lon="12.1975017"><ele>162.0</ele><time>2026-04-25T09:17:31.017Z</time></trkpt><trkpt lat="43.9794417" lon="12.1974183"><ele>161.5</ele><time>2026-04-25T09:17:32.017Z</time></trkpt><trkpt lat="43.9794833" lon="12.1973333"><ele>161.0</ele><time>2026-04-25T09:17:33.016Z</time></trkpt><trkpt lat="43.97953" lon="12.1972517"><ele>161.0</ele><time>2026-04-25T09:17:34.017Z</time></trkpt><trkpt lat="43.9795767" lon="12.1971617"><ele>161.0</ele><time>2026-04-25T09:17:35.016Z</time></trkpt><trkpt lat="43.9796283" lon="12.19707"><ele>161.0</ele><time>2026-04-25T09:17:36.016Z</time></trkpt><trkpt lat="43.9796833" lon="12.19699"><ele>161.0</ele><time>2026-04-25T09:17:37.016Z</time></trkpt><trkpt lat="43.9797417" lon="12.19692"><ele>161.0</ele><time>2026-04-25T09:17:38.016Z</time></trkpt><trkpt lat="43.979805" lon="12.1968633"><ele>161.0</ele><time>2026-04-25T09:17:39.017Z</time></trkpt><trkpt lat="43.979875" lon="12.1968167"><ele>161.0</ele><time>2026-04-25T09:17:40.017Z</time></trkpt><trkpt lat="43.97995" lon="12.196805"><ele>161.0</ele><time>2026-04-25T09:17:41.017Z</time></trkpt><trkpt lat="43.9800217" lon="12.196815"><ele>161.0</ele><time>2026-04-25T09:17:42.016Z</time></trkpt><trkpt lat="43.9800933" lon="12.196835"><ele>161.0</ele><time>2026-04-25T09:17:43.016Z</time></trkpt><trkpt lat="43.9801617" lon="12.1968717"><ele>161.0</ele><time>2026-04-25T09:17:44.016Z</time></trkpt><trkpt lat="43.98023" lon="12.1969217"><ele>161.0</ele><time>2026-04-25T09:17:45.017Z</time></trkpt><trkpt lat="43.9802883" lon="12.1969717"><ele>161.0</ele><time>2026-04-25T09:17:46.016Z</time></trkpt><trkpt lat="43.9803867" lon="12.1970667"><ele>161.60000000000002</ele><time>2026-04-25T09:17:48.016Z</time></trkpt><trkpt lat="43.9804733" lon="12.1971583"><ele>162.2</ele><time>2026-04-25T09:17:50.016Z</time></trkpt><trkpt lat="43.9805617" lon="12.1972367"><ele>162.8</ele><time>2026-04-25T09:17:52.016Z</time></trkpt><trkpt lat="43.980675" lon="12.1973167"><ele>163.39999999999998</ele><time>2026-04-25T09:17:54.016Z</time></trkpt><trkpt lat="43.9807333" lon="12.1973533"><ele>164.0</ele><time>2026-04-25T09:17:55.015Z</time></trkpt><trkpt lat="43.9808467" lon="12.1974267"><ele>163.16666666666666</ele><time>2026-04-25T09:17:57.016Z</time></trkpt><trkpt lat="43.9809067" lon="12.1974733"><ele>162.33333333333331</ele><time>2026-04-25T09:17:58.015Z</time></trkpt><trkpt lat="43.9809667" lon="12.1975033"><ele>161.5</ele><time>2026-04-25T09:17:59.016Z</time></trkpt><trkpt lat="43.98103" lon="12.19752"><ele>160.66666666666666</ele><time>2026-04-25T09:18:00.016Z</time></trkpt><trkpt lat="43.9811533" lon="12.1975183"><ele>159.83333333333334</ele><time>2026-04-25T09:18:02.015Z</time></trkpt><trkpt lat="43.9812167" lon="12.1975033"><ele>159.0</ele><time>2026-04-25T09:18:03.015Z</time></trkpt><trkpt lat="43.9812867" lon="12.1974883"><ele>159.0</ele><time>2026-04-25T09:18:04.015Z</time></trkpt><trkpt lat="43.981355" lon="12.1974667"><ele>159.0</ele><time>2026-04-25T09:18:05.016Z</time></trkpt><trkpt lat="43.981425" lon="12.1974417"><ele>159.0</ele><time>2026-04-25T09:18:06.015Z</time></trkpt><trkpt lat="43.9814967" lon="12.1974133"><ele>159.0</ele><time>2026-04-25T09:18:07.016Z</time></trkpt><trkpt lat="43.9815683" lon="12.19738"><ele>159.0</ele><time>2026-04-25T09:18:08.016Z</time></trkpt><trkpt lat="43.98164" lon="12.197355"><ele>159.0</ele><time>2026-04-25T09:18:09.015Z</time></trkpt><trkpt lat="43.9817133" lon="12.1973283"><ele>159.0</ele><time>2026-04-25T09:18:10.015Z</time></trkpt><trkpt lat="43.9817867" lon="12.1972967"><ele>158.5</ele><time>2026-04-25T09:18:11.015Z</time></trkpt><trkpt lat="43.9818667" lon="12.1972717"><ele>158.0</ele><time>2026-04-25T09:18:12.016Z</time></trkpt><trkpt lat="43.981945" lon="12.19724"><ele>157.5</ele><time>2026-04-25T09:18:13.016Z</time></trkpt><trkpt lat="43.98202" lon="12.1972083"><ele>157.0</ele><time>2026-04-25T09:18:14.015Z</time></trkpt><trkpt lat="43.9821017" lon="12.1971683"><ele>156.5</ele><time>2026-04-25T09:18:15.016Z</time></trkpt><trkpt lat="43.9821883" lon="12.197135"><ele>156.0</ele><time>2026-04-25T09:18:16.016Z</time></trkpt><trkpt lat="43.9822733" lon="12.1971"><ele>156.0</ele><time>2026-04-25T09:18:17.016Z</time></trkpt><trkpt lat="43.9823633" lon="12.197065"><ele>156.0</ele><time>2026-04-25T09:18:18.016Z</time></trkpt><trkpt lat="43.9824567" lon="12.197035"><ele>156.0</ele><time>2026-04-25T09:18:19.015Z</time></trkpt><trkpt lat="43.982555" lon="12.1970083"><ele>156.0</ele><time>2026-04-25T09:18:20.015Z</time></trkpt><trkpt lat="43.9826583" lon="12.1969717"><ele>156.0</ele><time>2026-04-25T09:18:21.016Z</time></trkpt><trkpt lat="43.9827633" lon="12.1969333"><ele>154.6</ele><time>2026-04-25T09:18:22.015Z</time></trkpt><trkpt lat="43.9828667" lon="12.1968883"><ele>153.2</ele><time>2026-04-25T09:18:23.016Z</time></trkpt><trkpt lat="43.982975" lon="12.196855"><ele>151.8</ele><time>2026-04-25T09:18:24.016Z</time></trkpt><trkpt lat="43.9830833" lon="12.1968283"><ele>150.4</ele><time>2026-04-25T09:18:25.015Z</time></trkpt><trkpt lat="43.9831933" lon="12.19679"><ele>149.0</ele><time>2026-04-25T09:18:26.015Z</time></trkpt><trkpt lat="43.9833083" lon="12.196765"><ele>145.0</ele><time>2026-04-25T09:18:27.016Z</time></trkpt><trkpt lat="43.9834167" lon="12.1967383"><ele>141.0</ele><time>2026-04-25T09:18:28.016Z</time></trkpt><trkpt lat="43.9835283" lon="12.196715"><ele>137.0</ele><time>2026-04-25T09:18:29.016Z</time></trkpt><trkpt lat="43.9836317" lon="12.19669"><ele>133.0</ele><time>2026-04-25T09:18:30.016Z</time></trkpt><trkpt lat="43.9837317" lon="12.196655"><ele>129.0</ele><time>2026-04-25T09:18:31.016Z</time></trkpt><trkpt lat="43.983835" lon="12.19659"><ele>129.0</ele><time>2026-04-25T09:18:32.016Z</time></trkpt><trkpt lat="43.9839367" lon="12.1965183"><ele>129.0</ele><time>2026-04-25T09:18:33.015Z</time></trkpt><trkpt lat="43.9840367" lon="12.1964483"><ele>129.0</ele><time>2026-04-25T09:18:34.015Z</time></trkpt><trkpt lat="43.9841333" lon="12.1963833"><ele>129.0</ele><time>2026-04-25T09:18:35.015Z</time></trkpt><trkpt lat="43.98422" lon="12.1963117"><ele>129.0</ele><time>2026-04-25T09:18:36.015Z</time></trkpt><trkpt lat="43.9842917" lon="12.1962217"><ele>127.80000000000001</ele><time>2026-04-25T09:18:37.016Z</time></trkpt><trkpt lat="43.9843683" lon="12.1961183"><ele>126.60000000000001</ele><time>2026-04-25T09:18:38.015Z</time></trkpt><trkpt lat="43.9844417" lon="12.1960117"><ele>125.4</ele><time>2026-04-25T09:18:39.016Z</time></trkpt><trkpt lat="43.984515" lon="12.1959"><ele>124.2</ele><time>2026-04-25T09:18:40.015Z</time></trkpt><trkpt lat="43.98459" lon="12.19579"><ele>123.0</ele><time>2026-04-25T09:18:41.016Z</time></trkpt><trkpt lat="43.98467" lon="12.1956833"><ele>122.80000000000001</ele><time>2026-04-25T09:18:42.015Z</time></trkpt><trkpt lat="43.98476" lon="12.1955983"><ele>122.60000000000001</ele><time>2026-04-25T09:18:43.015Z</time></trkpt><trkpt lat="43.984855" lon="12.195535"><ele>122.39999999999999</ele><time>2026-04-25T09:18:44.016Z</time></trkpt><trkpt lat="43.9849467" lon="12.1954717"><ele>122.19999999999999</ele><time>2026-04-25T09:18:45.016Z</time></trkpt><trkpt lat="43.9850483" lon="12.19542"><ele>122.0</ele><time>2026-04-25T09:18:46.015Z</time></trkpt><trkpt lat="43.9851433" lon="12.1953983"><ele>122.0</ele><time>2026-04-25T09:18:47.016Z</time></trkpt><trkpt lat="43.9852333" lon="12.19537"><ele>121.99999999999999</ele><time>2026-04-25T09:18:48.015Z</time></trkpt><trkpt lat="43.985325" lon="12.1953433"><ele>121.99999999999999</ele><time>2026-04-25T09:18:49.016Z</time></trkpt><trkpt lat="43.9854083" lon="12.19533"><ele>122.0</ele><time>2026-04-25T09:18:50.016Z</time></trkpt><trkpt lat="43.985485" lon="12.1953167"><ele>122.0</ele><time>2026-04-25T09:18:51.016Z</time></trkpt><trkpt lat="43.9856083" lon="12.19529"><ele>121.99999999999999</ele><time>2026-04-25T09:18:53.016Z</time></trkpt><trkpt lat="43.98568" lon="12.19528"><ele>122.0</ele><time>2026-04-25T09:18:54.016Z</time></trkpt><trkpt lat="43.9857533" lon="12.195285"><ele>122.0</ele><time>2026-04-25T09:18:55.015Z</time></trkpt><trkpt lat="43.985825" lon="12.1953033"><ele>122.0</ele><time>2026-04-25T09:18:56.016Z</time></trkpt><trkpt lat="43.985895" lon="12.1953433"><ele>121.99999999999999</ele><time>2026-04-25T09:18:57.015Z</time></trkpt><trkpt lat="43.9859583" lon="12.195405"><ele>122.0</ele><time>2026-04-25T09:18:58.016Z</time></trkpt><trkpt lat="43.9860183" lon="12.1954817"><ele>121.66666666666666</ele><time>2026-04-25T09:18:59.016Z</time></trkpt><trkpt lat="43.9860667" lon="12.1955767"><ele>121.33333333333333</ele><time>2026-04-25T09:19:00.016Z</time></trkpt><trkpt lat="43.9861017" lon="12.1956617"><ele>121.0</ele><time>2026-04-25T09:19:01.015Z</time></trkpt><trkpt lat="43.9861533" lon="12.1957817"><ele>120.66666666666666</ele><time>2026-04-25T09:19:03.015Z</time></trkpt><trkpt lat="43.9861867" lon="12.1958833"><ele>120.33333333333333</ele><time>2026-04-25T09:19:06.016Z</time></trkpt><trkpt lat="43.986235" lon="12.1959433"><ele>120.0</ele><time>2026-04-25T09:19:08.015Z</time></trkpt><trkpt lat="43.9862917" lon="12.1959967"><ele>120.0</ele><time>2026-04-25T09:19:10.016Z</time></trkpt><trkpt lat="43.986385" lon="12.1960333"><ele>120.0</ele><time>2026-04-25T09:19:12.016Z</time></trkpt><trkpt lat="43.9865033" lon="12.1960583"><ele>120.0</ele><time>2026-04-25T09:19:14.016Z</time></trkpt><trkpt lat="43.98662" lon="12.196125"><ele>120.0</ele><time>2026-04-25T09:19:16.016Z</time></trkpt><trkpt lat="43.9866817" lon="12.196155"><ele>120.0</ele><time>2026-04-25T09:19:17.016Z</time></trkpt><trkpt lat="43.9867483" lon="12.1961917"><ele>119.42857142857143</ele><time>2026-04-25T09:19:18.015Z</time></trkpt><trkpt lat="43.986815" lon="12.1962333"><ele>118.85714285714286</ele><time>2026-04-25T09:19:19.016Z</time></trkpt><trkpt lat="43.986875" lon="12.1962783"><ele>118.28571428571429</ele><time>2026-04-25T09:19:20.016Z</time></trkpt><trkpt lat="43.986935" lon="12.1963367"><ele>117.71428571428572</ele><time>2026-04-25T09:19:21.015Z</time></trkpt><trkpt lat="43.98699" lon="12.1964017"><ele>117.14285714285714</ele><time>2026-04-25T09:19:22.015Z</time></trkpt><trkpt lat="43.9870417" lon="12.19648"><ele>116.57142857142858</ele><time>2026-04-25T09:19:23.015Z</time></trkpt><trkpt lat="43.9870817" lon="12.1965683"><ele>116.00000000000001</ele><time>2026-04-25T09:19:24.016Z</time></trkpt><trkpt lat="43.9871267" lon="12.1966567"><ele>115.99999999999999</ele><time>2026-04-25T09:19:25.016Z</time></trkpt><trkpt lat="43.9871717" lon="12.19675"><ele>116.0</ele><time>2026-04-25T09:19:26.015Z</time></trkpt><trkpt lat="43.9872233" lon="12.1968483"><ele>116.0</ele><time>2026-04-25T09:19:27.016Z</time></trkpt><trkpt lat="43.9872733" lon="12.1969467"><ele>116.0</ele><time>2026-04-25T09:19:28.015Z</time></trkpt><trkpt lat="43.9873217" lon="12.1970467"><ele>115.99999999999999</ele><time>2026-04-25T09:19:29.016Z</time></trkpt><trkpt lat="43.9873683" lon="12.19715"><ele>116.0</ele><time>2026-04-25T09:19:30.016Z</time></trkpt><trkpt lat="43.9874183" lon="12.19725"><ele>116.49999999999999</ele><time>2026-04-25T09:19:31.016Z</time></trkpt><trkpt lat="43.9874667" lon="12.1973517"><ele>117.0</ele><time>2026-04-25T09:19:32.016Z</time></trkpt><trkpt lat="43.9875283" lon="12.1974483"><ele>117.5</ele><time>2026-04-25T09:19:33.016Z</time></trkpt><trkpt lat="43.9875733" lon="12.1975417"><ele>118.0</ele><time>2026-04-25T09:19:34.015Z</time></trkpt><trkpt lat="43.987615" lon="12.1976383"><ele>118.49999999999999</ele><time>2026-04-25T09:19:35.015Z</time></trkpt><trkpt lat="43.98766" lon="12.1977367"><ele>119.0</ele><time>2026-04-25T09:19:36.015Z</time></trkpt><trkpt lat="43.9877033" lon="12.19783"><ele>118.99999999999999</ele><time>2026-04-25T09:19:37.016Z</time></trkpt><trkpt lat="43.98775" lon="12.19793"><ele>119.0</ele><time>2026-04-25T09:19:38.016Z</time></trkpt><trkpt lat="43.9878017" lon="12.1980183"><ele>119.0</ele><time>2026-04-25T09:19:39.015Z</time></trkpt><trkpt lat="43.98784" lon="12.1981067"><ele>119.0</ele><time>2026-04-25T09:19:40.015Z</time></trkpt><trkpt lat="43.9878817" lon="12.1981883"><ele>118.99999999999999</ele><time>2026-04-25T09:19:41.016Z</time></trkpt><trkpt lat="43.9879267" lon="12.198265"><ele>119.0</ele><time>2026-04-25T09:19:42.015Z</time></trkpt><trkpt lat="43.9879733" lon="12.1983317"><ele>117.2</ele><time>2026-04-25T09:19:43.015Z</time></trkpt><trkpt lat="43.9880217" lon="12.19839"><ele>115.4</ele><time>2026-04-25T09:19:44.016Z</time></trkpt><trkpt lat="43.9880717" lon="12.1984433"><ele>113.6</ele><time>2026-04-25T09:19:45.016Z</time></trkpt><trkpt lat="43.9881667" lon="12.19854"><ele>111.8</ele><time>2026-04-25T09:19:47.015Z</time></trkpt><trkpt lat="43.9882733" lon="12.1986067"><ele>110.0</ele><time>2026-04-25T09:19:49.016Z</time></trkpt><trkpt lat="43.9883883" lon="12.1986567"><ele>109.99999999999999</ele><time>2026-04-25T09:19:51.016Z</time></trkpt><trkpt lat="43.9885067" lon="12.1986817"><ele>110.0</ele><time>2026-04-25T09:19:53.016Z</time></trkpt><trkpt lat="43.988575" lon="12.1986867"><ele>110.0</ele><time>2026-04-25T09:19:54.016Z</time></trkpt><trkpt lat="43.98864" lon="12.1986867"><ele>110.0</ele><time>2026-04-25T09:19:55.016Z</time></trkpt><trkpt lat="43.9887083" lon="12.1986833"><ele>109.99999999999999</ele><time>2026-04-25T09:19:56.016Z</time></trkpt><trkpt lat="43.9887733" lon="12.19868"><ele>110.0</ele><time>2026-04-25T09:19:57.016Z</time></trkpt><trkpt lat="43.9888383" lon="12.1986717"><ele>109.99999999999999</ele><time>2026-04-25T09:19:58.016Z</time></trkpt><trkpt lat="43.9889033" lon="12.198665"><ele>110.0</ele><time>2026-04-25T09:19:59.015Z</time></trkpt><trkpt lat="43.9889683" lon="12.198665"><ele>110.0</ele><time>2026-04-25T09:20:00.016Z</time></trkpt><trkpt lat="43.9890917" lon="12.19866"><ele>110.0</ele><time>2026-04-25T09:20:02.016Z</time></trkpt><trkpt lat="43.9892167" lon="12.1986483"><ele>109.99999999999999</ele><time>2026-04-25T09:20:04.016Z</time></trkpt><trkpt lat="43.9892833" lon="12.1986467"><ele>110.0</ele><time>2026-04-25T09:20:05.015Z</time></trkpt><trkpt lat="43.9893467" lon="12.1986417"><ele>109.85714285714285</ele><time>2026-04-25T09:20:06.016Z</time></trkpt><trkpt lat="43.9894133" lon="12.198635"><ele>109.71428571428571</ele><time>2026-04-25T09:20:07.016Z</time></trkpt><trkpt lat="43.9894817" lon="12.1986333"><ele>109.57142857142857</ele><time>2026-04-25T09:20:08.016Z</time></trkpt><trkpt lat="43.9895483" lon="12.1986267"><ele>109.42857142857142</ele><time>2026-04-25T09:20:09.016Z</time></trkpt><trkpt lat="43.9896167" lon="12.1986267"><ele>109.28571428571429</ele><time>2026-04-25T09:20:10.015Z</time></trkpt><trkpt lat="43.9896817" lon="12.198625"><ele>109.14285714285714</ele><time>2026-04-25T09:20:11.015Z</time></trkpt><trkpt lat="43.9897517" lon="12.19862"><ele>109.0</ele><time>2026-04-25T09:20:12.015Z</time></trkpt><trkpt lat="43.9898167" lon="12.1986067"><ele>109.00000000000001</ele><time>2026-04-25T09:20:13.016Z</time></trkpt><trkpt lat="43.9898817" lon="12.1986"><ele>109.0</ele><time>2026-04-25T09:20:14.016Z</time></trkpt><trkpt lat="43.9899467" lon="12.198595"><ele>109.0</ele><time>2026-04-25T09:20:15.015Z</time></trkpt><trkpt lat="43.9900117" lon="12.1985883"><ele>109.0</ele><time>2026-04-25T09:20:16.016Z</time></trkpt><trkpt lat="43.9900767" lon="12.1985833"><ele>109.00000000000001</ele><time>2026-04-25T09:20:17.016Z</time></trkpt><trkpt lat="43.9902033" lon="12.19856"><ele>109.0</ele><time>2026-04-25T09:20:19.015Z</time></trkpt><trkpt lat="43.9902667" lon="12.1985467"><ele>109.0</ele><time>2026-04-25T09:20:20.015Z</time></trkpt><trkpt lat="43.9903267" lon="12.1985183"><ele>109.0</ele><time>2026-04-25T09:20:21.016Z</time></trkpt><trkpt lat="43.9904433" lon="12.1984633"><ele>109.0</ele><time>2026-04-25T09:20:23.016Z</time></trkpt><trkpt lat="43.99056" lon="12.1983967"><ele>109.0</ele><time>2026-04-25T09:20:25.015Z</time></trkpt><trkpt lat="43.9906217" lon="12.1983583"><ele>109.0</ele><time>2026-04-25T09:20:26.016Z</time></trkpt><trkpt lat="43.9906817" lon="12.19831"><ele>109.00000000000001</ele><time>2026-04-25T09:20:27.015Z</time></trkpt><trkpt lat="43.9907433" lon="12.1982617"><ele>109.0</ele><time>2026-04-25T09:20:28.016Z</time></trkpt><trkpt lat="43.99084" lon="12.19817"><ele>109.0</ele><time>2026-04-25T09:20:30.016Z</time></trkpt><trkpt lat="43.9908983" lon="12.19812"><ele>109.0</ele><time>2026-04-25T09:20:31.015Z</time></trkpt><trkpt lat="43.990955" lon="12.1980633"><ele>109.00000000000001</ele><time>2026-04-25T09:20:32.016Z</time></trkpt><trkpt lat="43.9910167" lon="12.1980033"><ele>109.0</ele><time>2026-04-25T09:20:33.015Z</time></trkpt><trkpt lat="43.9910783" lon="12.1979417"><ele>108.85714285714286</ele><time>2026-04-25T09:20:34.015Z</time></trkpt><trkpt lat="43.991135" lon="12.197885"><ele>108.71428571428572</ele><time>2026-04-25T09:20:35.015Z</time></trkpt><trkpt lat="43.99119" lon="12.1978317"><ele>108.57142857142857</ele><time>2026-04-25T09:20:36.016Z</time></trkpt><trkpt lat="43.9912417" lon="12.197775"><ele>108.42857142857143</ele><time>2026-04-25T09:20:37.015Z</time></trkpt><trkpt lat="43.9912917" lon="12.19772"><ele>108.28571428571428</ele><time>2026-04-25T09:20:38.016Z</time></trkpt><trkpt lat="43.9913467" lon="12.1976583"><ele>108.14285714285714</ele><time>2026-04-25T09:20:39.016Z</time></trkpt><trkpt lat="43.9913967" lon="12.19759"><ele>108.0</ele><time>2026-04-25T09:20:40.015Z</time></trkpt><trkpt lat="43.9914617" lon="12.1975417"><ele>108.0</ele><time>2026-04-25T09:20:41.016Z</time></trkpt><trkpt lat="43.99152" lon="12.1974967"><ele>108.0</ele><time>2026-04-25T09:20:42.015Z</time></trkpt><trkpt lat="43.99157" lon="12.1974333"><ele>108.0</ele><time>2026-04-25T09:20:43.015Z</time></trkpt><trkpt lat="43.9916233" lon="12.1973733"><ele>108.0</ele><time>2026-04-25T09:20:44.016Z</time></trkpt><trkpt lat="43.9917183" lon="12.197275"><ele>108.0</ele><time>2026-04-25T09:20:46.015Z</time></trkpt><trkpt lat="43.9918133" lon="12.1971833"><ele>108.0</ele><time>2026-04-25T09:20:48.015Z</time></trkpt><trkpt lat="43.9919167" lon="12.1970983"><ele>108.75</ele><time>2026-04-25T09:20:50.015Z</time></trkpt><trkpt lat="43.9920267" lon="12.1970583"><ele>109.5</ele><time>2026-04-25T09:20:52.016Z</time></trkpt><trkpt lat="43.9921383" lon="12.197"><ele>110.25</ele><time>2026-04-25T09:20:54.015Z</time></trkpt><trkpt lat="43.9922533" lon="12.1969633"><ele>111.0</ele><time>2026-04-25T09:20:56.016Z</time></trkpt><trkpt lat="43.9923767" lon="12.1969433"><ele>111.0</ele><time>2026-04-25T09:20:58.015Z</time></trkpt><trkpt lat="43.9924433" lon="12.1969383"><ele>111.0</ele><time>2026-04-25T09:20:59.016Z</time></trkpt><trkpt lat="43.9925733" lon="12.1969433"><ele>111.0</ele><time>2026-04-25T09:21:01.015Z</time></trkpt><trkpt lat="43.9926933" lon="12.1969433"><ele>111.0</ele><time>2026-04-25T09:21:03.016Z</time></trkpt><trkpt lat="43.9927583" lon="12.19694"><ele>111.0</ele><time>2026-04-25T09:21:04.015Z</time></trkpt><trkpt lat="43.992825" lon="12.19694"><ele>111.0</ele><time>2026-04-25T09:21:05.015Z</time></trkpt><trkpt lat="43.99289" lon="12.1969433"><ele>110.8</ele><time>2026-04-25T09:21:06.016Z</time></trkpt><trkpt lat="43.9929533" lon="12.1969383"><ele>110.6</ele><time>2026-04-25T09:21:07.016Z</time></trkpt><trkpt lat="43.9930733" lon="12.1969667"><ele>110.4</ele><time>2026-04-25T09:21:09.015Z</time></trkpt><trkpt lat="43.9931383" lon="12.196975"><ele>110.2</ele><time>2026-04-25T09:21:10.016Z</time></trkpt><trkpt lat="43.9932617" lon="12.1969933"><ele>110.0</ele><time>2026-04-25T09:21:12.016Z</time></trkpt><trkpt lat="43.9933917" lon="12.1970167"><ele>109.99999999999999</ele><time>2026-04-25T09:21:14.015Z</time></trkpt><trkpt lat="43.9934583" lon="12.1970317"><ele>110.0</ele><time>2026-04-25T09:21:15.016Z</time></trkpt><trkpt lat="43.9935283" lon="12.1970433"><ele>110.0</ele><time>2026-04-25T09:21:16.015Z</time></trkpt><trkpt lat="43.9936" lon="12.19705"><ele>110.0</ele><time>2026-04-25T09:21:17.015Z</time></trkpt><trkpt lat="43.9936633" lon="12.1970533"><ele>110.0</ele><time>2026-04-25T09:21:18.016Z</time></trkpt><trkpt lat="43.99373" lon="12.19706"><ele>109.99999999999999</ele><time>2026-04-25T09:21:19.016Z</time></trkpt><trkpt lat="43.9937933" lon="12.1970633"><ele>110.0</ele><time>2026-04-25T09:21:20.016Z</time></trkpt><trkpt lat="43.9939133" lon="12.1970783"><ele>109.99999999999999</ele><time>2026-04-25T09:21:22.016Z</time></trkpt><trkpt lat="43.9939767" lon="12.197075"><ele>110.0</ele><time>2026-04-25T09:21:23.016Z</time></trkpt><trkpt lat="43.9940433" lon="12.1970783"><ele>110.0</ele><time>2026-04-25T09:21:24.015Z</time></trkpt><trkpt lat="43.99411" lon="12.1970917"><ele>110.0</ele><time>2026-04-25T09:21:25.016Z</time></trkpt><trkpt lat="43.994175" lon="12.1971067"><ele>109.99999999999999</ele><time>2026-04-25T09:21:26.016Z</time></trkpt><trkpt lat="43.9942433" lon="12.1971117"><ele>110.0</ele><time>2026-04-25T09:21:27.015Z</time></trkpt><trkpt lat="43.9943683" lon="12.197135"><ele>109.99999999999999</ele><time>2026-04-25T09:21:29.015Z</time></trkpt><trkpt lat="43.99449" lon="12.197155"><ele>110.0</ele><time>2026-04-25T09:21:31.016Z</time></trkpt><trkpt lat="43.9945533" lon="12.197165"><ele>110.0</ele><time>2026-04-25T09:21:32.016Z</time></trkpt><trkpt lat="43.99462" lon="12.1971767"><ele>110.0</ele><time>2026-04-25T09:21:33.016Z</time></trkpt><trkpt lat="43.994685" lon="12.1971933"><ele>109.99999999999999</ele><time>2026-04-25T09:21:34.015Z</time></trkpt><trkpt lat="43.9947517" lon="12.1972117"><ele>110.0</ele><time>2026-04-25T09:21:35.016Z</time></trkpt><trkpt lat="43.9948217" lon="12.19723"><ele>109.99999999999999</ele><time>2026-04-25T09:21:36.015Z</time></trkpt><trkpt lat="43.99489" lon="12.1972467"><ele>110.0</ele><time>2026-04-25T09:21:37.016Z</time></trkpt><trkpt lat="43.9949583" lon="12.19728"><ele>110.0</ele><time>2026-04-25T09:21:38.015Z</time></trkpt><trkpt lat="43.99503" lon="12.1973017"><ele>110.0</ele><time>2026-04-25T09:21:39.016Z</time></trkpt><trkpt lat="43.995095" lon="12.19731"><ele>110.0</ele><time>2026-04-25T09:21:40.015Z</time></trkpt><trkpt lat="43.99516" lon="12.19733"><ele>109.99999999999999</ele><time>2026-04-25T09:21:41.016Z</time></trkpt><trkpt lat="43.9952267" lon="12.1973517"><ele>110.0</ele><time>2026-04-25T09:21:42.016Z</time></trkpt><trkpt lat="43.9952983" lon="12.1973733"><ele>109.16666666666666</ele><time>2026-04-25T09:21:43.016Z</time></trkpt><trkpt lat="43.9953683" lon="12.1974017"><ele>108.33333333333333</ele><time>2026-04-25T09:21:44.015Z</time></trkpt><trkpt lat="43.9954933" lon="12.197425"><ele>107.5</ele><time>2026-04-25T09:21:46.016Z</time></trkpt><trkpt lat="43.99556" lon="12.19744"><ele>106.66666666666666</ele><time>2026-04-25T09:21:47.015Z</time></trkpt><trkpt lat="43.9956283" lon="12.19746"><ele>105.83333333333333</ele><time>2026-04-25T09:21:48.016Z</time></trkpt><trkpt lat="43.9956983" lon="12.1974767"><ele>105.0</ele><time>2026-04-25T09:21:49.016Z</time></trkpt><trkpt lat="43.9957683" lon="12.1974967"><ele>105.0</ele><time>2026-04-25T09:21:50.016Z</time></trkpt><trkpt lat="43.9958317" lon="12.1975133"><ele>105.0</ele><time>2026-04-25T09:21:51.016Z</time></trkpt><trkpt lat="43.9958983" lon="12.1975333"><ele>105.0</ele><time>2026-04-25T09:21:52.016Z</time></trkpt><trkpt lat="43.9959667" lon="12.1975567"><ele>105.0</ele><time>2026-04-25T09:21:53.015Z</time></trkpt><trkpt lat="43.99604" lon="12.19758"><ele>105.0</ele><time>2026-04-25T09:21:54.016Z</time></trkpt><trkpt lat="43.9961117" lon="12.1976"><ele>105.0</ele><time>2026-04-25T09:21:55.015Z</time></trkpt><trkpt lat="43.996185" lon="12.19762"><ele>105.0</ele><time>2026-04-25T09:21:56.015Z</time></trkpt><trkpt lat="43.99626" lon="12.1976317"><ele>104.66666666666667</ele><time>2026-04-25T09:21:57.015Z</time></trkpt><trkpt lat="43.996335" lon="12.19765"><ele>104.33333333333334</ele><time>2026-04-25T09:21:58.015Z</time></trkpt><trkpt lat="43.9964117" lon="12.19767"><ele>104.0</ele><time>2026-04-25T09:21:59.016Z</time></trkpt><trkpt lat="43.996495" lon="12.1976917"><ele>103.66666666666667</ele><time>2026-04-25T09:22:00.015Z</time></trkpt><trkpt lat="43.996575" lon="12.1977067"><ele>103.33333333333334</ele><time>2026-04-25T09:22:01.016Z</time></trkpt><trkpt lat="43.99665" lon="12.197725"><ele>103.0</ele><time>2026-04-25T09:22:02.016Z</time></trkpt><trkpt lat="43.9967283" lon="12.1977433"><ele>102.50000000000001</ele><time>2026-04-25T09:22:03.016Z</time></trkpt><trkpt lat="43.9968017" lon="12.1977533"><ele>102.0</ele><time>2026-04-25T09:22:04.016Z</time></trkpt><trkpt lat="43.9968717" lon="12.1977683"><ele>101.5</ele><time>2026-04-25T09:22:05.016Z</time></trkpt><trkpt lat="43.9969517" lon="12.197785"><ele>101.0</ele><time>2026-04-25T09:22:06.015Z</time></trkpt><trkpt lat="43.997035" lon="12.1978067"><ele>100.50000000000001</ele><time>2026-04-25T09:22:07.016Z</time></trkpt><trkpt lat="43.9971133" lon="12.19782"><ele>100.0</ele><time>2026-04-25T09:22:08.015Z</time></trkpt><trkpt lat="43.9971917" lon="12.1978383"><ele>100.00000000000001</ele><time>2026-04-25T09:22:09.016Z</time></trkpt><trkpt lat="43.9972667" lon="12.1978567"><ele>100.0</ele><time>2026-04-25T09:22:10.016Z</time></trkpt><trkpt lat="43.9973417" lon="12.1978717"><ele>100.0</ele><time>2026-04-25T09:22:11.015Z</time></trkpt><trkpt lat="43.9974217" lon="12.19789"><ele>100.0</ele><time>2026-04-25T09:22:12.015Z</time></trkpt><trkpt lat="43.9975017" lon="12.19791"><ele>100.00000000000001</ele><time>2026-04-25T09:22:13.015Z</time></trkpt><trkpt lat="43.9975783" lon="12.197925"><ele>100.0</ele><time>2026-04-25T09:22:14.016Z</time></trkpt><trkpt lat="43.9976533" lon="12.1979383"><ele>100.28571428571429</ele><time>2026-04-25T09:22:15.016Z</time></trkpt><trkpt lat="43.9977233" lon="12.197955"><ele>100.57142857142857</ele><time>2026-04-25T09:22:16.016Z</time></trkpt><trkpt lat="43.9978" lon="12.19797"><ele>100.85714285714286</ele><time>2026-04-25T09:22:17.015Z</time></trkpt><trkpt lat="43.9978667" lon="12.1979933"><ele>101.14285714285714</ele><time>2026-04-25T09:22:18.015Z</time></trkpt><trkpt lat="43.9979317" lon="12.1980183"><ele>101.42857142857143</ele><time>2026-04-25T09:22:19.016Z</time></trkpt><trkpt lat="43.998" lon="12.1980533"><ele>101.71428571428572</ele><time>2026-04-25T09:22:20.015Z</time></trkpt><trkpt lat="43.998065" lon="12.1980933"><ele>102.0</ele><time>2026-04-25T09:22:21.016Z</time></trkpt><trkpt lat="43.998125" lon="12.198135"><ele>101.85714285714286</ele><time>2026-04-25T09:22:22.016Z</time></trkpt><trkpt lat="43.998185" lon="12.1981817"><ele>101.71428571428572</ele><time>2026-04-25T09:22:23.016Z</time></trkpt><trkpt lat="43.9982433" lon="12.1982267"><ele>101.57142857142857</ele><time>2026-04-25T09:22:24.016Z</time></trkpt><trkpt lat="43.9983017" lon="12.1982733"><ele>101.42857142857143</ele><time>2026-04-25T09:22:25.015Z</time></trkpt><trkpt lat="43.998365" lon="12.1983167"><ele>101.28571428571428</ele><time>2026-04-25T09:22:26.015Z</time></trkpt><trkpt lat="43.998425" lon="12.1983617"><ele>101.14285714285714</ele><time>2026-04-25T09:22:27.016Z</time></trkpt><trkpt lat="43.9984833" lon="12.198405"><ele>101.0</ele><time>2026-04-25T09:22:28.016Z</time></trkpt><trkpt lat="43.9985417" lon="12.1984467"><ele>101.6</ele><time>2026-04-25T09:22:29.016Z</time></trkpt><trkpt lat="43.9986033" lon="12.1984867"><ele>102.19999999999999</ele><time>2026-04-25T09:22:30.016Z</time></trkpt><trkpt lat="43.9986617" lon="12.1985333"><ele>102.80000000000001</ele><time>2026-04-25T09:22:31.016Z</time></trkpt><trkpt lat="43.9987683" lon="12.1986133"><ele>103.4</ele><time>2026-04-25T09:22:33.015Z</time></trkpt><trkpt lat="43.9988733" lon="12.1986983"><ele>104.0</ele><time>2026-04-25T09:22:35.016Z</time></trkpt><trkpt lat="43.9989833" lon="12.1987783"><ele>103.99999999999999</ele><time>2026-04-25T09:22:37.015Z</time></trkpt><trkpt lat="43.9990383" lon="12.1988217"><ele>104.0</ele><time>2026-04-25T09:22:38.016Z</time></trkpt><trkpt lat="43.9991417" lon="12.1989067"><ele>104.0</ele><time>2026-04-25T09:22:40.016Z</time></trkpt><trkpt lat="43.9992017" lon="12.1989517"><ele>104.0</ele><time>2026-04-25T09:22:41.015Z</time></trkpt><trkpt lat="43.9993133" lon="12.1990333"><ele>103.99999999999999</ele><time>2026-04-25T09:22:43.015Z</time></trkpt><trkpt lat="43.9993683" lon="12.1990817"><ele>104.0</ele><time>2026-04-25T09:22:44.015Z</time></trkpt><trkpt lat="43.9994733" lon="12.1991733"><ele>104.6</ele><time>2026-04-25T09:22:46.014Z</time></trkpt><trkpt lat="43.99958" lon="12.1992633"><ele>105.2</ele><time>2026-04-25T09:22:48.015Z</time></trkpt><trkpt lat="43.9996867" lon="12.1993583"><ele>105.79999999999998</ele><time>2026-04-25T09:22:50.015Z</time></trkpt><trkpt lat="43.999745" lon="12.1994067"><ele>106.39999999999999</ele><time>2026-04-25T09:22:51.015Z</time></trkpt><trkpt lat="43.9998517" lon="12.1994983"><ele>107.0</ele><time>2026-04-25T09:22:53.015Z</time></trkpt><trkpt lat="43.9999517" lon="12.199595"><ele>107.0</ele><time>2026-04-25T09:22:55.015Z</time></trkpt><trkpt lat="44.0000483" lon="12.1996917"><ele>107.0</ele><time>2026-04-25T09:22:57.015Z</time></trkpt><trkpt lat="44.0001367" lon="12.1997833"><ele>107.0</ele><time>2026-04-25T09:22:59.015Z</time></trkpt><trkpt lat="44.0002217" lon="12.199885"><ele>107.0</ele><time>2026-04-25T09:23:01.015Z</time></trkpt><trkpt lat="44.00031" lon="12.19999"><ele>106.19999999999999</ele><time>2026-04-25T09:23:03.014Z</time></trkpt><trkpt lat="44.0003983" lon="12.2001"><ele>105.39999999999999</ele><time>2026-04-25T09:23:05.015Z</time></trkpt><trkpt lat="44.000485" lon="12.2002"><ele>104.6</ele><time>2026-04-25T09:23:07.015Z</time></trkpt><trkpt lat="44.0005583" lon="12.2002967"><ele>103.80000000000001</ele><time>2026-04-25T09:23:09.015Z</time></trkpt><trkpt lat="44.0006333" lon="12.2003933"><ele>103.0</ele><time>2026-04-25T09:23:11.015Z</time></trkpt><trkpt lat="44.00071" lon="12.20049"><ele>103.0</ele><time>2026-04-25T09:23:13.014Z</time></trkpt><trkpt lat="44.0007883" lon="12.2005817"><ele>103.0</ele><time>2026-04-25T09:23:15.015Z</time></trkpt><trkpt lat="44.0008633" lon="12.2006783"><ele>103.0</ele><time>2026-04-25T09:23:17.015Z</time></trkpt><trkpt lat="44.00094" lon="12.2007767"><ele>103.0</ele><time>2026-04-25T09:23:19.015Z</time></trkpt><trkpt lat="44.0010117" lon="12.2008767"><ele>103.0</ele><time>2026-04-25T09:23:21.015Z</time></trkpt><trkpt lat="44.0010783" lon="12.200975"><ele>104.2</ele><time>2026-04-25T09:23:23.014Z</time></trkpt><trkpt lat="44.00116" lon="12.2010633"><ele>105.4</ele><time>2026-04-25T09:23:25.015Z</time></trkpt><trkpt lat="44.0012433" lon="12.2011467"><ele>106.60000000000001</ele><time>2026-04-25T09:23:27.015Z</time></trkpt><trkpt lat="44.0013383" lon="12.201215"><ele>107.80000000000001</ele><time>2026-04-25T09:23:29.015Z</time></trkpt><trkpt lat="44.0014433" lon="12.2012567"><ele>109.0</ele><time>2026-04-25T09:23:31.015Z</time></trkpt><trkpt lat="44.001565" lon="12.2012667"><ele>109.83333333333334</ele><time>2026-04-25T09:23:33.014Z</time></trkpt><trkpt lat="44.001685" lon="12.2012383"><ele>110.66666666666667</ele><time>2026-04-25T09:23:35.014Z</time></trkpt><trkpt lat="44.0017483" lon="12.2012117"><ele>111.5</ele><time>2026-04-25T09:23:36.015Z</time></trkpt><trkpt lat="44.0018167" lon="12.201185"><ele>112.33333333333334</ele><time>2026-04-25T09:23:37.014Z</time></trkpt><trkpt lat="44.0018833" lon="12.201165"><ele>113.16666666666667</ele><time>2026-04-25T09:23:38.014Z</time></trkpt><trkpt lat="44.0019533" lon="12.2011417"><ele>114.0</ele><time>2026-04-25T09:23:39.015Z</time></trkpt><trkpt lat="44.0020267" lon="12.201115"><ele>114.0</ele><time>2026-04-25T09:23:40.015Z</time></trkpt><trkpt lat="44.0020983" lon="12.201095"><ele>114.0</ele><time>2026-04-25T09:23:41.015Z</time></trkpt><trkpt lat="44.002165" lon="12.20107"><ele>114.0</ele><time>2026-04-25T09:23:42.015Z</time></trkpt><trkpt lat="44.0022367" lon="12.20104"><ele>114.0</ele><time>2026-04-25T09:23:43.014Z</time></trkpt><trkpt lat="44.002305" lon="12.2010033"><ele>114.0</ele><time>2026-04-25T09:23:44.015Z</time></trkpt><trkpt lat="44.002375" lon="12.2009467"><ele>114.0</ele><time>2026-04-25T09:23:45.014Z</time></trkpt><trkpt lat="44.0024417" lon="12.2008833"><ele>112.0</ele><time>2026-04-25T09:23:46.015Z</time></trkpt><trkpt lat="44.0025033" lon="12.2008167"><ele>110.0</ele><time>2026-04-25T09:23:47.014Z</time></trkpt><trkpt lat="44.0025633" lon="12.2007267"><ele>108.0</ele><time>2026-04-25T09:23:48.014Z</time></trkpt><trkpt lat="44.0026167" lon="12.2006267"><ele>106.0</ele><time>2026-04-25T09:23:49.015Z</time></trkpt><trkpt lat="44.0026717" lon="12.20052"><ele>104.0</ele><time>2026-04-25T09:23:50.015Z</time></trkpt><trkpt lat="44.0027317" lon="12.2004083"><ele>104.0</ele><time>2026-04-25T09:23:51.014Z</time></trkpt><trkpt lat="44.0027983" lon="12.2003017"><ele>104.0</ele><time>2026-04-25T09:23:52.014Z</time></trkpt><trkpt lat="44.0028767" lon="12.2002"><ele>104.0</ele><time>2026-04-25T09:23:53.015Z</time></trkpt><trkpt lat="44.002955" lon="12.2001133"><ele>104.0</ele><time>2026-04-25T09:23:54.014Z</time></trkpt><trkpt lat="44.0030517" lon="12.20003"><ele>104.0</ele><time>2026-04-25T09:23:55.015Z</time></trkpt><trkpt lat="44.003155" lon="12.19997"><ele>104.0</ele><time>2026-04-25T09:23:56.015Z</time></trkpt><trkpt lat="44.0032583" lon="12.199915"><ele>104.0</ele><time>2026-04-25T09:23:57.014Z</time></trkpt><trkpt lat="44.0033683" lon="12.1998717"><ele>104.0</ele><time>2026-04-25T09:23:58.014Z</time></trkpt><trkpt lat="44.0034783" lon="12.1998333"><ele>104.0</ele><time>2026-04-25T09:23:59.014Z</time></trkpt><trkpt lat="44.0035817" lon="12.1998"><ele>104.0</ele><time>2026-04-25T09:24:00.015Z</time></trkpt><trkpt lat="44.0036883" lon="12.1997617"><ele>103.0</ele><time>2026-04-25T09:24:01.015Z</time></trkpt><trkpt lat="44.0037933" lon="12.1997183"><ele>102.0</ele><time>2026-04-25T09:24:02.015Z</time></trkpt><trkpt lat="44.0038883" lon="12.19968"><ele>101.0</ele><time>2026-04-25T09:24:03.015Z</time></trkpt><trkpt lat="44.0039833" lon="12.1996367"><ele>100.0</ele><time>2026-04-25T09:24:04.015Z</time></trkpt><trkpt lat="44.0040717" lon="12.1995967"><ele>99.0</ele><time>2026-04-25T09:24:05.014Z</time></trkpt><trkpt lat="44.0041667" lon="12.19957"><ele>99.0</ele><time>2026-04-25T09:24:06.014Z</time></trkpt><trkpt lat="44.00426" lon="12.1995367"><ele>99.0</ele><time>2026-04-25T09:24:07.015Z</time></trkpt><trkpt lat="44.0043533" lon="12.1995017"><ele>99.0</ele><time>2026-04-25T09:24:08.014Z</time></trkpt><trkpt lat="44.0044467" lon="12.19946"><ele>99.0</ele><time>2026-04-25T09:24:09.015Z</time></trkpt><trkpt lat="44.0045267" lon="12.199435"><ele>99.0</ele><time>2026-04-25T09:24:10.015Z</time></trkpt><trkpt lat="44.0046017" lon="12.199405"><ele>99.0</ele><time>2026-04-25T09:24:11.014Z</time></trkpt><trkpt lat="44.00468" lon="12.1993783"><ele>99.0</ele><time>2026-04-25T09:24:12.014Z</time></trkpt><trkpt lat="44.0047567" lon="12.1993533"><ele>99.0</ele><time>2026-04-25T09:24:13.015Z</time></trkpt><trkpt lat="44.0048317" lon="12.1993233"><ele>99.0</ele><time>2026-04-25T09:24:14.014Z</time></trkpt><trkpt lat="44.0049067" lon="12.1992933"><ele>99.0</ele><time>2026-04-25T09:24:15.015Z</time></trkpt><trkpt lat="44.0049767" lon="12.1992617"><ele>99.0</ele><time>2026-04-25T09:24:16.015Z</time></trkpt><trkpt lat="44.0050433" lon="12.1992383"><ele>98.66666666666667</ele><time>2026-04-25T09:24:17.015Z</time></trkpt><trkpt lat="44.0051067" lon="12.19922"><ele>98.33333333333334</ele><time>2026-04-25T09:24:18.015Z</time></trkpt><trkpt lat="44.00517" lon="12.1992033"><ele>98.0</ele><time>2026-04-25T09:24:19.015Z</time></trkpt><trkpt lat="44.0052967" lon="12.1991667"><ele>97.66666666666667</ele><time>2026-04-25T09:24:21.014Z</time></trkpt><trkpt lat="44.0053583" lon="12.1991483"><ele>97.33333333333334</ele><time>2026-04-25T09:24:22.014Z</time></trkpt><trkpt lat="44.0054833" lon="12.199125"><ele>97.0</ele><time>2026-04-25T09:24:24.015Z</time></trkpt><trkpt lat="44.0056117" lon="12.1991017"><ele>97.0</ele><time>2026-04-25T09:24:26.015Z</time></trkpt><trkpt lat="44.005675" lon="12.1990883"><ele>97.0</ele><time>2026-04-25T09:24:27.014Z</time></trkpt><trkpt lat="44.0058033" lon="12.1990617"><ele>97.0</ele><time>2026-04-25T09:24:29.015Z</time></trkpt><trkpt lat="44.00593" lon="12.19903"><ele>97.0</ele><time>2026-04-25T09:24:31.015Z</time></trkpt><trkpt lat="44.0060567" lon="12.1990033"><ele>97.42857142857143</ele><time>2026-04-25T09:24:33.015Z</time></trkpt><trkpt lat="44.0061233" lon="12.1989917"><ele>97.85714285714286</ele><time>2026-04-25T09:24:34.014Z</time></trkpt><trkpt lat="44.00619" lon="12.1989767"><ele>98.28571428571429</ele><time>2026-04-25T09:24:35.015Z</time></trkpt><trkpt lat="44.006255" lon="12.198965"><ele>98.71428571428572</ele><time>2026-04-25T09:24:36.015Z</time></trkpt><trkpt lat="44.00632" lon="12.1989433"><ele>99.14285714285714</ele><time>2026-04-25T09:24:37.015Z</time></trkpt><trkpt lat="44.0063867" lon="12.19893"><ele>99.57142857142858</ele><time>2026-04-25T09:24:38.015Z</time></trkpt><trkpt lat="44.0064583" lon="12.198925"><ele>100.0</ele><time>2026-04-25T09:24:39.015Z</time></trkpt><trkpt lat="44.0065267" lon="12.1989167"><ele>100.0</ele><time>2026-04-25T09:24:40.015Z</time></trkpt><trkpt lat="44.006655" lon="12.1989"><ele>100.0</ele><time>2026-04-25T09:24:42.015Z</time></trkpt><trkpt lat="44.00672" lon="12.1988817"><ele>100.0</ele><time>2026-04-25T09:24:43.015Z</time></trkpt><trkpt lat="44.006785" lon="12.1988683"><ele>100.0</ele><time>2026-04-25T09:24:44.014Z</time></trkpt><trkpt lat="44.00685" lon="12.19886"><ele>100.0</ele><time>2026-04-25T09:24:45.014Z</time></trkpt><trkpt lat="44.006975" lon="12.1988483"><ele>99.66666666666667</ele><time>2026-04-25T09:24:47.015Z</time></trkpt><trkpt lat="44.0070967" lon="12.198825"><ele>99.33333333333334</ele><time>2026-04-25T09:24:49.015Z</time></trkpt><trkpt lat="44.00716" lon="12.1988183"><ele>99.0</ele><time>2026-04-25T09:24:50.015Z</time></trkpt><trkpt lat="44.0072283" lon="12.1988083"><ele>98.66666666666666</ele><time>2026-04-25T09:24:51.015Z</time></trkpt><trkpt lat="44.0073033" lon="12.198785"><ele>98.33333333333333</ele><time>2026-04-25T09:24:52.014Z</time></trkpt><trkpt lat="44.007375" lon="12.198765"><ele>98.0</ele><time>2026-04-25T09:24:53.015Z</time></trkpt><trkpt lat="44.0074517" lon="12.1987483"><ele>97.71428571428571</ele><time>2026-04-25T09:24:54.015Z</time></trkpt><trkpt lat="44.0075267" lon="12.1987283"><ele>97.42857142857143</ele><time>2026-04-25T09:24:55.015Z</time></trkpt><trkpt lat="44.0075983" lon="12.1987133"><ele>97.14285714285714</ele><time>2026-04-25T09:24:56.014Z</time></trkpt><trkpt lat="44.0076667" lon="12.1987067"><ele>96.85714285714286</ele><time>2026-04-25T09:24:57.015Z</time></trkpt><trkpt lat="44.0077367" lon="12.1987"><ele>96.57142857142857</ele><time>2026-04-25T09:24:58.015Z</time></trkpt><trkpt lat="44.007805" lon="12.1986883"><ele>96.28571428571428</ele><time>2026-04-25T09:24:59.014Z</time></trkpt><trkpt lat="44.0078783" lon="12.198675"><ele>96.0</ele><time>2026-04-25T09:25:00.015Z</time></trkpt><trkpt lat="44.00795" lon="12.19866"><ele>95.99999999999999</ele><time>2026-04-25T09:25:01.015Z</time></trkpt><trkpt lat="44.0080267" lon="12.1986483"><ele>96.0</ele><time>2026-04-25T09:25:02.015Z</time></trkpt><trkpt lat="44.0080967" lon="12.1986417"><ele>96.0</ele><time>2026-04-25T09:25:03.014Z</time></trkpt><trkpt lat="44.008165" lon="12.1986267"><ele>96.0</ele><time>2026-04-25T09:25:04.014Z</time></trkpt><trkpt lat="44.0082317" lon="12.1986183"><ele>96.0</ele><time>2026-04-25T09:25:05.015Z</time></trkpt><trkpt lat="44.0083017" lon="12.1986133"><ele>95.99999999999999</ele><time>2026-04-25T09:25:06.015Z</time></trkpt><trkpt lat="44.0083733" lon="12.1985983"><ele>96.0</ele><time>2026-04-25T09:25:07.015Z</time></trkpt><trkpt lat="44.0084467" lon="12.1985917"><ele>96.14285714285714</ele><time>2026-04-25T09:25:08.014Z</time></trkpt><trkpt lat="44.00852" lon="12.19859"><ele>96.28571428571428</ele><time>2026-04-25T09:25:09.014Z</time></trkpt><trkpt lat="44.00859" lon="12.1985917"><ele>96.42857142857142</ele><time>2026-04-25T09:25:10.014Z</time></trkpt><trkpt lat="44.0086617" lon="12.1985967"><ele>96.57142857142857</ele><time>2026-04-25T09:25:11.015Z</time></trkpt><trkpt lat="44.0087333" lon="12.1986017"><ele>96.71428571428572</ele><time>2026-04-25T09:25:12.014Z</time></trkpt><trkpt lat="44.0088083" lon="12.1986117"><ele>96.85714285714285</ele><time>2026-04-25T09:25:13.015Z</time></trkpt><trkpt lat="44.00888" lon="12.19863"><ele>97.0</ele><time>2026-04-25T09:25:14.015Z</time></trkpt><trkpt lat="44.00895" lon="12.198655"><ele>97.00000000000001</ele><time>2026-04-25T09:25:15.015Z</time></trkpt><trkpt lat="44.0090783" lon="12.198695"><ele>97.0</ele><time>2026-04-25T09:25:17.014Z</time></trkpt><trkpt lat="44.0091533" lon="12.198715"><ele>97.0</ele><time>2026-04-25T09:25:18.015Z</time></trkpt><trkpt lat="44.00923" lon="12.1987317"><ele>97.0</ele><time>2026-04-25T09:25:19.015Z</time></trkpt><trkpt lat="44.0093033" lon="12.1987433"><ele>97.00000000000001</ele><time>2026-04-25T09:25:20.015Z</time></trkpt><trkpt lat="44.009375" lon="12.19876"><ele>97.0</ele><time>2026-04-25T09:25:21.014Z</time></trkpt><trkpt lat="44.0094383" lon="12.1987917"><ele>97.16666666666667</ele><time>2026-04-25T09:25:22.015Z</time></trkpt><trkpt lat="44.0095033" lon="12.1988267"><ele>97.33333333333334</ele><time>2026-04-25T09:25:23.015Z</time></trkpt><trkpt lat="44.009565" lon="12.1988633"><ele>97.5</ele><time>2026-04-25T09:25:24.014Z</time></trkpt><trkpt lat="44.0096267" lon="12.19889"><ele>97.66666666666666</ele><time>2026-04-25T09:25:25.014Z</time></trkpt><trkpt lat="44.0096883" lon="12.198915"><ele>97.83333333333333</ele><time>2026-04-25T09:25:26.015Z</time></trkpt><trkpt lat="44.0098083" lon="12.1988933"><ele>98.0</ele><time>2026-04-25T09:25:28.014Z</time></trkpt><trkpt lat="44.0099333" lon="12.1988817"><ele>97.99999999999999</ele><time>2026-04-25T09:25:30.014Z</time></trkpt><trkpt lat="44.01" lon="12.1989133"><ele>98.0</ele><time>2026-04-25T09:25:31.015Z</time></trkpt><trkpt lat="44.01005" lon="12.1989783"><ele>98.0</ele><time>2026-04-25T09:25:32.015Z</time></trkpt><trkpt lat="44.0100883" lon="12.1990567"><ele>98.0</ele><time>2026-04-25T09:25:33.015Z</time></trkpt><trkpt lat="44.01012" lon="12.1991367"><ele>97.99999999999999</ele><time>2026-04-25T09:25:34.015Z</time></trkpt><trkpt lat="44.0101533" lon="12.199215"><ele>98.0</ele><time>2026-04-25T09:25:35.015Z</time></trkpt><trkpt lat="44.0102267" lon="12.1993533"><ele>98.0</ele><time>2026-04-25T09:25:37.014Z</time></trkpt><trkpt lat="44.0103067" lon="12.1994783"><ele>98.0</ele><time>2026-04-25T09:25:39.015Z</time></trkpt><trkpt lat="44.0103983" lon="12.199595"><ele>98.0</ele><time>2026-04-25T09:25:41.015Z</time></trkpt><trkpt lat="44.0104933" lon="12.1997117"><ele>98.0</ele><time>2026-04-25T09:25:43.015Z</time></trkpt><trkpt lat="44.0105933" lon="12.1998033"><ele>98.33333333333333</ele><time>2026-04-25T09:25:45.015Z</time></trkpt><trkpt lat="44.0106533" lon="12.1998483"><ele>98.66666666666666</ele><time>2026-04-25T09:25:46.015Z</time></trkpt><trkpt lat="44.010715" lon="12.1998767"><ele>99.0</ele><time>2026-04-25T09:25:47.015Z</time></trkpt><trkpt lat="44.0107767" lon="12.1999083"><ele>99.33333333333334</ele><time>2026-04-25T09:25:48.015Z</time></trkpt><trkpt lat="44.01084" lon="12.199935"><ele>99.66666666666667</ele><time>2026-04-25T09:25:49.014Z</time></trkpt><trkpt lat="44.0109583" lon="12.199995"><ele>100.0</ele><time>2026-04-25T09:25:51.015Z</time></trkpt><trkpt lat="44.0110717" lon="12.200055"><ele>100.0</ele><time>2026-04-25T09:25:53.015Z</time></trkpt><trkpt lat="44.01118" lon="12.2000983"><ele>100.0</ele><time>2026-04-25T09:25:55.015Z</time></trkpt><trkpt lat="44.0112933" lon="12.2001683"><ele>100.0</ele><time>2026-04-25T09:25:57.014Z</time></trkpt><trkpt lat="44.011355" lon="12.200205"><ele>100.0</ele><time>2026-04-25T09:25:58.014Z</time></trkpt><trkpt lat="44.0114567" lon="12.2002967"><ele>100.0</ele><time>2026-04-25T09:26:00.014Z</time></trkpt><trkpt lat="44.0115583" lon="12.2003717"><ele>101.0</ele><time>2026-04-25T09:26:02.015Z</time></trkpt><trkpt lat="44.0116583" lon="12.2004567"><ele>102.0</ele><time>2026-04-25T09:26:04.015Z</time></trkpt><trkpt lat="44.0117483" lon="12.200545"><ele>103.0</ele><time>2026-04-25T09:26:06.014Z</time></trkpt><trkpt lat="44.011835" lon="12.2006333"><ele>104.0</ele><time>2026-04-25T09:26:08.015Z</time></trkpt><trkpt lat="44.011915" lon="12.2007233"><ele>105.0</ele><time>2026-04-25T09:26:10.015Z</time></trkpt><trkpt lat="44.0120033" lon="12.200805"><ele>103.0</ele><time>2026-04-25T09:26:12.015Z</time></trkpt><trkpt lat="44.0120867" lon="12.2008817"><ele>101.0</ele><time>2026-04-25T09:26:14.015Z</time></trkpt><trkpt lat="44.0121733" lon="12.2009367"><ele>99.0</ele><time>2026-04-25T09:26:16.015Z</time></trkpt><trkpt lat="44.0122633" lon="12.2009817"><ele>97.0</ele><time>2026-04-25T09:26:18.015Z</time></trkpt><trkpt lat="44.0123733" lon="12.2009867"><ele>95.0</ele><time>2026-04-25T09:26:20.015Z</time></trkpt><trkpt lat="44.0124883" lon="12.2009767"><ele>95.8</ele><time>2026-04-25T09:26:22.014Z</time></trkpt><trkpt lat="44.012615" lon="12.2009567"><ele>96.6</ele><time>2026-04-25T09:26:24.015Z</time></trkpt><trkpt lat="44.0126817" lon="12.20095"><ele>97.4</ele><time>2026-04-25T09:26:25.015Z</time></trkpt><trkpt lat="44.0128033" lon="12.2009183"><ele>98.2</ele><time>2026-04-25T09:26:27.014Z</time></trkpt><trkpt lat="44.0129217" lon="12.2008867"><ele>99.0</ele><time>2026-04-25T09:26:29.014Z</time></trkpt><trkpt lat="44.0130467" lon="12.200865"><ele>99.0</ele><time>2026-04-25T09:26:31.014Z</time></trkpt><trkpt lat="44.013165" lon="12.2008567"><ele>99.0</ele><time>2026-04-25T09:26:33.014Z</time></trkpt><trkpt lat="44.0132767" lon="12.20083"><ele>99.0</ele><time>2026-04-25T09:26:35.015Z</time></trkpt><trkpt lat="44.013395" lon="12.2008167"><ele>99.0</ele><time>2026-04-25T09:26:37.015Z</time></trkpt><trkpt lat="44.013515" lon="12.200805"><ele>98.83333333333333</ele><time>2026-04-25T09:26:39.014Z</time></trkpt><trkpt lat="44.0135817" lon="12.2008067"><ele>98.66666666666666</ele><time>2026-04-25T09:26:40.015Z</time></trkpt><trkpt lat="44.0136533" lon="12.2008083"><ele>98.5</ele><time>2026-04-25T09:26:41.015Z</time></trkpt><trkpt lat="44.013735" lon="12.20081"><ele>98.33333333333333</ele><time>2026-04-25T09:26:42.015Z</time></trkpt><trkpt lat="44.0138233" lon="12.20081"><ele>98.16666666666666</ele><time>2026-04-25T09:26:43.015Z</time></trkpt><trkpt lat="44.0139117" lon="12.2008083"><ele>98.0</ele><time>2026-04-25T09:26:44.014Z</time></trkpt><trkpt lat="44.014005" lon="12.2007967"><ele>98.0</ele><time>2026-04-25T09:26:45.014Z</time></trkpt><trkpt lat="44.0140933" lon="12.200785"><ele>98.0</ele><time>2026-04-25T09:26:46.015Z</time></trkpt><trkpt lat="44.01418" lon="12.20076"><ele>98.0</ele><time>2026-04-25T09:26:47.014Z</time></trkpt><trkpt lat="44.0142667" lon="12.2007283"><ele>98.0</ele><time>2026-04-25T09:26:48.014Z</time></trkpt><trkpt lat="44.0143567" lon="12.20069"><ele>98.0</ele><time>2026-04-25T09:26:49.015Z</time></trkpt><trkpt lat="44.0144417" lon="12.2006533"><ele>98.66666666666666</ele><time>2026-04-25T09:26:50.014Z</time></trkpt><trkpt lat="44.0145217" lon="12.200625"><ele>99.33333333333333</ele><time>2026-04-25T09:26:51.015Z</time></trkpt><trkpt lat="44.0146033" lon="12.2005817"><ele>100.0</ele><time>2026-04-25T09:26:52.015Z</time></trkpt><trkpt lat="44.014685" lon="12.2005417"><ele>100.66666666666666</ele><time>2026-04-25T09:26:53.014Z</time></trkpt><trkpt lat="44.0147633" lon="12.2005017"><ele>101.33333333333333</ele><time>2026-04-25T09:26:54.015Z</time></trkpt><trkpt lat="44.0148367" lon="12.200465"><ele>102.0</ele><time>2026-04-25T09:26:55.014Z</time></trkpt><trkpt lat="44.0149067" lon="12.200425"><ele>102.0</ele><time>2026-04-25T09:26:56.015Z</time></trkpt><trkpt lat="44.0149783" lon="12.2003883"><ele>102.0</ele><time>2026-04-25T09:26:57.015Z</time></trkpt><trkpt lat="44.01505" lon="12.200355"><ele>102.0</ele><time>2026-04-25T09:26:58.015Z</time></trkpt><trkpt lat="44.0151233" lon="12.2003267"><ele>102.0</ele><time>2026-04-25T09:26:59.015Z</time></trkpt><trkpt lat="44.0151883" lon="12.2002917"><ele>102.0</ele><time>2026-04-25T09:27:00.015Z</time></trkpt><trkpt lat="44.01525" lon="12.200255"><ele>102.0</ele><time>2026-04-25T09:27:01.015Z</time></trkpt><trkpt lat="44.0153617" lon="12.20021"><ele>99.5</ele><time>2026-04-25T09:27:03.014Z</time></trkpt><trkpt lat="44.0154767" lon="12.20016"><ele>97.0</ele><time>2026-04-25T09:27:05.014Z</time></trkpt><trkpt lat="44.0155883" lon="12.20011"><ele>94.5</ele><time>2026-04-25T09:27:07.013Z</time></trkpt><trkpt lat="44.0156983" lon="12.2000483"><ele>92.0</ele><time>2026-04-25T09:27:09.014Z</time></trkpt><trkpt lat="44.01578" lon="12.1999567"><ele>91.5</ele><time>2026-04-25T09:27:11.014Z</time></trkpt><trkpt lat="44.0158433" lon="12.1998433"><ele>91.0</ele><time>2026-04-25T09:27:13.014Z</time></trkpt><trkpt lat="44.0158833" lon="12.1997217"><ele>90.5</ele><time>2026-04-25T09:27:15.014Z</time></trkpt><trkpt lat="44.0159067" lon="12.1996083"><ele>90.0</ele><time>2026-04-25T09:27:17.014Z</time></trkpt><trkpt lat="44.0159283" lon="12.1994967"><ele>89.5</ele><time>2026-04-25T09:27:19.013Z</time></trkpt><trkpt lat="44.0159533" lon="12.1993917"><ele>89.0</ele><time>2026-04-25T09:27:21.013Z</time></trkpt><trkpt lat="44.0159733" lon="12.19929"><ele>90.83333333333334</ele><time>2026-04-25T09:27:23.014Z</time></trkpt><trkpt lat="44.0159833" lon="12.1992"><ele>92.66666666666667</ele><time>2026-04-25T09:27:25.014Z</time></trkpt><trkpt lat="44.016" lon="12.19908"><ele>94.5</ele><time>2026-04-25T09:27:28.014Z</time></trkpt><trkpt lat="44.0160317" lon="12.198955"><ele>96.33333333333334</ele><time>2026-04-25T09:27:31.014Z</time></trkpt><trkpt lat="44.01608" lon="12.1988583"><ele>98.16666666666667</ele><time>2026-04-25T09:27:34.014Z</time></trkpt><trkpt lat="44.0160967" lon="12.1987583"><ele>100.0</ele><time>2026-04-25T09:27:37.014Z</time></trkpt><trkpt lat="44.0160717" lon="12.19866"><ele>100.66666666666667</ele><time>2026-04-25T09:27:40.013Z</time></trkpt><trkpt lat="44.0160033" lon="12.1986033"><ele>101.33333333333334</ele><time>2026-04-25T09:27:43.014Z</time></trkpt><trkpt lat="44.015915" lon="12.19861"><ele>102.0</ele><time>2026-04-25T09:27:46.013Z</time></trkpt><trkpt lat="44.015835" lon="12.198625"><ele>102.66666666666666</ele><time>2026-04-25T09:27:49.013Z</time></trkpt><trkpt lat="44.0157667" lon="12.19863"><ele>103.33333333333333</ele><time>2026-04-25T09:27:51.013Z</time></trkpt><trkpt lat="44.0156783" lon="12.19862"><ele>104.0</ele><time>2026-04-25T09:27:54.013Z</time></trkpt><trkpt lat="44.0155983" lon="12.198615"><ele>103.99999999999999</ele><time>2026-04-25T09:27:57.013Z</time></trkpt><trkpt lat="44.0155283" lon="12.1986033"><ele>104.0</ele><time>2026-04-25T09:27:59.013Z</time></trkpt><trkpt lat="44.0154383" lon="12.198555"><ele>104.0</ele><time>2026-04-25T09:28:02.014Z</time></trkpt><trkpt lat="44.0153617" lon="12.1984817"><ele>104.0</ele><time>2026-04-25T09:28:05.014Z</time></trkpt><trkpt lat="44.0153217" lon="12.1984133"><ele>103.99999999999999</ele><time>2026-04-25T09:28:07.014Z</time></trkpt><trkpt lat="44.0152883" lon="12.19833"><ele>104.0</ele><time>2026-04-25T09:28:09.013Z</time></trkpt><trkpt lat="44.0152883" lon="12.1982083"><ele>105.16666666666666</ele><time>2026-04-25T09:28:12.014Z</time></trkpt><trkpt lat="44.015325" lon="12.1980983"><ele>106.33333333333333</ele><time>2026-04-25T09:28:15.014Z</time></trkpt><trkpt lat="44.0153767" lon="12.198"><ele>107.5</ele><time>2026-04-25T09:28:18.013Z</time></trkpt><trkpt lat="44.015435" lon="12.197905"><ele>108.66666666666666</ele><time>2026-04-25T09:28:21.013Z</time></trkpt><trkpt lat="44.0154883" lon="12.1978333"><ele>109.83333333333333</ele><time>2026-04-25T09:28:23.014Z</time></trkpt><trkpt lat="44.0155333" lon="12.1977683"><ele>111.0</ele><time>2026-04-25T09:28:26.013Z</time></trkpt><trkpt lat="44.01559" lon="12.197685"><ele>111.0</ele><time>2026-04-25T09:28:29.014Z</time></trkpt><trkpt lat="44.0156417" lon="12.1976067"><ele>111.0</ele><time>2026-04-25T09:28:32.013Z</time></trkpt><trkpt lat="44.0156967" lon="12.19752"><ele>111.0</ele><time>2026-04-25T09:28:35.014Z</time></trkpt><trkpt lat="44.0157583" lon="12.1974317"><ele>111.0</ele><time>2026-04-25T09:28:38.013Z</time></trkpt><trkpt lat="44.0158017" lon="12.1973667"><ele>111.0</ele><time>2026-04-25T09:28:40.014Z</time></trkpt><trkpt lat="44.015865" lon="12.1972833"><ele>111.0</ele><time>2026-04-25T09:28:43.014Z</time></trkpt><trkpt lat="44.0159117" lon="12.1972217"><ele>112.42857142857142</ele><time>2026-04-25T09:28:45.013Z</time></trkpt><trkpt lat="44.0159617" lon="12.1971517"><ele>113.85714285714286</ele><time>2026-04-25T09:28:47.013Z</time></trkpt><trkpt lat="44.0160183" lon="12.197075"><ele>115.28571428571428</ele><time>2026-04-25T09:28:49.014Z</time></trkpt><trkpt lat="44.0160817" lon="12.1969983"><ele>116.71428571428571</ele><time>2026-04-25T09:28:51.014Z</time></trkpt><trkpt lat="44.016125" lon="12.1969333"><ele>118.14285714285714</ele><time>2026-04-25T09:28:53.014Z</time></trkpt><trkpt lat="44.0161683" lon="12.1968683"><ele>119.57142857142857</ele><time>2026-04-25T09:28:55.013Z</time></trkpt><trkpt lat="44.0162167" lon="12.19681"><ele>121.0</ele><time>2026-04-25T09:28:57.014Z</time></trkpt><trkpt lat="44.0162633" lon="12.196745"><ele>121.00000000000001</ele><time>2026-04-25T09:28:59.013Z</time></trkpt><trkpt lat="44.0163133" lon="12.19668"><ele>121.0</ele><time>2026-04-25T09:29:01.014Z</time></trkpt><trkpt lat="44.0163733" lon="12.1966033"><ele>121.0</ele><time>2026-04-25T09:29:03.014Z</time></trkpt><trkpt lat="44.0164333" lon="12.1965233"><ele>121.0</ele><time>2026-04-25T09:29:05.014Z</time></trkpt><trkpt lat="44.01649" lon="12.1964317"><ele>121.00000000000001</ele><time>2026-04-25T09:29:07.014Z</time></trkpt><trkpt lat="44.01656" lon="12.1963483"><ele>121.0</ele><time>2026-04-25T09:29:09.013Z</time></trkpt><trkpt lat="44.0166267" lon="12.19625"><ele>121.4</ele><time>2026-04-25T09:29:11.014Z</time></trkpt><trkpt lat="44.0167" lon="12.196145"><ele>121.8</ele><time>2026-04-25T09:29:13.013Z</time></trkpt><trkpt lat="44.016765" lon="12.19604"><ele>122.20000000000002</ele><time>2026-04-25T09:29:15.014Z</time></trkpt><trkpt lat="44.01683" lon="12.1959367"><ele>122.60000000000001</ele><time>2026-04-25T09:29:17.014Z</time></trkpt><trkpt lat="44.01689" lon="12.1958367"><ele>123.0</ele><time>2026-04-25T09:29:19.014Z</time></trkpt><trkpt lat="44.0169667" lon="12.1957383"><ele>123.0</ele><time>2026-04-25T09:29:21.013Z</time></trkpt><trkpt lat="44.0170467" lon="12.1956317"><ele>123.00000000000001</ele><time>2026-04-25T09:29:23.013Z</time></trkpt><trkpt lat="44.0171267" lon="12.1955217"><ele>123.00000000000001</ele><time>2026-04-25T09:29:25.014Z</time></trkpt><trkpt lat="44.0172033" lon="12.1954067"><ele>123.0</ele><time>2026-04-25T09:29:27.014Z</time></trkpt><trkpt lat="44.0172733" lon="12.19529"><ele>123.0</ele><time>2026-04-25T09:29:29.014Z</time></trkpt><trkpt lat="44.0173533" lon="12.1951767"><ele>123.0</ele><time>2026-04-25T09:29:31.014Z</time></trkpt><trkpt lat="44.0174267" lon="12.195065"><ele>123.00000000000001</ele><time>2026-04-25T09:29:33.013Z</time></trkpt><trkpt lat="44.0175033" lon="12.194955"><ele>123.00000000000001</ele><time>2026-04-25T09:29:35.014Z</time></trkpt><trkpt lat="44.0175717" lon="12.194845"><ele>123.0</ele><time>2026-04-25T09:29:37.013Z</time></trkpt><trkpt lat="44.0176367" lon="12.1947417"><ele>123.0</ele><time>2026-04-25T09:29:39.013Z</time></trkpt><trkpt lat="44.0176983" lon="12.1946333"><ele>123.2</ele><time>2026-04-25T09:29:41.014Z</time></trkpt><trkpt lat="44.0177717" lon="12.1945333"><ele>123.4</ele><time>2026-04-25T09:29:43.013Z</time></trkpt><trkpt lat="44.0178417" lon="12.1944217"><ele>123.60000000000001</ele><time>2026-04-25T09:29:45.013Z</time></trkpt><trkpt lat="44.017905" lon="12.1943167"><ele>123.80000000000001</ele><time>2026-04-25T09:29:47.014Z</time></trkpt><trkpt lat="44.0179667" lon="12.1942067"><ele>124.0</ele><time>2026-04-25T09:29:49.014Z</time></trkpt><trkpt lat="44.0180267" lon="12.194095"><ele>123.4</ele><time>2026-04-25T09:29:51.013Z</time></trkpt><trkpt lat="44.0180917" lon="12.19398"><ele>122.80000000000001</ele><time>2026-04-25T09:29:53.014Z</time></trkpt><trkpt lat="44.0181483" lon="12.1938667"><ele>122.19999999999999</ele><time>2026-04-25T09:29:55.014Z</time></trkpt><trkpt lat="44.0182033" lon="12.1937533"><ele>121.6</ele><time>2026-04-25T09:29:57.014Z</time></trkpt><trkpt lat="44.0182617" lon="12.1936433"><ele>121.0</ele><time>2026-04-25T09:29:59.013Z</time></trkpt><trkpt lat="44.0183233" lon="12.1935383"><ele>121.0</ele><time>2026-04-25T09:30:01.014Z</time></trkpt><trkpt lat="44.01839" lon="12.1934333"><ele>121.0</ele><time>2026-04-25T09:30:03.013Z</time></trkpt><trkpt lat="44.0184583" lon="12.1933233"><ele>121.0</ele><time>2026-04-25T09:30:05.014Z</time></trkpt><trkpt lat="44.018525" lon="12.1932233"><ele>121.0</ele><time>2026-04-25T09:30:07.014Z</time></trkpt><trkpt lat="44.0185967" lon="12.1931167"><ele>121.0</ele><time>2026-04-25T09:30:09.013Z</time></trkpt><trkpt lat="44.01867" lon="12.19301"><ele>123.5</ele><time>2026-04-25T09:30:11.014Z</time></trkpt><trkpt lat="44.0187633" lon="12.192915"><ele>126.0</ele><time>2026-04-25T09:30:13.013Z</time></trkpt><trkpt lat="44.0188633" lon="12.1928483"><ele>128.5</ele><time>2026-04-25T09:30:15.013Z</time></trkpt><trkpt lat="44.0189783" lon="12.1927783"><ele>131.0</ele><time>2026-04-25T09:30:17.014Z</time></trkpt><trkpt lat="44.019095" lon="12.192715"><ele>129.33333333333331</ele><time>2026-04-25T09:30:19.013Z</time></trkpt><trkpt lat="44.0191533" lon="12.1926817"><ele>127.66666666666666</ele><time>2026-04-25T09:30:20.013Z</time></trkpt><trkpt lat="44.0192733" lon="12.192625"><ele>126.0</ele><time>2026-04-25T09:30:22.013Z</time></trkpt><trkpt lat="44.0193383" lon="12.1925917"><ele>124.33333333333334</ele><time>2026-04-25T09:30:23.014Z</time></trkpt><trkpt lat="44.0194" lon="12.192555"><ele>122.66666666666667</ele><time>2026-04-25T09:30:24.014Z</time></trkpt><trkpt lat="44.0194633" lon="12.19252"><ele>121.0</ele><time>2026-04-25T09:30:25.014Z</time></trkpt><trkpt lat="44.0195217" lon="12.1924867"><ele>121.00000000000001</ele><time>2026-04-25T09:30:26.014Z</time></trkpt><trkpt lat="44.0196333" lon="12.1924083"><ele>121.0</ele><time>2026-04-25T09:30:28.014Z</time></trkpt><trkpt lat="44.01969" lon="12.19237"><ele>121.0</ele><time>2026-04-25T09:30:29.014Z</time></trkpt><trkpt lat="44.01975" lon="12.1923333"><ele>121.0</ele><time>2026-04-25T09:30:30.013Z</time></trkpt><trkpt lat="44.019815" lon="12.1923017"><ele>121.00000000000001</ele><time>2026-04-25T09:30:31.013Z</time></trkpt><trkpt lat="44.0198783" lon="12.1922667"><ele>121.0</ele><time>2026-04-25T09:30:32.014Z</time></trkpt><trkpt lat="44.0200017" lon="12.1922333"><ele>122.14285714285714</ele><time>2026-04-25T09:30:34.014Z</time></trkpt><trkpt lat="44.0200683" lon="12.19223"><ele>123.28571428571428</ele><time>2026-04-25T09:30:35.013Z</time></trkpt><trkpt lat="44.0201317" lon="12.192235"><ele>124.42857142857142</ele><time>2026-04-25T09:30:36.014Z</time></trkpt><trkpt lat="44.020195" lon="12.1922533"><ele>125.57142857142856</ele><time>2026-04-25T09:30:37.014Z</time></trkpt><trkpt lat="44.0202617" lon="12.192275"><ele>126.71428571428571</ele><time>2026-04-25T09:30:38.014Z</time></trkpt><trkpt lat="44.0203283" lon="12.1922883"><ele>127.85714285714283</ele><time>2026-04-25T09:30:39.014Z</time></trkpt><trkpt lat="44.0203933" lon="12.1922983"><ele>129.0</ele><time>2026-04-25T09:30:40.014Z</time></trkpt><trkpt lat="44.020515" lon="12.1922933"><ele>129.0</ele><time>2026-04-25T09:30:42.013Z</time></trkpt><trkpt lat="44.0206333" lon="12.1922533"><ele>129.0</ele><time>2026-04-25T09:30:44.014Z</time></trkpt><trkpt lat="44.02074" lon="12.1921867"><ele>129.0</ele><time>2026-04-25T09:30:46.013Z</time></trkpt><trkpt lat="44.020825" lon="12.1920967"><ele>129.0</ele><time>2026-04-25T09:30:48.013Z</time></trkpt><trkpt lat="44.0208817" lon="12.1919717"><ele>128.5</ele><time>2026-04-25T09:30:50.014Z</time></trkpt><trkpt lat="44.0208983" lon="12.191805"><ele>128.0</ele><time>2026-04-25T09:30:52.013Z</time></trkpt><trkpt lat="44.0208967" lon="12.1917133"><ele>127.5</ele><time>2026-04-25T09:30:53.014Z</time></trkpt><trkpt lat="44.0209017" lon="12.1916183"><ele>127.0</ele><time>2026-04-25T09:30:54.014Z</time></trkpt><trkpt lat="44.0209117" lon="12.1915267"><ele>126.5</ele><time>2026-04-25T09:30:55.014Z</time></trkpt><trkpt lat="44.0209417" lon="12.1913617"><ele>126.0</ele><time>2026-04-25T09:30:57.014Z</time></trkpt><trkpt lat="44.0209583" lon="12.1912717"><ele>126.0</ele><time>2026-04-25T09:30:58.014Z</time></trkpt><trkpt lat="44.0209767" lon="12.19118"><ele>126.0</ele><time>2026-04-25T09:30:59.014Z</time></trkpt><trkpt lat="44.0209967" lon="12.1910933"><ele>126.0</ele><time>2026-04-25T09:31:00.013Z</time></trkpt><trkpt lat="44.0210167" lon="12.1910067"><ele>126.0</ele><time>2026-04-25T09:31:01.013Z</time></trkpt><trkpt lat="44.0210383" lon="12.1909183"><ele>126.0</ele><time>2026-04-25T09:31:02.013Z</time></trkpt><trkpt lat="44.0210767" lon="12.1907533"><ele>126.0</ele><time>2026-04-25T09:31:04.013Z</time></trkpt><trkpt lat="44.0210967" lon="12.1906667"><ele>126.83333333333333</ele><time>2026-04-25T09:31:05.014Z</time></trkpt><trkpt lat="44.0211417" lon="12.1905017"><ele>127.66666666666666</ele><time>2026-04-25T09:31:07.014Z</time></trkpt><trkpt lat="44.0211917" lon="12.19042"><ele>128.5</ele><time>2026-04-25T09:31:08.013Z</time></trkpt><trkpt lat="44.0212517" lon="12.19037"><ele>129.33333333333331</ele><time>2026-04-25T09:31:09.013Z</time></trkpt><trkpt lat="44.0213233" lon="12.19036"><ele>130.16666666666666</ele><time>2026-04-25T09:31:10.013Z</time></trkpt><trkpt lat="44.0213883" lon="12.1903933"><ele>131.0</ele><time>2026-04-25T09:31:11.014Z</time></trkpt><trkpt lat="44.021445" lon="12.19045"><ele>131.0</ele><time>2026-04-25T09:31:12.014Z</time></trkpt><trkpt lat="44.021495" lon="12.1905133"><ele>131.0</ele><time>2026-04-25T09:31:13.014Z</time></trkpt><trkpt lat="44.0215383" lon="12.1905817"><ele>131.0</ele><time>2026-04-25T09:31:14.014Z</time></trkpt><trkpt lat="44.0216233" lon="12.1907017"><ele>131.0</ele><time>2026-04-25T09:31:16.013Z</time></trkpt><trkpt lat="44.021705" lon="12.19081"><ele>131.0</ele><time>2026-04-25T09:31:18.012Z</time></trkpt><trkpt lat="44.0217967" lon="12.1909117"><ele>129.8</ele><time>2026-04-25T09:31:20.013Z</time></trkpt><trkpt lat="44.0218733" lon="12.191035"><ele>128.6</ele><time>2026-04-25T09:31:22.013Z</time></trkpt><trkpt lat="44.021945" lon="12.19115"><ele>127.4</ele><time>2026-04-25T09:31:24.013Z</time></trkpt><trkpt lat="44.0220133" lon="12.1912767"><ele>126.2</ele><time>2026-04-25T09:31:26.012Z</time></trkpt><trkpt lat="44.0220667" lon="12.1914083"><ele>125.0</ele><time>2026-04-25T09:31:28.013Z</time></trkpt><trkpt lat="44.0221083" lon="12.191545"><ele>122.2</ele><time>2026-04-25T09:31:30.013Z</time></trkpt><trkpt lat="44.022155" lon="12.1916633"><ele>119.4</ele><time>2026-04-25T09:31:32.013Z</time></trkpt><trkpt lat="44.0222117" lon="12.191785"><ele>116.6</ele><time>2026-04-25T09:31:34.013Z</time></trkpt><trkpt lat="44.0222783" lon="12.19191"><ele>113.8</ele><time>2026-04-25T09:31:36.012Z</time></trkpt><trkpt lat="44.02235" lon="12.1920267"><ele>111.0</ele><time>2026-04-25T09:31:38.012Z</time></trkpt><trkpt lat="44.0224367" lon="12.1921417"><ele>112.66666666666667</ele><time>2026-04-25T09:31:40.012Z</time></trkpt><trkpt lat="44.022535" lon="12.19223"><ele>114.33333333333334</ele><time>2026-04-25T09:31:42.013Z</time></trkpt><trkpt lat="44.02265" lon="12.19227"><ele>116.0</ele><time>2026-04-25T09:31:44.012Z</time></trkpt><trkpt lat="44.022715" lon="12.1922767"><ele>117.66666666666667</ele><time>2026-04-25T09:31:45.012Z</time></trkpt><trkpt lat="44.022785" lon="12.1922667"><ele>119.33333333333334</ele><time>2026-04-25T09:31:46.013Z</time></trkpt><trkpt lat="44.0228517" lon="12.19225"><ele>121.0</ele><time>2026-04-25T09:31:47.013Z</time></trkpt><trkpt lat="44.02292" lon="12.1922417"><ele>121.0</ele><time>2026-04-25T09:31:48.012Z</time></trkpt><trkpt lat="44.0229917" lon="12.192235"><ele>120.99999999999999</ele><time>2026-04-25T09:31:49.013Z</time></trkpt><trkpt lat="44.02306" lon="12.1922283"><ele>121.0</ele><time>2026-04-25T09:31:50.013Z</time></trkpt><trkpt lat="44.0231333" lon="12.19222"><ele>121.0</ele><time>2026-04-25T09:31:51.013Z</time></trkpt><trkpt lat="44.0232067" lon="12.192205"><ele>120.99999999999999</ele><time>2026-04-25T09:31:52.013Z</time></trkpt><trkpt lat="44.023275" lon="12.1922033"><ele>121.0</ele><time>2026-04-25T09:31:53.012Z</time></trkpt><trkpt lat="44.023345" lon="12.1921917"><ele>121.0</ele><time>2026-04-25T09:31:54.012Z</time></trkpt><trkpt lat="44.023415" lon="12.1921817"><ele>121.0</ele><time>2026-04-25T09:31:55.013Z</time></trkpt><trkpt lat="44.0234883" lon="12.1921767"><ele>120.99999999999999</ele><time>2026-04-25T09:31:56.013Z</time></trkpt><trkpt lat="44.0235583" lon="12.1921683"><ele>121.0</ele><time>2026-04-25T09:31:57.013Z</time></trkpt><trkpt lat="44.0236233" lon="12.1921617"><ele>121.0</ele><time>2026-04-25T09:31:58.013Z</time></trkpt><trkpt lat="44.0236933" lon="12.1921517"><ele>120.99999999999999</ele><time>2026-04-25T09:31:59.013Z</time></trkpt><trkpt lat="44.02376" lon="12.1921417"><ele>121.0</ele><time>2026-04-25T09:32:00.013Z</time></trkpt><trkpt lat="44.0238317" lon="12.192135"><ele>121.0</ele><time>2026-04-25T09:32:01.012Z</time></trkpt><trkpt lat="44.0238983" lon="12.1921267"><ele>121.0</ele><time>2026-04-25T09:32:02.012Z</time></trkpt><trkpt lat="44.0239667" lon="12.19212"><ele>120.99999999999999</ele><time>2026-04-25T09:32:03.013Z</time></trkpt><trkpt lat="44.0240317" lon="12.19212"><ele>121.0</ele><time>2026-04-25T09:32:04.013Z</time></trkpt><trkpt lat="44.0241" lon="12.19212"><ele>121.0</ele><time>2026-04-25T09:32:05.013Z</time></trkpt><trkpt lat="44.0241667" lon="12.192125"><ele>120.99999999999999</ele><time>2026-04-25T09:32:06.013Z</time></trkpt><trkpt lat="44.024235" lon="12.192125"><ele>121.0</ele><time>2026-04-25T09:32:07.013Z</time></trkpt><trkpt lat="44.0243033" lon="12.1921233"><ele>121.0</ele><time>2026-04-25T09:32:08.013Z</time></trkpt><trkpt lat="44.0243717" lon="12.1921267"><ele>120.50000000000001</ele><time>2026-04-25T09:32:09.012Z</time></trkpt><trkpt lat="44.0244367" lon="12.1921267"><ele>120.0</ele><time>2026-04-25T09:32:10.012Z</time></trkpt><trkpt lat="44.0245017" lon="12.19213"><ele>119.5</ele><time>2026-04-25T09:32:11.012Z</time></trkpt><trkpt lat="44.0245667" lon="12.1921383"><ele>119.0</ele><time>2026-04-25T09:32:12.013Z</time></trkpt><trkpt lat="44.0246317" lon="12.1921417"><ele>118.50000000000001</ele><time>2026-04-25T09:32:13.012Z</time></trkpt><trkpt lat="44.0247617" lon="12.1921567"><ele>118.0</ele><time>2026-04-25T09:32:15.013Z</time></trkpt><trkpt lat="44.0248317" lon="12.1921667"><ele>118.0</ele><time>2026-04-25T09:32:16.013Z</time></trkpt><trkpt lat="44.0248983" lon="12.1921817"><ele>118.0</ele><time>2026-04-25T09:32:17.013Z</time></trkpt><trkpt lat="44.0249633" lon="12.1921917"><ele>118.0</ele><time>2026-04-25T09:32:18.012Z</time></trkpt><trkpt lat="44.0250317" lon="12.1922"><ele>118.0</ele><time>2026-04-25T09:32:19.013Z</time></trkpt><trkpt lat="44.0250967" lon="12.1922033"><ele>118.0</ele><time>2026-04-25T09:32:20.012Z</time></trkpt><trkpt lat="44.0251633" lon="12.1922033"><ele>118.0</ele><time>2026-04-25T09:32:21.013Z</time></trkpt><trkpt lat="44.0252283" lon="12.1922133"><ele>118.0</ele><time>2026-04-25T09:32:22.013Z</time></trkpt><trkpt lat="44.025295" lon="12.1922217"><ele>117.50000000000001</ele><time>2026-04-25T09:32:23.013Z</time></trkpt><trkpt lat="44.02536" lon="12.1922317"><ele>117.0</ele><time>2026-04-25T09:32:24.012Z</time></trkpt><trkpt lat="44.025425" lon="12.1922433"><ele>116.5</ele><time>2026-04-25T09:32:25.013Z</time></trkpt><trkpt lat="44.0255517" lon="12.19226"><ele>116.0</ele><time>2026-04-25T09:32:27.012Z</time></trkpt><trkpt lat="44.0256183" lon="12.1922633"><ele>115.50000000000001</ele><time>2026-04-25T09:32:28.012Z</time></trkpt><trkpt lat="44.025685" lon="12.19227"><ele>115.0</ele><time>2026-04-25T09:32:29.013Z</time></trkpt><trkpt lat="44.02575" lon="12.1922817"><ele>114.8</ele><time>2026-04-25T09:32:30.013Z</time></trkpt><trkpt lat="44.0258183" lon="12.1922833"><ele>114.6</ele><time>2026-04-25T09:32:31.012Z</time></trkpt><trkpt lat="44.025885" lon="12.1922917"><ele>114.4</ele><time>2026-04-25T09:32:32.013Z</time></trkpt><trkpt lat="44.0259517" lon="12.1922983"><ele>114.2</ele><time>2026-04-25T09:32:33.013Z</time></trkpt><trkpt lat="44.0260717" lon="12.1923217"><ele>114.0</ele><time>2026-04-25T09:32:35.012Z</time></trkpt><trkpt lat="44.026205" lon="12.1923217"><ele>114.0</ele><time>2026-04-25T09:32:37.013Z</time></trkpt><trkpt lat="44.0262783" lon="12.1923283"><ele>114.0</ele><time>2026-04-25T09:32:38.013Z</time></trkpt><trkpt lat="44.02635" lon="12.1923367"><ele>114.0</ele><time>2026-04-25T09:32:39.013Z</time></trkpt><trkpt lat="44.02642" lon="12.1923467"><ele>114.0</ele><time>2026-04-25T09:32:40.012Z</time></trkpt><trkpt lat="44.0264917" lon="12.1923567"><ele>114.0</ele><time>2026-04-25T09:32:41.013Z</time></trkpt><trkpt lat="44.026555" lon="12.1923617"><ele>114.0</ele><time>2026-04-25T09:32:42.012Z</time></trkpt><trkpt lat="44.0266767" lon="12.19237"><ele>113.5</ele><time>2026-04-25T09:32:44.012Z</time></trkpt><trkpt lat="44.0268" lon="12.1923933"><ele>113.0</ele><time>2026-04-25T09:32:46.013Z</time></trkpt><trkpt lat="44.0268683" lon="12.192405"><ele>112.5</ele><time>2026-04-25T09:32:47.013Z</time></trkpt><trkpt lat="44.026935" lon="12.1924167"><ele>112.0</ele><time>2026-04-25T09:32:48.013Z</time></trkpt><trkpt lat="44.0270067" lon="12.1924217"><ele>111.5</ele><time>2026-04-25T09:32:49.013Z</time></trkpt><trkpt lat="44.0270783" lon="12.1924233"><ele>111.0</ele><time>2026-04-25T09:32:50.013Z</time></trkpt><trkpt lat="44.0271483" lon="12.19243"><ele>111.0</ele><time>2026-04-25T09:32:51.012Z</time></trkpt><trkpt lat="44.027215" lon="12.1924433"><ele>111.0</ele><time>2026-04-25T09:32:52.013Z</time></trkpt><trkpt lat="44.0272817" lon="12.192455"><ele>111.0</ele><time>2026-04-25T09:32:53.013Z</time></trkpt><trkpt lat="44.02735" lon="12.192465"><ele>111.0</ele><time>2026-04-25T09:32:54.013Z</time></trkpt><trkpt lat="44.02742" lon="12.19247"><ele>111.0</ele><time>2026-04-25T09:32:55.012Z</time></trkpt><trkpt lat="44.0274867" lon="12.1924717"><ele>111.0</ele><time>2026-04-25T09:32:56.013Z</time></trkpt><trkpt lat="44.0275517" lon="12.1924783"><ele>111.0</ele><time>2026-04-25T09:32:57.013Z</time></trkpt><trkpt lat="44.0276167" lon="12.1924883"><ele>111.0</ele><time>2026-04-25T09:32:58.013Z</time></trkpt><trkpt lat="44.0277383" lon="12.1925"><ele>111.0</ele><time>2026-04-25T09:33:00.013Z</time></trkpt><trkpt lat="44.0278083" lon="12.1925033"><ele>111.0</ele><time>2026-04-25T09:33:01.012Z</time></trkpt><trkpt lat="44.0278767" lon="12.1925117"><ele>111.0</ele><time>2026-04-25T09:33:02.012Z</time></trkpt><trkpt lat="44.0279433" lon="12.1925133"><ele>111.0</ele><time>2026-04-25T09:33:03.013Z</time></trkpt><trkpt lat="44.0280083" lon="12.192525"><ele>111.0</ele><time>2026-04-25T09:33:04.013Z</time></trkpt><trkpt lat="44.0280717" lon="12.1925383"><ele>111.0</ele><time>2026-04-25T09:33:05.013Z</time></trkpt><trkpt lat="44.0281367" lon="12.1925433"><ele>111.0</ele><time>2026-04-25T09:33:06.013Z</time></trkpt><trkpt lat="44.0282017" lon="12.1925567"><ele>111.0</ele><time>2026-04-25T09:33:07.012Z</time></trkpt><trkpt lat="44.0282683" lon="12.1925717"><ele>111.0</ele><time>2026-04-25T09:33:08.012Z</time></trkpt><trkpt lat="44.0283883" lon="12.19257"><ele>111.0</ele><time>2026-04-25T09:33:10.013Z</time></trkpt><trkpt lat="44.0284517" lon="12.192575"><ele>111.0</ele><time>2026-04-25T09:33:11.012Z</time></trkpt><trkpt lat="44.0285167" lon="12.1925817"><ele>111.0</ele><time>2026-04-25T09:33:12.013Z</time></trkpt><trkpt lat="44.0285817" lon="12.19259"><ele>111.0</ele><time>2026-04-25T09:33:13.013Z</time></trkpt><trkpt lat="44.0286517" lon="12.1925933"><ele>111.0</ele><time>2026-04-25T09:33:14.013Z</time></trkpt><trkpt lat="44.0287783" lon="12.192595"><ele>111.0</ele><time>2026-04-25T09:33:16.013Z</time></trkpt><trkpt lat="44.0288467" lon="12.1925933"><ele>111.0</ele><time>2026-04-25T09:33:17.013Z</time></trkpt><trkpt lat="44.0289633" lon="12.1925983"><ele>111.0</ele><time>2026-04-25T09:33:19.013Z</time></trkpt><trkpt lat="44.0290767" lon="12.1926033"><ele>111.0</ele><time>2026-04-25T09:33:21.013Z</time></trkpt><trkpt lat="44.0291417" lon="12.192605"><ele>111.0</ele><time>2026-04-25T09:33:22.013Z</time></trkpt><trkpt lat="44.0292617" lon="12.1926267"><ele>111.0</ele><time>2026-04-25T09:33:24.012Z</time></trkpt><trkpt lat="44.02938" lon="12.192645"><ele>111.0</ele><time>2026-04-25T09:33:26.013Z</time></trkpt><trkpt lat="44.029445" lon="12.192645"><ele>111.0</ele><time>2026-04-25T09:33:27.013Z</time></trkpt><trkpt lat="44.02951" lon="12.19265"><ele>111.0</ele><time>2026-04-25T09:33:28.012Z</time></trkpt><trkpt lat="44.0295783" lon="12.19266"><ele>111.0</ele><time>2026-04-25T09:33:29.012Z</time></trkpt><trkpt lat="44.029705" lon="12.192675"><ele>111.0</ele><time>2026-04-25T09:33:31.012Z</time></trkpt><trkpt lat="44.0297683" lon="12.1926833"><ele>111.0</ele><time>2026-04-25T09:33:32.012Z</time></trkpt><trkpt lat="44.02989" lon="12.1926983"><ele>111.0</ele><time>2026-04-25T09:33:34.013Z</time></trkpt><trkpt lat="44.029955" lon="12.19271"><ele>111.0</ele><time>2026-04-25T09:33:35.013Z</time></trkpt><trkpt lat="44.0300183" lon="12.1927283"><ele>111.0</ele><time>2026-04-25T09:33:36.012Z</time></trkpt><trkpt lat="44.030085" lon="12.19275"><ele>110.57142857142857</ele><time>2026-04-25T09:33:37.012Z</time></trkpt><trkpt lat="44.0301533" lon="12.192775"><ele>110.14285714285715</ele><time>2026-04-25T09:33:38.012Z</time></trkpt><trkpt lat="44.03022" lon="12.1928067"><ele>109.71428571428572</ele><time>2026-04-25T09:33:39.013Z</time></trkpt><trkpt lat="44.0302883" lon="12.192845"><ele>109.28571428571428</ele><time>2026-04-25T09:33:40.012Z</time></trkpt><trkpt lat="44.0303567" lon="12.1928883"><ele>108.85714285714286</ele><time>2026-04-25T09:33:41.013Z</time></trkpt><trkpt lat="44.0304217" lon="12.19293"><ele>108.42857142857143</ele><time>2026-04-25T09:33:42.012Z</time></trkpt><trkpt lat="44.0304867" lon="12.1929783"><ele>108.0</ele><time>2026-04-25T09:33:43.013Z</time></trkpt><trkpt lat="44.0305517" lon="12.1930233"><ele>108.0</ele><time>2026-04-25T09:33:44.012Z</time></trkpt><trkpt lat="44.030615" lon="12.1930717"><ele>108.0</ele><time>2026-04-25T09:33:45.013Z</time></trkpt><trkpt lat="44.0306817" lon="12.1931183"><ele>108.0</ele><time>2026-04-25T09:33:46.012Z</time></trkpt><trkpt lat="44.0307517" lon="12.1931583"><ele>108.0</ele><time>2026-04-25T09:33:47.013Z</time></trkpt><trkpt lat="44.030815" lon="12.1932083"><ele>108.0</ele><time>2026-04-25T09:33:48.013Z</time></trkpt><trkpt lat="44.0308683" lon="12.193275"><ele>108.0</ele><time>2026-04-25T09:33:49.013Z</time></trkpt><trkpt lat="44.0309133" lon="12.1933617"><ele>108.0</ele><time>2026-04-25T09:33:50.013Z</time></trkpt><trkpt lat="44.0309217" lon="12.1934617"><ele>107.83333333333333</ele><time>2026-04-25T09:33:51.013Z</time></trkpt><trkpt lat="44.0308933" lon="12.1935617"><ele>107.66666666666666</ele><time>2026-04-25T09:33:52.012Z</time></trkpt><trkpt lat="44.03084" lon="12.1936517"><ele>107.5</ele><time>2026-04-25T09:33:53.013Z</time></trkpt><trkpt lat="44.0307767" lon="12.1937367"><ele>107.33333333333333</ele><time>2026-04-25T09:33:54.013Z</time></trkpt><trkpt lat="44.03071" lon="12.193815"><ele>107.16666666666666</ele><time>2026-04-25T09:33:55.012Z</time></trkpt><trkpt lat="44.03066" lon="12.1939"><ele>107.0</ele><time>2026-04-25T09:33:56.013Z</time></trkpt><trkpt lat="44.03063" lon="12.1939817"><ele>106.66666666666666</ele><time>2026-04-25T09:33:57.012Z</time></trkpt><trkpt lat="44.0306167" lon="12.19408"><ele>106.33333333333333</ele><time>2026-04-25T09:33:58.012Z</time></trkpt><trkpt lat="44.030635" lon="12.194185"><ele>106.0</ele><time>2026-04-25T09:33:59.012Z</time></trkpt><trkpt lat="44.0306767" lon="12.1942783"><ele>105.66666666666666</ele><time>2026-04-25T09:34:00.013Z</time></trkpt><trkpt lat="44.030735" lon="12.1943467"><ele>105.33333333333333</ele><time>2026-04-25T09:34:01.013Z</time></trkpt><trkpt lat="44.03081" lon="12.1943883"><ele>105.0</ele><time>2026-04-25T09:34:02.013Z</time></trkpt><trkpt lat="44.0308967" lon="12.1943917"><ele>104.8</ele><time>2026-04-25T09:34:03.012Z</time></trkpt><trkpt lat="44.03098" lon="12.1943583"><ele>104.6</ele><time>2026-04-25T09:34:04.013Z</time></trkpt><trkpt lat="44.0310583" lon="12.1942917"><ele>104.4</ele><time>2026-04-25T09:34:05.013Z</time></trkpt><trkpt lat="44.03113" lon="12.1942067"><ele>104.2</ele><time>2026-04-25T09:34:06.012Z</time></trkpt><trkpt lat="44.0312" lon="12.194125"><ele>104.0</ele><time>2026-04-25T09:34:07.013Z</time></trkpt><trkpt lat="44.03127" lon="12.1940533"><ele>104.16666666666666</ele><time>2026-04-25T09:34:08.013Z</time></trkpt><trkpt lat="44.03134" lon="12.193975"><ele>104.33333333333333</ele><time>2026-04-25T09:34:09.013Z</time></trkpt><trkpt lat="44.0313967" lon="12.1938783"><ele>104.5</ele><time>2026-04-25T09:34:10.013Z</time></trkpt><trkpt lat="44.031445" lon="12.1937783"><ele>104.66666666666666</ele><time>2026-04-25T09:34:11.012Z</time></trkpt><trkpt lat="44.031465" lon="12.1936667"><ele>104.83333333333333</ele><time>2026-04-25T09:34:12.012Z</time></trkpt><trkpt lat="44.031465" lon="12.1935517"><ele>105.0</ele><time>2026-04-25T09:34:13.013Z</time></trkpt><trkpt lat="44.03146" lon="12.19343"><ele>105.0</ele><time>2026-04-25T09:34:14.012Z</time></trkpt><trkpt lat="44.031455" lon="12.1933117"><ele>105.0</ele><time>2026-04-25T09:34:15.012Z</time></trkpt><trkpt lat="44.0314517" lon="12.1931917"><ele>105.0</ele><time>2026-04-25T09:34:16.012Z</time></trkpt><trkpt lat="44.0314317" lon="12.1930733"><ele>105.0</ele><time>2026-04-25T09:34:17.013Z</time></trkpt><trkpt lat="44.0313983" lon="12.1929517"><ele>105.0</ele><time>2026-04-25T09:34:18.012Z</time></trkpt><trkpt lat="44.0313567" lon="12.1928483"><ele>105.0</ele><time>2026-04-25T09:34:19.013Z</time></trkpt><trkpt lat="44.031295" lon="12.19275"><ele>105.5</ele><time>2026-04-25T09:34:20.013Z</time></trkpt><trkpt lat="44.031225" lon="12.1926767"><ele>106.0</ele><time>2026-04-25T09:34:21.012Z</time></trkpt><trkpt lat="44.0311517" lon="12.1926117"><ele>106.5</ele><time>2026-04-25T09:34:22.012Z</time></trkpt><trkpt lat="44.031075" lon="12.1925833"><ele>107.0</ele><time>2026-04-25T09:34:23.012Z</time></trkpt><trkpt lat="44.03099" lon="12.1925733"><ele>107.5</ele><time>2026-04-25T09:34:24.012Z</time></trkpt><trkpt lat="44.030895" lon="12.192565"><ele>108.0</ele><time>2026-04-25T09:34:25.013Z</time></trkpt><trkpt lat="44.0308033" lon="12.1925267"><ele>108.0</ele><time>2026-04-25T09:34:26.013Z</time></trkpt><trkpt lat="44.0307233" lon="12.1924533"><ele>108.00000000000001</ele><time>2026-04-25T09:34:27.012Z</time></trkpt><trkpt lat="44.0306567" lon="12.1923533"><ele>108.00000000000001</ele><time>2026-04-25T09:34:28.013Z</time></trkpt><trkpt lat="44.0306" lon="12.192245"><ele>108.0</ele><time>2026-04-25T09:34:29.013Z</time></trkpt><trkpt lat="44.0305517" lon="12.1921283"><ele>108.0</ele><time>2026-04-25T09:34:30.013Z</time></trkpt><trkpt lat="44.0305367" lon="12.1920267"><ele>105.80000000000001</ele><time>2026-04-25T09:34:31.013Z</time></trkpt><trkpt lat="44.0304967" lon="12.191905"><ele>103.60000000000001</ele><time>2026-04-25T09:34:32.012Z</time></trkpt><trkpt lat="44.0304483" lon="12.1918"><ele>101.4</ele><time>2026-04-25T09:34:33.013Z</time></trkpt><trkpt lat="44.0303867" lon="12.1917017"><ele>99.19999999999999</ele><time>2026-04-25T09:34:34.013Z</time></trkpt><trkpt lat="44.03031" lon="12.19161"><ele>97.0</ele><time>2026-04-25T09:34:35.012Z</time></trkpt><trkpt lat="44.0302383" lon="12.1915233"><ele>95.6</ele><time>2026-04-25T09:34:36.013Z</time></trkpt><trkpt lat="44.0301667" lon="12.191435"><ele>94.19999999999999</ele><time>2026-04-25T09:34:37.013Z</time></trkpt><trkpt lat="44.03009" lon="12.1913517"><ele>92.8</ele><time>2026-04-25T09:34:38.012Z</time></trkpt><trkpt lat="44.03001" lon="12.1912683"><ele>91.4</ele><time>2026-04-25T09:34:39.013Z</time></trkpt><trkpt lat="44.0299433" lon="12.1911717"><ele>90.0</ele><time>2026-04-25T09:34:40.013Z</time></trkpt><trkpt lat="44.0298933" lon="12.1910583"><ele>90.0</ele><time>2026-04-25T09:34:41.012Z</time></trkpt><trkpt lat="44.0298567" lon="12.1909433"><ele>90.0</ele><time>2026-04-25T09:34:42.013Z</time></trkpt><trkpt lat="44.029835" lon="12.1908067"><ele>90.0</ele><time>2026-04-25T09:34:43.013Z</time></trkpt><trkpt lat="44.0298217" lon="12.1906683"><ele>90.0</ele><time>2026-04-25T09:34:44.012Z</time></trkpt><trkpt lat="44.0298167" lon="12.1905317"><ele>90.0</ele><time>2026-04-25T09:34:45.012Z</time></trkpt><trkpt lat="44.0298133" lon="12.190395"><ele>88.66666666666667</ele><time>2026-04-25T09:34:46.013Z</time></trkpt><trkpt lat="44.0298017" lon="12.19026"><ele>87.33333333333333</ele><time>2026-04-25T09:34:47.013Z</time></trkpt><trkpt lat="44.0297883" lon="12.190145"><ele>86.0</ele><time>2026-04-25T09:34:48.013Z</time></trkpt><trkpt lat="44.02978" lon="12.190045"><ele>84.66666666666666</ele><time>2026-04-25T09:34:49.013Z</time></trkpt><trkpt lat="44.029775" lon="12.1898983"><ele>83.33333333333333</ele><time>2026-04-25T09:34:51.013Z</time></trkpt><trkpt lat="44.02975" lon="12.1898167"><ele>82.0</ele><time>2026-04-25T09:34:53.013Z</time></trkpt><trkpt lat="44.029685" lon="12.1897283"><ele>82.0</ele><time>2026-04-25T09:34:55.013Z</time></trkpt><trkpt lat="44.029645" lon="12.1896083"><ele>82.0</ele><time>2026-04-25T09:34:57.013Z</time></trkpt><trkpt lat="44.02966" lon="12.18949"><ele>82.0</ele><time>2026-04-25T09:34:59.013Z</time></trkpt><trkpt lat="44.0296983" lon="12.1894"><ele>82.0</ele><time>2026-04-25T09:35:01.012Z</time></trkpt><trkpt lat="44.02975" lon="12.1893383"><ele>82.0</ele><time>2026-04-25T09:35:03.013Z</time></trkpt><trkpt lat="44.0298467" lon="12.1893567"><ele>82.0</ele><time>2026-04-25T09:35:06.012Z</time></trkpt><trkpt lat="44.0299083" lon="12.189375"><ele>83.71428571428571</ele><time>2026-04-25T09:35:08.013Z</time></trkpt><trkpt lat="44.0299817" lon="12.1893933"><ele>85.42857142857143</ele><time>2026-04-25T09:35:10.013Z</time></trkpt><trkpt lat="44.03005" lon="12.1894117"><ele>87.14285714285714</ele><time>2026-04-25T09:35:12.013Z</time></trkpt><trkpt lat="44.03012" lon="12.1894167"><ele>88.85714285714286</ele><time>2026-04-25T09:35:14.013Z</time></trkpt><trkpt lat="44.0301833" lon="12.1894217"><ele>90.57142857142857</ele><time>2026-04-25T09:35:16.013Z</time></trkpt><trkpt lat="44.0302517" lon="12.18943"><ele>92.28571428571428</ele><time>2026-04-25T09:35:18.012Z</time></trkpt><trkpt lat="44.0303283" lon="12.18945"><ele>94.0</ele><time>2026-04-25T09:35:20.012Z</time></trkpt><trkpt lat="44.0304233" lon="12.18947"><ele>94.0</ele><time>2026-04-25T09:35:23.011Z</time></trkpt><trkpt lat="44.0304917" lon="12.1895067"><ele>94.0</ele><time>2026-04-25T09:35:25.012Z</time></trkpt><trkpt lat="44.0305683" lon="12.189585"><ele>94.0</ele><time>2026-04-25T09:35:28.011Z</time></trkpt><trkpt lat="44.0306317" lon="12.189635"><ele>94.0</ele><time>2026-04-25T09:35:30.012Z</time></trkpt><trkpt lat="44.0306883" lon="12.1897"><ele>94.0</ele><time>2026-04-25T09:35:32.011Z</time></trkpt><trkpt lat="44.0307467" lon="12.189755"><ele>94.0</ele><time>2026-04-25T09:35:34.011Z</time></trkpt><trkpt lat="44.0308083" lon="12.1897967"><ele>95.83333333333333</ele><time>2026-04-25T09:35:36.012Z</time></trkpt><trkpt lat="44.0308733" lon="12.1898233"><ele>97.66666666666666</ele><time>2026-04-25T09:35:38.012Z</time></trkpt><trkpt lat="44.0309567" lon="12.1898267"><ele>99.5</ele><time>2026-04-25T09:35:41.012Z</time></trkpt><trkpt lat="44.0310483" lon="12.1897983"><ele>101.33333333333333</ele><time>2026-04-25T09:35:44.012Z</time></trkpt><trkpt lat="44.0311283" lon="12.1897767"><ele>103.16666666666667</ele><time>2026-04-25T09:35:47.012Z</time></trkpt><trkpt lat="44.03119" lon="12.18974"><ele>105.0</ele><time>2026-04-25T09:35:49.011Z</time></trkpt><trkpt lat="44.0312733" lon="12.1896917"><ele>105.0</ele><time>2026-04-25T09:35:52.012Z</time></trkpt><trkpt lat="44.0313567" lon="12.189635"><ele>105.0</ele><time>2026-04-25T09:35:55.012Z</time></trkpt><trkpt lat="44.031435" lon="12.1895867"><ele>105.0</ele><time>2026-04-25T09:35:58.012Z</time></trkpt><trkpt lat="44.03151" lon="12.189545"><ele>105.0</ele><time>2026-04-25T09:36:01.012Z</time></trkpt><trkpt lat="44.0315733" lon="12.1895217"><ele>105.0</ele><time>2026-04-25T09:36:04.012Z</time></trkpt><trkpt lat="44.0316567" lon="12.18953"><ele>105.0</ele><time>2026-04-25T09:36:07.012Z</time></trkpt><trkpt lat="44.0317217" lon="12.18956"><ele>105.33333333333333</ele><time>2026-04-25T09:36:10.012Z</time></trkpt><trkpt lat="44.0317817" lon="12.189615"><ele>105.66666666666666</ele><time>2026-04-25T09:36:13.012Z</time></trkpt><trkpt lat="44.03184" lon="12.189675"><ele>106.0</ele><time>2026-04-25T09:36:16.012Z</time></trkpt><trkpt lat="44.0319133" lon="12.1897117"><ele>106.33333333333333</ele><time>2026-04-25T09:36:19.012Z</time></trkpt><trkpt lat="44.0319867" lon="12.1897117"><ele>106.66666666666666</ele><time>2026-04-25T09:36:22.011Z</time></trkpt><trkpt lat="44.03206" lon="12.189665"><ele>107.0</ele><time>2026-04-25T09:36:25.011Z</time></trkpt><trkpt lat="44.03212" lon="12.1895867"><ele>106.99999999999999</ele><time>2026-04-25T09:36:28.011Z</time></trkpt><trkpt lat="44.0321567" lon="12.1894817"><ele>107.0</ele><time>2026-04-25T09:36:31.012Z</time></trkpt><trkpt lat="44.032195" lon="12.1893683"><ele>107.0</ele><time>2026-04-25T09:36:34.012Z</time></trkpt><trkpt lat="44.0322283" lon="12.189255"><ele>107.0</ele><time>2026-04-25T09:36:37.011Z</time></trkpt><trkpt lat="44.0322583" lon="12.189135"><ele>106.99999999999999</ele><time>2026-04-25T09:36:40.012Z</time></trkpt><trkpt lat="44.0323017" lon="12.1890317"><ele>107.0</ele><time>2026-04-25T09:36:43.012Z</time></trkpt><trkpt lat="44.03232" lon="12.18892"><ele>108.83333333333333</ele><time>2026-04-25T09:36:46.012Z</time></trkpt><trkpt lat="44.032325" lon="12.1888017"><ele>110.66666666666666</ele><time>2026-04-25T09:36:49.011Z</time></trkpt><trkpt lat="44.032315" lon="12.18869"><ele>112.5</ele><time>2026-04-25T09:36:52.012Z</time></trkpt><trkpt lat="44.0322967" lon="12.18857"><ele>114.33333333333334</ele><time>2026-04-25T09:36:55.012Z</time></trkpt><trkpt lat="44.03228" lon="12.1884517"><ele>116.16666666666667</ele><time>2026-04-25T09:36:58.012Z</time></trkpt><trkpt lat="44.0322633" lon="12.1883367"><ele>118.0</ele><time>2026-04-25T09:37:01.012Z</time></trkpt><trkpt lat="44.0322433" lon="12.1882217"><ele>118.42857142857142</ele><time>2026-04-25T09:37:04.012Z</time></trkpt><trkpt lat="44.03223" lon="12.1881317"><ele>118.85714285714286</ele><time>2026-04-25T09:37:06.012Z</time></trkpt><trkpt lat="44.0322383" lon="12.1880417"><ele>119.28571428571428</ele><time>2026-04-25T09:37:08.012Z</time></trkpt><trkpt lat="44.0322683" lon="12.18795"><ele>119.71428571428571</ele><time>2026-04-25T09:37:10.011Z</time></trkpt><trkpt lat="44.03233" lon="12.187875"><ele>120.14285714285714</ele><time>2026-04-25T09:37:12.011Z</time></trkpt><trkpt lat="44.0324" lon="12.18783"><ele>120.57142857142857</ele><time>2026-04-25T09:37:14.011Z</time></trkpt><trkpt lat="44.0324767" lon="12.1877817"><ele>121.0</ele><time>2026-04-25T09:37:16.012Z</time></trkpt><trkpt lat="44.03256" lon="12.187745"><ele>119.83333333333334</ele><time>2026-04-25T09:37:18.011Z</time></trkpt><trkpt lat="44.032635" lon="12.1877083"><ele>118.66666666666667</ele><time>2026-04-25T09:37:20.012Z</time></trkpt><trkpt lat="44.0327117" lon="12.1876717"><ele>117.5</ele><time>2026-04-25T09:37:22.012Z</time></trkpt><trkpt lat="44.0327867" lon="12.1876317"><ele>116.33333333333334</ele><time>2026-04-25T09:37:24.011Z</time></trkpt><trkpt lat="44.0328667" lon="12.1875933"><ele>115.16666666666667</ele><time>2026-04-25T09:37:26.011Z</time></trkpt><trkpt lat="44.0329517" lon="12.18755"><ele>114.0</ele><time>2026-04-25T09:37:28.012Z</time></trkpt><trkpt lat="44.0330483" lon="12.18751"><ele>114.0</ele><time>2026-04-25T09:37:30.012Z</time></trkpt><trkpt lat="44.0331467" lon="12.1874633"><ele>114.0</ele><time>2026-04-25T09:37:32.012Z</time></trkpt><trkpt lat="44.0332417" lon="12.18742"><ele>114.0</ele><time>2026-04-25T09:37:34.012Z</time></trkpt><trkpt lat="44.0333333" lon="12.18738"><ele>114.0</ele><time>2026-04-25T09:37:36.012Z</time></trkpt><trkpt lat="44.0334233" lon="12.1873267"><ele>114.0</ele><time>2026-04-25T09:37:38.012Z</time></trkpt><trkpt lat="44.033515" lon="12.1872833"><ele>115.2</ele><time>2026-04-25T09:37:40.012Z</time></trkpt><trkpt lat="44.0336" lon="12.1872367"><ele>116.4</ele><time>2026-04-25T09:37:42.012Z</time></trkpt><trkpt lat="44.0336867" lon="12.1871983"><ele>117.6</ele><time>2026-04-25T09:37:44.012Z</time></trkpt><trkpt lat="44.0337733" lon="12.187165"><ele>118.8</ele><time>2026-04-25T09:37:46.011Z</time></trkpt><trkpt lat="44.0338633" lon="12.1871167"><ele>120.0</ele><time>2026-04-25T09:37:48.011Z</time></trkpt><trkpt lat="44.03395" lon="12.187065"><ele>120.0</ele><time>2026-04-25T09:37:50.012Z</time></trkpt><trkpt lat="44.034035" lon="12.1870083"><ele>120.0</ele><time>2026-04-25T09:37:52.012Z</time></trkpt><trkpt lat="44.0341267" lon="12.1869467"><ele>120.0</ele><time>2026-04-25T09:37:54.012Z</time></trkpt><trkpt lat="44.0342167" lon="12.1868733"><ele>120.0</ele><time>2026-04-25T09:37:56.011Z</time></trkpt><trkpt lat="44.0342983" lon="12.1868067"><ele>120.0</ele><time>2026-04-25T09:37:58.011Z</time></trkpt><trkpt lat="44.03437" lon="12.18674"><ele>120.5</ele><time>2026-04-25T09:38:00.011Z</time></trkpt><trkpt lat="44.0344333" lon="12.1866667"><ele>121.0</ele><time>2026-04-25T09:38:02.012Z</time></trkpt><trkpt lat="44.0344967" lon="12.18659"><ele>121.5</ele><time>2026-04-25T09:38:04.012Z</time></trkpt><trkpt lat="44.0345617" lon="12.1865117"><ele>122.0</ele><time>2026-04-25T09:38:06.012Z</time></trkpt><trkpt lat="44.0346167" lon="12.1864317"><ele>122.5</ele><time>2026-04-25T09:38:08.011Z</time></trkpt><trkpt lat="44.034665" lon="12.18634"><ele>123.0</ele><time>2026-04-25T09:38:10.012Z</time></trkpt><trkpt lat="44.034715" lon="12.18626"><ele>123.0</ele><time>2026-04-25T09:38:12.012Z</time></trkpt><trkpt lat="44.0347517" lon="12.1861683"><ele>123.0</ele><time>2026-04-25T09:38:14.012Z</time></trkpt><trkpt lat="44.03479" lon="12.186075"><ele>123.0</ele><time>2026-04-25T09:38:16.012Z</time></trkpt><trkpt lat="44.0348217" lon="12.18597"><ele>123.0</ele><time>2026-04-25T09:38:18.011Z</time></trkpt><trkpt lat="44.03485" lon="12.1858667"><ele>123.0</ele><time>2026-04-25T09:38:20.012Z</time></trkpt><trkpt lat="44.03487" lon="12.18576"><ele>123.0</ele><time>2026-04-25T09:38:22.012Z</time></trkpt><trkpt lat="44.0348767" lon="12.1856517"><ele>124.0</ele><time>2026-04-25T09:38:24.012Z</time></trkpt><trkpt lat="44.03487" lon="12.1855467"><ele>125.0</ele><time>2026-04-25T09:38:26.012Z</time></trkpt><trkpt lat="44.034865" lon="12.1854417"><ele>126.0</ele><time>2026-04-25T09:38:28.012Z</time></trkpt><trkpt lat="44.0348467" lon="12.1853367"><ele>127.0</ele><time>2026-04-25T09:38:30.011Z</time></trkpt><trkpt lat="44.0348233" lon="12.1852383"><ele>128.0</ele><time>2026-04-25T09:38:32.011Z</time></trkpt><trkpt lat="44.034795" lon="12.1851383"><ele>129.0</ele><time>2026-04-25T09:38:34.012Z</time></trkpt><trkpt lat="44.0347533" lon="12.1850433"><ele>129.0</ele><time>2026-04-25T09:38:36.012Z</time></trkpt><trkpt lat="44.034695" lon="12.1849517"><ele>129.0</ele><time>2026-04-25T09:38:38.012Z</time></trkpt><trkpt lat="44.0346467" lon="12.1848583"><ele>129.0</ele><time>2026-04-25T09:38:40.012Z</time></trkpt><trkpt lat="44.0345967" lon="12.1847633"><ele>129.0</ele><time>2026-04-25T09:38:42.011Z</time></trkpt><trkpt lat="44.0345467" lon="12.1846633"><ele>129.0</ele><time>2026-04-25T09:38:44.012Z</time></trkpt><trkpt lat="44.034495" lon="12.1845717"><ele>129.0</ele><time>2026-04-25T09:38:46.012Z</time></trkpt><trkpt lat="44.0344433" lon="12.18448"><ele>129.2</ele><time>2026-04-25T09:38:48.011Z</time></trkpt><trkpt lat="44.0343917" lon="12.1843883"><ele>129.4</ele><time>2026-04-25T09:38:50.011Z</time></trkpt><trkpt lat="44.034355" lon="12.18428"><ele>129.6</ele><time>2026-04-25T09:38:52.012Z</time></trkpt><trkpt lat="44.0343183" lon="12.1841583"><ele>129.8</ele><time>2026-04-25T09:38:54.011Z</time></trkpt><trkpt lat="44.0342833" lon="12.1840367"><ele>130.0</ele><time>2026-04-25T09:38:56.012Z</time></trkpt><trkpt lat="44.03425" lon="12.1839083"><ele>129.2</ele><time>2026-04-25T09:38:58.012Z</time></trkpt><trkpt lat="44.0342167" lon="12.1837867"><ele>128.4</ele><time>2026-04-25T09:39:00.011Z</time></trkpt><trkpt lat="44.0341833" lon="12.1836567"><ele>127.6</ele><time>2026-04-25T09:39:02.012Z</time></trkpt><trkpt lat="44.0341417" lon="12.1835133"><ele>126.8</ele><time>2026-04-25T09:39:04.012Z</time></trkpt><trkpt lat="44.0340967" lon="12.1833433"><ele>126.0</ele><time>2026-04-25T09:39:06.012Z</time></trkpt><trkpt lat="44.0340667" lon="12.1832533"><ele>126.83333333333333</ele><time>2026-04-25T09:39:07.012Z</time></trkpt><trkpt lat="44.0340467" lon="12.183155"><ele>127.66666666666666</ele><time>2026-04-25T09:39:08.011Z</time></trkpt><trkpt lat="44.034035" lon="12.1830517"><ele>128.5</ele><time>2026-04-25T09:39:09.012Z</time></trkpt><trkpt lat="44.034045" lon="12.182945"><ele>129.33333333333331</ele><time>2026-04-25T09:39:10.011Z</time></trkpt><trkpt lat="44.0340767" lon="12.18285"><ele>130.16666666666666</ele><time>2026-04-25T09:39:11.011Z</time></trkpt><trkpt lat="44.03413" lon="12.1827583"><ele>131.0</ele><time>2026-04-25T09:39:12.012Z</time></trkpt><trkpt lat="44.0341983" lon="12.1826917"><ele>131.0</ele><time>2026-04-25T09:39:13.012Z</time></trkpt><trkpt lat="44.0342683" lon="12.1826617"><ele>131.0</ele><time>2026-04-25T09:39:14.012Z</time></trkpt><trkpt lat="44.03434" lon="12.18265"><ele>131.0</ele><time>2026-04-25T09:39:15.011Z</time></trkpt><trkpt lat="44.0344067" lon="12.1826483"><ele>131.0</ele><time>2026-04-25T09:39:16.01Z</time></trkpt><trkpt lat="44.03452" lon="12.1826533"><ele>131.0</ele><time>2026-04-25T09:39:18.01Z</time></trkpt><trkpt lat="44.0346167" lon="12.1826633"><ele>131.0</ele><time>2026-04-25T09:39:20.01Z</time></trkpt><trkpt lat="44.0346983" lon="12.1826767"><ele>131.0</ele><time>2026-04-25T09:39:22.011Z</time></trkpt><trkpt lat="44.0347817" lon="12.1826917"><ele>131.0</ele><time>2026-04-25T09:39:24.011Z</time></trkpt><trkpt lat="44.0348633" lon="12.18269"><ele>131.0</ele><time>2026-04-25T09:39:26.01Z</time></trkpt><trkpt lat="44.03495" lon="12.1827033"><ele>131.0</ele><time>2026-04-25T09:39:28.01Z</time></trkpt><trkpt lat="44.0350367" lon="12.18273"><ele>131.0</ele><time>2026-04-25T09:39:30.01Z</time></trkpt><trkpt lat="44.03512" lon="12.1827433"><ele>131.0</ele><time>2026-04-25T09:39:32.011Z</time></trkpt><trkpt lat="44.0352083" lon="12.1827567"><ele>131.0</ele><time>2026-04-25T09:39:34.011Z</time></trkpt><trkpt lat="44.0353" lon="12.1827533"><ele>131.0</ele><time>2026-04-25T09:39:36.011Z</time></trkpt><trkpt lat="44.035395" lon="12.182745"><ele>131.0</ele><time>2026-04-25T09:39:38.01Z</time></trkpt><trkpt lat="44.0355067" lon="12.18274"><ele>131.0</ele><time>2026-04-25T09:39:40.011Z</time></trkpt><trkpt lat="44.0356133" lon="12.1827233"><ele>131.0</ele><time>2026-04-25T09:39:42.01Z</time></trkpt><trkpt lat="44.0357133" lon="12.1827017"><ele>131.0</ele><time>2026-04-25T09:39:44.011Z</time></trkpt><trkpt lat="44.035805" lon="12.1826683"><ele>131.0</ele><time>2026-04-25T09:39:46.011Z</time></trkpt><trkpt lat="44.0359083" lon="12.1826567"><ele>131.0</ele><time>2026-04-25T09:39:48.011Z</time></trkpt><trkpt lat="44.0360117" lon="12.182655"><ele>131.0</ele><time>2026-04-25T09:39:50.011Z</time></trkpt><trkpt lat="44.0361067" lon="12.1826483"><ele>131.0</ele><time>2026-04-25T09:39:52.01Z</time></trkpt><trkpt lat="44.0362067" lon="12.1826433"><ele>131.0</ele><time>2026-04-25T09:39:54.011Z</time></trkpt><trkpt lat="44.036305" lon="12.1826567"><ele>131.0</ele><time>2026-04-25T09:39:56.01Z</time></trkpt><trkpt lat="44.0364083" lon="12.182665"><ele>131.0</ele><time>2026-04-25T09:39:58.011Z</time></trkpt><trkpt lat="44.036475" lon="12.18266"><ele>131.0</ele><time>2026-04-25T09:39:59.011Z</time></trkpt><trkpt lat="44.0365433" lon="12.18266"><ele>131.0</ele><time>2026-04-25T09:40:00.01Z</time></trkpt><trkpt lat="44.0366133" lon="12.1826533"><ele>131.0</ele><time>2026-04-25T09:40:01.011Z</time></trkpt><trkpt lat="44.036685" lon="12.1826567"><ele>130.5</ele><time>2026-04-25T09:40:02.011Z</time></trkpt><trkpt lat="44.036755" lon="12.1826583"><ele>130.0</ele><time>2026-04-25T09:40:03.011Z</time></trkpt><trkpt lat="44.03683" lon="12.1826683"><ele>129.5</ele><time>2026-04-25T09:40:04.011Z</time></trkpt><trkpt lat="44.0369083" lon="12.1826733"><ele>129.0</ele><time>2026-04-25T09:40:05.011Z</time></trkpt><trkpt lat="44.0369883" lon="12.1826783"><ele>128.5</ele><time>2026-04-25T09:40:06.011Z</time></trkpt><trkpt lat="44.03707" lon="12.1826817"><ele>128.0</ele><time>2026-04-25T09:40:07.011Z</time></trkpt><trkpt lat="44.0371583" lon="12.18268"><ele>128.0</ele><time>2026-04-25T09:40:08.011Z</time></trkpt><trkpt lat="44.037245" lon="12.1826633"><ele>128.0</ele><time>2026-04-25T09:40:09.011Z</time></trkpt><trkpt lat="44.03734" lon="12.1826533"><ele>128.0</ele><time>2026-04-25T09:40:10.01Z</time></trkpt><trkpt lat="44.037445" lon="12.1826433"><ele>128.0</ele><time>2026-04-25T09:40:11.01Z</time></trkpt><trkpt lat="44.0375483" lon="12.18263"><ele>128.0</ele><time>2026-04-25T09:40:12.011Z</time></trkpt><trkpt lat="44.03765" lon="12.1826167"><ele>126.0</ele><time>2026-04-25T09:40:13.01Z</time></trkpt><trkpt lat="44.0377567" lon="12.1826133"><ele>124.0</ele><time>2026-04-25T09:40:14.011Z</time></trkpt><trkpt lat="44.0378767" lon="12.1825983"><ele>122.0</ele><time>2026-04-25T09:40:15.011Z</time></trkpt><trkpt lat="44.0379917" lon="12.1825783"><ele>120.0</ele><time>2026-04-25T09:40:16.011Z</time></trkpt><trkpt lat="44.0381067" lon="12.182565"><ele>120.0</ele><time>2026-04-25T09:40:17.011Z</time></trkpt><trkpt lat="44.0382233" lon="12.18255"><ele>120.0</ele><time>2026-04-25T09:40:18.011Z</time></trkpt><trkpt lat="44.0383433" lon="12.1825433"><ele>120.0</ele><time>2026-04-25T09:40:19.011Z</time></trkpt><trkpt lat="44.0384567" lon="12.1825317"><ele>120.0</ele><time>2026-04-25T09:40:20.011Z</time></trkpt><trkpt lat="44.0385633" lon="12.1825183"><ele>118.2</ele><time>2026-04-25T09:40:21.011Z</time></trkpt><trkpt lat="44.0386717" lon="12.1825033"><ele>116.4</ele><time>2026-04-25T09:40:22.011Z</time></trkpt><trkpt lat="44.0387767" lon="12.1824833"><ele>114.6</ele><time>2026-04-25T09:40:23.011Z</time></trkpt><trkpt lat="44.0388867" lon="12.1824717"><ele>112.8</ele><time>2026-04-25T09:40:24.011Z</time></trkpt><trkpt lat="44.038995" lon="12.1824567"><ele>111.0</ele><time>2026-04-25T09:40:25.011Z</time></trkpt><trkpt lat="44.0391" lon="12.1824467"><ele>110.8</ele><time>2026-04-25T09:40:26.01Z</time></trkpt><trkpt lat="44.0392033" lon="12.1824267"><ele>110.6</ele><time>2026-04-25T09:40:27.01Z</time></trkpt><trkpt lat="44.0393067" lon="12.1824067"><ele>110.4</ele><time>2026-04-25T09:40:28.01Z</time></trkpt><trkpt lat="44.0394117" lon="12.1823967"><ele>110.2</ele><time>2026-04-25T09:40:29.01Z</time></trkpt><trkpt lat="44.039515" lon="12.1823883"><ele>110.0</ele><time>2026-04-25T09:40:30.011Z</time></trkpt><trkpt lat="44.0396167" lon="12.1823667"><ele>110.0</ele><time>2026-04-25T09:40:31.011Z</time></trkpt><trkpt lat="44.0397183" lon="12.18236"><ele>110.0</ele><time>2026-04-25T09:40:32.011Z</time></trkpt><trkpt lat="44.0398083" lon="12.1823617"><ele>110.0</ele><time>2026-04-25T09:40:33.01Z</time></trkpt><trkpt lat="44.039905" lon="12.182355"><ele>110.0</ele><time>2026-04-25T09:40:34.01Z</time></trkpt><trkpt lat="44.039995" lon="12.1823383"><ele>110.0</ele><time>2026-04-25T09:40:35.011Z</time></trkpt><trkpt lat="44.04008" lon="12.1823267"><ele>110.16666666666666</ele><time>2026-04-25T09:40:36.011Z</time></trkpt><trkpt lat="44.040165" lon="12.1823167"><ele>110.33333333333333</ele><time>2026-04-25T09:40:37.011Z</time></trkpt><trkpt lat="44.0402533" lon="12.18231"><ele>110.5</ele><time>2026-04-25T09:40:38.011Z</time></trkpt><trkpt lat="44.0403417" lon="12.1823117"><ele>110.66666666666666</ele><time>2026-04-25T09:40:39.011Z</time></trkpt><trkpt lat="44.0404267" lon="12.1822917"><ele>110.83333333333333</ele><time>2026-04-25T09:40:40.011Z</time></trkpt><trkpt lat="44.0405067" lon="12.1822667"><ele>111.0</ele><time>2026-04-25T09:40:41.011Z</time></trkpt><trkpt lat="44.0405867" lon="12.1822417"><ele>111.0</ele><time>2026-04-25T09:40:42.011Z</time></trkpt><trkpt lat="44.040665" lon="12.1822067"><ele>111.0</ele><time>2026-04-25T09:40:43.01Z</time></trkpt><trkpt lat="44.0407433" lon="12.182165"><ele>111.0</ele><time>2026-04-25T09:40:44.011Z</time></trkpt><trkpt lat="44.040815" lon="12.182115"><ele>111.0</ele><time>2026-04-25T09:40:45.011Z</time></trkpt><trkpt lat="44.0408783" lon="12.1820617"><ele>111.0</ele><time>2026-04-25T09:40:46.011Z</time></trkpt><trkpt lat="44.0409417" lon="12.1820033"><ele>111.0</ele><time>2026-04-25T09:40:47.01Z</time></trkpt><trkpt lat="44.0410067" lon="12.181945"><ele>110.5</ele><time>2026-04-25T09:40:48.01Z</time></trkpt><trkpt lat="44.0410683" lon="12.1818867"><ele>110.0</ele><time>2026-04-25T09:40:49.01Z</time></trkpt><trkpt lat="44.0411267" lon="12.1818333"><ele>109.5</ele><time>2026-04-25T09:40:50.01Z</time></trkpt><trkpt lat="44.0411883" lon="12.18178"><ele>109.0</ele><time>2026-04-25T09:40:51.011Z</time></trkpt><trkpt lat="44.0412567" lon="12.1817267"><ele>108.5</ele><time>2026-04-25T09:40:52.011Z</time></trkpt><trkpt lat="44.0413233" lon="12.1816667"><ele>108.0</ele><time>2026-04-25T09:40:53.01Z</time></trkpt><trkpt lat="44.0413933" lon="12.181605"><ele>108.0</ele><time>2026-04-25T09:40:54.011Z</time></trkpt><trkpt lat="44.0414617" lon="12.1815433"><ele>108.0</ele><time>2026-04-25T09:40:55.011Z</time></trkpt><trkpt lat="44.041535" lon="12.1814867"><ele>108.0</ele><time>2026-04-25T09:40:56.011Z</time></trkpt><trkpt lat="44.0416117" lon="12.1814233"><ele>108.0</ele><time>2026-04-25T09:40:57.01Z</time></trkpt><trkpt lat="44.04168" lon="12.1813483"><ele>108.0</ele><time>2026-04-25T09:40:58.011Z</time></trkpt><trkpt lat="44.041755" lon="12.1812783"><ele>108.0</ele><time>2026-04-25T09:40:59.01Z</time></trkpt><trkpt lat="44.041825" lon="12.1812183"><ele>107.66666666666667</ele><time>2026-04-25T09:41:00.01Z</time></trkpt><trkpt lat="44.0419" lon="12.1811683"><ele>107.33333333333334</ele><time>2026-04-25T09:41:01.011Z</time></trkpt><trkpt lat="44.0419733" lon="12.1811283"><ele>107.0</ele><time>2026-04-25T09:41:02.011Z</time></trkpt><trkpt lat="44.0420467" lon="12.1810967"><ele>106.66666666666667</ele><time>2026-04-25T09:41:03.011Z</time></trkpt><trkpt lat="44.0421167" lon="12.1810783"><ele>106.33333333333334</ele><time>2026-04-25T09:41:04.011Z</time></trkpt><trkpt lat="44.0421917" lon="12.1810617"><ele>106.0</ele><time>2026-04-25T09:41:05.011Z</time></trkpt><trkpt lat="44.0422633" lon="12.181065"><ele>106.0</ele><time>2026-04-25T09:41:06.011Z</time></trkpt><trkpt lat="44.0423283" lon="12.1810483"><ele>106.0</ele><time>2026-04-25T09:41:07.011Z</time></trkpt><trkpt lat="44.04239" lon="12.1810233"><ele>106.0</ele><time>2026-04-25T09:41:08.011Z</time></trkpt><trkpt lat="44.0424583" lon="12.1810083"><ele>106.0</ele><time>2026-04-25T09:41:09.01Z</time></trkpt><trkpt lat="44.0425267" lon="12.180995"><ele>106.0</ele><time>2026-04-25T09:41:10.01Z</time></trkpt><trkpt lat="44.0425983" lon="12.1809817"><ele>106.0</ele><time>2026-04-25T09:41:11.011Z</time></trkpt><trkpt lat="44.0426683" lon="12.1809683"><ele>106.0</ele><time>2026-04-25T09:41:12.01Z</time></trkpt><trkpt lat="44.042735" lon="12.180955"><ele>105.33333333333334</ele><time>2026-04-25T09:41:13.011Z</time></trkpt><trkpt lat="44.0428017" lon="12.1809417"><ele>104.66666666666667</ele><time>2026-04-25T09:41:14.011Z</time></trkpt><trkpt lat="44.042865" lon="12.1809267"><ele>104.0</ele><time>2026-04-25T09:41:15.01Z</time></trkpt><trkpt lat="44.0429917" lon="12.1808983"><ele>103.33333333333334</ele><time>2026-04-25T09:41:17.01Z</time></trkpt><trkpt lat="44.0430583" lon="12.1808817"><ele>102.66666666666667</ele><time>2026-04-25T09:41:18.01Z</time></trkpt><trkpt lat="44.0431217" lon="12.1808733"><ele>102.0</ele><time>2026-04-25T09:41:19.01Z</time></trkpt><trkpt lat="44.0431883" lon="12.1808783"><ele>101.75</ele><time>2026-04-25T09:41:20.01Z</time></trkpt><trkpt lat="44.0433067" lon="12.180885"><ele>101.5</ele><time>2026-04-25T09:41:22.011Z</time></trkpt><trkpt lat="44.0434167" lon="12.1808933"><ele>101.25</ele><time>2026-04-25T09:41:24.011Z</time></trkpt><trkpt lat="44.0435283" lon="12.180895"><ele>101.0</ele><time>2026-04-25T09:41:26.011Z</time></trkpt><trkpt lat="44.0436467" lon="12.1808967"><ele>101.0</ele><time>2026-04-25T09:41:28.011Z</time></trkpt><trkpt lat="44.04371" lon="12.1808933"><ele>101.0</ele><time>2026-04-25T09:41:29.01Z</time></trkpt><trkpt lat="44.0438317" lon="12.180885"><ele>101.0</ele><time>2026-04-25T09:41:31.011Z</time></trkpt><trkpt lat="44.0438967" lon="12.180875"><ele>101.0</ele><time>2026-04-25T09:41:32.011Z</time></trkpt><trkpt lat="44.0439617" lon="12.18088"><ele>101.0</ele><time>2026-04-25T09:41:33.01Z</time></trkpt><trkpt lat="44.044025" lon="12.180875"><ele>101.0</ele><time>2026-04-25T09:41:34.01Z</time></trkpt><trkpt lat="44.0440917" lon="12.1808567"><ele>101.0</ele><time>2026-04-25T09:41:35.011Z</time></trkpt><trkpt lat="44.04416" lon="12.1808367"><ele>101.19999999999999</ele><time>2026-04-25T09:41:36.011Z</time></trkpt><trkpt lat="44.0442267" lon="12.1808183"><ele>101.39999999999999</ele><time>2026-04-25T09:41:37.01Z</time></trkpt><trkpt lat="44.04429" lon="12.1807983"><ele>101.6</ele><time>2026-04-25T09:41:38.01Z</time></trkpt><trkpt lat="44.0444117" lon="12.1807517"><ele>101.8</ele><time>2026-04-25T09:41:40.01Z</time></trkpt><trkpt lat="44.0445267" lon="12.1806933"><ele>102.0</ele><time>2026-04-25T09:41:42.011Z</time></trkpt><trkpt lat="44.0446383" lon="12.1806133"><ele>102.39999999999999</ele><time>2026-04-25T09:41:44.01Z</time></trkpt><trkpt lat="44.0447017" lon="12.180585"><ele>102.8</ele><time>2026-04-25T09:41:45.011Z</time></trkpt><trkpt lat="44.04482" lon="12.1805267"><ele>103.2</ele><time>2026-04-25T09:41:47.011Z</time></trkpt><trkpt lat="44.0449333" lon="12.1804617"><ele>103.6</ele><time>2026-04-25T09:41:49.011Z</time></trkpt><trkpt lat="44.045045" lon="12.1804117"><ele>104.0</ele><time>2026-04-25T09:41:51.01Z</time></trkpt><trkpt lat="44.0451583" lon="12.1803533"><ele>104.0</ele><time>2026-04-25T09:41:53.01Z</time></trkpt><trkpt lat="44.0452683" lon="12.1803"><ele>104.0</ele><time>2026-04-25T09:41:55.01Z</time></trkpt><trkpt lat="44.0453817" lon="12.1802667"><ele>104.0</ele><time>2026-04-25T09:41:57.011Z</time></trkpt><trkpt lat="44.0454417" lon="12.18024"><ele>104.0</ele><time>2026-04-25T09:41:58.011Z</time></trkpt><trkpt lat="44.0455583" lon="12.1801817"><ele>104.0</ele><time>2026-04-25T09:42:00.011Z</time></trkpt><trkpt lat="44.0456717" lon="12.180135"><ele>104.0</ele><time>2026-04-25T09:42:02.011Z</time></trkpt><trkpt lat="44.045785" lon="12.180075"><ele>104.0</ele><time>2026-04-25T09:42:04.011Z</time></trkpt><trkpt lat="44.0458983" lon="12.1800317"><ele>104.0</ele><time>2026-04-25T09:42:06.011Z</time></trkpt><trkpt lat="44.0460167" lon="12.179985"><ele>104.0</ele><time>2026-04-25T09:42:08.01Z</time></trkpt><trkpt lat="44.0460783" lon="12.17996"><ele>104.0</ele><time>2026-04-25T09:42:09.01Z</time></trkpt><trkpt lat="44.04614" lon="12.179935"><ele>104.28571428571428</ele><time>2026-04-25T09:42:10.01Z</time></trkpt><trkpt lat="44.0462017" lon="12.17991"><ele>104.57142857142858</ele><time>2026-04-25T09:42:11.01Z</time></trkpt><trkpt lat="44.0462617" lon="12.1798833"><ele>104.85714285714286</ele><time>2026-04-25T09:42:12.011Z</time></trkpt><trkpt lat="44.0463233" lon="12.1798533"><ele>105.14285714285714</ele><time>2026-04-25T09:42:13.01Z</time></trkpt><trkpt lat="44.0463867" lon="12.1798267"><ele>105.42857142857142</ele><time>2026-04-25T09:42:14.011Z</time></trkpt><trkpt lat="44.0464483" lon="12.1798"><ele>105.71428571428572</ele><time>2026-04-25T09:42:15.01Z</time></trkpt><trkpt lat="44.0465633" lon="12.1797317"><ele>106.0</ele><time>2026-04-25T09:42:17.011Z</time></trkpt><trkpt lat="44.0466233" lon="12.17969"><ele>104.83333333333334</ele><time>2026-04-25T09:42:18.01Z</time></trkpt><trkpt lat="44.0466783" lon="12.179635"><ele>103.66666666666667</ele><time>2026-04-25T09:42:19.011Z</time></trkpt><trkpt lat="44.04673" lon="12.17956"><ele>102.5</ele><time>2026-04-25T09:42:20.01Z</time></trkpt><trkpt lat="44.046775" lon="12.1794717"><ele>101.33333333333334</ele><time>2026-04-25T09:42:21.011Z</time></trkpt><trkpt lat="44.0468133" lon="12.17937"><ele>100.16666666666667</ele><time>2026-04-25T09:42:22.01Z</time></trkpt><trkpt lat="44.0468433" lon="12.1792683"><ele>99.0</ele><time>2026-04-25T09:42:23.01Z</time></trkpt><trkpt lat="44.0468633" lon="12.1791567"><ele>99.0</ele><time>2026-04-25T09:42:24.011Z</time></trkpt><trkpt lat="44.0468733" lon="12.1790417"><ele>99.0</ele><time>2026-04-25T09:42:25.011Z</time></trkpt><trkpt lat="44.0468683" lon="12.178915"><ele>99.0</ele><time>2026-04-25T09:42:26.011Z</time></trkpt><trkpt lat="44.04686" lon="12.1787867"><ele>99.0</ele><time>2026-04-25T09:42:27.011Z</time></trkpt><trkpt lat="44.0468583" lon="12.1786633"><ele>99.0</ele><time>2026-04-25T09:42:28.01Z</time></trkpt><trkpt lat="44.04686" lon="12.17856"><ele>99.0</ele><time>2026-04-25T09:42:29.011Z</time></trkpt><trkpt lat="44.0469167" lon="12.178415"><ele>99.33333333333333</ele><time>2026-04-25T09:42:31.011Z</time></trkpt><trkpt lat="44.04702" lon="12.1784267"><ele>99.66666666666666</ele><time>2026-04-25T09:42:33.011Z</time></trkpt><trkpt lat="44.0470667" lon="12.1785067"><ele>100.0</ele><time>2026-04-25T09:42:34.01Z</time></trkpt><trkpt lat="44.0471033" lon="12.1785967"><ele>100.33333333333333</ele><time>2026-04-25T09:42:35.011Z</time></trkpt><trkpt lat="44.047145" lon="12.1786867"><ele>100.66666666666666</ele><time>2026-04-25T09:42:36.011Z</time></trkpt><trkpt lat="44.047195" lon="12.178775"><ele>101.0</ele><time>2026-04-25T09:42:37.011Z</time></trkpt><trkpt lat="44.047255" lon="12.1788567"><ele>101.0</ele><time>2026-04-25T09:42:38.011Z</time></trkpt><trkpt lat="44.04733" lon="12.1789217"><ele>101.0</ele><time>2026-04-25T09:42:39.011Z</time></trkpt><trkpt lat="44.0474267" lon="12.178955"><ele>101.0</ele><time>2026-04-25T09:42:40.01Z</time></trkpt><trkpt lat="44.0475217" lon="12.1789583"><ele>101.0</ele><time>2026-04-25T09:42:41.011Z</time></trkpt><trkpt lat="44.047625" lon="12.178945"><ele>101.0</ele><time>2026-04-25T09:42:42.011Z</time></trkpt><trkpt lat="44.0477333" lon="12.1789117"><ele>97.6</ele><time>2026-04-25T09:42:43.011Z</time></trkpt><trkpt lat="44.047835" lon="12.178865"><ele>94.19999999999999</ele><time>2026-04-25T09:42:44.011Z</time></trkpt><trkpt lat="44.0479267" lon="12.1788083"><ele>90.80000000000001</ele><time>2026-04-25T09:42:45.011Z</time></trkpt><trkpt lat="44.0480167" lon="12.1787583"><ele>87.4</ele><time>2026-04-25T09:42:46.011Z</time></trkpt><trkpt lat="44.0480933" lon="12.17871"><ele>84.0</ele><time>2026-04-25T09:42:47.01Z</time></trkpt><trkpt lat="44.0481617" lon="12.178665"><ele>84.0</ele><time>2026-04-25T09:42:48.011Z</time></trkpt><trkpt lat="44.0482283" lon="12.1786183"><ele>84.0</ele><time>2026-04-25T09:42:49.011Z</time></trkpt><trkpt lat="44.0483" lon="12.1785733"><ele>84.0</ele><time>2026-04-25T09:42:50.01Z</time></trkpt><trkpt lat="44.0483717" lon="12.178545"><ele>84.0</ele><time>2026-04-25T09:42:51.011Z</time></trkpt><trkpt lat="44.0484467" lon="12.1785167"><ele>84.0</ele><time>2026-04-25T09:42:52.01Z</time></trkpt><trkpt lat="44.0485133" lon="12.1784817"><ele>84.0</ele><time>2026-04-25T09:42:53.011Z</time></trkpt><trkpt lat="44.0485833" lon="12.17845"><ele>83.33333333333333</ele><time>2026-04-25T09:42:54.01Z</time></trkpt><trkpt lat="44.048655" lon="12.1784117"><ele>82.66666666666667</ele><time>2026-04-25T09:42:55.01Z</time></trkpt><trkpt lat="44.0487283" lon="12.178365"><ele>82.0</ele><time>2026-04-25T09:42:56.011Z</time></trkpt><trkpt lat="44.0487983" lon="12.17832"><ele>81.33333333333334</ele><time>2026-04-25T09:42:57.01Z</time></trkpt><trkpt lat="44.0488667" lon="12.1782817"><ele>80.66666666666667</ele><time>2026-04-25T09:42:58.011Z</time></trkpt><trkpt lat="44.0489383" lon="12.1782417"><ele>80.0</ele><time>2026-04-25T09:42:59.011Z</time></trkpt><trkpt lat="44.049005" lon="12.17821"><ele>80.0</ele><time>2026-04-25T09:43:00.011Z</time></trkpt><trkpt lat="44.0490733" lon="12.17818"><ele>80.0</ele><time>2026-04-25T09:43:01.009Z</time></trkpt><trkpt lat="44.0491467" lon="12.17815"><ele>80.0</ele><time>2026-04-25T09:43:02.01Z</time></trkpt><trkpt lat="44.049215" lon="12.1781233"><ele>80.0</ele><time>2026-04-25T09:43:03.009Z</time></trkpt><trkpt lat="44.0492833" lon="12.1780983"><ele>80.0</ele><time>2026-04-25T09:43:04.01Z</time></trkpt><trkpt lat="44.0493517" lon="12.1780683"><ele>80.0</ele><time>2026-04-25T09:43:05.01Z</time></trkpt><trkpt lat="44.049415" lon="12.1780267"><ele>80.0</ele><time>2026-04-25T09:43:06.01Z</time></trkpt><trkpt lat="44.049485" lon="12.1779967"><ele>79.28571428571428</ele><time>2026-04-25T09:43:07.01Z</time></trkpt><trkpt lat="44.0495467" lon="12.1779667"><ele>78.57142857142857</ele><time>2026-04-25T09:43:08.009Z</time></trkpt><trkpt lat="44.049615" lon="12.1779383"><ele>77.85714285714286</ele><time>2026-04-25T09:43:09.01Z</time></trkpt><trkpt lat="44.049685" lon="12.1779067"><ele>77.14285714285714</ele><time>2026-04-25T09:43:10.01Z</time></trkpt><trkpt lat="44.049755" lon="12.1778683"><ele>76.42857142857143</ele><time>2026-04-25T09:43:11.009Z</time></trkpt><trkpt lat="44.0498267" lon="12.1778333"><ele>75.71428571428571</ele><time>2026-04-25T09:43:12.01Z</time></trkpt><trkpt lat="44.0498883" lon="12.177805"><ele>75.0</ele><time>2026-04-25T09:43:13.01Z</time></trkpt><trkpt lat="44.049955" lon="12.1777667"><ele>74.83333333333333</ele><time>2026-04-25T09:43:14.01Z</time></trkpt><trkpt lat="44.0500233" lon="12.17773"><ele>74.66666666666667</ele><time>2026-04-25T09:43:15.01Z</time></trkpt><trkpt lat="44.0500967" lon="12.1777"><ele>74.5</ele><time>2026-04-25T09:43:16.009Z</time></trkpt><trkpt lat="44.0501683" lon="12.1776683"><ele>74.33333333333334</ele><time>2026-04-25T09:43:17.01Z</time></trkpt><trkpt lat="44.050245" lon="12.1776283"><ele>74.16666666666667</ele><time>2026-04-25T09:43:18.01Z</time></trkpt><trkpt lat="44.0503217" lon="12.1775933"><ele>74.0</ele><time>2026-04-25T09:43:19.01Z</time></trkpt><trkpt lat="44.050385" lon="12.177555"><ele>74.0</ele><time>2026-04-25T09:43:20.01Z</time></trkpt><trkpt lat="44.050455" lon="12.1775283"><ele>74.0</ele><time>2026-04-25T09:43:21.01Z</time></trkpt><trkpt lat="44.0505183" lon="12.1775067"><ele>74.0</ele><time>2026-04-25T09:43:22.01Z</time></trkpt><trkpt lat="44.0505983" lon="12.1774983"><ele>74.0</ele><time>2026-04-25T09:43:24.01Z</time></trkpt><trkpt lat="44.0506733" lon="12.177485"><ele>74.0</ele><time>2026-04-25T09:43:26.009Z</time></trkpt><trkpt lat="44.0507283" lon="12.17742"><ele>74.0</ele><time>2026-04-25T09:43:28.01Z</time></trkpt><trkpt lat="44.050775" lon="12.1773083"><ele>73.0</ele><time>2026-04-25T09:43:30.01Z</time></trkpt><trkpt lat="44.050815" lon="12.1771683"><ele>72.0</ele><time>2026-04-25T09:43:32.01Z</time></trkpt><trkpt lat="44.050865" lon="12.1770217"><ele>71.0</ele><time>2026-04-25T09:43:34.009Z</time></trkpt><trkpt lat="44.0509183" lon="12.1768633"><ele>70.0</ele><time>2026-04-25T09:43:36.01Z</time></trkpt><trkpt lat="44.0509667" lon="12.1767183"><ele>70.0</ele><time>2026-04-25T09:43:38.01Z</time></trkpt><trkpt lat="44.0510183" lon="12.1765717"><ele>70.0</ele><time>2026-04-25T09:43:40.009Z</time></trkpt><trkpt lat="44.0510817" lon="12.1764283"><ele>70.0</ele><time>2026-04-25T09:43:42.01Z</time></trkpt><trkpt lat="44.0511217" lon="12.1763567"><ele>70.0</ele><time>2026-04-25T09:43:43.01Z</time></trkpt><trkpt lat="44.0511983" lon="12.1762183"><ele>70.0</ele><time>2026-04-25T09:43:45.01Z</time></trkpt><trkpt lat="44.0512833" lon="12.1760983"><ele>70.2</ele><time>2026-04-25T09:43:47.01Z</time></trkpt><trkpt lat="44.0513317" lon="12.176035"><ele>70.4</ele><time>2026-04-25T09:43:48.009Z</time></trkpt><trkpt lat="44.0514383" lon="12.1759417"><ele>70.6</ele><time>2026-04-25T09:43:50.01Z</time></trkpt><trkpt lat="44.0514983" lon="12.175905"><ele>70.8</ele><time>2026-04-25T09:43:51.01Z</time></trkpt><trkpt lat="44.0516183" lon="12.1758867"><ele>71.0</ele><time>2026-04-25T09:43:53.01Z</time></trkpt><trkpt lat="44.05173" lon="12.1759083"><ele>71.2</ele><time>2026-04-25T09:43:55.009Z</time></trkpt><trkpt lat="44.05185" lon="12.1759783"><ele>71.39999999999999</ele><time>2026-04-25T09:43:57.01Z</time></trkpt><trkpt lat="44.051925" lon="12.1760817"><ele>71.6</ele><time>2026-04-25T09:43:59.009Z</time></trkpt><trkpt lat="44.05199" lon="12.176195"><ele>71.8</ele><time>2026-04-25T09:44:01.01Z</time></trkpt><trkpt lat="44.0520667" lon="12.1763017"><ele>72.0</ele><time>2026-04-25T09:44:03.01Z</time></trkpt><trkpt lat="44.052135" lon="12.17641"><ele>72.0</ele><time>2026-04-25T09:44:05.009Z</time></trkpt><trkpt lat="44.0521967" lon="12.1765233"><ele>72.0</ele><time>2026-04-25T09:44:07.01Z</time></trkpt><trkpt lat="44.0522633" lon="12.1766267"><ele>72.0</ele><time>2026-04-25T09:44:09.009Z</time></trkpt><trkpt lat="44.0523283" lon="12.176745"><ele>72.0</ele><time>2026-04-25T09:44:11.009Z</time></trkpt><trkpt lat="44.0524" lon="12.176865"><ele>72.0</ele><time>2026-04-25T09:44:13.009Z</time></trkpt><trkpt lat="44.0524867" lon="12.1769883"><ele>72.0</ele><time>2026-04-25T09:44:15.009Z</time></trkpt><trkpt lat="44.0525283" lon="12.177055"><ele>72.0</ele><time>2026-04-25T09:44:16.01Z</time></trkpt><trkpt lat="44.0525967" lon="12.1771833"><ele>72.0</ele><time>2026-04-25T09:44:18.01Z</time></trkpt><trkpt lat="44.0526617" lon="12.1773133"><ele>72.0</ele><time>2026-04-25T09:44:20.009Z</time></trkpt><trkpt lat="44.0527267" lon="12.17743"><ele>72.0</ele><time>2026-04-25T09:44:22.01Z</time></trkpt><trkpt lat="44.0527967" lon="12.17753"><ele>71.8</ele><time>2026-04-25T09:44:24.01Z</time></trkpt><trkpt lat="44.0528733" lon="12.177615"><ele>71.6</ele><time>2026-04-25T09:44:26.009Z</time></trkpt><trkpt lat="44.052955" lon="12.1776867"><ele>71.39999999999999</ele><time>2026-04-25T09:44:28.01Z</time></trkpt><trkpt lat="44.0530417" lon="12.1777533"><ele>71.2</ele><time>2026-04-25T09:44:30.01Z</time></trkpt><trkpt lat="44.0531217" lon="12.1778383"><ele>71.0</ele><time>2026-04-25T09:44:32.01Z</time></trkpt><trkpt lat="44.0532017" lon="12.1779067"><ele>71.0</ele><time>2026-04-25T09:44:34.009Z</time></trkpt><trkpt lat="44.0532833" lon="12.1779817"><ele>71.0</ele><time>2026-04-25T09:44:36.01Z</time></trkpt><trkpt lat="44.0533633" lon="12.1780617"><ele>71.0</ele><time>2026-04-25T09:44:38.009Z</time></trkpt><trkpt lat="44.0534033" lon="12.1781883"><ele>71.0</ele><time>2026-04-25T09:44:41.01Z</time></trkpt><trkpt lat="44.0534" lon="12.17828"><ele>71.0</ele><time>2026-04-25T09:44:43.009Z</time></trkpt><trkpt lat="44.0533867" lon="12.1783767"><ele>71.0</ele><time>2026-04-25T09:44:46.01Z</time></trkpt><trkpt lat="44.053495" lon="12.178355"><ele>71.5</ele><time>2026-04-25T09:45:54.01Z</time></trkpt><trkpt lat="44.0535817" lon="12.1783367"><ele>72.0</ele><time>2026-04-25T09:45:57.01Z</time></trkpt><trkpt lat="44.0536533" lon="12.1783433"><ele>72.5</ele><time>2026-04-25T09:45:59.01Z</time></trkpt><trkpt lat="44.0537267" lon="12.178355"><ele>73.0</ele><time>2026-04-25T09:46:01.01Z</time></trkpt><trkpt lat="44.0538033" lon="12.1784033"><ele>73.5</ele><time>2026-04-25T09:46:03.009Z</time></trkpt><trkpt lat="44.0538767" lon="12.17847"><ele>74.0</ele><time>2026-04-25T09:46:05.009Z</time></trkpt><trkpt lat="44.0539533" lon="12.17853"><ele>74.0</ele><time>2026-04-25T09:46:07.009Z</time></trkpt><trkpt lat="44.0540367" lon="12.1785917"><ele>74.0</ele><time>2026-04-25T09:46:09.009Z</time></trkpt><trkpt lat="44.0541233" lon="12.1786533"><ele>74.0</ele><time>2026-04-25T09:46:11.01Z</time></trkpt><trkpt lat="44.0542067" lon="12.17873"><ele>74.0</ele><time>2026-04-25T09:46:13.01Z</time></trkpt><trkpt lat="44.054295" lon="12.1788083"><ele>74.0</ele><time>2026-04-25T09:46:15.01Z</time></trkpt><trkpt lat="44.0543817" lon="12.1788933"><ele>74.0</ele><time>2026-04-25T09:46:17.01Z</time></trkpt><trkpt lat="44.0544667" lon="12.1789683"><ele>74.0</ele><time>2026-04-25T09:46:19.01Z</time></trkpt><trkpt lat="44.0545533" lon="12.1790283"><ele>74.0</ele><time>2026-04-25T09:46:21.01Z</time></trkpt><trkpt lat="44.054625" lon="12.1790933"><ele>74.0</ele><time>2026-04-25T09:46:23.01Z</time></trkpt><trkpt lat="44.0547033" lon="12.1791633"><ele>74.0</ele><time>2026-04-25T09:46:25.01Z</time></trkpt><trkpt lat="44.0547833" lon="12.1792317"><ele>74.0</ele><time>2026-04-25T09:46:27.009Z</time></trkpt><trkpt lat="44.05486" lon="12.1793083"><ele>74.0</ele><time>2026-04-25T09:46:29.009Z</time></trkpt><trkpt lat="44.054935" lon="12.1793717"><ele>74.0</ele><time>2026-04-25T09:46:31.01Z</time></trkpt><trkpt lat="44.055015" lon="12.179435"><ele>74.0</ele><time>2026-04-25T09:46:33.009Z</time></trkpt><trkpt lat="44.0550817" lon="12.1794983"><ele>74.0</ele><time>2026-04-25T09:46:35.01Z</time></trkpt><trkpt lat="44.055155" lon="12.1795517"><ele>74.0</ele><time>2026-04-25T09:46:37.009Z</time></trkpt><trkpt lat="44.0552267" lon="12.1796033"><ele>74.33333333333334</ele><time>2026-04-25T09:46:39.01Z</time></trkpt><trkpt lat="44.0553033" lon="12.1796483"><ele>74.66666666666667</ele><time>2026-04-25T09:46:41.009Z</time></trkpt><trkpt lat="44.055375" lon="12.1797"><ele>75.0</ele><time>2026-04-25T09:46:43.009Z</time></trkpt><trkpt lat="44.0554483" lon="12.1797533"><ele>75.33333333333333</ele><time>2026-04-25T09:46:45.01Z</time></trkpt><trkpt lat="44.0555217" lon="12.1798"><ele>75.66666666666666</ele><time>2026-04-25T09:46:47.009Z</time></trkpt><trkpt lat="44.0555983" lon="12.1798433"><ele>76.0</ele><time>2026-04-25T09:46:49.01Z</time></trkpt><trkpt lat="44.05568" lon="12.1798733"><ele>76.0</ele><time>2026-04-25T09:46:51.009Z</time></trkpt><trkpt lat="44.05576" lon="12.179895"><ele>76.0</ele><time>2026-04-25T09:46:53.009Z</time></trkpt><trkpt lat="44.0558333" lon="12.1799317"><ele>76.0</ele><time>2026-04-25T09:46:55.01Z</time></trkpt><trkpt lat="44.0558983" lon="12.1799633"><ele>76.0</ele><time>2026-04-25T09:46:57.01Z</time></trkpt><trkpt lat="44.055965" lon="12.1799933"><ele>76.0</ele><time>2026-04-25T09:46:59.01Z</time></trkpt><trkpt lat="44.05603" lon="12.18003"><ele>76.0</ele><time>2026-04-25T09:47:01.009Z</time></trkpt><trkpt lat="44.0560917" lon="12.180075"><ele>76.0</ele><time>2026-04-25T09:47:03.01Z</time></trkpt><trkpt lat="44.0561533" lon="12.1801017"><ele>76.57142857142857</ele><time>2026-04-25T09:47:05.009Z</time></trkpt><trkpt lat="44.05621" lon="12.180145"><ele>77.14285714285715</ele><time>2026-04-25T09:47:07.009Z</time></trkpt><trkpt lat="44.0562717" lon="12.1801883"><ele>77.71428571428572</ele><time>2026-04-25T09:47:09.009Z</time></trkpt><trkpt lat="44.056335" lon="12.1802183"><ele>78.28571428571428</ele><time>2026-04-25T09:47:11.008Z</time></trkpt><trkpt lat="44.0564" lon="12.1802433"><ele>78.85714285714286</ele><time>2026-04-25T09:47:13.008Z</time></trkpt><trkpt lat="44.0564683" lon="12.1802617"><ele>79.42857142857143</ele><time>2026-04-25T09:47:15.008Z</time></trkpt><trkpt lat="44.0565333" lon="12.1802767"><ele>80.0</ele><time>2026-04-25T09:47:17.009Z</time></trkpt><trkpt lat="44.0566" lon="12.1802817"><ele>81.0</ele><time>2026-04-25T09:47:19.009Z</time></trkpt><trkpt lat="44.056665" lon="12.1802817"><ele>82.0</ele><time>2026-04-25T09:47:21.009Z</time></trkpt><trkpt lat="44.0567333" lon="12.18029"><ele>83.0</ele><time>2026-04-25T09:47:23.008Z</time></trkpt><trkpt lat="44.0568067" lon="12.1802983"><ele>84.0</ele><time>2026-04-25T09:47:25.009Z</time></trkpt><trkpt lat="44.0569017" lon="12.1803283"><ele>85.0</ele><time>2026-04-25T09:47:28.009Z</time></trkpt><trkpt lat="44.056965" lon="12.1803417"><ele>86.0</ele><time>2026-04-25T09:47:30.008Z</time></trkpt><trkpt lat="44.0570333" lon="12.1803517"><ele>87.0</ele><time>2026-04-25T09:47:32.008Z</time></trkpt><trkpt lat="44.0571117" lon="12.180365"><ele>87.0</ele><time>2026-04-25T09:47:34.008Z</time></trkpt><trkpt lat="44.0571917" lon="12.1803783"><ele>87.0</ele><time>2026-04-25T09:47:36.008Z</time></trkpt><trkpt lat="44.0572683" lon="12.180395"><ele>87.0</ele><time>2026-04-25T09:47:38.009Z</time></trkpt><trkpt lat="44.0573433" lon="12.1804083"><ele>87.0</ele><time>2026-04-25T09:47:40.009Z</time></trkpt><trkpt lat="44.0574117" lon="12.1804133"><ele>87.0</ele><time>2026-04-25T09:47:42.009Z</time></trkpt><trkpt lat="44.0574867" lon="12.180425"><ele>87.0</ele><time>2026-04-25T09:47:44.008Z</time></trkpt><trkpt lat="44.0575633" lon="12.1804417"><ele>88.33333333333333</ele><time>2026-04-25T09:47:46.009Z</time></trkpt><trkpt lat="44.0576383" lon="12.1804483"><ele>89.66666666666667</ele><time>2026-04-25T09:47:48.009Z</time></trkpt><trkpt lat="44.0577233" lon="12.180465"><ele>91.0</ele><time>2026-04-25T09:47:50.009Z</time></trkpt><trkpt lat="44.05781" lon="12.1804817"><ele>92.33333333333334</ele><time>2026-04-25T09:47:52.009Z</time></trkpt><trkpt lat="44.0579" lon="12.1804933"><ele>93.66666666666667</ele><time>2026-04-25T09:47:54.009Z</time></trkpt><trkpt lat="44.0579917" lon="12.1804967"><ele>95.0</ele><time>2026-04-25T09:47:56.008Z</time></trkpt><trkpt lat="44.0580933" lon="12.1805033"><ele>95.0</ele><time>2026-04-25T09:47:58.008Z</time></trkpt><trkpt lat="44.0581933" lon="12.1805333"><ele>95.0</ele><time>2026-04-25T09:48:00.008Z</time></trkpt><trkpt lat="44.0582933" lon="12.1805567"><ele>95.0</ele><time>2026-04-25T09:48:02.008Z</time></trkpt><trkpt lat="44.0583983" lon="12.1805667"><ele>95.0</ele><time>2026-04-25T09:48:04.008Z</time></trkpt><trkpt lat="44.0585033" lon="12.1805867"><ele>95.0</ele><time>2026-04-25T09:48:06.009Z</time></trkpt><trkpt lat="44.0586217" lon="12.1806267"><ele>95.25</ele><time>2026-04-25T09:48:08.009Z</time></trkpt><trkpt lat="44.0587367" lon="12.1806367"><ele>95.5</ele><time>2026-04-25T09:48:10.009Z</time></trkpt><trkpt lat="44.0588383" lon="12.1806633"><ele>95.75</ele><time>2026-04-25T09:48:12.008Z</time></trkpt><trkpt lat="44.0589483" lon="12.1806933"><ele>96.0</ele><time>2026-04-25T09:48:14.009Z</time></trkpt><trkpt lat="44.0590667" lon="12.1807233"><ele>94.75</ele><time>2026-04-25T09:48:16.008Z</time></trkpt><trkpt lat="44.059185" lon="12.1807633"><ele>93.5</ele><time>2026-04-25T09:48:18.008Z</time></trkpt><trkpt lat="44.0592967" lon="12.1807933"><ele>92.25</ele><time>2026-04-25T09:48:20.008Z</time></trkpt><trkpt lat="44.0594067" lon="12.1808233"><ele>91.0</ele><time>2026-04-25T09:48:22.009Z</time></trkpt><trkpt lat="44.0595183" lon="12.18084"><ele>91.0</ele><time>2026-04-25T09:48:24.009Z</time></trkpt><trkpt lat="44.0596233" lon="12.1808617"><ele>91.0</ele><time>2026-04-25T09:48:26.009Z</time></trkpt><trkpt lat="44.0597317" lon="12.1808917"><ele>91.0</ele><time>2026-04-25T09:48:28.008Z</time></trkpt><trkpt lat="44.0598467" lon="12.1809317"><ele>91.0</ele><time>2026-04-25T09:48:30.009Z</time></trkpt><trkpt lat="44.059965" lon="12.180955"><ele>91.5</ele><time>2026-04-25T09:48:32.009Z</time></trkpt><trkpt lat="44.060065" lon="12.18098"><ele>92.0</ele><time>2026-04-25T09:48:34.009Z</time></trkpt><trkpt lat="44.0601783" lon="12.1810167"><ele>92.5</ele><time>2026-04-25T09:48:36.009Z</time></trkpt><trkpt lat="44.06029" lon="12.1810617"><ele>93.0</ele><time>2026-04-25T09:48:38.009Z</time></trkpt><trkpt lat="44.0604067" lon="12.1811"><ele>93.0</ele><time>2026-04-25T09:48:40.008Z</time></trkpt><trkpt lat="44.060475" lon="12.1811217"><ele>93.0</ele><time>2026-04-25T09:48:41.009Z</time></trkpt><trkpt lat="44.06059" lon="12.1811533"><ele>93.0</ele><time>2026-04-25T09:48:43.009Z</time></trkpt><trkpt lat="44.0607" lon="12.1811917"><ele>93.0</ele><time>2026-04-25T09:48:45.008Z</time></trkpt><trkpt lat="44.0608167" lon="12.1812267"><ele>93.0</ele><time>2026-04-25T09:48:47.009Z</time></trkpt><trkpt lat="44.0609283" lon="12.1812733"><ele>92.75</ele><time>2026-04-25T09:48:49.008Z</time></trkpt><trkpt lat="44.0610383" lon="12.1813083"><ele>92.5</ele><time>2026-04-25T09:48:51.008Z</time></trkpt><trkpt lat="44.0611433" lon="12.1813583"><ele>92.25</ele><time>2026-04-25T09:48:53.009Z</time></trkpt><trkpt lat="44.061255" lon="12.181415"><ele>92.0</ele><time>2026-04-25T09:48:55.008Z</time></trkpt><trkpt lat="44.0613667" lon="12.1814733"><ele>91.5</ele><time>2026-04-25T09:48:57.009Z</time></trkpt><trkpt lat="44.0614717" lon="12.181535"><ele>91.0</ele><time>2026-04-25T09:48:59.008Z</time></trkpt><trkpt lat="44.0615783" lon="12.1815933"><ele>90.5</ele><time>2026-04-25T09:49:01.009Z</time></trkpt><trkpt lat="44.0616967" lon="12.1816583"><ele>90.0</ele><time>2026-04-25T09:49:03.009Z</time></trkpt><trkpt lat="44.0618117" lon="12.18173"><ele>89.83333333333333</ele><time>2026-04-25T09:49:05.009Z</time></trkpt><trkpt lat="44.0618717" lon="12.1817667"><ele>89.66666666666667</ele><time>2026-04-25T09:49:06.009Z</time></trkpt><trkpt lat="44.061935" lon="12.1817817"><ele>89.5</ele><time>2026-04-25T09:49:07.009Z</time></trkpt><trkpt lat="44.0620517" lon="12.1818417"><ele>89.33333333333334</ele><time>2026-04-25T09:49:09.008Z</time></trkpt><trkpt lat="44.0621483" lon="12.1819017"><ele>89.16666666666667</ele><time>2026-04-25T09:49:11.008Z</time></trkpt><trkpt lat="44.0622117" lon="12.1819283"><ele>89.0</ele><time>2026-04-25T09:49:12.009Z</time></trkpt><trkpt lat="44.0622717" lon="12.1819583"><ele>89.0</ele><time>2026-04-25T09:49:13.009Z</time></trkpt><trkpt lat="44.0623717" lon="12.182"><ele>89.0</ele><time>2026-04-25T09:49:15.008Z</time></trkpt><trkpt lat="44.0624633" lon="12.18206"><ele>89.0</ele><time>2026-04-25T09:49:17.009Z</time></trkpt><trkpt lat="44.0625533" lon="12.1821133"><ele>89.0</ele><time>2026-04-25T09:49:19.009Z</time></trkpt><trkpt lat="44.062655" lon="12.1821667"><ele>89.0</ele><time>2026-04-25T09:49:21.008Z</time></trkpt><trkpt lat="44.0627583" lon="12.1822167"><ele>89.0</ele><time>2026-04-25T09:49:23.009Z</time></trkpt><trkpt lat="44.06286" lon="12.18226"><ele>89.0</ele><time>2026-04-25T09:49:25.008Z</time></trkpt><trkpt lat="44.0629683" lon="12.1823167"><ele>89.0</ele><time>2026-04-25T09:49:27.008Z</time></trkpt><trkpt lat="44.0630833" lon="12.182375"><ele>89.0</ele><time>2026-04-25T09:49:29.008Z</time></trkpt><trkpt lat="44.0631967" lon="12.1824317"><ele>88.80000000000001</ele><time>2026-04-25T09:49:31.009Z</time></trkpt><trkpt lat="44.0632583" lon="12.1824533"><ele>88.60000000000001</ele><time>2026-04-25T09:49:32.008Z</time></trkpt><trkpt lat="44.0633717" lon="12.182515"><ele>88.4</ele><time>2026-04-25T09:49:34.009Z</time></trkpt><trkpt lat="44.063485" lon="12.1825733"><ele>88.2</ele><time>2026-04-25T09:49:36.008Z</time></trkpt><trkpt lat="44.0635967" lon="12.182635"><ele>88.0</ele><time>2026-04-25T09:49:38.008Z</time></trkpt><trkpt lat="44.0636567" lon="12.1826683"><ele>88.4</ele><time>2026-04-25T09:49:39.009Z</time></trkpt><trkpt lat="44.0637567" lon="12.182735"><ele>88.80000000000001</ele><time>2026-04-25T09:49:41.009Z</time></trkpt><trkpt lat="44.0638767" lon="12.1827917"><ele>89.2</ele><time>2026-04-25T09:49:43.008Z</time></trkpt><trkpt lat="44.0639383" lon="12.1828117"><ele>89.6</ele><time>2026-04-25T09:49:44.009Z</time></trkpt><trkpt lat="44.0640517" lon="12.1828517"><ele>90.0</ele><time>2026-04-25T09:49:46.008Z</time></trkpt><trkpt lat="44.06417" lon="12.1828983"><ele>90.0</ele><time>2026-04-25T09:49:48.008Z</time></trkpt><trkpt lat="44.0642967" lon="12.1829467"><ele>90.0</ele><time>2026-04-25T09:49:50.009Z</time></trkpt><trkpt lat="44.064365" lon="12.1829667"><ele>90.0</ele><time>2026-04-25T09:49:51.008Z</time></trkpt><trkpt lat="44.0644367" lon="12.1829817"><ele>90.0</ele><time>2026-04-25T09:49:52.009Z</time></trkpt><trkpt lat="44.064515" lon="12.1829933"><ele>90.0</ele><time>2026-04-25T09:49:53.009Z</time></trkpt><trkpt lat="44.064585" lon="12.1829983"><ele>90.0</ele><time>2026-04-25T09:49:54.008Z</time></trkpt><trkpt lat="44.0646617" lon="12.182975"><ele>90.0</ele><time>2026-04-25T09:49:55.008Z</time></trkpt><trkpt lat="44.0647367" lon="12.1829383"><ele>90.0</ele><time>2026-04-25T09:49:56.009Z</time></trkpt><trkpt lat="44.064805" lon="12.1828817"><ele>90.0</ele><time>2026-04-25T09:49:57.009Z</time></trkpt><trkpt lat="44.064865" lon="12.18281"><ele>90.0</ele><time>2026-04-25T09:49:58.009Z</time></trkpt><trkpt lat="44.0649117" lon="12.1827267"><ele>90.0</ele><time>2026-04-25T09:49:59.008Z</time></trkpt><trkpt lat="44.0649617" lon="12.1826417"><ele>90.0</ele><time>2026-04-25T09:50:00.009Z</time></trkpt><trkpt lat="44.0650117" lon="12.1825517"><ele>89.16666666666667</ele><time>2026-04-25T09:50:01.008Z</time></trkpt><trkpt lat="44.0650633" lon="12.18246"><ele>88.33333333333333</ele><time>2026-04-25T09:50:02.008Z</time></trkpt><trkpt lat="44.0651167" lon="12.1823683"><ele>87.5</ele><time>2026-04-25T09:50:03.008Z</time></trkpt><trkpt lat="44.065175" lon="12.18228"><ele>86.66666666666666</ele><time>2026-04-25T09:50:04.009Z</time></trkpt><trkpt lat="44.0652467" lon="12.1822017"><ele>85.83333333333333</ele><time>2026-04-25T09:50:05.009Z</time></trkpt><trkpt lat="44.065325" lon="12.1821283"><ele>85.0</ele><time>2026-04-25T09:50:06.008Z</time></trkpt><trkpt lat="44.065405" lon="12.18206"><ele>85.0</ele><time>2026-04-25T09:50:07.008Z</time></trkpt><trkpt lat="44.0654917" lon="12.182015"><ele>85.0</ele><time>2026-04-25T09:50:08.009Z</time></trkpt><trkpt lat="44.0655717" lon="12.1819733"><ele>85.0</ele><time>2026-04-25T09:50:09.008Z</time></trkpt><trkpt lat="44.0656617" lon="12.1819667"><ele>85.0</ele><time>2026-04-25T09:50:10.009Z</time></trkpt><trkpt lat="44.0657433" lon="12.1820033"><ele>85.0</ele><time>2026-04-25T09:50:11.008Z</time></trkpt><trkpt lat="44.0658183" lon="12.1820583"><ele>85.0</ele><time>2026-04-25T09:50:12.008Z</time></trkpt><trkpt lat="44.0658783" lon="12.1821267"><ele>84.8</ele><time>2026-04-25T09:50:13.009Z</time></trkpt><trkpt lat="44.0659267" lon="12.1821917"><ele>84.6</ele><time>2026-04-25T09:50:14.009Z</time></trkpt><trkpt lat="44.0660033" lon="12.18231"><ele>84.4</ele><time>2026-04-25T09:50:16.009Z</time></trkpt><trkpt lat="44.066065" lon="12.1824283"><ele>84.2</ele><time>2026-04-25T09:50:18.009Z</time></trkpt><trkpt lat="44.0661217" lon="12.1825383"><ele>84.0</ele><time>2026-04-25T09:50:20.008Z</time></trkpt><trkpt lat="44.0661783" lon="12.1826417"><ele>83.6</ele><time>2026-04-25T09:50:22.008Z</time></trkpt><trkpt lat="44.0662383" lon="12.1827433"><ele>83.2</ele><time>2026-04-25T09:50:24.009Z</time></trkpt><trkpt lat="44.0663033" lon="12.18285"><ele>82.8</ele><time>2026-04-25T09:50:26.009Z</time></trkpt><trkpt lat="44.0663767" lon="12.1829433"><ele>82.39999999999999</ele><time>2026-04-25T09:50:28.008Z</time></trkpt><trkpt lat="44.0664517" lon="12.1830333"><ele>82.0</ele><time>2026-04-25T09:50:30.008Z</time></trkpt><trkpt lat="44.0665417" lon="12.1831217"><ele>83.19999999999999</ele><time>2026-04-25T09:50:32.009Z</time></trkpt><trkpt lat="44.0666483" lon="12.1832033"><ele>84.4</ele><time>2026-04-25T09:50:34.009Z</time></trkpt><trkpt lat="44.0667433" lon="12.1832717"><ele>85.6</ele><time>2026-04-25T09:50:36.008Z</time></trkpt><trkpt lat="44.0668433" lon="12.1833467"><ele>86.80000000000001</ele><time>2026-04-25T09:50:38.009Z</time></trkpt><trkpt lat="44.0669217" lon="12.1834283"><ele>88.0</ele><time>2026-04-25T09:50:40.008Z</time></trkpt><trkpt lat="44.0670233" lon="12.183495"><ele>88.0</ele><time>2026-04-25T09:50:42.009Z</time></trkpt><trkpt lat="44.0671217" lon="12.18358"><ele>88.0</ele><time>2026-04-25T09:50:44.009Z</time></trkpt><trkpt lat="44.06722" lon="12.1836683"><ele>88.0</ele><time>2026-04-25T09:50:46.008Z</time></trkpt><trkpt lat="44.0673033" lon="12.18374"><ele>88.0</ele><time>2026-04-25T09:50:48.008Z</time></trkpt><trkpt lat="44.0674" lon="12.1838283"><ele>88.0</ele><time>2026-04-25T09:50:50.008Z</time></trkpt><trkpt lat="44.0675033" lon="12.18391"><ele>88.25</ele><time>2026-04-25T09:50:52.008Z</time></trkpt><trkpt lat="44.06761" lon="12.1839883"><ele>88.5</ele><time>2026-04-25T09:50:54.009Z</time></trkpt><trkpt lat="44.0677183" lon="12.1840533"><ele>88.75</ele><time>2026-04-25T09:50:56.008Z</time></trkpt><trkpt lat="44.06782" lon="12.18413"><ele>89.0</ele><time>2026-04-25T09:50:58.009Z</time></trkpt><trkpt lat="44.0679133" lon="12.1841833"><ele>89.0</ele><time>2026-04-25T09:51:00.009Z</time></trkpt><trkpt lat="44.0680133" lon="12.18424"><ele>89.0</ele><time>2026-04-25T09:51:02.008Z</time></trkpt><trkpt lat="44.0681167" lon="12.1842917"><ele>89.0</ele><time>2026-04-25T09:51:04.008Z</time></trkpt><trkpt lat="44.0682367" lon="12.1843133"><ele>89.0</ele><time>2026-04-25T09:51:06.008Z</time></trkpt><trkpt lat="44.06835" lon="12.18432"><ele>89.0</ele><time>2026-04-25T09:51:08.008Z</time></trkpt><trkpt lat="44.06846" lon="12.184285"><ele>89.0</ele><time>2026-04-25T09:51:10.008Z</time></trkpt><trkpt lat="44.0685733" lon="12.1842283"><ele>89.0</ele><time>2026-04-25T09:51:12.008Z</time></trkpt><trkpt lat="44.0686333" lon="12.1842017"><ele>89.0</ele><time>2026-04-25T09:51:13.007Z</time></trkpt><trkpt lat="44.0686933" lon="12.1841667"><ele>89.0</ele><time>2026-04-25T09:51:14.008Z</time></trkpt><trkpt lat="44.068815" lon="12.18412"><ele>89.0</ele><time>2026-04-25T09:51:16.008Z</time></trkpt><trkpt lat="44.0689283" lon="12.184055"><ele>89.0</ele><time>2026-04-25T09:51:18.007Z</time></trkpt><trkpt lat="44.0690417" lon="12.184"><ele>89.0</ele><time>2026-04-25T09:51:20.008Z</time></trkpt><trkpt lat="44.0691467" lon="12.1839583"><ele>89.0</ele><time>2026-04-25T09:51:22.008Z</time></trkpt><trkpt lat="44.0692433" lon="12.183925"><ele>89.0</ele><time>2026-04-25T09:51:24.007Z</time></trkpt><trkpt lat="44.06933" lon="12.183915"><ele>89.0</ele><time>2026-04-25T09:51:26.008Z</time></trkpt><trkpt lat="44.0694217" lon="12.1839133"><ele>89.0</ele><time>2026-04-25T09:51:28.008Z</time></trkpt><trkpt lat="44.0695133" lon="12.1839183"><ele>89.0</ele><time>2026-04-25T09:51:30.007Z</time></trkpt><trkpt lat="44.06959" lon="12.1839183"><ele>89.0</ele><time>2026-04-25T09:51:32.007Z</time></trkpt><trkpt lat="44.0696817" lon="12.183935"><ele>89.0</ele><time>2026-04-25T09:51:34.008Z</time></trkpt><trkpt lat="44.069785" lon="12.1839467"><ele>89.0</ele><time>2026-04-25T09:51:36.008Z</time></trkpt><trkpt lat="44.0698967" lon="12.18397"><ele>89.0</ele><time>2026-04-25T09:51:38.007Z</time></trkpt><trkpt lat="44.07001" lon="12.1839933"><ele>89.0</ele><time>2026-04-25T09:51:40.007Z</time></trkpt><trkpt lat="44.07013" lon="12.1840233"><ele>89.0</ele><time>2026-04-25T09:51:42.008Z</time></trkpt><trkpt lat="44.0702433" lon="12.18405"><ele>89.33333333333334</ele><time>2026-04-25T09:51:44.008Z</time></trkpt><trkpt lat="44.07036" lon="12.1840817"><ele>89.66666666666667</ele><time>2026-04-25T09:51:46.008Z</time></trkpt><trkpt lat="44.0704867" lon="12.1841083"><ele>90.0</ele><time>2026-04-25T09:51:48.008Z</time></trkpt><trkpt lat="44.0705517" lon="12.184125"><ele>90.33333333333333</ele><time>2026-04-25T09:51:49.008Z</time></trkpt><trkpt lat="44.0706167" lon="12.18414"><ele>90.66666666666666</ele><time>2026-04-25T09:51:50.007Z</time></trkpt><trkpt lat="44.0706817" lon="12.1841583"><ele>91.0</ele><time>2026-04-25T09:51:51.007Z</time></trkpt><trkpt lat="44.0707483" lon="12.1841733"><ele>90.42857142857143</ele><time>2026-04-25T09:51:52.008Z</time></trkpt><trkpt lat="44.0708167" lon="12.1841867"><ele>89.85714285714286</ele><time>2026-04-25T09:51:53.008Z</time></trkpt><trkpt lat="44.070885" lon="12.1842"><ele>89.28571428571428</ele><time>2026-04-25T09:51:54.007Z</time></trkpt><trkpt lat="44.0709567" lon="12.1842133"><ele>88.71428571428572</ele><time>2026-04-25T09:51:55.007Z</time></trkpt><trkpt lat="44.0710267" lon="12.1842283"><ele>88.14285714285714</ele><time>2026-04-25T09:51:56.008Z</time></trkpt><trkpt lat="44.0710983" lon="12.1842433"><ele>87.57142857142857</ele><time>2026-04-25T09:51:57.008Z</time></trkpt><trkpt lat="44.07117" lon="12.1842683"><ele>87.0</ele><time>2026-04-25T09:51:58.008Z</time></trkpt><trkpt lat="44.0712433" lon="12.184285"><ele>87.0</ele><time>2026-04-25T09:51:59.007Z</time></trkpt><trkpt lat="44.0713167" lon="12.1843033"><ele>87.0</ele><time>2026-04-25T09:52:00.008Z</time></trkpt><trkpt lat="44.071395" lon="12.1843167"><ele>87.0</ele><time>2026-04-25T09:52:01.007Z</time></trkpt><trkpt lat="44.0714717" lon="12.18433"><ele>87.0</ele><time>2026-04-25T09:52:02.007Z</time></trkpt><trkpt lat="44.071545" lon="12.1843367"><ele>87.0</ele><time>2026-04-25T09:52:03.008Z</time></trkpt><trkpt lat="44.0716167" lon="12.1843533"><ele>87.0</ele><time>2026-04-25T09:52:04.008Z</time></trkpt><trkpt lat="44.0716917" lon="12.1843717"><ele>87.28571428571428</ele><time>2026-04-25T09:52:05.008Z</time></trkpt><trkpt lat="44.0717633" lon="12.1843917"><ele>87.57142857142857</ele><time>2026-04-25T09:52:06.008Z</time></trkpt><trkpt lat="44.071835" lon="12.1844117"><ele>87.85714285714286</ele><time>2026-04-25T09:52:07.007Z</time></trkpt><trkpt lat="44.07191" lon="12.184435"><ele>88.14285714285714</ele><time>2026-04-25T09:52:08.007Z</time></trkpt><trkpt lat="44.0719833" lon="12.184455"><ele>88.42857142857143</ele><time>2026-04-25T09:52:09.008Z</time></trkpt><trkpt lat="44.0720533" lon="12.1844767"><ele>88.71428571428571</ele><time>2026-04-25T09:52:10.007Z</time></trkpt><trkpt lat="44.0721217" lon="12.1845017"><ele>89.0</ele><time>2026-04-25T09:52:11.008Z</time></trkpt><trkpt lat="44.0721967" lon="12.1845283"><ele>88.99999999999999</ele><time>2026-04-25T09:52:12.007Z</time></trkpt><trkpt lat="44.07227" lon="12.18456"><ele>89.0</ele><time>2026-04-25T09:52:13.007Z</time></trkpt><trkpt lat="44.0723383" lon="12.18459"><ele>89.0</ele><time>2026-04-25T09:52:14.008Z</time></trkpt><trkpt lat="44.072405" lon="12.18462"><ele>89.0</ele><time>2026-04-25T09:52:15.007Z</time></trkpt><trkpt lat="44.0724717" lon="12.1846567"><ele>89.0</ele><time>2026-04-25T09:52:16.008Z</time></trkpt><trkpt lat="44.072545" lon="12.1846967"><ele>88.99999999999999</ele><time>2026-04-25T09:52:17.008Z</time></trkpt><trkpt lat="44.0726183" lon="12.184735"><ele>89.0</ele><time>2026-04-25T09:52:18.008Z</time></trkpt><trkpt lat="44.0726917" lon="12.184775"><ele>89.83333333333334</ele><time>2026-04-25T09:52:19.008Z</time></trkpt><trkpt lat="44.0727683" lon="12.1848083"><ele>90.66666666666667</ele><time>2026-04-25T09:52:20.007Z</time></trkpt><trkpt lat="44.0728417" lon="12.1848383"><ele>91.5</ele><time>2026-04-25T09:52:21.008Z</time></trkpt><trkpt lat="44.0729183" lon="12.184875"><ele>92.33333333333333</ele><time>2026-04-25T09:52:22.008Z</time></trkpt><trkpt lat="44.0729917" lon="12.1849083"><ele>93.16666666666666</ele><time>2026-04-25T09:52:23.007Z</time></trkpt><trkpt lat="44.0730633" lon="12.1849433"><ele>94.0</ele><time>2026-04-25T09:52:24.008Z</time></trkpt><trkpt lat="44.0731333" lon="12.1849817"><ele>92.5</ele><time>2026-04-25T09:52:25.008Z</time></trkpt><trkpt lat="44.073205" lon="12.18502"><ele>91.0</ele><time>2026-04-25T09:52:26.008Z</time></trkpt><trkpt lat="44.07328" lon="12.1850533"><ele>89.5</ele><time>2026-04-25T09:52:27.007Z</time></trkpt><trkpt lat="44.0733533" lon="12.18509"><ele>88.0</ele><time>2026-04-25T09:52:28.007Z</time></trkpt><trkpt lat="44.0734267" lon="12.1851267"><ele>86.5</ele><time>2026-04-25T09:52:29.008Z</time></trkpt><trkpt lat="44.0735017" lon="12.1851667"><ele>85.0</ele><time>2026-04-25T09:52:30.008Z</time></trkpt><trkpt lat="44.0735783" lon="12.1852"><ele>85.0</ele><time>2026-04-25T09:52:31.008Z</time></trkpt><trkpt lat="44.073655" lon="12.1852367"><ele>85.0</ele><time>2026-04-25T09:52:32.007Z</time></trkpt><trkpt lat="44.073735" lon="12.185265"><ele>85.0</ele><time>2026-04-25T09:52:33.008Z</time></trkpt><trkpt lat="44.073815" lon="12.1853033"><ele>85.0</ele><time>2026-04-25T09:52:34.008Z</time></trkpt><trkpt lat="44.073895" lon="12.185345"><ele>85.0</ele><time>2026-04-25T09:52:35.008Z</time></trkpt><trkpt lat="44.0739767" lon="12.1853917"><ele>85.0</ele><time>2026-04-25T09:52:36.008Z</time></trkpt><trkpt lat="44.0740617" lon="12.1854433"><ele>85.0</ele><time>2026-04-25T09:52:37.008Z</time></trkpt><trkpt lat="44.074145" lon="12.185495"><ele>85.0</ele><time>2026-04-25T09:52:38.007Z</time></trkpt><trkpt lat="44.0742233" lon="12.1855567"><ele>85.0</ele><time>2026-04-25T09:52:39.008Z</time></trkpt><trkpt lat="44.0743" lon="12.1856167"><ele>85.0</ele><time>2026-04-25T09:52:40.007Z</time></trkpt><trkpt lat="44.0743733" lon="12.1856783"><ele>85.0</ele><time>2026-04-25T09:52:41.008Z</time></trkpt><trkpt lat="44.0744417" lon="12.1857417"><ele>85.0</ele><time>2026-04-25T09:52:42.008Z</time></trkpt><trkpt lat="44.0745117" lon="12.185795"><ele>84.33333333333333</ele><time>2026-04-25T09:52:43.008Z</time></trkpt><trkpt lat="44.0745717" lon="12.18586"><ele>83.66666666666666</ele><time>2026-04-25T09:52:44.008Z</time></trkpt><trkpt lat="44.0746367" lon="12.18592"><ele>83.0</ele><time>2026-04-25T09:52:45.008Z</time></trkpt><trkpt lat="44.074705" lon="12.1859867"><ele>82.33333333333333</ele><time>2026-04-25T09:52:46.008Z</time></trkpt><trkpt lat="44.0747633" lon="12.1860367"><ele>81.66666666666667</ele><time>2026-04-25T09:52:47.008Z</time></trkpt><trkpt lat="44.0748333" lon="12.186085"><ele>81.0</ele><time>2026-04-25T09:52:48.008Z</time></trkpt><trkpt lat="44.0749017" lon="12.1861383"><ele>81.42857142857143</ele><time>2026-04-25T09:52:49.008Z</time></trkpt><trkpt lat="44.0749617" lon="12.186185"><ele>81.85714285714286</ele><time>2026-04-25T09:52:50.007Z</time></trkpt><trkpt lat="44.0750317" lon="12.1862183"><ele>82.28571428571428</ele><time>2026-04-25T09:52:51.008Z</time></trkpt><trkpt lat="44.0751083" lon="12.1862733"><ele>82.71428571428572</ele><time>2026-04-25T09:52:52.008Z</time></trkpt><trkpt lat="44.0751767" lon="12.186315"><ele>83.14285714285714</ele><time>2026-04-25T09:52:53.008Z</time></trkpt><trkpt lat="44.0752433" lon="12.1863567"><ele>83.57142857142857</ele><time>2026-04-25T09:52:54.007Z</time></trkpt><trkpt lat="44.0753067" lon="12.1864017"><ele>84.0</ele><time>2026-04-25T09:52:55.008Z</time></trkpt><trkpt lat="44.0753817" lon="12.1864433"><ele>84.0</ele><time>2026-04-25T09:52:56.008Z</time></trkpt><trkpt lat="44.0754533" lon="12.1864867"><ele>84.0</ele><time>2026-04-25T09:52:57.008Z</time></trkpt><trkpt lat="44.0755283" lon="12.1865383"><ele>84.0</ele><time>2026-04-25T09:52:58.007Z</time></trkpt><trkpt lat="44.075595" lon="12.1865833"><ele>84.0</ele><time>2026-04-25T09:52:59.008Z</time></trkpt><trkpt lat="44.0756633" lon="12.1866217"><ele>84.0</ele><time>2026-04-25T09:53:00.008Z</time></trkpt><trkpt lat="44.07573" lon="12.18667"><ele>84.0</ele><time>2026-04-25T09:53:01.007Z</time></trkpt><trkpt lat="44.0758017" lon="12.186715"><ele>83.16666666666667</ele><time>2026-04-25T09:53:02.007Z</time></trkpt><trkpt lat="44.07587" lon="12.186765"><ele>82.33333333333333</ele><time>2026-04-25T09:53:03.007Z</time></trkpt><trkpt lat="44.0759417" lon="12.1868067"><ele>81.5</ele><time>2026-04-25T09:53:04.007Z</time></trkpt><trkpt lat="44.0760133" lon="12.1868533"><ele>80.66666666666666</ele><time>2026-04-25T09:53:05.007Z</time></trkpt><trkpt lat="44.0760833" lon="12.1868933"><ele>79.83333333333333</ele><time>2026-04-25T09:53:06.008Z</time></trkpt><trkpt lat="44.07615" lon="12.1869317"><ele>79.0</ele><time>2026-04-25T09:53:07.008Z</time></trkpt><trkpt lat="44.07622" lon="12.186975"><ele>79.00000000000001</ele><time>2026-04-25T09:53:08.008Z</time></trkpt><trkpt lat="44.0762833" lon="12.1870233"><ele>79.0</ele><time>2026-04-25T09:53:09.007Z</time></trkpt><trkpt lat="44.0763467" lon="12.1870617"><ele>79.0</ele><time>2026-04-25T09:53:10.007Z</time></trkpt><trkpt lat="44.0764167" lon="12.1871067"><ele>79.0</ele><time>2026-04-25T09:53:11.008Z</time></trkpt><trkpt lat="44.076485" lon="12.187155"><ele>79.0</ele><time>2026-04-25T09:53:12.007Z</time></trkpt><trkpt lat="44.076555" lon="12.1872017"><ele>79.00000000000001</ele><time>2026-04-25T09:53:13.008Z</time></trkpt><trkpt lat="44.0766217" lon="12.1872483"><ele>79.0</ele><time>2026-04-25T09:53:14.008Z</time></trkpt><trkpt lat="44.0766867" lon="12.187295"><ele>79.28571428571429</ele><time>2026-04-25T09:53:15.008Z</time></trkpt><trkpt lat="44.0767533" lon="12.1873333"><ele>79.57142857142857</ele><time>2026-04-25T09:53:16.008Z</time></trkpt><trkpt lat="44.076815" lon="12.1873833"><ele>79.85714285714286</ele><time>2026-04-25T09:53:17.007Z</time></trkpt><trkpt lat="44.0768783" lon="12.1874317"><ele>80.14285714285714</ele><time>2026-04-25T09:53:18.008Z</time></trkpt><trkpt lat="44.0769417" lon="12.187475"><ele>80.42857142857143</ele><time>2026-04-25T09:53:19.007Z</time></trkpt><trkpt lat="44.0770067" lon="12.18752"><ele>80.71428571428572</ele><time>2026-04-25T09:53:20.007Z</time></trkpt><trkpt lat="44.0770717" lon="12.187565"><ele>81.0</ele><time>2026-04-25T09:53:21.007Z</time></trkpt><trkpt lat="44.077135" lon="12.1876067"><ele>81.14285714285714</ele><time>2026-04-25T09:53:22.007Z</time></trkpt><trkpt lat="44.077195" lon="12.1876417"><ele>81.28571428571428</ele><time>2026-04-25T09:53:23.007Z</time></trkpt><trkpt lat="44.077255" lon="12.1876767"><ele>81.42857142857142</ele><time>2026-04-25T09:53:24.008Z</time></trkpt><trkpt lat="44.0773167" lon="12.1877167"><ele>81.57142857142857</ele><time>2026-04-25T09:53:25.008Z</time></trkpt><trkpt lat="44.07738" lon="12.1877583"><ele>81.71428571428571</ele><time>2026-04-25T09:53:26.008Z</time></trkpt><trkpt lat="44.0774483" lon="12.187795"><ele>81.85714285714285</ele><time>2026-04-25T09:53:27.008Z</time></trkpt><trkpt lat="44.0775083" lon="12.1878333"><ele>82.0</ele><time>2026-04-25T09:53:28.008Z</time></trkpt><trkpt lat="44.0775683" lon="12.187875"><ele>81.99999999999999</ele><time>2026-04-25T09:53:29.007Z</time></trkpt><trkpt lat="44.0776283" lon="12.18792"><ele>82.0</ele><time>2026-04-25T09:53:30.008Z</time></trkpt><trkpt lat="44.077685" lon="12.1879633"><ele>82.0</ele><time>2026-04-25T09:53:31.008Z</time></trkpt><trkpt lat="44.077745" lon="12.188"><ele>82.0</ele><time>2026-04-25T09:53:32.007Z</time></trkpt><trkpt lat="44.077805" lon="12.18804"><ele>82.0</ele><time>2026-04-25T09:53:33.007Z</time></trkpt><trkpt lat="44.0778633" lon="12.18808"><ele>81.99999999999999</ele><time>2026-04-25T09:53:34.008Z</time></trkpt><trkpt lat="44.0779233" lon="12.1881183"><ele>82.0</ele><time>2026-04-25T09:53:35.008Z</time></trkpt><trkpt lat="44.077985" lon="12.1881533"><ele>81.28571428571428</ele><time>2026-04-25T09:53:36.008Z</time></trkpt><trkpt lat="44.078045" lon="12.1881933"><ele>80.57142857142857</ele><time>2026-04-25T09:53:37.007Z</time></trkpt><trkpt lat="44.078105" lon="12.1882333"><ele>79.85714285714286</ele><time>2026-04-25T09:53:38.007Z</time></trkpt><trkpt lat="44.0781633" lon="12.1882667"><ele>79.14285714285714</ele><time>2026-04-25T09:53:39.007Z</time></trkpt><trkpt lat="44.0782217" lon="12.1883"><ele>78.42857142857143</ele><time>2026-04-25T09:53:40.008Z</time></trkpt><trkpt lat="44.0782817" lon="12.1883333"><ele>77.71428571428571</ele><time>2026-04-25T09:53:41.008Z</time></trkpt><trkpt lat="44.0783417" lon="12.188365"><ele>77.0</ele><time>2026-04-25T09:53:42.007Z</time></trkpt><trkpt lat="44.078405" lon="12.188405"><ele>77.0</ele><time>2026-04-25T09:53:43.008Z</time></trkpt><trkpt lat="44.078465" lon="12.1884433"><ele>77.0</ele><time>2026-04-25T09:53:44.007Z</time></trkpt><trkpt lat="44.0785283" lon="12.1884833"><ele>77.0</ele><time>2026-04-25T09:53:45.008Z</time></trkpt><trkpt lat="44.0785933" lon="12.18852"><ele>77.0</ele><time>2026-04-25T09:53:46.008Z</time></trkpt><trkpt lat="44.078655" lon="12.188555"><ele>77.0</ele><time>2026-04-25T09:53:47.008Z</time></trkpt><trkpt lat="44.0787183" lon="12.18859"><ele>77.0</ele><time>2026-04-25T09:53:48.007Z</time></trkpt><trkpt lat="44.0787783" lon="12.1886233"><ele>77.0</ele><time>2026-04-25T09:53:49.007Z</time></trkpt><trkpt lat="44.0788967" lon="12.18869"><ele>77.0</ele><time>2026-04-25T09:53:51.007Z</time></trkpt><trkpt lat="44.0789567" lon="12.18873"><ele>77.0</ele><time>2026-04-25T09:53:52.008Z</time></trkpt><trkpt lat="44.0790217" lon="12.1887733"><ele>77.0</ele><time>2026-04-25T09:53:53.007Z</time></trkpt><trkpt lat="44.0790817" lon="12.188815"><ele>77.0</ele><time>2026-04-25T09:53:54.008Z</time></trkpt><trkpt lat="44.07914" lon="12.1888483"><ele>77.0</ele><time>2026-04-25T09:53:55.008Z</time></trkpt><trkpt lat="44.0791983" lon="12.1888833"><ele>77.0</ele><time>2026-04-25T09:53:56.007Z</time></trkpt><trkpt lat="44.0792583" lon="12.1889217"><ele>77.0</ele><time>2026-04-25T09:53:57.008Z</time></trkpt><trkpt lat="44.0793233" lon="12.18896"><ele>76.57142857142857</ele><time>2026-04-25T09:53:58.008Z</time></trkpt><trkpt lat="44.0793867" lon="12.18899"><ele>76.14285714285714</ele><time>2026-04-25T09:53:59.007Z</time></trkpt><trkpt lat="44.0794467" lon="12.1890183"><ele>75.71428571428572</ele><time>2026-04-25T09:54:00.008Z</time></trkpt><trkpt lat="44.07951" lon="12.1890417"><ele>75.28571428571428</ele><time>2026-04-25T09:54:01.008Z</time></trkpt><trkpt lat="44.079575" lon="12.1890617"><ele>74.85714285714286</ele><time>2026-04-25T09:54:02.008Z</time></trkpt><trkpt lat="44.07964" lon="12.1890767"><ele>74.42857142857143</ele><time>2026-04-25T09:54:03.007Z</time></trkpt><trkpt lat="44.0797083" lon="12.18909"><ele>74.0</ele><time>2026-04-25T09:54:04.007Z</time></trkpt><trkpt lat="44.0797783" lon="12.1890983"><ele>74.0</ele><time>2026-04-25T09:54:05.008Z</time></trkpt><trkpt lat="44.07985" lon="12.189105"><ele>74.0</ele><time>2026-04-25T09:54:06.008Z</time></trkpt><trkpt lat="44.0799183" lon="12.1891033"><ele>74.0</ele><time>2026-04-25T09:54:07.008Z</time></trkpt><trkpt lat="44.0799867" lon="12.189095"><ele>74.0</ele><time>2026-04-25T09:54:08.008Z</time></trkpt><trkpt lat="44.0800567" lon="12.189085"><ele>74.0</ele><time>2026-04-25T09:54:09.007Z</time></trkpt><trkpt lat="44.0801283" lon="12.1890767"><ele>74.0</ele><time>2026-04-25T09:54:10.008Z</time></trkpt><trkpt lat="44.0802" lon="12.18906"><ele>74.0</ele><time>2026-04-25T09:54:11.007Z</time></trkpt><trkpt lat="44.0802717" lon="12.1890467"><ele>74.16666666666667</ele><time>2026-04-25T09:54:12.008Z</time></trkpt><trkpt lat="44.0803517" lon="12.18903"><ele>74.33333333333334</ele><time>2026-04-25T09:54:13.008Z</time></trkpt><trkpt lat="44.0804267" lon="12.18901"><ele>74.5</ele><time>2026-04-25T09:54:14.007Z</time></trkpt><trkpt lat="44.0805" lon="12.1889933"><ele>74.66666666666667</ele><time>2026-04-25T09:54:15.008Z</time></trkpt><trkpt lat="44.0805783" lon="12.1889733"><ele>74.83333333333333</ele><time>2026-04-25T09:54:16.008Z</time></trkpt><trkpt lat="44.0806567" lon="12.18895"><ele>75.0</ele><time>2026-04-25T09:54:17.008Z</time></trkpt><trkpt lat="44.0807383" lon="12.1889217"><ele>75.66666666666667</ele><time>2026-04-25T09:54:18.008Z</time></trkpt><trkpt lat="44.0808283" lon="12.1889033"><ele>76.33333333333333</ele><time>2026-04-25T09:54:19.007Z</time></trkpt><trkpt lat="44.08091" lon="12.1888783"><ele>77.0</ele><time>2026-04-25T09:54:20.007Z</time></trkpt><trkpt lat="44.0809917" lon="12.1888417"><ele>77.66666666666666</ele><time>2026-04-25T09:54:21.008Z</time></trkpt><trkpt lat="44.081075" lon="12.1888"><ele>78.33333333333333</ele><time>2026-04-25T09:54:22.008Z</time></trkpt><trkpt lat="44.0811567" lon="12.188765"><ele>79.0</ele><time>2026-04-25T09:54:23.008Z</time></trkpt><trkpt lat="44.08123" lon="12.1887333"><ele>79.0</ele><time>2026-04-25T09:54:24.008Z</time></trkpt><trkpt lat="44.08131" lon="12.1887183"><ele>79.0</ele><time>2026-04-25T09:54:25.008Z</time></trkpt><trkpt lat="44.0814017" lon="12.1887167"><ele>79.0</ele><time>2026-04-25T09:54:26.007Z</time></trkpt><trkpt lat="44.0814933" lon="12.1887267"><ele>79.0</ele><time>2026-04-25T09:54:27.008Z</time></trkpt><trkpt lat="44.0815883" lon="12.188745"><ele>79.0</ele><time>2026-04-25T09:54:28.007Z</time></trkpt><trkpt lat="44.0816717" lon="12.18878"><ele>79.0</ele><time>2026-04-25T09:54:29.008Z</time></trkpt><trkpt lat="44.0817567" lon="12.1888133"><ele>77.5</ele><time>2026-04-25T09:54:30.008Z</time></trkpt><trkpt lat="44.0818367" lon="12.1888533"><ele>76.0</ele><time>2026-04-25T09:54:31.007Z</time></trkpt><trkpt lat="44.0819133" lon="12.1888883"><ele>74.5</ele><time>2026-04-25T09:54:32.008Z</time></trkpt><trkpt lat="44.0819867" lon="12.1889117"><ele>73.0</ele><time>2026-04-25T09:54:33.007Z</time></trkpt><trkpt lat="44.08206" lon="12.1889317"><ele>71.5</ele><time>2026-04-25T09:54:34.007Z</time></trkpt><trkpt lat="44.0821317" lon="12.1889433"><ele>70.0</ele><time>2026-04-25T09:54:35.008Z</time></trkpt><trkpt lat="44.0822017" lon="12.188945"><ele>70.0</ele><time>2026-04-25T09:54:36.008Z</time></trkpt><trkpt lat="44.0822733" lon="12.1889483"><ele>70.0</ele><time>2026-04-25T09:54:37.007Z</time></trkpt><trkpt lat="44.08234" lon="12.1889517"><ele>70.0</ele><time>2026-04-25T09:54:38.008Z</time></trkpt><trkpt lat="44.082465" lon="12.188945"><ele>70.0</ele><time>2026-04-25T09:54:40.007Z</time></trkpt><trkpt lat="44.0825833" lon="12.1889317"><ele>70.0</ele><time>2026-04-25T09:54:42.008Z</time></trkpt><trkpt lat="44.0826917" lon="12.188915"><ele>69.4</ele><time>2026-04-25T09:54:44.007Z</time></trkpt><trkpt lat="44.082795" lon="12.1889033"><ele>68.8</ele><time>2026-04-25T09:54:46.007Z</time></trkpt><trkpt lat="44.082895" lon="12.1888933"><ele>68.2</ele><time>2026-04-25T09:54:48.008Z</time></trkpt><trkpt lat="44.0830033" lon="12.1889"><ele>67.6</ele><time>2026-04-25T09:54:50.007Z</time></trkpt><trkpt lat="44.0831017" lon="12.18892"><ele>67.0</ele><time>2026-04-25T09:54:52.006Z</time></trkpt><trkpt lat="44.0832017" lon="12.1889467"><ele>68.6</ele><time>2026-04-25T09:54:54.007Z</time></trkpt><trkpt lat="44.0833" lon="12.1889833"><ele>70.2</ele><time>2026-04-25T09:54:56.006Z</time></trkpt><trkpt lat="44.0834033" lon="12.1890233"><ele>71.8</ele><time>2026-04-25T09:54:58.006Z</time></trkpt><trkpt lat="44.0835017" lon="12.1890583"><ele>73.4</ele><time>2026-04-25T09:55:00.006Z</time></trkpt><trkpt lat="44.0836183" lon="12.1890917"><ele>75.0</ele><time>2026-04-25T09:55:02.007Z</time></trkpt><trkpt lat="44.0837417" lon="12.189125"><ele>75.0</ele><time>2026-04-25T09:55:04.007Z</time></trkpt><trkpt lat="44.0838483" lon="12.1891783"><ele>75.0</ele><time>2026-04-25T09:55:06.007Z</time></trkpt><trkpt lat="44.083965" lon="12.18922"><ele>75.0</ele><time>2026-04-25T09:55:08.007Z</time></trkpt><trkpt lat="44.0840783" lon="12.189265"><ele>75.0</ele><time>2026-04-25T09:55:10.007Z</time></trkpt><trkpt lat="44.084195" lon="12.1892883"><ele>75.5</ele><time>2026-04-25T09:55:12.007Z</time></trkpt><trkpt lat="44.0843167" lon="12.1893167"><ele>76.0</ele><time>2026-04-25T09:55:14.006Z</time></trkpt><trkpt lat="44.08443" lon="12.1893383"><ele>76.5</ele><time>2026-04-25T09:55:16.007Z</time></trkpt><trkpt lat="44.08455" lon="12.1893667"><ele>77.0</ele><time>2026-04-25T09:55:18.007Z</time></trkpt><trkpt lat="44.084665" lon="12.1894017"><ele>77.0</ele><time>2026-04-25T09:55:20.006Z</time></trkpt><trkpt lat="44.084785" lon="12.1894433"><ele>77.0</ele><time>2026-04-25T09:55:22.007Z</time></trkpt><trkpt lat="44.0848933" lon="12.1894833"><ele>77.0</ele><time>2026-04-25T09:55:24.006Z</time></trkpt><trkpt lat="44.085" lon="12.1895183"><ele>77.0</ele><time>2026-04-25T09:55:26.007Z</time></trkpt><trkpt lat="44.0850933" lon="12.1895717"><ele>77.0</ele><time>2026-04-25T09:55:28.006Z</time></trkpt><trkpt lat="44.085195" lon="12.1896267"><ele>77.25</ele><time>2026-04-25T09:55:30.007Z</time></trkpt><trkpt lat="44.085305" lon="12.1896867"><ele>77.5</ele><time>2026-04-25T09:55:32.007Z</time></trkpt><trkpt lat="44.0854033" lon="12.1897517"><ele>77.75</ele><time>2026-04-25T09:55:34.007Z</time></trkpt><trkpt lat="44.0855067" lon="12.18983"><ele>78.0</ele><time>2026-04-25T09:55:36.006Z</time></trkpt><trkpt lat="44.0855967" lon="12.189915"><ele>77.6</ele><time>2026-04-25T09:55:38.007Z</time></trkpt><trkpt lat="44.0856983" lon="12.18999"><ele>77.19999999999999</ele><time>2026-04-25T09:55:40.006Z</time></trkpt><trkpt lat="44.0857967" lon="12.190055"><ele>76.8</ele><time>2026-04-25T09:55:42.006Z</time></trkpt><trkpt lat="44.0858967" lon="12.19013"><ele>76.39999999999999</ele><time>2026-04-25T09:55:44.007Z</time></trkpt><trkpt lat="44.0859967" lon="12.1901933"><ele>76.0</ele><time>2026-04-25T09:55:46.006Z</time></trkpt><trkpt lat="44.086095" lon="12.1902633"><ele>76.0</ele><time>2026-04-25T09:55:48.007Z</time></trkpt><trkpt lat="44.0861933" lon="12.1903383"><ele>76.0</ele><time>2026-04-25T09:55:50.006Z</time></trkpt><trkpt lat="44.0862933" lon="12.1904133"><ele>76.0</ele><time>2026-04-25T09:55:52.006Z</time></trkpt><trkpt lat="44.0863917" lon="12.1904917"><ele>76.0</ele><time>2026-04-25T09:55:54.007Z</time></trkpt><trkpt lat="44.0864917" lon="12.1905767"><ele>76.0</ele><time>2026-04-25T09:55:56.007Z</time></trkpt><trkpt lat="44.0865833" lon="12.19067"><ele>76.0</ele><time>2026-04-25T09:55:58.007Z</time></trkpt><trkpt lat="44.086685" lon="12.1907633"><ele>76.0</ele><time>2026-04-25T09:56:00.007Z</time></trkpt><trkpt lat="44.08678" lon="12.1908533"><ele>76.0</ele><time>2026-04-25T09:56:02.007Z</time></trkpt><trkpt lat="44.0868767" lon="12.1909483"><ele>75.75</ele><time>2026-04-25T09:56:04.007Z</time></trkpt><trkpt lat="44.08697" lon="12.19104"><ele>75.5</ele><time>2026-04-25T09:56:06.007Z</time></trkpt><trkpt lat="44.0870767" lon="12.191125"><ele>75.25</ele><time>2026-04-25T09:56:08.007Z</time></trkpt><trkpt lat="44.087175" lon="12.1912083"><ele>75.0</ele><time>2026-04-25T09:56:10.006Z</time></trkpt><trkpt lat="44.087275" lon="12.1913"><ele>75.0</ele><time>2026-04-25T09:56:12.006Z</time></trkpt><trkpt lat="44.0873617" lon="12.191385"><ele>75.0</ele><time>2026-04-25T09:56:14.007Z</time></trkpt><trkpt lat="44.087415" lon="12.191435"><ele>75.0</ele><time>2026-04-25T09:56:15.007Z</time></trkpt><trkpt lat="44.0875233" lon="12.1915083"><ele>75.0</ele><time>2026-04-25T09:56:17.007Z</time></trkpt><trkpt lat="44.0876317" lon="12.1915767"><ele>75.0</ele><time>2026-04-25T09:56:19.006Z</time></trkpt><trkpt lat="44.087725" lon="12.1916483"><ele>74.6</ele><time>2026-04-25T09:56:21.007Z</time></trkpt><trkpt lat="44.0878167" lon="12.1917233"><ele>74.2</ele><time>2026-04-25T09:56:23.007Z</time></trkpt><trkpt lat="44.087915" lon="12.1917867"><ele>73.8</ele><time>2026-04-25T09:56:25.007Z</time></trkpt><trkpt lat="44.0880267" lon="12.1918383"><ele>73.4</ele><time>2026-04-25T09:56:27.006Z</time></trkpt><trkpt lat="44.0880833" lon="12.19188"><ele>73.0</ele><time>2026-04-25T09:56:28.006Z</time></trkpt><trkpt lat="44.0881433" lon="12.1919117"><ele>73.0</ele><time>2026-04-25T09:56:29.007Z</time></trkpt><trkpt lat="44.088205" lon="12.1919333"><ele>73.0</ele><time>2026-04-25T09:56:30.007Z</time></trkpt><trkpt lat="44.08832" lon="12.19199"><ele>73.0</ele><time>2026-04-25T09:56:32.007Z</time></trkpt><trkpt lat="44.08843" lon="12.1920433"><ele>73.0</ele><time>2026-04-25T09:56:34.006Z</time></trkpt><trkpt lat="44.088535" lon="12.19209"><ele>73.0</ele><time>2026-04-25T09:56:36.007Z</time></trkpt><trkpt lat="44.0886267" lon="12.1921533"><ele>73.5</ele><time>2026-04-25T09:56:38.006Z</time></trkpt><trkpt lat="44.0887433" lon="12.1921917"><ele>74.0</ele><time>2026-04-25T09:56:40.007Z</time></trkpt><trkpt lat="44.0888533" lon="12.1922267"><ele>74.5</ele><time>2026-04-25T09:56:42.007Z</time></trkpt><trkpt lat="44.0889667" lon="12.1922583"><ele>75.0</ele><time>2026-04-25T09:56:44.007Z</time></trkpt><trkpt lat="44.0890783" lon="12.1923033"><ele>74.8</ele><time>2026-04-25T09:56:46.007Z</time></trkpt><trkpt lat="44.0891917" lon="12.1923217"><ele>74.6</ele><time>2026-04-25T09:56:48.006Z</time></trkpt><trkpt lat="44.0892983" lon="12.1923383"><ele>74.4</ele><time>2026-04-25T09:56:50.007Z</time></trkpt><trkpt lat="44.08941" lon="12.1923483"><ele>74.2</ele><time>2026-04-25T09:56:52.007Z</time></trkpt><trkpt lat="44.089525" lon="12.1923467"><ele>74.0</ele><time>2026-04-25T09:56:54.007Z</time></trkpt><trkpt lat="44.0896433" lon="12.192335"><ele>74.0</ele><time>2026-04-25T09:56:56.007Z</time></trkpt><trkpt lat="44.0897683" lon="12.192315"><ele>74.0</ele><time>2026-04-25T09:56:58.006Z</time></trkpt><trkpt lat="44.0898917" lon="12.19229"><ele>74.0</ele><time>2026-04-25T09:57:00.007Z</time></trkpt><trkpt lat="44.08996" lon="12.1922833"><ele>74.0</ele><time>2026-04-25T09:57:01.007Z</time></trkpt><trkpt lat="44.0900283" lon="12.192275"><ele>74.0</ele><time>2026-04-25T09:57:02.007Z</time></trkpt><trkpt lat="44.0901583" lon="12.19225"><ele>73.66666666666667</ele><time>2026-04-25T09:57:04.007Z</time></trkpt><trkpt lat="44.0902233" lon="12.1922467"><ele>73.33333333333334</ele><time>2026-04-25T09:57:05.007Z</time></trkpt><trkpt lat="44.0902933" lon="12.19223"><ele>73.0</ele><time>2026-04-25T09:57:06.006Z</time></trkpt><trkpt lat="44.09037" lon="12.192215"><ele>72.66666666666667</ele><time>2026-04-25T09:57:07.007Z</time></trkpt><trkpt lat="44.0904467" lon="12.192195"><ele>72.33333333333333</ele><time>2026-04-25T09:57:08.007Z</time></trkpt><trkpt lat="44.0905267" lon="12.1921867"><ele>72.0</ele><time>2026-04-25T09:57:09.006Z</time></trkpt><trkpt lat="44.0906083" lon="12.1921867"><ele>72.0</ele><time>2026-04-25T09:57:10.007Z</time></trkpt><trkpt lat="44.0906883" lon="12.1921817"><ele>72.0</ele><time>2026-04-25T09:57:11.007Z</time></trkpt><trkpt lat="44.0907667" lon="12.192175"><ele>72.0</ele><time>2026-04-25T09:57:12.006Z</time></trkpt><trkpt lat="44.0908433" lon="12.1921683"><ele>72.0</ele><time>2026-04-25T09:57:13.006Z</time></trkpt><trkpt lat="44.0909167" lon="12.19218"><ele>72.0</ele><time>2026-04-25T09:57:14.007Z</time></trkpt><trkpt lat="44.09099" lon="12.192195"><ele>72.0</ele><time>2026-04-25T09:57:15.007Z</time></trkpt><trkpt lat="44.0910583" lon="12.1922233"><ele>71.2</ele><time>2026-04-25T09:57:16.006Z</time></trkpt><trkpt lat="44.091125" lon="12.1922567"><ele>70.4</ele><time>2026-04-25T09:57:17.007Z</time></trkpt><trkpt lat="44.09123" lon="12.1923133"><ele>69.6</ele><time>2026-04-25T09:57:19.006Z</time></trkpt><trkpt lat="44.0913267" lon="12.1923633"><ele>68.8</ele><time>2026-04-25T09:57:21.007Z</time></trkpt><trkpt lat="44.0914217" lon="12.1924083"><ele>68.0</ele><time>2026-04-25T09:57:23.006Z</time></trkpt><trkpt lat="44.09151" lon="12.1924567"><ele>68.6</ele><time>2026-04-25T09:57:25.007Z</time></trkpt><trkpt lat="44.0915917" lon="12.1924983"><ele>69.19999999999999</ele><time>2026-04-25T09:57:27.007Z</time></trkpt><trkpt lat="44.09168" lon="12.19253"><ele>69.8</ele><time>2026-04-25T09:57:29.007Z</time></trkpt><trkpt lat="44.091765" lon="12.1925817"><ele>70.39999999999999</ele><time>2026-04-25T09:57:31.007Z</time></trkpt><trkpt lat="44.0918633" lon="12.19261"><ele>71.0</ele><time>2026-04-25T09:57:33.006Z</time></trkpt><trkpt lat="44.0919667" lon="12.1926633"><ele>71.0</ele><time>2026-04-25T09:57:35.007Z</time></trkpt><trkpt lat="44.09207" lon="12.1927233"><ele>71.0</ele><time>2026-04-25T09:57:37.007Z</time></trkpt><trkpt lat="44.0921733" lon="12.1927817"><ele>71.0</ele><time>2026-04-25T09:57:39.006Z</time></trkpt><trkpt lat="44.0922783" lon="12.1928333"><ele>71.0</ele><time>2026-04-25T09:57:41.006Z</time></trkpt><trkpt lat="44.092375" lon="12.192885"><ele>71.0</ele><time>2026-04-25T09:57:43.007Z</time></trkpt><trkpt lat="44.092475" lon="12.1929417"><ele>71.39999999999999</ele><time>2026-04-25T09:57:45.006Z</time></trkpt><trkpt lat="44.0925717" lon="12.193"><ele>71.8</ele><time>2026-04-25T09:57:47.007Z</time></trkpt><trkpt lat="44.0926717" lon="12.1930533"><ele>72.19999999999999</ele><time>2026-04-25T09:57:49.007Z</time></trkpt><trkpt lat="44.092765" lon="12.1931"><ele>72.6</ele><time>2026-04-25T09:57:51.006Z</time></trkpt><trkpt lat="44.0928617" lon="12.1930733"><ele>73.0</ele><time>2026-04-25T09:57:53.007Z</time></trkpt><trkpt lat="44.0929333" lon="12.1929567"><ele>73.0</ele><time>2026-04-25T09:57:55.007Z</time></trkpt><trkpt lat="44.0929767" lon="12.1928467"><ele>73.0</ele><time>2026-04-25T09:57:57.007Z</time></trkpt><trkpt lat="44.0930217" lon="12.19274"><ele>73.0</ele><time>2026-04-25T09:57:59.007Z</time></trkpt><trkpt lat="44.09307" lon="12.19264"><ele>73.0</ele><time>2026-04-25T09:58:01.006Z</time></trkpt><trkpt lat="44.0931117" lon="12.1925317"><ele>73.0</ele><time>2026-04-25T09:58:03.006Z</time></trkpt><trkpt lat="44.0931517" lon="12.192425"><ele>73.0</ele><time>2026-04-25T09:58:05.006Z</time></trkpt><trkpt lat="44.0932033" lon="12.19233"><ele>73.33333333333333</ele><time>2026-04-25T09:58:07.007Z</time></trkpt><trkpt lat="44.0932483" lon="12.1922367"><ele>73.66666666666666</ele><time>2026-04-25T09:58:09.007Z</time></trkpt><trkpt lat="44.0932917" lon="12.192145"><ele>74.0</ele><time>2026-04-25T09:58:11.006Z</time></trkpt><trkpt lat="44.09334" lon="12.192035"><ele>74.33333333333333</ele><time>2026-04-25T09:58:13.007Z</time></trkpt><trkpt lat="44.093375" lon="12.1919283"><ele>74.66666666666667</ele><time>2026-04-25T09:58:15.007Z</time></trkpt><trkpt lat="44.0934183" lon="12.19182"><ele>75.0</ele><time>2026-04-25T09:58:17.007Z</time></trkpt><trkpt lat="44.0934683" lon="12.191735"><ele>75.0</ele><time>2026-04-25T09:58:19.006Z</time></trkpt><trkpt lat="44.0935117" lon="12.1916417"><ele>75.0</ele><time>2026-04-25T09:58:21.007Z</time></trkpt><trkpt lat="44.093555" lon="12.191555"><ele>75.0</ele><time>2026-04-25T09:58:23.007Z</time></trkpt><trkpt lat="44.0935917" lon="12.19147"><ele>75.0</ele><time>2026-04-25T09:58:25.006Z</time></trkpt><trkpt lat="44.09364" lon="12.1913783"><ele>75.0</ele><time>2026-04-25T09:58:27.007Z</time></trkpt><trkpt lat="44.0936717" lon="12.1912967"><ele>75.0</ele><time>2026-04-25T09:58:29.007Z</time></trkpt><trkpt lat="44.0937033" lon="12.1912"><ele>75.28571428571428</ele><time>2026-04-25T09:58:31.007Z</time></trkpt><trkpt lat="44.0937467" lon="12.191115"><ele>75.57142857142857</ele><time>2026-04-25T09:58:33.007Z</time></trkpt><trkpt lat="44.0937833" lon="12.1910333"><ele>75.85714285714286</ele><time>2026-04-25T09:58:35.006Z</time></trkpt><trkpt lat="44.093825" lon="12.19095"><ele>76.14285714285714</ele><time>2026-04-25T09:58:37.006Z</time></trkpt><trkpt lat="44.093855" lon="12.1908533"><ele>76.42857142857143</ele><time>2026-04-25T09:58:39.006Z</time></trkpt><trkpt lat="44.0938917" lon="12.1907617"><ele>76.71428571428571</ele><time>2026-04-25T09:58:41.005Z</time></trkpt><trkpt lat="44.0939333" lon="12.1906767"><ele>77.0</ele><time>2026-04-25T09:58:43.005Z</time></trkpt><trkpt lat="44.0939783" lon="12.1905867"><ele>77.33333333333334</ele><time>2026-04-25T09:58:45.005Z</time></trkpt><trkpt lat="44.0940167" lon="12.1904917"><ele>77.66666666666667</ele><time>2026-04-25T09:58:47.005Z</time></trkpt><trkpt lat="44.0940583" lon="12.1904067"><ele>78.0</ele><time>2026-04-25T09:58:49.005Z</time></trkpt><trkpt lat="44.0940967" lon="12.1903117"><ele>78.33333333333333</ele><time>2026-04-25T09:58:51.006Z</time></trkpt><trkpt lat="44.0941417" lon="12.1902183"><ele>78.66666666666666</ele><time>2026-04-25T09:58:53.006Z</time></trkpt><trkpt lat="44.094185" lon="12.19012"><ele>79.0</ele><time>2026-04-25T09:58:55.006Z</time></trkpt><trkpt lat="44.09422" lon="12.1900333"><ele>79.00000000000001</ele><time>2026-04-25T09:58:57.006Z</time></trkpt><trkpt lat="44.0942567" lon="12.1899583"><ele>79.0</ele><time>2026-04-25T09:58:59.005Z</time></trkpt><trkpt lat="44.09429" lon="12.1898783"><ele>79.0</ele><time>2026-04-25T09:59:01.005Z</time></trkpt><trkpt lat="44.0943283" lon="12.1897917"><ele>79.0</ele><time>2026-04-25T09:59:03.006Z</time></trkpt><trkpt lat="44.0943633" lon="12.1897067"><ele>79.0</ele><time>2026-04-25T09:59:05.006Z</time></trkpt><trkpt lat="44.094395" lon="12.1896233"><ele>79.00000000000001</ele><time>2026-04-25T09:59:07.006Z</time></trkpt><trkpt lat="44.0944383" lon="12.189545"><ele>79.0</ele><time>2026-04-25T09:59:09.006Z</time></trkpt><trkpt lat="44.0945367" lon="12.1895483"><ele>78.2</ele><time>2026-04-25T09:59:12.006Z</time></trkpt><trkpt lat="44.0946183" lon="12.18962"><ele>77.4</ele><time>2026-04-25T09:59:14.006Z</time></trkpt><trkpt lat="44.09472" lon="12.1896967"><ele>76.6</ele><time>2026-04-25T09:59:16.006Z</time></trkpt><trkpt lat="44.0948267" lon="12.1897683"><ele>75.8</ele><time>2026-04-25T09:59:18.006Z</time></trkpt><trkpt lat="44.0948867" lon="12.189815"><ele>75.0</ele><time>2026-04-25T09:59:19.005Z</time></trkpt><trkpt lat="44.0949417" lon="12.1898583"><ele>74.99999999999999</ele><time>2026-04-25T09:59:20.006Z</time></trkpt><trkpt lat="44.095005" lon="12.189905"><ele>75.0</ele><time>2026-04-25T09:59:21.006Z</time></trkpt><trkpt lat="44.0950667" lon="12.1899533"><ele>75.0</ele><time>2026-04-25T09:59:22.006Z</time></trkpt><trkpt lat="44.0951283" lon="12.1900033"><ele>75.0</ele><time>2026-04-25T09:59:23.005Z</time></trkpt><trkpt lat="44.0951917" lon="12.1900567"><ele>75.0</ele><time>2026-04-25T09:59:24.006Z</time></trkpt><trkpt lat="44.095255" lon="12.190105"><ele>74.99999999999999</ele><time>2026-04-25T09:59:25.005Z</time></trkpt><trkpt lat="44.0953183" lon="12.190155"><ele>75.0</ele><time>2026-04-25T09:59:26.006Z</time></trkpt><trkpt lat="44.0953833" lon="12.1902067"><ele>75.0</ele><time>2026-04-25T09:59:27.006Z</time></trkpt><trkpt lat="44.0954517" lon="12.19026"><ele>75.0</ele><time>2026-04-25T09:59:28.005Z</time></trkpt><trkpt lat="44.095525" lon="12.19031"><ele>75.0</ele><time>2026-04-25T09:59:29.006Z</time></trkpt><trkpt lat="44.0955883" lon="12.1903633"><ele>75.0</ele><time>2026-04-25T09:59:30.006Z</time></trkpt><trkpt lat="44.09565" lon="12.19042"><ele>75.0</ele><time>2026-04-25T09:59:31.006Z</time></trkpt><trkpt lat="44.095715" lon="12.1904767"><ele>75.0</ele><time>2026-04-25T09:59:32.006Z</time></trkpt><trkpt lat="44.0957817" lon="12.1905317"><ele>74.85714285714285</ele><time>2026-04-25T09:59:33.005Z</time></trkpt><trkpt lat="44.0958483" lon="12.19059"><ele>74.71428571428571</ele><time>2026-04-25T09:59:34.006Z</time></trkpt><trkpt lat="44.0959133" lon="12.190645"><ele>74.57142857142857</ele><time>2026-04-25T09:59:35.006Z</time></trkpt><trkpt lat="44.0959733" lon="12.1906967"><ele>74.42857142857142</ele><time>2026-04-25T09:59:36.006Z</time></trkpt><trkpt lat="44.096035" lon="12.1907483"><ele>74.28571428571428</ele><time>2026-04-25T09:59:37.006Z</time></trkpt><trkpt lat="44.0961" lon="12.1907983"><ele>74.14285714285714</ele><time>2026-04-25T09:59:38.005Z</time></trkpt><trkpt lat="44.09617" lon="12.190845"><ele>74.0</ele><time>2026-04-25T09:59:39.006Z</time></trkpt><trkpt lat="44.0962383" lon="12.1909"><ele>73.85714285714286</ele><time>2026-04-25T09:59:40.006Z</time></trkpt><trkpt lat="44.0962983" lon="12.1909533"><ele>73.71428571428571</ele><time>2026-04-25T09:59:41.006Z</time></trkpt><trkpt lat="44.0963633" lon="12.1910033"><ele>73.57142857142857</ele><time>2026-04-25T09:59:42.005Z</time></trkpt><trkpt lat="44.096425" lon="12.191055"><ele>73.42857142857143</ele><time>2026-04-25T09:59:43.005Z</time></trkpt><trkpt lat="44.0964883" lon="12.1911017"><ele>73.28571428571429</ele><time>2026-04-25T09:59:44.006Z</time></trkpt><trkpt lat="44.0965467" lon="12.1911517"><ele>73.14285714285714</ele><time>2026-04-25T09:59:45.005Z</time></trkpt><trkpt lat="44.0966067" lon="12.1912"><ele>73.0</ele><time>2026-04-25T09:59:46.006Z</time></trkpt><trkpt lat="44.0966683" lon="12.19125"><ele>72.71428571428571</ele><time>2026-04-25T09:59:47.006Z</time></trkpt><trkpt lat="44.0967283" lon="12.1912983"><ele>72.42857142857143</ele><time>2026-04-25T09:59:48.006Z</time></trkpt><trkpt lat="44.09679" lon="12.1913467"><ele>72.14285714285714</ele><time>2026-04-25T09:59:49.006Z</time></trkpt><trkpt lat="44.09685" lon="12.191395"><ele>71.85714285714286</ele><time>2026-04-25T09:59:50.005Z</time></trkpt><trkpt lat="44.09691" lon="12.191445"><ele>71.57142857142857</ele><time>2026-04-25T09:59:51.006Z</time></trkpt><trkpt lat="44.0969683" lon="12.1914917"><ele>71.28571428571428</ele><time>2026-04-25T09:59:52.005Z</time></trkpt><trkpt lat="44.0970267" lon="12.1915383"><ele>71.0</ele><time>2026-04-25T09:59:53.005Z</time></trkpt><trkpt lat="44.0970833" lon="12.1915833"><ele>71.0</ele><time>2026-04-25T09:59:54.006Z</time></trkpt><trkpt lat="44.0971933" lon="12.1916683"><ele>71.0</ele><time>2026-04-25T09:59:56.005Z</time></trkpt><trkpt lat="44.0973017" lon="12.1917567"><ele>71.0</ele><time>2026-04-25T09:59:58.005Z</time></trkpt><trkpt lat="44.0973617" lon="12.1917983"><ele>71.0</ele><time>2026-04-25T09:59:59.006Z</time></trkpt><trkpt lat="44.0974283" lon="12.1918317"><ele>71.0</ele><time>2026-04-25T10:00:00.006Z</time></trkpt><trkpt lat="44.0975333" lon="12.1919167"><ele>70.39999999999999</ele><time>2026-04-25T10:00:02.006Z</time></trkpt><trkpt lat="44.0976233" lon="12.1920067"><ele>69.8</ele><time>2026-04-25T10:00:04.005Z</time></trkpt><trkpt lat="44.0977267" lon="12.192075"><ele>69.19999999999999</ele><time>2026-04-25T10:00:06.006Z</time></trkpt><trkpt lat="44.0978317" lon="12.1921067"><ele>68.6</ele><time>2026-04-25T10:00:08.006Z</time></trkpt><trkpt lat="44.09794" lon="12.1921183"><ele>68.0</ele><time>2026-04-25T10:00:10.006Z</time></trkpt><trkpt lat="44.0980417" lon="12.1921333"><ele>68.0</ele><time>2026-04-25T10:00:12.005Z</time></trkpt><trkpt lat="44.09815" lon="12.1921533"><ele>68.0</ele><time>2026-04-25T10:00:14.006Z</time></trkpt><trkpt lat="44.0982483" lon="12.19214"><ele>68.0</ele><time>2026-04-25T10:00:16.005Z</time></trkpt><trkpt lat="44.0983233" lon="12.19207"><ele>68.0</ele><time>2026-04-25T10:00:18.005Z</time></trkpt><trkpt lat="44.0983717" lon="12.1919817"><ele>68.0</ele><time>2026-04-25T10:00:20.006Z</time></trkpt><trkpt lat="44.0984083" lon="12.1919033"><ele>68.0</ele><time>2026-04-25T10:00:22.006Z</time></trkpt><trkpt lat="44.0984583" lon="12.191815"><ele>68.33333333333334</ele><time>2026-04-25T10:00:25.005Z</time></trkpt><trkpt lat="44.0985233" lon="12.1918367"><ele>68.66666666666667</ele><time>2026-04-25T10:00:30.005Z</time></trkpt><trkpt lat="44.09859" lon="12.1918733"><ele>69.0</ele><time>2026-04-25T10:00:33.006Z</time></trkpt><trkpt lat="44.0986417" lon="12.1919333"><ele>69.33333333333333</ele><time>2026-04-25T10:00:35.005Z</time></trkpt><trkpt lat="44.09869" lon="12.1920133"><ele>69.66666666666666</ele><time>2026-04-25T10:00:37.006Z</time></trkpt><trkpt lat="44.098755" lon="12.1920917"><ele>70.0</ele><time>2026-04-25T10:00:39.006Z</time></trkpt><trkpt lat="44.0988367" lon="12.1921533"><ele>70.0</ele><time>2026-04-25T10:00:41.006Z</time></trkpt><trkpt lat="44.09892" lon="12.19223"><ele>70.0</ele><time>2026-04-25T10:00:43.005Z</time></trkpt><trkpt lat="44.0990017" lon="12.19232"><ele>70.0</ele><time>2026-04-25T10:00:45.005Z</time></trkpt><trkpt lat="44.0990933" lon="12.192405"><ele>70.0</ele><time>2026-04-25T10:00:47.005Z</time></trkpt><trkpt lat="44.0991917" lon="12.1925017"><ele>70.0</ele><time>2026-04-25T10:00:49.006Z</time></trkpt><trkpt lat="44.099285" lon="12.1925967"><ele>69.5</ele><time>2026-04-25T10:00:51.006Z</time></trkpt><trkpt lat="44.099385" lon="12.1926917"><ele>69.0</ele><time>2026-04-25T10:00:53.006Z</time></trkpt><trkpt lat="44.0994867" lon="12.1927767"><ele>68.5</ele><time>2026-04-25T10:00:55.006Z</time></trkpt><trkpt lat="44.09958" lon="12.192865"><ele>68.0</ele><time>2026-04-25T10:00:57.006Z</time></trkpt><trkpt lat="44.09968" lon="12.19295"><ele>68.0</ele><time>2026-04-25T10:00:59.006Z</time></trkpt><trkpt lat="44.0997867" lon="12.1930367"><ele>68.0</ele><time>2026-04-25T10:01:01.005Z</time></trkpt><trkpt lat="44.0998783" lon="12.1931367"><ele>68.0</ele><time>2026-04-25T10:01:03.005Z</time></trkpt><trkpt lat="44.0999767" lon="12.1932283"><ele>68.0</ele><time>2026-04-25T10:01:05.006Z</time></trkpt><trkpt lat="44.100075" lon="12.1933183"><ele>67.8</ele><time>2026-04-25T10:01:07.006Z</time></trkpt><trkpt lat="44.1001767" lon="12.1934067"><ele>67.6</ele><time>2026-04-25T10:01:09.005Z</time></trkpt><trkpt lat="44.1002733" lon="12.1935"><ele>67.4</ele><time>2026-04-25T10:01:11.006Z</time></trkpt><trkpt lat="44.1003267" lon="12.1935483"><ele>67.2</ele><time>2026-04-25T10:01:12.006Z</time></trkpt><trkpt lat="44.10042" lon="12.193635"><ele>67.0</ele><time>2026-04-25T10:01:14.005Z</time></trkpt><trkpt lat="44.1005083" lon="12.1937217"><ele>67.0</ele><time>2026-04-25T10:01:16.006Z</time></trkpt><trkpt lat="44.100585" lon="12.1938067"><ele>67.0</ele><time>2026-04-25T10:01:18.006Z</time></trkpt><trkpt lat="44.100655" lon="12.1939117"><ele>67.0</ele><time>2026-04-25T10:01:20.006Z</time></trkpt><trkpt lat="44.10068" lon="12.1940567"><ele>67.0</ele><time>2026-04-25T10:01:22.006Z</time></trkpt><trkpt lat="44.10067" lon="12.1942117"><ele>67.0</ele><time>2026-04-25T10:01:24.006Z</time></trkpt><trkpt lat="44.10065" lon="12.1943633"><ele>66.5</ele><time>2026-04-25T10:01:26.006Z</time></trkpt><trkpt lat="44.100635" lon="12.1945083"><ele>66.0</ele><time>2026-04-25T10:01:28.005Z</time></trkpt><trkpt lat="44.1006217" lon="12.19466"><ele>65.5</ele><time>2026-04-25T10:01:30.006Z</time></trkpt><trkpt lat="44.100595" lon="12.1948217"><ele>65.0</ele><time>2026-04-25T10:01:32.006Z</time></trkpt><trkpt lat="44.100565" lon="12.1949783"><ele>64.8</ele><time>2026-04-25T10:01:34.006Z</time></trkpt><trkpt lat="44.1005417" lon="12.1951367"><ele>64.6</ele><time>2026-04-25T10:01:36.005Z</time></trkpt><trkpt lat="44.1005217" lon="12.1953117"><ele>64.4</ele><time>2026-04-25T10:01:38.006Z</time></trkpt><trkpt lat="44.1005083" lon="12.1953983"><ele>64.2</ele><time>2026-04-25T10:01:39.006Z</time></trkpt><trkpt lat="44.1004967" lon="12.1955717"><ele>64.0</ele><time>2026-04-25T10:01:41.006Z</time></trkpt><trkpt lat="44.1004917" lon="12.195665"><ele>64.0</ele><time>2026-04-25T10:01:42.005Z</time></trkpt><trkpt lat="44.1004817" lon="12.1957617"><ele>63.99999999999999</ele><time>2026-04-25T10:01:43.006Z</time></trkpt><trkpt lat="44.10047" lon="12.195855"><ele>64.0</ele><time>2026-04-25T10:01:44.006Z</time></trkpt><trkpt lat="44.1004533" lon="12.1959517"><ele>64.0</ele><time>2026-04-25T10:01:45.005Z</time></trkpt><trkpt lat="44.100445" lon="12.1960483"><ele>63.99999999999999</ele><time>2026-04-25T10:01:46.005Z</time></trkpt><trkpt lat="44.1004317" lon="12.1961417"><ele>64.0</ele><time>2026-04-25T10:01:47.006Z</time></trkpt><trkpt lat="44.1004183" lon="12.1962367"><ele>64.0</ele><time>2026-04-25T10:01:48.006Z</time></trkpt><trkpt lat="44.10041" lon="12.1963367"><ele>64.0</ele><time>2026-04-25T10:01:49.006Z</time></trkpt><trkpt lat="44.1003967" lon="12.19643"><ele>63.99999999999999</ele><time>2026-04-25T10:01:50.005Z</time></trkpt><trkpt lat="44.1003867" lon="12.19653"><ele>64.0</ele><time>2026-04-25T10:01:51.006Z</time></trkpt><trkpt lat="44.10037" lon="12.19663"><ele>64.0</ele><time>2026-04-25T10:01:52.005Z</time></trkpt><trkpt lat="44.1003583" lon="12.196725"><ele>63.99999999999999</ele><time>2026-04-25T10:01:53.006Z</time></trkpt><trkpt lat="44.1003433" lon="12.196825"><ele>64.0</ele><time>2026-04-25T10:01:54.006Z</time></trkpt><trkpt lat="44.100325" lon="12.1969183"><ele>64.0</ele><time>2026-04-25T10:01:55.006Z</time></trkpt><trkpt lat="44.100305" lon="12.19701"><ele>63.57142857142857</ele><time>2026-04-25T10:01:56.006Z</time></trkpt><trkpt lat="44.10028" lon="12.197105"><ele>63.14285714285714</ele><time>2026-04-25T10:01:57.006Z</time></trkpt><trkpt lat="44.1002483" lon="12.1972017"><ele>62.71428571428571</ele><time>2026-04-25T10:01:58.006Z</time></trkpt><trkpt lat="44.1002233" lon="12.1972917"><ele>62.28571428571428</ele><time>2026-04-25T10:01:59.006Z</time></trkpt><trkpt lat="44.1001983" lon="12.197375"><ele>61.857142857142854</ele><time>2026-04-25T10:02:00.005Z</time></trkpt><trkpt lat="44.1001767" lon="12.1975"><ele>61.428571428571416</ele><time>2026-04-25T10:02:02.006Z</time></trkpt><trkpt lat="44.1001683" lon="12.19759"><ele>60.99999999999999</ele><time>2026-04-25T10:02:07.005Z</time></trkpt><trkpt lat="44.1001433" lon="12.1976817"><ele>61.0</ele><time>2026-04-25T10:02:11.005Z</time></trkpt><trkpt lat="44.1002217" lon="12.1977033"><ele>60.99999999999999</ele><time>2026-04-25T10:02:14.005Z</time></trkpt><trkpt lat="44.1002983" lon="12.1977"><ele>60.99999999999999</ele><time>2026-04-25T10:02:16.004Z</time></trkpt><trkpt lat="44.1003833" lon="12.1976883"><ele>61.0</ele><time>2026-04-25T10:02:18.004Z</time></trkpt><trkpt lat="44.1004867" lon="12.1976917"><ele>61.0</ele><time>2026-04-25T10:02:20.005Z</time></trkpt><trkpt lat="44.100595" lon="12.1976883"><ele>60.99999999999999</ele><time>2026-04-25T10:02:22.004Z</time></trkpt><trkpt lat="44.1007083" lon="12.1976883"><ele>61.0</ele><time>2026-04-25T10:02:24.005Z</time></trkpt><trkpt lat="44.1008283" lon="12.197685"><ele>61.0</ele><time>2026-04-25T10:02:26.005Z</time></trkpt><trkpt lat="44.1008917" lon="12.1976833"><ele>61.0</ele><time>2026-04-25T10:02:27.004Z</time></trkpt><trkpt lat="44.1009567" lon="12.19768"><ele>60.99999999999999</ele><time>2026-04-25T10:02:28.005Z</time></trkpt><trkpt lat="44.101025" lon="12.19768"><ele>61.0</ele><time>2026-04-25T10:02:29.005Z</time></trkpt><trkpt lat="44.10114" lon="12.1976683"><ele>60.99999999999999</ele><time>2026-04-25T10:02:31.005Z</time></trkpt><trkpt lat="44.101245" lon="12.19764"><ele>61.0</ele><time>2026-04-25T10:02:33.005Z</time></trkpt><trkpt lat="44.1013067" lon="12.197605"><ele>61.0</ele><time>2026-04-25T10:02:34.005Z</time></trkpt><trkpt lat="44.1013633" lon="12.1975617"><ele>61.0</ele><time>2026-04-25T10:02:35.005Z</time></trkpt><trkpt lat="44.10142" lon="12.19752"><ele>60.99999999999999</ele><time>2026-04-25T10:02:36.005Z</time></trkpt><trkpt lat="44.1015217" lon="12.197415"><ele>61.0</ele><time>2026-04-25T10:02:38.005Z</time></trkpt><trkpt lat="44.1016267" lon="12.1973133"><ele>60.99999999999999</ele><time>2026-04-25T10:02:40.004Z</time></trkpt><trkpt lat="44.1017217" lon="12.1972067"><ele>61.0</ele><time>2026-04-25T10:02:42.005Z</time></trkpt><trkpt lat="44.1017717" lon="12.197145"><ele>61.0</ele><time>2026-04-25T10:02:43.004Z</time></trkpt><trkpt lat="44.1018717" lon="12.1970383"><ele>61.0</ele><time>2026-04-25T10:02:45.005Z</time></trkpt><trkpt lat="44.1019233" lon="12.196985"><ele>60.99999999999999</ele><time>2026-04-25T10:02:46.004Z</time></trkpt><trkpt lat="44.10198" lon="12.1969333"><ele>61.0</ele><time>2026-04-25T10:02:47.005Z</time></trkpt><trkpt lat="44.1020383" lon="12.1968733"><ele>60.99999999999999</ele><time>2026-04-25T10:02:48.004Z</time></trkpt><trkpt lat="44.102095" lon="12.1968183"><ele>61.0</ele><time>2026-04-25T10:02:49.005Z</time></trkpt><trkpt lat="44.10215" lon="12.196765"><ele>60.99999999999999</ele><time>2026-04-25T10:02:50.004Z</time></trkpt><trkpt lat="44.1022067" lon="12.1967117"><ele>60.99999999999999</ele><time>2026-04-25T10:02:51.004Z</time></trkpt><trkpt lat="44.1022667" lon="12.196665"><ele>61.0</ele><time>2026-04-25T10:02:52.004Z</time></trkpt><trkpt lat="44.10233" lon="12.1966233"><ele>60.99999999999999</ele><time>2026-04-25T10:02:53.005Z</time></trkpt><trkpt lat="44.1023967" lon="12.1965867"><ele>60.99999999999999</ele><time>2026-04-25T10:02:54.005Z</time></trkpt><trkpt lat="44.10246" lon="12.1965517"><ele>60.666666666666664</ele><time>2026-04-25T10:02:55.005Z</time></trkpt><trkpt lat="44.1025233" lon="12.1965233"><ele>60.33333333333333</ele><time>2026-04-25T10:02:56.004Z</time></trkpt><trkpt lat="44.1025867" lon="12.1965"><ele>60.0</ele><time>2026-04-25T10:02:57.004Z</time></trkpt><trkpt lat="44.1026483" lon="12.1964767"><ele>59.66666666666667</ele><time>2026-04-25T10:02:58.005Z</time></trkpt><trkpt lat="44.1027683" lon="12.196435"><ele>59.333333333333336</ele><time>2026-04-25T10:03:00.004Z</time></trkpt><trkpt lat="44.1028917" lon="12.1963917"><ele>59.0</ele><time>2026-04-25T10:03:02.004Z</time></trkpt><trkpt lat="44.1030117" lon="12.1963783"><ele>59.0</ele><time>2026-04-25T10:03:04.004Z</time></trkpt><trkpt lat="44.103135" lon="12.1963533"><ele>59.0</ele><time>2026-04-25T10:03:06.005Z</time></trkpt><trkpt lat="44.10325" lon="12.1963383"><ele>59.0</ele><time>2026-04-25T10:03:08.004Z</time></trkpt><trkpt lat="44.103365" lon="12.1963083"><ele>59.0</ele><time>2026-04-25T10:03:10.005Z</time></trkpt><trkpt lat="44.1034783" lon="12.196275"><ele>59.5</ele><time>2026-04-25T10:03:12.005Z</time></trkpt><trkpt lat="44.10358" lon="12.1962367"><ele>60.0</ele><time>2026-04-25T10:03:14.004Z</time></trkpt><trkpt lat="44.1036917" lon="12.196215"><ele>60.5</ele><time>2026-04-25T10:03:16.005Z</time></trkpt><trkpt lat="44.1038083" lon="12.1962067"><ele>61.0</ele><time>2026-04-25T10:03:18.005Z</time></trkpt><trkpt lat="44.1039283" lon="12.1961867"><ele>60.99999999999999</ele><time>2026-04-25T10:03:20.004Z</time></trkpt><trkpt lat="44.1040483" lon="12.1962033"><ele>61.0</ele><time>2026-04-25T10:03:22.004Z</time></trkpt><trkpt lat="44.1041667" lon="12.196205"><ele>61.0</ele><time>2026-04-25T10:03:24.004Z</time></trkpt><trkpt lat="44.10423" lon="12.19621"><ele>61.0</ele><time>2026-04-25T10:03:25.005Z</time></trkpt><trkpt lat="44.1042967" lon="12.1962083"><ele>60.99999999999999</ele><time>2026-04-25T10:03:26.005Z</time></trkpt><trkpt lat="44.10437" lon="12.1962067"><ele>61.0</ele><time>2026-04-25T10:03:27.004Z</time></trkpt><trkpt lat="44.1044417" lon="12.19621"><ele>61.0</ele><time>2026-04-25T10:03:28.005Z</time></trkpt><trkpt lat="44.104515" lon="12.1962167"><ele>60.99999999999999</ele><time>2026-04-25T10:03:29.004Z</time></trkpt><trkpt lat="44.1045783" lon="12.1962217"><ele>60.99999999999999</ele><time>2026-04-25T10:03:30.005Z</time></trkpt><trkpt lat="44.1046983" lon="12.1962317"><ele>61.0</ele><time>2026-04-25T10:03:32.005Z</time></trkpt><trkpt lat="44.1048133" lon="12.196235"><ele>61.0</ele><time>2026-04-25T10:03:34.005Z</time></trkpt><trkpt lat="44.104935" lon="12.196235"><ele>61.0</ele><time>2026-04-25T10:03:36.005Z</time></trkpt><trkpt lat="44.105055" lon="12.19623"><ele>60.99999999999999</ele><time>2026-04-25T10:03:38.004Z</time></trkpt><trkpt lat="44.105175" lon="12.1962367"><ele>60.99999999999999</ele><time>2026-04-25T10:03:40.005Z</time></trkpt><trkpt lat="44.1052417" lon="12.19624"><ele>61.0</ele><time>2026-04-25T10:03:41.005Z</time></trkpt><trkpt lat="44.105365" lon="12.196255"><ele>61.0</ele><time>2026-04-25T10:03:43.005Z</time></trkpt><trkpt lat="44.10548" lon="12.1962667"><ele>61.0</ele><time>2026-04-25T10:03:45.005Z</time></trkpt><trkpt lat="44.1055867" lon="12.1962683"><ele>60.99999999999999</ele><time>2026-04-25T10:03:47.005Z</time></trkpt><trkpt lat="44.105695" lon="12.1962883"><ele>60.99999999999999</ele><time>2026-04-25T10:03:49.005Z</time></trkpt><trkpt lat="44.1057933" lon="12.1962883"><ele>61.0</ele><time>2026-04-25T10:03:51.005Z</time></trkpt><trkpt lat="44.1058833" lon="12.1962833"><ele>61.0</ele><time>2026-04-25T10:03:53.005Z</time></trkpt><trkpt lat="44.1059717" lon="12.1962767"><ele>60.71428571428571</ele><time>2026-04-25T10:03:55.005Z</time></trkpt><trkpt lat="44.1060483" lon="12.1962867"><ele>60.42857142857143</ele><time>2026-04-25T10:03:57.004Z</time></trkpt><trkpt lat="44.106115" lon="12.1963417"><ele>60.14285714285714</ele><time>2026-04-25T10:03:59.005Z</time></trkpt><trkpt lat="44.1061833" lon="12.1963217"><ele>59.857142857142854</ele><time>2026-04-25T10:04:02.005Z</time></trkpt><trkpt lat="44.1062133" lon="12.1962417"><ele>59.57142857142857</ele><time>2026-04-25T10:04:05.004Z</time></trkpt><trkpt lat="44.1062267" lon="12.1961483"><ele>59.285714285714285</ele><time>2026-04-25T10:04:08.005Z</time></trkpt><trkpt lat="44.1062233" lon="12.19605"><ele>59.0</ele><time>2026-04-25T10:04:12.005Z</time></trkpt><trkpt lat="44.1061917" lon="12.19592"><ele>59.00000000000001</ele><time>2026-04-25T10:04:39.005Z</time></trkpt><trkpt lat="44.10614" lon="12.19585"><ele>59.0</ele><time>2026-04-25T10:04:42.004Z</time></trkpt><trkpt lat="44.1060967" lon="12.195755"><ele>59.0</ele><time>2026-04-25T10:04:45.005Z</time></trkpt><trkpt lat="44.106135" lon="12.1956617"><ele>59.0</ele><time>2026-04-25T10:04:47.004Z</time></trkpt><trkpt lat="44.1061833" lon="12.1955467"><ele>59.00000000000001</ele><time>2026-04-25T10:04:49.005Z</time></trkpt><trkpt lat="44.1062383" lon="12.19541"><ele>59.0</ele><time>2026-04-25T10:04:51.004Z</time></trkpt><trkpt lat="44.106295" lon="12.19527"><ele>59.5</ele><time>2026-04-25T10:04:53.005Z</time></trkpt><trkpt lat="44.1063533" lon="12.1951267"><ele>60.0</ele><time>2026-04-25T10:04:55.005Z</time></trkpt><trkpt lat="44.10642" lon="12.1949833"><ele>60.5</ele><time>2026-04-25T10:04:57.005Z</time></trkpt><trkpt lat="44.10648" lon="12.1948483"><ele>61.0</ele><time>2026-04-25T10:04:59.004Z</time></trkpt><trkpt lat="44.1065433" lon="12.19471"><ele>61.0</ele><time>2026-04-25T10:05:01.005Z</time></trkpt><trkpt lat="44.1066067" lon="12.194565"><ele>61.0</ele><time>2026-04-25T10:05:03.004Z</time></trkpt><trkpt lat="44.106665" lon="12.1944383"><ele>61.0</ele><time>2026-04-25T10:05:05.005Z</time></trkpt><trkpt lat="44.1067283" lon="12.1943"><ele>61.0</ele><time>2026-04-25T10:05:07.005Z</time></trkpt><trkpt lat="44.10679" lon="12.19416"><ele>61.0</ele><time>2026-04-25T10:05:09.004Z</time></trkpt><trkpt lat="44.1068567" lon="12.1940117"><ele>61.0</ele><time>2026-04-25T10:05:11.004Z</time></trkpt><trkpt lat="44.1069383" lon="12.1938883"><ele>61.0</ele><time>2026-04-25T10:05:13.005Z</time></trkpt><trkpt lat="44.1070133" lon="12.193765"><ele>61.0</ele><time>2026-04-25T10:05:15.004Z</time></trkpt><trkpt lat="44.1070833" lon="12.193635"><ele>61.0</ele><time>2026-04-25T10:05:17.005Z</time></trkpt><trkpt lat="44.1071567" lon="12.1935167"><ele>60.99999999999999</ele><time>2026-04-25T10:05:19.005Z</time></trkpt><trkpt lat="44.1072233" lon="12.1934"><ele>60.99999999999999</ele><time>2026-04-25T10:05:21.005Z</time></trkpt><trkpt lat="44.1073" lon="12.193295"><ele>61.0</ele><time>2026-04-25T10:05:23.005Z</time></trkpt><trkpt lat="44.1073783" lon="12.1931783"><ele>61.0</ele><time>2026-04-25T10:05:25.005Z</time></trkpt><trkpt lat="44.1074533" lon="12.19305"><ele>61.0</ele><time>2026-04-25T10:05:27.005Z</time></trkpt><trkpt lat="44.1074933" lon="12.1929817"><ele>60.99999999999999</ele><time>2026-04-25T10:05:28.004Z</time></trkpt><trkpt lat="44.1075817" lon="12.1928617"><ele>60.99999999999999</ele><time>2026-04-25T10:05:30.005Z</time></trkpt><trkpt lat="44.1076667" lon="12.1927383"><ele>61.0</ele><time>2026-04-25T10:05:32.005Z</time></trkpt><trkpt lat="44.1077383" lon="12.19261"><ele>61.0</ele><time>2026-04-25T10:05:34.005Z</time></trkpt><trkpt lat="44.1077833" lon="12.192545"><ele>61.0</ele><time>2026-04-25T10:05:35.005Z</time></trkpt><trkpt lat="44.1078717" lon="12.19243"><ele>60.99999999999999</ele><time>2026-04-25T10:05:37.004Z</time></trkpt><trkpt lat="44.1079583" lon="12.192305"><ele>60.99999999999999</ele><time>2026-04-25T10:05:39.004Z</time></trkpt><trkpt lat="44.108035" lon="12.1921683"><ele>61.0</ele><time>2026-04-25T10:05:41.003Z</time></trkpt><trkpt lat="44.108075" lon="12.1921"><ele>61.0</ele><time>2026-04-25T10:05:42.004Z</time></trkpt><trkpt lat="44.1081133" lon="12.19203"><ele>60.8</ele><time>2026-04-25T10:05:43.003Z</time></trkpt><trkpt lat="44.108155" lon="12.1919633"><ele>60.599999999999994</ele><time>2026-04-25T10:05:44.004Z</time></trkpt><trkpt lat="44.1082333" lon="12.1918333"><ele>60.4</ele><time>2026-04-25T10:05:46.004Z</time></trkpt><trkpt lat="44.1083017" lon="12.1917"><ele>60.2</ele><time>2026-04-25T10:05:48.004Z</time></trkpt><trkpt lat="44.108365" lon="12.1915567"><ele>60.0</ele><time>2026-04-25T10:05:50.004Z</time></trkpt><trkpt lat="44.108435" lon="12.19142"><ele>60.0</ele><time>2026-04-25T10:05:52.004Z</time></trkpt><trkpt lat="44.1085033" lon="12.1912783"><ele>60.0</ele><time>2026-04-25T10:05:54.003Z</time></trkpt><trkpt lat="44.1085383" lon="12.191205"><ele>60.0</ele><time>2026-04-25T10:05:55.003Z</time></trkpt><trkpt lat="44.108575" lon="12.1911283"><ele>60.0</ele><time>2026-04-25T10:05:56.004Z</time></trkpt><trkpt lat="44.1086117" lon="12.191055"><ele>60.0</ele><time>2026-04-25T10:05:57.004Z</time></trkpt><trkpt lat="44.108655" lon="12.1909867"><ele>60.0</ele><time>2026-04-25T10:05:58.004Z</time></trkpt><trkpt lat="44.1087" lon="12.1909233"><ele>60.0</ele><time>2026-04-25T10:05:59.003Z</time></trkpt><trkpt lat="44.1087467" lon="12.19086"><ele>60.0</ele><time>2026-04-25T10:06:00.004Z</time></trkpt><trkpt lat="44.1088333" lon="12.19074"><ele>60.0</ele><time>2026-04-25T10:06:02.004Z</time></trkpt><trkpt lat="44.1089333" lon="12.1906417"><ele>60.0</ele><time>2026-04-25T10:06:04.004Z</time></trkpt><trkpt lat="44.109035" lon="12.190565"><ele>60.0</ele><time>2026-04-25T10:06:06.004Z</time></trkpt><trkpt lat="44.109145" lon="12.1905"><ele>60.333333333333336</ele><time>2026-04-25T10:06:08.003Z</time></trkpt><trkpt lat="44.109205" lon="12.1904717"><ele>60.66666666666667</ele><time>2026-04-25T10:06:09.004Z</time></trkpt><trkpt lat="44.10932" lon="12.1904217"><ele>61.0</ele><time>2026-04-25T10:06:11.003Z</time></trkpt><trkpt lat="44.1093833" lon="12.190405"><ele>61.333333333333336</ele><time>2026-04-25T10:06:12.004Z</time></trkpt><trkpt lat="44.109445" lon="12.190385"><ele>61.66666666666667</ele><time>2026-04-25T10:06:13.003Z</time></trkpt><trkpt lat="44.1095667" lon="12.190375"><ele>62.0</ele><time>2026-04-25T10:06:15.003Z</time></trkpt><trkpt lat="44.1096883" lon="12.1903617"><ele>62.0</ele><time>2026-04-25T10:06:17.004Z</time></trkpt><trkpt lat="44.1098083" lon="12.190365"><ele>62.0</ele><time>2026-04-25T10:06:19.004Z</time></trkpt><trkpt lat="44.1099283" lon="12.1903767"><ele>62.0</ele><time>2026-04-25T10:06:21.004Z</time></trkpt><trkpt lat="44.110055" lon="12.1903833"><ele>62.0</ele><time>2026-04-25T10:06:23.004Z</time></trkpt><trkpt lat="44.11012" lon="12.1903867"><ele>62.0</ele><time>2026-04-25T10:06:24.004Z</time></trkpt><trkpt lat="44.1102417" lon="12.19038"><ele>62.50000000000001</ele><time>2026-04-25T10:06:26.003Z</time></trkpt><trkpt lat="44.1103617" lon="12.1903667"><ele>63.0</ele><time>2026-04-25T10:06:28.004Z</time></trkpt><trkpt lat="44.1104267" lon="12.1903533"><ele>63.5</ele><time>2026-04-25T10:06:29.003Z</time></trkpt><trkpt lat="44.11049" lon="12.1903517"><ele>64.0</ele><time>2026-04-25T10:06:30.004Z</time></trkpt><trkpt lat="44.11056" lon="12.1903317"><ele>64.5</ele><time>2026-04-25T10:06:31.004Z</time></trkpt><trkpt lat="44.110625" lon="12.1903217"><ele>65.0</ele><time>2026-04-25T10:06:32.004Z</time></trkpt><trkpt lat="44.11075" lon="12.1903333"><ele>65.33333333333334</ele><time>2026-04-25T10:06:34.004Z</time></trkpt><trkpt lat="44.1108717" lon="12.190345"><ele>65.66666666666667</ele><time>2026-04-25T10:06:36.004Z</time></trkpt><trkpt lat="44.1109933" lon="12.1903633"><ele>66.0</ele><time>2026-04-25T10:06:38.004Z</time></trkpt><trkpt lat="44.1110567" lon="12.1903733"><ele>66.33333333333333</ele><time>2026-04-25T10:06:39.003Z</time></trkpt><trkpt lat="44.1111217" lon="12.1903833"><ele>66.66666666666666</ele><time>2026-04-25T10:06:40.004Z</time></trkpt><trkpt lat="44.11119" lon="12.1903967"><ele>67.0</ele><time>2026-04-25T10:06:41.003Z</time></trkpt><trkpt lat="44.1112567" lon="12.1904133"><ele>67.0</ele><time>2026-04-25T10:06:42.003Z</time></trkpt><trkpt lat="44.1113283" lon="12.1904333"><ele>67.0</ele><time>2026-04-25T10:06:43.004Z</time></trkpt><trkpt lat="44.1113967" lon="12.19045"><ele>67.0</ele><time>2026-04-25T10:06:44.004Z</time></trkpt><trkpt lat="44.1114683" lon="12.19047"><ele>67.0</ele><time>2026-04-25T10:06:45.004Z</time></trkpt><trkpt lat="44.111535" lon="12.19049"><ele>67.0</ele><time>2026-04-25T10:06:46.004Z</time></trkpt><trkpt lat="44.1116" lon="12.1905183"><ele>67.0</ele><time>2026-04-25T10:06:47.004Z</time></trkpt><trkpt lat="44.111665" lon="12.1905467"><ele>67.0</ele><time>2026-04-25T10:06:48.004Z</time></trkpt><trkpt lat="44.111735" lon="12.1905733"><ele>66.5</ele><time>2026-04-25T10:06:49.004Z</time></trkpt><trkpt lat="44.1118033" lon="12.1906033"><ele>66.0</ele><time>2026-04-25T10:06:50.003Z</time></trkpt><trkpt lat="44.11187" lon="12.1906367"><ele>65.5</ele><time>2026-04-25T10:06:51.004Z</time></trkpt><trkpt lat="44.1119333" lon="12.1906567"><ele>65.0</ele><time>2026-04-25T10:06:52.004Z</time></trkpt><trkpt lat="44.111995" lon="12.190675"><ele>64.5</ele><time>2026-04-25T10:06:53.003Z</time></trkpt><trkpt lat="44.1121117" lon="12.1907283"><ele>64.0</ele><time>2026-04-25T10:06:55.004Z</time></trkpt><trkpt lat="44.112175" lon="12.1907567"><ele>63.83333333333333</ele><time>2026-04-25T10:06:56.004Z</time></trkpt><trkpt lat="44.1122383" lon="12.1907867"><ele>63.666666666666664</ele><time>2026-04-25T10:06:57.004Z</time></trkpt><trkpt lat="44.1122983" lon="12.1908167"><ele>63.5</ele><time>2026-04-25T10:06:58.004Z</time></trkpt><trkpt lat="44.1123583" lon="12.1908467"><ele>63.33333333333333</ele><time>2026-04-25T10:06:59.004Z</time></trkpt><trkpt lat="44.1124217" lon="12.1908767"><ele>63.166666666666664</ele><time>2026-04-25T10:07:00.003Z</time></trkpt><trkpt lat="44.1124833" lon="12.190905"><ele>63.0</ele><time>2026-04-25T10:07:01.004Z</time></trkpt><trkpt lat="44.1126033" lon="12.1909583"><ele>63.0</ele><time>2026-04-25T10:07:03.003Z</time></trkpt><trkpt lat="44.1126667" lon="12.1909833"><ele>63.0</ele><time>2026-04-25T10:07:04.003Z</time></trkpt><trkpt lat="44.1127317" lon="12.1910083"><ele>63.0</ele><time>2026-04-25T10:07:05.003Z</time></trkpt><trkpt lat="44.1127967" lon="12.191035"><ele>63.0</ele><time>2026-04-25T10:07:06.004Z</time></trkpt><trkpt lat="44.1128633" lon="12.1910633"><ele>63.0</ele><time>2026-04-25T10:07:07.004Z</time></trkpt><trkpt lat="44.1129283" lon="12.19109"><ele>63.0</ele><time>2026-04-25T10:07:08.004Z</time></trkpt><trkpt lat="44.11299" lon="12.1911167"><ele>63.0</ele><time>2026-04-25T10:07:09.003Z</time></trkpt><trkpt lat="44.113055" lon="12.191145"><ele>63.0</ele><time>2026-04-25T10:07:10.003Z</time></trkpt><trkpt lat="44.1131183" lon="12.191175"><ele>63.0</ele><time>2026-04-25T10:07:11.004Z</time></trkpt><trkpt lat="44.1131833" lon="12.1912017"><ele>63.0</ele><time>2026-04-25T10:07:12.004Z</time></trkpt><trkpt lat="44.11325" lon="12.19123"><ele>63.0</ele><time>2026-04-25T10:07:13.004Z</time></trkpt><trkpt lat="44.1133167" lon="12.1912567"><ele>63.0</ele><time>2026-04-25T10:07:14.004Z</time></trkpt><trkpt lat="44.1133817" lon="12.1912867"><ele>63.0</ele><time>2026-04-25T10:07:15.004Z</time></trkpt><trkpt lat="44.1134483" lon="12.191315"><ele>63.0</ele><time>2026-04-25T10:07:16.004Z</time></trkpt><trkpt lat="44.1135167" lon="12.191355"><ele>63.14285714285714</ele><time>2026-04-25T10:07:17.004Z</time></trkpt><trkpt lat="44.113585" lon="12.191385"><ele>63.285714285714285</ele><time>2026-04-25T10:07:18.003Z</time></trkpt><trkpt lat="44.1136567" lon="12.1914133"><ele>63.42857142857143</ele><time>2026-04-25T10:07:19.003Z</time></trkpt><trkpt lat="44.1137267" lon="12.1914433"><ele>63.57142857142857</ele><time>2026-04-25T10:07:20.004Z</time></trkpt><trkpt lat="44.1137983" lon="12.191475"><ele>63.71428571428571</ele><time>2026-04-25T10:07:21.004Z</time></trkpt><trkpt lat="44.1138617" lon="12.1915"><ele>63.857142857142854</ele><time>2026-04-25T10:07:22.004Z</time></trkpt><trkpt lat="44.1139283" lon="12.19153"><ele>64.0</ele><time>2026-04-25T10:07:23.003Z</time></trkpt><trkpt lat="44.1139933" lon="12.1915583"><ele>63.14285714285714</ele><time>2026-04-25T10:07:24.003Z</time></trkpt><trkpt lat="44.1140583" lon="12.19159"><ele>62.28571428571428</ele><time>2026-04-25T10:07:25.004Z</time></trkpt><trkpt lat="44.1141267" lon="12.191625"><ele>61.42857142857143</ele><time>2026-04-25T10:07:26.003Z</time></trkpt><trkpt lat="44.1142" lon="12.1916567"><ele>60.57142857142857</ele><time>2026-04-25T10:07:27.003Z</time></trkpt><trkpt lat="44.11427" lon="12.1916967"><ele>59.714285714285715</ele><time>2026-04-25T10:07:28.004Z</time></trkpt><trkpt lat="44.1143367" lon="12.19174"><ele>58.85714285714286</ele><time>2026-04-25T10:07:29.004Z</time></trkpt><trkpt lat="44.1144" lon="12.1917883"><ele>58.00000000000001</ele><time>2026-04-25T10:07:30.003Z</time></trkpt><trkpt lat="44.1144617" lon="12.1918367"><ele>58.00000000000001</ele><time>2026-04-25T10:07:31.003Z</time></trkpt><trkpt lat="44.1145167" lon="12.1918867"><ele>58.0</ele><time>2026-04-25T10:07:32.004Z</time></trkpt><trkpt lat="44.114575" lon="12.191935"><ele>58.00000000000001</ele><time>2026-04-25T10:07:33.003Z</time></trkpt><trkpt lat="44.1146383" lon="12.19198"><ele>58.00000000000001</ele><time>2026-04-25T10:07:34.003Z</time></trkpt><trkpt lat="44.1147017" lon="12.1920267"><ele>58.0</ele><time>2026-04-25T10:07:35.003Z</time></trkpt><trkpt lat="44.114765" lon="12.1920767"><ele>58.00000000000001</ele><time>2026-04-25T10:07:36.004Z</time></trkpt><trkpt lat="44.1148283" lon="12.1921267"><ele>58.00000000000001</ele><time>2026-04-25T10:07:37.003Z</time></trkpt><trkpt lat="44.1148883" lon="12.1921867"><ele>58.0</ele><time>2026-04-25T10:07:38.004Z</time></trkpt><trkpt lat="44.1150033" lon="12.1922683"><ele>58.0</ele><time>2026-04-25T10:07:40.003Z</time></trkpt><trkpt lat="44.11506" lon="12.1923167"><ele>58.0</ele><time>2026-04-25T10:07:41.003Z</time></trkpt><trkpt lat="44.115115" lon="12.1923617"><ele>58.0</ele><time>2026-04-25T10:07:42.004Z</time></trkpt><trkpt lat="44.1152283" lon="12.19246"><ele>58.0</ele><time>2026-04-25T10:07:44.004Z</time></trkpt><trkpt lat="44.1152883" lon="12.1925083"><ele>57.49999999999999</ele><time>2026-04-25T10:07:45.004Z</time></trkpt><trkpt lat="44.1153417" lon="12.1925617"><ele>57.0</ele><time>2026-04-25T10:07:46.004Z</time></trkpt><trkpt lat="44.115405" lon="12.1926017"><ele>56.5</ele><time>2026-04-25T10:07:47.003Z</time></trkpt><trkpt lat="44.1154667" lon="12.192645"><ele>56.0</ele><time>2026-04-25T10:07:48.003Z</time></trkpt><trkpt lat="44.1155833" lon="12.1927167"><ele>55.49999999999999</ele><time>2026-04-25T10:07:50.004Z</time></trkpt><trkpt lat="44.1156467" lon="12.1927467"><ele>55.0</ele><time>2026-04-25T10:07:51.003Z</time></trkpt><trkpt lat="44.11571" lon="12.19277"><ele>55.28571428571428</ele><time>2026-04-25T10:07:52.004Z</time></trkpt><trkpt lat="44.1158333" lon="12.192795"><ele>55.57142857142857</ele><time>2026-04-25T10:07:54.004Z</time></trkpt><trkpt lat="44.1158983" lon="12.1927983"><ele>55.857142857142854</ele><time>2026-04-25T10:07:55.003Z</time></trkpt><trkpt lat="44.1159617" lon="12.192795"><ele>56.14285714285714</ele><time>2026-04-25T10:07:56.003Z</time></trkpt><trkpt lat="44.1160267" lon="12.192785"><ele>56.42857142857142</ele><time>2026-04-25T10:07:57.004Z</time></trkpt><trkpt lat="44.1160917" lon="12.1927683"><ele>56.71428571428571</ele><time>2026-04-25T10:07:58.003Z</time></trkpt><trkpt lat="44.1161533" lon="12.1927467"><ele>57.0</ele><time>2026-04-25T10:07:59.004Z</time></trkpt><trkpt lat="44.1162183" lon="12.1927133"><ele>57.0</ele><time>2026-04-25T10:08:00.003Z</time></trkpt><trkpt lat="44.1162783" lon="12.192675"><ele>57.0</ele><time>2026-04-25T10:08:01.004Z</time></trkpt><trkpt lat="44.1163917" lon="12.1925983"><ele>57.0</ele><time>2026-04-25T10:08:03.004Z</time></trkpt><trkpt lat="44.1164483" lon="12.1925433"><ele>57.0</ele><time>2026-04-25T10:08:04.003Z</time></trkpt><trkpt lat="44.1165017" lon="12.1924867"><ele>57.0</ele><time>2026-04-25T10:08:05.004Z</time></trkpt><trkpt lat="44.11655" lon="12.192425"><ele>57.0</ele><time>2026-04-25T10:08:06.004Z</time></trkpt><trkpt lat="44.116595" lon="12.1923583"><ele>56.8</ele><time>2026-04-25T10:08:07.004Z</time></trkpt><trkpt lat="44.11668" lon="12.1922267"><ele>56.6</ele><time>2026-04-25T10:08:09.004Z</time></trkpt><trkpt lat="44.1167217" lon="12.1921567"><ele>56.39999999999999</ele><time>2026-04-25T10:08:10.004Z</time></trkpt><trkpt lat="44.1167617" lon="12.1920833"><ele>56.199999999999996</ele><time>2026-04-25T10:08:11.004Z</time></trkpt><trkpt lat="44.1168" lon="12.1920083"><ele>56.0</ele><time>2026-04-25T10:08:12.003Z</time></trkpt><trkpt lat="44.116875" lon="12.1918617"><ele>56.0</ele><time>2026-04-25T10:08:14.004Z</time></trkpt><trkpt lat="44.1169117" lon="12.19179"><ele>56.0</ele><time>2026-04-25T10:08:15.004Z</time></trkpt><trkpt lat="44.11695" lon="12.1917183"><ele>56.0</ele><time>2026-04-25T10:08:16.004Z</time></trkpt><trkpt lat="44.1169883" lon="12.191645"><ele>56.0</ele><time>2026-04-25T10:08:17.003Z</time></trkpt><trkpt lat="44.1170283" lon="12.1915733"><ele>56.0</ele><time>2026-04-25T10:08:18.004Z</time></trkpt><trkpt lat="44.1170967" lon="12.1914283"><ele>56.0</ele><time>2026-04-25T10:08:20.004Z</time></trkpt><trkpt lat="44.1171367" lon="12.1913567"><ele>56.0</ele><time>2026-04-25T10:08:21.004Z</time></trkpt><trkpt lat="44.11718" lon="12.191285"><ele>56.50000000000001</ele><time>2026-04-25T10:08:22.003Z</time></trkpt><trkpt lat="44.1172233" lon="12.1912083"><ele>57.0</ele><time>2026-04-25T10:08:23.003Z</time></trkpt><trkpt lat="44.1172583" lon="12.1911317"><ele>57.5</ele><time>2026-04-25T10:08:24.004Z</time></trkpt><trkpt lat="44.1172967" lon="12.1910617"><ele>58.0</ele><time>2026-04-25T10:08:25.004Z</time></trkpt><trkpt lat="44.1173333" lon="12.1909883"><ele>58.50000000000001</ele><time>2026-04-25T10:08:26.004Z</time></trkpt><trkpt lat="44.1174067" lon="12.190855"><ele>59.0</ele><time>2026-04-25T10:08:28.004Z</time></trkpt><trkpt lat="44.1174783" lon="12.1907167"><ele>59.2</ele><time>2026-04-25T10:08:30.004Z</time></trkpt><trkpt lat="44.1175533" lon="12.1905783"><ele>59.400000000000006</ele><time>2026-04-25T10:08:32.003Z</time></trkpt><trkpt lat="44.1176267" lon="12.1904417"><ele>59.6</ele><time>2026-04-25T10:08:34.003Z</time></trkpt><trkpt lat="44.1176967" lon="12.1903017"><ele>59.8</ele><time>2026-04-25T10:08:36.004Z</time></trkpt><trkpt lat="44.117735" lon="12.19023"><ele>60.0</ele><time>2026-04-25T10:08:37.004Z</time></trkpt><trkpt lat="44.1177733" lon="12.19016"><ele>60.0</ele><time>2026-04-25T10:08:38.004Z</time></trkpt><trkpt lat="44.1178133" lon="12.1900867"><ele>60.0</ele><time>2026-04-25T10:08:39.004Z</time></trkpt><trkpt lat="44.1178517" lon="12.1900167"><ele>60.0</ele><time>2026-04-25T10:08:40.003Z</time></trkpt><trkpt lat="44.11793" lon="12.1898733"><ele>60.0</ele><time>2026-04-25T10:08:42.004Z</time></trkpt><trkpt lat="44.1179733" lon="12.1898033"><ele>60.0</ele><time>2026-04-25T10:08:43.004Z</time></trkpt><trkpt lat="44.1180167" lon="12.1897317"><ele>60.0</ele><time>2026-04-25T10:08:44.003Z</time></trkpt><trkpt lat="44.11806" lon="12.1896633"><ele>60.0</ele><time>2026-04-25T10:08:45.004Z</time></trkpt><trkpt lat="44.1181033" lon="12.1895967"><ele>60.0</ele><time>2026-04-25T10:08:46.004Z</time></trkpt><trkpt lat="44.1181483" lon="12.1895333"><ele>60.0</ele><time>2026-04-25T10:08:47.004Z</time></trkpt><trkpt lat="44.118235" lon="12.1894133"><ele>60.0</ele><time>2026-04-25T10:08:49.004Z</time></trkpt><trkpt lat="44.11832" lon="12.1892967"><ele>60.0</ele><time>2026-04-25T10:08:51.004Z</time></trkpt><trkpt lat="44.1183633" lon="12.1892317"><ele>60.0</ele><time>2026-04-25T10:08:52.004Z</time></trkpt><trkpt lat="44.1184567" lon="12.189125"><ele>60.0</ele><time>2026-04-25T10:08:54.003Z</time></trkpt><trkpt lat="44.1185483" lon="12.189015"><ele>60.0</ele><time>2026-04-25T10:08:56.004Z</time></trkpt><trkpt lat="44.118645" lon="12.188905"><ele>60.0</ele><time>2026-04-25T10:08:58.004Z</time></trkpt><trkpt lat="44.1187433" lon="12.1888"><ele>60.0</ele><time>2026-04-25T10:09:00.003Z</time></trkpt><trkpt lat="44.1188483" lon="12.1887"><ele>60.0</ele><time>2026-04-25T10:09:02.004Z</time></trkpt><trkpt lat="44.1189" lon="12.1886467"><ele>60.0</ele><time>2026-04-25T10:09:03.003Z</time></trkpt><trkpt lat="44.1189567" lon="12.18859"><ele>60.0</ele><time>2026-04-25T10:09:04.004Z</time></trkpt><trkpt lat="44.1190083" lon="12.1885383"><ele>60.0</ele><time>2026-04-25T10:09:05.002Z</time></trkpt><trkpt lat="44.1190617" lon="12.1884817"><ele>60.0</ele><time>2026-04-25T10:09:06.003Z</time></trkpt><trkpt lat="44.1191167" lon="12.188425"><ele>60.0</ele><time>2026-04-25T10:09:07.002Z</time></trkpt><trkpt lat="44.1191683" lon="12.1883667"><ele>60.0</ele><time>2026-04-25T10:09:08.003Z</time></trkpt><trkpt lat="44.1192217" lon="12.1883133"><ele>60.0</ele><time>2026-04-25T10:09:09.002Z</time></trkpt><trkpt lat="44.1192733" lon="12.1882617"><ele>60.0</ele><time>2026-04-25T10:09:10.003Z</time></trkpt><trkpt lat="44.119325" lon="12.18821"><ele>60.0</ele><time>2026-04-25T10:09:11.003Z</time></trkpt><trkpt lat="44.1193783" lon="12.1881583"><ele>60.0</ele><time>2026-04-25T10:09:12.003Z</time></trkpt><trkpt lat="44.1194783" lon="12.188055"><ele>60.0</ele><time>2026-04-25T10:09:14.003Z</time></trkpt><trkpt lat="44.119535" lon="12.1879983"><ele>60.0</ele><time>2026-04-25T10:09:15.002Z</time></trkpt><trkpt lat="44.11959" lon="12.1879483"><ele>60.2</ele><time>2026-04-25T10:09:16.002Z</time></trkpt><trkpt lat="44.1196917" lon="12.18786"><ele>60.4</ele><time>2026-04-25T10:09:18.003Z</time></trkpt><trkpt lat="44.1197983" lon="12.18779"><ele>60.599999999999994</ele><time>2026-04-25T10:09:20.002Z</time></trkpt><trkpt lat="44.11991" lon="12.1877083"><ele>60.8</ele><time>2026-04-25T10:09:22.002Z</time></trkpt><trkpt lat="44.11997" lon="12.187665"><ele>61.0</ele><time>2026-04-25T10:09:23.002Z</time></trkpt><trkpt lat="44.12003" lon="12.18763"><ele>61.14285714285714</ele><time>2026-04-25T10:09:24.002Z</time></trkpt><trkpt lat="44.1201417" lon="12.1875617"><ele>61.285714285714285</ele><time>2026-04-25T10:09:26.002Z</time></trkpt><trkpt lat="44.1202017" lon="12.18753"><ele>61.42857142857143</ele><time>2026-04-25T10:09:27.003Z</time></trkpt><trkpt lat="44.12026" lon="12.187495"><ele>61.57142857142857</ele><time>2026-04-25T10:09:28.003Z</time></trkpt><trkpt lat="44.12032" lon="12.1874583"><ele>61.71428571428572</ele><time>2026-04-25T10:09:29.003Z</time></trkpt><trkpt lat="44.1203817" lon="12.187425"><ele>61.85714285714286</ele><time>2026-04-25T10:09:30.003Z</time></trkpt><trkpt lat="44.1204433" lon="12.18739"><ele>62.0</ele><time>2026-04-25T10:09:31.003Z</time></trkpt><trkpt lat="44.1205033" lon="12.1873467"><ele>62.142857142857146</ele><time>2026-04-25T10:09:32.002Z</time></trkpt><trkpt lat="44.120565" lon="12.1873117"><ele>62.28571428571429</ele><time>2026-04-25T10:09:33.002Z</time></trkpt><trkpt lat="44.1206233" lon="12.1872717"><ele>62.42857142857143</ele><time>2026-04-25T10:09:34.003Z</time></trkpt><trkpt lat="44.120685" lon="12.1872383"><ele>62.57142857142857</ele><time>2026-04-25T10:09:35.003Z</time></trkpt><trkpt lat="44.1207433" lon="12.1872"><ele>62.714285714285715</ele><time>2026-04-25T10:09:36.002Z</time></trkpt><trkpt lat="44.1208033" lon="12.1871733"><ele>62.85714285714286</ele><time>2026-04-25T10:09:37.003Z</time></trkpt><trkpt lat="44.120865" lon="12.187145"><ele>63.0</ele><time>2026-04-25T10:09:38.003Z</time></trkpt><trkpt lat="44.120925" lon="12.187115"><ele>62.4</ele><time>2026-04-25T10:09:39.003Z</time></trkpt><trkpt lat="44.1210217" lon="12.1870483"><ele>61.8</ele><time>2026-04-25T10:09:41.002Z</time></trkpt><trkpt lat="44.1209533" lon="12.1869983"><ele>61.2</ele><time>2026-04-25T10:09:48.003Z</time></trkpt><trkpt lat="44.1210333" lon="12.186945"><ele>60.6</ele><time>2026-04-25T10:10:42.002Z</time></trkpt><trkpt lat="44.1211283" lon="12.1869183"><ele>60.0</ele><time>2026-04-25T10:10:45.003Z</time></trkpt><trkpt lat="44.1212133" lon="12.1869033"><ele>60.0</ele><time>2026-04-25T10:10:47.003Z</time></trkpt><trkpt lat="44.1213067" lon="12.1868983"><ele>60.0</ele><time>2026-04-25T10:10:49.002Z</time></trkpt><trkpt lat="44.1213933" lon="12.1868983"><ele>60.0</ele><time>2026-04-25T10:10:51.003Z</time></trkpt><trkpt lat="44.121485" lon="12.1868933"><ele>60.0</ele><time>2026-04-25T10:10:53.003Z</time></trkpt><trkpt lat="44.1215833" lon="12.186905"><ele>60.0</ele><time>2026-04-25T10:10:55.003Z</time></trkpt><trkpt lat="44.121685" lon="12.186905"><ele>60.0</ele><time>2026-04-25T10:10:57.003Z</time></trkpt><trkpt lat="44.121785" lon="12.1868983"><ele>60.0</ele><time>2026-04-25T10:10:59.003Z</time></trkpt><trkpt lat="44.12185" lon="12.1868867"><ele>60.0</ele><time>2026-04-25T10:11:01.003Z</time></trkpt><trkpt lat="44.1218717" lon="12.1867917"><ele>60.0</ele><time>2026-04-25T10:11:04.002Z</time></trkpt><trkpt lat="44.1218483" lon="12.1867067"><ele>60.0</ele><time>2026-04-25T10:11:06.003Z</time></trkpt><trkpt lat="44.1218367" lon="12.186605"><ele>60.0</ele><time>2026-04-25T10:11:08.003Z</time></trkpt><trkpt lat="44.1218417" lon="12.1864983"><ele>60.166666666666664</ele><time>2026-04-25T10:11:10.002Z</time></trkpt><trkpt lat="44.12185" lon="12.186385"><ele>60.33333333333333</ele><time>2026-04-25T10:11:12.003Z</time></trkpt><trkpt lat="44.1218483" lon="12.1862667"><ele>60.5</ele><time>2026-04-25T10:11:14.003Z</time></trkpt><trkpt lat="44.1218483" lon="12.186145"><ele>60.666666666666664</ele><time>2026-04-25T10:11:16.003Z</time></trkpt><trkpt lat="44.1218467" lon="12.1860167"><ele>60.83333333333333</ele><time>2026-04-25T10:11:18.003Z</time></trkpt><trkpt lat="44.121845" lon="12.1858833"><ele>61.0</ele><time>2026-04-25T10:11:20.003Z</time></trkpt><trkpt lat="44.121845" lon="12.1857583"><ele>61.4</ele><time>2026-04-25T10:11:22.003Z</time></trkpt><trkpt lat="44.1218383" lon="12.185625"><ele>61.8</ele><time>2026-04-25T10:11:24.003Z</time></trkpt><trkpt lat="44.1218283" lon="12.1854783"><ele>62.199999999999996</ele><time>2026-04-25T10:11:26.003Z</time></trkpt><trkpt lat="44.1218133" lon="12.1853267"><ele>62.599999999999994</ele><time>2026-04-25T10:11:28.002Z</time></trkpt><trkpt lat="44.12179" lon="12.1851733"><ele>63.0</ele><time>2026-04-25T10:11:30.002Z</time></trkpt><trkpt lat="44.12177" lon="12.1850217"><ele>63.0</ele><time>2026-04-25T10:11:32.002Z</time></trkpt><trkpt lat="44.1217417" lon="12.184875"><ele>63.0</ele><time>2026-04-25T10:11:34.003Z</time></trkpt><trkpt lat="44.1217033" lon="12.1847367"><ele>63.0</ele><time>2026-04-25T10:11:36.002Z</time></trkpt><trkpt lat="44.1216667" lon="12.18462"><ele>63.0</ele><time>2026-04-25T10:11:38.003Z</time></trkpt><trkpt lat="44.1216233" lon="12.1845117"><ele>63.0</ele><time>2026-04-25T10:11:40.002Z</time></trkpt><trkpt lat="44.1215883" lon="12.1843967"><ele>63.0</ele><time>2026-04-25T10:11:42.003Z</time></trkpt><trkpt lat="44.121565" lon="12.1843"><ele>63.0</ele><time>2026-04-25T10:11:44.003Z</time></trkpt><trkpt lat="44.1215533" lon="12.184205"><ele>63.0</ele><time>2026-04-25T10:11:46.003Z</time></trkpt><trkpt lat="44.1215017" lon="12.1841533"><ele>63.0</ele><time>2026-04-25T10:11:49.003Z</time></trkpt><trkpt lat="44.1215717" lon="12.184145"><ele>63.0</ele><time>2026-04-25T10:12:04.003Z</time></trkpt><trkpt lat="44.1216083" lon="12.184045"><ele>63.0</ele><time>2026-04-25T10:12:07.003Z</time></trkpt><trkpt lat="44.121635" lon="12.1839283"><ele>63.0</ele><time>2026-04-25T10:12:10.003Z</time></trkpt><trkpt lat="44.1216583" lon="12.1838183"><ele>64.42857142857143</ele><time>2026-04-25T10:12:13.003Z</time></trkpt><trkpt lat="44.1216817" lon="12.1837183"><ele>65.85714285714286</ele><time>2026-04-25T10:12:16.002Z</time></trkpt><trkpt lat="44.1216983" lon="12.18362"><ele>67.28571428571428</ele><time>2026-04-25T10:12:19.002Z</time></trkpt><trkpt lat="44.1217183" lon="12.183515"><ele>68.71428571428572</ele><time>2026-04-25T10:12:22.002Z</time></trkpt><trkpt lat="44.121745" lon="12.18342"><ele>70.14285714285714</ele><time>2026-04-25T10:12:25.003Z</time></trkpt><trkpt lat="44.1217683" lon="12.1833267"><ele>71.57142857142857</ele><time>2026-04-25T10:12:28.003Z</time></trkpt><trkpt lat="44.12178" lon="12.1832283"><ele>73.0</ele><time>2026-04-25T10:12:31.003Z</time></trkpt><trkpt lat="44.121805" lon="12.1831317"><ele>74.14285714285714</ele><time>2026-04-25T10:12:34.002Z</time></trkpt><trkpt lat="44.12183" lon="12.1830283"><ele>75.28571428571429</ele><time>2026-04-25T10:12:37.001Z</time></trkpt><trkpt lat="44.1218533" lon="12.1829283"><ele>76.42857142857143</ele><time>2026-04-25T10:12:40.001Z</time></trkpt><trkpt lat="44.1218667" lon="12.1828367"><ele>77.57142857142857</ele><time>2026-04-25T10:12:43.002Z</time></trkpt><trkpt lat="44.1218633" lon="12.18272"><ele>78.71428571428571</ele><time>2026-04-25T10:12:47.002Z</time></trkpt><trkpt lat="44.1218483" lon="12.1826233"><ele>79.85714285714286</ele><time>2026-04-25T10:12:50.001Z</time></trkpt><trkpt lat="44.121825" lon="12.1825283"><ele>81.0</ele><time>2026-04-25T10:12:53.001Z</time></trkpt><trkpt lat="44.1218133" lon="12.1824383"><ele>81.14285714285714</ele><time>2026-04-25T10:12:56.002Z</time></trkpt><trkpt lat="44.1218067" lon="12.1823417"><ele>81.28571428571428</ele><time>2026-04-25T10:12:59.002Z</time></trkpt><trkpt lat="44.1218167" lon="12.1822433"><ele>81.42857142857142</ele><time>2026-04-25T10:13:02.002Z</time></trkpt><trkpt lat="44.12187" lon="12.1821567"><ele>81.57142857142857</ele><time>2026-04-25T10:13:06.001Z</time></trkpt><trkpt lat="44.12192" lon="12.1821"><ele>81.71428571428571</ele><time>2026-04-25T10:13:09.002Z</time></trkpt><trkpt lat="44.121975" lon="12.1820533"><ele>81.85714285714285</ele><time>2026-04-25T10:13:12.001Z</time></trkpt><trkpt lat="44.1220383" lon="12.1820317"><ele>82.0</ele><time>2026-04-25T10:13:15.002Z</time></trkpt><trkpt lat="44.1221017" lon="12.1820233"><ele>81.99999999999999</ele><time>2026-04-25T10:13:18.001Z</time></trkpt><trkpt lat="44.1221733" lon="12.1820133"><ele>82.0</ele><time>2026-04-25T10:13:21.001Z</time></trkpt><trkpt lat="44.1222417" lon="12.1820067"><ele>82.0</ele><time>2026-04-25T10:13:24.001Z</time></trkpt><trkpt lat="44.122315" lon="12.1820217"><ele>82.0</ele><time>2026-04-25T10:13:27.002Z</time></trkpt><trkpt lat="44.122385" lon="12.1820333"><ele>82.0</ele><time>2026-04-25T10:13:30.002Z</time></trkpt><trkpt lat="44.1224567" lon="12.1820517"><ele>81.99999999999999</ele><time>2026-04-25T10:13:33.001Z</time></trkpt><trkpt lat="44.122535" lon="12.1820617"><ele>82.0</ele><time>2026-04-25T10:13:36.001Z</time></trkpt><trkpt lat="44.12261" lon="12.1820783"><ele>84.66666666666666</ele><time>2026-04-25T10:13:39.002Z</time></trkpt><trkpt lat="44.12269" lon="12.182095"><ele>87.33333333333333</ele><time>2026-04-25T10:13:42.002Z</time></trkpt><trkpt lat="44.122765" lon="12.1821183"><ele>90.0</ele><time>2026-04-25T10:13:45.002Z</time></trkpt><trkpt lat="44.1228467" lon="12.18214"><ele>92.66666666666666</ele><time>2026-04-25T10:13:48.001Z</time></trkpt><trkpt lat="44.1229217" lon="12.18216"><ele>95.33333333333333</ele><time>2026-04-25T10:13:51.002Z</time></trkpt><trkpt lat="44.123" lon="12.1821733"><ele>98.0</ele><time>2026-04-25T10:13:54.001Z</time></trkpt><trkpt lat="44.12308" lon="12.1821667"><ele>98.0</ele><time>2026-04-25T10:13:57.002Z</time></trkpt><trkpt lat="44.123125" lon="12.1820817"><ele>98.0</ele><time>2026-04-25T10:14:00.001Z</time></trkpt><trkpt lat="44.12311" lon="12.181985"><ele>98.0</ele><time>2026-04-25T10:14:03.002Z</time></trkpt><trkpt lat="44.1230717" lon="12.1818983"><ele>98.0</ele><time>2026-04-25T10:14:06.002Z</time></trkpt><trkpt lat="44.1230283" lon="12.1818183"><ele>98.0</ele><time>2026-04-25T10:14:09.002Z</time></trkpt><trkpt lat="44.1229833" lon="12.1817367"><ele>98.0</ele><time>2026-04-25T10:14:12.001Z</time></trkpt><trkpt lat="44.1229433" lon="12.1816517"><ele>98.0</ele><time>2026-04-25T10:14:15.002Z</time></trkpt><trkpt lat="44.122905" lon="12.1815567"><ele>98.33333333333333</ele><time>2026-04-25T10:14:18.002Z</time></trkpt><trkpt lat="44.12289" lon="12.1814567"><ele>98.66666666666666</ele><time>2026-04-25T10:14:21.002Z</time></trkpt><trkpt lat="44.1228983" lon="12.18136"><ele>99.0</ele><time>2026-04-25T10:14:24.002Z</time></trkpt><trkpt lat="44.1229433" lon="12.1812617"><ele>99.33333333333334</ele><time>2026-04-25T10:14:27.002Z</time></trkpt><trkpt lat="44.122985" lon="12.1811667"><ele>99.66666666666667</ele><time>2026-04-25T10:14:30.001Z</time></trkpt><trkpt lat="44.1230333" lon="12.1810833"><ele>100.0</ele><time>2026-04-25T10:14:33.002Z</time></trkpt><trkpt lat="44.123075" lon="12.18101"><ele>100.00000000000001</ele><time>2026-04-25T10:14:36.002Z</time></trkpt><trkpt lat="44.1231283" lon="12.180915"><ele>100.0</ele><time>2026-04-25T10:14:40.002Z</time></trkpt><trkpt lat="44.12317" lon="12.1808267"><ele>100.0</ele><time>2026-04-25T10:14:43.002Z</time></trkpt><trkpt lat="44.1232267" lon="12.180745"><ele>100.0</ele><time>2026-04-25T10:14:46.002Z</time></trkpt><trkpt lat="44.1232883" lon="12.180665"><ele>100.00000000000001</ele><time>2026-04-25T10:14:49.002Z</time></trkpt><trkpt lat="44.1233567" lon="12.1805917"><ele>100.0</ele><time>2026-04-25T10:14:52.001Z</time></trkpt><trkpt lat="44.1234317" lon="12.1805417"><ele>100.66666666666667</ele><time>2026-04-25T10:14:55.002Z</time></trkpt><trkpt lat="44.1235217" lon="12.18048"><ele>101.33333333333334</ele><time>2026-04-25T10:14:58.002Z</time></trkpt><trkpt lat="44.1235767" lon="12.180435"><ele>102.0</ele><time>2026-04-25T10:15:00.001Z</time></trkpt><trkpt lat="44.123645" lon="12.1803833"><ele>102.66666666666666</ele><time>2026-04-25T10:15:02.002Z</time></trkpt><trkpt lat="44.1237067" lon="12.1803417"><ele>103.33333333333333</ele><time>2026-04-25T10:15:04.001Z</time></trkpt><trkpt lat="44.1237667" lon="12.1803117"><ele>104.0</ele><time>2026-04-25T10:15:06.002Z</time></trkpt><trkpt lat="44.1238533" lon="12.1802583"><ele>104.0</ele><time>2026-04-25T10:15:09.001Z</time></trkpt><trkpt lat="44.1239317" lon="12.1802167"><ele>104.0</ele><time>2026-04-25T10:15:12.002Z</time></trkpt><trkpt lat="44.123995" lon="12.1801633"><ele>104.0</ele><time>2026-04-25T10:15:14.002Z</time></trkpt><trkpt lat="44.1240567" lon="12.1801183"><ele>104.0</ele><time>2026-04-25T10:15:16.002Z</time></trkpt><trkpt lat="44.1241267" lon="12.1800833"><ele>104.0</ele><time>2026-04-25T10:15:18.002Z</time></trkpt><trkpt lat="44.1241883" lon="12.1800483"><ele>104.0</ele><time>2026-04-25T10:15:20.001Z</time></trkpt><trkpt lat="44.12426" lon="12.1800383"><ele>104.0</ele><time>2026-04-25T10:15:22.001Z</time></trkpt><trkpt lat="44.124325" lon="12.18002"><ele>105.99999999999999</ele><time>2026-04-25T10:15:24.002Z</time></trkpt><trkpt lat="44.124415" lon="12.1799967"><ele>108.0</ele><time>2026-04-25T10:15:27.002Z</time></trkpt><trkpt lat="44.12448" lon="12.17998"><ele>110.0</ele><time>2026-04-25T10:15:29.002Z</time></trkpt><trkpt lat="44.1245717" lon="12.1799667"><ele>112.0</ele><time>2026-04-25T10:15:32.001Z</time></trkpt><trkpt lat="44.124665" lon="12.1799517"><ele>113.99999999999999</ele><time>2026-04-25T10:15:35.002Z</time></trkpt><trkpt lat="44.1247533" lon="12.1799233"><ele>116.0</ele><time>2026-04-25T10:15:38.002Z</time></trkpt><trkpt lat="44.1248283" lon="12.179855"><ele>115.33333333333333</ele><time>2026-04-25T10:15:41.002Z</time></trkpt><trkpt lat="44.12488" lon="12.1797983"><ele>114.66666666666666</ele><time>2026-04-25T10:15:43.002Z</time></trkpt><trkpt lat="44.1249417" lon="12.179725"><ele>114.0</ele><time>2026-04-25T10:15:46.002Z</time></trkpt><trkpt lat="44.125" lon="12.1796567"><ele>113.33333333333334</ele><time>2026-04-25T10:15:49.001Z</time></trkpt><trkpt lat="44.125055" lon="12.17958"><ele>112.66666666666667</ele><time>2026-04-25T10:15:52.002Z</time></trkpt><trkpt lat="44.1250967" lon="12.17948"><ele>112.0</ele><time>2026-04-25T10:15:55.002Z</time></trkpt><trkpt lat="44.12511" lon="12.1793683"><ele>113.57142857142857</ele><time>2026-04-25T10:15:58.002Z</time></trkpt><trkpt lat="44.1251167" lon="12.1792633"><ele>115.14285714285714</ele><time>2026-04-25T10:16:01.001Z</time></trkpt><trkpt lat="44.12512" lon="12.1791417"><ele>116.71428571428572</ele><time>2026-04-25T10:16:04.001Z</time></trkpt><trkpt lat="44.12513" lon="12.1790517"><ele>118.28571428571429</ele><time>2026-04-25T10:16:06.001Z</time></trkpt><trkpt lat="44.1251383" lon="12.1789633"><ele>119.85714285714286</ele><time>2026-04-25T10:16:08.001Z</time></trkpt><trkpt lat="44.1251467" lon="12.178835"><ele>121.42857142857144</ele><time>2026-04-25T10:16:11Z</time></trkpt><trkpt lat="44.1251567" lon="12.1787483"><ele>123.00000000000001</ele><time>2026-04-25T10:16:13Z</time></trkpt><trkpt lat="44.1251583" lon="12.1786583"><ele>123.2857142857143</ele><time>2026-04-25T10:16:15Z</time></trkpt><trkpt lat="44.1251667" lon="12.178555"><ele>123.57142857142858</ele><time>2026-04-25T10:16:17.001Z</time></trkpt><trkpt lat="44.1251783" lon="12.17846"><ele>123.85714285714286</ele><time>2026-04-25T10:16:19.001Z</time></trkpt><trkpt lat="44.1251867" lon="12.1783633"><ele>124.14285714285715</ele><time>2026-04-25T10:16:21Z</time></trkpt><trkpt lat="44.1251983" lon="12.17827"><ele>124.42857142857144</ele><time>2026-04-25T10:16:23.001Z</time></trkpt><trkpt lat="44.1252117" lon="12.1781683"><ele>124.71428571428571</ele><time>2026-04-25T10:16:25.001Z</time></trkpt><trkpt lat="44.1252217" lon="12.1780717"><ele>125.0</ele><time>2026-04-25T10:16:27.001Z</time></trkpt><trkpt lat="44.125225" lon="12.177975"><ele>125.85714285714286</ele><time>2026-04-25T10:16:29.001Z</time></trkpt><trkpt lat="44.1252317" lon="12.1778767"><ele>126.71428571428572</ele><time>2026-04-25T10:16:31Z</time></trkpt><trkpt lat="44.125235" lon="12.1777783"><ele>127.57142857142858</ele><time>2026-04-25T10:16:33.001Z</time></trkpt><trkpt lat="44.125245" lon="12.177685"><ele>128.42857142857144</ele><time>2026-04-25T10:16:35Z</time></trkpt><trkpt lat="44.1252533" lon="12.1775867"><ele>129.2857142857143</ele><time>2026-04-25T10:16:37.001Z</time></trkpt><trkpt lat="44.1252567" lon="12.17749"><ele>130.14285714285714</ele><time>2026-04-25T10:16:39Z</time></trkpt><trkpt lat="44.1252717" lon="12.1773833"><ele>131.0</ele><time>2026-04-25T10:16:41.001Z</time></trkpt><trkpt lat="44.1252933" lon="12.1772767"><ele>131.28571428571428</ele><time>2026-04-25T10:16:43.001Z</time></trkpt><trkpt lat="44.1253233" lon="12.1771833"><ele>131.57142857142858</ele><time>2026-04-25T10:16:45Z</time></trkpt><trkpt lat="44.1253517" lon="12.1770917"><ele>131.85714285714286</ele><time>2026-04-25T10:16:47.001Z</time></trkpt><trkpt lat="44.12539" lon="12.1769933"><ele>132.14285714285714</ele><time>2026-04-25T10:16:49.001Z</time></trkpt><trkpt lat="44.1254217" lon="12.1768983"><ele>132.42857142857144</ele><time>2026-04-25T10:16:51.001Z</time></trkpt><trkpt lat="44.1254517" lon="12.1768033"><ele>132.71428571428572</ele><time>2026-04-25T10:16:53Z</time></trkpt><trkpt lat="44.1254783" lon="12.1767067"><ele>133.0</ele><time>2026-04-25T10:16:55.001Z</time></trkpt><trkpt lat="44.1254967" lon="12.176615"><ele>133.0</ele><time>2026-04-25T10:16:57.001Z</time></trkpt><trkpt lat="44.1255217" lon="12.176525"><ele>133.0</ele><time>2026-04-25T10:16:59.001Z</time></trkpt><trkpt lat="44.1255467" lon="12.17639"><ele>133.0</ele><time>2026-04-25T10:17:02.001Z</time></trkpt><trkpt lat="44.1255567" lon="12.1762983"><ele>133.0</ele><time>2026-04-25T10:17:04.001Z</time></trkpt><trkpt lat="44.1255633" lon="12.1762067"><ele>133.0</ele><time>2026-04-25T10:17:06.001Z</time></trkpt><trkpt lat="44.1255733" lon="12.17612"><ele>133.0</ele><time>2026-04-25T10:17:08.001Z</time></trkpt><trkpt lat="44.1255833" lon="12.1760267"><ele>133.0</ele><time>2026-04-25T10:17:10.001Z</time></trkpt><trkpt lat="44.1256" lon="12.17593"><ele>133.16666666666669</ele><time>2026-04-25T10:17:12Z</time></trkpt><trkpt lat="44.1256183" lon="12.1758317"><ele>133.33333333333334</ele><time>2026-04-25T10:17:14.001Z</time></trkpt><trkpt lat="44.12563" lon="12.1757317"><ele>133.5</ele><time>2026-04-25T10:17:16.001Z</time></trkpt><trkpt lat="44.125645" lon="12.17563"><ele>133.66666666666666</ele><time>2026-04-25T10:17:18.001Z</time></trkpt><trkpt lat="44.125655" lon="12.175505"><ele>133.83333333333331</ele><time>2026-04-25T10:17:20.001Z</time></trkpt><trkpt lat="44.1256567" lon="12.1753667"><ele>134.0</ele><time>2026-04-25T10:17:22.001Z</time></trkpt><trkpt lat="44.12566" lon="12.1752267"><ele>134.0</ele><time>2026-04-25T10:17:24.001Z</time></trkpt><trkpt lat="44.1256817" lon="12.175075"><ele>134.0</ele><time>2026-04-25T10:17:26Z</time></trkpt><trkpt lat="44.1256883" lon="12.1749467"><ele>134.0</ele><time>2026-04-25T10:17:28Z</time></trkpt><trkpt lat="44.125695" lon="12.17483"><ele>134.0</ele><time>2026-04-25T10:17:30.001Z</time></trkpt><trkpt lat="44.1257033" lon="12.174705"><ele>134.0</ele><time>2026-04-25T10:17:32.001Z</time></trkpt><trkpt lat="44.1257133" lon="12.1745817"><ele>134.4</ele><time>2026-04-25T10:17:34Z</time></trkpt><trkpt lat="44.1257367" lon="12.1744517"><ele>134.8</ele><time>2026-04-25T10:17:36Z</time></trkpt><trkpt lat="44.1257667" lon="12.1743217"><ele>135.2</ele><time>2026-04-25T10:17:38.001Z</time></trkpt><trkpt lat="44.1258117" lon="12.1741817"><ele>135.6</ele><time>2026-04-25T10:17:40Z</time></trkpt><trkpt lat="44.125855" lon="12.1740517"><ele>136.0</ele><time>2026-04-25T10:17:42.001Z</time></trkpt><trkpt lat="44.12591" lon="12.1739383"><ele>136.0</ele><time>2026-04-25T10:17:44.001Z</time></trkpt><trkpt lat="44.125955" lon="12.1738283"><ele>136.0</ele><time>2026-04-25T10:17:46.001Z</time></trkpt><trkpt lat="44.1260067" lon="12.1737133"><ele>136.0</ele><time>2026-04-25T10:17:48Z</time></trkpt><trkpt lat="44.126065" lon="12.1736"><ele>136.0</ele><time>2026-04-25T10:17:50Z</time></trkpt><trkpt lat="44.12613" lon="12.17348"><ele>136.0</ele><time>2026-04-25T10:17:52Z</time></trkpt><trkpt lat="44.1261917" lon="12.17337"><ele>136.0</ele><time>2026-04-25T10:17:54Z</time></trkpt><trkpt lat="44.126255" lon="12.17326"><ele>136.0</ele><time>2026-04-25T10:17:56.001Z</time></trkpt><trkpt lat="44.1263183" lon="12.1731583"><ele>136.0</ele><time>2026-04-25T10:17:58Z</time></trkpt><trkpt lat="44.1263817" lon="12.17306"><ele>136.0</ele><time>2026-04-25T10:18:00Z</time></trkpt><trkpt lat="44.12644" lon="12.172975"><ele>136.0</ele><time>2026-04-25T10:18:02.001Z</time></trkpt><trkpt lat="44.126505" lon="12.17291"><ele>137.4</ele><time>2026-04-25T10:18:04.001Z</time></trkpt><trkpt lat="44.1265683" lon="12.1728383"><ele>138.8</ele><time>2026-04-25T10:18:06Z</time></trkpt><trkpt lat="44.1266767" lon="12.17275"><ele>140.20000000000002</ele><time>2026-04-25T10:18:09.001Z</time></trkpt><trkpt lat="44.12675" lon="12.172695"><ele>141.6</ele><time>2026-04-25T10:18:11.001Z</time></trkpt><trkpt lat="44.12682" lon="12.1726433"><ele>143.0</ele><time>2026-04-25T10:18:13Z</time></trkpt><trkpt lat="44.1268883" lon="12.1725833"><ele>143.0</ele><time>2026-04-25T10:18:15.001Z</time></trkpt><trkpt lat="44.126955" lon="12.1725217"><ele>143.0</ele><time>2026-04-25T10:18:17.001Z</time></trkpt><trkpt lat="44.127025" lon="12.1724683"><ele>143.0</ele><time>2026-04-25T10:18:19.001Z</time></trkpt><trkpt lat="44.1270983" lon="12.1724033"><ele>143.0</ele><time>2026-04-25T10:18:21Z</time></trkpt><trkpt lat="44.1271817" lon="12.1723367"><ele>143.0</ele><time>2026-04-25T10:18:23Z</time></trkpt><trkpt lat="44.1272517" lon="12.1722817"><ele>143.0</ele><time>2026-04-25T10:18:25.001Z</time></trkpt><trkpt lat="44.12731" lon="12.172225"><ele>142.4</ele><time>2026-04-25T10:18:27.001Z</time></trkpt><trkpt lat="44.127375" lon="12.1721517"><ele>141.8</ele><time>2026-04-25T10:18:29.001Z</time></trkpt><trkpt lat="44.1274567" lon="12.1720717"><ele>141.2</ele><time>2026-04-25T10:18:31.001Z</time></trkpt><trkpt lat="44.1275483" lon="12.1719817"><ele>140.6</ele><time>2026-04-25T10:18:33.001Z</time></trkpt><trkpt lat="44.12763" lon="12.1718967"><ele>140.0</ele><time>2026-04-25T10:18:35Z</time></trkpt><trkpt lat="44.1277017" lon="12.1718083"><ele>142.0</ele><time>2026-04-25T10:18:37.001Z</time></trkpt><trkpt lat="44.1277733" lon="12.17173"><ele>144.0</ele><time>2026-04-25T10:18:39.001Z</time></trkpt><trkpt lat="44.1278467" lon="12.171645"><ele>146.0</ele><time>2026-04-25T10:18:41.001Z</time></trkpt><trkpt lat="44.1279133" lon="12.1715667"><ele>148.0</ele><time>2026-04-25T10:18:43Z</time></trkpt><trkpt lat="44.12798" lon="12.1714917"><ele>150.0</ele><time>2026-04-25T10:18:45.001Z</time></trkpt><trkpt lat="44.1280517" lon="12.171415"><ele>150.0</ele><time>2026-04-25T10:18:47Z</time></trkpt><trkpt lat="44.128115" lon="12.171335"><ele>150.0</ele><time>2026-04-25T10:18:49Z</time></trkpt><trkpt lat="44.12818" lon="12.1712533"><ele>150.0</ele><time>2026-04-25T10:18:51Z</time></trkpt><trkpt lat="44.128245" lon="12.1711667"><ele>150.0</ele><time>2026-04-25T10:18:53.001Z</time></trkpt><trkpt lat="44.128315" lon="12.1710833"><ele>150.0</ele><time>2026-04-25T10:18:55Z</time></trkpt><trkpt lat="44.12838" lon="12.1709967"><ele>150.0</ele><time>2026-04-25T10:18:57.001Z</time></trkpt><trkpt lat="44.1284333" lon="12.170895"><ele>150.16666666666666</ele><time>2026-04-25T10:18:59.001Z</time></trkpt><trkpt lat="44.1284867" lon="12.1707983"><ele>150.33333333333334</ele><time>2026-04-25T10:19:01.001Z</time></trkpt><trkpt lat="44.1285433" lon="12.17071"><ele>150.5</ele><time>2026-04-25T10:19:03.001Z</time></trkpt><trkpt lat="44.128595" lon="12.17063"><ele>150.66666666666669</ele><time>2026-04-25T10:19:05.001Z</time></trkpt><trkpt lat="44.1286417" lon="12.1705417"><ele>150.83333333333334</ele><time>2026-04-25T10:19:07Z</time></trkpt><trkpt lat="44.1286967" lon="12.1704533"><ele>151.0</ele><time>2026-04-25T10:19:09.001Z</time></trkpt><trkpt lat="44.12875" lon="12.1703667"><ele>150.66666666666669</ele><time>2026-04-25T10:19:11.001Z</time></trkpt><trkpt lat="44.1288017" lon="12.1702783"><ele>150.33333333333334</ele><time>2026-04-25T10:19:13Z</time></trkpt><trkpt lat="44.1288567" lon="12.1701867"><ele>150.0</ele><time>2026-04-25T10:19:15.001Z</time></trkpt><trkpt lat="44.12891" lon="12.1700967"><ele>149.66666666666666</ele><time>2026-04-25T10:19:17Z</time></trkpt><trkpt lat="44.1289733" lon="12.1700083"><ele>149.33333333333331</ele><time>2026-04-25T10:19:19Z</time></trkpt><trkpt lat="44.1290483" lon="12.1699183"><ele>149.0</ele><time>2026-04-25T10:19:21Z</time></trkpt><trkpt lat="44.12912" lon="12.1698267"><ele>149.0</ele><time>2026-04-25T10:19:23.001Z</time></trkpt><trkpt lat="44.129185" lon="12.1697267"><ele>149.0</ele><time>2026-04-25T10:19:24.999Z</time></trkpt><trkpt lat="44.1292517" lon="12.169625"><ele>149.0</ele><time>2026-04-25T10:19:27Z</time></trkpt><trkpt lat="44.1293233" lon="12.1695317"><ele>149.0</ele><time>2026-04-25T10:19:28.999Z</time></trkpt><trkpt lat="44.1293883" lon="12.1694517"><ele>149.0</ele><time>2026-04-25T10:19:30.999Z</time></trkpt><trkpt lat="44.129455" lon="12.1693583"><ele>149.0</ele><time>2026-04-25T10:19:33Z</time></trkpt><trkpt lat="44.1295233" lon="12.1692733"><ele>149.0</ele><time>2026-04-25T10:19:35Z</time></trkpt><trkpt lat="44.1295883" lon="12.1691817"><ele>149.0</ele><time>2026-04-25T10:19:37Z</time></trkpt><trkpt lat="44.129655" lon="12.16909"><ele>149.0</ele><time>2026-04-25T10:19:38.999Z</time></trkpt><trkpt lat="44.1297183" lon="12.168995"><ele>149.0</ele><time>2026-04-25T10:19:40.999Z</time></trkpt><trkpt lat="44.1297867" lon="12.1689033"><ele>149.83333333333331</ele><time>2026-04-25T10:19:43Z</time></trkpt><trkpt lat="44.1298517" lon="12.1688083"><ele>150.66666666666666</ele><time>2026-04-25T10:19:45Z</time></trkpt><trkpt lat="44.1299067" lon="12.168715"><ele>151.5</ele><time>2026-04-25T10:19:47Z</time></trkpt><trkpt lat="44.1299533" lon="12.1686167"><ele>152.33333333333334</ele><time>2026-04-25T10:19:49Z</time></trkpt><trkpt lat="44.13001" lon="12.16851"><ele>153.16666666666669</ele><time>2026-04-25T10:19:50.999Z</time></trkpt><trkpt lat="44.1300583" lon="12.1684133"><ele>154.0</ele><time>2026-04-25T10:19:53Z</time></trkpt><trkpt lat="44.13011" lon="12.1683083"><ele>154.0</ele><time>2026-04-25T10:19:55Z</time></trkpt><trkpt lat="44.13016" lon="12.1682083"><ele>154.0</ele><time>2026-04-25T10:19:56.999Z</time></trkpt><trkpt lat="44.1302067" lon="12.1681033"><ele>154.0</ele><time>2026-04-25T10:19:59Z</time></trkpt><trkpt lat="44.130255" lon="12.1679983"><ele>154.0</ele><time>2026-04-25T10:20:01Z</time></trkpt><trkpt lat="44.1303083" lon="12.1678883"><ele>154.0</ele><time>2026-04-25T10:20:02.999Z</time></trkpt><trkpt lat="44.1303617" lon="12.1677883"><ele>152.6</ele><time>2026-04-25T10:20:04.999Z</time></trkpt><trkpt lat="44.1304267" lon="12.1677"><ele>151.2</ele><time>2026-04-25T10:20:06.999Z</time></trkpt><trkpt lat="44.1304933" lon="12.16761"><ele>149.79999999999998</ele><time>2026-04-25T10:20:09Z</time></trkpt><trkpt lat="44.1305633" lon="12.1675333"><ele>148.4</ele><time>2026-04-25T10:20:11Z</time></trkpt><trkpt lat="44.1306417" lon="12.1674567"><ele>147.0</ele><time>2026-04-25T10:20:13Z</time></trkpt><trkpt lat="44.1307183" lon="12.1673833"><ele>148.79999999999998</ele><time>2026-04-25T10:20:14.999Z</time></trkpt><trkpt lat="44.1308017" lon="12.1673083"><ele>150.6</ele><time>2026-04-25T10:20:16.999Z</time></trkpt><trkpt lat="44.1308817" lon="12.167235"><ele>152.39999999999998</ele><time>2026-04-25T10:20:18.999Z</time></trkpt><trkpt lat="44.1309617" lon="12.1671633"><ele>154.2</ele><time>2026-04-25T10:20:20.999Z</time></trkpt><trkpt lat="44.1310317" lon="12.1670733"><ele>156.0</ele><time>2026-04-25T10:20:23Z</time></trkpt><trkpt lat="44.13111" lon="12.1669917"><ele>156.0</ele><time>2026-04-25T10:20:25Z</time></trkpt><trkpt lat="44.131165" lon="12.1668667"><ele>156.0</ele><time>2026-04-25T10:20:26.999Z</time></trkpt><trkpt lat="44.131205" lon="12.166735"><ele>156.0</ele><time>2026-04-25T10:20:29Z</time></trkpt><trkpt lat="44.1312417" lon="12.1665883"><ele>156.0</ele><time>2026-04-25T10:20:30.999Z</time></trkpt><trkpt lat="44.1312767" lon="12.16645"><ele>156.0</ele><time>2026-04-25T10:20:33Z</time></trkpt><trkpt lat="44.1313217" lon="12.1663133"><ele>155.0</ele><time>2026-04-25T10:20:34.999Z</time></trkpt><trkpt lat="44.131355" lon="12.1661717"><ele>154.0</ele><time>2026-04-25T10:20:37Z</time></trkpt><trkpt lat="44.1313933" lon="12.1660367"><ele>153.0</ele><time>2026-04-25T10:20:38.999Z</time></trkpt><trkpt lat="44.13144" lon="12.1658817"><ele>152.0</ele><time>2026-04-25T10:20:40.999Z</time></trkpt><trkpt lat="44.131485" lon="12.1657367"><ele>151.0</ele><time>2026-04-25T10:20:43Z</time></trkpt><trkpt lat="44.13153" lon="12.1655917"><ele>152.0</ele><time>2026-04-25T10:20:44.999Z</time></trkpt><trkpt lat="44.1315717" lon="12.165455"><ele>153.0</ele><time>2026-04-25T10:20:46.999Z</time></trkpt><trkpt lat="44.1316233" lon="12.16532"><ele>154.0</ele><time>2026-04-25T10:20:48.999Z</time></trkpt><trkpt lat="44.1316717" lon="12.1651867"><ele>155.0</ele><time>2026-04-25T10:20:51Z</time></trkpt><trkpt lat="44.1317267" lon="12.1650483"><ele>156.0</ele><time>2026-04-25T10:20:53Z</time></trkpt><trkpt lat="44.13179" lon="12.1649067"><ele>155.8</ele><time>2026-04-25T10:20:55Z</time></trkpt><trkpt lat="44.1318483" lon="12.1647717"><ele>155.6</ele><time>2026-04-25T10:20:57Z</time></trkpt><trkpt lat="44.13191" lon="12.1646217"><ele>155.4</ele><time>2026-04-25T10:20:59Z</time></trkpt><trkpt lat="44.1319733" lon="12.16447"><ele>155.2</ele><time>2026-04-25T10:21:00.999Z</time></trkpt><trkpt lat="44.1320083" lon="12.16439"><ele>155.0</ele><time>2026-04-25T10:21:02Z</time></trkpt><trkpt lat="44.1320483" lon="12.1643083"><ele>155.0</ele><time>2026-04-25T10:21:03Z</time></trkpt><trkpt lat="44.1320833" lon="12.164225"><ele>155.0</ele><time>2026-04-25T10:21:04Z</time></trkpt><trkpt lat="44.13212" lon="12.1641317"><ele>155.0</ele><time>2026-04-25T10:21:05Z</time></trkpt><trkpt lat="44.1321517" lon="12.1640433"><ele>155.0</ele><time>2026-04-25T10:21:05.999Z</time></trkpt><trkpt lat="44.1321867" lon="12.1639517"><ele>155.0</ele><time>2026-04-25T10:21:06.999Z</time></trkpt><trkpt lat="44.132225" lon="12.163855"><ele>155.0</ele><time>2026-04-25T10:21:08Z</time></trkpt><trkpt lat="44.1322617" lon="12.16376"><ele>155.0</ele><time>2026-04-25T10:21:09Z</time></trkpt><trkpt lat="44.1322933" lon="12.1636517"><ele>153.83333333333331</ele><time>2026-04-25T10:21:09.999Z</time></trkpt><trkpt lat="44.1323233" lon="12.163545"><ele>152.66666666666666</ele><time>2026-04-25T10:21:11Z</time></trkpt><trkpt lat="44.13235" lon="12.1634317"><ele>151.5</ele><time>2026-04-25T10:21:11.999Z</time></trkpt><trkpt lat="44.13237" lon="12.16331"><ele>150.33333333333334</ele><time>2026-04-25T10:21:12.999Z</time></trkpt><trkpt lat="44.1323933" lon="12.163185"><ele>149.16666666666669</ele><time>2026-04-25T10:21:14Z</time></trkpt><trkpt lat="44.132405" lon="12.16306"><ele>148.0</ele><time>2026-04-25T10:21:14.999Z</time></trkpt><trkpt lat="44.1324233" lon="12.16293"><ele>148.0</ele><time>2026-04-25T10:21:15.999Z</time></trkpt><trkpt lat="44.1324383" lon="12.1628017"><ele>148.0</ele><time>2026-04-25T10:21:17Z</time></trkpt><trkpt lat="44.132445" lon="12.162675"><ele>148.0</ele><time>2026-04-25T10:21:18Z</time></trkpt><trkpt lat="44.1324533" lon="12.16254"><ele>148.0</ele><time>2026-04-25T10:21:19Z</time></trkpt><trkpt lat="44.1324683" lon="12.1624067"><ele>148.0</ele><time>2026-04-25T10:21:19.999Z</time></trkpt><trkpt lat="44.1324783" lon="12.162275"><ele>148.16666666666669</ele><time>2026-04-25T10:21:21Z</time></trkpt><trkpt lat="44.132485" lon="12.1621533"><ele>148.33333333333334</ele><time>2026-04-25T10:21:21.999Z</time></trkpt><trkpt lat="44.1324983" lon="12.1620267"><ele>148.5</ele><time>2026-04-25T10:21:23Z</time></trkpt><trkpt lat="44.132515" lon="12.1619067"><ele>148.66666666666666</ele><time>2026-04-25T10:21:23.999Z</time></trkpt><trkpt lat="44.132535" lon="12.1617883"><ele>148.83333333333331</ele><time>2026-04-25T10:21:24.999Z</time></trkpt><trkpt lat="44.1325617" lon="12.1616683"><ele>149.0</ele><time>2026-04-25T10:21:26Z</time></trkpt><trkpt lat="44.1325833" lon="12.1615517"><ele>149.57142857142856</ele><time>2026-04-25T10:21:26.999Z</time></trkpt><trkpt lat="44.1326083" lon="12.16145"><ele>150.14285714285714</ele><time>2026-04-25T10:21:27.999Z</time></trkpt><trkpt lat="44.132635" lon="12.16135"><ele>150.71428571428572</ele><time>2026-04-25T10:21:29Z</time></trkpt><trkpt lat="44.1326633" lon="12.1612583"><ele>151.28571428571428</ele><time>2026-04-25T10:21:30Z</time></trkpt><trkpt lat="44.13269" lon="12.16117"><ele>151.85714285714286</ele><time>2026-04-25T10:21:31Z</time></trkpt><trkpt lat="44.13272" lon="12.1610883"><ele>152.42857142857142</ele><time>2026-04-25T10:21:31.999Z</time></trkpt><trkpt lat="44.132745" lon="12.1610033"><ele>153.0</ele><time>2026-04-25T10:21:32.999Z</time></trkpt><trkpt lat="44.13277" lon="12.16092"><ele>153.0</ele><time>2026-04-25T10:21:33.999Z</time></trkpt><trkpt lat="44.1328167" lon="12.1607767"><ele>153.0</ele><time>2026-04-25T10:21:35.999Z</time></trkpt><trkpt lat="44.1328733" lon="12.16064"><ele>153.0</ele><time>2026-04-25T10:21:37.999Z</time></trkpt><trkpt lat="44.132915" lon="12.1604967"><ele>153.0</ele><time>2026-04-25T10:21:40Z</time></trkpt><trkpt lat="44.1329583" lon="12.1603617"><ele>153.0</ele><time>2026-04-25T10:21:41.999Z</time></trkpt><trkpt lat="44.133005" lon="12.1602217"><ele>152.75</ele><time>2026-04-25T10:21:44Z</time></trkpt><trkpt lat="44.1330483" lon="12.1600767"><ele>152.5</ele><time>2026-04-25T10:21:45.999Z</time></trkpt><trkpt lat="44.1330933" lon="12.159935"><ele>152.25</ele><time>2026-04-25T10:21:48Z</time></trkpt><trkpt lat="44.1331417" lon="12.1597883"><ele>152.0</ele><time>2026-04-25T10:21:50Z</time></trkpt><trkpt lat="44.1331867" lon="12.1596367"><ele>152.4</ele><time>2026-04-25T10:21:52Z</time></trkpt><trkpt lat="44.1332267" lon="12.1594933"><ele>152.79999999999998</ele><time>2026-04-25T10:21:53.999Z</time></trkpt><trkpt lat="44.1332667" lon="12.1593483"><ele>153.2</ele><time>2026-04-25T10:21:56Z</time></trkpt><trkpt lat="44.133305" lon="12.15921"><ele>153.6</ele><time>2026-04-25T10:21:58Z</time></trkpt><trkpt lat="44.13334" lon="12.1590683"><ele>154.0</ele><time>2026-04-25T10:21:59.999Z</time></trkpt><trkpt lat="44.1333817" lon="12.15893"><ele>154.2</ele><time>2026-04-25T10:22:02Z</time></trkpt><trkpt lat="44.133425" lon="12.1587967"><ele>154.4</ele><time>2026-04-25T10:22:03.999Z</time></trkpt><trkpt lat="44.133475" lon="12.1586717"><ele>154.6</ele><time>2026-04-25T10:22:05.999Z</time></trkpt><trkpt lat="44.1335217" lon="12.15855"><ele>154.8</ele><time>2026-04-25T10:22:07.999Z</time></trkpt><trkpt lat="44.1335617" lon="12.1584417"><ele>155.0</ele><time>2026-04-25T10:22:10Z</time></trkpt><trkpt lat="44.1335983" lon="12.1583233"><ele>155.0</ele><time>2026-04-25T10:22:12Z</time></trkpt><trkpt lat="44.13363" lon="12.1582117"><ele>155.0</ele><time>2026-04-25T10:22:14Z</time></trkpt><trkpt lat="44.133655" lon="12.1581117"><ele>155.0</ele><time>2026-04-25T10:22:16Z</time></trkpt><trkpt lat="44.13368" lon="12.1580083"><ele>155.0</ele><time>2026-04-25T10:22:18Z</time></trkpt><trkpt lat="44.1337167" lon="12.1579117"><ele>155.0</ele><time>2026-04-25T10:22:20Z</time></trkpt><trkpt lat="44.1337467" lon="12.157815"><ele>155.0</ele><time>2026-04-25T10:22:21.999Z</time></trkpt><trkpt lat="44.1337733" lon="12.1577317"><ele>154.71428571428572</ele><time>2026-04-25T10:22:24Z</time></trkpt><trkpt lat="44.1338067" lon="12.1576483"><ele>154.42857142857142</ele><time>2026-04-25T10:22:26Z</time></trkpt><trkpt lat="44.133835" lon="12.157565"><ele>154.14285714285714</ele><time>2026-04-25T10:22:28Z</time></trkpt><trkpt lat="44.133865" lon="12.1574833"><ele>153.85714285714286</ele><time>2026-04-25T10:22:30Z</time></trkpt><trkpt lat="44.1338933" lon="12.1573967"><ele>153.57142857142858</ele><time>2026-04-25T10:22:32Z</time></trkpt><trkpt lat="44.133925" lon="12.157315"><ele>153.28571428571428</ele><time>2026-04-25T10:22:33.999Z</time></trkpt><trkpt lat="44.1339533" lon="12.1572317"><ele>153.0</ele><time>2026-04-25T10:22:36Z</time></trkpt><trkpt lat="44.13398" lon="12.1571517"><ele>152.71428571428572</ele><time>2026-04-25T10:22:38Z</time></trkpt><trkpt lat="44.1340067" lon="12.1570683"><ele>152.42857142857144</ele><time>2026-04-25T10:22:40Z</time></trkpt><trkpt lat="44.13403" lon="12.1569833"><ele>152.14285714285717</ele><time>2026-04-25T10:22:41.999Z</time></trkpt><trkpt lat="44.1340583" lon="12.1569"><ele>151.85714285714286</ele><time>2026-04-25T10:22:43.999Z</time></trkpt><trkpt lat="44.1340833" lon="12.1568133"><ele>151.57142857142858</ele><time>2026-04-25T10:22:45.999Z</time></trkpt><trkpt lat="44.1341117" lon="12.1567317"><ele>151.2857142857143</ele><time>2026-04-25T10:22:47.998Z</time></trkpt><trkpt lat="44.1341467" lon="12.1566117"><ele>151.0</ele><time>2026-04-25T10:22:50.999Z</time></trkpt><trkpt lat="44.1341633" lon="12.156525"><ele>154.14285714285717</ele><time>2026-04-25T10:22:52.999Z</time></trkpt><trkpt lat="44.13419" lon="12.15644"><ele>157.28571428571428</ele><time>2026-04-25T10:22:54.999Z</time></trkpt><trkpt lat="44.1342117" lon="12.1563533"><ele>160.42857142857144</ele><time>2026-04-25T10:22:56.999Z</time></trkpt><trkpt lat="44.1342383" lon="12.156265"><ele>163.57142857142858</ele><time>2026-04-25T10:22:58.999Z</time></trkpt><trkpt lat="44.1342817" lon="12.1561967"><ele>166.71428571428572</ele><time>2026-04-25T10:23:00.998Z</time></trkpt><trkpt lat="44.134345" lon="12.1561717"><ele>169.85714285714286</ele><time>2026-04-25T10:23:02.999Z</time></trkpt><trkpt lat="44.134415" lon="12.1561917"><ele>173.0</ele><time>2026-04-25T10:23:04.999Z</time></trkpt><trkpt lat="44.1345117" lon="12.1562667"><ele>173.0</ele><time>2026-04-25T10:23:06.999Z</time></trkpt><trkpt lat="44.1345667" lon="12.1563133"><ele>173.0</ele><time>2026-04-25T10:23:07.999Z</time></trkpt><trkpt lat="44.1346217" lon="12.1563617"><ele>173.0</ele><time>2026-04-25T10:23:08.998Z</time></trkpt><trkpt lat="44.134685" lon="12.156425"><ele>173.0</ele><time>2026-04-25T10:23:09.998Z</time></trkpt><trkpt lat="44.1347483" lon="12.1564867"><ele>173.0</ele><time>2026-04-25T10:23:10.999Z</time></trkpt><trkpt lat="44.1348117" lon="12.1565617"><ele>173.0</ele><time>2026-04-25T10:23:11.999Z</time></trkpt><trkpt lat="44.13488" lon="12.15664"><ele>170.4</ele><time>2026-04-25T10:23:12.999Z</time></trkpt><trkpt lat="44.13495" lon="12.1567383"><ele>167.8</ele><time>2026-04-25T10:23:13.999Z</time></trkpt><trkpt lat="44.1350267" lon="12.156845"><ele>165.2</ele><time>2026-04-25T10:23:14.998Z</time></trkpt><trkpt lat="44.1351017" lon="12.1569633"><ele>162.6</ele><time>2026-04-25T10:23:15.998Z</time></trkpt><trkpt lat="44.1351667" lon="12.1570917"><ele>160.0</ele><time>2026-04-25T10:23:16.999Z</time></trkpt><trkpt lat="44.135225" lon="12.1572217"><ele>160.0</ele><time>2026-04-25T10:23:17.998Z</time></trkpt><trkpt lat="44.13529" lon="12.157335"><ele>160.0</ele><time>2026-04-25T10:23:18.999Z</time></trkpt><trkpt lat="44.13537" lon="12.1574367"><ele>160.0</ele><time>2026-04-25T10:23:19.998Z</time></trkpt><trkpt lat="44.1354633" lon="12.1575167"><ele>160.0</ele><time>2026-04-25T10:23:20.999Z</time></trkpt><trkpt lat="44.135555" lon="12.157575"><ele>160.0</ele><time>2026-04-25T10:23:21.999Z</time></trkpt><trkpt lat="44.13565" lon="12.1576167"><ele>157.6</ele><time>2026-04-25T10:23:22.998Z</time></trkpt><trkpt lat="44.13574" lon="12.1576567"><ele>155.2</ele><time>2026-04-25T10:23:23.998Z</time></trkpt><trkpt lat="44.135825" lon="12.15769"><ele>152.8</ele><time>2026-04-25T10:23:24.999Z</time></trkpt><trkpt lat="44.1359167" lon="12.1577133"><ele>150.4</ele><time>2026-04-25T10:23:25.998Z</time></trkpt><trkpt lat="44.1360117" lon="12.1577233"><ele>148.0</ele><time>2026-04-25T10:23:26.998Z</time></trkpt><trkpt lat="44.1361017" lon="12.15773"><ele>148.0</ele><time>2026-04-25T10:23:27.998Z</time></trkpt><trkpt lat="44.1361883" lon="12.1577283"><ele>148.0</ele><time>2026-04-25T10:23:28.999Z</time></trkpt><trkpt lat="44.136285" lon="12.15772"><ele>148.0</ele><time>2026-04-25T10:23:29.998Z</time></trkpt><trkpt lat="44.1363867" lon="12.1577083"><ele>148.0</ele><time>2026-04-25T10:23:30.999Z</time></trkpt><trkpt lat="44.1364833" lon="12.1577083"><ele>148.0</ele><time>2026-04-25T10:23:31.999Z</time></trkpt><trkpt lat="44.136565" lon="12.1577133"><ele>145.8</ele><time>2026-04-25T10:23:32.998Z</time></trkpt><trkpt lat="44.1366583" lon="12.157725"><ele>143.60000000000002</ele><time>2026-04-25T10:23:33.998Z</time></trkpt><trkpt lat="44.13676" lon="12.15774"><ele>141.39999999999998</ele><time>2026-04-25T10:23:34.999Z</time></trkpt><trkpt lat="44.136855" lon="12.1577817"><ele>139.2</ele><time>2026-04-25T10:23:35.999Z</time></trkpt><trkpt lat="44.136955" lon="12.1578383"><ele>137.0</ele><time>2026-04-25T10:23:36.999Z</time></trkpt><trkpt lat="44.1370567" lon="12.1579067"><ele>137.0</ele><time>2026-04-25T10:23:37.998Z</time></trkpt><trkpt lat="44.1371533" lon="12.1579883"><ele>137.0</ele><time>2026-04-25T10:23:38.998Z</time></trkpt><trkpt lat="44.1372533" lon="12.158075"><ele>137.0</ele><time>2026-04-25T10:23:39.999Z</time></trkpt><trkpt lat="44.1373567" lon="12.1581617"><ele>137.0</ele><time>2026-04-25T10:23:40.998Z</time></trkpt><trkpt lat="44.13746" lon="12.158255"><ele>134.75</ele><time>2026-04-25T10:23:41.998Z</time></trkpt><trkpt lat="44.1375583" lon="12.1583483"><ele>132.5</ele><time>2026-04-25T10:23:42.999Z</time></trkpt><trkpt lat="44.1376617" lon="12.1584433"><ele>130.25</ele><time>2026-04-25T10:23:43.999Z</time></trkpt><trkpt lat="44.1377683" lon="12.15854"><ele>128.0</ele><time>2026-04-25T10:23:44.998Z</time></trkpt><trkpt lat="44.13787" lon="12.15864"><ele>128.0</ele><time>2026-04-25T10:23:45.999Z</time></trkpt><trkpt lat="44.1379733" lon="12.15873"><ele>128.0</ele><time>2026-04-25T10:23:46.999Z</time></trkpt><trkpt lat="44.1380733" lon="12.1588217"><ele>128.0</ele><time>2026-04-25T10:23:47.999Z</time></trkpt><trkpt lat="44.1381767" lon="12.158905"><ele>128.0</ele><time>2026-04-25T10:23:48.999Z</time></trkpt><trkpt lat="44.138275" lon="12.159"><ele>127.0</ele><time>2026-04-25T10:23:49.999Z</time></trkpt><trkpt lat="44.13837" lon="12.1590933"><ele>126.00000000000001</ele><time>2026-04-25T10:23:50.999Z</time></trkpt><trkpt lat="44.1384683" lon="12.1591783"><ele>125.00000000000001</ele><time>2026-04-25T10:23:51.999Z</time></trkpt><trkpt lat="44.1385617" lon="12.159265"><ele>124.0</ele><time>2026-04-25T10:23:52.998Z</time></trkpt><trkpt lat="44.1386433" lon="12.15934"><ele>123.0</ele><time>2026-04-25T10:23:53.999Z</time></trkpt><trkpt lat="44.13872" lon="12.1593983"><ele>123.0</ele><time>2026-04-25T10:23:54.999Z</time></trkpt><trkpt lat="44.138795" lon="12.1594483"><ele>123.0</ele><time>2026-04-25T10:23:55.999Z</time></trkpt><trkpt lat="44.138865" lon="12.1594617"><ele>123.0</ele><time>2026-04-25T10:23:56.999Z</time></trkpt><trkpt lat="44.138935" lon="12.1594467"><ele>123.0</ele><time>2026-04-25T10:23:57.998Z</time></trkpt><trkpt lat="44.1390133" lon="12.1594083"><ele>123.0</ele><time>2026-04-25T10:23:58.999Z</time></trkpt><trkpt lat="44.1390967" lon="12.1593717"><ele>123.0</ele><time>2026-04-25T10:23:59.999Z</time></trkpt><trkpt lat="44.13919" lon="12.1593533"><ele>122.80000000000001</ele><time>2026-04-25T10:24:00.998Z</time></trkpt><trkpt lat="44.1392833" lon="12.1593283"><ele>122.60000000000001</ele><time>2026-04-25T10:24:01.999Z</time></trkpt><trkpt lat="44.1393833" lon="12.159305"><ele>122.39999999999999</ele><time>2026-04-25T10:24:02.999Z</time></trkpt><trkpt lat="44.1394933" lon="12.159265"><ele>122.19999999999999</ele><time>2026-04-25T10:24:03.999Z</time></trkpt><trkpt lat="44.139605" lon="12.15922"><ele>122.0</ele><time>2026-04-25T10:24:04.999Z</time></trkpt><trkpt lat="44.13972" lon="12.1591883"><ele>122.0</ele><time>2026-04-25T10:24:05.999Z</time></trkpt><trkpt lat="44.1398383" lon="12.15915"><ele>122.0</ele><time>2026-04-25T10:24:06.998Z</time></trkpt><trkpt lat="44.139965" lon="12.1591183"><ele>122.0</ele><time>2026-04-25T10:24:07.999Z</time></trkpt><trkpt lat="44.1400883" lon="12.15908"><ele>122.0</ele><time>2026-04-25T10:24:08.999Z</time></trkpt><trkpt lat="44.1402167" lon="12.1590383"><ele>118.25</ele><time>2026-04-25T10:24:09.999Z</time></trkpt><trkpt lat="44.140335" lon="12.159"><ele>114.5</ele><time>2026-04-25T10:24:10.999Z</time></trkpt><trkpt lat="44.14046" lon="12.158965"><ele>110.75</ele><time>2026-04-25T10:24:11.998Z</time></trkpt><trkpt lat="44.1405883" lon="12.1589283"><ele>107.0</ele><time>2026-04-25T10:24:12.999Z</time></trkpt><trkpt lat="44.1407117" lon="12.158895"><ele>106.0</ele><time>2026-04-25T10:24:13.999Z</time></trkpt><trkpt lat="44.140835" lon="12.1588617"><ele>105.0</ele><time>2026-04-25T10:24:14.999Z</time></trkpt><trkpt lat="44.140965" lon="12.15882"><ele>104.0</ele><time>2026-04-25T10:24:15.998Z</time></trkpt><trkpt lat="44.1410867" lon="12.1587817"><ele>103.0</ele><time>2026-04-25T10:24:16.998Z</time></trkpt><trkpt lat="44.1412133" lon="12.15874"><ele>103.0</ele><time>2026-04-25T10:24:17.999Z</time></trkpt><trkpt lat="44.14134" lon="12.1586967"><ele>103.0</ele><time>2026-04-25T10:24:18.999Z</time></trkpt><trkpt lat="44.1414633" lon="12.1586517"><ele>103.0</ele><time>2026-04-25T10:24:19.999Z</time></trkpt><trkpt lat="44.1415883" lon="12.1585967"><ele>103.0</ele><time>2026-04-25T10:24:20.999Z</time></trkpt><trkpt lat="44.1417117" lon="12.1585317"><ele>101.75</ele><time>2026-04-25T10:24:21.999Z</time></trkpt><trkpt lat="44.1418383" lon="12.1584667"><ele>100.5</ele><time>2026-04-25T10:24:22.999Z</time></trkpt><trkpt lat="44.1419667" lon="12.158405"><ele>99.25</ele><time>2026-04-25T10:24:23.999Z</time></trkpt><trkpt lat="44.1421" lon="12.15833"><ele>98.0</ele><time>2026-04-25T10:24:24.998Z</time></trkpt><trkpt lat="44.14223" lon="12.158265"><ele>98.0</ele><time>2026-04-25T10:24:25.998Z</time></trkpt><trkpt lat="44.1423667" lon="12.15821"><ele>98.0</ele><time>2026-04-25T10:24:26.999Z</time></trkpt><trkpt lat="44.1425" lon="12.158185"><ele>98.0</ele><time>2026-04-25T10:24:27.999Z</time></trkpt><trkpt lat="44.1426367" lon="12.158165"><ele>98.0</ele><time>2026-04-25T10:24:28.999Z</time></trkpt><trkpt lat="44.1427783" lon="12.1581533"><ele>96.25</ele><time>2026-04-25T10:24:29.999Z</time></trkpt><trkpt lat="44.1429183" lon="12.1581583"><ele>94.5</ele><time>2026-04-25T10:24:30.999Z</time></trkpt><trkpt lat="44.1430583" lon="12.1581783"><ele>92.75</ele><time>2026-04-25T10:24:31.999Z</time></trkpt><trkpt lat="44.14319" lon="12.158195"><ele>91.0</ele><time>2026-04-25T10:24:32.998Z</time></trkpt><trkpt lat="44.1433183" lon="12.1582183"><ele>91.0</ele><time>2026-04-25T10:24:33.999Z</time></trkpt><trkpt lat="44.1434433" lon="12.1582383"><ele>91.0</ele><time>2026-04-25T10:24:34.999Z</time></trkpt><trkpt lat="44.1435533" lon="12.1582417"><ele>91.0</ele><time>2026-04-25T10:24:35.999Z</time></trkpt><trkpt lat="44.143655" lon="12.1582317"><ele>91.0</ele><time>2026-04-25T10:24:36.999Z</time></trkpt><trkpt lat="44.1437567" lon="12.158205"><ele>91.0</ele><time>2026-04-25T10:24:37.999Z</time></trkpt><trkpt lat="44.14386" lon="12.1581783"><ele>89.4</ele><time>2026-04-25T10:24:38.999Z</time></trkpt><trkpt lat="44.14397" lon="12.1581583"><ele>87.8</ele><time>2026-04-25T10:24:39.999Z</time></trkpt><trkpt lat="44.1440783" lon="12.15812"><ele>86.2</ele><time>2026-04-25T10:24:40.999Z</time></trkpt><trkpt lat="44.144185" lon="12.1580867"><ele>84.60000000000001</ele><time>2026-04-25T10:24:41.999Z</time></trkpt><trkpt lat="44.1442967" lon="12.15806"><ele>83.0</ele><time>2026-04-25T10:24:42.998Z</time></trkpt><trkpt lat="44.14441" lon="12.15803"><ele>82.25</ele><time>2026-04-25T10:24:43.998Z</time></trkpt><trkpt lat="44.1445267" lon="12.158005"><ele>81.5</ele><time>2026-04-25T10:24:44.998Z</time></trkpt><trkpt lat="44.1446433" lon="12.1579833"><ele>80.75</ele><time>2026-04-25T10:24:45.998Z</time></trkpt><trkpt lat="44.14476" lon="12.1579617"><ele>80.0</ele><time>2026-04-25T10:24:46.999Z</time></trkpt><trkpt lat="44.1448817" lon="12.1579383"><ele>78.25</ele><time>2026-04-25T10:24:47.998Z</time></trkpt><trkpt lat="44.1450033" lon="12.1579133"><ele>76.5</ele><time>2026-04-25T10:24:48.998Z</time></trkpt><trkpt lat="44.14512" lon="12.1578983"><ele>74.75</ele><time>2026-04-25T10:24:49.999Z</time></trkpt><trkpt lat="44.1452383" lon="12.1578933"><ele>73.0</ele><time>2026-04-25T10:24:50.998Z</time></trkpt><trkpt lat="44.1453467" lon="12.1579033"><ele>73.0</ele><time>2026-04-25T10:24:51.999Z</time></trkpt><trkpt lat="44.1454533" lon="12.1579167"><ele>73.0</ele><time>2026-04-25T10:24:52.999Z</time></trkpt><trkpt lat="44.1455633" lon="12.1579267"><ele>73.0</ele><time>2026-04-25T10:24:53.998Z</time></trkpt><trkpt lat="44.1456683" lon="12.1579417"><ele>73.0</ele><time>2026-04-25T10:24:54.999Z</time></trkpt><trkpt lat="44.1457683" lon="12.1579667"><ele>73.0</ele><time>2026-04-25T10:24:55.999Z</time></trkpt><trkpt lat="44.1458617" lon="12.1579883"><ele>72.6</ele><time>2026-04-25T10:24:56.999Z</time></trkpt><trkpt lat="44.1459583" lon="12.1580183"><ele>72.19999999999999</ele><time>2026-04-25T10:24:57.999Z</time></trkpt><trkpt lat="44.1460533" lon="12.1580433"><ele>71.8</ele><time>2026-04-25T10:24:58.998Z</time></trkpt><trkpt lat="44.1461533" lon="12.1580717"><ele>71.39999999999999</ele><time>2026-04-25T10:24:59.999Z</time></trkpt><trkpt lat="44.1462483" lon="12.15809"><ele>71.0</ele><time>2026-04-25T10:25:00.998Z</time></trkpt><trkpt lat="44.1463433" lon="12.1581117"><ele>71.0</ele><time>2026-04-25T10:25:01.999Z</time></trkpt><trkpt lat="44.1464383" lon="12.15814"><ele>71.0</ele><time>2026-04-25T10:25:02.999Z</time></trkpt><trkpt lat="44.1465333" lon="12.158165"><ele>71.0</ele><time>2026-04-25T10:25:03.998Z</time></trkpt><trkpt lat="44.1466083" lon="12.158185"><ele>71.0</ele><time>2026-04-25T10:25:04.999Z</time></trkpt><trkpt lat="44.1466833" lon="12.1582"><ele>71.0</ele><time>2026-04-25T10:25:05.999Z</time></trkpt><trkpt lat="44.1467517" lon="12.1582183"><ele>71.0</ele><time>2026-04-25T10:25:06.998Z</time></trkpt><trkpt lat="44.1468617" lon="12.1582367"><ele>70.16666666666667</ele><time>2026-04-25T10:25:08.998Z</time></trkpt><trkpt lat="44.1469333" lon="12.1581767"><ele>69.33333333333334</ele><time>2026-04-25T10:25:10.999Z</time></trkpt><trkpt lat="44.146985" lon="12.15804"><ele>68.5</ele><time>2026-04-25T10:25:12.998Z</time></trkpt><trkpt lat="44.1470133" lon="12.1579567"><ele>67.66666666666667</ele><time>2026-04-25T10:25:13.999Z</time></trkpt><trkpt lat="44.1470417" lon="12.1578567"><ele>66.83333333333333</ele><time>2026-04-25T10:25:14.999Z</time></trkpt><trkpt lat="44.1470733" lon="12.157745"><ele>66.0</ele><time>2026-04-25T10:25:15.999Z</time></trkpt><trkpt lat="44.1471017" lon="12.1576417"><ele>66.0</ele><time>2026-04-25T10:25:16.998Z</time></trkpt><trkpt lat="44.14713" lon="12.157525"><ele>66.0</ele><time>2026-04-25T10:25:17.998Z</time></trkpt><trkpt lat="44.14716" lon="12.1574083"><ele>66.0</ele><time>2026-04-25T10:25:18.998Z</time></trkpt><trkpt lat="44.1471883" lon="12.157295"><ele>66.0</ele><time>2026-04-25T10:25:19.998Z</time></trkpt><trkpt lat="44.1472267" lon="12.1572"><ele>66.0</ele><time>2026-04-25T10:25:20.998Z</time></trkpt><trkpt lat="44.1472783" lon="12.1571083"><ele>66.0</ele><time>2026-04-25T10:25:21.999Z</time></trkpt><trkpt lat="44.1473483" lon="12.157045"><ele>64.39999999999999</ele><time>2026-04-25T10:25:22.999Z</time></trkpt><trkpt lat="44.1474417" lon="12.15703"><ele>62.8</ele><time>2026-04-25T10:25:23.999Z</time></trkpt><trkpt lat="44.147535" lon="12.15705"><ele>61.199999999999996</ele><time>2026-04-25T10:25:24.998Z</time></trkpt><trkpt lat="44.1476217" lon="12.1570983"><ele>59.599999999999994</ele><time>2026-04-25T10:25:25.999Z</time></trkpt><trkpt lat="44.1477083" lon="12.1571433"><ele>58.0</ele><time>2026-04-25T10:25:26.998Z</time></trkpt><trkpt lat="44.1477883" lon="12.1571817"><ele>57.99999999999999</ele><time>2026-04-25T10:25:27.999Z</time></trkpt><trkpt lat="44.1478683" lon="12.1572167"><ele>58.0</ele><time>2026-04-25T10:25:28.999Z</time></trkpt><trkpt lat="44.1479517" lon="12.1572583"><ele>58.0</ele><time>2026-04-25T10:25:29.999Z</time></trkpt><trkpt lat="44.1480367" lon="12.157305"><ele>58.0</ele><time>2026-04-25T10:25:30.999Z</time></trkpt><trkpt lat="44.14812" lon="12.157345"><ele>57.99999999999999</ele><time>2026-04-25T10:25:31.999Z</time></trkpt><trkpt lat="44.1482067" lon="12.1573983"><ele>58.0</ele><time>2026-04-25T10:25:32.999Z</time></trkpt><trkpt lat="44.1482917" lon="12.1574417"><ele>58.33333333333333</ele><time>2026-04-25T10:25:33.999Z</time></trkpt><trkpt lat="44.148375" lon="12.1574733"><ele>58.666666666666664</ele><time>2026-04-25T10:25:34.998Z</time></trkpt><trkpt lat="44.1484617" lon="12.1575017"><ele>59.0</ele><time>2026-04-25T10:25:35.998Z</time></trkpt><trkpt lat="44.14855" lon="12.15753"><ele>59.33333333333333</ele><time>2026-04-25T10:25:36.998Z</time></trkpt><trkpt lat="44.1486317" lon="12.15756"><ele>59.666666666666664</ele><time>2026-04-25T10:25:37.998Z</time></trkpt><trkpt lat="44.1487183" lon="12.1575967"><ele>60.0</ele><time>2026-04-25T10:25:38.999Z</time></trkpt><trkpt lat="44.1488033" lon="12.1576233"><ele>60.0</ele><time>2026-04-25T10:25:39.999Z</time></trkpt><trkpt lat="44.1488867" lon="12.1576483"><ele>60.0</ele><time>2026-04-25T10:25:40.999Z</time></trkpt><trkpt lat="44.1489783" lon="12.1576717"><ele>60.0</ele><time>2026-04-25T10:25:41.999Z</time></trkpt><trkpt lat="44.149065" lon="12.1577033"><ele>60.0</ele><time>2026-04-25T10:25:42.999Z</time></trkpt><trkpt lat="44.1491483" lon="12.1577367"><ele>60.0</ele><time>2026-04-25T10:25:43.998Z</time></trkpt><trkpt lat="44.14924" lon="12.15777"><ele>60.0</ele><time>2026-04-25T10:25:44.998Z</time></trkpt><trkpt lat="44.1493317" lon="12.1578033"><ele>50.0</ele><time>2026-04-25T10:25:45.998Z</time></trkpt><trkpt lat="44.1494233" lon="12.1578367"><ele>50.0</ele><time>2026-04-25T10:25:46.999Z</time></trkpt><trkpt lat="44.1495083" lon="12.157875"><ele>50.0</ele><time>2026-04-25T10:25:47.999Z</time></trkpt><trkpt lat="44.1495883" lon="12.1579133"><ele>50.0</ele><time>2026-04-25T10:25:48.999Z</time></trkpt></trkseg></trk></gpx>